<?xml version="1.0" encoding="UTF-8" standalone="no" ?>
<gpx xmlns="http://www.topografix.com/GPX/1/1" xmlns:xsi="http://www.w3.org/2001/XMLSchema-instance" xsi:schemaLocation="http://www.topografix.com/GPX/1/1 http://www.topografix.com/GPX/1/1/gpx.xsd" version="1.1" creator="VisuGPX - https://www.visugpx.com">
  <metadata>
    <name>Méga Camplong</name>
    <desc><![CDATA[Méga Camplong]]></desc>
  </metadata>
  <trk>
    <name><![CDATA[Méga Camplong]]></name>
    <trkseg>
      <trkpt lat="43.68716" lon="3.13124">
        <ele>613</ele>
        <time>2014-06-06T07:32:15Z</time>
      </trkpt>
      <trkpt lat="43.68716" lon="3.13124">
        <ele>612.5999756</ele>
        <time>2014-06-06T07:32:16Z</time>
      </trkpt>
      <trkpt lat="43.68716" lon="3.13124">
        <ele>612.2000122</ele>
        <time>2014-06-06T07:32:17Z</time>
      </trkpt>
      <trkpt lat="43.68714" lon="3.13118">
        <ele>611</ele>
        <time>2014-06-06T07:33:12Z</time>
      </trkpt>
      <trkpt lat="43.68714" lon="3.13116">
        <ele>611</ele>
        <time>2014-06-06T07:33:13Z</time>
      </trkpt>
      <trkpt lat="43.68715" lon="3.13114">
        <ele>611</ele>
        <time>2014-06-06T07:33:14Z</time>
      </trkpt>
      <trkpt lat="43.68715" lon="3.13112">
        <ele>611</ele>
        <time>2014-06-06T07:33:15Z</time>
      </trkpt>
      <trkpt lat="43.68723" lon="3.13105">
        <ele>611</ele>
        <time>2014-06-06T07:33:20Z</time>
      </trkpt>
      <trkpt lat="43.68738" lon="3.13096">
        <ele>610.5999756</ele>
        <time>2014-06-06T07:33:25Z</time>
      </trkpt>
      <trkpt lat="43.68741" lon="3.13094">
        <ele>610</ele>
        <time>2014-06-06T07:33:26Z</time>
      </trkpt>
      <trkpt lat="43.68743" lon="3.13092">
        <ele>609.5999756</ele>
        <time>2014-06-06T07:33:27Z</time>
      </trkpt>
      <trkpt lat="43.68745" lon="3.13091">
        <ele>609.2000122</ele>
        <time>2014-06-06T07:33:28Z</time>
      </trkpt>
      <trkpt lat="43.68746" lon="3.1309">
        <ele>608.7999878</ele>
        <time>2014-06-06T07:33:29Z</time>
      </trkpt>
      <trkpt lat="43.68747" lon="3.13089">
        <ele>608.7999878</ele>
        <time>2014-06-06T07:33:30Z</time>
      </trkpt>
      <trkpt lat="43.68751" lon="3.13087">
        <ele>608.4000244</ele>
        <time>2014-06-06T07:33:33Z</time>
      </trkpt>
      <trkpt lat="43.68752" lon="3.13086">
        <ele>608</ele>
        <time>2014-06-06T07:33:34Z</time>
      </trkpt>
      <trkpt lat="43.68753" lon="3.13085">
        <ele>607.5999756</ele>
        <time>2014-06-06T07:33:35Z</time>
      </trkpt>
      <trkpt lat="43.68756" lon="3.13084">
        <ele>607.2000122</ele>
        <time>2014-06-06T07:33:36Z</time>
      </trkpt>
      <trkpt lat="43.68758" lon="3.13083">
        <ele>606.7999878</ele>
        <time>2014-06-06T07:33:37Z</time>
      </trkpt>
      <trkpt lat="43.68774" lon="3.13077">
        <ele>606.7999878</ele>
        <time>2014-06-06T07:33:44Z</time>
      </trkpt>
      <trkpt lat="43.68776" lon="3.13077">
        <ele>606.4000244</ele>
        <time>2014-06-06T07:33:45Z</time>
      </trkpt>
      <trkpt lat="43.68778" lon="3.13076">
        <ele>605.7999878</ele>
        <time>2014-06-06T07:33:46Z</time>
      </trkpt>
      <trkpt lat="43.68781" lon="3.13074">
        <ele>605.4000244</ele>
        <time>2014-06-06T07:33:47Z</time>
      </trkpt>
      <trkpt lat="43.68785" lon="3.13071">
        <ele>605</ele>
        <time>2014-06-06T07:33:48Z</time>
      </trkpt>
      <trkpt lat="43.68789" lon="3.13069">
        <ele>604.5999756</ele>
        <time>2014-06-06T07:33:49Z</time>
      </trkpt>
      <trkpt lat="43.68792" lon="3.13067">
        <ele>604.5999756</ele>
        <time>2014-06-06T07:33:50Z</time>
      </trkpt>
      <trkpt lat="43.68802" lon="3.13062">
        <ele>604.2000122</ele>
        <time>2014-06-06T07:33:53Z</time>
      </trkpt>
      <trkpt lat="43.68807" lon="3.13061">
        <ele>603.4000244</ele>
        <time>2014-06-06T07:33:54Z</time>
      </trkpt>
      <trkpt lat="43.68812" lon="3.1306">
        <ele>602.7999878</ele>
        <time>2014-06-06T07:33:55Z</time>
      </trkpt>
      <trkpt lat="43.68817" lon="3.13059">
        <ele>602.4000244</ele>
        <time>2014-06-06T07:33:56Z</time>
      </trkpt>
      <trkpt lat="43.68827" lon="3.13059">
        <ele>602.4000244</ele>
        <time>2014-06-06T07:33:58Z</time>
      </trkpt>
      <trkpt lat="43.68836" lon="3.13061">
        <ele>602.4000244</ele>
        <time>2014-06-06T07:34:00Z</time>
      </trkpt>
      <trkpt lat="43.68841" lon="3.13062">
        <ele>602.4000244</ele>
        <time>2014-06-06T07:34:01Z</time>
      </trkpt>
      <trkpt lat="43.68851" lon="3.13065">
        <ele>602</ele>
        <time>2014-06-06T07:34:03Z</time>
      </trkpt>
      <trkpt lat="43.68855" lon="3.13066">
        <ele>601.5999756</ele>
        <time>2014-06-06T07:34:04Z</time>
      </trkpt>
      <trkpt lat="43.6886" lon="3.13068">
        <ele>601.2000122</ele>
        <time>2014-06-06T07:34:05Z</time>
      </trkpt>
      <trkpt lat="43.68864" lon="3.1307">
        <ele>600.5999756</ele>
        <time>2014-06-06T07:34:06Z</time>
      </trkpt>
      <trkpt lat="43.68867" lon="3.13074">
        <ele>600.2000122</ele>
        <time>2014-06-06T07:34:07Z</time>
      </trkpt>
      <trkpt lat="43.68879" lon="3.13088">
        <ele>600.2000122</ele>
        <time>2014-06-06T07:34:10Z</time>
      </trkpt>
      <trkpt lat="43.68887" lon="3.13097">
        <ele>599.7999878</ele>
        <time>2014-06-06T07:34:13Z</time>
      </trkpt>
      <trkpt lat="43.68891" lon="3.13098">
        <ele>599.4000244</ele>
        <time>2014-06-06T07:34:14Z</time>
      </trkpt>
      <trkpt lat="43.68894" lon="3.13099">
        <ele>599</ele>
        <time>2014-06-06T07:34:15Z</time>
      </trkpt>
      <trkpt lat="43.68897" lon="3.131">
        <ele>598.5999756</ele>
        <time>2014-06-06T07:34:16Z</time>
      </trkpt>
      <trkpt lat="43.689" lon="3.13101">
        <ele>598.2000122</ele>
        <time>2014-06-06T07:34:17Z</time>
      </trkpt>
      <trkpt lat="43.68903" lon="3.13103">
        <ele>598.2000122</ele>
        <time>2014-06-06T07:34:18Z</time>
      </trkpt>
      <trkpt lat="43.6891" lon="3.13106">
        <ele>597.5999756</ele>
        <time>2014-06-06T07:34:20Z</time>
      </trkpt>
      <trkpt lat="43.68914" lon="3.13108">
        <ele>597.2000122</ele>
        <time>2014-06-06T07:34:21Z</time>
      </trkpt>
      <trkpt lat="43.68917" lon="3.1311">
        <ele>596.7999878</ele>
        <time>2014-06-06T07:34:22Z</time>
      </trkpt>
      <trkpt lat="43.68918" lon="3.13111">
        <ele>596.2000122</ele>
        <time>2014-06-06T07:34:23Z</time>
      </trkpt>
      <trkpt lat="43.6892" lon="3.13113">
        <ele>595.7999878</ele>
        <time>2014-06-06T07:34:24Z</time>
      </trkpt>
      <trkpt lat="43.68921" lon="3.13114">
        <ele>595.4000244</ele>
        <time>2014-06-06T07:34:25Z</time>
      </trkpt>
      <trkpt lat="43.68922" lon="3.13114">
        <ele>595</ele>
        <time>2014-06-06T07:34:26Z</time>
      </trkpt>
      <trkpt lat="43.68923" lon="3.13114">
        <ele>594.4000244</ele>
        <time>2014-06-06T07:34:27Z</time>
      </trkpt>
      <trkpt lat="43.68924" lon="3.13115">
        <ele>594</ele>
        <time>2014-06-06T07:34:28Z</time>
      </trkpt>
      <trkpt lat="43.68928" lon="3.13116">
        <ele>593.5999756</ele>
        <time>2014-06-06T07:34:30Z</time>
      </trkpt>
      <trkpt lat="43.68933" lon="3.13118">
        <ele>593.5999756</ele>
        <time>2014-06-06T07:34:33Z</time>
      </trkpt>
      <trkpt lat="43.68933" lon="3.13118">
        <ele>593.5999756</ele>
        <time>2014-06-06T07:34:35Z</time>
      </trkpt>
      <trkpt lat="43.68935" lon="3.13118">
        <ele>593.5999756</ele>
        <time>2014-06-06T07:34:37Z</time>
      </trkpt>
      <trkpt lat="43.68937" lon="3.13118">
        <ele>593.5999756</ele>
        <time>2014-06-06T07:34:39Z</time>
      </trkpt>
      <trkpt lat="43.68936" lon="3.13119">
        <ele>593.5999756</ele>
        <time>2014-06-06T07:34:41Z</time>
      </trkpt>
      <trkpt lat="43.68944" lon="3.1312">
        <ele>593.5999756</ele>
        <time>2014-06-06T07:34:46Z</time>
      </trkpt>
      <trkpt lat="43.68951" lon="3.13119">
        <ele>593.5999756</ele>
        <time>2014-06-06T07:34:48Z</time>
      </trkpt>
      <trkpt lat="43.68966" lon="3.13119">
        <ele>593.5999756</ele>
        <time>2014-06-06T07:34:53Z</time>
      </trkpt>
      <trkpt lat="43.68969" lon="3.13119">
        <ele>593.5999756</ele>
        <time>2014-06-06T07:34:54Z</time>
      </trkpt>
      <trkpt lat="43.68974" lon="3.13119">
        <ele>593.2000122</ele>
        <time>2014-06-06T07:34:56Z</time>
      </trkpt>
      <trkpt lat="43.68977" lon="3.13119">
        <ele>592.7999878</ele>
        <time>2014-06-06T07:34:57Z</time>
      </trkpt>
      <trkpt lat="43.6898" lon="3.13119">
        <ele>592.2000122</ele>
        <time>2014-06-06T07:34:58Z</time>
      </trkpt>
      <trkpt lat="43.68982" lon="3.13119">
        <ele>591.7999878</ele>
        <time>2014-06-06T07:34:59Z</time>
      </trkpt>
      <trkpt lat="43.68985" lon="3.13118">
        <ele>591.4000244</ele>
        <time>2014-06-06T07:35:00Z</time>
      </trkpt>
      <trkpt lat="43.68993" lon="3.13116">
        <ele>591.4000244</ele>
        <time>2014-06-06T07:35:03Z</time>
      </trkpt>
      <trkpt lat="43.69002" lon="3.13116">
        <ele>591</ele>
        <time>2014-06-06T07:35:06Z</time>
      </trkpt>
      <trkpt lat="43.69006" lon="3.13116">
        <ele>590.5999756</ele>
        <time>2014-06-06T07:35:07Z</time>
      </trkpt>
      <trkpt lat="43.6901" lon="3.13116">
        <ele>589.7999878</ele>
        <time>2014-06-06T07:35:08Z</time>
      </trkpt>
      <trkpt lat="43.69013" lon="3.13116">
        <ele>589.4000244</ele>
        <time>2014-06-06T07:35:09Z</time>
      </trkpt>
      <trkpt lat="43.69024" lon="3.13117">
        <ele>589.4000244</ele>
        <time>2014-06-06T07:35:12Z</time>
      </trkpt>
      <trkpt lat="43.69042" lon="3.13122">
        <ele>589</ele>
        <time>2014-06-06T07:35:17Z</time>
      </trkpt>
      <trkpt lat="43.69045" lon="3.13123">
        <ele>588.5999756</ele>
        <time>2014-06-06T07:35:18Z</time>
      </trkpt>
      <trkpt lat="43.69048" lon="3.13124">
        <ele>588.2000122</ele>
        <time>2014-06-06T07:35:19Z</time>
      </trkpt>
      <trkpt lat="43.6905" lon="3.13125">
        <ele>587.5999756</ele>
        <time>2014-06-06T07:35:20Z</time>
      </trkpt>
      <trkpt lat="43.69053" lon="3.13127">
        <ele>587.2000122</ele>
        <time>2014-06-06T07:35:21Z</time>
      </trkpt>
      <trkpt lat="43.69056" lon="3.13129">
        <ele>587.2000122</ele>
        <time>2014-06-06T07:35:22Z</time>
      </trkpt>
      <trkpt lat="43.69074" lon="3.13144">
        <ele>587.2000122</ele>
        <time>2014-06-06T07:35:27Z</time>
      </trkpt>
      <trkpt lat="43.69078" lon="3.13147">
        <ele>586.7999878</ele>
        <time>2014-06-06T07:35:28Z</time>
      </trkpt>
      <trkpt lat="43.69081" lon="3.13149">
        <ele>586.4000244</ele>
        <time>2014-06-06T07:35:29Z</time>
      </trkpt>
      <trkpt lat="43.69084" lon="3.13152">
        <ele>586</ele>
        <time>2014-06-06T07:35:30Z</time>
      </trkpt>
      <trkpt lat="43.69087" lon="3.13155">
        <ele>585.5999756</ele>
        <time>2014-06-06T07:35:31Z</time>
      </trkpt>
      <trkpt lat="43.69089" lon="3.13158">
        <ele>585.2000122</ele>
        <time>2014-06-06T07:35:32Z</time>
      </trkpt>
      <trkpt lat="43.69098" lon="3.13167">
        <ele>585.2000122</ele>
        <time>2014-06-06T07:35:36Z</time>
      </trkpt>
      <trkpt lat="43.691" lon="3.13171">
        <ele>584.7999878</ele>
        <time>2014-06-06T07:35:37Z</time>
      </trkpt>
      <trkpt lat="43.69101" lon="3.13174">
        <ele>584.4000244</ele>
        <time>2014-06-06T07:35:38Z</time>
      </trkpt>
      <trkpt lat="43.69103" lon="3.13177">
        <ele>584</ele>
        <time>2014-06-06T07:35:39Z</time>
      </trkpt>
      <trkpt lat="43.69104" lon="3.13179">
        <ele>583.5999756</ele>
        <time>2014-06-06T07:35:40Z</time>
      </trkpt>
      <trkpt lat="43.69106" lon="3.13182">
        <ele>583.2000122</ele>
        <time>2014-06-06T07:35:41Z</time>
      </trkpt>
      <trkpt lat="43.69111" lon="3.13193">
        <ele>583.2000122</ele>
        <time>2014-06-06T07:35:45Z</time>
      </trkpt>
      <trkpt lat="43.69112" lon="3.13195">
        <ele>583.2000122</ele>
        <time>2014-06-06T07:35:46Z</time>
      </trkpt>
      <trkpt lat="43.69114" lon="3.13196">
        <ele>582.5999756</ele>
        <time>2014-06-06T07:35:48Z</time>
      </trkpt>
      <trkpt lat="43.69116" lon="3.13196">
        <ele>582.2000122</ele>
        <time>2014-06-06T07:35:49Z</time>
      </trkpt>
      <trkpt lat="43.69119" lon="3.13196">
        <ele>581.7999878</ele>
        <time>2014-06-06T07:35:50Z</time>
      </trkpt>
      <trkpt lat="43.6912" lon="3.13197">
        <ele>581.4000244</ele>
        <time>2014-06-06T07:35:51Z</time>
      </trkpt>
      <trkpt lat="43.69122" lon="3.13198">
        <ele>580.7999878</ele>
        <time>2014-06-06T07:35:52Z</time>
      </trkpt>
      <trkpt lat="43.69124" lon="3.13199">
        <ele>580.7999878</ele>
        <time>2014-06-06T07:35:53Z</time>
      </trkpt>
      <trkpt lat="43.69126" lon="3.132">
        <ele>580.7999878</ele>
        <time>2014-06-06T07:35:54Z</time>
      </trkpt>
      <trkpt lat="43.69132" lon="3.13202">
        <ele>580.7999878</ele>
        <time>2014-06-06T07:35:56Z</time>
      </trkpt>
      <trkpt lat="43.69134" lon="3.13203">
        <ele>580.7999878</ele>
        <time>2014-06-06T07:35:57Z</time>
      </trkpt>
      <trkpt lat="43.69138" lon="3.13204">
        <ele>580.7999878</ele>
        <time>2014-06-06T07:35:58Z</time>
      </trkpt>
      <trkpt lat="43.69147" lon="3.13207">
        <ele>580.4000244</ele>
        <time>2014-06-06T07:36:02Z</time>
      </trkpt>
      <trkpt lat="43.69149" lon="3.13209">
        <ele>580</ele>
        <time>2014-06-06T07:36:03Z</time>
      </trkpt>
      <trkpt lat="43.69152" lon="3.1321">
        <ele>579.5999756</ele>
        <time>2014-06-06T07:36:04Z</time>
      </trkpt>
      <trkpt lat="43.69154" lon="3.1321">
        <ele>579.2000122</ele>
        <time>2014-06-06T07:36:05Z</time>
      </trkpt>
      <trkpt lat="43.69155" lon="3.1321">
        <ele>578.7999878</ele>
        <time>2014-06-06T07:36:06Z</time>
      </trkpt>
      <trkpt lat="43.69159" lon="3.13208">
        <ele>578.7999878</ele>
        <time>2014-06-06T07:36:08Z</time>
      </trkpt>
      <trkpt lat="43.69162" lon="3.13196">
        <ele>578.7999878</ele>
        <time>2014-06-06T07:36:14Z</time>
      </trkpt>
      <trkpt lat="43.69165" lon="3.13182">
        <ele>578.4000244</ele>
        <time>2014-06-06T07:36:18Z</time>
      </trkpt>
      <trkpt lat="43.69166" lon="3.13179">
        <ele>578</ele>
        <time>2014-06-06T07:36:19Z</time>
      </trkpt>
      <trkpt lat="43.69167" lon="3.13176">
        <ele>577.5999756</ele>
        <time>2014-06-06T07:36:20Z</time>
      </trkpt>
      <trkpt lat="43.69168" lon="3.13174">
        <ele>577.2000122</ele>
        <time>2014-06-06T07:36:21Z</time>
      </trkpt>
      <trkpt lat="43.69168" lon="3.13172">
        <ele>576.7999878</ele>
        <time>2014-06-06T07:36:22Z</time>
      </trkpt>
      <trkpt lat="43.69168" lon="3.13171">
        <ele>576.7999878</ele>
        <time>2014-06-06T07:36:23Z</time>
      </trkpt>
      <trkpt lat="43.69169" lon="3.13164">
        <ele>576.7999878</ele>
        <time>2014-06-06T07:36:25Z</time>
      </trkpt>
      <trkpt lat="43.69169" lon="3.1316">
        <ele>576.7999878</ele>
        <time>2014-06-06T07:36:26Z</time>
      </trkpt>
      <trkpt lat="43.69173" lon="3.13153">
        <ele>576.7999878</ele>
        <time>2014-06-06T07:36:29Z</time>
      </trkpt>
      <trkpt lat="43.69175" lon="3.13151">
        <ele>576.7999878</ele>
        <time>2014-06-06T07:36:30Z</time>
      </trkpt>
      <trkpt lat="43.69176" lon="3.13149">
        <ele>576.4000244</ele>
        <time>2014-06-06T07:36:31Z</time>
      </trkpt>
      <trkpt lat="43.69178" lon="3.13147">
        <ele>576</ele>
        <time>2014-06-06T07:36:32Z</time>
      </trkpt>
      <trkpt lat="43.69178" lon="3.13146">
        <ele>575.4000244</ele>
        <time>2014-06-06T07:36:33Z</time>
      </trkpt>
      <trkpt lat="43.69178" lon="3.13145">
        <ele>575</ele>
        <time>2014-06-06T07:36:34Z</time>
      </trkpt>
      <trkpt lat="43.69178" lon="3.13145">
        <ele>574.5999756</ele>
        <time>2014-06-06T07:36:35Z</time>
      </trkpt>
      <trkpt lat="43.69178" lon="3.13145">
        <ele>574.5999756</ele>
        <time>2014-06-06T07:36:36Z</time>
      </trkpt>
      <trkpt lat="43.69178" lon="3.13145">
        <ele>574.5999756</ele>
        <time>2014-06-06T07:36:37Z</time>
      </trkpt>
      <trkpt lat="43.69187" lon="3.13138">
        <ele>574.5999756</ele>
        <time>2014-06-06T07:36:47Z</time>
      </trkpt>
      <trkpt lat="43.69191" lon="3.13135">
        <ele>574.5999756</ele>
        <time>2014-06-06T07:36:49Z</time>
      </trkpt>
      <trkpt lat="43.69203" lon="3.13127">
        <ele>574.5999756</ele>
        <time>2014-06-06T07:36:54Z</time>
      </trkpt>
      <trkpt lat="43.69205" lon="3.13126">
        <ele>574.2000122</ele>
        <time>2014-06-06T07:36:55Z</time>
      </trkpt>
      <trkpt lat="43.69207" lon="3.13126">
        <ele>573.7999878</ele>
        <time>2014-06-06T07:36:56Z</time>
      </trkpt>
      <trkpt lat="43.69209" lon="3.13126">
        <ele>573.2000122</ele>
        <time>2014-06-06T07:36:57Z</time>
      </trkpt>
      <trkpt lat="43.69211" lon="3.13125">
        <ele>572.7999878</ele>
        <time>2014-06-06T07:36:58Z</time>
      </trkpt>
      <trkpt lat="43.69214" lon="3.13125">
        <ele>572.4000244</ele>
        <time>2014-06-06T07:36:59Z</time>
      </trkpt>
      <trkpt lat="43.69216" lon="3.13125">
        <ele>572.4000244</ele>
        <time>2014-06-06T07:37:00Z</time>
      </trkpt>
      <trkpt lat="43.69228" lon="3.13125">
        <ele>572.4000244</ele>
        <time>2014-06-06T07:37:04Z</time>
      </trkpt>
      <trkpt lat="43.69229" lon="3.13124">
        <ele>572.4000244</ele>
        <time>2014-06-06T07:37:05Z</time>
      </trkpt>
      <trkpt lat="43.69234" lon="3.13119">
        <ele>572.4000244</ele>
        <time>2014-06-06T07:37:08Z</time>
      </trkpt>
      <trkpt lat="43.69237" lon="3.13119">
        <ele>572</ele>
        <time>2014-06-06T07:37:10Z</time>
      </trkpt>
      <trkpt lat="43.69239" lon="3.13119">
        <ele>571</ele>
        <time>2014-06-06T07:37:11Z</time>
      </trkpt>
      <trkpt lat="43.69242" lon="3.13118">
        <ele>570.5999756</ele>
        <time>2014-06-06T07:37:12Z</time>
      </trkpt>
      <trkpt lat="43.69244" lon="3.13118">
        <ele>570.2000122</ele>
        <time>2014-06-06T07:37:13Z</time>
      </trkpt>
      <trkpt lat="43.6925" lon="3.13113">
        <ele>570.2000122</ele>
        <time>2014-06-06T07:37:16Z</time>
      </trkpt>
      <trkpt lat="43.69252" lon="3.1311">
        <ele>570.2000122</ele>
        <time>2014-06-06T07:37:18Z</time>
      </trkpt>
      <trkpt lat="43.69253" lon="3.13108">
        <ele>569.7999878</ele>
        <time>2014-06-06T07:37:19Z</time>
      </trkpt>
      <trkpt lat="43.69254" lon="3.13107">
        <ele>569.4000244</ele>
        <time>2014-06-06T07:37:20Z</time>
      </trkpt>
      <trkpt lat="43.69254" lon="3.13106">
        <ele>569</ele>
        <time>2014-06-06T07:37:21Z</time>
      </trkpt>
      <trkpt lat="43.69256" lon="3.13104">
        <ele>568.5999756</ele>
        <time>2014-06-06T07:37:22Z</time>
      </trkpt>
      <trkpt lat="43.69256" lon="3.13102">
        <ele>568.2000122</ele>
        <time>2014-06-06T07:37:23Z</time>
      </trkpt>
      <trkpt lat="43.69257" lon="3.1308">
        <ele>568.2000122</ele>
        <time>2014-06-06T07:37:45Z</time>
      </trkpt>
      <trkpt lat="43.69251" lon="3.13074">
        <ele>568.2000122</ele>
        <time>2014-06-06T07:37:49Z</time>
      </trkpt>
      <trkpt lat="43.69241" lon="3.13062">
        <ele>568.2000122</ele>
        <time>2014-06-06T07:37:54Z</time>
      </trkpt>
      <trkpt lat="43.69239" lon="3.13059">
        <ele>568.2000122</ele>
        <time>2014-06-06T07:37:55Z</time>
      </trkpt>
      <trkpt lat="43.69237" lon="3.13051">
        <ele>567.7999878</ele>
        <time>2014-06-06T07:37:57Z</time>
      </trkpt>
      <trkpt lat="43.69236" lon="3.13046">
        <ele>567.2000122</ele>
        <time>2014-06-06T07:37:58Z</time>
      </trkpt>
      <trkpt lat="43.69235" lon="3.13041">
        <ele>566.7999878</ele>
        <time>2014-06-06T07:37:59Z</time>
      </trkpt>
      <trkpt lat="43.69234" lon="3.13036">
        <ele>566</ele>
        <time>2014-06-06T07:38:00Z</time>
      </trkpt>
      <trkpt lat="43.6923" lon="3.13019">
        <ele>566</ele>
        <time>2014-06-06T07:38:04Z</time>
      </trkpt>
      <trkpt lat="43.69229" lon="3.13005">
        <ele>565.5999756</ele>
        <time>2014-06-06T07:38:07Z</time>
      </trkpt>
      <trkpt lat="43.6923" lon="3.13">
        <ele>565.2000122</ele>
        <time>2014-06-06T07:38:08Z</time>
      </trkpt>
      <trkpt lat="43.6923" lon="3.12996">
        <ele>564.7999878</ele>
        <time>2014-06-06T07:38:09Z</time>
      </trkpt>
      <trkpt lat="43.69231" lon="3.12992">
        <ele>564.4000244</ele>
        <time>2014-06-06T07:38:10Z</time>
      </trkpt>
      <trkpt lat="43.69232" lon="3.12988">
        <ele>564</ele>
        <time>2014-06-06T07:38:11Z</time>
      </trkpt>
      <trkpt lat="43.69233" lon="3.1297">
        <ele>564</ele>
        <time>2014-06-06T07:38:15Z</time>
      </trkpt>
      <trkpt lat="43.6923" lon="3.12962">
        <ele>564</ele>
        <time>2014-06-06T07:38:17Z</time>
      </trkpt>
      <trkpt lat="43.69228" lon="3.12957">
        <ele>564</ele>
        <time>2014-06-06T07:38:19Z</time>
      </trkpt>
      <trkpt lat="43.69232" lon="3.12951">
        <ele>564</ele>
        <time>2014-06-06T07:38:22Z</time>
      </trkpt>
      <trkpt lat="43.69236" lon="3.12947">
        <ele>564</ele>
        <time>2014-06-06T07:38:24Z</time>
      </trkpt>
      <trkpt lat="43.69242" lon="3.12937">
        <ele>564</ele>
        <time>2014-06-06T07:38:27Z</time>
      </trkpt>
      <trkpt lat="43.69243" lon="3.12932">
        <ele>563.5999756</ele>
        <time>2014-06-06T07:38:28Z</time>
      </trkpt>
      <trkpt lat="43.69245" lon="3.12928">
        <ele>563</ele>
        <time>2014-06-06T07:38:29Z</time>
      </trkpt>
      <trkpt lat="43.69246" lon="3.12925">
        <ele>562.5999756</ele>
        <time>2014-06-06T07:38:30Z</time>
      </trkpt>
      <trkpt lat="43.69247" lon="3.1292">
        <ele>562.2000122</ele>
        <time>2014-06-06T07:38:31Z</time>
      </trkpt>
      <trkpt lat="43.69248" lon="3.12916">
        <ele>561.7999878</ele>
        <time>2014-06-06T07:38:32Z</time>
      </trkpt>
      <trkpt lat="43.69249" lon="3.12908">
        <ele>561.7999878</ele>
        <time>2014-06-06T07:38:34Z</time>
      </trkpt>
      <trkpt lat="43.69251" lon="3.12893">
        <ele>561.2000122</ele>
        <time>2014-06-06T07:38:38Z</time>
      </trkpt>
      <trkpt lat="43.69252" lon="3.1289">
        <ele>560.7999878</ele>
        <time>2014-06-06T07:38:39Z</time>
      </trkpt>
      <trkpt lat="43.69251" lon="3.12886">
        <ele>560.4000244</ele>
        <time>2014-06-06T07:38:40Z</time>
      </trkpt>
      <trkpt lat="43.69252" lon="3.12882">
        <ele>560</ele>
        <time>2014-06-06T07:38:41Z</time>
      </trkpt>
      <trkpt lat="43.69252" lon="3.12878">
        <ele>559.5999756</ele>
        <time>2014-06-06T07:38:42Z</time>
      </trkpt>
      <trkpt lat="43.69254" lon="3.12863">
        <ele>559.5999756</ele>
        <time>2014-06-06T07:38:45Z</time>
      </trkpt>
      <trkpt lat="43.69259" lon="3.12848">
        <ele>559.5999756</ele>
        <time>2014-06-06T07:38:49Z</time>
      </trkpt>
      <trkpt lat="43.69259" lon="3.12845">
        <ele>559.5999756</ele>
        <time>2014-06-06T07:38:50Z</time>
      </trkpt>
      <trkpt lat="43.69258" lon="3.12838">
        <ele>559.2000122</ele>
        <time>2014-06-06T07:38:52Z</time>
      </trkpt>
      <trkpt lat="43.69257" lon="3.12832">
        <ele>558.7999878</ele>
        <time>2014-06-06T07:38:53Z</time>
      </trkpt>
      <trkpt lat="43.69256" lon="3.12826">
        <ele>558.4000244</ele>
        <time>2014-06-06T07:38:54Z</time>
      </trkpt>
      <trkpt lat="43.69255" lon="3.1282">
        <ele>558</ele>
        <time>2014-06-06T07:38:56Z</time>
      </trkpt>
      <trkpt lat="43.69254" lon="3.12815">
        <ele>557.5999756</ele>
        <time>2014-06-06T07:38:57Z</time>
      </trkpt>
      <trkpt lat="43.69251" lon="3.12805">
        <ele>557.2000122</ele>
        <time>2014-06-06T07:38:59Z</time>
      </trkpt>
      <trkpt lat="43.6925" lon="3.128">
        <ele>556.5999756</ele>
        <time>2014-06-06T07:39:00Z</time>
      </trkpt>
      <trkpt lat="43.69249" lon="3.12795">
        <ele>556.2000122</ele>
        <time>2014-06-06T07:39:01Z</time>
      </trkpt>
      <trkpt lat="43.69248" lon="3.12789">
        <ele>555.7999878</ele>
        <time>2014-06-06T07:39:02Z</time>
      </trkpt>
      <trkpt lat="43.69248" lon="3.12784">
        <ele>555.4000244</ele>
        <time>2014-06-06T07:39:03Z</time>
      </trkpt>
      <trkpt lat="43.69248" lon="3.12777">
        <ele>555</ele>
        <time>2014-06-06T07:39:05Z</time>
      </trkpt>
      <trkpt lat="43.69249" lon="3.12773">
        <ele>554.4000244</ele>
        <time>2014-06-06T07:39:06Z</time>
      </trkpt>
      <trkpt lat="43.69249" lon="3.1277">
        <ele>554</ele>
        <time>2014-06-06T07:39:07Z</time>
      </trkpt>
      <trkpt lat="43.6925" lon="3.12766">
        <ele>553.5999756</ele>
        <time>2014-06-06T07:39:08Z</time>
      </trkpt>
      <trkpt lat="43.69251" lon="3.12762">
        <ele>553.2000122</ele>
        <time>2014-06-06T07:39:09Z</time>
      </trkpt>
      <trkpt lat="43.69252" lon="3.12757">
        <ele>553.2000122</ele>
        <time>2014-06-06T07:39:10Z</time>
      </trkpt>
      <trkpt lat="43.69251" lon="3.12747">
        <ele>553.2000122</ele>
        <time>2014-06-06T07:39:13Z</time>
      </trkpt>
      <trkpt lat="43.69252" lon="3.12743">
        <ele>552.7999878</ele>
        <time>2014-06-06T07:39:14Z</time>
      </trkpt>
      <trkpt lat="43.69253" lon="3.12739">
        <ele>552</ele>
        <time>2014-06-06T07:39:15Z</time>
      </trkpt>
      <trkpt lat="43.69253" lon="3.12735">
        <ele>551.5999756</ele>
        <time>2014-06-06T07:39:16Z</time>
      </trkpt>
      <trkpt lat="43.69253" lon="3.12731">
        <ele>551</ele>
        <time>2014-06-06T07:39:17Z</time>
      </trkpt>
      <trkpt lat="43.69254" lon="3.12723">
        <ele>551</ele>
        <time>2014-06-06T07:39:19Z</time>
      </trkpt>
      <trkpt lat="43.69257" lon="3.12711">
        <ele>551</ele>
        <time>2014-06-06T07:39:23Z</time>
      </trkpt>
      <trkpt lat="43.69257" lon="3.12708">
        <ele>551</ele>
        <time>2014-06-06T07:39:24Z</time>
      </trkpt>
      <trkpt lat="43.69256" lon="3.12696">
        <ele>551</ele>
        <time>2014-06-06T07:39:28Z</time>
      </trkpt>
      <trkpt lat="43.69256" lon="3.12686">
        <ele>551</ele>
        <time>2014-06-06T07:39:31Z</time>
      </trkpt>
      <trkpt lat="43.69255" lon="3.12677">
        <ele>550.5999756</ele>
        <time>2014-06-06T07:39:34Z</time>
      </trkpt>
      <trkpt lat="43.69253" lon="3.12673">
        <ele>550.2000122</ele>
        <time>2014-06-06T07:39:35Z</time>
      </trkpt>
      <trkpt lat="43.69251" lon="3.1267">
        <ele>549.7999878</ele>
        <time>2014-06-06T07:39:36Z</time>
      </trkpt>
      <trkpt lat="43.69249" lon="3.12667">
        <ele>549.4000244</ele>
        <time>2014-06-06T07:39:37Z</time>
      </trkpt>
      <trkpt lat="43.69247" lon="3.12664">
        <ele>549</ele>
        <time>2014-06-06T07:39:38Z</time>
      </trkpt>
      <trkpt lat="43.69242" lon="3.12651">
        <ele>549</ele>
        <time>2014-06-06T07:39:41Z</time>
      </trkpt>
      <trkpt lat="43.69233" lon="3.12636">
        <ele>548.4000244</ele>
        <time>2014-06-06T07:39:45Z</time>
      </trkpt>
      <trkpt lat="43.69232" lon="3.12632">
        <ele>548</ele>
        <time>2014-06-06T07:39:46Z</time>
      </trkpt>
      <trkpt lat="43.6923" lon="3.12628">
        <ele>547.5999756</ele>
        <time>2014-06-06T07:39:47Z</time>
      </trkpt>
      <trkpt lat="43.69229" lon="3.12623">
        <ele>547</ele>
        <time>2014-06-06T07:39:48Z</time>
      </trkpt>
      <trkpt lat="43.69227" lon="3.12619">
        <ele>546.5999756</ele>
        <time>2014-06-06T07:39:49Z</time>
      </trkpt>
      <trkpt lat="43.69226" lon="3.12605">
        <ele>546.5999756</ele>
        <time>2014-06-06T07:39:52Z</time>
      </trkpt>
      <trkpt lat="43.69226" lon="3.12591">
        <ele>546.5999756</ele>
        <time>2014-06-06T07:39:55Z</time>
      </trkpt>
      <trkpt lat="43.69226" lon="3.12586">
        <ele>546.2000122</ele>
        <time>2014-06-06T07:39:56Z</time>
      </trkpt>
      <trkpt lat="43.69226" lon="3.1258">
        <ele>545.7999878</ele>
        <time>2014-06-06T07:39:57Z</time>
      </trkpt>
      <trkpt lat="43.69228" lon="3.12574">
        <ele>545.4000244</ele>
        <time>2014-06-06T07:39:58Z</time>
      </trkpt>
      <trkpt lat="43.69229" lon="3.1257">
        <ele>545</ele>
        <time>2014-06-06T07:39:59Z</time>
      </trkpt>
      <trkpt lat="43.69231" lon="3.12566">
        <ele>544.5999756</ele>
        <time>2014-06-06T07:40:00Z</time>
      </trkpt>
      <trkpt lat="43.69235" lon="3.12561">
        <ele>544.5999756</ele>
        <time>2014-06-06T07:40:02Z</time>
      </trkpt>
      <trkpt lat="43.69244" lon="3.12557">
        <ele>544.2000122</ele>
        <time>2014-06-06T07:40:06Z</time>
      </trkpt>
      <trkpt lat="43.69247" lon="3.12557">
        <ele>543.7999878</ele>
        <time>2014-06-06T07:40:07Z</time>
      </trkpt>
      <trkpt lat="43.69249" lon="3.12557">
        <ele>543.4000244</ele>
        <time>2014-06-06T07:40:08Z</time>
      </trkpt>
      <trkpt lat="43.69252" lon="3.12556">
        <ele>543</ele>
        <time>2014-06-06T07:40:09Z</time>
      </trkpt>
      <trkpt lat="43.69254" lon="3.12554">
        <ele>542.5999756</ele>
        <time>2014-06-06T07:40:10Z</time>
      </trkpt>
      <trkpt lat="43.69257" lon="3.12553">
        <ele>542.5999756</ele>
        <time>2014-06-06T07:40:11Z</time>
      </trkpt>
      <trkpt lat="43.69261" lon="3.12551">
        <ele>542.5999756</ele>
        <time>2014-06-06T07:40:12Z</time>
      </trkpt>
      <trkpt lat="43.69268" lon="3.12549">
        <ele>542.2000122</ele>
        <time>2014-06-06T07:40:15Z</time>
      </trkpt>
      <trkpt lat="43.69271" lon="3.12548">
        <ele>541.7999878</ele>
        <time>2014-06-06T07:40:16Z</time>
      </trkpt>
      <trkpt lat="43.69274" lon="3.12547">
        <ele>541.4000244</ele>
        <time>2014-06-06T07:40:17Z</time>
      </trkpt>
      <trkpt lat="43.69277" lon="3.12545">
        <ele>541</ele>
        <time>2014-06-06T07:40:18Z</time>
      </trkpt>
      <trkpt lat="43.6928" lon="3.12542">
        <ele>540.5999756</ele>
        <time>2014-06-06T07:40:19Z</time>
      </trkpt>
      <trkpt lat="43.69291" lon="3.12533">
        <ele>540.5999756</ele>
        <time>2014-06-06T07:40:22Z</time>
      </trkpt>
      <trkpt lat="43.69305" lon="3.12522">
        <ele>540.2000122</ele>
        <time>2014-06-06T07:40:26Z</time>
      </trkpt>
      <trkpt lat="43.69309" lon="3.12519">
        <ele>539.7999878</ele>
        <time>2014-06-06T07:40:27Z</time>
      </trkpt>
      <trkpt lat="43.69313" lon="3.12517">
        <ele>539.4000244</ele>
        <time>2014-06-06T07:40:28Z</time>
      </trkpt>
      <trkpt lat="43.69316" lon="3.12515">
        <ele>538.5999756</ele>
        <time>2014-06-06T07:40:29Z</time>
      </trkpt>
      <trkpt lat="43.69325" lon="3.12508">
        <ele>538.5999756</ele>
        <time>2014-06-06T07:40:32Z</time>
      </trkpt>
      <trkpt lat="43.69327" lon="3.12506">
        <ele>538.2000122</ele>
        <time>2014-06-06T07:40:33Z</time>
      </trkpt>
      <trkpt lat="43.6933" lon="3.12504">
        <ele>537.7999878</ele>
        <time>2014-06-06T07:40:34Z</time>
      </trkpt>
      <trkpt lat="43.69331" lon="3.12502">
        <ele>537.4000244</ele>
        <time>2014-06-06T07:40:35Z</time>
      </trkpt>
      <trkpt lat="43.69334" lon="3.125">
        <ele>537</ele>
        <time>2014-06-06T07:40:36Z</time>
      </trkpt>
      <trkpt lat="43.69336" lon="3.12498">
        <ele>536.4000244</ele>
        <time>2014-06-06T07:40:37Z</time>
      </trkpt>
      <trkpt lat="43.69339" lon="3.12497">
        <ele>536.4000244</ele>
        <time>2014-06-06T07:40:38Z</time>
      </trkpt>
      <trkpt lat="43.69357" lon="3.12486">
        <ele>536</ele>
        <time>2014-06-06T07:40:44Z</time>
      </trkpt>
      <trkpt lat="43.69359" lon="3.12485">
        <ele>535.5999756</ele>
        <time>2014-06-06T07:40:45Z</time>
      </trkpt>
      <trkpt lat="43.69361" lon="3.12483">
        <ele>535.2000122</ele>
        <time>2014-06-06T07:40:46Z</time>
      </trkpt>
      <trkpt lat="43.69364" lon="3.12482">
        <ele>534.7999878</ele>
        <time>2014-06-06T07:40:47Z</time>
      </trkpt>
      <trkpt lat="43.69366" lon="3.1248">
        <ele>534.4000244</ele>
        <time>2014-06-06T07:40:48Z</time>
      </trkpt>
      <trkpt lat="43.69372" lon="3.12478">
        <ele>534.4000244</ele>
        <time>2014-06-06T07:40:50Z</time>
      </trkpt>
      <trkpt lat="43.69382" lon="3.12473">
        <ele>534</ele>
        <time>2014-06-06T07:40:54Z</time>
      </trkpt>
      <trkpt lat="43.69386" lon="3.12472">
        <ele>533.5999756</ele>
        <time>2014-06-06T07:40:55Z</time>
      </trkpt>
      <trkpt lat="43.69389" lon="3.12472">
        <ele>533.2000122</ele>
        <time>2014-06-06T07:40:56Z</time>
      </trkpt>
      <trkpt lat="43.69392" lon="3.12471">
        <ele>532.7999878</ele>
        <time>2014-06-06T07:40:57Z</time>
      </trkpt>
      <trkpt lat="43.69396" lon="3.12469">
        <ele>532.4000244</ele>
        <time>2014-06-06T07:40:58Z</time>
      </trkpt>
      <trkpt lat="43.69407" lon="3.12464">
        <ele>532.4000244</ele>
        <time>2014-06-06T07:41:02Z</time>
      </trkpt>
      <trkpt lat="43.69415" lon="3.12463">
        <ele>532</ele>
        <time>2014-06-06T07:41:05Z</time>
      </trkpt>
      <trkpt lat="43.69418" lon="3.12462">
        <ele>531.5999756</ele>
        <time>2014-06-06T07:41:06Z</time>
      </trkpt>
      <trkpt lat="43.6942" lon="3.12462">
        <ele>531.2000122</ele>
        <time>2014-06-06T07:41:07Z</time>
      </trkpt>
      <trkpt lat="43.69423" lon="3.12464">
        <ele>530.5999756</ele>
        <time>2014-06-06T07:41:08Z</time>
      </trkpt>
      <trkpt lat="43.69425" lon="3.12466">
        <ele>530.2000122</ele>
        <time>2014-06-06T07:41:09Z</time>
      </trkpt>
      <trkpt lat="43.69431" lon="3.12468">
        <ele>530.2000122</ele>
        <time>2014-06-06T07:41:11Z</time>
      </trkpt>
      <trkpt lat="43.69441" lon="3.12471">
        <ele>530.2000122</ele>
        <time>2014-06-06T07:41:15Z</time>
      </trkpt>
      <trkpt lat="43.69443" lon="3.12472">
        <ele>530.2000122</ele>
        <time>2014-06-06T07:41:16Z</time>
      </trkpt>
      <trkpt lat="43.69449" lon="3.12478">
        <ele>530.2000122</ele>
        <time>2014-06-06T07:41:19Z</time>
      </trkpt>
      <trkpt lat="43.69452" lon="3.12478">
        <ele>530.2000122</ele>
        <time>2014-06-06T07:41:20Z</time>
      </trkpt>
      <trkpt lat="43.69455" lon="3.12477">
        <ele>529.7999878</ele>
        <time>2014-06-06T07:41:21Z</time>
      </trkpt>
      <trkpt lat="43.69457" lon="3.12478">
        <ele>529.4000244</ele>
        <time>2014-06-06T07:41:22Z</time>
      </trkpt>
      <trkpt lat="43.69459" lon="3.12479">
        <ele>529</ele>
        <time>2014-06-06T07:41:23Z</time>
      </trkpt>
      <trkpt lat="43.6946" lon="3.12482">
        <ele>528.5999756</ele>
        <time>2014-06-06T07:41:24Z</time>
      </trkpt>
      <trkpt lat="43.69462" lon="3.12484">
        <ele>528.2000122</ele>
        <time>2014-06-06T07:41:25Z</time>
      </trkpt>
      <trkpt lat="43.6947" lon="3.12488">
        <ele>528.2000122</ele>
        <time>2014-06-06T07:41:28Z</time>
      </trkpt>
      <trkpt lat="43.69475" lon="3.12495">
        <ele>527.7999878</ele>
        <time>2014-06-06T07:41:31Z</time>
      </trkpt>
      <trkpt lat="43.69477" lon="3.12498">
        <ele>527.4000244</ele>
        <time>2014-06-06T07:41:32Z</time>
      </trkpt>
      <trkpt lat="43.6948" lon="3.12501">
        <ele>527</ele>
        <time>2014-06-06T07:41:33Z</time>
      </trkpt>
      <trkpt lat="43.69482" lon="3.12503">
        <ele>526.4000244</ele>
        <time>2014-06-06T07:41:34Z</time>
      </trkpt>
      <trkpt lat="43.69484" lon="3.12505">
        <ele>526</ele>
        <time>2014-06-06T07:41:35Z</time>
      </trkpt>
      <trkpt lat="43.69491" lon="3.12509">
        <ele>526</ele>
        <time>2014-06-06T07:41:38Z</time>
      </trkpt>
      <trkpt lat="43.69496" lon="3.12516">
        <ele>525.5999756</ele>
        <time>2014-06-06T07:41:41Z</time>
      </trkpt>
      <trkpt lat="43.69498" lon="3.12518">
        <ele>525.2000122</ele>
        <time>2014-06-06T07:41:42Z</time>
      </trkpt>
      <trkpt lat="43.695" lon="3.12518">
        <ele>524.7999878</ele>
        <time>2014-06-06T07:41:43Z</time>
      </trkpt>
      <trkpt lat="43.69503" lon="3.12518">
        <ele>524.4000244</ele>
        <time>2014-06-06T07:41:44Z</time>
      </trkpt>
      <trkpt lat="43.69505" lon="3.12519">
        <ele>524</ele>
        <time>2014-06-06T07:41:45Z</time>
      </trkpt>
      <trkpt lat="43.69507" lon="3.12524">
        <ele>524</ele>
        <time>2014-06-06T07:41:47Z</time>
      </trkpt>
      <trkpt lat="43.69514" lon="3.12536">
        <ele>524</ele>
        <time>2014-06-06T07:41:52Z</time>
      </trkpt>
      <trkpt lat="43.69516" lon="3.12538">
        <ele>523.5999756</ele>
        <time>2014-06-06T07:41:54Z</time>
      </trkpt>
      <trkpt lat="43.69517" lon="3.12538">
        <ele>523.2000122</ele>
        <time>2014-06-06T07:41:55Z</time>
      </trkpt>
      <trkpt lat="43.69518" lon="3.12537">
        <ele>522.5999756</ele>
        <time>2014-06-06T07:41:56Z</time>
      </trkpt>
      <trkpt lat="43.69519" lon="3.12536">
        <ele>522.2000122</ele>
        <time>2014-06-06T07:41:57Z</time>
      </trkpt>
      <trkpt lat="43.6952" lon="3.12535">
        <ele>521.7999878</ele>
        <time>2014-06-06T07:41:58Z</time>
      </trkpt>
      <trkpt lat="43.69521" lon="3.12534">
        <ele>521.7999878</ele>
        <time>2014-06-06T07:41:59Z</time>
      </trkpt>
      <trkpt lat="43.69522" lon="3.12533">
        <ele>521.7999878</ele>
        <time>2014-06-06T07:42:00Z</time>
      </trkpt>
      <trkpt lat="43.69523" lon="3.12534">
        <ele>521.7999878</ele>
        <time>2014-06-06T07:42:01Z</time>
      </trkpt>
      <trkpt lat="43.69525" lon="3.12533">
        <ele>521.7999878</ele>
        <time>2014-06-06T07:42:04Z</time>
      </trkpt>
      <trkpt lat="43.69531" lon="3.12527">
        <ele>521.7999878</ele>
        <time>2014-06-06T07:42:11Z</time>
      </trkpt>
      <trkpt lat="43.69533" lon="3.12526">
        <ele>521.7999878</ele>
        <time>2014-06-06T07:42:12Z</time>
      </trkpt>
      <trkpt lat="43.69535" lon="3.12526">
        <ele>521.4000244</ele>
        <time>2014-06-06T07:42:13Z</time>
      </trkpt>
      <trkpt lat="43.69537" lon="3.12525">
        <ele>521</ele>
        <time>2014-06-06T07:42:14Z</time>
      </trkpt>
      <trkpt lat="43.69539" lon="3.12524">
        <ele>520.5999756</ele>
        <time>2014-06-06T07:42:15Z</time>
      </trkpt>
      <trkpt lat="43.69541" lon="3.12523">
        <ele>520.2000122</ele>
        <time>2014-06-06T07:42:16Z</time>
      </trkpt>
      <trkpt lat="43.69544" lon="3.12523">
        <ele>519.7999878</ele>
        <time>2014-06-06T07:42:17Z</time>
      </trkpt>
      <trkpt lat="43.69545" lon="3.12523">
        <ele>519.7999878</ele>
        <time>2014-06-06T07:42:18Z</time>
      </trkpt>
      <trkpt lat="43.69549" lon="3.12524">
        <ele>519.7999878</ele>
        <time>2014-06-06T07:42:19Z</time>
      </trkpt>
      <trkpt lat="43.69558" lon="3.1253">
        <ele>519.7999878</ele>
        <time>2014-06-06T07:42:22Z</time>
      </trkpt>
      <trkpt lat="43.69562" lon="3.12531">
        <ele>519.4000244</ele>
        <time>2014-06-06T07:42:23Z</time>
      </trkpt>
      <trkpt lat="43.69565" lon="3.12529">
        <ele>519</ele>
        <time>2014-06-06T07:42:24Z</time>
      </trkpt>
      <trkpt lat="43.69567" lon="3.12526">
        <ele>518.5999756</ele>
        <time>2014-06-06T07:42:25Z</time>
      </trkpt>
      <trkpt lat="43.69569" lon="3.12524">
        <ele>518.2000122</ele>
        <time>2014-06-06T07:42:26Z</time>
      </trkpt>
      <trkpt lat="43.69571" lon="3.12521">
        <ele>517.7999878</ele>
        <time>2014-06-06T07:42:27Z</time>
      </trkpt>
      <trkpt lat="43.69576" lon="3.12517">
        <ele>517.7999878</ele>
        <time>2014-06-06T07:42:30Z</time>
      </trkpt>
      <trkpt lat="43.69578" lon="3.12515">
        <ele>517.4000244</ele>
        <time>2014-06-06T07:42:31Z</time>
      </trkpt>
      <trkpt lat="43.69579" lon="3.12513">
        <ele>516.7999878</ele>
        <time>2014-06-06T07:42:32Z</time>
      </trkpt>
      <trkpt lat="43.6958" lon="3.12512">
        <ele>516.4000244</ele>
        <time>2014-06-06T07:42:33Z</time>
      </trkpt>
      <trkpt lat="43.69581" lon="3.1251">
        <ele>516</ele>
        <time>2014-06-06T07:42:34Z</time>
      </trkpt>
      <trkpt lat="43.69583" lon="3.12508">
        <ele>515.5999756</ele>
        <time>2014-06-06T07:42:35Z</time>
      </trkpt>
      <trkpt lat="43.69589" lon="3.12501">
        <ele>515.5999756</ele>
        <time>2014-06-06T07:42:39Z</time>
      </trkpt>
      <trkpt lat="43.69592" lon="3.12497">
        <ele>515.5999756</ele>
        <time>2014-06-06T07:42:40Z</time>
      </trkpt>
      <trkpt lat="43.69597" lon="3.12493">
        <ele>515.2000122</ele>
        <time>2014-06-06T07:42:42Z</time>
      </trkpt>
      <trkpt lat="43.69599" lon="3.1249">
        <ele>514.7999878</ele>
        <time>2014-06-06T07:42:43Z</time>
      </trkpt>
      <trkpt lat="43.69602" lon="3.12486">
        <ele>514.2000122</ele>
        <time>2014-06-06T07:42:44Z</time>
      </trkpt>
      <trkpt lat="43.69605" lon="3.12483">
        <ele>513.7999878</ele>
        <time>2014-06-06T07:42:45Z</time>
      </trkpt>
      <trkpt lat="43.69607" lon="3.12482">
        <ele>513.4000244</ele>
        <time>2014-06-06T07:42:46Z</time>
      </trkpt>
      <trkpt lat="43.69617" lon="3.12477">
        <ele>513.4000244</ele>
        <time>2014-06-06T07:42:50Z</time>
      </trkpt>
      <trkpt lat="43.69619" lon="3.12476">
        <ele>512.5999756</ele>
        <time>2014-06-06T07:42:51Z</time>
      </trkpt>
      <trkpt lat="43.69622" lon="3.12475">
        <ele>512.2000122</ele>
        <time>2014-06-06T07:42:52Z</time>
      </trkpt>
      <trkpt lat="43.69622" lon="3.12475">
        <ele>512.2000122</ele>
        <time>2014-06-06T07:42:52Z</time>
      </trkpt>
      <trkpt lat="43.69625" lon="3.12474">
        <ele>511.7999878</ele>
        <time>2014-06-06T07:42:53Z</time>
      </trkpt>
      <trkpt lat="43.69628" lon="3.12474">
        <ele>511.3999939</ele>
        <time>2014-06-06T07:42:54Z</time>
      </trkpt>
      <trkpt lat="43.69634" lon="3.12472">
        <ele>511.3999939</ele>
        <time>2014-06-06T07:42:56Z</time>
      </trkpt>
      <trkpt lat="43.69646" lon="3.12466">
        <ele>511</ele>
        <time>2014-06-06T07:43:00Z</time>
      </trkpt>
      <trkpt lat="43.69648" lon="3.12466">
        <ele>510.3999939</ele>
        <time>2014-06-06T07:43:01Z</time>
      </trkpt>
      <trkpt lat="43.69649" lon="3.12466">
        <ele>510</ele>
        <time>2014-06-06T07:43:02Z</time>
      </trkpt>
      <trkpt lat="43.69652" lon="3.12466">
        <ele>509.6000061</ele>
        <time>2014-06-06T07:43:03Z</time>
      </trkpt>
      <trkpt lat="43.69655" lon="3.12467">
        <ele>509.2000122</ele>
        <time>2014-06-06T07:43:04Z</time>
      </trkpt>
      <trkpt lat="43.69658" lon="3.12471">
        <ele>509.2000122</ele>
        <time>2014-06-06T07:43:06Z</time>
      </trkpt>
      <trkpt lat="43.69659" lon="3.12474">
        <ele>509.2000122</ele>
        <time>2014-06-06T07:43:07Z</time>
      </trkpt>
      <trkpt lat="43.69663" lon="3.12483">
        <ele>509.2000122</ele>
        <time>2014-06-06T07:43:10Z</time>
      </trkpt>
      <trkpt lat="43.69664" lon="3.12491">
        <ele>509.2000122</ele>
        <time>2014-06-06T07:43:12Z</time>
      </trkpt>
      <trkpt lat="43.69665" lon="3.12504">
        <ele>508.6000061</ele>
        <time>2014-06-06T07:43:15Z</time>
      </trkpt>
      <trkpt lat="43.69665" lon="3.12508">
        <ele>507.7999878</ele>
        <time>2014-06-06T07:43:16Z</time>
      </trkpt>
      <trkpt lat="43.69664" lon="3.12511">
        <ele>507.3999939</ele>
        <time>2014-06-06T07:43:17Z</time>
      </trkpt>
      <trkpt lat="43.69663" lon="3.12514">
        <ele>507</ele>
        <time>2014-06-06T07:43:18Z</time>
      </trkpt>
      <trkpt lat="43.69663" lon="3.12524">
        <ele>507</ele>
        <time>2014-06-06T07:43:21Z</time>
      </trkpt>
      <trkpt lat="43.69665" lon="3.12538">
        <ele>507</ele>
        <time>2014-06-06T07:43:25Z</time>
      </trkpt>
      <trkpt lat="43.69665" lon="3.12545">
        <ele>506.6000061</ele>
        <time>2014-06-06T07:43:27Z</time>
      </trkpt>
      <trkpt lat="43.69665" lon="3.12548">
        <ele>506.2000122</ele>
        <time>2014-06-06T07:43:28Z</time>
      </trkpt>
      <trkpt lat="43.69666" lon="3.12553">
        <ele>505.7999878</ele>
        <time>2014-06-06T07:43:29Z</time>
      </trkpt>
      <trkpt lat="43.69667" lon="3.12556">
        <ele>505.3999939</ele>
        <time>2014-06-06T07:43:30Z</time>
      </trkpt>
      <trkpt lat="43.69669" lon="3.12561">
        <ele>505</ele>
        <time>2014-06-06T07:43:31Z</time>
      </trkpt>
      <trkpt lat="43.69675" lon="3.12578">
        <ele>504.6000061</ele>
        <time>2014-06-06T07:43:36Z</time>
      </trkpt>
      <trkpt lat="43.69676" lon="3.1258">
        <ele>504</ele>
        <time>2014-06-06T07:43:37Z</time>
      </trkpt>
      <trkpt lat="43.69676" lon="3.12584">
        <ele>503.6000061</ele>
        <time>2014-06-06T07:43:38Z</time>
      </trkpt>
      <trkpt lat="43.69676" lon="3.12587">
        <ele>503.2000122</ele>
        <time>2014-06-06T07:43:39Z</time>
      </trkpt>
      <trkpt lat="43.69677" lon="3.12589">
        <ele>502.7999878</ele>
        <time>2014-06-06T07:43:40Z</time>
      </trkpt>
      <trkpt lat="43.69678" lon="3.12593">
        <ele>502.7999878</ele>
        <time>2014-06-06T07:43:41Z</time>
      </trkpt>
      <trkpt lat="43.6968" lon="3.12604">
        <ele>502.7999878</ele>
        <time>2014-06-06T07:43:46Z</time>
      </trkpt>
      <trkpt lat="43.6968" lon="3.12604">
        <ele>502.7999878</ele>
        <time>2014-06-06T07:43:47Z</time>
      </trkpt>
      <trkpt lat="43.6968" lon="3.12604">
        <ele>502.7999878</ele>
        <time>2014-06-06T07:43:48Z</time>
      </trkpt>
      <trkpt lat="43.69686" lon="3.12601">
        <ele>500.7999878</ele>
        <time>2014-06-06T07:46:03Z</time>
      </trkpt>
      <trkpt lat="43.69687" lon="3.12599">
        <ele>500.7999878</ele>
        <time>2014-06-06T07:46:04Z</time>
      </trkpt>
      <trkpt lat="43.69687" lon="3.12592">
        <ele>500.7999878</ele>
        <time>2014-06-06T07:46:06Z</time>
      </trkpt>
      <trkpt lat="43.69687" lon="3.12588">
        <ele>500.7999878</ele>
        <time>2014-06-06T07:46:07Z</time>
      </trkpt>
      <trkpt lat="43.69688" lon="3.12574">
        <ele>500.2000122</ele>
        <time>2014-06-06T07:46:11Z</time>
      </trkpt>
      <trkpt lat="43.69688" lon="3.12572">
        <ele>499.7999878</ele>
        <time>2014-06-06T07:46:12Z</time>
      </trkpt>
      <trkpt lat="43.69689" lon="3.1257">
        <ele>499.3999939</ele>
        <time>2014-06-06T07:46:13Z</time>
      </trkpt>
      <trkpt lat="43.69689" lon="3.12568">
        <ele>499</ele>
        <time>2014-06-06T07:46:14Z</time>
      </trkpt>
      <trkpt lat="43.6969" lon="3.12566">
        <ele>498.6000061</ele>
        <time>2014-06-06T07:46:15Z</time>
      </trkpt>
      <trkpt lat="43.69693" lon="3.12558">
        <ele>498.6000061</ele>
        <time>2014-06-06T07:46:16Z</time>
      </trkpt>
      <trkpt lat="43.69696" lon="3.12551">
        <ele>498.6000061</ele>
        <time>2014-06-06T07:46:17Z</time>
      </trkpt>
      <trkpt lat="43.69702" lon="3.12532">
        <ele>498</ele>
        <time>2014-06-06T07:46:20Z</time>
      </trkpt>
      <trkpt lat="43.69703" lon="3.12526">
        <ele>497.6000061</ele>
        <time>2014-06-06T07:46:21Z</time>
      </trkpt>
      <trkpt lat="43.69703" lon="3.12521">
        <ele>497.2000122</ele>
        <time>2014-06-06T07:46:22Z</time>
      </trkpt>
      <trkpt lat="43.69705" lon="3.12515">
        <ele>496.7999878</ele>
        <time>2014-06-06T07:46:23Z</time>
      </trkpt>
      <trkpt lat="43.69706" lon="3.12512">
        <ele>496.3999939</ele>
        <time>2014-06-06T07:46:24Z</time>
      </trkpt>
      <trkpt lat="43.69707" lon="3.12507">
        <ele>496.3999939</ele>
        <time>2014-06-06T07:46:25Z</time>
      </trkpt>
      <trkpt lat="43.6971" lon="3.125">
        <ele>496</ele>
        <time>2014-06-06T07:46:27Z</time>
      </trkpt>
      <trkpt lat="43.69713" lon="3.12492">
        <ele>495.3999939</ele>
        <time>2014-06-06T07:46:28Z</time>
      </trkpt>
      <trkpt lat="43.69715" lon="3.12488">
        <ele>495</ele>
        <time>2014-06-06T07:46:29Z</time>
      </trkpt>
      <trkpt lat="43.69716" lon="3.12482">
        <ele>494.6000061</ele>
        <time>2014-06-06T07:46:30Z</time>
      </trkpt>
      <trkpt lat="43.69717" lon="3.12476">
        <ele>494.2000122</ele>
        <time>2014-06-06T07:46:31Z</time>
      </trkpt>
      <trkpt lat="43.69718" lon="3.12464">
        <ele>493.7999878</ele>
        <time>2014-06-06T07:46:33Z</time>
      </trkpt>
      <trkpt lat="43.69719" lon="3.1246">
        <ele>493.3999939</ele>
        <time>2014-06-06T07:46:34Z</time>
      </trkpt>
      <trkpt lat="43.6972" lon="3.12456">
        <ele>493</ele>
        <time>2014-06-06T07:46:35Z</time>
      </trkpt>
      <trkpt lat="43.6972" lon="3.12452">
        <ele>492.6000061</ele>
        <time>2014-06-06T07:46:36Z</time>
      </trkpt>
      <trkpt lat="43.69721" lon="3.12449">
        <ele>492.2000122</ele>
        <time>2014-06-06T07:46:37Z</time>
      </trkpt>
      <trkpt lat="43.6972" lon="3.12448">
        <ele>492.2000122</ele>
        <time>2014-06-06T07:46:38Z</time>
      </trkpt>
      <trkpt lat="43.6972" lon="3.12445">
        <ele>492.2000122</ele>
        <time>2014-06-06T07:46:40Z</time>
      </trkpt>
      <trkpt lat="43.69714" lon="3.1243">
        <ele>488.2000122</ele>
        <time>2014-06-06T07:47:10Z</time>
      </trkpt>
      <trkpt lat="43.69713" lon="3.12424">
        <ele>488.2000122</ele>
        <time>2014-06-06T07:47:11Z</time>
      </trkpt>
      <trkpt lat="43.69714" lon="3.12414">
        <ele>487.6000061</ele>
        <time>2014-06-06T07:47:13Z</time>
      </trkpt>
      <trkpt lat="43.69715" lon="3.1241">
        <ele>487.2000122</ele>
        <time>2014-06-06T07:47:14Z</time>
      </trkpt>
      <trkpt lat="43.69715" lon="3.12406">
        <ele>486.7999878</ele>
        <time>2014-06-06T07:47:15Z</time>
      </trkpt>
      <trkpt lat="43.69715" lon="3.12402">
        <ele>486.3999939</ele>
        <time>2014-06-06T07:47:16Z</time>
      </trkpt>
      <trkpt lat="43.69714" lon="3.12399">
        <ele>485.7999878</ele>
        <time>2014-06-06T07:47:17Z</time>
      </trkpt>
      <trkpt lat="43.69712" lon="3.12391">
        <ele>485.7999878</ele>
        <time>2014-06-06T07:47:20Z</time>
      </trkpt>
      <trkpt lat="43.69704" lon="3.12372">
        <ele>485.7999878</ele>
        <time>2014-06-06T07:47:28Z</time>
      </trkpt>
      <trkpt lat="43.69696" lon="3.12359">
        <ele>485.7999878</ele>
        <time>2014-06-06T07:47:34Z</time>
      </trkpt>
      <trkpt lat="43.69691" lon="3.12354">
        <ele>486.2000122</ele>
        <time>2014-06-06T07:47:37Z</time>
      </trkpt>
      <trkpt lat="43.6969" lon="3.12353">
        <ele>486.6000061</ele>
        <time>2014-06-06T07:47:38Z</time>
      </trkpt>
      <trkpt lat="43.69687" lon="3.12352">
        <ele>487</ele>
        <time>2014-06-06T07:47:39Z</time>
      </trkpt>
      <trkpt lat="43.69686" lon="3.1235">
        <ele>487.6000061</ele>
        <time>2014-06-06T07:47:40Z</time>
      </trkpt>
      <trkpt lat="43.69684" lon="3.12349">
        <ele>488</ele>
        <time>2014-06-06T07:47:41Z</time>
      </trkpt>
      <trkpt lat="43.69682" lon="3.12348">
        <ele>488</ele>
        <time>2014-06-06T07:47:42Z</time>
      </trkpt>
      <trkpt lat="43.69671" lon="3.12339">
        <ele>488</ele>
        <time>2014-06-06T07:47:47Z</time>
      </trkpt>
      <trkpt lat="43.69661" lon="3.12329">
        <ele>488</ele>
        <time>2014-06-06T07:47:52Z</time>
      </trkpt>
      <trkpt lat="43.69659" lon="3.12327">
        <ele>488</ele>
        <time>2014-06-06T07:47:53Z</time>
      </trkpt>
      <trkpt lat="43.69658" lon="3.12324">
        <ele>488.3999939</ele>
        <time>2014-06-06T07:47:54Z</time>
      </trkpt>
      <trkpt lat="43.69657" lon="3.12321">
        <ele>488.7999878</ele>
        <time>2014-06-06T07:47:55Z</time>
      </trkpt>
      <trkpt lat="43.69656" lon="3.12318">
        <ele>489.2000122</ele>
        <time>2014-06-06T07:47:56Z</time>
      </trkpt>
      <trkpt lat="43.69655" lon="3.12315">
        <ele>489.6000061</ele>
        <time>2014-06-06T07:47:57Z</time>
      </trkpt>
      <trkpt lat="43.69655" lon="3.12311">
        <ele>490</ele>
        <time>2014-06-06T07:47:58Z</time>
      </trkpt>
      <trkpt lat="43.69655" lon="3.12308">
        <ele>490</ele>
        <time>2014-06-06T07:47:59Z</time>
      </trkpt>
      <trkpt lat="43.69658" lon="3.12282">
        <ele>490</ele>
        <time>2014-06-06T07:48:05Z</time>
      </trkpt>
      <trkpt lat="43.69664" lon="3.12265">
        <ele>490.3999939</ele>
        <time>2014-06-06T07:48:10Z</time>
      </trkpt>
      <trkpt lat="43.69666" lon="3.12262">
        <ele>491.2000122</ele>
        <time>2014-06-06T07:48:11Z</time>
      </trkpt>
      <trkpt lat="43.69668" lon="3.12258">
        <ele>491.6000061</ele>
        <time>2014-06-06T07:48:12Z</time>
      </trkpt>
      <trkpt lat="43.6967" lon="3.12256">
        <ele>492</ele>
        <time>2014-06-06T07:48:13Z</time>
      </trkpt>
      <trkpt lat="43.69674" lon="3.12253">
        <ele>492</ele>
        <time>2014-06-06T07:48:15Z</time>
      </trkpt>
      <trkpt lat="43.69688" lon="3.12245">
        <ele>492</ele>
        <time>2014-06-06T07:48:21Z</time>
      </trkpt>
      <trkpt lat="43.69703" lon="3.1223">
        <ele>492.3999939</ele>
        <time>2014-06-06T07:48:28Z</time>
      </trkpt>
      <trkpt lat="43.69705" lon="3.12228">
        <ele>492.7999878</ele>
        <time>2014-06-06T07:48:29Z</time>
      </trkpt>
      <trkpt lat="43.69707" lon="3.12227">
        <ele>493.2000122</ele>
        <time>2014-06-06T07:48:30Z</time>
      </trkpt>
      <trkpt lat="43.6971" lon="3.12225">
        <ele>493.6000061</ele>
        <time>2014-06-06T07:48:31Z</time>
      </trkpt>
      <trkpt lat="43.69712" lon="3.12223">
        <ele>494</ele>
        <time>2014-06-06T07:48:32Z</time>
      </trkpt>
      <trkpt lat="43.69717" lon="3.12219">
        <ele>494</ele>
        <time>2014-06-06T07:48:34Z</time>
      </trkpt>
      <trkpt lat="43.69729" lon="3.12207">
        <ele>494</ele>
        <time>2014-06-06T07:48:39Z</time>
      </trkpt>
      <trkpt lat="43.69729" lon="3.12197">
        <ele>494</ele>
        <time>2014-06-06T07:48:41Z</time>
      </trkpt>
      <trkpt lat="43.69723" lon="3.1218">
        <ele>494</ele>
        <time>2014-06-06T07:48:45Z</time>
      </trkpt>
      <trkpt lat="43.69721" lon="3.12176">
        <ele>494</ele>
        <time>2014-06-06T07:48:46Z</time>
      </trkpt>
      <trkpt lat="43.69716" lon="3.12166">
        <ele>494.3999939</ele>
        <time>2014-06-06T07:48:49Z</time>
      </trkpt>
      <trkpt lat="43.69715" lon="3.12163">
        <ele>494.7999878</ele>
        <time>2014-06-06T07:48:50Z</time>
      </trkpt>
      <trkpt lat="43.69714" lon="3.12158">
        <ele>495.2000122</ele>
        <time>2014-06-06T07:48:51Z</time>
      </trkpt>
      <trkpt lat="43.69713" lon="3.12154">
        <ele>495.6000061</ele>
        <time>2014-06-06T07:48:52Z</time>
      </trkpt>
      <trkpt lat="43.69712" lon="3.1215">
        <ele>496</ele>
        <time>2014-06-06T07:48:53Z</time>
      </trkpt>
      <trkpt lat="43.69707" lon="3.12136">
        <ele>496</ele>
        <time>2014-06-06T07:48:57Z</time>
      </trkpt>
      <trkpt lat="43.69701" lon="3.12115">
        <ele>496.3999939</ele>
        <time>2014-06-06T07:49:03Z</time>
      </trkpt>
      <trkpt lat="43.697" lon="3.12112">
        <ele>496.7999878</ele>
        <time>2014-06-06T07:49:04Z</time>
      </trkpt>
      <trkpt lat="43.69699" lon="3.12108">
        <ele>497.3999939</ele>
        <time>2014-06-06T07:49:05Z</time>
      </trkpt>
      <trkpt lat="43.69698" lon="3.12105">
        <ele>497.7999878</ele>
        <time>2014-06-06T07:49:06Z</time>
      </trkpt>
      <trkpt lat="43.69698" lon="3.12101">
        <ele>498.2000122</ele>
        <time>2014-06-06T07:49:07Z</time>
      </trkpt>
      <trkpt lat="43.69698" lon="3.12091">
        <ele>498.2000122</ele>
        <time>2014-06-06T07:49:10Z</time>
      </trkpt>
      <trkpt lat="43.69702" lon="3.12074">
        <ele>498.2000122</ele>
        <time>2014-06-06T07:49:16Z</time>
      </trkpt>
      <trkpt lat="43.69704" lon="3.12063">
        <ele>498.6000061</ele>
        <time>2014-06-06T07:49:20Z</time>
      </trkpt>
      <trkpt lat="43.69704" lon="3.1206">
        <ele>499</ele>
        <time>2014-06-06T07:49:21Z</time>
      </trkpt>
      <trkpt lat="43.69703" lon="3.12057">
        <ele>499.3999939</ele>
        <time>2014-06-06T07:49:22Z</time>
      </trkpt>
      <trkpt lat="43.69703" lon="3.12054">
        <ele>499.7999878</ele>
        <time>2014-06-06T07:49:23Z</time>
      </trkpt>
      <trkpt lat="43.69702" lon="3.12052">
        <ele>500.2000122</ele>
        <time>2014-06-06T07:49:24Z</time>
      </trkpt>
      <trkpt lat="43.69701" lon="3.12042">
        <ele>500.2000122</ele>
        <time>2014-06-06T07:49:28Z</time>
      </trkpt>
      <trkpt lat="43.697" lon="3.1204">
        <ele>500.6000061</ele>
        <time>2014-06-06T07:49:29Z</time>
      </trkpt>
      <trkpt lat="43.697" lon="3.12038">
        <ele>501</ele>
        <time>2014-06-06T07:49:30Z</time>
      </trkpt>
      <trkpt lat="43.697" lon="3.12036">
        <ele>501.3999939</ele>
        <time>2014-06-06T07:49:31Z</time>
      </trkpt>
      <trkpt lat="43.697" lon="3.12034">
        <ele>501.7999878</ele>
        <time>2014-06-06T07:49:32Z</time>
      </trkpt>
      <trkpt lat="43.69701" lon="3.12033">
        <ele>502.2000122</ele>
        <time>2014-06-06T07:49:33Z</time>
      </trkpt>
      <trkpt lat="43.69701" lon="3.12027">
        <ele>502.2000122</ele>
        <time>2014-06-06T07:49:36Z</time>
      </trkpt>
      <trkpt lat="43.69701" lon="3.12025">
        <ele>502.6000061</ele>
        <time>2014-06-06T07:49:37Z</time>
      </trkpt>
      <trkpt lat="43.69702" lon="3.12023">
        <ele>503</ele>
        <time>2014-06-06T07:49:38Z</time>
      </trkpt>
      <trkpt lat="43.69703" lon="3.12021">
        <ele>503.3999939</ele>
        <time>2014-06-06T07:49:39Z</time>
      </trkpt>
      <trkpt lat="43.69703" lon="3.1202">
        <ele>503.7999878</ele>
        <time>2014-06-06T07:49:40Z</time>
      </trkpt>
      <trkpt lat="43.69704" lon="3.12018">
        <ele>504.3999939</ele>
        <time>2014-06-06T07:49:41Z</time>
      </trkpt>
      <trkpt lat="43.69706" lon="3.12011">
        <ele>504.3999939</ele>
        <time>2014-06-06T07:49:44Z</time>
      </trkpt>
      <trkpt lat="43.69709" lon="3.12006">
        <ele>504.7999878</ele>
        <time>2014-06-06T07:49:47Z</time>
      </trkpt>
      <trkpt lat="43.6971" lon="3.12005">
        <ele>505.2000122</ele>
        <time>2014-06-06T07:49:48Z</time>
      </trkpt>
      <trkpt lat="43.69711" lon="3.12003">
        <ele>505.6000061</ele>
        <time>2014-06-06T07:49:49Z</time>
      </trkpt>
      <trkpt lat="43.69712" lon="3.12002">
        <ele>506.6000061</ele>
        <time>2014-06-06T07:49:50Z</time>
      </trkpt>
      <trkpt lat="43.69713" lon="3.12">
        <ele>506.6000061</ele>
        <time>2014-06-06T07:49:51Z</time>
      </trkpt>
      <trkpt lat="43.69714" lon="3.11998">
        <ele>506.6000061</ele>
        <time>2014-06-06T07:49:52Z</time>
      </trkpt>
      <trkpt lat="43.69719" lon="3.11992">
        <ele>506.6000061</ele>
        <time>2014-06-06T07:49:57Z</time>
      </trkpt>
      <trkpt lat="43.69721" lon="3.11991">
        <ele>507</ele>
        <time>2014-06-06T07:49:58Z</time>
      </trkpt>
      <trkpt lat="43.69722" lon="3.1199">
        <ele>507.3999939</ele>
        <time>2014-06-06T07:49:59Z</time>
      </trkpt>
      <trkpt lat="43.69723" lon="3.11989">
        <ele>507.7999878</ele>
        <time>2014-06-06T07:50:00Z</time>
      </trkpt>
      <trkpt lat="43.69725" lon="3.11988">
        <ele>508.2000122</ele>
        <time>2014-06-06T07:50:01Z</time>
      </trkpt>
      <trkpt lat="43.69726" lon="3.11987">
        <ele>508.6000061</ele>
        <time>2014-06-06T07:50:02Z</time>
      </trkpt>
      <trkpt lat="43.69727" lon="3.11986">
        <ele>508.6000061</ele>
        <time>2014-06-06T07:50:04Z</time>
      </trkpt>
      <trkpt lat="43.69733" lon="3.1198">
        <ele>509</ele>
        <time>2014-06-06T07:50:09Z</time>
      </trkpt>
      <trkpt lat="43.69734" lon="3.1198">
        <ele>509.6000061</ele>
        <time>2014-06-06T07:50:10Z</time>
      </trkpt>
      <trkpt lat="43.69735" lon="3.11979">
        <ele>510</ele>
        <time>2014-06-06T07:50:11Z</time>
      </trkpt>
      <trkpt lat="43.69736" lon="3.11978">
        <ele>510.3999939</ele>
        <time>2014-06-06T07:50:12Z</time>
      </trkpt>
      <trkpt lat="43.69737" lon="3.11978">
        <ele>510.7999878</ele>
        <time>2014-06-06T07:50:13Z</time>
      </trkpt>
      <trkpt lat="43.69739" lon="3.11976">
        <ele>510.7999878</ele>
        <time>2014-06-06T07:50:16Z</time>
      </trkpt>
      <trkpt lat="43.69742" lon="3.11969">
        <ele>510.7999878</ele>
        <time>2014-06-06T07:50:22Z</time>
      </trkpt>
      <trkpt lat="43.69743" lon="3.11968">
        <ele>511.2000122</ele>
        <time>2014-06-06T07:50:23Z</time>
      </trkpt>
      <trkpt lat="43.69744" lon="3.11967">
        <ele>511.6000061</ele>
        <time>2014-06-06T07:50:24Z</time>
      </trkpt>
      <trkpt lat="43.69744" lon="3.11965">
        <ele>512</ele>
        <time>2014-06-06T07:50:25Z</time>
      </trkpt>
      <trkpt lat="43.69745" lon="3.11964">
        <ele>512.4000244</ele>
        <time>2014-06-06T07:50:26Z</time>
      </trkpt>
      <trkpt lat="43.69745" lon="3.11962">
        <ele>513</ele>
        <time>2014-06-06T07:50:27Z</time>
      </trkpt>
      <trkpt lat="43.69748" lon="3.1196">
        <ele>513</ele>
        <time>2014-06-06T07:50:29Z</time>
      </trkpt>
      <trkpt lat="43.6975" lon="3.11958">
        <ele>513</ele>
        <time>2014-06-06T07:50:31Z</time>
      </trkpt>
      <trkpt lat="43.69752" lon="3.11955">
        <ele>513</ele>
        <time>2014-06-06T07:50:33Z</time>
      </trkpt>
      <trkpt lat="43.69754" lon="3.11953">
        <ele>513.4000244</ele>
        <time>2014-06-06T07:50:35Z</time>
      </trkpt>
      <trkpt lat="43.69754" lon="3.11953">
        <ele>513.7999878</ele>
        <time>2014-06-06T07:50:36Z</time>
      </trkpt>
      <trkpt lat="43.69755" lon="3.11951">
        <ele>514.2000122</ele>
        <time>2014-06-06T07:50:37Z</time>
      </trkpt>
      <trkpt lat="43.69755" lon="3.1195">
        <ele>514.5999756</ele>
        <time>2014-06-06T07:50:38Z</time>
      </trkpt>
      <trkpt lat="43.69756" lon="3.1195">
        <ele>515</ele>
        <time>2014-06-06T07:50:39Z</time>
      </trkpt>
      <trkpt lat="43.69757" lon="3.11948">
        <ele>515</ele>
        <time>2014-06-06T07:50:41Z</time>
      </trkpt>
      <trkpt lat="43.6976" lon="3.11941">
        <ele>515</ele>
        <time>2014-06-06T07:50:47Z</time>
      </trkpt>
      <trkpt lat="43.69761" lon="3.11941">
        <ele>515.5999756</ele>
        <time>2014-06-06T07:50:48Z</time>
      </trkpt>
      <trkpt lat="43.69761" lon="3.1194">
        <ele>516</ele>
        <time>2014-06-06T07:50:49Z</time>
      </trkpt>
      <trkpt lat="43.69762" lon="3.11939">
        <ele>516.4000244</ele>
        <time>2014-06-06T07:50:50Z</time>
      </trkpt>
      <trkpt lat="43.69763" lon="3.11938">
        <ele>516.7999878</ele>
        <time>2014-06-06T07:50:51Z</time>
      </trkpt>
      <trkpt lat="43.69763" lon="3.11938">
        <ele>517.2000122</ele>
        <time>2014-06-06T07:50:52Z</time>
      </trkpt>
      <trkpt lat="43.69769" lon="3.11934">
        <ele>517.2000122</ele>
        <time>2014-06-06T07:50:58Z</time>
      </trkpt>
      <trkpt lat="43.69771" lon="3.11933">
        <ele>517.5999756</ele>
        <time>2014-06-06T07:51:00Z</time>
      </trkpt>
      <trkpt lat="43.69771" lon="3.11933">
        <ele>518</ele>
        <time>2014-06-06T07:51:01Z</time>
      </trkpt>
      <trkpt lat="43.69772" lon="3.11932">
        <ele>518.4000244</ele>
        <time>2014-06-06T07:51:02Z</time>
      </trkpt>
      <trkpt lat="43.69773" lon="3.11932">
        <ele>518.7999878</ele>
        <time>2014-06-06T07:51:03Z</time>
      </trkpt>
      <trkpt lat="43.69773" lon="3.11931">
        <ele>519.2000122</ele>
        <time>2014-06-06T07:51:04Z</time>
      </trkpt>
      <trkpt lat="43.69774" lon="3.1193">
        <ele>519.2000122</ele>
        <time>2014-06-06T07:51:05Z</time>
      </trkpt>
      <trkpt lat="43.69779" lon="3.11927">
        <ele>519.5999756</ele>
        <time>2014-06-06T07:51:11Z</time>
      </trkpt>
      <trkpt lat="43.6978" lon="3.11926">
        <ele>520</ele>
        <time>2014-06-06T07:51:12Z</time>
      </trkpt>
      <trkpt lat="43.69781" lon="3.11925">
        <ele>520.4000244</ele>
        <time>2014-06-06T07:51:13Z</time>
      </trkpt>
      <trkpt lat="43.69782" lon="3.11924">
        <ele>520.7999878</ele>
        <time>2014-06-06T07:51:14Z</time>
      </trkpt>
      <trkpt lat="43.69782" lon="3.11924">
        <ele>521.2000122</ele>
        <time>2014-06-06T07:51:15Z</time>
      </trkpt>
      <trkpt lat="43.69786" lon="3.11921">
        <ele>521.2000122</ele>
        <time>2014-06-06T07:51:19Z</time>
      </trkpt>
      <trkpt lat="43.6979" lon="3.11914">
        <ele>521.2000122</ele>
        <time>2014-06-06T07:51:25Z</time>
      </trkpt>
      <trkpt lat="43.6979" lon="3.11911">
        <ele>521.5999756</ele>
        <time>2014-06-06T07:51:27Z</time>
      </trkpt>
      <trkpt lat="43.69791" lon="3.1191">
        <ele>522</ele>
        <time>2014-06-06T07:51:28Z</time>
      </trkpt>
      <trkpt lat="43.69791" lon="3.11909">
        <ele>522.4000244</ele>
        <time>2014-06-06T07:51:29Z</time>
      </trkpt>
      <trkpt lat="43.69792" lon="3.11908">
        <ele>523.4000244</ele>
        <time>2014-06-06T07:51:30Z</time>
      </trkpt>
      <trkpt lat="43.69793" lon="3.11905">
        <ele>523.4000244</ele>
        <time>2014-06-06T07:51:32Z</time>
      </trkpt>
      <trkpt lat="43.69794" lon="3.11904">
        <ele>523.4000244</ele>
        <time>2014-06-06T07:51:33Z</time>
      </trkpt>
      <trkpt lat="43.69797" lon="3.11897">
        <ele>523.7999878</ele>
        <time>2014-06-06T07:51:39Z</time>
      </trkpt>
      <trkpt lat="43.69797" lon="3.11896">
        <ele>524.2000122</ele>
        <time>2014-06-06T07:51:40Z</time>
      </trkpt>
      <trkpt lat="43.69798" lon="3.11895">
        <ele>524.5999756</ele>
        <time>2014-06-06T07:51:41Z</time>
      </trkpt>
      <trkpt lat="43.69798" lon="3.11894">
        <ele>525</ele>
        <time>2014-06-06T07:51:42Z</time>
      </trkpt>
      <trkpt lat="43.69799" lon="3.11893">
        <ele>525.4000244</ele>
        <time>2014-06-06T07:51:43Z</time>
      </trkpt>
      <trkpt lat="43.698" lon="3.11892">
        <ele>525.4000244</ele>
        <time>2014-06-06T07:51:44Z</time>
      </trkpt>
      <trkpt lat="43.69801" lon="3.1189">
        <ele>525.4000244</ele>
        <time>2014-06-06T07:51:46Z</time>
      </trkpt>
      <trkpt lat="43.69803" lon="3.11887">
        <ele>525.4000244</ele>
        <time>2014-06-06T07:51:48Z</time>
      </trkpt>
      <trkpt lat="43.69807" lon="3.11884">
        <ele>525.4000244</ele>
        <time>2014-06-06T07:51:52Z</time>
      </trkpt>
      <trkpt lat="43.69811" lon="3.11882">
        <ele>526.2000122</ele>
        <time>2014-06-06T07:51:55Z</time>
      </trkpt>
      <trkpt lat="43.69812" lon="3.11881">
        <ele>526.5999756</ele>
        <time>2014-06-06T07:51:56Z</time>
      </trkpt>
      <trkpt lat="43.69814" lon="3.1188">
        <ele>527</ele>
        <time>2014-06-06T07:51:57Z</time>
      </trkpt>
      <trkpt lat="43.69815" lon="3.11879">
        <ele>527.5999756</ele>
        <time>2014-06-06T07:51:58Z</time>
      </trkpt>
      <trkpt lat="43.69816" lon="3.11878">
        <ele>527.5999756</ele>
        <time>2014-06-06T07:51:59Z</time>
      </trkpt>
      <trkpt lat="43.69821" lon="3.11869">
        <ele>527.5999756</ele>
        <time>2014-06-06T07:52:05Z</time>
      </trkpt>
      <trkpt lat="43.69822" lon="3.11868">
        <ele>528</ele>
        <time>2014-06-06T07:52:06Z</time>
      </trkpt>
      <trkpt lat="43.69823" lon="3.11867">
        <ele>528.4000244</ele>
        <time>2014-06-06T07:52:07Z</time>
      </trkpt>
      <trkpt lat="43.69824" lon="3.11865">
        <ele>528.7999878</ele>
        <time>2014-06-06T07:52:08Z</time>
      </trkpt>
      <trkpt lat="43.69825" lon="3.11864">
        <ele>529.2000122</ele>
        <time>2014-06-06T07:52:09Z</time>
      </trkpt>
      <trkpt lat="43.69825" lon="3.11863">
        <ele>529.5999756</ele>
        <time>2014-06-06T07:52:10Z</time>
      </trkpt>
      <trkpt lat="43.69826" lon="3.11861">
        <ele>529.5999756</ele>
        <time>2014-06-06T07:52:11Z</time>
      </trkpt>
      <trkpt lat="43.69828" lon="3.1186">
        <ele>529.5999756</ele>
        <time>2014-06-06T07:52:13Z</time>
      </trkpt>
      <trkpt lat="43.6983" lon="3.11853">
        <ele>529.5999756</ele>
        <time>2014-06-06T07:52:17Z</time>
      </trkpt>
      <trkpt lat="43.69834" lon="3.11849">
        <ele>530</ele>
        <time>2014-06-06T07:52:21Z</time>
      </trkpt>
      <trkpt lat="43.69835" lon="3.11848">
        <ele>530.4000244</ele>
        <time>2014-06-06T07:52:22Z</time>
      </trkpt>
      <trkpt lat="43.69836" lon="3.11846">
        <ele>530.7999878</ele>
        <time>2014-06-06T07:52:23Z</time>
      </trkpt>
      <trkpt lat="43.69836" lon="3.11844">
        <ele>531.2000122</ele>
        <time>2014-06-06T07:52:24Z</time>
      </trkpt>
      <trkpt lat="43.69837" lon="3.11843">
        <ele>531.7999878</ele>
        <time>2014-06-06T07:52:25Z</time>
      </trkpt>
      <trkpt lat="43.69837" lon="3.11841">
        <ele>531.7999878</ele>
        <time>2014-06-06T07:52:26Z</time>
      </trkpt>
      <trkpt lat="43.69842" lon="3.11833">
        <ele>531.7999878</ele>
        <time>2014-06-06T07:52:33Z</time>
      </trkpt>
      <trkpt lat="43.69843" lon="3.1183">
        <ele>532.2000122</ele>
        <time>2014-06-06T07:52:35Z</time>
      </trkpt>
      <trkpt lat="43.69844" lon="3.11828">
        <ele>532.5999756</ele>
        <time>2014-06-06T07:52:36Z</time>
      </trkpt>
      <trkpt lat="43.69844" lon="3.11827">
        <ele>533</ele>
        <time>2014-06-06T07:52:37Z</time>
      </trkpt>
      <trkpt lat="43.69845" lon="3.11825">
        <ele>533.4000244</ele>
        <time>2014-06-06T07:52:38Z</time>
      </trkpt>
      <trkpt lat="43.69845" lon="3.11824">
        <ele>533.7999878</ele>
        <time>2014-06-06T07:52:39Z</time>
      </trkpt>
      <trkpt lat="43.69847" lon="3.11822">
        <ele>533.7999878</ele>
        <time>2014-06-06T07:52:41Z</time>
      </trkpt>
      <trkpt lat="43.69855" lon="3.11816">
        <ele>533.7999878</ele>
        <time>2014-06-06T07:52:47Z</time>
      </trkpt>
      <trkpt lat="43.69857" lon="3.11813">
        <ele>534.2000122</ele>
        <time>2014-06-06T07:52:49Z</time>
      </trkpt>
      <trkpt lat="43.69859" lon="3.11812">
        <ele>534.5999756</ele>
        <time>2014-06-06T07:52:50Z</time>
      </trkpt>
      <trkpt lat="43.6986" lon="3.11811">
        <ele>535</ele>
        <time>2014-06-06T07:52:51Z</time>
      </trkpt>
      <trkpt lat="43.69862" lon="3.1181">
        <ele>535.4000244</ele>
        <time>2014-06-06T07:52:52Z</time>
      </trkpt>
      <trkpt lat="43.69864" lon="3.1181">
        <ele>535.7999878</ele>
        <time>2014-06-06T07:52:53Z</time>
      </trkpt>
      <trkpt lat="43.69865" lon="3.11809">
        <ele>535.7999878</ele>
        <time>2014-06-06T07:52:54Z</time>
      </trkpt>
      <trkpt lat="43.69875" lon="3.11803">
        <ele>535.7999878</ele>
        <time>2014-06-06T07:53:01Z</time>
      </trkpt>
      <trkpt lat="43.69876" lon="3.11802">
        <ele>536.2000122</ele>
        <time>2014-06-06T07:53:02Z</time>
      </trkpt>
      <trkpt lat="43.69877" lon="3.11801">
        <ele>536.5999756</ele>
        <time>2014-06-06T07:53:03Z</time>
      </trkpt>
      <trkpt lat="43.69878" lon="3.11801">
        <ele>537</ele>
        <time>2014-06-06T07:53:04Z</time>
      </trkpt>
      <trkpt lat="43.6988" lon="3.118">
        <ele>537.4000244</ele>
        <time>2014-06-06T07:53:05Z</time>
      </trkpt>
      <trkpt lat="43.69881" lon="3.11798">
        <ele>537.7999878</ele>
        <time>2014-06-06T07:53:06Z</time>
      </trkpt>
      <trkpt lat="43.69884" lon="3.11796">
        <ele>537.7999878</ele>
        <time>2014-06-06T07:53:08Z</time>
      </trkpt>
      <trkpt lat="43.69886" lon="3.11795">
        <ele>537.7999878</ele>
        <time>2014-06-06T07:53:09Z</time>
      </trkpt>
      <trkpt lat="43.69891" lon="3.11793">
        <ele>537.7999878</ele>
        <time>2014-06-06T07:53:13Z</time>
      </trkpt>
      <trkpt lat="43.69893" lon="3.11791">
        <ele>538.4000244</ele>
        <time>2014-06-06T07:53:15Z</time>
      </trkpt>
      <trkpt lat="43.69894" lon="3.1179">
        <ele>538.7999878</ele>
        <time>2014-06-06T07:53:16Z</time>
      </trkpt>
      <trkpt lat="43.69895" lon="3.11789">
        <ele>539.2000122</ele>
        <time>2014-06-06T07:53:17Z</time>
      </trkpt>
      <trkpt lat="43.69896" lon="3.11789">
        <ele>539.5999756</ele>
        <time>2014-06-06T07:53:18Z</time>
      </trkpt>
      <trkpt lat="43.69897" lon="3.11788">
        <ele>540</ele>
        <time>2014-06-06T07:53:19Z</time>
      </trkpt>
      <trkpt lat="43.69905" lon="3.11783">
        <ele>540</ele>
        <time>2014-06-06T07:53:26Z</time>
      </trkpt>
      <trkpt lat="43.69909" lon="3.11783">
        <ele>540.5999756</ele>
        <time>2014-06-06T07:53:29Z</time>
      </trkpt>
      <trkpt lat="43.69911" lon="3.11783">
        <ele>541</ele>
        <time>2014-06-06T07:53:30Z</time>
      </trkpt>
      <trkpt lat="43.69912" lon="3.11783">
        <ele>541.4000244</ele>
        <time>2014-06-06T07:53:31Z</time>
      </trkpt>
      <trkpt lat="43.69913" lon="3.11783">
        <ele>541.7999878</ele>
        <time>2014-06-06T07:53:32Z</time>
      </trkpt>
      <trkpt lat="43.69914" lon="3.11783">
        <ele>542.2000122</ele>
        <time>2014-06-06T07:53:33Z</time>
      </trkpt>
      <trkpt lat="43.69921" lon="3.11784">
        <ele>542.2000122</ele>
        <time>2014-06-06T07:53:39Z</time>
      </trkpt>
      <trkpt lat="43.69923" lon="3.11784">
        <ele>542.5999756</ele>
        <time>2014-06-06T07:53:41Z</time>
      </trkpt>
      <trkpt lat="43.69925" lon="3.11785">
        <ele>543</ele>
        <time>2014-06-06T07:53:42Z</time>
      </trkpt>
      <trkpt lat="43.69926" lon="3.11786">
        <ele>543.4000244</ele>
        <time>2014-06-06T07:53:43Z</time>
      </trkpt>
      <trkpt lat="43.69927" lon="3.11786">
        <ele>543.7999878</ele>
        <time>2014-06-06T07:53:44Z</time>
      </trkpt>
      <trkpt lat="43.69929" lon="3.11787">
        <ele>544.2000122</ele>
        <time>2014-06-06T07:53:45Z</time>
      </trkpt>
      <trkpt lat="43.6993" lon="3.11787">
        <ele>544.2000122</ele>
        <time>2014-06-06T07:53:46Z</time>
      </trkpt>
      <trkpt lat="43.6994" lon="3.11788">
        <ele>544.2000122</ele>
        <time>2014-06-06T07:53:55Z</time>
      </trkpt>
      <trkpt lat="43.69941" lon="3.11788">
        <ele>544.7999878</ele>
        <time>2014-06-06T07:53:56Z</time>
      </trkpt>
      <trkpt lat="43.69942" lon="3.11788">
        <ele>545.5999756</ele>
        <time>2014-06-06T07:53:57Z</time>
      </trkpt>
      <trkpt lat="43.69943" lon="3.11787">
        <ele>546</ele>
        <time>2014-06-06T07:53:58Z</time>
      </trkpt>
      <trkpt lat="43.69944" lon="3.11787">
        <ele>546.4000244</ele>
        <time>2014-06-06T07:53:59Z</time>
      </trkpt>
      <trkpt lat="43.69947" lon="3.11786">
        <ele>546.4000244</ele>
        <time>2014-06-06T07:54:02Z</time>
      </trkpt>
      <trkpt lat="43.69948" lon="3.11786">
        <ele>546.4000244</ele>
        <time>2014-06-06T07:54:03Z</time>
      </trkpt>
      <trkpt lat="43.69953" lon="3.11787">
        <ele>546.4000244</ele>
        <time>2014-06-06T07:54:08Z</time>
      </trkpt>
      <trkpt lat="43.69953" lon="3.11787">
        <ele>546.4000244</ele>
        <time>2014-06-06T07:54:10Z</time>
      </trkpt>
      <trkpt lat="43.69953" lon="3.11787">
        <ele>546.4000244</ele>
        <time>2014-06-06T07:54:11Z</time>
      </trkpt>
      <trkpt lat="43.6996" lon="3.11789">
        <ele>548.4000244</ele>
        <time>2014-06-06T07:54:33Z</time>
      </trkpt>
      <trkpt lat="43.69961" lon="3.11789">
        <ele>548.4000244</ele>
        <time>2014-06-06T07:54:34Z</time>
      </trkpt>
      <trkpt lat="43.69968" lon="3.11789">
        <ele>548.4000244</ele>
        <time>2014-06-06T07:54:40Z</time>
      </trkpt>
      <trkpt lat="43.6997" lon="3.1179">
        <ele>548.4000244</ele>
        <time>2014-06-06T07:54:41Z</time>
      </trkpt>
      <trkpt lat="43.69971" lon="3.11789">
        <ele>548.7999878</ele>
        <time>2014-06-06T07:54:43Z</time>
      </trkpt>
      <trkpt lat="43.69973" lon="3.11789">
        <ele>549.2000122</ele>
        <time>2014-06-06T07:54:44Z</time>
      </trkpt>
      <trkpt lat="43.69974" lon="3.11788">
        <ele>549.5999756</ele>
        <time>2014-06-06T07:54:45Z</time>
      </trkpt>
      <trkpt lat="43.69975" lon="3.11789">
        <ele>550</ele>
        <time>2014-06-06T07:54:46Z</time>
      </trkpt>
      <trkpt lat="43.69976" lon="3.11789">
        <ele>550.4000244</ele>
        <time>2014-06-06T07:54:47Z</time>
      </trkpt>
      <trkpt lat="43.69984" lon="3.11785">
        <ele>550.7999878</ele>
        <time>2014-06-06T07:54:54Z</time>
      </trkpt>
      <trkpt lat="43.69985" lon="3.11784">
        <ele>551.2000122</ele>
        <time>2014-06-06T07:54:55Z</time>
      </trkpt>
      <trkpt lat="43.69986" lon="3.11782">
        <ele>551.5999756</ele>
        <time>2014-06-06T07:54:56Z</time>
      </trkpt>
      <trkpt lat="43.69987" lon="3.11781">
        <ele>552</ele>
        <time>2014-06-06T07:54:57Z</time>
      </trkpt>
      <trkpt lat="43.69988" lon="3.1178">
        <ele>552.5999756</ele>
        <time>2014-06-06T07:54:58Z</time>
      </trkpt>
      <trkpt lat="43.69991" lon="3.11777">
        <ele>552.5999756</ele>
        <time>2014-06-06T07:55:01Z</time>
      </trkpt>
      <trkpt lat="43.69996" lon="3.11774">
        <ele>553</ele>
        <time>2014-06-06T07:55:05Z</time>
      </trkpt>
      <trkpt lat="43.69997" lon="3.11773">
        <ele>553.4000244</ele>
        <time>2014-06-06T07:55:06Z</time>
      </trkpt>
      <trkpt lat="43.69998" lon="3.11772">
        <ele>553.7999878</ele>
        <time>2014-06-06T07:55:07Z</time>
      </trkpt>
      <trkpt lat="43.69999" lon="3.11771">
        <ele>554.2000122</ele>
        <time>2014-06-06T07:55:08Z</time>
      </trkpt>
      <trkpt lat="43.7" lon="3.1177">
        <ele>554.5999756</ele>
        <time>2014-06-06T07:55:09Z</time>
      </trkpt>
      <trkpt lat="43.70005" lon="3.11767">
        <ele>554.5999756</ele>
        <time>2014-06-06T07:55:14Z</time>
      </trkpt>
      <trkpt lat="43.70011" lon="3.11764">
        <ele>555</ele>
        <time>2014-06-06T07:55:19Z</time>
      </trkpt>
      <trkpt lat="43.70013" lon="3.11763">
        <ele>555.4000244</ele>
        <time>2014-06-06T07:55:20Z</time>
      </trkpt>
      <trkpt lat="43.70014" lon="3.11762">
        <ele>555.7999878</ele>
        <time>2014-06-06T07:55:21Z</time>
      </trkpt>
      <trkpt lat="43.70015" lon="3.11762">
        <ele>556.2000122</ele>
        <time>2014-06-06T07:55:22Z</time>
      </trkpt>
      <trkpt lat="43.70017" lon="3.11761">
        <ele>556.5999756</ele>
        <time>2014-06-06T07:55:23Z</time>
      </trkpt>
      <trkpt lat="43.70025" lon="3.11756">
        <ele>556.5999756</ele>
        <time>2014-06-06T07:55:29Z</time>
      </trkpt>
      <trkpt lat="43.70029" lon="3.11752">
        <ele>557</ele>
        <time>2014-06-06T07:55:32Z</time>
      </trkpt>
      <trkpt lat="43.7003" lon="3.11751">
        <ele>557.5999756</ele>
        <time>2014-06-06T07:55:33Z</time>
      </trkpt>
      <trkpt lat="43.70031" lon="3.1175">
        <ele>558</ele>
        <time>2014-06-06T07:55:34Z</time>
      </trkpt>
      <trkpt lat="43.70032" lon="3.11749">
        <ele>558.4000244</ele>
        <time>2014-06-06T07:55:35Z</time>
      </trkpt>
      <trkpt lat="43.70033" lon="3.11748">
        <ele>558.7999878</ele>
        <time>2014-06-06T07:55:36Z</time>
      </trkpt>
      <trkpt lat="43.7004" lon="3.11741">
        <ele>558.7999878</ele>
        <time>2014-06-06T07:55:42Z</time>
      </trkpt>
      <trkpt lat="43.70043" lon="3.11739">
        <ele>558.7999878</ele>
        <time>2014-06-06T07:55:44Z</time>
      </trkpt>
      <trkpt lat="43.70047" lon="3.11735">
        <ele>558.7999878</ele>
        <time>2014-06-06T07:55:47Z</time>
      </trkpt>
      <trkpt lat="43.7005" lon="3.11733">
        <ele>559.2000122</ele>
        <time>2014-06-06T07:55:49Z</time>
      </trkpt>
      <trkpt lat="43.70052" lon="3.11733">
        <ele>559.5999756</ele>
        <time>2014-06-06T07:55:50Z</time>
      </trkpt>
      <trkpt lat="43.70053" lon="3.11732">
        <ele>560</ele>
        <time>2014-06-06T07:55:51Z</time>
      </trkpt>
      <trkpt lat="43.70054" lon="3.11732">
        <ele>560.4000244</ele>
        <time>2014-06-06T07:55:52Z</time>
      </trkpt>
      <trkpt lat="43.70056" lon="3.11731">
        <ele>561</ele>
        <time>2014-06-06T07:55:53Z</time>
      </trkpt>
      <trkpt lat="43.70061" lon="3.11729">
        <ele>561</ele>
        <time>2014-06-06T07:55:56Z</time>
      </trkpt>
      <trkpt lat="43.70066" lon="3.11726">
        <ele>561</ele>
        <time>2014-06-06T07:55:59Z</time>
      </trkpt>
      <trkpt lat="43.70072" lon="3.11723">
        <ele>561.4000244</ele>
        <time>2014-06-06T07:56:03Z</time>
      </trkpt>
      <trkpt lat="43.70074" lon="3.11723">
        <ele>561.7999878</ele>
        <time>2014-06-06T07:56:04Z</time>
      </trkpt>
      <trkpt lat="43.70075" lon="3.11722">
        <ele>562.2000122</ele>
        <time>2014-06-06T07:56:05Z</time>
      </trkpt>
      <trkpt lat="43.70077" lon="3.11721">
        <ele>562.5999756</ele>
        <time>2014-06-06T07:56:06Z</time>
      </trkpt>
      <trkpt lat="43.70079" lon="3.11721">
        <ele>563</ele>
        <time>2014-06-06T07:56:07Z</time>
      </trkpt>
      <trkpt lat="43.7009" lon="3.11717">
        <ele>563</ele>
        <time>2014-06-06T07:56:14Z</time>
      </trkpt>
      <trkpt lat="43.70101" lon="3.11715">
        <ele>563.4000244</ele>
        <time>2014-06-06T07:56:20Z</time>
      </trkpt>
      <trkpt lat="43.70102" lon="3.11715">
        <ele>563.7999878</ele>
        <time>2014-06-06T07:56:21Z</time>
      </trkpt>
      <trkpt lat="43.70104" lon="3.11715">
        <ele>564.2000122</ele>
        <time>2014-06-06T07:56:22Z</time>
      </trkpt>
      <trkpt lat="43.70105" lon="3.11716">
        <ele>564.5999756</ele>
        <time>2014-06-06T07:56:23Z</time>
      </trkpt>
      <trkpt lat="43.70107" lon="3.11717">
        <ele>565</ele>
        <time>2014-06-06T07:56:24Z</time>
      </trkpt>
      <trkpt lat="43.70114" lon="3.1172">
        <ele>565</ele>
        <time>2014-06-06T07:56:28Z</time>
      </trkpt>
      <trkpt lat="43.70126" lon="3.11727">
        <ele>565.4000244</ele>
        <time>2014-06-06T07:56:35Z</time>
      </trkpt>
      <trkpt lat="43.70127" lon="3.11728">
        <ele>565.7999878</ele>
        <time>2014-06-06T07:56:36Z</time>
      </trkpt>
      <trkpt lat="43.70129" lon="3.11728">
        <ele>566.2000122</ele>
        <time>2014-06-06T07:56:37Z</time>
      </trkpt>
      <trkpt lat="43.7013" lon="3.11729">
        <ele>566.5999756</ele>
        <time>2014-06-06T07:56:38Z</time>
      </trkpt>
      <trkpt lat="43.70132" lon="3.11729">
        <ele>567</ele>
        <time>2014-06-06T07:56:39Z</time>
      </trkpt>
      <trkpt lat="43.70137" lon="3.11731">
        <ele>567</ele>
        <time>2014-06-06T07:56:42Z</time>
      </trkpt>
      <trkpt lat="43.70148" lon="3.11731">
        <ele>567</ele>
        <time>2014-06-06T07:56:48Z</time>
      </trkpt>
      <trkpt lat="43.70158" lon="3.1173">
        <ele>567.4000244</ele>
        <time>2014-06-06T07:56:52Z</time>
      </trkpt>
      <trkpt lat="43.7016" lon="3.1173">
        <ele>568</ele>
        <time>2014-06-06T07:56:53Z</time>
      </trkpt>
      <trkpt lat="43.70162" lon="3.11729">
        <ele>568.4000244</ele>
        <time>2014-06-06T07:56:54Z</time>
      </trkpt>
      <trkpt lat="43.70164" lon="3.11729">
        <ele>568.7999878</ele>
        <time>2014-06-06T07:56:55Z</time>
      </trkpt>
      <trkpt lat="43.70166" lon="3.11728">
        <ele>569.2000122</ele>
        <time>2014-06-06T07:56:56Z</time>
      </trkpt>
      <trkpt lat="43.70169" lon="3.11727">
        <ele>569.2000122</ele>
        <time>2014-06-06T07:56:58Z</time>
      </trkpt>
      <trkpt lat="43.7017" lon="3.11726">
        <ele>569.2000122</ele>
        <time>2014-06-06T07:56:59Z</time>
      </trkpt>
      <trkpt lat="43.70181" lon="3.11723">
        <ele>569.2000122</ele>
        <time>2014-06-06T07:57:06Z</time>
      </trkpt>
      <trkpt lat="43.70187" lon="3.11721">
        <ele>569.5999756</ele>
        <time>2014-06-06T07:57:09Z</time>
      </trkpt>
      <trkpt lat="43.70189" lon="3.1172">
        <ele>570</ele>
        <time>2014-06-06T07:57:10Z</time>
      </trkpt>
      <trkpt lat="43.70191" lon="3.1172">
        <ele>570.4000244</ele>
        <time>2014-06-06T07:57:11Z</time>
      </trkpt>
      <trkpt lat="43.70193" lon="3.11719">
        <ele>570.7999878</ele>
        <time>2014-06-06T07:57:12Z</time>
      </trkpt>
      <trkpt lat="43.70195" lon="3.11719">
        <ele>571.2000122</ele>
        <time>2014-06-06T07:57:13Z</time>
      </trkpt>
      <trkpt lat="43.702" lon="3.11719">
        <ele>571.2000122</ele>
        <time>2014-06-06T07:57:16Z</time>
      </trkpt>
      <trkpt lat="43.70206" lon="3.11719">
        <ele>571.2000122</ele>
        <time>2014-06-06T07:57:19Z</time>
      </trkpt>
      <trkpt lat="43.70212" lon="3.11718">
        <ele>571.5999756</ele>
        <time>2014-06-06T07:57:22Z</time>
      </trkpt>
      <trkpt lat="43.70213" lon="3.11718">
        <ele>572</ele>
        <time>2014-06-06T07:57:23Z</time>
      </trkpt>
      <trkpt lat="43.70215" lon="3.11717">
        <ele>572.4000244</ele>
        <time>2014-06-06T07:57:24Z</time>
      </trkpt>
      <trkpt lat="43.70217" lon="3.11717">
        <ele>572.7999878</ele>
        <time>2014-06-06T07:57:25Z</time>
      </trkpt>
      <trkpt lat="43.70218" lon="3.11717">
        <ele>573.2000122</ele>
        <time>2014-06-06T07:57:26Z</time>
      </trkpt>
      <trkpt lat="43.70227" lon="3.11716">
        <ele>573.2000122</ele>
        <time>2014-06-06T07:57:32Z</time>
      </trkpt>
      <trkpt lat="43.70231" lon="3.11716">
        <ele>573.5999756</ele>
        <time>2014-06-06T07:57:35Z</time>
      </trkpt>
      <trkpt lat="43.70233" lon="3.11715">
        <ele>574</ele>
        <time>2014-06-06T07:57:36Z</time>
      </trkpt>
      <trkpt lat="43.70235" lon="3.11715">
        <ele>574.4000244</ele>
        <time>2014-06-06T07:57:37Z</time>
      </trkpt>
      <trkpt lat="43.70236" lon="3.11714">
        <ele>574.7999878</ele>
        <time>2014-06-06T07:57:38Z</time>
      </trkpt>
      <trkpt lat="43.70238" lon="3.11714">
        <ele>575.2000122</ele>
        <time>2014-06-06T07:57:39Z</time>
      </trkpt>
      <trkpt lat="43.70249" lon="3.11714">
        <ele>575.2000122</ele>
        <time>2014-06-06T07:57:45Z</time>
      </trkpt>
      <trkpt lat="43.7026" lon="3.11715">
        <ele>575.7999878</ele>
        <time>2014-06-06T07:57:51Z</time>
      </trkpt>
      <trkpt lat="43.70262" lon="3.11716">
        <ele>576.2000122</ele>
        <time>2014-06-06T07:57:52Z</time>
      </trkpt>
      <trkpt lat="43.70264" lon="3.11717">
        <ele>576.5999756</ele>
        <time>2014-06-06T07:57:53Z</time>
      </trkpt>
      <trkpt lat="43.70266" lon="3.1172">
        <ele>577</ele>
        <time>2014-06-06T07:57:54Z</time>
      </trkpt>
      <trkpt lat="43.70268" lon="3.11722">
        <ele>577.4000244</ele>
        <time>2014-06-06T07:57:55Z</time>
      </trkpt>
      <trkpt lat="43.70271" lon="3.1173">
        <ele>577.4000244</ele>
        <time>2014-06-06T07:57:59Z</time>
      </trkpt>
      <trkpt lat="43.70266" lon="3.1174">
        <ele>577.4000244</ele>
        <time>2014-06-06T07:58:05Z</time>
      </trkpt>
      <trkpt lat="43.70265" lon="3.11741">
        <ele>577.7999878</ele>
        <time>2014-06-06T07:58:06Z</time>
      </trkpt>
      <trkpt lat="43.70264" lon="3.11742">
        <ele>578.2000122</ele>
        <time>2014-06-06T07:58:07Z</time>
      </trkpt>
      <trkpt lat="43.70263" lon="3.11744">
        <ele>578.5999756</ele>
        <time>2014-06-06T07:58:08Z</time>
      </trkpt>
      <trkpt lat="43.70262" lon="3.11745">
        <ele>579</ele>
        <time>2014-06-06T07:58:09Z</time>
      </trkpt>
      <trkpt lat="43.70262" lon="3.11746">
        <ele>579.4000244</ele>
        <time>2014-06-06T07:58:10Z</time>
      </trkpt>
      <trkpt lat="43.7026" lon="3.11749">
        <ele>579.4000244</ele>
        <time>2014-06-06T07:58:12Z</time>
      </trkpt>
      <trkpt lat="43.70255" lon="3.11754">
        <ele>579.4000244</ele>
        <time>2014-06-06T07:58:19Z</time>
      </trkpt>
      <trkpt lat="43.70255" lon="3.11754">
        <ele>579.4000244</ele>
        <time>2014-06-06T07:58:23Z</time>
      </trkpt>
      <trkpt lat="43.70252" lon="3.11759">
        <ele>579.4000244</ele>
        <time>2014-06-06T07:59:07Z</time>
      </trkpt>
      <trkpt lat="43.70251" lon="3.11761">
        <ele>579.4000244</ele>
        <time>2014-06-06T07:59:08Z</time>
      </trkpt>
      <trkpt lat="43.7025" lon="3.11763">
        <ele>579.4000244</ele>
        <time>2014-06-06T07:59:09Z</time>
      </trkpt>
      <trkpt lat="43.7024" lon="3.11775">
        <ele>579.4000244</ele>
        <time>2014-06-06T07:59:15Z</time>
      </trkpt>
      <trkpt lat="43.70238" lon="3.11777">
        <ele>579.7999878</ele>
        <time>2014-06-06T07:59:16Z</time>
      </trkpt>
      <trkpt lat="43.70236" lon="3.11779">
        <ele>580.2000122</ele>
        <time>2014-06-06T07:59:17Z</time>
      </trkpt>
      <trkpt lat="43.70234" lon="3.11781">
        <ele>581.2000122</ele>
        <time>2014-06-06T07:59:18Z</time>
      </trkpt>
      <trkpt lat="43.70232" lon="3.11783">
        <ele>581.5999756</ele>
        <time>2014-06-06T07:59:19Z</time>
      </trkpt>
      <trkpt lat="43.70227" lon="3.11791">
        <ele>581.5999756</ele>
        <time>2014-06-06T07:59:22Z</time>
      </trkpt>
      <trkpt lat="43.70215" lon="3.11809">
        <ele>581.5999756</ele>
        <time>2014-06-06T07:59:30Z</time>
      </trkpt>
      <trkpt lat="43.70208" lon="3.11823">
        <ele>582</ele>
        <time>2014-06-06T07:59:36Z</time>
      </trkpt>
      <trkpt lat="43.70207" lon="3.11825">
        <ele>582.4000244</ele>
        <time>2014-06-06T07:59:37Z</time>
      </trkpt>
      <trkpt lat="43.70206" lon="3.11827">
        <ele>582.7999878</ele>
        <time>2014-06-06T07:59:38Z</time>
      </trkpt>
      <trkpt lat="43.70206" lon="3.1183">
        <ele>583.2000122</ele>
        <time>2014-06-06T07:59:39Z</time>
      </trkpt>
      <trkpt lat="43.70205" lon="3.11832">
        <ele>583.5999756</ele>
        <time>2014-06-06T07:59:40Z</time>
      </trkpt>
      <trkpt lat="43.70201" lon="3.11844">
        <ele>583.5999756</ele>
        <time>2014-06-06T07:59:44Z</time>
      </trkpt>
      <trkpt lat="43.70198" lon="3.11861">
        <ele>583.5999756</ele>
        <time>2014-06-06T07:59:49Z</time>
      </trkpt>
      <trkpt lat="43.70199" lon="3.11867">
        <ele>584</ele>
        <time>2014-06-06T07:59:51Z</time>
      </trkpt>
      <trkpt lat="43.70201" lon="3.11871">
        <ele>584.4000244</ele>
        <time>2014-06-06T07:59:52Z</time>
      </trkpt>
      <trkpt lat="43.70203" lon="3.11874">
        <ele>584.7999878</ele>
        <time>2014-06-06T07:59:53Z</time>
      </trkpt>
      <trkpt lat="43.70205" lon="3.11878">
        <ele>585.2000122</ele>
        <time>2014-06-06T07:59:54Z</time>
      </trkpt>
      <trkpt lat="43.70206" lon="3.11882">
        <ele>585.5999756</ele>
        <time>2014-06-06T07:59:55Z</time>
      </trkpt>
      <trkpt lat="43.70216" lon="3.11899">
        <ele>585.5999756</ele>
        <time>2014-06-06T08:00:01Z</time>
      </trkpt>
      <trkpt lat="43.70219" lon="3.11902">
        <ele>586</ele>
        <time>2014-06-06T08:00:03Z</time>
      </trkpt>
      <trkpt lat="43.7022" lon="3.11904">
        <ele>586.4000244</ele>
        <time>2014-06-06T08:00:04Z</time>
      </trkpt>
      <trkpt lat="43.70221" lon="3.11906">
        <ele>587</ele>
        <time>2014-06-06T08:00:05Z</time>
      </trkpt>
      <trkpt lat="43.70222" lon="3.11909">
        <ele>587.4000244</ele>
        <time>2014-06-06T08:00:06Z</time>
      </trkpt>
      <trkpt lat="43.70223" lon="3.11911">
        <ele>587.7999878</ele>
        <time>2014-06-06T08:00:07Z</time>
      </trkpt>
      <trkpt lat="43.70224" lon="3.11916">
        <ele>587.7999878</ele>
        <time>2014-06-06T08:00:09Z</time>
      </trkpt>
      <trkpt lat="43.70226" lon="3.11928">
        <ele>587.7999878</ele>
        <time>2014-06-06T08:00:13Z</time>
      </trkpt>
      <trkpt lat="43.70225" lon="3.11932">
        <ele>587.7999878</ele>
        <time>2014-06-06T08:00:14Z</time>
      </trkpt>
      <trkpt lat="43.70215" lon="3.11941">
        <ele>587.7999878</ele>
        <time>2014-06-06T08:00:18Z</time>
      </trkpt>
      <trkpt lat="43.70207" lon="3.11945">
        <ele>588.2000122</ele>
        <time>2014-06-06T08:00:21Z</time>
      </trkpt>
      <trkpt lat="43.70204" lon="3.11945">
        <ele>588.5999756</ele>
        <time>2014-06-06T08:00:22Z</time>
      </trkpt>
      <trkpt lat="43.70201" lon="3.11947">
        <ele>589</ele>
        <time>2014-06-06T08:00:23Z</time>
      </trkpt>
      <trkpt lat="43.70199" lon="3.11948">
        <ele>589.4000244</ele>
        <time>2014-06-06T08:00:24Z</time>
      </trkpt>
      <trkpt lat="43.70196" lon="3.11949">
        <ele>589.7999878</ele>
        <time>2014-06-06T08:00:25Z</time>
      </trkpt>
      <trkpt lat="43.70177" lon="3.11958">
        <ele>589.7999878</ele>
        <time>2014-06-06T08:00:31Z</time>
      </trkpt>
      <trkpt lat="43.70161" lon="3.11968">
        <ele>589.7999878</ele>
        <time>2014-06-06T08:00:37Z</time>
      </trkpt>
      <trkpt lat="43.70147" lon="3.11973">
        <ele>589.7999878</ele>
        <time>2014-06-06T08:00:43Z</time>
      </trkpt>
      <trkpt lat="43.70133" lon="3.11975">
        <ele>589.7999878</ele>
        <time>2014-06-06T08:00:48Z</time>
      </trkpt>
      <trkpt lat="43.70123" lon="3.11978">
        <ele>590.2000122</ele>
        <time>2014-06-06T08:00:52Z</time>
      </trkpt>
      <trkpt lat="43.70121" lon="3.11979">
        <ele>590.5999756</ele>
        <time>2014-06-06T08:00:53Z</time>
      </trkpt>
      <trkpt lat="43.70119" lon="3.1198">
        <ele>591</ele>
        <time>2014-06-06T08:00:54Z</time>
      </trkpt>
      <trkpt lat="43.70116" lon="3.1198">
        <ele>591.4000244</ele>
        <time>2014-06-06T08:00:55Z</time>
      </trkpt>
      <trkpt lat="43.70113" lon="3.11981">
        <ele>591.7999878</ele>
        <time>2014-06-06T08:00:56Z</time>
      </trkpt>
      <trkpt lat="43.70105" lon="3.1198">
        <ele>591.7999878</ele>
        <time>2014-06-06T08:00:59Z</time>
      </trkpt>
      <trkpt lat="43.70087" lon="3.11986">
        <ele>591.7999878</ele>
        <time>2014-06-06T08:01:06Z</time>
      </trkpt>
      <trkpt lat="43.70075" lon="3.1199">
        <ele>592.2000122</ele>
        <time>2014-06-06T08:01:10Z</time>
      </trkpt>
      <trkpt lat="43.70071" lon="3.11991">
        <ele>592.5999756</ele>
        <time>2014-06-06T08:01:11Z</time>
      </trkpt>
      <trkpt lat="43.70067" lon="3.11991">
        <ele>593.2000122</ele>
        <time>2014-06-06T08:01:12Z</time>
      </trkpt>
      <trkpt lat="43.70064" lon="3.11991">
        <ele>593.5999756</ele>
        <time>2014-06-06T08:01:13Z</time>
      </trkpt>
      <trkpt lat="43.70061" lon="3.11991">
        <ele>594</ele>
        <time>2014-06-06T08:01:14Z</time>
      </trkpt>
      <trkpt lat="43.70047" lon="3.11998">
        <ele>594</ele>
        <time>2014-06-06T08:01:19Z</time>
      </trkpt>
      <trkpt lat="43.70032" lon="3.12005">
        <ele>594</ele>
        <time>2014-06-06T08:01:24Z</time>
      </trkpt>
      <trkpt lat="43.70029" lon="3.12006">
        <ele>594</ele>
        <time>2014-06-06T08:01:25Z</time>
      </trkpt>
      <trkpt lat="43.70013" lon="3.1201">
        <ele>594.4000244</ele>
        <time>2014-06-06T08:01:30Z</time>
      </trkpt>
      <trkpt lat="43.7001" lon="3.12011">
        <ele>594.7999878</ele>
        <time>2014-06-06T08:01:31Z</time>
      </trkpt>
      <trkpt lat="43.70007" lon="3.12012">
        <ele>595.2000122</ele>
        <time>2014-06-06T08:01:32Z</time>
      </trkpt>
      <trkpt lat="43.70004" lon="3.12014">
        <ele>595.5999756</ele>
        <time>2014-06-06T08:01:33Z</time>
      </trkpt>
      <trkpt lat="43.70001" lon="3.12016">
        <ele>596</ele>
        <time>2014-06-06T08:01:34Z</time>
      </trkpt>
      <trkpt lat="43.69991" lon="3.12023">
        <ele>596</ele>
        <time>2014-06-06T08:01:38Z</time>
      </trkpt>
      <trkpt lat="43.69976" lon="3.12032">
        <ele>596.4000244</ele>
        <time>2014-06-06T08:01:43Z</time>
      </trkpt>
      <trkpt lat="43.69974" lon="3.12034">
        <ele>596.7999878</ele>
        <time>2014-06-06T08:01:44Z</time>
      </trkpt>
      <trkpt lat="43.69972" lon="3.12038">
        <ele>597.7999878</ele>
        <time>2014-06-06T08:01:45Z</time>
      </trkpt>
      <trkpt lat="43.69971" lon="3.12041">
        <ele>598.2000122</ele>
        <time>2014-06-06T08:01:46Z</time>
      </trkpt>
      <trkpt lat="43.69966" lon="3.12048">
        <ele>598.2000122</ele>
        <time>2014-06-06T08:01:48Z</time>
      </trkpt>
      <trkpt lat="43.69959" lon="3.12069">
        <ele>598.2000122</ele>
        <time>2014-06-06T08:01:53Z</time>
      </trkpt>
      <trkpt lat="43.6996" lon="3.12089">
        <ele>598.5999756</ele>
        <time>2014-06-06T08:01:58Z</time>
      </trkpt>
      <trkpt lat="43.69962" lon="3.12093">
        <ele>599</ele>
        <time>2014-06-06T08:01:59Z</time>
      </trkpt>
      <trkpt lat="43.69964" lon="3.12097">
        <ele>599.4000244</ele>
        <time>2014-06-06T08:02:00Z</time>
      </trkpt>
      <trkpt lat="43.69966" lon="3.121">
        <ele>599.7999878</ele>
        <time>2014-06-06T08:02:01Z</time>
      </trkpt>
      <trkpt lat="43.69968" lon="3.12103">
        <ele>600.2000122</ele>
        <time>2014-06-06T08:02:02Z</time>
      </trkpt>
      <trkpt lat="43.69981" lon="3.12113">
        <ele>600.2000122</ele>
        <time>2014-06-06T08:02:07Z</time>
      </trkpt>
      <trkpt lat="43.7" lon="3.12124">
        <ele>600.5999756</ele>
        <time>2014-06-06T08:02:14Z</time>
      </trkpt>
      <trkpt lat="43.70002" lon="3.12125">
        <ele>601</ele>
        <time>2014-06-06T08:02:15Z</time>
      </trkpt>
      <trkpt lat="43.70005" lon="3.12127">
        <ele>601.4000244</ele>
        <time>2014-06-06T08:02:16Z</time>
      </trkpt>
      <trkpt lat="43.70008" lon="3.1213">
        <ele>601.7999878</ele>
        <time>2014-06-06T08:02:17Z</time>
      </trkpt>
      <trkpt lat="43.70011" lon="3.12132">
        <ele>602.2000122</ele>
        <time>2014-06-06T08:02:18Z</time>
      </trkpt>
      <trkpt lat="43.70017" lon="3.12136">
        <ele>602.2000122</ele>
        <time>2014-06-06T08:02:20Z</time>
      </trkpt>
      <trkpt lat="43.70034" lon="3.12143">
        <ele>602.5999756</ele>
        <time>2014-06-06T08:02:26Z</time>
      </trkpt>
      <trkpt lat="43.70036" lon="3.12144">
        <ele>603</ele>
        <time>2014-06-06T08:02:27Z</time>
      </trkpt>
      <trkpt lat="43.70039" lon="3.12145">
        <ele>603.5999756</ele>
        <time>2014-06-06T08:02:28Z</time>
      </trkpt>
      <trkpt lat="43.70041" lon="3.12146">
        <ele>604</ele>
        <time>2014-06-06T08:02:29Z</time>
      </trkpt>
      <trkpt lat="43.70044" lon="3.12148">
        <ele>604.4000244</ele>
        <time>2014-06-06T08:02:30Z</time>
      </trkpt>
      <trkpt lat="43.70055" lon="3.12147">
        <ele>604.4000244</ele>
        <time>2014-06-06T08:02:34Z</time>
      </trkpt>
      <trkpt lat="43.70075" lon="3.12147">
        <ele>604.4000244</ele>
        <time>2014-06-06T08:02:41Z</time>
      </trkpt>
      <trkpt lat="43.70082" lon="3.12149">
        <ele>604.7999878</ele>
        <time>2014-06-06T08:02:43Z</time>
      </trkpt>
      <trkpt lat="43.70084" lon="3.1215">
        <ele>605.2000122</ele>
        <time>2014-06-06T08:02:44Z</time>
      </trkpt>
      <trkpt lat="43.70087" lon="3.12152">
        <ele>605.5999756</ele>
        <time>2014-06-06T08:02:45Z</time>
      </trkpt>
      <trkpt lat="43.70089" lon="3.12154">
        <ele>606</ele>
        <time>2014-06-06T08:02:46Z</time>
      </trkpt>
      <trkpt lat="43.70092" lon="3.12157">
        <ele>606.4000244</ele>
        <time>2014-06-06T08:02:47Z</time>
      </trkpt>
      <trkpt lat="43.70108" lon="3.12167">
        <ele>606.4000244</ele>
        <time>2014-06-06T08:02:52Z</time>
      </trkpt>
      <trkpt lat="43.70117" lon="3.12172">
        <ele>606.7999878</ele>
        <time>2014-06-06T08:02:55Z</time>
      </trkpt>
      <trkpt lat="43.70119" lon="3.12174">
        <ele>607.2000122</ele>
        <time>2014-06-06T08:02:56Z</time>
      </trkpt>
      <trkpt lat="43.70122" lon="3.12176">
        <ele>607.5999756</ele>
        <time>2014-06-06T08:02:57Z</time>
      </trkpt>
      <trkpt lat="43.70124" lon="3.12178">
        <ele>608</ele>
        <time>2014-06-06T08:02:58Z</time>
      </trkpt>
      <trkpt lat="43.70127" lon="3.1218">
        <ele>608.4000244</ele>
        <time>2014-06-06T08:02:59Z</time>
      </trkpt>
      <trkpt lat="43.70147" lon="3.12185">
        <ele>608.4000244</ele>
        <time>2014-06-06T08:03:05Z</time>
      </trkpt>
      <trkpt lat="43.70154" lon="3.12188">
        <ele>608.7999878</ele>
        <time>2014-06-06T08:03:07Z</time>
      </trkpt>
      <trkpt lat="43.70156" lon="3.1219">
        <ele>609.4000244</ele>
        <time>2014-06-06T08:03:08Z</time>
      </trkpt>
      <trkpt lat="43.70159" lon="3.12193">
        <ele>609.7999878</ele>
        <time>2014-06-06T08:03:09Z</time>
      </trkpt>
      <trkpt lat="43.70163" lon="3.12195">
        <ele>610.2000122</ele>
        <time>2014-06-06T08:03:10Z</time>
      </trkpt>
      <trkpt lat="43.70167" lon="3.12198">
        <ele>610.5999756</ele>
        <time>2014-06-06T08:03:11Z</time>
      </trkpt>
      <trkpt lat="43.70185" lon="3.1222">
        <ele>610.5999756</ele>
        <time>2014-06-06T08:03:17Z</time>
      </trkpt>
      <trkpt lat="43.702" lon="3.12247">
        <ele>610.5999756</ele>
        <time>2014-06-06T08:03:24Z</time>
      </trkpt>
      <trkpt lat="43.70211" lon="3.12268">
        <ele>610.5999756</ele>
        <time>2014-06-06T08:03:30Z</time>
      </trkpt>
      <trkpt lat="43.70215" lon="3.12273">
        <ele>611</ele>
        <time>2014-06-06T08:03:32Z</time>
      </trkpt>
      <trkpt lat="43.70217" lon="3.12276">
        <ele>611.4000244</ele>
        <time>2014-06-06T08:03:33Z</time>
      </trkpt>
      <trkpt lat="43.7022" lon="3.12279">
        <ele>611.7999878</ele>
        <time>2014-06-06T08:03:34Z</time>
      </trkpt>
      <trkpt lat="43.70223" lon="3.12283">
        <ele>612.2000122</ele>
        <time>2014-06-06T08:03:35Z</time>
      </trkpt>
      <trkpt lat="43.70226" lon="3.12286">
        <ele>612.5999756</ele>
        <time>2014-06-06T08:03:36Z</time>
      </trkpt>
      <trkpt lat="43.70232" lon="3.12293">
        <ele>612.5999756</ele>
        <time>2014-06-06T08:03:39Z</time>
      </trkpt>
      <trkpt lat="43.70239" lon="3.12296">
        <ele>612.5999756</ele>
        <time>2014-06-06T08:03:42Z</time>
      </trkpt>
      <trkpt lat="43.70243" lon="3.12293">
        <ele>612.5999756</ele>
        <time>2014-06-06T08:03:45Z</time>
      </trkpt>
      <trkpt lat="43.70246" lon="3.12293">
        <ele>612.5999756</ele>
        <time>2014-06-06T08:03:47Z</time>
      </trkpt>
      <trkpt lat="43.70247" lon="3.12293">
        <ele>612.5999756</ele>
        <time>2014-06-06T08:03:50Z</time>
      </trkpt>
      <trkpt lat="43.70256" lon="3.12282">
        <ele>612.5999756</ele>
        <time>2014-06-06T08:09:46Z</time>
      </trkpt>
      <trkpt lat="43.70258" lon="3.1228">
        <ele>612.5999756</ele>
        <time>2014-06-06T08:09:47Z</time>
      </trkpt>
      <trkpt lat="43.70266" lon="3.12269">
        <ele>612.5999756</ele>
        <time>2014-06-06T08:09:51Z</time>
      </trkpt>
      <trkpt lat="43.70276" lon="3.12258">
        <ele>612.5999756</ele>
        <time>2014-06-06T08:09:56Z</time>
      </trkpt>
      <trkpt lat="43.70286" lon="3.12246">
        <ele>612.5999756</ele>
        <time>2014-06-06T08:10:01Z</time>
      </trkpt>
      <trkpt lat="43.70296" lon="3.12229">
        <ele>612.5999756</ele>
        <time>2014-06-06T08:10:08Z</time>
      </trkpt>
      <trkpt lat="43.70301" lon="3.1222">
        <ele>613</ele>
        <time>2014-06-06T08:10:11Z</time>
      </trkpt>
      <trkpt lat="43.70302" lon="3.12217">
        <ele>613.4000244</ele>
        <time>2014-06-06T08:10:12Z</time>
      </trkpt>
      <trkpt lat="43.70304" lon="3.12214">
        <ele>613.7999878</ele>
        <time>2014-06-06T08:10:13Z</time>
      </trkpt>
      <trkpt lat="43.70305" lon="3.12212">
        <ele>614.4000244</ele>
        <time>2014-06-06T08:10:14Z</time>
      </trkpt>
      <trkpt lat="43.70306" lon="3.12209">
        <ele>614.7999878</ele>
        <time>2014-06-06T08:10:15Z</time>
      </trkpt>
      <trkpt lat="43.70311" lon="3.12199">
        <ele>614.7999878</ele>
        <time>2014-06-06T08:10:19Z</time>
      </trkpt>
      <trkpt lat="43.70315" lon="3.12191">
        <ele>614.7999878</ele>
        <time>2014-06-06T08:10:22Z</time>
      </trkpt>
      <trkpt lat="43.70322" lon="3.12174">
        <ele>615.2000122</ele>
        <time>2014-06-06T08:10:29Z</time>
      </trkpt>
      <trkpt lat="43.70323" lon="3.12171">
        <ele>615.5999756</ele>
        <time>2014-06-06T08:10:30Z</time>
      </trkpt>
      <trkpt lat="43.70324" lon="3.12169">
        <ele>616</ele>
        <time>2014-06-06T08:10:31Z</time>
      </trkpt>
      <trkpt lat="43.70325" lon="3.12167">
        <ele>616.4000244</ele>
        <time>2014-06-06T08:10:32Z</time>
      </trkpt>
      <trkpt lat="43.70326" lon="3.12164">
        <ele>616.7999878</ele>
        <time>2014-06-06T08:10:33Z</time>
      </trkpt>
      <trkpt lat="43.7033" lon="3.12156">
        <ele>616.7999878</ele>
        <time>2014-06-06T08:10:37Z</time>
      </trkpt>
      <trkpt lat="43.7034" lon="3.12145">
        <ele>616.7999878</ele>
        <time>2014-06-06T08:10:42Z</time>
      </trkpt>
      <trkpt lat="43.70357" lon="3.12135">
        <ele>616.7999878</ele>
        <time>2014-06-06T08:10:50Z</time>
      </trkpt>
      <trkpt lat="43.7036" lon="3.12134">
        <ele>617.2000122</ele>
        <time>2014-06-06T08:10:51Z</time>
      </trkpt>
      <trkpt lat="43.70363" lon="3.12133">
        <ele>617.5999756</ele>
        <time>2014-06-06T08:10:52Z</time>
      </trkpt>
      <trkpt lat="43.70365" lon="3.12131">
        <ele>618</ele>
        <time>2014-06-06T08:10:53Z</time>
      </trkpt>
      <trkpt lat="43.70368" lon="3.1213">
        <ele>618.4000244</ele>
        <time>2014-06-06T08:10:54Z</time>
      </trkpt>
      <trkpt lat="43.7037" lon="3.12129">
        <ele>618.7999878</ele>
        <time>2014-06-06T08:10:55Z</time>
      </trkpt>
      <trkpt lat="43.70375" lon="3.12124">
        <ele>618.7999878</ele>
        <time>2014-06-06T08:10:57Z</time>
      </trkpt>
      <trkpt lat="43.70382" lon="3.12111">
        <ele>618.7999878</ele>
        <time>2014-06-06T08:11:02Z</time>
      </trkpt>
      <trkpt lat="43.70383" lon="3.12108">
        <ele>618.7999878</ele>
        <time>2014-06-06T08:11:03Z</time>
      </trkpt>
      <trkpt lat="43.70388" lon="3.12089">
        <ele>618.7999878</ele>
        <time>2014-06-06T08:11:08Z</time>
      </trkpt>
      <trkpt lat="43.70394" lon="3.12065">
        <ele>619.2000122</ele>
        <time>2014-06-06T08:11:15Z</time>
      </trkpt>
      <trkpt lat="43.70395" lon="3.12062">
        <ele>619.5999756</ele>
        <time>2014-06-06T08:11:16Z</time>
      </trkpt>
      <trkpt lat="43.70396" lon="3.12059">
        <ele>620</ele>
        <time>2014-06-06T08:11:17Z</time>
      </trkpt>
      <trkpt lat="43.70398" lon="3.12056">
        <ele>620.4000244</ele>
        <time>2014-06-06T08:11:18Z</time>
      </trkpt>
      <trkpt lat="43.70399" lon="3.12053">
        <ele>620.7999878</ele>
        <time>2014-06-06T08:11:19Z</time>
      </trkpt>
      <trkpt lat="43.70401" lon="3.12049">
        <ele>620.7999878</ele>
        <time>2014-06-06T08:11:21Z</time>
      </trkpt>
      <trkpt lat="43.70414" lon="3.12032">
        <ele>620.7999878</ele>
        <time>2014-06-06T08:11:28Z</time>
      </trkpt>
      <trkpt lat="43.70423" lon="3.12021">
        <ele>620.7999878</ele>
        <time>2014-06-06T08:11:33Z</time>
      </trkpt>
      <trkpt lat="43.70427" lon="3.12017">
        <ele>621.2000122</ele>
        <time>2014-06-06T08:11:35Z</time>
      </trkpt>
      <trkpt lat="43.70429" lon="3.12015">
        <ele>621.5999756</ele>
        <time>2014-06-06T08:11:36Z</time>
      </trkpt>
      <trkpt lat="43.70431" lon="3.12013">
        <ele>622</ele>
        <time>2014-06-06T08:11:37Z</time>
      </trkpt>
      <trkpt lat="43.70433" lon="3.12011">
        <ele>622.7999878</ele>
        <time>2014-06-06T08:11:38Z</time>
      </trkpt>
      <trkpt lat="43.70447" lon="3.11996">
        <ele>622.7999878</ele>
        <time>2014-06-06T08:11:45Z</time>
      </trkpt>
      <trkpt lat="43.70463" lon="3.1199">
        <ele>622.7999878</ele>
        <time>2014-06-06T08:11:52Z</time>
      </trkpt>
      <trkpt lat="43.70477" lon="3.11989">
        <ele>623.2000122</ele>
        <time>2014-06-06T08:11:58Z</time>
      </trkpt>
      <trkpt lat="43.7048" lon="3.11989">
        <ele>623.5999756</ele>
        <time>2014-06-06T08:11:59Z</time>
      </trkpt>
      <trkpt lat="43.70483" lon="3.11989">
        <ele>624</ele>
        <time>2014-06-06T08:12:00Z</time>
      </trkpt>
      <trkpt lat="43.70486" lon="3.11988">
        <ele>624.4000244</ele>
        <time>2014-06-06T08:12:01Z</time>
      </trkpt>
      <trkpt lat="43.70488" lon="3.11987">
        <ele>624.7999878</ele>
        <time>2014-06-06T08:12:02Z</time>
      </trkpt>
      <trkpt lat="43.70496" lon="3.11984">
        <ele>624.7999878</ele>
        <time>2014-06-06T08:12:05Z</time>
      </trkpt>
      <trkpt lat="43.70511" lon="3.11973">
        <ele>624.7999878</ele>
        <time>2014-06-06T08:12:12Z</time>
      </trkpt>
      <trkpt lat="43.70528" lon="3.11956">
        <ele>625.4000244</ele>
        <time>2014-06-06T08:12:20Z</time>
      </trkpt>
      <trkpt lat="43.7053" lon="3.11954">
        <ele>625.7999878</ele>
        <time>2014-06-06T08:12:21Z</time>
      </trkpt>
      <trkpt lat="43.70532" lon="3.11952">
        <ele>626.2000122</ele>
        <time>2014-06-06T08:12:22Z</time>
      </trkpt>
      <trkpt lat="43.70534" lon="3.1195">
        <ele>626.5999756</ele>
        <time>2014-06-06T08:12:23Z</time>
      </trkpt>
      <trkpt lat="43.70537" lon="3.11948">
        <ele>627</ele>
        <time>2014-06-06T08:12:24Z</time>
      </trkpt>
      <trkpt lat="43.70545" lon="3.11938">
        <ele>627</ele>
        <time>2014-06-06T08:12:28Z</time>
      </trkpt>
      <trkpt lat="43.7056" lon="3.11926">
        <ele>627</ele>
        <time>2014-06-06T08:12:34Z</time>
      </trkpt>
      <trkpt lat="43.70563" lon="3.11923">
        <ele>627.4000244</ele>
        <time>2014-06-06T08:12:35Z</time>
      </trkpt>
      <trkpt lat="43.70565" lon="3.11921">
        <ele>627.7999878</ele>
        <time>2014-06-06T08:12:36Z</time>
      </trkpt>
      <trkpt lat="43.70568" lon="3.11918">
        <ele>628.2000122</ele>
        <time>2014-06-06T08:12:37Z</time>
      </trkpt>
      <trkpt lat="43.7057" lon="3.11916">
        <ele>628.5999756</ele>
        <time>2014-06-06T08:12:38Z</time>
      </trkpt>
      <trkpt lat="43.70573" lon="3.11914">
        <ele>629</ele>
        <time>2014-06-06T08:12:39Z</time>
      </trkpt>
      <trkpt lat="43.70578" lon="3.11912">
        <ele>629</ele>
        <time>2014-06-06T08:12:41Z</time>
      </trkpt>
      <trkpt lat="43.70589" lon="3.11902">
        <ele>629</ele>
        <time>2014-06-06T08:12:45Z</time>
      </trkpt>
      <trkpt lat="43.70599" lon="3.11885">
        <ele>629</ele>
        <time>2014-06-06T08:12:51Z</time>
      </trkpt>
      <trkpt lat="43.70601" lon="3.1188">
        <ele>629.4000244</ele>
        <time>2014-06-06T08:12:53Z</time>
      </trkpt>
      <trkpt lat="43.70602" lon="3.11877">
        <ele>629.7999878</ele>
        <time>2014-06-06T08:12:54Z</time>
      </trkpt>
      <trkpt lat="43.70602" lon="3.11875">
        <ele>630.2000122</ele>
        <time>2014-06-06T08:12:55Z</time>
      </trkpt>
      <trkpt lat="43.70603" lon="3.11871">
        <ele>630.7999878</ele>
        <time>2014-06-06T08:12:56Z</time>
      </trkpt>
      <trkpt lat="43.70603" lon="3.11867">
        <ele>631.2000122</ele>
        <time>2014-06-06T08:12:57Z</time>
      </trkpt>
      <trkpt lat="43.70609" lon="3.11847">
        <ele>631.2000122</ele>
        <time>2014-06-06T08:13:02Z</time>
      </trkpt>
      <trkpt lat="43.70618" lon="3.11832">
        <ele>631.2000122</ele>
        <time>2014-06-06T08:13:07Z</time>
      </trkpt>
      <trkpt lat="43.70626" lon="3.11828">
        <ele>631.5999756</ele>
        <time>2014-06-06T08:13:10Z</time>
      </trkpt>
      <trkpt lat="43.70629" lon="3.11827">
        <ele>632</ele>
        <time>2014-06-06T08:13:11Z</time>
      </trkpt>
      <trkpt lat="43.70632" lon="3.11827">
        <ele>632.4000244</ele>
        <time>2014-06-06T08:13:12Z</time>
      </trkpt>
      <trkpt lat="43.70635" lon="3.11827">
        <ele>632.7999878</ele>
        <time>2014-06-06T08:13:13Z</time>
      </trkpt>
      <trkpt lat="43.70638" lon="3.11828">
        <ele>633.2000122</ele>
        <time>2014-06-06T08:13:14Z</time>
      </trkpt>
      <trkpt lat="43.70649" lon="3.11831">
        <ele>633.2000122</ele>
        <time>2014-06-06T08:13:17Z</time>
      </trkpt>
      <trkpt lat="43.70664" lon="3.11832">
        <ele>633.2000122</ele>
        <time>2014-06-06T08:13:22Z</time>
      </trkpt>
      <trkpt lat="43.70688" lon="3.11839">
        <ele>633.2000122</ele>
        <time>2014-06-06T08:13:29Z</time>
      </trkpt>
      <trkpt lat="43.707" lon="3.11845">
        <ele>633.2000122</ele>
        <time>2014-06-06T08:13:33Z</time>
      </trkpt>
      <trkpt lat="43.70706" lon="3.11848">
        <ele>633.2000122</ele>
        <time>2014-06-06T08:13:34Z</time>
      </trkpt>
      <trkpt lat="43.70716" lon="3.11854">
        <ele>633.2000122</ele>
        <time>2014-06-06T08:13:37Z</time>
      </trkpt>
      <trkpt lat="43.70722" lon="3.11859">
        <ele>633.5999756</ele>
        <time>2014-06-06T08:13:39Z</time>
      </trkpt>
      <trkpt lat="43.70726" lon="3.11861">
        <ele>634</ele>
        <time>2014-06-06T08:13:40Z</time>
      </trkpt>
      <trkpt lat="43.70729" lon="3.11863">
        <ele>634.7999878</ele>
        <time>2014-06-06T08:13:41Z</time>
      </trkpt>
      <trkpt lat="43.70731" lon="3.11865">
        <ele>635.2000122</ele>
        <time>2014-06-06T08:13:42Z</time>
      </trkpt>
      <trkpt lat="43.70734" lon="3.11868">
        <ele>635.2000122</ele>
        <time>2014-06-06T08:13:43Z</time>
      </trkpt>
      <trkpt lat="43.70755" lon="3.11877">
        <ele>635.5999756</ele>
        <time>2014-06-06T08:13:50Z</time>
      </trkpt>
      <trkpt lat="43.70758" lon="3.11876">
        <ele>636.2000122</ele>
        <time>2014-06-06T08:13:51Z</time>
      </trkpt>
      <trkpt lat="43.70762" lon="3.11875">
        <ele>636.5999756</ele>
        <time>2014-06-06T08:13:52Z</time>
      </trkpt>
      <trkpt lat="43.70766" lon="3.11871">
        <ele>637</ele>
        <time>2014-06-06T08:13:53Z</time>
      </trkpt>
      <trkpt lat="43.70769" lon="3.11868">
        <ele>637.4000244</ele>
        <time>2014-06-06T08:13:54Z</time>
      </trkpt>
      <trkpt lat="43.70774" lon="3.11855">
        <ele>637.4000244</ele>
        <time>2014-06-06T08:13:57Z</time>
      </trkpt>
      <trkpt lat="43.70775" lon="3.1185">
        <ele>637.4000244</ele>
        <time>2014-06-06T08:13:58Z</time>
      </trkpt>
      <trkpt lat="43.70778" lon="3.11823">
        <ele>637.4000244</ele>
        <time>2014-06-06T08:14:03Z</time>
      </trkpt>
      <trkpt lat="43.70781" lon="3.11775">
        <ele>637.4000244</ele>
        <time>2014-06-06T08:14:12Z</time>
      </trkpt>
      <trkpt lat="43.7078" lon="3.1177">
        <ele>637.4000244</ele>
        <time>2014-06-06T08:14:13Z</time>
      </trkpt>
      <trkpt lat="43.70774" lon="3.11757">
        <ele>637.4000244</ele>
        <time>2014-06-06T08:14:16Z</time>
      </trkpt>
      <trkpt lat="43.70771" lon="3.11753">
        <ele>637.4000244</ele>
        <time>2014-06-06T08:14:17Z</time>
      </trkpt>
      <trkpt lat="43.70768" lon="3.1175">
        <ele>637.7999878</ele>
        <time>2014-06-06T08:14:18Z</time>
      </trkpt>
      <trkpt lat="43.70765" lon="3.11746">
        <ele>638.2000122</ele>
        <time>2014-06-06T08:14:19Z</time>
      </trkpt>
      <trkpt lat="43.70762" lon="3.11743">
        <ele>638.5999756</ele>
        <time>2014-06-06T08:14:20Z</time>
      </trkpt>
      <trkpt lat="43.70758" lon="3.11741">
        <ele>639</ele>
        <time>2014-06-06T08:14:21Z</time>
      </trkpt>
      <trkpt lat="43.70755" lon="3.11738">
        <ele>639.4000244</ele>
        <time>2014-06-06T08:14:22Z</time>
      </trkpt>
      <trkpt lat="43.70751" lon="3.11734">
        <ele>639.4000244</ele>
        <time>2014-06-06T08:14:23Z</time>
      </trkpt>
      <trkpt lat="43.70742" lon="3.11724">
        <ele>639.4000244</ele>
        <time>2014-06-06T08:14:26Z</time>
      </trkpt>
      <trkpt lat="43.70738" lon="3.11722">
        <ele>639.4000244</ele>
        <time>2014-06-06T08:14:27Z</time>
      </trkpt>
      <trkpt lat="43.70712" lon="3.1171">
        <ele>639.4000244</ele>
        <time>2014-06-06T08:14:34Z</time>
      </trkpt>
      <trkpt lat="43.70689" lon="3.11699">
        <ele>639.4000244</ele>
        <time>2014-06-06T08:14:40Z</time>
      </trkpt>
      <trkpt lat="43.70686" lon="3.11695">
        <ele>639.4000244</ele>
        <time>2014-06-06T08:14:41Z</time>
      </trkpt>
      <trkpt lat="43.70676" lon="3.11676">
        <ele>639.4000244</ele>
        <time>2014-06-06T08:14:45Z</time>
      </trkpt>
      <trkpt lat="43.7067" lon="3.11661">
        <ele>639.4000244</ele>
        <time>2014-06-06T08:14:48Z</time>
      </trkpt>
      <trkpt lat="43.70665" lon="3.11652">
        <ele>639.4000244</ele>
        <time>2014-06-06T08:14:50Z</time>
      </trkpt>
      <trkpt lat="43.70662" lon="3.11647">
        <ele>639.4000244</ele>
        <time>2014-06-06T08:14:51Z</time>
      </trkpt>
      <trkpt lat="43.70652" lon="3.1162">
        <ele>639.4000244</ele>
        <time>2014-06-06T08:14:56Z</time>
      </trkpt>
      <trkpt lat="43.70652" lon="3.11614">
        <ele>639.4000244</ele>
        <time>2014-06-06T08:14:57Z</time>
      </trkpt>
      <trkpt lat="43.70658" lon="3.1159">
        <ele>639.4000244</ele>
        <time>2014-06-06T08:15:01Z</time>
      </trkpt>
      <trkpt lat="43.70664" lon="3.11573">
        <ele>639.4000244</ele>
        <time>2014-06-06T08:15:04Z</time>
      </trkpt>
      <trkpt lat="43.70671" lon="3.11548">
        <ele>639.4000244</ele>
        <time>2014-06-06T08:15:08Z</time>
      </trkpt>
      <trkpt lat="43.70673" lon="3.11536">
        <ele>639.4000244</ele>
        <time>2014-06-06T08:15:10Z</time>
      </trkpt>
      <trkpt lat="43.7067" lon="3.11518">
        <ele>639.4000244</ele>
        <time>2014-06-06T08:15:13Z</time>
      </trkpt>
      <trkpt lat="43.70656" lon="3.11505">
        <ele>639.4000244</ele>
        <time>2014-06-06T08:15:17Z</time>
      </trkpt>
      <trkpt lat="43.70649" lon="3.11499">
        <ele>639.4000244</ele>
        <time>2014-06-06T08:15:19Z</time>
      </trkpt>
      <trkpt lat="43.70634" lon="3.1149">
        <ele>639.7999878</ele>
        <time>2014-06-06T08:15:23Z</time>
      </trkpt>
      <trkpt lat="43.7063" lon="3.11488">
        <ele>640.2000122</ele>
        <time>2014-06-06T08:15:24Z</time>
      </trkpt>
      <trkpt lat="43.70626" lon="3.11486">
        <ele>640.5999756</ele>
        <time>2014-06-06T08:15:25Z</time>
      </trkpt>
      <trkpt lat="43.70623" lon="3.11484">
        <ele>641</ele>
        <time>2014-06-06T08:15:26Z</time>
      </trkpt>
      <trkpt lat="43.70619" lon="3.11482">
        <ele>641.4000244</ele>
        <time>2014-06-06T08:15:27Z</time>
      </trkpt>
      <trkpt lat="43.706" lon="3.11472">
        <ele>641.4000244</ele>
        <time>2014-06-06T08:15:32Z</time>
      </trkpt>
      <trkpt lat="43.70597" lon="3.11469">
        <ele>641.4000244</ele>
        <time>2014-06-06T08:15:33Z</time>
      </trkpt>
      <trkpt lat="43.70585" lon="3.11456">
        <ele>641.7999878</ele>
        <time>2014-06-06T08:15:37Z</time>
      </trkpt>
      <trkpt lat="43.70583" lon="3.11452">
        <ele>642.2000122</ele>
        <time>2014-06-06T08:15:38Z</time>
      </trkpt>
      <trkpt lat="43.70579" lon="3.11448">
        <ele>642.5999756</ele>
        <time>2014-06-06T08:15:39Z</time>
      </trkpt>
      <trkpt lat="43.70576" lon="3.11445">
        <ele>643</ele>
        <time>2014-06-06T08:15:40Z</time>
      </trkpt>
      <trkpt lat="43.70573" lon="3.11442">
        <ele>643.4000244</ele>
        <time>2014-06-06T08:15:41Z</time>
      </trkpt>
      <trkpt lat="43.70567" lon="3.11436">
        <ele>643.4000244</ele>
        <time>2014-06-06T08:15:43Z</time>
      </trkpt>
      <trkpt lat="43.70564" lon="3.11433">
        <ele>643.4000244</ele>
        <time>2014-06-06T08:15:44Z</time>
      </trkpt>
      <trkpt lat="43.70551" lon="3.1142">
        <ele>643.4000244</ele>
        <time>2014-06-06T08:15:48Z</time>
      </trkpt>
      <trkpt lat="43.70544" lon="3.11417">
        <ele>643.4000244</ele>
        <time>2014-06-06T08:15:50Z</time>
      </trkpt>
      <trkpt lat="43.70527" lon="3.11406">
        <ele>643.4000244</ele>
        <time>2014-06-06T08:15:55Z</time>
      </trkpt>
      <trkpt lat="43.70523" lon="3.11405">
        <ele>643.4000244</ele>
        <time>2014-06-06T08:15:56Z</time>
      </trkpt>
      <trkpt lat="43.70512" lon="3.11399">
        <ele>644</ele>
        <time>2014-06-06T08:15:59Z</time>
      </trkpt>
      <trkpt lat="43.70509" lon="3.11396">
        <ele>644.4000244</ele>
        <time>2014-06-06T08:16:00Z</time>
      </trkpt>
      <trkpt lat="43.70506" lon="3.11394">
        <ele>644.7999878</ele>
        <time>2014-06-06T08:16:01Z</time>
      </trkpt>
      <trkpt lat="43.70503" lon="3.11392">
        <ele>645.2000122</ele>
        <time>2014-06-06T08:16:02Z</time>
      </trkpt>
      <trkpt lat="43.70501" lon="3.11389">
        <ele>645.5999756</ele>
        <time>2014-06-06T08:16:03Z</time>
      </trkpt>
      <trkpt lat="43.70496" lon="3.1138">
        <ele>645.5999756</ele>
        <time>2014-06-06T08:16:05Z</time>
      </trkpt>
      <trkpt lat="43.70496" lon="3.11369">
        <ele>645.5999756</ele>
        <time>2014-06-06T08:16:07Z</time>
      </trkpt>
      <trkpt lat="43.70502" lon="3.11351">
        <ele>645.5999756</ele>
        <time>2014-06-06T08:16:11Z</time>
      </trkpt>
      <trkpt lat="43.70506" lon="3.11345">
        <ele>646</ele>
        <time>2014-06-06T08:16:13Z</time>
      </trkpt>
      <trkpt lat="43.70508" lon="3.11341">
        <ele>646.4000244</ele>
        <time>2014-06-06T08:16:14Z</time>
      </trkpt>
      <trkpt lat="43.7051" lon="3.11338">
        <ele>647</ele>
        <time>2014-06-06T08:16:15Z</time>
      </trkpt>
      <trkpt lat="43.70513" lon="3.11335">
        <ele>647.4000244</ele>
        <time>2014-06-06T08:16:16Z</time>
      </trkpt>
      <trkpt lat="43.70515" lon="3.11332">
        <ele>647.7999878</ele>
        <time>2014-06-06T08:16:17Z</time>
      </trkpt>
      <trkpt lat="43.70527" lon="3.11316">
        <ele>647.7999878</ele>
        <time>2014-06-06T08:16:23Z</time>
      </trkpt>
      <trkpt lat="43.7054" lon="3.113">
        <ele>647.7999878</ele>
        <time>2014-06-06T08:16:29Z</time>
      </trkpt>
      <trkpt lat="43.70547" lon="3.11292">
        <ele>648.2000122</ele>
        <time>2014-06-06T08:16:32Z</time>
      </trkpt>
      <trkpt lat="43.70549" lon="3.1129">
        <ele>648.5999756</ele>
        <time>2014-06-06T08:16:33Z</time>
      </trkpt>
      <trkpt lat="43.70551" lon="3.11287">
        <ele>649.4000244</ele>
        <time>2014-06-06T08:16:34Z</time>
      </trkpt>
      <trkpt lat="43.70553" lon="3.11285">
        <ele>650</ele>
        <time>2014-06-06T08:16:35Z</time>
      </trkpt>
      <trkpt lat="43.70559" lon="3.11275">
        <ele>650</ele>
        <time>2014-06-06T08:16:38Z</time>
      </trkpt>
      <trkpt lat="43.7057" lon="3.11256">
        <ele>650</ele>
        <time>2014-06-06T08:16:44Z</time>
      </trkpt>
      <trkpt lat="43.70577" lon="3.11243">
        <ele>650.4000244</ele>
        <time>2014-06-06T08:16:48Z</time>
      </trkpt>
      <trkpt lat="43.70577" lon="3.1124">
        <ele>650.7999878</ele>
        <time>2014-06-06T08:16:49Z</time>
      </trkpt>
      <trkpt lat="43.70578" lon="3.11236">
        <ele>651.2000122</ele>
        <time>2014-06-06T08:16:50Z</time>
      </trkpt>
      <trkpt lat="43.7058" lon="3.11233">
        <ele>651.5999756</ele>
        <time>2014-06-06T08:16:51Z</time>
      </trkpt>
      <trkpt lat="43.70582" lon="3.1123">
        <ele>652</ele>
        <time>2014-06-06T08:16:52Z</time>
      </trkpt>
      <trkpt lat="43.70582" lon="3.11227">
        <ele>652</ele>
        <time>2014-06-06T08:16:53Z</time>
      </trkpt>
      <trkpt lat="43.70583" lon="3.11221">
        <ele>652</ele>
        <time>2014-06-06T08:16:55Z</time>
      </trkpt>
      <trkpt lat="43.70587" lon="3.11198">
        <ele>652</ele>
        <time>2014-06-06T08:17:02Z</time>
      </trkpt>
      <trkpt lat="43.70588" lon="3.11196">
        <ele>652.4000244</ele>
        <time>2014-06-06T08:17:03Z</time>
      </trkpt>
      <trkpt lat="43.70588" lon="3.11193">
        <ele>652.7999878</ele>
        <time>2014-06-06T08:17:04Z</time>
      </trkpt>
      <trkpt lat="43.70589" lon="3.11189">
        <ele>653.2000122</ele>
        <time>2014-06-06T08:17:05Z</time>
      </trkpt>
      <trkpt lat="43.70589" lon="3.11186">
        <ele>653.7999878</ele>
        <time>2014-06-06T08:17:06Z</time>
      </trkpt>
      <trkpt lat="43.70589" lon="3.11183">
        <ele>654.2000122</ele>
        <time>2014-06-06T08:17:07Z</time>
      </trkpt>
      <trkpt lat="43.70589" lon="3.11179">
        <ele>654.2000122</ele>
        <time>2014-06-06T08:17:08Z</time>
      </trkpt>
      <trkpt lat="43.70594" lon="3.11156">
        <ele>654.2000122</ele>
        <time>2014-06-06T08:17:14Z</time>
      </trkpt>
      <trkpt lat="43.70596" lon="3.11148">
        <ele>654.5999756</ele>
        <time>2014-06-06T08:17:16Z</time>
      </trkpt>
      <trkpt lat="43.70597" lon="3.11144">
        <ele>655</ele>
        <time>2014-06-06T08:17:17Z</time>
      </trkpt>
      <trkpt lat="43.70598" lon="3.11141">
        <ele>655.4000244</ele>
        <time>2014-06-06T08:17:18Z</time>
      </trkpt>
      <trkpt lat="43.70599" lon="3.11137">
        <ele>655.7999878</ele>
        <time>2014-06-06T08:17:19Z</time>
      </trkpt>
      <trkpt lat="43.706" lon="3.11133">
        <ele>656.2000122</ele>
        <time>2014-06-06T08:17:20Z</time>
      </trkpt>
      <trkpt lat="43.70607" lon="3.11111">
        <ele>656.2000122</ele>
        <time>2014-06-06T08:17:27Z</time>
      </trkpt>
      <trkpt lat="43.70611" lon="3.11094">
        <ele>656.5999756</ele>
        <time>2014-06-06T08:17:32Z</time>
      </trkpt>
      <trkpt lat="43.70612" lon="3.11091">
        <ele>657</ele>
        <time>2014-06-06T08:17:33Z</time>
      </trkpt>
      <trkpt lat="43.70613" lon="3.11087">
        <ele>657.4000244</ele>
        <time>2014-06-06T08:17:34Z</time>
      </trkpt>
      <trkpt lat="43.70614" lon="3.11083">
        <ele>657.7999878</ele>
        <time>2014-06-06T08:17:35Z</time>
      </trkpt>
      <trkpt lat="43.70615" lon="3.1108">
        <ele>658.4000244</ele>
        <time>2014-06-06T08:17:36Z</time>
      </trkpt>
      <trkpt lat="43.70619" lon="3.11069">
        <ele>658.4000244</ele>
        <time>2014-06-06T08:17:40Z</time>
      </trkpt>
      <trkpt lat="43.70623" lon="3.11048">
        <ele>658.7999878</ele>
        <time>2014-06-06T08:17:46Z</time>
      </trkpt>
      <trkpt lat="43.70624" lon="3.11045">
        <ele>659.2000122</ele>
        <time>2014-06-06T08:17:47Z</time>
      </trkpt>
      <trkpt lat="43.70625" lon="3.11042">
        <ele>659.5999756</ele>
        <time>2014-06-06T08:17:48Z</time>
      </trkpt>
      <trkpt lat="43.70626" lon="3.11038">
        <ele>660.4000244</ele>
        <time>2014-06-06T08:17:49Z</time>
      </trkpt>
      <trkpt lat="43.70629" lon="3.11027">
        <ele>660.4000244</ele>
        <time>2014-06-06T08:17:52Z</time>
      </trkpt>
      <trkpt lat="43.70638" lon="3.11009">
        <ele>660.4000244</ele>
        <time>2014-06-06T08:17:58Z</time>
      </trkpt>
      <trkpt lat="43.70648" lon="3.10996">
        <ele>660.7999878</ele>
        <time>2014-06-06T08:18:03Z</time>
      </trkpt>
      <trkpt lat="43.7065" lon="3.10994">
        <ele>661.2000122</ele>
        <time>2014-06-06T08:18:04Z</time>
      </trkpt>
      <trkpt lat="43.70653" lon="3.10992">
        <ele>661.5999756</ele>
        <time>2014-06-06T08:18:05Z</time>
      </trkpt>
      <trkpt lat="43.70655" lon="3.1099">
        <ele>662</ele>
        <time>2014-06-06T08:18:06Z</time>
      </trkpt>
      <trkpt lat="43.70657" lon="3.10988">
        <ele>662.4000244</ele>
        <time>2014-06-06T08:18:07Z</time>
      </trkpt>
      <trkpt lat="43.70672" lon="3.1097">
        <ele>662.4000244</ele>
        <time>2014-06-06T08:18:14Z</time>
      </trkpt>
      <trkpt lat="43.70683" lon="3.10951">
        <ele>662.4000244</ele>
        <time>2014-06-06T08:18:21Z</time>
      </trkpt>
      <trkpt lat="43.70692" lon="3.10944">
        <ele>662.7999878</ele>
        <time>2014-06-06T08:18:25Z</time>
      </trkpt>
      <trkpt lat="43.70694" lon="3.10944">
        <ele>663.4000244</ele>
        <time>2014-06-06T08:18:26Z</time>
      </trkpt>
      <trkpt lat="43.70695" lon="3.10943">
        <ele>663.7999878</ele>
        <time>2014-06-06T08:18:27Z</time>
      </trkpt>
      <trkpt lat="43.70698" lon="3.10943">
        <ele>664.2000122</ele>
        <time>2014-06-06T08:18:28Z</time>
      </trkpt>
      <trkpt lat="43.707" lon="3.10942">
        <ele>664.5999756</ele>
        <time>2014-06-06T08:18:29Z</time>
      </trkpt>
      <trkpt lat="43.70709" lon="3.10944">
        <ele>664.5999756</ele>
        <time>2014-06-06T08:18:32Z</time>
      </trkpt>
      <trkpt lat="43.70725" lon="3.10943">
        <ele>664.5999756</ele>
        <time>2014-06-06T08:18:38Z</time>
      </trkpt>
      <trkpt lat="43.70742" lon="3.10939">
        <ele>665</ele>
        <time>2014-06-06T08:18:44Z</time>
      </trkpt>
      <trkpt lat="43.70745" lon="3.10938">
        <ele>665.4000244</ele>
        <time>2014-06-06T08:18:45Z</time>
      </trkpt>
      <trkpt lat="43.70747" lon="3.10937">
        <ele>665.7999878</ele>
        <time>2014-06-06T08:18:46Z</time>
      </trkpt>
      <trkpt lat="43.70749" lon="3.10936">
        <ele>666.2000122</ele>
        <time>2014-06-06T08:18:47Z</time>
      </trkpt>
      <trkpt lat="43.70751" lon="3.10935">
        <ele>666.5999756</ele>
        <time>2014-06-06T08:18:48Z</time>
      </trkpt>
      <trkpt lat="43.70761" lon="3.10931">
        <ele>666.5999756</ele>
        <time>2014-06-06T08:18:52Z</time>
      </trkpt>
      <trkpt lat="43.70776" lon="3.10923">
        <ele>667</ele>
        <time>2014-06-06T08:18:59Z</time>
      </trkpt>
      <trkpt lat="43.70779" lon="3.10922">
        <ele>667.4000244</ele>
        <time>2014-06-06T08:19:00Z</time>
      </trkpt>
      <trkpt lat="43.70781" lon="3.10921">
        <ele>667.7999878</ele>
        <time>2014-06-06T08:19:01Z</time>
      </trkpt>
      <trkpt lat="43.70784" lon="3.10919">
        <ele>668.2000122</ele>
        <time>2014-06-06T08:19:02Z</time>
      </trkpt>
      <trkpt lat="43.70787" lon="3.10919">
        <ele>668.7999878</ele>
        <time>2014-06-06T08:19:03Z</time>
      </trkpt>
      <trkpt lat="43.70797" lon="3.10913">
        <ele>668.7999878</ele>
        <time>2014-06-06T08:19:06Z</time>
      </trkpt>
      <trkpt lat="43.708" lon="3.10909">
        <ele>668.7999878</ele>
        <time>2014-06-06T08:19:08Z</time>
      </trkpt>
      <trkpt lat="43.70806" lon="3.10904">
        <ele>668.7999878</ele>
        <time>2014-06-06T08:19:09Z</time>
      </trkpt>
      <trkpt lat="43.7081" lon="3.10901">
        <ele>669.2000122</ele>
        <time>2014-06-06T08:19:10Z</time>
      </trkpt>
      <trkpt lat="43.70812" lon="3.10898">
        <ele>669.5999756</ele>
        <time>2014-06-06T08:19:11Z</time>
      </trkpt>
      <trkpt lat="43.70814" lon="3.10895">
        <ele>670</ele>
        <time>2014-06-06T08:19:12Z</time>
      </trkpt>
      <trkpt lat="43.70815" lon="3.10892">
        <ele>670.4000244</ele>
        <time>2014-06-06T08:19:13Z</time>
      </trkpt>
      <trkpt lat="43.70816" lon="3.10889">
        <ele>670.7999878</ele>
        <time>2014-06-06T08:19:14Z</time>
      </trkpt>
      <trkpt lat="43.70815" lon="3.10883">
        <ele>670.7999878</ele>
        <time>2014-06-06T08:19:16Z</time>
      </trkpt>
      <trkpt lat="43.70812" lon="3.10863">
        <ele>671.2000122</ele>
        <time>2014-06-06T08:19:22Z</time>
      </trkpt>
      <trkpt lat="43.70812" lon="3.1086">
        <ele>671.5999756</ele>
        <time>2014-06-06T08:19:23Z</time>
      </trkpt>
      <trkpt lat="43.70812" lon="3.10857">
        <ele>672</ele>
        <time>2014-06-06T08:19:24Z</time>
      </trkpt>
      <trkpt lat="43.70811" lon="3.10854">
        <ele>672.4000244</ele>
        <time>2014-06-06T08:19:25Z</time>
      </trkpt>
      <trkpt lat="43.70811" lon="3.10852">
        <ele>672.7999878</ele>
        <time>2014-06-06T08:19:26Z</time>
      </trkpt>
      <trkpt lat="43.70809" lon="3.10846">
        <ele>672.7999878</ele>
        <time>2014-06-06T08:19:28Z</time>
      </trkpt>
      <trkpt lat="43.70804" lon="3.1083">
        <ele>673.2000122</ele>
        <time>2014-06-06T08:19:33Z</time>
      </trkpt>
      <trkpt lat="43.70802" lon="3.10826">
        <ele>673.5999756</ele>
        <time>2014-06-06T08:19:34Z</time>
      </trkpt>
      <trkpt lat="43.70801" lon="3.10823">
        <ele>674</ele>
        <time>2014-06-06T08:19:35Z</time>
      </trkpt>
      <trkpt lat="43.70799" lon="3.1082">
        <ele>674.4000244</ele>
        <time>2014-06-06T08:19:36Z</time>
      </trkpt>
      <trkpt lat="43.70797" lon="3.10817">
        <ele>674.7999878</ele>
        <time>2014-06-06T08:19:37Z</time>
      </trkpt>
      <trkpt lat="43.70788" lon="3.10804">
        <ele>674.7999878</ele>
        <time>2014-06-06T08:19:42Z</time>
      </trkpt>
      <trkpt lat="43.70776" lon="3.10793">
        <ele>674.7999878</ele>
        <time>2014-06-06T08:19:48Z</time>
      </trkpt>
      <trkpt lat="43.70775" lon="3.10791">
        <ele>675.2000122</ele>
        <time>2014-06-06T08:19:49Z</time>
      </trkpt>
      <trkpt lat="43.70774" lon="3.10791">
        <ele>675.7999878</ele>
        <time>2014-06-06T08:19:50Z</time>
      </trkpt>
      <trkpt lat="43.70773" lon="3.1079">
        <ele>676.2000122</ele>
        <time>2014-06-06T08:19:51Z</time>
      </trkpt>
      <trkpt lat="43.70771" lon="3.10788">
        <ele>677</ele>
        <time>2014-06-06T08:19:52Z</time>
      </trkpt>
      <trkpt lat="43.70762" lon="3.10781">
        <ele>677</ele>
        <time>2014-06-06T08:19:58Z</time>
      </trkpt>
      <trkpt lat="43.70753" lon="3.10775">
        <ele>677.4000244</ele>
        <time>2014-06-06T08:20:04Z</time>
      </trkpt>
      <trkpt lat="43.70752" lon="3.10772">
        <ele>677.7999878</ele>
        <time>2014-06-06T08:20:05Z</time>
      </trkpt>
      <trkpt lat="43.7075" lon="3.1077">
        <ele>678.2000122</ele>
        <time>2014-06-06T08:20:06Z</time>
      </trkpt>
      <trkpt lat="43.70749" lon="3.10768">
        <ele>678.5999756</ele>
        <time>2014-06-06T08:20:07Z</time>
      </trkpt>
      <trkpt lat="43.70747" lon="3.10766">
        <ele>679</ele>
        <time>2014-06-06T08:20:08Z</time>
      </trkpt>
      <trkpt lat="43.70745" lon="3.10762">
        <ele>679</ele>
        <time>2014-06-06T08:20:10Z</time>
      </trkpt>
      <trkpt lat="43.70744" lon="3.10757">
        <ele>679</ele>
        <time>2014-06-06T08:20:12Z</time>
      </trkpt>
      <trkpt lat="43.70744" lon="3.10748">
        <ele>679</ele>
        <time>2014-06-06T08:20:15Z</time>
      </trkpt>
      <trkpt lat="43.70744" lon="3.10745">
        <ele>679.4000244</ele>
        <time>2014-06-06T08:20:16Z</time>
      </trkpt>
      <trkpt lat="43.70744" lon="3.10742">
        <ele>680.2000122</ele>
        <time>2014-06-06T08:20:17Z</time>
      </trkpt>
      <trkpt lat="43.70745" lon="3.1074">
        <ele>680.7999878</ele>
        <time>2014-06-06T08:20:18Z</time>
      </trkpt>
      <trkpt lat="43.70745" lon="3.10738">
        <ele>681.2000122</ele>
        <time>2014-06-06T08:20:19Z</time>
      </trkpt>
      <trkpt lat="43.70746" lon="3.10733">
        <ele>681.2000122</ele>
        <time>2014-06-06T08:20:21Z</time>
      </trkpt>
      <trkpt lat="43.70751" lon="3.10719">
        <ele>681.2000122</ele>
        <time>2014-06-06T08:20:27Z</time>
      </trkpt>
      <trkpt lat="43.70751" lon="3.10708">
        <ele>681.2000122</ele>
        <time>2014-06-06T08:20:32Z</time>
      </trkpt>
      <trkpt lat="43.70752" lon="3.10698">
        <ele>681.5999756</ele>
        <time>2014-06-06T08:20:36Z</time>
      </trkpt>
      <trkpt lat="43.70752" lon="3.10696">
        <ele>682</ele>
        <time>2014-06-06T08:20:37Z</time>
      </trkpt>
      <trkpt lat="43.70752" lon="3.10694">
        <ele>682.4000244</ele>
        <time>2014-06-06T08:20:38Z</time>
      </trkpt>
      <trkpt lat="43.70753" lon="3.10691">
        <ele>682.7999878</ele>
        <time>2014-06-06T08:20:39Z</time>
      </trkpt>
      <trkpt lat="43.70753" lon="3.10689">
        <ele>683.2000122</ele>
        <time>2014-06-06T08:20:40Z</time>
      </trkpt>
      <trkpt lat="43.70755" lon="3.10683">
        <ele>683.2000122</ele>
        <time>2014-06-06T08:20:43Z</time>
      </trkpt>
      <trkpt lat="43.70756" lon="3.10672">
        <ele>683.7999878</ele>
        <time>2014-06-06T08:20:48Z</time>
      </trkpt>
      <trkpt lat="43.70756" lon="3.1067">
        <ele>684.2000122</ele>
        <time>2014-06-06T08:20:49Z</time>
      </trkpt>
      <trkpt lat="43.70755" lon="3.10668">
        <ele>684.5999756</ele>
        <time>2014-06-06T08:20:50Z</time>
      </trkpt>
      <trkpt lat="43.70755" lon="3.10666">
        <ele>685</ele>
        <time>2014-06-06T08:20:51Z</time>
      </trkpt>
      <trkpt lat="43.70756" lon="3.10663">
        <ele>685.5999756</ele>
        <time>2014-06-06T08:20:52Z</time>
      </trkpt>
      <trkpt lat="43.70755" lon="3.10658">
        <ele>685.5999756</ele>
        <time>2014-06-06T08:20:54Z</time>
      </trkpt>
      <trkpt lat="43.70756" lon="3.10657">
        <ele>685.5999756</ele>
        <time>2014-06-06T08:20:55Z</time>
      </trkpt>
      <trkpt lat="43.70757" lon="3.10649">
        <ele>686</ele>
        <time>2014-06-06T08:20:58Z</time>
      </trkpt>
      <trkpt lat="43.70757" lon="3.10647">
        <ele>686.4000244</ele>
        <time>2014-06-06T08:20:59Z</time>
      </trkpt>
      <trkpt lat="43.70758" lon="3.10643">
        <ele>686.7999878</ele>
        <time>2014-06-06T08:21:00Z</time>
      </trkpt>
      <trkpt lat="43.70758" lon="3.10641">
        <ele>687.2000122</ele>
        <time>2014-06-06T08:21:01Z</time>
      </trkpt>
      <trkpt lat="43.70758" lon="3.10637">
        <ele>687.5999756</ele>
        <time>2014-06-06T08:21:02Z</time>
      </trkpt>
      <trkpt lat="43.70756" lon="3.10621">
        <ele>688</ele>
        <time>2014-06-06T08:21:08Z</time>
      </trkpt>
      <trkpt lat="43.70756" lon="3.10619">
        <ele>688.4000244</ele>
        <time>2014-06-06T08:21:09Z</time>
      </trkpt>
      <trkpt lat="43.70756" lon="3.10617">
        <ele>688.7999878</ele>
        <time>2014-06-06T08:21:10Z</time>
      </trkpt>
      <trkpt lat="43.70756" lon="3.10616">
        <ele>689.2000122</ele>
        <time>2014-06-06T08:21:11Z</time>
      </trkpt>
      <trkpt lat="43.70755" lon="3.10616">
        <ele>689.5999756</ele>
        <time>2014-06-06T08:21:12Z</time>
      </trkpt>
      <trkpt lat="43.70755" lon="3.10616">
        <ele>689.5999756</ele>
        <time>2014-06-06T08:21:14Z</time>
      </trkpt>
      <trkpt lat="43.70754" lon="3.10603">
        <ele>691.2000122</ele>
        <time>2014-06-06T08:22:52Z</time>
      </trkpt>
      <trkpt lat="43.70755" lon="3.10598">
        <ele>691.2000122</ele>
        <time>2014-06-06T08:22:53Z</time>
      </trkpt>
      <trkpt lat="43.70757" lon="3.10593">
        <ele>691.2000122</ele>
        <time>2014-06-06T08:22:54Z</time>
      </trkpt>
      <trkpt lat="43.70759" lon="3.10587">
        <ele>690.5999756</ele>
        <time>2014-06-06T08:22:55Z</time>
      </trkpt>
      <trkpt lat="43.70761" lon="3.10581">
        <ele>690.2000122</ele>
        <time>2014-06-06T08:22:56Z</time>
      </trkpt>
      <trkpt lat="43.70763" lon="3.10574">
        <ele>689.7999878</ele>
        <time>2014-06-06T08:22:57Z</time>
      </trkpt>
      <trkpt lat="43.70766" lon="3.10566">
        <ele>689.4000244</ele>
        <time>2014-06-06T08:22:58Z</time>
      </trkpt>
      <trkpt lat="43.7077" lon="3.10559">
        <ele>689</ele>
        <time>2014-06-06T08:22:59Z</time>
      </trkpt>
      <trkpt lat="43.70779" lon="3.10545">
        <ele>688.5999756</ele>
        <time>2014-06-06T08:23:01Z</time>
      </trkpt>
      <trkpt lat="43.70785" lon="3.10538">
        <ele>688.2000122</ele>
        <time>2014-06-06T08:23:02Z</time>
      </trkpt>
      <trkpt lat="43.7079" lon="3.10533">
        <ele>687.5999756</ele>
        <time>2014-06-06T08:23:03Z</time>
      </trkpt>
      <trkpt lat="43.70797" lon="3.10526">
        <ele>687.2000122</ele>
        <time>2014-06-06T08:23:04Z</time>
      </trkpt>
      <trkpt lat="43.70802" lon="3.10519">
        <ele>686.5999756</ele>
        <time>2014-06-06T08:23:05Z</time>
      </trkpt>
      <trkpt lat="43.70808" lon="3.10513">
        <ele>686.5999756</ele>
        <time>2014-06-06T08:23:06Z</time>
      </trkpt>
      <trkpt lat="43.70814" lon="3.10508">
        <ele>686.2000122</ele>
        <time>2014-06-06T08:23:07Z</time>
      </trkpt>
      <trkpt lat="43.70821" lon="3.10503">
        <ele>685.7999878</ele>
        <time>2014-06-06T08:23:08Z</time>
      </trkpt>
      <trkpt lat="43.70829" lon="3.10499">
        <ele>685.4000244</ele>
        <time>2014-06-06T08:23:09Z</time>
      </trkpt>
      <trkpt lat="43.70836" lon="3.10497">
        <ele>684.4000244</ele>
        <time>2014-06-06T08:23:10Z</time>
      </trkpt>
      <trkpt lat="43.70844" lon="3.10494">
        <ele>684</ele>
        <time>2014-06-06T08:23:11Z</time>
      </trkpt>
      <trkpt lat="43.70852" lon="3.10492">
        <ele>683.4000244</ele>
        <time>2014-06-06T08:23:12Z</time>
      </trkpt>
      <trkpt lat="43.7086" lon="3.10489">
        <ele>682.7999878</ele>
        <time>2014-06-06T08:23:13Z</time>
      </trkpt>
      <trkpt lat="43.70867" lon="3.10483">
        <ele>682.4000244</ele>
        <time>2014-06-06T08:23:14Z</time>
      </trkpt>
      <trkpt lat="43.70872" lon="3.10476">
        <ele>682</ele>
        <time>2014-06-06T08:23:15Z</time>
      </trkpt>
      <trkpt lat="43.70875" lon="3.10466">
        <ele>681.4000244</ele>
        <time>2014-06-06T08:23:16Z</time>
      </trkpt>
      <trkpt lat="43.70877" lon="3.10457">
        <ele>681</ele>
        <time>2014-06-06T08:23:17Z</time>
      </trkpt>
      <trkpt lat="43.70877" lon="3.10447">
        <ele>680.4000244</ele>
        <time>2014-06-06T08:23:18Z</time>
      </trkpt>
      <trkpt lat="43.70876" lon="3.10437">
        <ele>680</ele>
        <time>2014-06-06T08:23:19Z</time>
      </trkpt>
      <trkpt lat="43.70876" lon="3.10427">
        <ele>679.4000244</ele>
        <time>2014-06-06T08:23:20Z</time>
      </trkpt>
      <trkpt lat="43.70877" lon="3.10416">
        <ele>679</ele>
        <time>2014-06-06T08:23:21Z</time>
      </trkpt>
      <trkpt lat="43.70878" lon="3.10405">
        <ele>678.4000244</ele>
        <time>2014-06-06T08:23:22Z</time>
      </trkpt>
      <trkpt lat="43.70879" lon="3.10395">
        <ele>677.7999878</ele>
        <time>2014-06-06T08:23:23Z</time>
      </trkpt>
      <trkpt lat="43.70881" lon="3.10384">
        <ele>677.4000244</ele>
        <time>2014-06-06T08:23:24Z</time>
      </trkpt>
      <trkpt lat="43.70883" lon="3.10373">
        <ele>677</ele>
        <time>2014-06-06T08:23:25Z</time>
      </trkpt>
      <trkpt lat="43.70886" lon="3.10364">
        <ele>676.4000244</ele>
        <time>2014-06-06T08:23:26Z</time>
      </trkpt>
      <trkpt lat="43.70889" lon="3.10354">
        <ele>676</ele>
        <time>2014-06-06T08:23:27Z</time>
      </trkpt>
      <trkpt lat="43.70893" lon="3.10344">
        <ele>675.4000244</ele>
        <time>2014-06-06T08:23:28Z</time>
      </trkpt>
      <trkpt lat="43.70899" lon="3.10335">
        <ele>674.7999878</ele>
        <time>2014-06-06T08:23:29Z</time>
      </trkpt>
      <trkpt lat="43.70904" lon="3.10326">
        <ele>674.2000122</ele>
        <time>2014-06-06T08:23:30Z</time>
      </trkpt>
      <trkpt lat="43.70909" lon="3.10317">
        <ele>673.5999756</ele>
        <time>2014-06-06T08:23:31Z</time>
      </trkpt>
      <trkpt lat="43.70914" lon="3.10307">
        <ele>673</ele>
        <time>2014-06-06T08:23:32Z</time>
      </trkpt>
      <trkpt lat="43.70917" lon="3.10296">
        <ele>672.5999756</ele>
        <time>2014-06-06T08:23:33Z</time>
      </trkpt>
      <trkpt lat="43.7092" lon="3.10285">
        <ele>672</ele>
        <time>2014-06-06T08:23:34Z</time>
      </trkpt>
      <trkpt lat="43.70921" lon="3.10273">
        <ele>670.7999878</ele>
        <time>2014-06-06T08:23:35Z</time>
      </trkpt>
      <trkpt lat="43.70921" lon="3.10262">
        <ele>670.2000122</ele>
        <time>2014-06-06T08:23:36Z</time>
      </trkpt>
      <trkpt lat="43.7092" lon="3.1025">
        <ele>669.5999756</ele>
        <time>2014-06-06T08:23:37Z</time>
      </trkpt>
      <trkpt lat="43.70919" lon="3.10239">
        <ele>669</ele>
        <time>2014-06-06T08:23:38Z</time>
      </trkpt>
      <trkpt lat="43.70917" lon="3.10227">
        <ele>668.5999756</ele>
        <time>2014-06-06T08:23:39Z</time>
      </trkpt>
      <trkpt lat="43.70913" lon="3.10216">
        <ele>668</ele>
        <time>2014-06-06T08:23:40Z</time>
      </trkpt>
      <trkpt lat="43.70908" lon="3.10206">
        <ele>667.4000244</ele>
        <time>2014-06-06T08:23:41Z</time>
      </trkpt>
      <trkpt lat="43.70903" lon="3.10197">
        <ele>666.7999878</ele>
        <time>2014-06-06T08:23:42Z</time>
      </trkpt>
      <trkpt lat="43.70897" lon="3.10189">
        <ele>666.4000244</ele>
        <time>2014-06-06T08:23:43Z</time>
      </trkpt>
      <trkpt lat="43.70892" lon="3.1018">
        <ele>665.7999878</ele>
        <time>2014-06-06T08:23:44Z</time>
      </trkpt>
      <trkpt lat="43.70887" lon="3.10171">
        <ele>665.2000122</ele>
        <time>2014-06-06T08:23:45Z</time>
      </trkpt>
      <trkpt lat="43.70882" lon="3.10161">
        <ele>664.5999756</ele>
        <time>2014-06-06T08:23:46Z</time>
      </trkpt>
      <trkpt lat="43.70878" lon="3.1015">
        <ele>664</ele>
        <time>2014-06-06T08:23:47Z</time>
      </trkpt>
      <trkpt lat="43.70874" lon="3.1014">
        <ele>663.4000244</ele>
        <time>2014-06-06T08:23:48Z</time>
      </trkpt>
      <trkpt lat="43.70869" lon="3.10129">
        <ele>662.7999878</ele>
        <time>2014-06-06T08:23:49Z</time>
      </trkpt>
      <trkpt lat="43.70865" lon="3.10117">
        <ele>662.2000122</ele>
        <time>2014-06-06T08:23:50Z</time>
      </trkpt>
      <trkpt lat="43.7086" lon="3.10106">
        <ele>661.5999756</ele>
        <time>2014-06-06T08:23:51Z</time>
      </trkpt>
      <trkpt lat="43.70856" lon="3.10096">
        <ele>661</ele>
        <time>2014-06-06T08:23:52Z</time>
      </trkpt>
      <trkpt lat="43.70853" lon="3.10086">
        <ele>660.4000244</ele>
        <time>2014-06-06T08:23:53Z</time>
      </trkpt>
      <trkpt lat="43.70849" lon="3.10076">
        <ele>659.7999878</ele>
        <time>2014-06-06T08:23:54Z</time>
      </trkpt>
      <trkpt lat="43.70847" lon="3.10067">
        <ele>659.2000122</ele>
        <time>2014-06-06T08:23:55Z</time>
      </trkpt>
      <trkpt lat="43.70845" lon="3.10058">
        <ele>659.2000122</ele>
        <time>2014-06-06T08:23:56Z</time>
      </trkpt>
      <trkpt lat="43.7084" lon="3.1004">
        <ele>659.2000122</ele>
        <time>2014-06-06T08:23:59Z</time>
      </trkpt>
      <trkpt lat="43.70838" lon="3.10035">
        <ele>659.2000122</ele>
        <time>2014-06-06T08:24:00Z</time>
      </trkpt>
      <trkpt lat="43.70835" lon="3.10021">
        <ele>659.2000122</ele>
        <time>2014-06-06T08:24:04Z</time>
      </trkpt>
      <trkpt lat="43.70834" lon="3.10019">
        <ele>659.2000122</ele>
        <time>2014-06-06T08:24:05Z</time>
      </trkpt>
      <trkpt lat="43.7083" lon="3.10005">
        <ele>659.5999756</ele>
        <time>2014-06-06T08:24:10Z</time>
      </trkpt>
      <trkpt lat="43.7083" lon="3.10002">
        <ele>660</ele>
        <time>2014-06-06T08:24:11Z</time>
      </trkpt>
      <trkpt lat="43.70829" lon="3.1">
        <ele>660.4000244</ele>
        <time>2014-06-06T08:24:12Z</time>
      </trkpt>
      <trkpt lat="43.70828" lon="3.09996">
        <ele>660.7999878</ele>
        <time>2014-06-06T08:24:13Z</time>
      </trkpt>
      <trkpt lat="43.70827" lon="3.09992">
        <ele>661.2000122</ele>
        <time>2014-06-06T08:24:14Z</time>
      </trkpt>
      <trkpt lat="43.70825" lon="3.09986">
        <ele>661.2000122</ele>
        <time>2014-06-06T08:24:16Z</time>
      </trkpt>
      <trkpt lat="43.70825" lon="3.09979">
        <ele>661.2000122</ele>
        <time>2014-06-06T08:24:18Z</time>
      </trkpt>
      <trkpt lat="43.70828" lon="3.0997">
        <ele>661.2000122</ele>
        <time>2014-06-06T08:24:21Z</time>
      </trkpt>
      <trkpt lat="43.70835" lon="3.09959">
        <ele>661.2000122</ele>
        <time>2014-06-06T08:24:25Z</time>
      </trkpt>
      <trkpt lat="43.70837" lon="3.09956">
        <ele>661.5999756</ele>
        <time>2014-06-06T08:24:26Z</time>
      </trkpt>
      <trkpt lat="43.70839" lon="3.09954">
        <ele>662</ele>
        <time>2014-06-06T08:24:27Z</time>
      </trkpt>
      <trkpt lat="43.70841" lon="3.09952">
        <ele>662.5999756</ele>
        <time>2014-06-06T08:24:28Z</time>
      </trkpt>
      <trkpt lat="43.70844" lon="3.09949">
        <ele>663</ele>
        <time>2014-06-06T08:24:29Z</time>
      </trkpt>
      <trkpt lat="43.70846" lon="3.09947">
        <ele>663.4000244</ele>
        <time>2014-06-06T08:24:30Z</time>
      </trkpt>
      <trkpt lat="43.70852" lon="3.0994">
        <ele>663.4000244</ele>
        <time>2014-06-06T08:24:33Z</time>
      </trkpt>
      <trkpt lat="43.70866" lon="3.09925">
        <ele>663.4000244</ele>
        <time>2014-06-06T08:24:40Z</time>
      </trkpt>
      <trkpt lat="43.70872" lon="3.09919">
        <ele>663.7999878</ele>
        <time>2014-06-06T08:24:43Z</time>
      </trkpt>
      <trkpt lat="43.70874" lon="3.09917">
        <ele>664.2000122</ele>
        <time>2014-06-06T08:24:44Z</time>
      </trkpt>
      <trkpt lat="43.70876" lon="3.09915">
        <ele>664.5999756</ele>
        <time>2014-06-06T08:24:45Z</time>
      </trkpt>
      <trkpt lat="43.70877" lon="3.09913">
        <ele>665</ele>
        <time>2014-06-06T08:24:46Z</time>
      </trkpt>
      <trkpt lat="43.70879" lon="3.09911">
        <ele>665.4000244</ele>
        <time>2014-06-06T08:24:47Z</time>
      </trkpt>
      <trkpt lat="43.70888" lon="3.09901">
        <ele>665.4000244</ele>
        <time>2014-06-06T08:24:52Z</time>
      </trkpt>
      <trkpt lat="43.70898" lon="3.09884">
        <ele>665.7999878</ele>
        <time>2014-06-06T08:24:58Z</time>
      </trkpt>
      <trkpt lat="43.709" lon="3.09882">
        <ele>666.2000122</ele>
        <time>2014-06-06T08:24:59Z</time>
      </trkpt>
      <trkpt lat="43.70901" lon="3.0988">
        <ele>666.5999756</ele>
        <time>2014-06-06T08:25:00Z</time>
      </trkpt>
      <trkpt lat="43.70903" lon="3.09877">
        <ele>667</ele>
        <time>2014-06-06T08:25:01Z</time>
      </trkpt>
      <trkpt lat="43.70905" lon="3.09875">
        <ele>667.5999756</ele>
        <time>2014-06-06T08:25:02Z</time>
      </trkpt>
      <trkpt lat="43.7091" lon="3.09861">
        <ele>667.5999756</ele>
        <time>2014-06-06T08:25:06Z</time>
      </trkpt>
      <trkpt lat="43.70918" lon="3.09836">
        <ele>668</ele>
        <time>2014-06-06T08:25:14Z</time>
      </trkpt>
      <trkpt lat="43.70919" lon="3.09833">
        <ele>668.4000244</ele>
        <time>2014-06-06T08:25:15Z</time>
      </trkpt>
      <trkpt lat="43.7092" lon="3.0983">
        <ele>668.7999878</ele>
        <time>2014-06-06T08:25:16Z</time>
      </trkpt>
      <trkpt lat="43.70922" lon="3.09827">
        <ele>669.2000122</ele>
        <time>2014-06-06T08:25:17Z</time>
      </trkpt>
      <trkpt lat="43.70923" lon="3.09824">
        <ele>669.5999756</ele>
        <time>2014-06-06T08:25:18Z</time>
      </trkpt>
      <trkpt lat="43.70928" lon="3.09815">
        <ele>669.5999756</ele>
        <time>2014-06-06T08:25:21Z</time>
      </trkpt>
      <trkpt lat="43.70932" lon="3.09801">
        <ele>669.5999756</ele>
        <time>2014-06-06T08:25:26Z</time>
      </trkpt>
      <trkpt lat="43.70936" lon="3.09785">
        <ele>669.5999756</ele>
        <time>2014-06-06T08:25:31Z</time>
      </trkpt>
      <trkpt lat="43.70937" lon="3.09782">
        <ele>670</ele>
        <time>2014-06-06T08:25:32Z</time>
      </trkpt>
      <trkpt lat="43.70938" lon="3.09778">
        <ele>670.4000244</ele>
        <time>2014-06-06T08:25:33Z</time>
      </trkpt>
      <trkpt lat="43.70939" lon="3.09776">
        <ele>670.7999878</ele>
        <time>2014-06-06T08:25:34Z</time>
      </trkpt>
      <trkpt lat="43.7094" lon="3.09771">
        <ele>671.2000122</ele>
        <time>2014-06-06T08:25:35Z</time>
      </trkpt>
      <trkpt lat="43.70941" lon="3.09768">
        <ele>671.5999756</ele>
        <time>2014-06-06T08:25:36Z</time>
      </trkpt>
      <trkpt lat="43.70944" lon="3.0976">
        <ele>671.5999756</ele>
        <time>2014-06-06T08:25:38Z</time>
      </trkpt>
      <trkpt lat="43.70955" lon="3.09735">
        <ele>671.5999756</ele>
        <time>2014-06-06T08:25:46Z</time>
      </trkpt>
      <trkpt lat="43.70963" lon="3.09717">
        <ele>671.5999756</ele>
        <time>2014-06-06T08:25:52Z</time>
      </trkpt>
      <trkpt lat="43.70965" lon="3.09711">
        <ele>672</ele>
        <time>2014-06-06T08:25:54Z</time>
      </trkpt>
      <trkpt lat="43.70966" lon="3.09708">
        <ele>672.4000244</ele>
        <time>2014-06-06T08:25:55Z</time>
      </trkpt>
      <trkpt lat="43.70967" lon="3.09705">
        <ele>673</ele>
        <time>2014-06-06T08:25:56Z</time>
      </trkpt>
      <trkpt lat="43.70968" lon="3.09702">
        <ele>673.4000244</ele>
        <time>2014-06-06T08:25:57Z</time>
      </trkpt>
      <trkpt lat="43.70968" lon="3.097">
        <ele>673.7999878</ele>
        <time>2014-06-06T08:25:58Z</time>
      </trkpt>
      <trkpt lat="43.7097" lon="3.09694">
        <ele>673.7999878</ele>
        <time>2014-06-06T08:26:00Z</time>
      </trkpt>
      <trkpt lat="43.70973" lon="3.09687">
        <ele>673.7999878</ele>
        <time>2014-06-06T08:26:03Z</time>
      </trkpt>
      <trkpt lat="43.70976" lon="3.0968">
        <ele>673.7999878</ele>
        <time>2014-06-06T08:26:06Z</time>
      </trkpt>
      <trkpt lat="43.70981" lon="3.09672">
        <ele>674.2000122</ele>
        <time>2014-06-06T08:26:09Z</time>
      </trkpt>
      <trkpt lat="43.70983" lon="3.0967">
        <ele>674.5999756</ele>
        <time>2014-06-06T08:26:10Z</time>
      </trkpt>
      <trkpt lat="43.70985" lon="3.09669">
        <ele>675</ele>
        <time>2014-06-06T08:26:11Z</time>
      </trkpt>
      <trkpt lat="43.70986" lon="3.09667">
        <ele>675.4000244</ele>
        <time>2014-06-06T08:26:12Z</time>
      </trkpt>
      <trkpt lat="43.70988" lon="3.09665">
        <ele>675.7999878</ele>
        <time>2014-06-06T08:26:13Z</time>
      </trkpt>
      <trkpt lat="43.70998" lon="3.09653">
        <ele>676.2000122</ele>
        <time>2014-06-06T08:26:19Z</time>
      </trkpt>
      <trkpt lat="43.71" lon="3.09651">
        <ele>676.5999756</ele>
        <time>2014-06-06T08:26:20Z</time>
      </trkpt>
      <trkpt lat="43.71002" lon="3.0965">
        <ele>677</ele>
        <time>2014-06-06T08:26:21Z</time>
      </trkpt>
      <trkpt lat="43.71003" lon="3.09648">
        <ele>677.4000244</ele>
        <time>2014-06-06T08:26:22Z</time>
      </trkpt>
      <trkpt lat="43.71004" lon="3.09646">
        <ele>677.7999878</ele>
        <time>2014-06-06T08:26:23Z</time>
      </trkpt>
      <trkpt lat="43.71005" lon="3.09643">
        <ele>677.7999878</ele>
        <time>2014-06-06T08:26:24Z</time>
      </trkpt>
      <trkpt lat="43.7101" lon="3.09631">
        <ele>677.7999878</ele>
        <time>2014-06-06T08:26:29Z</time>
      </trkpt>
      <trkpt lat="43.71012" lon="3.09616">
        <ele>678.2000122</ele>
        <time>2014-06-06T08:26:34Z</time>
      </trkpt>
      <trkpt lat="43.71012" lon="3.09612">
        <ele>678.5999756</ele>
        <time>2014-06-06T08:26:35Z</time>
      </trkpt>
      <trkpt lat="43.71011" lon="3.09608">
        <ele>679</ele>
        <time>2014-06-06T08:26:36Z</time>
      </trkpt>
      <trkpt lat="43.7101" lon="3.09604">
        <ele>679.4000244</ele>
        <time>2014-06-06T08:26:37Z</time>
      </trkpt>
      <trkpt lat="43.71008" lon="3.096">
        <ele>679.7999878</ele>
        <time>2014-06-06T08:26:38Z</time>
      </trkpt>
      <trkpt lat="43.71004" lon="3.09593">
        <ele>679.7999878</ele>
        <time>2014-06-06T08:26:40Z</time>
      </trkpt>
      <trkpt lat="43.70991" lon="3.09571">
        <ele>679.7999878</ele>
        <time>2014-06-06T08:26:45Z</time>
      </trkpt>
      <trkpt lat="43.70972" lon="3.09558">
        <ele>679.7999878</ele>
        <time>2014-06-06T08:26:51Z</time>
      </trkpt>
      <trkpt lat="43.7096" lon="3.09543">
        <ele>679.7999878</ele>
        <time>2014-06-06T08:26:56Z</time>
      </trkpt>
      <trkpt lat="43.7095" lon="3.09525">
        <ele>679.7999878</ele>
        <time>2014-06-06T08:27:01Z</time>
      </trkpt>
      <trkpt lat="43.70943" lon="3.09512">
        <ele>680.5999756</ele>
        <time>2014-06-06T08:27:05Z</time>
      </trkpt>
      <trkpt lat="43.70941" lon="3.09509">
        <ele>681</ele>
        <time>2014-06-06T08:27:06Z</time>
      </trkpt>
      <trkpt lat="43.70939" lon="3.09506">
        <ele>681.5999756</ele>
        <time>2014-06-06T08:27:07Z</time>
      </trkpt>
      <trkpt lat="43.70936" lon="3.09503">
        <ele>682</ele>
        <time>2014-06-06T08:27:08Z</time>
      </trkpt>
      <trkpt lat="43.70919" lon="3.09483">
        <ele>682</ele>
        <time>2014-06-06T08:27:15Z</time>
      </trkpt>
      <trkpt lat="43.70902" lon="3.09469">
        <ele>682.4000244</ele>
        <time>2014-06-06T08:27:22Z</time>
      </trkpt>
      <trkpt lat="43.709" lon="3.09469">
        <ele>682.7999878</ele>
        <time>2014-06-06T08:27:23Z</time>
      </trkpt>
      <trkpt lat="43.70898" lon="3.09468">
        <ele>683.2000122</ele>
        <time>2014-06-06T08:27:24Z</time>
      </trkpt>
      <trkpt lat="43.70896" lon="3.09467">
        <ele>683.5999756</ele>
        <time>2014-06-06T08:27:25Z</time>
      </trkpt>
      <trkpt lat="43.70893" lon="3.09466">
        <ele>684</ele>
        <time>2014-06-06T08:27:26Z</time>
      </trkpt>
      <trkpt lat="43.70885" lon="3.09465">
        <ele>684</ele>
        <time>2014-06-06T08:27:29Z</time>
      </trkpt>
      <trkpt lat="43.70868" lon="3.09458">
        <ele>684.4000244</ele>
        <time>2014-06-06T08:27:36Z</time>
      </trkpt>
      <trkpt lat="43.70866" lon="3.09456">
        <ele>684.7999878</ele>
        <time>2014-06-06T08:27:37Z</time>
      </trkpt>
      <trkpt lat="43.70864" lon="3.09454">
        <ele>685.4000244</ele>
        <time>2014-06-06T08:27:38Z</time>
      </trkpt>
      <trkpt lat="43.70862" lon="3.09452">
        <ele>685.7999878</ele>
        <time>2014-06-06T08:27:39Z</time>
      </trkpt>
      <trkpt lat="43.7086" lon="3.0945">
        <ele>686.2000122</ele>
        <time>2014-06-06T08:27:40Z</time>
      </trkpt>
      <trkpt lat="43.70854" lon="3.09444">
        <ele>686.2000122</ele>
        <time>2014-06-06T08:27:43Z</time>
      </trkpt>
      <trkpt lat="43.70838" lon="3.09429">
        <ele>686.2000122</ele>
        <time>2014-06-06T08:27:51Z</time>
      </trkpt>
      <trkpt lat="43.70836" lon="3.09427">
        <ele>686.5999756</ele>
        <time>2014-06-06T08:27:52Z</time>
      </trkpt>
      <trkpt lat="43.70835" lon="3.09425">
        <ele>687</ele>
        <time>2014-06-06T08:27:53Z</time>
      </trkpt>
      <trkpt lat="43.70833" lon="3.09424">
        <ele>687.4000244</ele>
        <time>2014-06-06T08:27:54Z</time>
      </trkpt>
      <trkpt lat="43.70831" lon="3.09424">
        <ele>688.2000122</ele>
        <time>2014-06-06T08:27:55Z</time>
      </trkpt>
      <trkpt lat="43.70824" lon="3.09422">
        <ele>688.2000122</ele>
        <time>2014-06-06T08:27:58Z</time>
      </trkpt>
      <trkpt lat="43.70812" lon="3.09417">
        <ele>688.5999756</ele>
        <time>2014-06-06T08:28:04Z</time>
      </trkpt>
      <trkpt lat="43.7081" lon="3.09416">
        <ele>689</ele>
        <time>2014-06-06T08:28:05Z</time>
      </trkpt>
      <trkpt lat="43.70808" lon="3.09414">
        <ele>689.4000244</ele>
        <time>2014-06-06T08:28:06Z</time>
      </trkpt>
      <trkpt lat="43.70806" lon="3.09412">
        <ele>689.7999878</ele>
        <time>2014-06-06T08:28:07Z</time>
      </trkpt>
      <trkpt lat="43.70805" lon="3.0941">
        <ele>690.2000122</ele>
        <time>2014-06-06T08:28:08Z</time>
      </trkpt>
      <trkpt lat="43.70803" lon="3.09405">
        <ele>690.2000122</ele>
        <time>2014-06-06T08:28:10Z</time>
      </trkpt>
      <trkpt lat="43.70803" lon="3.09403">
        <ele>690.2000122</ele>
        <time>2014-06-06T08:28:11Z</time>
      </trkpt>
      <trkpt lat="43.70804" lon="3.09391">
        <ele>690.2000122</ele>
        <time>2014-06-06T08:28:15Z</time>
      </trkpt>
      <trkpt lat="43.70808" lon="3.09383">
        <ele>690.7999878</ele>
        <time>2014-06-06T08:28:18Z</time>
      </trkpt>
      <trkpt lat="43.7081" lon="3.09381">
        <ele>691.5999756</ele>
        <time>2014-06-06T08:28:19Z</time>
      </trkpt>
      <trkpt lat="43.70812" lon="3.09379">
        <ele>692</ele>
        <time>2014-06-06T08:28:20Z</time>
      </trkpt>
      <trkpt lat="43.70814" lon="3.09378">
        <ele>692.4000244</ele>
        <time>2014-06-06T08:28:21Z</time>
      </trkpt>
      <trkpt lat="43.70815" lon="3.09376">
        <ele>692.4000244</ele>
        <time>2014-06-06T08:28:22Z</time>
      </trkpt>
      <trkpt lat="43.70826" lon="3.09368">
        <ele>692.4000244</ele>
        <time>2014-06-06T08:28:27Z</time>
      </trkpt>
      <trkpt lat="43.70834" lon="3.09362">
        <ele>692.7999878</ele>
        <time>2014-06-06T08:28:32Z</time>
      </trkpt>
      <trkpt lat="43.70835" lon="3.0936">
        <ele>693.2000122</ele>
        <time>2014-06-06T08:28:33Z</time>
      </trkpt>
      <trkpt lat="43.70837" lon="3.09357">
        <ele>693.5999756</ele>
        <time>2014-06-06T08:28:34Z</time>
      </trkpt>
      <trkpt lat="43.70838" lon="3.09355">
        <ele>694</ele>
        <time>2014-06-06T08:28:35Z</time>
      </trkpt>
      <trkpt lat="43.70839" lon="3.09354">
        <ele>694.4000244</ele>
        <time>2014-06-06T08:28:36Z</time>
      </trkpt>
      <trkpt lat="43.70843" lon="3.09349">
        <ele>694.4000244</ele>
        <time>2014-06-06T08:28:39Z</time>
      </trkpt>
      <trkpt lat="43.70852" lon="3.0934">
        <ele>695</ele>
        <time>2014-06-06T08:28:45Z</time>
      </trkpt>
      <trkpt lat="43.70854" lon="3.09338">
        <ele>695.4000244</ele>
        <time>2014-06-06T08:28:46Z</time>
      </trkpt>
      <trkpt lat="43.70855" lon="3.09337">
        <ele>695.7999878</ele>
        <time>2014-06-06T08:28:47Z</time>
      </trkpt>
      <trkpt lat="43.70857" lon="3.09336">
        <ele>696.2000122</ele>
        <time>2014-06-06T08:28:48Z</time>
      </trkpt>
      <trkpt lat="43.70859" lon="3.09335">
        <ele>696.5999756</ele>
        <time>2014-06-06T08:28:49Z</time>
      </trkpt>
      <trkpt lat="43.70868" lon="3.0933">
        <ele>696.5999756</ele>
        <time>2014-06-06T08:28:54Z</time>
      </trkpt>
      <trkpt lat="43.70877" lon="3.09325">
        <ele>697</ele>
        <time>2014-06-06T08:28:59Z</time>
      </trkpt>
      <trkpt lat="43.70879" lon="3.09325">
        <ele>697.4000244</ele>
        <time>2014-06-06T08:29:00Z</time>
      </trkpt>
      <trkpt lat="43.70881" lon="3.09324">
        <ele>697.7999878</ele>
        <time>2014-06-06T08:29:01Z</time>
      </trkpt>
      <trkpt lat="43.70882" lon="3.09323">
        <ele>698.2000122</ele>
        <time>2014-06-06T08:29:02Z</time>
      </trkpt>
      <trkpt lat="43.70884" lon="3.09323">
        <ele>698.5999756</ele>
        <time>2014-06-06T08:29:03Z</time>
      </trkpt>
      <trkpt lat="43.70892" lon="3.09323">
        <ele>698.5999756</ele>
        <time>2014-06-06T08:29:08Z</time>
      </trkpt>
      <trkpt lat="43.70899" lon="3.09325">
        <ele>699.2000122</ele>
        <time>2014-06-06T08:29:12Z</time>
      </trkpt>
      <trkpt lat="43.70901" lon="3.09325">
        <ele>699.5999756</ele>
        <time>2014-06-06T08:29:13Z</time>
      </trkpt>
      <trkpt lat="43.70902" lon="3.09325">
        <ele>700</ele>
        <time>2014-06-06T08:29:14Z</time>
      </trkpt>
      <trkpt lat="43.70904" lon="3.09325">
        <ele>700.4000244</ele>
        <time>2014-06-06T08:29:15Z</time>
      </trkpt>
      <trkpt lat="43.70906" lon="3.09326">
        <ele>700.7999878</ele>
        <time>2014-06-06T08:29:16Z</time>
      </trkpt>
      <trkpt lat="43.70912" lon="3.09327">
        <ele>700.7999878</ele>
        <time>2014-06-06T08:29:20Z</time>
      </trkpt>
      <trkpt lat="43.70923" lon="3.09328">
        <ele>701.4000244</ele>
        <time>2014-06-06T08:29:26Z</time>
      </trkpt>
      <trkpt lat="43.70925" lon="3.09328">
        <ele>701.7999878</ele>
        <time>2014-06-06T08:29:27Z</time>
      </trkpt>
      <trkpt lat="43.70927" lon="3.09328">
        <ele>702.2000122</ele>
        <time>2014-06-06T08:29:28Z</time>
      </trkpt>
      <trkpt lat="43.70929" lon="3.09328">
        <ele>702.5999756</ele>
        <time>2014-06-06T08:29:29Z</time>
      </trkpt>
      <trkpt lat="43.70931" lon="3.09327">
        <ele>703</ele>
        <time>2014-06-06T08:29:30Z</time>
      </trkpt>
      <trkpt lat="43.70939" lon="3.09324">
        <ele>703</ele>
        <time>2014-06-06T08:29:34Z</time>
      </trkpt>
      <trkpt lat="43.70951" lon="3.09317">
        <ele>703</ele>
        <time>2014-06-06T08:29:40Z</time>
      </trkpt>
      <trkpt lat="43.70953" lon="3.09316">
        <ele>703.4000244</ele>
        <time>2014-06-06T08:29:41Z</time>
      </trkpt>
      <trkpt lat="43.70954" lon="3.09314">
        <ele>703.7999878</ele>
        <time>2014-06-06T08:29:42Z</time>
      </trkpt>
      <trkpt lat="43.70956" lon="3.09313">
        <ele>704.2000122</ele>
        <time>2014-06-06T08:29:43Z</time>
      </trkpt>
      <trkpt lat="43.70958" lon="3.09312">
        <ele>704.5999756</ele>
        <time>2014-06-06T08:29:44Z</time>
      </trkpt>
      <trkpt lat="43.70959" lon="3.0931">
        <ele>705</ele>
        <time>2014-06-06T08:29:45Z</time>
      </trkpt>
      <trkpt lat="43.70963" lon="3.09307">
        <ele>705</ele>
        <time>2014-06-06T08:29:47Z</time>
      </trkpt>
      <trkpt lat="43.70972" lon="3.093">
        <ele>705</ele>
        <time>2014-06-06T08:29:53Z</time>
      </trkpt>
      <trkpt lat="43.70979" lon="3.09297">
        <ele>706</ele>
        <time>2014-06-06T08:29:57Z</time>
      </trkpt>
      <trkpt lat="43.70981" lon="3.09296">
        <ele>706.4000244</ele>
        <time>2014-06-06T08:29:58Z</time>
      </trkpt>
      <trkpt lat="43.70983" lon="3.09295">
        <ele>706.7999878</ele>
        <time>2014-06-06T08:29:59Z</time>
      </trkpt>
      <trkpt lat="43.70985" lon="3.09293">
        <ele>707.2000122</ele>
        <time>2014-06-06T08:30:00Z</time>
      </trkpt>
      <trkpt lat="43.70994" lon="3.09289">
        <ele>707.2000122</ele>
        <time>2014-06-06T08:30:05Z</time>
      </trkpt>
      <trkpt lat="43.71005" lon="3.09282">
        <ele>707.5999756</ele>
        <time>2014-06-06T08:30:11Z</time>
      </trkpt>
      <trkpt lat="43.71007" lon="3.0928">
        <ele>708</ele>
        <time>2014-06-06T08:30:12Z</time>
      </trkpt>
      <trkpt lat="43.71009" lon="3.09279">
        <ele>708.4000244</ele>
        <time>2014-06-06T08:30:13Z</time>
      </trkpt>
      <trkpt lat="43.7101" lon="3.09278">
        <ele>708.7999878</ele>
        <time>2014-06-06T08:30:14Z</time>
      </trkpt>
      <trkpt lat="43.71012" lon="3.09276">
        <ele>709.2000122</ele>
        <time>2014-06-06T08:30:15Z</time>
      </trkpt>
      <trkpt lat="43.71018" lon="3.0927">
        <ele>709.2000122</ele>
        <time>2014-06-06T08:30:19Z</time>
      </trkpt>
      <trkpt lat="43.71025" lon="3.09261">
        <ele>709.2000122</ele>
        <time>2014-06-06T08:30:24Z</time>
      </trkpt>
      <trkpt lat="43.71029" lon="3.09256">
        <ele>709.5999756</ele>
        <time>2014-06-06T08:30:27Z</time>
      </trkpt>
      <trkpt lat="43.71031" lon="3.09254">
        <ele>710</ele>
        <time>2014-06-06T08:30:28Z</time>
      </trkpt>
      <trkpt lat="43.71032" lon="3.09252">
        <ele>710.4000244</ele>
        <time>2014-06-06T08:30:29Z</time>
      </trkpt>
      <trkpt lat="43.71034" lon="3.09251">
        <ele>711</ele>
        <time>2014-06-06T08:30:30Z</time>
      </trkpt>
      <trkpt lat="43.71036" lon="3.0925">
        <ele>711.4000244</ele>
        <time>2014-06-06T08:30:31Z</time>
      </trkpt>
      <trkpt lat="43.71047" lon="3.09237">
        <ele>711.4000244</ele>
        <time>2014-06-06T08:30:38Z</time>
      </trkpt>
      <trkpt lat="43.7105" lon="3.09233">
        <ele>711.7999878</ele>
        <time>2014-06-06T08:30:40Z</time>
      </trkpt>
      <trkpt lat="43.71052" lon="3.09232">
        <ele>712.2000122</ele>
        <time>2014-06-06T08:30:41Z</time>
      </trkpt>
      <trkpt lat="43.71053" lon="3.0923">
        <ele>712.5999756</ele>
        <time>2014-06-06T08:30:42Z</time>
      </trkpt>
      <trkpt lat="43.71055" lon="3.09228">
        <ele>713</ele>
        <time>2014-06-06T08:30:43Z</time>
      </trkpt>
      <trkpt lat="43.71057" lon="3.09226">
        <ele>713.4000244</ele>
        <time>2014-06-06T08:30:44Z</time>
      </trkpt>
      <trkpt lat="43.71061" lon="3.09222">
        <ele>713.4000244</ele>
        <time>2014-06-06T08:30:46Z</time>
      </trkpt>
      <trkpt lat="43.71071" lon="3.09212">
        <ele>713.4000244</ele>
        <time>2014-06-06T08:30:52Z</time>
      </trkpt>
      <trkpt lat="43.71073" lon="3.0921">
        <ele>713.7999878</ele>
        <time>2014-06-06T08:30:53Z</time>
      </trkpt>
      <trkpt lat="43.71075" lon="3.09208">
        <ele>714.4000244</ele>
        <time>2014-06-06T08:30:54Z</time>
      </trkpt>
      <trkpt lat="43.71077" lon="3.09207">
        <ele>714.7999878</ele>
        <time>2014-06-06T08:30:55Z</time>
      </trkpt>
      <trkpt lat="43.71079" lon="3.09205">
        <ele>715.2000122</ele>
        <time>2014-06-06T08:30:56Z</time>
      </trkpt>
      <trkpt lat="43.71081" lon="3.09204">
        <ele>715.5999756</ele>
        <time>2014-06-06T08:30:57Z</time>
      </trkpt>
      <trkpt lat="43.71086" lon="3.09201">
        <ele>715.5999756</ele>
        <time>2014-06-06T08:31:00Z</time>
      </trkpt>
      <trkpt lat="43.711" lon="3.09193">
        <ele>715.5999756</ele>
        <time>2014-06-06T08:31:07Z</time>
      </trkpt>
      <trkpt lat="43.71103" lon="3.09189">
        <ele>716</ele>
        <time>2014-06-06T08:31:09Z</time>
      </trkpt>
      <trkpt lat="43.71105" lon="3.09188">
        <ele>716.4000244</ele>
        <time>2014-06-06T08:31:10Z</time>
      </trkpt>
      <trkpt lat="43.71106" lon="3.09187">
        <ele>717.2000122</ele>
        <time>2014-06-06T08:31:11Z</time>
      </trkpt>
      <trkpt lat="43.71108" lon="3.09185">
        <ele>717.5999756</ele>
        <time>2014-06-06T08:31:12Z</time>
      </trkpt>
      <trkpt lat="43.71111" lon="3.09182">
        <ele>717.5999756</ele>
        <time>2014-06-06T08:31:14Z</time>
      </trkpt>
      <trkpt lat="43.71119" lon="3.09175">
        <ele>718</ele>
        <time>2014-06-06T08:31:19Z</time>
      </trkpt>
      <trkpt lat="43.71121" lon="3.09173">
        <ele>718.4000244</ele>
        <time>2014-06-06T08:31:20Z</time>
      </trkpt>
      <trkpt lat="43.71122" lon="3.09172">
        <ele>718.7999878</ele>
        <time>2014-06-06T08:31:21Z</time>
      </trkpt>
      <trkpt lat="43.71123" lon="3.0917">
        <ele>719.2000122</ele>
        <time>2014-06-06T08:31:22Z</time>
      </trkpt>
      <trkpt lat="43.71125" lon="3.09168">
        <ele>719.5999756</ele>
        <time>2014-06-06T08:31:23Z</time>
      </trkpt>
      <trkpt lat="43.71131" lon="3.09163">
        <ele>719.5999756</ele>
        <time>2014-06-06T08:31:27Z</time>
      </trkpt>
      <trkpt lat="43.71142" lon="3.09152">
        <ele>720</ele>
        <time>2014-06-06T08:31:34Z</time>
      </trkpt>
      <trkpt lat="43.71143" lon="3.09151">
        <ele>720.4000244</ele>
        <time>2014-06-06T08:31:35Z</time>
      </trkpt>
      <trkpt lat="43.71144" lon="3.0915">
        <ele>721.2000122</ele>
        <time>2014-06-06T08:31:36Z</time>
      </trkpt>
      <trkpt lat="43.71145" lon="3.09148">
        <ele>721.5999756</ele>
        <time>2014-06-06T08:31:37Z</time>
      </trkpt>
      <trkpt lat="43.71148" lon="3.09142">
        <ele>721.5999756</ele>
        <time>2014-06-06T08:31:41Z</time>
      </trkpt>
      <trkpt lat="43.71148" lon="3.09141">
        <ele>721.5999756</ele>
        <time>2014-06-06T08:31:43Z</time>
      </trkpt>
      <trkpt lat="43.71148" lon="3.09141">
        <ele>721.5999756</ele>
        <time>2014-06-06T08:31:46Z</time>
      </trkpt>
      <trkpt lat="43.71148" lon="3.09141">
        <ele>721.5999756</ele>
        <time>2014-06-06T08:31:47Z</time>
      </trkpt>
      <trkpt lat="43.71153" lon="3.09136">
        <ele>721.5999756</ele>
        <time>2014-06-06T08:32:54Z</time>
      </trkpt>
      <trkpt lat="43.71154" lon="3.09134">
        <ele>721.5999756</ele>
        <time>2014-06-06T08:32:55Z</time>
      </trkpt>
      <trkpt lat="43.71157" lon="3.09132">
        <ele>721.5999756</ele>
        <time>2014-06-06T08:32:57Z</time>
      </trkpt>
      <trkpt lat="43.7116" lon="3.09128">
        <ele>721.5999756</ele>
        <time>2014-06-06T08:33:00Z</time>
      </trkpt>
      <trkpt lat="43.71161" lon="3.09126">
        <ele>722</ele>
        <time>2014-06-06T08:33:01Z</time>
      </trkpt>
      <trkpt lat="43.71162" lon="3.09125">
        <ele>722.5999756</ele>
        <time>2014-06-06T08:33:02Z</time>
      </trkpt>
      <trkpt lat="43.71163" lon="3.09123">
        <ele>723</ele>
        <time>2014-06-06T08:33:03Z</time>
      </trkpt>
      <trkpt lat="43.71164" lon="3.09122">
        <ele>723.4000244</ele>
        <time>2014-06-06T08:33:04Z</time>
      </trkpt>
      <trkpt lat="43.71165" lon="3.0912">
        <ele>723.7999878</ele>
        <time>2014-06-06T08:33:05Z</time>
      </trkpt>
      <trkpt lat="43.71169" lon="3.09111">
        <ele>723.7999878</ele>
        <time>2014-06-06T08:33:11Z</time>
      </trkpt>
      <trkpt lat="43.71171" lon="3.09108">
        <ele>724.2000122</ele>
        <time>2014-06-06T08:33:13Z</time>
      </trkpt>
      <trkpt lat="43.71171" lon="3.09106">
        <ele>724.5999756</ele>
        <time>2014-06-06T08:33:14Z</time>
      </trkpt>
      <trkpt lat="43.71172" lon="3.09104">
        <ele>725</ele>
        <time>2014-06-06T08:33:15Z</time>
      </trkpt>
      <trkpt lat="43.71173" lon="3.09103">
        <ele>725.7999878</ele>
        <time>2014-06-06T08:33:16Z</time>
      </trkpt>
      <trkpt lat="43.71174" lon="3.091">
        <ele>725.7999878</ele>
        <time>2014-06-06T08:33:18Z</time>
      </trkpt>
      <trkpt lat="43.71175" lon="3.09097">
        <ele>725.7999878</ele>
        <time>2014-06-06T08:33:20Z</time>
      </trkpt>
      <trkpt lat="43.71176" lon="3.09094">
        <ele>725.7999878</ele>
        <time>2014-06-06T08:33:22Z</time>
      </trkpt>
      <trkpt lat="43.71177" lon="3.0909">
        <ele>726.2000122</ele>
        <time>2014-06-06T08:33:25Z</time>
      </trkpt>
      <trkpt lat="43.71178" lon="3.09088">
        <ele>726.5999756</ele>
        <time>2014-06-06T08:33:26Z</time>
      </trkpt>
      <trkpt lat="43.71178" lon="3.09086">
        <ele>727</ele>
        <time>2014-06-06T08:33:27Z</time>
      </trkpt>
      <trkpt lat="43.71179" lon="3.09084">
        <ele>727.4000244</ele>
        <time>2014-06-06T08:33:28Z</time>
      </trkpt>
      <trkpt lat="43.71179" lon="3.09083">
        <ele>727.7999878</ele>
        <time>2014-06-06T08:33:29Z</time>
      </trkpt>
      <trkpt lat="43.71181" lon="3.09075">
        <ele>727.7999878</ele>
        <time>2014-06-06T08:33:33Z</time>
      </trkpt>
      <trkpt lat="43.71182" lon="3.09072">
        <ele>727.7999878</ele>
        <time>2014-06-06T08:33:35Z</time>
      </trkpt>
      <trkpt lat="43.71183" lon="3.09071">
        <ele>728.2000122</ele>
        <time>2014-06-06T08:33:36Z</time>
      </trkpt>
      <trkpt lat="43.71183" lon="3.0907">
        <ele>728.5999756</ele>
        <time>2014-06-06T08:33:37Z</time>
      </trkpt>
      <trkpt lat="43.71184" lon="3.09068">
        <ele>729</ele>
        <time>2014-06-06T08:33:38Z</time>
      </trkpt>
      <trkpt lat="43.71184" lon="3.09066">
        <ele>729.5999756</ele>
        <time>2014-06-06T08:33:39Z</time>
      </trkpt>
      <trkpt lat="43.71185" lon="3.09065">
        <ele>730</ele>
        <time>2014-06-06T08:33:40Z</time>
      </trkpt>
      <trkpt lat="43.71185" lon="3.09063">
        <ele>730</ele>
        <time>2014-06-06T08:33:41Z</time>
      </trkpt>
      <trkpt lat="43.71187" lon="3.09057">
        <ele>730.4000244</ele>
        <time>2014-06-06T08:33:46Z</time>
      </trkpt>
      <trkpt lat="43.71187" lon="3.09057">
        <ele>730.7999878</ele>
        <time>2014-06-06T08:33:47Z</time>
      </trkpt>
      <trkpt lat="43.71188" lon="3.09055">
        <ele>731.2000122</ele>
        <time>2014-06-06T08:33:48Z</time>
      </trkpt>
      <trkpt lat="43.71189" lon="3.09054">
        <ele>731.5999756</ele>
        <time>2014-06-06T08:33:49Z</time>
      </trkpt>
      <trkpt lat="43.71189" lon="3.09053">
        <ele>732</ele>
        <time>2014-06-06T08:33:50Z</time>
      </trkpt>
      <trkpt lat="43.71194" lon="3.09042">
        <ele>732</ele>
        <time>2014-06-06T08:33:55Z</time>
      </trkpt>
      <trkpt lat="43.71201" lon="3.09028">
        <ele>732.4000244</ele>
        <time>2014-06-06T08:34:02Z</time>
      </trkpt>
      <trkpt lat="43.71201" lon="3.09026">
        <ele>732.7999878</ele>
        <time>2014-06-06T08:34:03Z</time>
      </trkpt>
      <trkpt lat="43.71202" lon="3.09024">
        <ele>733.2000122</ele>
        <time>2014-06-06T08:34:04Z</time>
      </trkpt>
      <trkpt lat="43.71203" lon="3.09023">
        <ele>734</ele>
        <time>2014-06-06T08:34:05Z</time>
      </trkpt>
      <trkpt lat="43.71207" lon="3.09012">
        <ele>734</ele>
        <time>2014-06-06T08:34:11Z</time>
      </trkpt>
      <trkpt lat="43.71211" lon="3.09003">
        <ele>734.4000244</ele>
        <time>2014-06-06T08:34:16Z</time>
      </trkpt>
      <trkpt lat="43.71212" lon="3.09002">
        <ele>735</ele>
        <time>2014-06-06T08:34:17Z</time>
      </trkpt>
      <trkpt lat="43.71213" lon="3.09">
        <ele>735.4000244</ele>
        <time>2014-06-06T08:34:18Z</time>
      </trkpt>
      <trkpt lat="43.71214" lon="3.08999">
        <ele>735.7999878</ele>
        <time>2014-06-06T08:34:19Z</time>
      </trkpt>
      <trkpt lat="43.71215" lon="3.08998">
        <ele>736.2000122</ele>
        <time>2014-06-06T08:34:20Z</time>
      </trkpt>
      <trkpt lat="43.71219" lon="3.08989">
        <ele>736.2000122</ele>
        <time>2014-06-06T08:34:26Z</time>
      </trkpt>
      <trkpt lat="43.71224" lon="3.08985">
        <ele>736.5999756</ele>
        <time>2014-06-06T08:34:29Z</time>
      </trkpt>
      <trkpt lat="43.71226" lon="3.08983">
        <ele>737.4000244</ele>
        <time>2014-06-06T08:34:30Z</time>
      </trkpt>
      <trkpt lat="43.71227" lon="3.08982">
        <ele>737.7999878</ele>
        <time>2014-06-06T08:34:31Z</time>
      </trkpt>
      <trkpt lat="43.71228" lon="3.08981">
        <ele>738.2000122</ele>
        <time>2014-06-06T08:34:32Z</time>
      </trkpt>
      <trkpt lat="43.7123" lon="3.08978">
        <ele>738.2000122</ele>
        <time>2014-06-06T08:34:34Z</time>
      </trkpt>
      <trkpt lat="43.71234" lon="3.08965">
        <ele>738.2000122</ele>
        <time>2014-06-06T08:34:42Z</time>
      </trkpt>
      <trkpt lat="43.71235" lon="3.0896">
        <ele>738.5999756</ele>
        <time>2014-06-06T08:34:45Z</time>
      </trkpt>
      <trkpt lat="43.71235" lon="3.08959">
        <ele>739</ele>
        <time>2014-06-06T08:34:46Z</time>
      </trkpt>
      <trkpt lat="43.71235" lon="3.08957">
        <ele>739.4000244</ele>
        <time>2014-06-06T08:34:47Z</time>
      </trkpt>
      <trkpt lat="43.71236" lon="3.08955">
        <ele>739.7999878</ele>
        <time>2014-06-06T08:34:48Z</time>
      </trkpt>
      <trkpt lat="43.71239" lon="3.08954">
        <ele>740.2000122</ele>
        <time>2014-06-06T08:34:49Z</time>
      </trkpt>
      <trkpt lat="43.71243" lon="3.08951">
        <ele>740.2000122</ele>
        <time>2014-06-06T08:34:51Z</time>
      </trkpt>
      <trkpt lat="43.7125" lon="3.08945">
        <ele>740.5999756</ele>
        <time>2014-06-06T08:34:55Z</time>
      </trkpt>
      <trkpt lat="43.71252" lon="3.08943">
        <ele>741</ele>
        <time>2014-06-06T08:34:56Z</time>
      </trkpt>
      <trkpt lat="43.71254" lon="3.08941">
        <ele>741.4000244</ele>
        <time>2014-06-06T08:34:57Z</time>
      </trkpt>
      <trkpt lat="43.71255" lon="3.0894">
        <ele>741.7999878</ele>
        <time>2014-06-06T08:34:58Z</time>
      </trkpt>
      <trkpt lat="43.71256" lon="3.08938">
        <ele>742.2000122</ele>
        <time>2014-06-06T08:34:59Z</time>
      </trkpt>
      <trkpt lat="43.71261" lon="3.08925">
        <ele>742.2000122</ele>
        <time>2014-06-06T08:35:06Z</time>
      </trkpt>
      <trkpt lat="43.71262" lon="3.08918">
        <ele>742.5999756</ele>
        <time>2014-06-06T08:35:10Z</time>
      </trkpt>
      <trkpt lat="43.71262" lon="3.08916">
        <ele>743</ele>
        <time>2014-06-06T08:35:11Z</time>
      </trkpt>
      <trkpt lat="43.71262" lon="3.08914">
        <ele>743.5999756</ele>
        <time>2014-06-06T08:35:12Z</time>
      </trkpt>
      <trkpt lat="43.71262" lon="3.08912">
        <ele>744</ele>
        <time>2014-06-06T08:35:13Z</time>
      </trkpt>
      <trkpt lat="43.71262" lon="3.0891">
        <ele>744.4000244</ele>
        <time>2014-06-06T08:35:14Z</time>
      </trkpt>
      <trkpt lat="43.71259" lon="3.089">
        <ele>744.4000244</ele>
        <time>2014-06-06T08:35:19Z</time>
      </trkpt>
      <trkpt lat="43.71259" lon="3.08897">
        <ele>744.7999878</ele>
        <time>2014-06-06T08:35:20Z</time>
      </trkpt>
      <trkpt lat="43.71259" lon="3.08895">
        <ele>745.2000122</ele>
        <time>2014-06-06T08:35:21Z</time>
      </trkpt>
      <trkpt lat="43.71258" lon="3.08893">
        <ele>745.5999756</ele>
        <time>2014-06-06T08:35:22Z</time>
      </trkpt>
      <trkpt lat="43.71258" lon="3.08891">
        <ele>746</ele>
        <time>2014-06-06T08:35:23Z</time>
      </trkpt>
      <trkpt lat="43.71258" lon="3.08889">
        <ele>746.4000244</ele>
        <time>2014-06-06T08:35:24Z</time>
      </trkpt>
      <trkpt lat="43.71256" lon="3.08883">
        <ele>746.4000244</ele>
        <time>2014-06-06T08:35:27Z</time>
      </trkpt>
      <trkpt lat="43.71251" lon="3.08871">
        <ele>746.4000244</ele>
        <time>2014-06-06T08:35:34Z</time>
      </trkpt>
      <trkpt lat="43.71251" lon="3.08869">
        <ele>746.7999878</ele>
        <time>2014-06-06T08:35:35Z</time>
      </trkpt>
      <trkpt lat="43.71251" lon="3.08866">
        <ele>747.2000122</ele>
        <time>2014-06-06T08:35:36Z</time>
      </trkpt>
      <trkpt lat="43.7125" lon="3.08864">
        <ele>747.5999756</ele>
        <time>2014-06-06T08:35:37Z</time>
      </trkpt>
      <trkpt lat="43.7125" lon="3.08862">
        <ele>748</ele>
        <time>2014-06-06T08:35:38Z</time>
      </trkpt>
      <trkpt lat="43.71249" lon="3.08861">
        <ele>748.4000244</ele>
        <time>2014-06-06T08:35:39Z</time>
      </trkpt>
      <trkpt lat="43.71248" lon="3.08856">
        <ele>748.4000244</ele>
        <time>2014-06-06T08:35:42Z</time>
      </trkpt>
      <trkpt lat="43.71244" lon="3.08845">
        <ele>748.7999878</ele>
        <time>2014-06-06T08:35:48Z</time>
      </trkpt>
      <trkpt lat="43.71244" lon="3.08842">
        <ele>749.4000244</ele>
        <time>2014-06-06T08:35:49Z</time>
      </trkpt>
      <trkpt lat="43.71243" lon="3.08841">
        <ele>749.7999878</ele>
        <time>2014-06-06T08:35:50Z</time>
      </trkpt>
      <trkpt lat="43.71244" lon="3.08838">
        <ele>750.2000122</ele>
        <time>2014-06-06T08:35:51Z</time>
      </trkpt>
      <trkpt lat="43.71244" lon="3.08836">
        <ele>750.5999756</ele>
        <time>2014-06-06T08:35:52Z</time>
      </trkpt>
      <trkpt lat="43.71244" lon="3.08832">
        <ele>750.5999756</ele>
        <time>2014-06-06T08:35:54Z</time>
      </trkpt>
      <trkpt lat="43.71243" lon="3.08827">
        <ele>750.5999756</ele>
        <time>2014-06-06T08:35:57Z</time>
      </trkpt>
      <trkpt lat="43.71241" lon="3.0882">
        <ele>750.5999756</ele>
        <time>2014-06-06T08:36:01Z</time>
      </trkpt>
      <trkpt lat="43.7124" lon="3.08816">
        <ele>750.5999756</ele>
        <time>2014-06-06T08:36:03Z</time>
      </trkpt>
      <trkpt lat="43.71239" lon="3.08815">
        <ele>751</ele>
        <time>2014-06-06T08:36:04Z</time>
      </trkpt>
      <trkpt lat="43.71238" lon="3.08813">
        <ele>751.4000244</ele>
        <time>2014-06-06T08:36:05Z</time>
      </trkpt>
      <trkpt lat="43.71236" lon="3.08812">
        <ele>751.7999878</ele>
        <time>2014-06-06T08:36:06Z</time>
      </trkpt>
      <trkpt lat="43.71236" lon="3.0881">
        <ele>752.2000122</ele>
        <time>2014-06-06T08:36:07Z</time>
      </trkpt>
      <trkpt lat="43.71236" lon="3.08808">
        <ele>752.7999878</ele>
        <time>2014-06-06T08:36:08Z</time>
      </trkpt>
      <trkpt lat="43.71236" lon="3.08807">
        <ele>752.7999878</ele>
        <time>2014-06-06T08:36:09Z</time>
      </trkpt>
      <trkpt lat="43.71234" lon="3.08802">
        <ele>752.7999878</ele>
        <time>2014-06-06T08:36:12Z</time>
      </trkpt>
      <trkpt lat="43.71232" lon="3.08796">
        <ele>753.2000122</ele>
        <time>2014-06-06T08:36:15Z</time>
      </trkpt>
      <trkpt lat="43.71232" lon="3.08795">
        <ele>753.5999756</ele>
        <time>2014-06-06T08:36:16Z</time>
      </trkpt>
      <trkpt lat="43.71231" lon="3.08792">
        <ele>754</ele>
        <time>2014-06-06T08:36:17Z</time>
      </trkpt>
      <trkpt lat="43.7123" lon="3.08791">
        <ele>754.4000244</ele>
        <time>2014-06-06T08:36:18Z</time>
      </trkpt>
      <trkpt lat="43.7123" lon="3.08789">
        <ele>754.7999878</ele>
        <time>2014-06-06T08:36:19Z</time>
      </trkpt>
      <trkpt lat="43.71224" lon="3.08777">
        <ele>754.7999878</ele>
        <time>2014-06-06T08:36:26Z</time>
      </trkpt>
      <trkpt lat="43.71222" lon="3.08772">
        <ele>755.2000122</ele>
        <time>2014-06-06T08:36:29Z</time>
      </trkpt>
      <trkpt lat="43.71222" lon="3.08771">
        <ele>755.5999756</ele>
        <time>2014-06-06T08:36:30Z</time>
      </trkpt>
      <trkpt lat="43.71221" lon="3.08769">
        <ele>756</ele>
        <time>2014-06-06T08:36:31Z</time>
      </trkpt>
      <trkpt lat="43.7122" lon="3.08767">
        <ele>756.4000244</ele>
        <time>2014-06-06T08:36:32Z</time>
      </trkpt>
      <trkpt lat="43.7122" lon="3.08766">
        <ele>756.7999878</ele>
        <time>2014-06-06T08:36:33Z</time>
      </trkpt>
      <trkpt lat="43.7122" lon="3.08764">
        <ele>756.7999878</ele>
        <time>2014-06-06T08:36:34Z</time>
      </trkpt>
      <trkpt lat="43.71217" lon="3.08756">
        <ele>756.7999878</ele>
        <time>2014-06-06T08:36:39Z</time>
      </trkpt>
      <trkpt lat="43.71217" lon="3.08754">
        <ele>757.2000122</ele>
        <time>2014-06-06T08:36:40Z</time>
      </trkpt>
      <trkpt lat="43.71214" lon="3.08753">
        <ele>757.5999756</ele>
        <time>2014-06-06T08:36:41Z</time>
      </trkpt>
      <trkpt lat="43.71212" lon="3.08752">
        <ele>758.2000122</ele>
        <time>2014-06-06T08:36:42Z</time>
      </trkpt>
      <trkpt lat="43.7121" lon="3.0875">
        <ele>758.5999756</ele>
        <time>2014-06-06T08:36:43Z</time>
      </trkpt>
      <trkpt lat="43.71209" lon="3.08749">
        <ele>759</ele>
        <time>2014-06-06T08:36:44Z</time>
      </trkpt>
      <trkpt lat="43.71201" lon="3.08736">
        <ele>759</ele>
        <time>2014-06-06T08:36:51Z</time>
      </trkpt>
      <trkpt lat="43.71199" lon="3.08733">
        <ele>759.4000244</ele>
        <time>2014-06-06T08:36:53Z</time>
      </trkpt>
      <trkpt lat="43.71198" lon="3.08731">
        <ele>759.7999878</ele>
        <time>2014-06-06T08:36:54Z</time>
      </trkpt>
      <trkpt lat="43.71197" lon="3.08729">
        <ele>760.2000122</ele>
        <time>2014-06-06T08:36:55Z</time>
      </trkpt>
      <trkpt lat="43.71196" lon="3.08727">
        <ele>760.5999756</ele>
        <time>2014-06-06T08:36:56Z</time>
      </trkpt>
      <trkpt lat="43.71196" lon="3.08725">
        <ele>761</ele>
        <time>2014-06-06T08:36:57Z</time>
      </trkpt>
      <trkpt lat="43.71195" lon="3.08723">
        <ele>761</ele>
        <time>2014-06-06T08:36:58Z</time>
      </trkpt>
      <trkpt lat="43.71193" lon="3.08711">
        <ele>761.4000244</ele>
        <time>2014-06-06T08:37:04Z</time>
      </trkpt>
      <trkpt lat="43.71193" lon="3.08709">
        <ele>761.7999878</ele>
        <time>2014-06-06T08:37:05Z</time>
      </trkpt>
      <trkpt lat="43.71192" lon="3.08707">
        <ele>762.2000122</ele>
        <time>2014-06-06T08:37:06Z</time>
      </trkpt>
      <trkpt lat="43.71192" lon="3.08704">
        <ele>762.5999756</ele>
        <time>2014-06-06T08:37:07Z</time>
      </trkpt>
      <trkpt lat="43.71192" lon="3.08702">
        <ele>763.2000122</ele>
        <time>2014-06-06T08:37:08Z</time>
      </trkpt>
      <trkpt lat="43.71191" lon="3.08691">
        <ele>763.2000122</ele>
        <time>2014-06-06T08:37:12Z</time>
      </trkpt>
      <trkpt lat="43.71191" lon="3.0868">
        <ele>763.5999756</ele>
        <time>2014-06-06T08:37:17Z</time>
      </trkpt>
      <trkpt lat="43.71191" lon="3.08678">
        <ele>764</ele>
        <time>2014-06-06T08:37:18Z</time>
      </trkpt>
      <trkpt lat="43.71191" lon="3.08676">
        <ele>764.4000244</ele>
        <time>2014-06-06T08:37:19Z</time>
      </trkpt>
      <trkpt lat="43.71191" lon="3.08674">
        <ele>764.7999878</ele>
        <time>2014-06-06T08:37:20Z</time>
      </trkpt>
      <trkpt lat="43.7119" lon="3.08672">
        <ele>765.2000122</ele>
        <time>2014-06-06T08:37:21Z</time>
      </trkpt>
      <trkpt lat="43.7119" lon="3.08668">
        <ele>765.2000122</ele>
        <time>2014-06-06T08:37:23Z</time>
      </trkpt>
      <trkpt lat="43.71189" lon="3.0866">
        <ele>765.2000122</ele>
        <time>2014-06-06T08:37:27Z</time>
      </trkpt>
      <trkpt lat="43.71189" lon="3.08657">
        <ele>765.5999756</ele>
        <time>2014-06-06T08:37:28Z</time>
      </trkpt>
      <trkpt lat="43.71188" lon="3.08655">
        <ele>766</ele>
        <time>2014-06-06T08:37:29Z</time>
      </trkpt>
      <trkpt lat="43.71188" lon="3.08654">
        <ele>766.4000244</ele>
        <time>2014-06-06T08:37:30Z</time>
      </trkpt>
      <trkpt lat="43.71188" lon="3.08652">
        <ele>766.7999878</ele>
        <time>2014-06-06T08:37:31Z</time>
      </trkpt>
      <trkpt lat="43.71188" lon="3.08649">
        <ele>767.2000122</ele>
        <time>2014-06-06T08:37:32Z</time>
      </trkpt>
      <trkpt lat="43.71185" lon="3.08638">
        <ele>767.2000122</ele>
        <time>2014-06-06T08:37:38Z</time>
      </trkpt>
      <trkpt lat="43.71186" lon="3.08627">
        <ele>767.5999756</ele>
        <time>2014-06-06T08:37:42Z</time>
      </trkpt>
      <trkpt lat="43.71187" lon="3.08624">
        <ele>768</ele>
        <time>2014-06-06T08:37:43Z</time>
      </trkpt>
      <trkpt lat="43.71187" lon="3.08622">
        <ele>768.4000244</ele>
        <time>2014-06-06T08:37:44Z</time>
      </trkpt>
      <trkpt lat="43.71188" lon="3.0862">
        <ele>768.7999878</ele>
        <time>2014-06-06T08:37:45Z</time>
      </trkpt>
      <trkpt lat="43.71188" lon="3.08619">
        <ele>769.2000122</ele>
        <time>2014-06-06T08:37:46Z</time>
      </trkpt>
      <trkpt lat="43.71187" lon="3.08609">
        <ele>769.2000122</ele>
        <time>2014-06-06T08:37:50Z</time>
      </trkpt>
      <trkpt lat="43.71187" lon="3.08595">
        <ele>769.7999878</ele>
        <time>2014-06-06T08:37:56Z</time>
      </trkpt>
      <trkpt lat="43.71186" lon="3.08594">
        <ele>770.2000122</ele>
        <time>2014-06-06T08:37:57Z</time>
      </trkpt>
      <trkpt lat="43.71186" lon="3.08592">
        <ele>770.5999756</ele>
        <time>2014-06-06T08:37:58Z</time>
      </trkpt>
      <trkpt lat="43.71186" lon="3.08589">
        <ele>771</ele>
        <time>2014-06-06T08:37:59Z</time>
      </trkpt>
      <trkpt lat="43.71186" lon="3.08588">
        <ele>771.4000244</ele>
        <time>2014-06-06T08:38:00Z</time>
      </trkpt>
      <trkpt lat="43.71184" lon="3.0858">
        <ele>771.4000244</ele>
        <time>2014-06-06T08:38:04Z</time>
      </trkpt>
      <trkpt lat="43.71183" lon="3.08577">
        <ele>771.4000244</ele>
        <time>2014-06-06T08:38:06Z</time>
      </trkpt>
      <trkpt lat="43.71182" lon="3.08571">
        <ele>771.4000244</ele>
        <time>2014-06-06T08:38:09Z</time>
      </trkpt>
      <trkpt lat="43.71181" lon="3.08564">
        <ele>771.7999878</ele>
        <time>2014-06-06T08:38:13Z</time>
      </trkpt>
      <trkpt lat="43.7118" lon="3.08562">
        <ele>772.2000122</ele>
        <time>2014-06-06T08:38:14Z</time>
      </trkpt>
      <trkpt lat="43.7118" lon="3.0856">
        <ele>772.5999756</ele>
        <time>2014-06-06T08:38:15Z</time>
      </trkpt>
      <trkpt lat="43.7118" lon="3.08557">
        <ele>773.2000122</ele>
        <time>2014-06-06T08:38:16Z</time>
      </trkpt>
      <trkpt lat="43.7118" lon="3.08555">
        <ele>773.5999756</ele>
        <time>2014-06-06T08:38:17Z</time>
      </trkpt>
      <trkpt lat="43.71178" lon="3.08546">
        <ele>773.5999756</ele>
        <time>2014-06-06T08:38:22Z</time>
      </trkpt>
      <trkpt lat="43.71176" lon="3.08541">
        <ele>773.5999756</ele>
        <time>2014-06-06T08:38:25Z</time>
      </trkpt>
      <trkpt lat="43.71174" lon="3.08535">
        <ele>774</ele>
        <time>2014-06-06T08:38:28Z</time>
      </trkpt>
      <trkpt lat="43.71174" lon="3.08533">
        <ele>774.4000244</ele>
        <time>2014-06-06T08:38:29Z</time>
      </trkpt>
      <trkpt lat="43.71174" lon="3.08531">
        <ele>774.7999878</ele>
        <time>2014-06-06T08:38:30Z</time>
      </trkpt>
      <trkpt lat="43.71174" lon="3.08529">
        <ele>775.2000122</ele>
        <time>2014-06-06T08:38:31Z</time>
      </trkpt>
      <trkpt lat="43.71174" lon="3.08527">
        <ele>775.5999756</ele>
        <time>2014-06-06T08:38:32Z</time>
      </trkpt>
      <trkpt lat="43.71173" lon="3.08523">
        <ele>775.5999756</ele>
        <time>2014-06-06T08:38:35Z</time>
      </trkpt>
      <trkpt lat="43.71173" lon="3.08518">
        <ele>775.5999756</ele>
        <time>2014-06-06T08:38:38Z</time>
      </trkpt>
      <trkpt lat="43.71172" lon="3.08511">
        <ele>776</ele>
        <time>2014-06-06T08:38:41Z</time>
      </trkpt>
      <trkpt lat="43.71171" lon="3.08509">
        <ele>776.4000244</ele>
        <time>2014-06-06T08:38:42Z</time>
      </trkpt>
      <trkpt lat="43.71171" lon="3.08507">
        <ele>776.7999878</ele>
        <time>2014-06-06T08:38:43Z</time>
      </trkpt>
      <trkpt lat="43.7117" lon="3.08504">
        <ele>777.2000122</ele>
        <time>2014-06-06T08:38:44Z</time>
      </trkpt>
      <trkpt lat="43.7117" lon="3.08502">
        <ele>777.5999756</ele>
        <time>2014-06-06T08:38:45Z</time>
      </trkpt>
      <trkpt lat="43.71168" lon="3.08495">
        <ele>777.5999756</ele>
        <time>2014-06-06T08:38:49Z</time>
      </trkpt>
      <trkpt lat="43.71166" lon="3.08484">
        <ele>778.2000122</ele>
        <time>2014-06-06T08:38:54Z</time>
      </trkpt>
      <trkpt lat="43.71165" lon="3.08482">
        <ele>778.5999756</ele>
        <time>2014-06-06T08:38:55Z</time>
      </trkpt>
      <trkpt lat="43.71165" lon="3.0848">
        <ele>779</ele>
        <time>2014-06-06T08:38:56Z</time>
      </trkpt>
      <trkpt lat="43.71166" lon="3.08479">
        <ele>779.4000244</ele>
        <time>2014-06-06T08:38:57Z</time>
      </trkpt>
      <trkpt lat="43.71165" lon="3.08477">
        <ele>779.7999878</ele>
        <time>2014-06-06T08:38:58Z</time>
      </trkpt>
      <trkpt lat="43.71164" lon="3.08472">
        <ele>779.7999878</ele>
        <time>2014-06-06T08:39:01Z</time>
      </trkpt>
      <trkpt lat="43.71161" lon="3.08464">
        <ele>780.2000122</ele>
        <time>2014-06-06T08:39:07Z</time>
      </trkpt>
      <trkpt lat="43.71161" lon="3.08464">
        <ele>780.5999756</ele>
        <time>2014-06-06T08:39:08Z</time>
      </trkpt>
      <trkpt lat="43.7116" lon="3.08462">
        <ele>781.2000122</ele>
        <time>2014-06-06T08:39:09Z</time>
      </trkpt>
      <trkpt lat="43.71159" lon="3.08461">
        <ele>781.5999756</ele>
        <time>2014-06-06T08:39:10Z</time>
      </trkpt>
      <trkpt lat="43.71159" lon="3.08459">
        <ele>782</ele>
        <time>2014-06-06T08:39:11Z</time>
      </trkpt>
      <trkpt lat="43.71157" lon="3.08456">
        <ele>782</ele>
        <time>2014-06-06T08:39:13Z</time>
      </trkpt>
      <trkpt lat="43.71157" lon="3.08454">
        <ele>782</ele>
        <time>2014-06-06T08:39:14Z</time>
      </trkpt>
      <trkpt lat="43.71157" lon="3.08452">
        <ele>782</ele>
        <time>2014-06-06T08:39:15Z</time>
      </trkpt>
      <trkpt lat="43.71156" lon="3.08447">
        <ele>782.4000244</ele>
        <time>2014-06-06T08:39:18Z</time>
      </trkpt>
      <trkpt lat="43.71156" lon="3.08445">
        <ele>782.7999878</ele>
        <time>2014-06-06T08:39:19Z</time>
      </trkpt>
      <trkpt lat="43.71156" lon="3.08443">
        <ele>783.2000122</ele>
        <time>2014-06-06T08:39:20Z</time>
      </trkpt>
      <trkpt lat="43.71157" lon="3.08441">
        <ele>783.5999756</ele>
        <time>2014-06-06T08:39:21Z</time>
      </trkpt>
      <trkpt lat="43.71157" lon="3.08439">
        <ele>784</ele>
        <time>2014-06-06T08:39:22Z</time>
      </trkpt>
      <trkpt lat="43.71154" lon="3.08433">
        <ele>784</ele>
        <time>2014-06-06T08:39:27Z</time>
      </trkpt>
      <trkpt lat="43.71154" lon="3.08429">
        <ele>784</ele>
        <time>2014-06-06T08:39:29Z</time>
      </trkpt>
      <trkpt lat="43.71155" lon="3.08427">
        <ele>784.4000244</ele>
        <time>2014-06-06T08:39:30Z</time>
      </trkpt>
      <trkpt lat="43.71155" lon="3.08425">
        <ele>784.7999878</ele>
        <time>2014-06-06T08:39:31Z</time>
      </trkpt>
      <trkpt lat="43.71155" lon="3.08422">
        <ele>785.2000122</ele>
        <time>2014-06-06T08:39:32Z</time>
      </trkpt>
      <trkpt lat="43.71155" lon="3.0842">
        <ele>785.5999756</ele>
        <time>2014-06-06T08:39:33Z</time>
      </trkpt>
      <trkpt lat="43.71155" lon="3.08418">
        <ele>786</ele>
        <time>2014-06-06T08:39:34Z</time>
      </trkpt>
      <trkpt lat="43.71154" lon="3.08412">
        <ele>786</ele>
        <time>2014-06-06T08:39:38Z</time>
      </trkpt>
      <trkpt lat="43.71154" lon="3.08402">
        <ele>786</ele>
        <time>2014-06-06T08:39:43Z</time>
      </trkpt>
      <trkpt lat="43.71152" lon="3.08398">
        <ele>786.4000244</ele>
        <time>2014-06-06T08:39:45Z</time>
      </trkpt>
      <trkpt lat="43.71152" lon="3.08396">
        <ele>786.7999878</ele>
        <time>2014-06-06T08:39:46Z</time>
      </trkpt>
      <trkpt lat="43.71152" lon="3.08395">
        <ele>787.2000122</ele>
        <time>2014-06-06T08:39:47Z</time>
      </trkpt>
      <trkpt lat="43.71152" lon="3.08393">
        <ele>787.7999878</ele>
        <time>2014-06-06T08:39:48Z</time>
      </trkpt>
      <trkpt lat="43.71152" lon="3.0839">
        <ele>788.2000122</ele>
        <time>2014-06-06T08:39:49Z</time>
      </trkpt>
      <trkpt lat="43.71152" lon="3.08386">
        <ele>788.2000122</ele>
        <time>2014-06-06T08:39:51Z</time>
      </trkpt>
      <trkpt lat="43.71153" lon="3.08378">
        <ele>788.2000122</ele>
        <time>2014-06-06T08:39:54Z</time>
      </trkpt>
      <trkpt lat="43.71154" lon="3.08374">
        <ele>788.5999756</ele>
        <time>2014-06-06T08:39:56Z</time>
      </trkpt>
      <trkpt lat="43.71154" lon="3.08372">
        <ele>789</ele>
        <time>2014-06-06T08:39:57Z</time>
      </trkpt>
      <trkpt lat="43.71154" lon="3.08371">
        <ele>789.4000244</ele>
        <time>2014-06-06T08:39:58Z</time>
      </trkpt>
      <trkpt lat="43.71154" lon="3.08369">
        <ele>789.7999878</ele>
        <time>2014-06-06T08:39:59Z</time>
      </trkpt>
      <trkpt lat="43.71154" lon="3.08368">
        <ele>790.2000122</ele>
        <time>2014-06-06T08:40:00Z</time>
      </trkpt>
      <trkpt lat="43.71155" lon="3.0836">
        <ele>790.2000122</ele>
        <time>2014-06-06T08:40:04Z</time>
      </trkpt>
      <trkpt lat="43.71155" lon="3.08354">
        <ele>790.2000122</ele>
        <time>2014-06-06T08:40:07Z</time>
      </trkpt>
      <trkpt lat="43.71156" lon="3.0835">
        <ele>790.5999756</ele>
        <time>2014-06-06T08:40:10Z</time>
      </trkpt>
      <trkpt lat="43.71156" lon="3.08348">
        <ele>791</ele>
        <time>2014-06-06T08:40:11Z</time>
      </trkpt>
      <trkpt lat="43.71156" lon="3.08348">
        <ele>791.4000244</ele>
        <time>2014-06-06T08:40:12Z</time>
      </trkpt>
      <trkpt lat="43.71156" lon="3.08346">
        <ele>791.7999878</ele>
        <time>2014-06-06T08:40:13Z</time>
      </trkpt>
      <trkpt lat="43.71156" lon="3.08345">
        <ele>792.2000122</ele>
        <time>2014-06-06T08:40:14Z</time>
      </trkpt>
      <trkpt lat="43.71156" lon="3.08343">
        <ele>792.2000122</ele>
        <time>2014-06-06T08:40:16Z</time>
      </trkpt>
      <trkpt lat="43.71156" lon="3.08341">
        <ele>792.2000122</ele>
        <time>2014-06-06T08:40:17Z</time>
      </trkpt>
      <trkpt lat="43.71156" lon="3.08331">
        <ele>792.5999756</ele>
        <time>2014-06-06T08:40:22Z</time>
      </trkpt>
      <trkpt lat="43.71156" lon="3.08329">
        <ele>793.2000122</ele>
        <time>2014-06-06T08:40:23Z</time>
      </trkpt>
      <trkpt lat="43.71155" lon="3.08328">
        <ele>793.5999756</ele>
        <time>2014-06-06T08:40:24Z</time>
      </trkpt>
      <trkpt lat="43.71155" lon="3.08326">
        <ele>794</ele>
        <time>2014-06-06T08:40:25Z</time>
      </trkpt>
      <trkpt lat="43.71155" lon="3.08324">
        <ele>794.4000244</ele>
        <time>2014-06-06T08:40:26Z</time>
      </trkpt>
      <trkpt lat="43.71155" lon="3.08321">
        <ele>794.4000244</ele>
        <time>2014-06-06T08:40:28Z</time>
      </trkpt>
      <trkpt lat="43.71156" lon="3.08315">
        <ele>794.4000244</ele>
        <time>2014-06-06T08:40:31Z</time>
      </trkpt>
      <trkpt lat="43.71156" lon="3.08309">
        <ele>794.7999878</ele>
        <time>2014-06-06T08:40:36Z</time>
      </trkpt>
      <trkpt lat="43.71157" lon="3.08306">
        <ele>795.2000122</ele>
        <time>2014-06-06T08:40:37Z</time>
      </trkpt>
      <trkpt lat="43.71157" lon="3.08304">
        <ele>795.5999756</ele>
        <time>2014-06-06T08:40:38Z</time>
      </trkpt>
      <trkpt lat="43.71158" lon="3.08302">
        <ele>796</ele>
        <time>2014-06-06T08:40:39Z</time>
      </trkpt>
      <trkpt lat="43.71158" lon="3.083">
        <ele>796.5999756</ele>
        <time>2014-06-06T08:40:40Z</time>
      </trkpt>
      <trkpt lat="43.71159" lon="3.08294">
        <ele>796.5999756</ele>
        <time>2014-06-06T08:40:44Z</time>
      </trkpt>
      <trkpt lat="43.71158" lon="3.08292">
        <ele>797</ele>
        <time>2014-06-06T08:40:46Z</time>
      </trkpt>
      <trkpt lat="43.71158" lon="3.08289">
        <ele>797.4000244</ele>
        <time>2014-06-06T08:40:47Z</time>
      </trkpt>
      <trkpt lat="43.71158" lon="3.08287">
        <ele>797.7999878</ele>
        <time>2014-06-06T08:40:48Z</time>
      </trkpt>
      <trkpt lat="43.71159" lon="3.08285">
        <ele>798.2000122</ele>
        <time>2014-06-06T08:40:49Z</time>
      </trkpt>
      <trkpt lat="43.71159" lon="3.08283">
        <ele>798.5999756</ele>
        <time>2014-06-06T08:40:50Z</time>
      </trkpt>
      <trkpt lat="43.7116" lon="3.08281">
        <ele>798.5999756</ele>
        <time>2014-06-06T08:40:51Z</time>
      </trkpt>
      <trkpt lat="43.71158" lon="3.0827">
        <ele>798.5999756</ele>
        <time>2014-06-06T08:40:58Z</time>
      </trkpt>
      <trkpt lat="43.71157" lon="3.08268">
        <ele>799</ele>
        <time>2014-06-06T08:41:00Z</time>
      </trkpt>
      <trkpt lat="43.71157" lon="3.08266">
        <ele>799.4000244</ele>
        <time>2014-06-06T08:41:01Z</time>
      </trkpt>
      <trkpt lat="43.71156" lon="3.08265">
        <ele>799.7999878</ele>
        <time>2014-06-06T08:41:02Z</time>
      </trkpt>
      <trkpt lat="43.71156" lon="3.08263">
        <ele>800.2000122</ele>
        <time>2014-06-06T08:41:03Z</time>
      </trkpt>
      <trkpt lat="43.71156" lon="3.08262">
        <ele>800.5999756</ele>
        <time>2014-06-06T08:41:04Z</time>
      </trkpt>
      <trkpt lat="43.71155" lon="3.08257">
        <ele>800.5999756</ele>
        <time>2014-06-06T08:41:08Z</time>
      </trkpt>
      <trkpt lat="43.71154" lon="3.08255">
        <ele>800.5999756</ele>
        <time>2014-06-06T08:41:09Z</time>
      </trkpt>
      <trkpt lat="43.71155" lon="3.08247">
        <ele>801</ele>
        <time>2014-06-06T08:41:14Z</time>
      </trkpt>
      <trkpt lat="43.71155" lon="3.08245">
        <ele>801.4000244</ele>
        <time>2014-06-06T08:41:15Z</time>
      </trkpt>
      <trkpt lat="43.71155" lon="3.08243">
        <ele>801.7999878</ele>
        <time>2014-06-06T08:41:16Z</time>
      </trkpt>
      <trkpt lat="43.71155" lon="3.08242">
        <ele>802.2000122</ele>
        <time>2014-06-06T08:41:17Z</time>
      </trkpt>
      <trkpt lat="43.71156" lon="3.08241">
        <ele>802.5999756</ele>
        <time>2014-06-06T08:41:18Z</time>
      </trkpt>
      <trkpt lat="43.71156" lon="3.08236">
        <ele>802.5999756</ele>
        <time>2014-06-06T08:41:21Z</time>
      </trkpt>
      <trkpt lat="43.71156" lon="3.08232">
        <ele>802.5999756</ele>
        <time>2014-06-06T08:41:24Z</time>
      </trkpt>
      <trkpt lat="43.71153" lon="3.08227">
        <ele>802.5999756</ele>
        <time>2014-06-06T08:41:26Z</time>
      </trkpt>
      <trkpt lat="43.71153" lon="3.08221">
        <ele>803</ele>
        <time>2014-06-06T08:41:29Z</time>
      </trkpt>
      <trkpt lat="43.71152" lon="3.08218">
        <ele>803.7999878</ele>
        <time>2014-06-06T08:41:30Z</time>
      </trkpt>
      <trkpt lat="43.71152" lon="3.08216">
        <ele>804.4000244</ele>
        <time>2014-06-06T08:41:31Z</time>
      </trkpt>
      <trkpt lat="43.71151" lon="3.08213">
        <ele>804.7999878</ele>
        <time>2014-06-06T08:41:32Z</time>
      </trkpt>
      <trkpt lat="43.7115" lon="3.08206">
        <ele>804.7999878</ele>
        <time>2014-06-06T08:41:35Z</time>
      </trkpt>
      <trkpt lat="43.7115" lon="3.08202">
        <ele>804.7999878</ele>
        <time>2014-06-06T08:41:37Z</time>
      </trkpt>
      <trkpt lat="43.71153" lon="3.08191">
        <ele>804.7999878</ele>
        <time>2014-06-06T08:41:42Z</time>
      </trkpt>
      <trkpt lat="43.71153" lon="3.08191">
        <ele>804.7999878</ele>
        <time>2014-06-06T08:41:43Z</time>
      </trkpt>
      <trkpt lat="43.71155" lon="3.08185">
        <ele>805.2000122</ele>
        <time>2014-06-06T08:41:46Z</time>
      </trkpt>
      <trkpt lat="43.71156" lon="3.08183">
        <ele>805.5999756</ele>
        <time>2014-06-06T08:41:47Z</time>
      </trkpt>
      <trkpt lat="43.71157" lon="3.08181">
        <ele>806</ele>
        <time>2014-06-06T08:41:48Z</time>
      </trkpt>
      <trkpt lat="43.71157" lon="3.08179">
        <ele>806.4000244</ele>
        <time>2014-06-06T08:41:49Z</time>
      </trkpt>
      <trkpt lat="43.71157" lon="3.08177">
        <ele>806.7999878</ele>
        <time>2014-06-06T08:41:50Z</time>
      </trkpt>
      <trkpt lat="43.71158" lon="3.0817">
        <ele>806.7999878</ele>
        <time>2014-06-06T08:41:53Z</time>
      </trkpt>
      <trkpt lat="43.71161" lon="3.08158">
        <ele>806.7999878</ele>
        <time>2014-06-06T08:41:59Z</time>
      </trkpt>
      <trkpt lat="43.71162" lon="3.08147">
        <ele>806.7999878</ele>
        <time>2014-06-06T08:42:05Z</time>
      </trkpt>
      <trkpt lat="43.71161" lon="3.08141">
        <ele>807.2000122</ele>
        <time>2014-06-06T08:42:08Z</time>
      </trkpt>
      <trkpt lat="43.71161" lon="3.0814">
        <ele>807.5999756</ele>
        <time>2014-06-06T08:42:09Z</time>
      </trkpt>
      <trkpt lat="43.71162" lon="3.08138">
        <ele>808</ele>
        <time>2014-06-06T08:42:10Z</time>
      </trkpt>
      <trkpt lat="43.71163" lon="3.08135">
        <ele>808.4000244</ele>
        <time>2014-06-06T08:42:11Z</time>
      </trkpt>
      <trkpt lat="43.71164" lon="3.08133">
        <ele>808.7999878</ele>
        <time>2014-06-06T08:42:12Z</time>
      </trkpt>
      <trkpt lat="43.71167" lon="3.08126">
        <ele>808.7999878</ele>
        <time>2014-06-06T08:42:15Z</time>
      </trkpt>
      <trkpt lat="43.71169" lon="3.0812">
        <ele>809.2000122</ele>
        <time>2014-06-06T08:42:20Z</time>
      </trkpt>
      <trkpt lat="43.7117" lon="3.08119">
        <ele>809.7999878</ele>
        <time>2014-06-06T08:42:21Z</time>
      </trkpt>
      <trkpt lat="43.7117" lon="3.08117">
        <ele>810.2000122</ele>
        <time>2014-06-06T08:42:22Z</time>
      </trkpt>
      <trkpt lat="43.7117" lon="3.08116">
        <ele>810.5999756</ele>
        <time>2014-06-06T08:42:23Z</time>
      </trkpt>
      <trkpt lat="43.7117" lon="3.08114">
        <ele>811</ele>
        <time>2014-06-06T08:42:24Z</time>
      </trkpt>
      <trkpt lat="43.71171" lon="3.08111">
        <ele>811</ele>
        <time>2014-06-06T08:42:27Z</time>
      </trkpt>
      <trkpt lat="43.71172" lon="3.08109">
        <ele>811</ele>
        <time>2014-06-06T08:42:28Z</time>
      </trkpt>
      <trkpt lat="43.71175" lon="3.08105">
        <ele>811.4000244</ele>
        <time>2014-06-06T08:42:32Z</time>
      </trkpt>
      <trkpt lat="43.71175" lon="3.08104">
        <ele>811.7999878</ele>
        <time>2014-06-06T08:42:33Z</time>
      </trkpt>
      <trkpt lat="43.71176" lon="3.08102">
        <ele>812.2000122</ele>
        <time>2014-06-06T08:42:34Z</time>
      </trkpt>
      <trkpt lat="43.71178" lon="3.081">
        <ele>812.7999878</ele>
        <time>2014-06-06T08:42:35Z</time>
      </trkpt>
      <trkpt lat="43.71179" lon="3.08099">
        <ele>813.2000122</ele>
        <time>2014-06-06T08:42:36Z</time>
      </trkpt>
      <trkpt lat="43.71179" lon="3.08098">
        <ele>813.2000122</ele>
        <time>2014-06-06T08:42:37Z</time>
      </trkpt>
      <trkpt lat="43.71183" lon="3.08091">
        <ele>813.5999756</ele>
        <time>2014-06-06T08:42:43Z</time>
      </trkpt>
      <trkpt lat="43.71183" lon="3.0809">
        <ele>814</ele>
        <time>2014-06-06T08:42:44Z</time>
      </trkpt>
      <trkpt lat="43.71183" lon="3.08089">
        <ele>814.4000244</ele>
        <time>2014-06-06T08:42:45Z</time>
      </trkpt>
      <trkpt lat="43.71183" lon="3.08087">
        <ele>814.7999878</ele>
        <time>2014-06-06T08:42:46Z</time>
      </trkpt>
      <trkpt lat="43.71184" lon="3.08085">
        <ele>815.2000122</ele>
        <time>2014-06-06T08:42:47Z</time>
      </trkpt>
      <trkpt lat="43.71184" lon="3.0808">
        <ele>815.2000122</ele>
        <time>2014-06-06T08:42:52Z</time>
      </trkpt>
      <trkpt lat="43.71185" lon="3.08077">
        <ele>815.5999756</ele>
        <time>2014-06-06T08:42:55Z</time>
      </trkpt>
      <trkpt lat="43.71187" lon="3.08074">
        <ele>816</ele>
        <time>2014-06-06T08:42:56Z</time>
      </trkpt>
      <trkpt lat="43.71188" lon="3.08073">
        <ele>816.4000244</ele>
        <time>2014-06-06T08:42:57Z</time>
      </trkpt>
      <trkpt lat="43.7119" lon="3.08071">
        <ele>817</ele>
        <time>2014-06-06T08:42:58Z</time>
      </trkpt>
      <trkpt lat="43.71192" lon="3.08068">
        <ele>817.4000244</ele>
        <time>2014-06-06T08:42:59Z</time>
      </trkpt>
      <trkpt lat="43.71194" lon="3.08061">
        <ele>817.4000244</ele>
        <time>2014-06-06T08:43:04Z</time>
      </trkpt>
      <trkpt lat="43.71194" lon="3.08059">
        <ele>817.4000244</ele>
        <time>2014-06-06T08:43:05Z</time>
      </trkpt>
      <trkpt lat="43.71195" lon="3.08056">
        <ele>817.7999878</ele>
        <time>2014-06-06T08:43:08Z</time>
      </trkpt>
      <trkpt lat="43.71194" lon="3.08056">
        <ele>818.2000122</ele>
        <time>2014-06-06T08:43:09Z</time>
      </trkpt>
      <trkpt lat="43.71195" lon="3.08054">
        <ele>818.5999756</ele>
        <time>2014-06-06T08:43:10Z</time>
      </trkpt>
      <trkpt lat="43.71196" lon="3.08052">
        <ele>819</ele>
        <time>2014-06-06T08:43:11Z</time>
      </trkpt>
      <trkpt lat="43.71196" lon="3.08051">
        <ele>819.4000244</ele>
        <time>2014-06-06T08:43:12Z</time>
      </trkpt>
      <trkpt lat="43.71198" lon="3.08046">
        <ele>819.4000244</ele>
        <time>2014-06-06T08:43:18Z</time>
      </trkpt>
      <trkpt lat="43.71201" lon="3.08043">
        <ele>819.7999878</ele>
        <time>2014-06-06T08:43:20Z</time>
      </trkpt>
      <trkpt lat="43.71202" lon="3.08042">
        <ele>820.2000122</ele>
        <time>2014-06-06T08:43:21Z</time>
      </trkpt>
      <trkpt lat="43.71203" lon="3.08041">
        <ele>820.5999756</ele>
        <time>2014-06-06T08:43:22Z</time>
      </trkpt>
      <trkpt lat="43.71204" lon="3.0804">
        <ele>821</ele>
        <time>2014-06-06T08:43:23Z</time>
      </trkpt>
      <trkpt lat="43.71205" lon="3.08039">
        <ele>821.4000244</ele>
        <time>2014-06-06T08:43:24Z</time>
      </trkpt>
      <trkpt lat="43.71209" lon="3.08031">
        <ele>821.4000244</ele>
        <time>2014-06-06T08:43:30Z</time>
      </trkpt>
      <trkpt lat="43.71211" lon="3.08029">
        <ele>821.7999878</ele>
        <time>2014-06-06T08:43:32Z</time>
      </trkpt>
      <trkpt lat="43.71211" lon="3.08027">
        <ele>822.5999756</ele>
        <time>2014-06-06T08:43:33Z</time>
      </trkpt>
      <trkpt lat="43.71212" lon="3.08026">
        <ele>823</ele>
        <time>2014-06-06T08:43:34Z</time>
      </trkpt>
      <trkpt lat="43.71211" lon="3.08025">
        <ele>823.4000244</ele>
        <time>2014-06-06T08:43:35Z</time>
      </trkpt>
      <trkpt lat="43.71211" lon="3.08025">
        <ele>823.4000244</ele>
        <time>2014-06-06T08:43:36Z</time>
      </trkpt>
      <trkpt lat="43.7121" lon="3.08026">
        <ele>823.4000244</ele>
        <time>2014-06-06T08:43:39Z</time>
      </trkpt>
      <trkpt lat="43.71208" lon="3.08027">
        <ele>823.4000244</ele>
        <time>2014-06-06T08:43:42Z</time>
      </trkpt>
      <trkpt lat="43.71201" lon="3.08031">
        <ele>823.4000244</ele>
        <time>2014-06-06T08:43:48Z</time>
      </trkpt>
      <trkpt lat="43.71193" lon="3.08039">
        <ele>823.4000244</ele>
        <time>2014-06-06T08:43:54Z</time>
      </trkpt>
      <trkpt lat="43.71191" lon="3.08042">
        <ele>823.4000244</ele>
        <time>2014-06-06T08:43:57Z</time>
      </trkpt>
      <trkpt lat="43.71187" lon="3.08044">
        <ele>823.4000244</ele>
        <time>2014-06-06T08:43:59Z</time>
      </trkpt>
      <trkpt lat="43.71183" lon="3.08046">
        <ele>823.4000244</ele>
        <time>2014-06-06T08:44:03Z</time>
      </trkpt>
      <trkpt lat="43.71183" lon="3.08046">
        <ele>823.7999878</ele>
        <time>2014-06-06T08:44:04Z</time>
      </trkpt>
      <trkpt lat="43.71182" lon="3.08047">
        <ele>824.2000122</ele>
        <time>2014-06-06T08:44:05Z</time>
      </trkpt>
      <trkpt lat="43.71182" lon="3.08047">
        <ele>824.5999756</ele>
        <time>2014-06-06T08:44:06Z</time>
      </trkpt>
      <trkpt lat="43.71182" lon="3.08047">
        <ele>825</ele>
        <time>2014-06-06T08:44:07Z</time>
      </trkpt>
      <trkpt lat="43.71182" lon="3.08047">
        <ele>825.4000244</ele>
        <time>2014-06-06T08:44:08Z</time>
      </trkpt>
      <trkpt lat="43.71182" lon="3.08047">
        <ele>825.4000244</ele>
        <time>2014-06-06T08:44:09Z</time>
      </trkpt>
      <trkpt lat="43.71182" lon="3.08047">
        <ele>825.4000244</ele>
        <time>2014-06-06T08:44:10Z</time>
      </trkpt>
      <trkpt lat="43.71181" lon="3.08048">
        <ele>825.4000244</ele>
        <time>2014-06-06T08:44:12Z</time>
      </trkpt>
      <trkpt lat="43.71178" lon="3.08052">
        <ele>825.4000244</ele>
        <time>2014-06-06T08:44:18Z</time>
      </trkpt>
      <trkpt lat="43.71178" lon="3.08052">
        <ele>825.4000244</ele>
        <time>2014-06-06T08:44:19Z</time>
      </trkpt>
      <trkpt lat="43.71176" lon="3.08053">
        <ele>825.7999878</ele>
        <time>2014-06-06T08:44:20Z</time>
      </trkpt>
      <trkpt lat="43.71175" lon="3.08053">
        <ele>826.4000244</ele>
        <time>2014-06-06T08:44:21Z</time>
      </trkpt>
      <trkpt lat="43.71174" lon="3.08054">
        <ele>827.2000122</ele>
        <time>2014-06-06T08:44:22Z</time>
      </trkpt>
      <trkpt lat="43.71173" lon="3.08055">
        <ele>827.5999756</ele>
        <time>2014-06-06T08:44:23Z</time>
      </trkpt>
      <trkpt lat="43.71172" lon="3.08056">
        <ele>827.5999756</ele>
        <time>2014-06-06T08:44:24Z</time>
      </trkpt>
      <trkpt lat="43.7117" lon="3.08057">
        <ele>827.5999756</ele>
        <time>2014-06-06T08:44:26Z</time>
      </trkpt>
      <trkpt lat="43.71168" lon="3.08059">
        <ele>827.5999756</ele>
        <time>2014-06-06T08:44:28Z</time>
      </trkpt>
      <trkpt lat="43.71167" lon="3.0806">
        <ele>828</ele>
        <time>2014-06-06T08:44:30Z</time>
      </trkpt>
      <trkpt lat="43.71167" lon="3.0806">
        <ele>828.4000244</ele>
        <time>2014-06-06T08:44:31Z</time>
      </trkpt>
      <trkpt lat="43.71166" lon="3.08061">
        <ele>828.7999878</ele>
        <time>2014-06-06T08:44:32Z</time>
      </trkpt>
      <trkpt lat="43.71166" lon="3.08061">
        <ele>829.2000122</ele>
        <time>2014-06-06T08:44:33Z</time>
      </trkpt>
      <trkpt lat="43.71165" lon="3.08062">
        <ele>829.5999756</ele>
        <time>2014-06-06T08:44:34Z</time>
      </trkpt>
      <trkpt lat="43.71159" lon="3.0807">
        <ele>829.5999756</ele>
        <time>2014-06-06T08:44:39Z</time>
      </trkpt>
      <trkpt lat="43.71153" lon="3.08077">
        <ele>829.5999756</ele>
        <time>2014-06-06T08:44:44Z</time>
      </trkpt>
      <trkpt lat="43.71148" lon="3.08085">
        <ele>830.4000244</ele>
        <time>2014-06-06T08:44:47Z</time>
      </trkpt>
      <trkpt lat="43.71146" lon="3.08087">
        <ele>830.7999878</ele>
        <time>2014-06-06T08:44:48Z</time>
      </trkpt>
      <trkpt lat="43.71143" lon="3.0809">
        <ele>831.2000122</ele>
        <time>2014-06-06T08:44:49Z</time>
      </trkpt>
      <trkpt lat="43.71141" lon="3.08092">
        <ele>831.5999756</ele>
        <time>2014-06-06T08:44:50Z</time>
      </trkpt>
      <trkpt lat="43.71135" lon="3.08099">
        <ele>831.5999756</ele>
        <time>2014-06-06T08:44:54Z</time>
      </trkpt>
      <trkpt lat="43.7113" lon="3.08112">
        <ele>831.5999756</ele>
        <time>2014-06-06T08:45:00Z</time>
      </trkpt>
      <trkpt lat="43.71122" lon="3.08125">
        <ele>831.5999756</ele>
        <time>2014-06-06T08:45:06Z</time>
      </trkpt>
      <trkpt lat="43.7112" lon="3.08127">
        <ele>832</ele>
        <time>2014-06-06T08:45:07Z</time>
      </trkpt>
      <trkpt lat="43.71118" lon="3.08129">
        <ele>832.4000244</ele>
        <time>2014-06-06T08:45:08Z</time>
      </trkpt>
      <trkpt lat="43.71116" lon="3.08132">
        <ele>832.7999878</ele>
        <time>2014-06-06T08:45:09Z</time>
      </trkpt>
      <trkpt lat="43.71114" lon="3.08134">
        <ele>833.2000122</ele>
        <time>2014-06-06T08:45:10Z</time>
      </trkpt>
      <trkpt lat="43.71112" lon="3.08136">
        <ele>833.5999756</ele>
        <time>2014-06-06T08:45:11Z</time>
      </trkpt>
      <trkpt lat="43.71108" lon="3.08142">
        <ele>833.5999756</ele>
        <time>2014-06-06T08:45:14Z</time>
      </trkpt>
      <trkpt lat="43.71106" lon="3.08146">
        <ele>833.5999756</ele>
        <time>2014-06-06T08:45:16Z</time>
      </trkpt>
      <trkpt lat="43.71101" lon="3.08155">
        <ele>834</ele>
        <time>2014-06-06T08:45:21Z</time>
      </trkpt>
      <trkpt lat="43.711" lon="3.08158">
        <ele>834.5999756</ele>
        <time>2014-06-06T08:45:22Z</time>
      </trkpt>
      <trkpt lat="43.71098" lon="3.0816">
        <ele>835</ele>
        <time>2014-06-06T08:45:23Z</time>
      </trkpt>
      <trkpt lat="43.71097" lon="3.08163">
        <ele>835.4000244</ele>
        <time>2014-06-06T08:45:24Z</time>
      </trkpt>
      <trkpt lat="43.71096" lon="3.08165">
        <ele>835.7999878</ele>
        <time>2014-06-06T08:45:25Z</time>
      </trkpt>
      <trkpt lat="43.71093" lon="3.08172">
        <ele>835.7999878</ele>
        <time>2014-06-06T08:45:28Z</time>
      </trkpt>
      <trkpt lat="43.71086" lon="3.08182">
        <ele>835.7999878</ele>
        <time>2014-06-06T08:45:34Z</time>
      </trkpt>
      <trkpt lat="43.71084" lon="3.08185">
        <ele>836.2000122</ele>
        <time>2014-06-06T08:45:36Z</time>
      </trkpt>
      <trkpt lat="43.71083" lon="3.08187">
        <ele>837</ele>
        <time>2014-06-06T08:45:37Z</time>
      </trkpt>
      <trkpt lat="43.71082" lon="3.08189">
        <ele>837.4000244</ele>
        <time>2014-06-06T08:45:38Z</time>
      </trkpt>
      <trkpt lat="43.7108" lon="3.08192">
        <ele>837.7999878</ele>
        <time>2014-06-06T08:45:39Z</time>
      </trkpt>
      <trkpt lat="43.71079" lon="3.08195">
        <ele>837.7999878</ele>
        <time>2014-06-06T08:45:40Z</time>
      </trkpt>
      <trkpt lat="43.71071" lon="3.08212">
        <ele>837.7999878</ele>
        <time>2014-06-06T08:45:46Z</time>
      </trkpt>
      <trkpt lat="43.7107" lon="3.08216">
        <ele>837.7999878</ele>
        <time>2014-06-06T08:45:48Z</time>
      </trkpt>
      <trkpt lat="43.7107" lon="3.08222">
        <ele>837.7999878</ele>
        <time>2014-06-06T08:45:50Z</time>
      </trkpt>
      <trkpt lat="43.71067" lon="3.08233">
        <ele>837.7999878</ele>
        <time>2014-06-06T08:45:54Z</time>
      </trkpt>
      <trkpt lat="43.71058" lon="3.08254">
        <ele>837.7999878</ele>
        <time>2014-06-06T08:46:01Z</time>
      </trkpt>
      <trkpt lat="43.71051" lon="3.08274">
        <ele>837.7999878</ele>
        <time>2014-06-06T08:46:07Z</time>
      </trkpt>
      <trkpt lat="43.71051" lon="3.08284">
        <ele>838.2000122</ele>
        <time>2014-06-06T08:46:10Z</time>
      </trkpt>
      <trkpt lat="43.71051" lon="3.08288">
        <ele>838.5999756</ele>
        <time>2014-06-06T08:46:11Z</time>
      </trkpt>
      <trkpt lat="43.7105" lon="3.08291">
        <ele>839</ele>
        <time>2014-06-06T08:46:12Z</time>
      </trkpt>
      <trkpt lat="43.7105" lon="3.08294">
        <ele>839.4000244</ele>
        <time>2014-06-06T08:46:13Z</time>
      </trkpt>
      <trkpt lat="43.71049" lon="3.08298">
        <ele>839.7999878</ele>
        <time>2014-06-06T08:46:14Z</time>
      </trkpt>
      <trkpt lat="43.71049" lon="3.08301">
        <ele>839.7999878</ele>
        <time>2014-06-06T08:46:15Z</time>
      </trkpt>
      <trkpt lat="43.71049" lon="3.08311">
        <ele>839.7999878</ele>
        <time>2014-06-06T08:46:18Z</time>
      </trkpt>
      <trkpt lat="43.71049" lon="3.08314">
        <ele>839.7999878</ele>
        <time>2014-06-06T08:46:19Z</time>
      </trkpt>
      <trkpt lat="43.7106" lon="3.08331">
        <ele>839.7999878</ele>
        <time>2014-06-06T08:46:22Z</time>
      </trkpt>
      <trkpt lat="43.71074" lon="3.08348">
        <ele>839.7999878</ele>
        <time>2014-06-06T08:46:27Z</time>
      </trkpt>
      <trkpt lat="43.71068" lon="3.08363">
        <ele>839.7999878</ele>
        <time>2014-06-06T08:46:33Z</time>
      </trkpt>
      <trkpt lat="43.71066" lon="3.08367">
        <ele>840.2000122</ele>
        <time>2014-06-06T08:46:35Z</time>
      </trkpt>
      <trkpt lat="43.71065" lon="3.08369">
        <ele>840.5999756</ele>
        <time>2014-06-06T08:46:36Z</time>
      </trkpt>
      <trkpt lat="43.71064" lon="3.08371">
        <ele>841</ele>
        <time>2014-06-06T08:46:37Z</time>
      </trkpt>
      <trkpt lat="43.71063" lon="3.08373">
        <ele>841.4000244</ele>
        <time>2014-06-06T08:46:38Z</time>
      </trkpt>
      <trkpt lat="43.71061" lon="3.08375">
        <ele>841.7999878</ele>
        <time>2014-06-06T08:46:39Z</time>
      </trkpt>
      <trkpt lat="43.71052" lon="3.08388">
        <ele>841.7999878</ele>
        <time>2014-06-06T08:46:45Z</time>
      </trkpt>
      <trkpt lat="43.71042" lon="3.08393">
        <ele>841.7999878</ele>
        <time>2014-06-06T08:46:50Z</time>
      </trkpt>
      <trkpt lat="43.71041" lon="3.08391">
        <ele>842.2000122</ele>
        <time>2014-06-06T08:46:51Z</time>
      </trkpt>
      <trkpt lat="43.71041" lon="3.08389">
        <ele>842.7999878</ele>
        <time>2014-06-06T08:46:52Z</time>
      </trkpt>
      <trkpt lat="43.7104" lon="3.08386">
        <ele>843.2000122</ele>
        <time>2014-06-06T08:46:53Z</time>
      </trkpt>
      <trkpt lat="43.71041" lon="3.08384">
        <ele>843.5999756</ele>
        <time>2014-06-06T08:46:54Z</time>
      </trkpt>
      <trkpt lat="43.71042" lon="3.08382">
        <ele>844</ele>
        <time>2014-06-06T08:46:55Z</time>
      </trkpt>
      <trkpt lat="43.71049" lon="3.08373">
        <ele>844</ele>
        <time>2014-06-06T08:47:00Z</time>
      </trkpt>
      <trkpt lat="43.71057" lon="3.08363">
        <ele>844</ele>
        <time>2014-06-06T08:47:06Z</time>
      </trkpt>
      <trkpt lat="43.71058" lon="3.08361">
        <ele>844.4000244</ele>
        <time>2014-06-06T08:47:07Z</time>
      </trkpt>
      <trkpt lat="43.71059" lon="3.0836">
        <ele>844.7999878</ele>
        <time>2014-06-06T08:47:08Z</time>
      </trkpt>
      <trkpt lat="43.7106" lon="3.08358">
        <ele>845.2000122</ele>
        <time>2014-06-06T08:47:09Z</time>
      </trkpt>
      <trkpt lat="43.71061" lon="3.08356">
        <ele>845.5999756</ele>
        <time>2014-06-06T08:47:10Z</time>
      </trkpt>
      <trkpt lat="43.71062" lon="3.08355">
        <ele>846.2000122</ele>
        <time>2014-06-06T08:47:11Z</time>
      </trkpt>
      <trkpt lat="43.71063" lon="3.08353">
        <ele>846.2000122</ele>
        <time>2014-06-06T08:47:12Z</time>
      </trkpt>
      <trkpt lat="43.71065" lon="3.08342">
        <ele>846.5999756</ele>
        <time>2014-06-06T08:47:18Z</time>
      </trkpt>
      <trkpt lat="43.71066" lon="3.0834">
        <ele>847</ele>
        <time>2014-06-06T08:47:19Z</time>
      </trkpt>
      <trkpt lat="43.71066" lon="3.08338">
        <ele>847.4000244</ele>
        <time>2014-06-06T08:47:20Z</time>
      </trkpt>
      <trkpt lat="43.71066" lon="3.08336">
        <ele>847.7999878</ele>
        <time>2014-06-06T08:47:21Z</time>
      </trkpt>
      <trkpt lat="43.71066" lon="3.08334">
        <ele>848.2000122</ele>
        <time>2014-06-06T08:47:22Z</time>
      </trkpt>
      <trkpt lat="43.71066" lon="3.08326">
        <ele>848.2000122</ele>
        <time>2014-06-06T08:47:26Z</time>
      </trkpt>
      <trkpt lat="43.71067" lon="3.08318">
        <ele>848.5999756</ele>
        <time>2014-06-06T08:47:31Z</time>
      </trkpt>
      <trkpt lat="43.71066" lon="3.08316">
        <ele>849</ele>
        <time>2014-06-06T08:47:32Z</time>
      </trkpt>
      <trkpt lat="43.71067" lon="3.08315">
        <ele>849.4000244</ele>
        <time>2014-06-06T08:47:33Z</time>
      </trkpt>
      <trkpt lat="43.71067" lon="3.08314">
        <ele>849.7999878</ele>
        <time>2014-06-06T08:47:34Z</time>
      </trkpt>
      <trkpt lat="43.71067" lon="3.08312">
        <ele>850.2000122</ele>
        <time>2014-06-06T08:47:35Z</time>
      </trkpt>
      <trkpt lat="43.7107" lon="3.08303">
        <ele>850.2000122</ele>
        <time>2014-06-06T08:47:40Z</time>
      </trkpt>
      <trkpt lat="43.71071" lon="3.083">
        <ele>850.2000122</ele>
        <time>2014-06-06T08:47:42Z</time>
      </trkpt>
      <trkpt lat="43.71071" lon="3.08296">
        <ele>850.5999756</ele>
        <time>2014-06-06T08:47:44Z</time>
      </trkpt>
      <trkpt lat="43.71071" lon="3.08294">
        <ele>851.2000122</ele>
        <time>2014-06-06T08:47:45Z</time>
      </trkpt>
      <trkpt lat="43.71071" lon="3.08292">
        <ele>851.5999756</ele>
        <time>2014-06-06T08:47:46Z</time>
      </trkpt>
      <trkpt lat="43.71071" lon="3.0829">
        <ele>852</ele>
        <time>2014-06-06T08:47:47Z</time>
      </trkpt>
      <trkpt lat="43.71071" lon="3.08288">
        <ele>852.4000244</ele>
        <time>2014-06-06T08:47:48Z</time>
      </trkpt>
      <trkpt lat="43.71072" lon="3.0828">
        <ele>852.4000244</ele>
        <time>2014-06-06T08:47:53Z</time>
      </trkpt>
      <trkpt lat="43.71073" lon="3.08271">
        <ele>852.4000244</ele>
        <time>2014-06-06T08:47:58Z</time>
      </trkpt>
      <trkpt lat="43.71073" lon="3.0827">
        <ele>853</ele>
        <time>2014-06-06T08:47:59Z</time>
      </trkpt>
      <trkpt lat="43.71073" lon="3.08268">
        <ele>853.4000244</ele>
        <time>2014-06-06T08:48:00Z</time>
      </trkpt>
      <trkpt lat="43.71073" lon="3.08266">
        <ele>853.7999878</ele>
        <time>2014-06-06T08:48:01Z</time>
      </trkpt>
      <trkpt lat="43.71073" lon="3.08265">
        <ele>854.2000122</ele>
        <time>2014-06-06T08:48:02Z</time>
      </trkpt>
      <trkpt lat="43.71072" lon="3.08263">
        <ele>854.5999756</ele>
        <time>2014-06-06T08:48:03Z</time>
      </trkpt>
      <trkpt lat="43.71072" lon="3.08261">
        <ele>854.5999756</ele>
        <time>2014-06-06T08:48:04Z</time>
      </trkpt>
      <trkpt lat="43.71071" lon="3.08259">
        <ele>854.5999756</ele>
        <time>2014-06-06T08:48:05Z</time>
      </trkpt>
      <trkpt lat="43.71071" lon="3.08251">
        <ele>854.5999756</ele>
        <time>2014-06-06T08:48:09Z</time>
      </trkpt>
      <trkpt lat="43.7107" lon="3.08248">
        <ele>854.5999756</ele>
        <time>2014-06-06T08:48:11Z</time>
      </trkpt>
      <trkpt lat="43.7107" lon="3.08246">
        <ele>855</ele>
        <time>2014-06-06T08:48:13Z</time>
      </trkpt>
      <trkpt lat="43.7107" lon="3.08245">
        <ele>855.4000244</ele>
        <time>2014-06-06T08:48:14Z</time>
      </trkpt>
      <trkpt lat="43.71069" lon="3.08244">
        <ele>855.7999878</ele>
        <time>2014-06-06T08:48:15Z</time>
      </trkpt>
      <trkpt lat="43.71069" lon="3.08242">
        <ele>856.2000122</ele>
        <time>2014-06-06T08:48:16Z</time>
      </trkpt>
      <trkpt lat="43.71068" lon="3.0824">
        <ele>856.7999878</ele>
        <time>2014-06-06T08:48:17Z</time>
      </trkpt>
      <trkpt lat="43.71068" lon="3.08239">
        <ele>856.7999878</ele>
        <time>2014-06-06T08:48:18Z</time>
      </trkpt>
      <trkpt lat="43.71066" lon="3.08235">
        <ele>856.7999878</ele>
        <time>2014-06-06T08:48:21Z</time>
      </trkpt>
      <trkpt lat="43.71066" lon="3.08234">
        <ele>856.7999878</ele>
        <time>2014-06-06T08:48:22Z</time>
      </trkpt>
      <trkpt lat="43.71067" lon="3.0823">
        <ele>856.7999878</ele>
        <time>2014-06-06T08:48:24Z</time>
      </trkpt>
      <trkpt lat="43.71069" lon="3.08223">
        <ele>857.2000122</ele>
        <time>2014-06-06T08:48:28Z</time>
      </trkpt>
      <trkpt lat="43.7107" lon="3.08222">
        <ele>858</ele>
        <time>2014-06-06T08:48:29Z</time>
      </trkpt>
      <trkpt lat="43.7107" lon="3.0822">
        <ele>858.4000244</ele>
        <time>2014-06-06T08:48:30Z</time>
      </trkpt>
      <trkpt lat="43.7107" lon="3.08219">
        <ele>858.7999878</ele>
        <time>2014-06-06T08:48:31Z</time>
      </trkpt>
      <trkpt lat="43.7107" lon="3.08215">
        <ele>858.7999878</ele>
        <time>2014-06-06T08:48:33Z</time>
      </trkpt>
      <trkpt lat="43.7107" lon="3.08207">
        <ele>858.7999878</ele>
        <time>2014-06-06T08:48:37Z</time>
      </trkpt>
      <trkpt lat="43.71071" lon="3.08201">
        <ele>859.2000122</ele>
        <time>2014-06-06T08:48:40Z</time>
      </trkpt>
      <trkpt lat="43.71072" lon="3.08199">
        <ele>859.5999756</ele>
        <time>2014-06-06T08:48:41Z</time>
      </trkpt>
      <trkpt lat="43.71072" lon="3.08197">
        <ele>860</ele>
        <time>2014-06-06T08:48:42Z</time>
      </trkpt>
      <trkpt lat="43.71072" lon="3.08195">
        <ele>860.4000244</ele>
        <time>2014-06-06T08:48:43Z</time>
      </trkpt>
      <trkpt lat="43.71073" lon="3.08193">
        <ele>860.7999878</ele>
        <time>2014-06-06T08:48:44Z</time>
      </trkpt>
      <trkpt lat="43.71074" lon="3.08191">
        <ele>860.7999878</ele>
        <time>2014-06-06T08:48:45Z</time>
      </trkpt>
      <trkpt lat="43.71075" lon="3.08179">
        <ele>861.4000244</ele>
        <time>2014-06-06T08:48:52Z</time>
      </trkpt>
      <trkpt lat="43.71075" lon="3.08178">
        <ele>861.7999878</ele>
        <time>2014-06-06T08:48:53Z</time>
      </trkpt>
      <trkpt lat="43.71074" lon="3.08175">
        <ele>862.5999756</ele>
        <time>2014-06-06T08:48:54Z</time>
      </trkpt>
      <trkpt lat="43.71074" lon="3.08173">
        <ele>863</ele>
        <time>2014-06-06T08:48:55Z</time>
      </trkpt>
      <trkpt lat="43.71074" lon="3.08168">
        <ele>863</ele>
        <time>2014-06-06T08:48:58Z</time>
      </trkpt>
      <trkpt lat="43.71073" lon="3.08166">
        <ele>863</ele>
        <time>2014-06-06T08:48:59Z</time>
      </trkpt>
      <trkpt lat="43.71072" lon="3.08159">
        <ele>863</ele>
        <time>2014-06-06T08:49:04Z</time>
      </trkpt>
      <trkpt lat="43.71072" lon="3.08157">
        <ele>863.4000244</ele>
        <time>2014-06-06T08:49:05Z</time>
      </trkpt>
      <trkpt lat="43.71072" lon="3.08155">
        <ele>863.7999878</ele>
        <time>2014-06-06T08:49:06Z</time>
      </trkpt>
      <trkpt lat="43.71071" lon="3.08154">
        <ele>864.2000122</ele>
        <time>2014-06-06T08:49:07Z</time>
      </trkpt>
      <trkpt lat="43.71071" lon="3.08152">
        <ele>864.7999878</ele>
        <time>2014-06-06T08:49:08Z</time>
      </trkpt>
      <trkpt lat="43.71071" lon="3.08151">
        <ele>865.2000122</ele>
        <time>2014-06-06T08:49:09Z</time>
      </trkpt>
      <trkpt lat="43.71072" lon="3.08144">
        <ele>865.2000122</ele>
        <time>2014-06-06T08:49:13Z</time>
      </trkpt>
      <trkpt lat="43.71073" lon="3.08141">
        <ele>865.2000122</ele>
        <time>2014-06-06T08:49:15Z</time>
      </trkpt>
      <trkpt lat="43.71074" lon="3.08134">
        <ele>865.5999756</ele>
        <time>2014-06-06T08:49:19Z</time>
      </trkpt>
      <trkpt lat="43.71075" lon="3.08132">
        <ele>866</ele>
        <time>2014-06-06T08:49:20Z</time>
      </trkpt>
      <trkpt lat="43.71074" lon="3.0813">
        <ele>866.4000244</ele>
        <time>2014-06-06T08:49:21Z</time>
      </trkpt>
      <trkpt lat="43.71074" lon="3.08127">
        <ele>866.7999878</ele>
        <time>2014-06-06T08:49:22Z</time>
      </trkpt>
      <trkpt lat="43.71075" lon="3.08125">
        <ele>867.2000122</ele>
        <time>2014-06-06T08:49:23Z</time>
      </trkpt>
      <trkpt lat="43.71076" lon="3.08123">
        <ele>867.2000122</ele>
        <time>2014-06-06T08:49:25Z</time>
      </trkpt>
      <trkpt lat="43.71075" lon="3.08112">
        <ele>867.2000122</ele>
        <time>2014-06-06T08:49:33Z</time>
      </trkpt>
      <trkpt lat="43.71075" lon="3.08111">
        <ele>867.5999756</ele>
        <time>2014-06-06T08:49:34Z</time>
      </trkpt>
      <trkpt lat="43.71076" lon="3.0811">
        <ele>868</ele>
        <time>2014-06-06T08:49:35Z</time>
      </trkpt>
      <trkpt lat="43.71076" lon="3.08109">
        <ele>868.5999756</ele>
        <time>2014-06-06T08:49:36Z</time>
      </trkpt>
      <trkpt lat="43.71076" lon="3.08108">
        <ele>869</ele>
        <time>2014-06-06T08:49:37Z</time>
      </trkpt>
      <trkpt lat="43.71076" lon="3.08106">
        <ele>869.4000244</ele>
        <time>2014-06-06T08:49:38Z</time>
      </trkpt>
      <trkpt lat="43.71078" lon="3.081">
        <ele>869.4000244</ele>
        <time>2014-06-06T08:49:41Z</time>
      </trkpt>
      <trkpt lat="43.7108" lon="3.0809">
        <ele>869.7999878</ele>
        <time>2014-06-06T08:49:47Z</time>
      </trkpt>
      <trkpt lat="43.7108" lon="3.08089">
        <ele>870.2000122</ele>
        <time>2014-06-06T08:49:48Z</time>
      </trkpt>
      <trkpt lat="43.7108" lon="3.08088">
        <ele>870.5999756</ele>
        <time>2014-06-06T08:49:49Z</time>
      </trkpt>
      <trkpt lat="43.7108" lon="3.08087">
        <ele>871</ele>
        <time>2014-06-06T08:49:50Z</time>
      </trkpt>
      <trkpt lat="43.7108" lon="3.08085">
        <ele>871.4000244</ele>
        <time>2014-06-06T08:49:51Z</time>
      </trkpt>
      <trkpt lat="43.71083" lon="3.08077">
        <ele>871.4000244</ele>
        <time>2014-06-06T08:49:56Z</time>
      </trkpt>
      <trkpt lat="43.71083" lon="3.08073">
        <ele>871.4000244</ele>
        <time>2014-06-06T08:49:59Z</time>
      </trkpt>
      <trkpt lat="43.71083" lon="3.08071">
        <ele>871.7999878</ele>
        <time>2014-06-06T08:50:01Z</time>
      </trkpt>
      <trkpt lat="43.71083" lon="3.0807">
        <ele>872.2000122</ele>
        <time>2014-06-06T08:50:02Z</time>
      </trkpt>
      <trkpt lat="43.71083" lon="3.08069">
        <ele>872.5999756</ele>
        <time>2014-06-06T08:50:03Z</time>
      </trkpt>
      <trkpt lat="43.71083" lon="3.08068">
        <ele>873</ele>
        <time>2014-06-06T08:50:04Z</time>
      </trkpt>
      <trkpt lat="43.71084" lon="3.08067">
        <ele>873.5999756</ele>
        <time>2014-06-06T08:50:05Z</time>
      </trkpt>
      <trkpt lat="43.71085" lon="3.08065">
        <ele>873.5999756</ele>
        <time>2014-06-06T08:50:09Z</time>
      </trkpt>
      <trkpt lat="43.71085" lon="3.08062">
        <ele>873.5999756</ele>
        <time>2014-06-06T08:50:11Z</time>
      </trkpt>
      <trkpt lat="43.71085" lon="3.08061">
        <ele>874</ele>
        <time>2014-06-06T08:50:12Z</time>
      </trkpt>
      <trkpt lat="43.71085" lon="3.0806">
        <ele>874.4000244</ele>
        <time>2014-06-06T08:50:13Z</time>
      </trkpt>
      <trkpt lat="43.71085" lon="3.08058">
        <ele>874.7999878</ele>
        <time>2014-06-06T08:50:14Z</time>
      </trkpt>
      <trkpt lat="43.71085" lon="3.08056">
        <ele>875.2000122</ele>
        <time>2014-06-06T08:50:15Z</time>
      </trkpt>
      <trkpt lat="43.71085" lon="3.08054">
        <ele>875.5999756</ele>
        <time>2014-06-06T08:50:16Z</time>
      </trkpt>
      <trkpt lat="43.71086" lon="3.08052">
        <ele>875.5999756</ele>
        <time>2014-06-06T08:50:17Z</time>
      </trkpt>
      <trkpt lat="43.71087" lon="3.08049">
        <ele>875.5999756</ele>
        <time>2014-06-06T08:50:19Z</time>
      </trkpt>
      <trkpt lat="43.71087" lon="3.0804">
        <ele>876</ele>
        <time>2014-06-06T08:50:25Z</time>
      </trkpt>
      <trkpt lat="43.71087" lon="3.0804">
        <ele>876.4000244</ele>
        <time>2014-06-06T08:50:26Z</time>
      </trkpt>
      <trkpt lat="43.71088" lon="3.08038">
        <ele>876.7999878</ele>
        <time>2014-06-06T08:50:27Z</time>
      </trkpt>
      <trkpt lat="43.71089" lon="3.08035">
        <ele>877.2000122</ele>
        <time>2014-06-06T08:50:28Z</time>
      </trkpt>
      <trkpt lat="43.71089" lon="3.08033">
        <ele>877.5999756</ele>
        <time>2014-06-06T08:50:29Z</time>
      </trkpt>
      <trkpt lat="43.7109" lon="3.08029">
        <ele>877.5999756</ele>
        <time>2014-06-06T08:50:31Z</time>
      </trkpt>
      <trkpt lat="43.7109" lon="3.0802">
        <ele>877.5999756</ele>
        <time>2014-06-06T08:50:37Z</time>
      </trkpt>
      <trkpt lat="43.7109" lon="3.08018">
        <ele>878.2000122</ele>
        <time>2014-06-06T08:50:38Z</time>
      </trkpt>
      <trkpt lat="43.71091" lon="3.08016">
        <ele>878.5999756</ele>
        <time>2014-06-06T08:50:39Z</time>
      </trkpt>
      <trkpt lat="43.71091" lon="3.08014">
        <ele>879</ele>
        <time>2014-06-06T08:50:40Z</time>
      </trkpt>
      <trkpt lat="43.71092" lon="3.08011">
        <ele>879.4000244</ele>
        <time>2014-06-06T08:50:41Z</time>
      </trkpt>
      <trkpt lat="43.71093" lon="3.08009">
        <ele>879.7999878</ele>
        <time>2014-06-06T08:50:42Z</time>
      </trkpt>
      <trkpt lat="43.71095" lon="3.08003">
        <ele>879.7999878</ele>
        <time>2014-06-06T08:50:45Z</time>
      </trkpt>
      <trkpt lat="43.71099" lon="3.07995">
        <ele>880.2000122</ele>
        <time>2014-06-06T08:50:50Z</time>
      </trkpt>
      <trkpt lat="43.71099" lon="3.07993">
        <ele>880.5999756</ele>
        <time>2014-06-06T08:50:51Z</time>
      </trkpt>
      <trkpt lat="43.711" lon="3.07992">
        <ele>881</ele>
        <time>2014-06-06T08:50:52Z</time>
      </trkpt>
      <trkpt lat="43.71101" lon="3.07991">
        <ele>881.4000244</ele>
        <time>2014-06-06T08:50:53Z</time>
      </trkpt>
      <trkpt lat="43.71102" lon="3.07989">
        <ele>881.7999878</ele>
        <time>2014-06-06T08:50:54Z</time>
      </trkpt>
      <trkpt lat="43.71104" lon="3.07986">
        <ele>881.7999878</ele>
        <time>2014-06-06T08:50:57Z</time>
      </trkpt>
      <trkpt lat="43.71106" lon="3.07986">
        <ele>881.7999878</ele>
        <time>2014-06-06T08:50:58Z</time>
      </trkpt>
      <trkpt lat="43.71108" lon="3.07984">
        <ele>882.2000122</ele>
        <time>2014-06-06T08:51:00Z</time>
      </trkpt>
      <trkpt lat="43.7111" lon="3.07983">
        <ele>882.5999756</ele>
        <time>2014-06-06T08:51:01Z</time>
      </trkpt>
      <trkpt lat="43.71111" lon="3.07982">
        <ele>883</ele>
        <time>2014-06-06T08:51:02Z</time>
      </trkpt>
      <trkpt lat="43.71112" lon="3.07981">
        <ele>883.4000244</ele>
        <time>2014-06-06T08:51:03Z</time>
      </trkpt>
      <trkpt lat="43.71113" lon="3.0798">
        <ele>884</ele>
        <time>2014-06-06T08:51:04Z</time>
      </trkpt>
      <trkpt lat="43.71115" lon="3.07979">
        <ele>884</ele>
        <time>2014-06-06T08:51:05Z</time>
      </trkpt>
      <trkpt lat="43.71126" lon="3.07972">
        <ele>884</ele>
        <time>2014-06-06T08:51:13Z</time>
      </trkpt>
      <trkpt lat="43.71133" lon="3.07966">
        <ele>884</ele>
        <time>2014-06-06T08:51:19Z</time>
      </trkpt>
      <trkpt lat="43.71137" lon="3.0796">
        <ele>884.4000244</ele>
        <time>2014-06-06T08:51:23Z</time>
      </trkpt>
      <trkpt lat="43.71138" lon="3.07958">
        <ele>884.7999878</ele>
        <time>2014-06-06T08:51:24Z</time>
      </trkpt>
      <trkpt lat="43.71139" lon="3.07956">
        <ele>885.2000122</ele>
        <time>2014-06-06T08:51:25Z</time>
      </trkpt>
      <trkpt lat="43.71141" lon="3.07955">
        <ele>885.5999756</ele>
        <time>2014-06-06T08:51:26Z</time>
      </trkpt>
      <trkpt lat="43.71142" lon="3.07953">
        <ele>886</ele>
        <time>2014-06-06T08:51:27Z</time>
      </trkpt>
      <trkpt lat="43.71146" lon="3.07945">
        <ele>886</ele>
        <time>2014-06-06T08:51:31Z</time>
      </trkpt>
      <trkpt lat="43.71151" lon="3.07936">
        <ele>886</ele>
        <time>2014-06-06T08:51:37Z</time>
      </trkpt>
      <trkpt lat="43.71156" lon="3.07933">
        <ele>886</ele>
        <time>2014-06-06T08:51:41Z</time>
      </trkpt>
      <trkpt lat="43.71156" lon="3.07933">
        <ele>886</ele>
        <time>2014-06-06T08:51:42Z</time>
      </trkpt>
      <trkpt lat="43.71156" lon="3.07933">
        <ele>886</ele>
        <time>2014-06-06T08:51:43Z</time>
      </trkpt>
      <trkpt lat="43.71151" lon="3.07931">
        <ele>888</ele>
        <time>2014-06-06T08:53:58Z</time>
      </trkpt>
      <trkpt lat="43.71149" lon="3.0793">
        <ele>888</ele>
        <time>2014-06-06T08:53:59Z</time>
      </trkpt>
      <trkpt lat="43.71146" lon="3.07928">
        <ele>888</ele>
        <time>2014-06-06T08:54:00Z</time>
      </trkpt>
      <trkpt lat="43.71135" lon="3.07927">
        <ele>888</ele>
        <time>2014-06-06T08:54:03Z</time>
      </trkpt>
      <trkpt lat="43.71126" lon="3.07928">
        <ele>888</ele>
        <time>2014-06-06T08:54:05Z</time>
      </trkpt>
      <trkpt lat="43.71116" lon="3.07928">
        <ele>887.5999756</ele>
        <time>2014-06-06T08:54:07Z</time>
      </trkpt>
      <trkpt lat="43.7111" lon="3.07928">
        <ele>887.2000122</ele>
        <time>2014-06-06T08:54:08Z</time>
      </trkpt>
      <trkpt lat="43.71105" lon="3.07928">
        <ele>886.7999878</ele>
        <time>2014-06-06T08:54:09Z</time>
      </trkpt>
      <trkpt lat="43.711" lon="3.07927">
        <ele>886.4000244</ele>
        <time>2014-06-06T08:54:10Z</time>
      </trkpt>
      <trkpt lat="43.71095" lon="3.07926">
        <ele>885.7999878</ele>
        <time>2014-06-06T08:54:11Z</time>
      </trkpt>
      <trkpt lat="43.7109" lon="3.07925">
        <ele>885.2000122</ele>
        <time>2014-06-06T08:54:12Z</time>
      </trkpt>
      <trkpt lat="43.71084" lon="3.07923">
        <ele>884.5999756</ele>
        <time>2014-06-06T08:54:13Z</time>
      </trkpt>
      <trkpt lat="43.71078" lon="3.07921">
        <ele>884.2000122</ele>
        <time>2014-06-06T08:54:14Z</time>
      </trkpt>
      <trkpt lat="43.71073" lon="3.07918">
        <ele>883</ele>
        <time>2014-06-06T08:54:15Z</time>
      </trkpt>
      <trkpt lat="43.71067" lon="3.07915">
        <ele>882.4000244</ele>
        <time>2014-06-06T08:54:16Z</time>
      </trkpt>
      <trkpt lat="43.71062" lon="3.07911">
        <ele>882</ele>
        <time>2014-06-06T08:54:17Z</time>
      </trkpt>
      <trkpt lat="43.71056" lon="3.07907">
        <ele>881.4000244</ele>
        <time>2014-06-06T08:54:18Z</time>
      </trkpt>
      <trkpt lat="43.7105" lon="3.07903">
        <ele>881</ele>
        <time>2014-06-06T08:54:19Z</time>
      </trkpt>
      <trkpt lat="43.71045" lon="3.07899">
        <ele>880.4000244</ele>
        <time>2014-06-06T08:54:20Z</time>
      </trkpt>
      <trkpt lat="43.71039" lon="3.07894">
        <ele>880</ele>
        <time>2014-06-06T08:54:21Z</time>
      </trkpt>
      <trkpt lat="43.71034" lon="3.07888">
        <ele>879.5999756</ele>
        <time>2014-06-06T08:54:22Z</time>
      </trkpt>
      <trkpt lat="43.71029" lon="3.07882">
        <ele>879.2000122</ele>
        <time>2014-06-06T08:54:23Z</time>
      </trkpt>
      <trkpt lat="43.71024" lon="3.07875">
        <ele>879.2000122</ele>
        <time>2014-06-06T08:54:24Z</time>
      </trkpt>
      <trkpt lat="43.71019" lon="3.07869">
        <ele>878.5999756</ele>
        <time>2014-06-06T08:54:25Z</time>
      </trkpt>
      <trkpt lat="43.71014" lon="3.07862">
        <ele>878.2000122</ele>
        <time>2014-06-06T08:54:26Z</time>
      </trkpt>
      <trkpt lat="43.7101" lon="3.07854">
        <ele>877.7999878</ele>
        <time>2014-06-06T08:54:27Z</time>
      </trkpt>
      <trkpt lat="43.71006" lon="3.07846">
        <ele>877.4000244</ele>
        <time>2014-06-06T08:54:28Z</time>
      </trkpt>
      <trkpt lat="43.71003" lon="3.0784">
        <ele>876.7999878</ele>
        <time>2014-06-06T08:54:29Z</time>
      </trkpt>
      <trkpt lat="43.71001" lon="3.07829">
        <ele>876.4000244</ele>
        <time>2014-06-06T08:54:30Z</time>
      </trkpt>
      <trkpt lat="43.71001" lon="3.0782">
        <ele>875.7999878</ele>
        <time>2014-06-06T08:54:31Z</time>
      </trkpt>
      <trkpt lat="43.71002" lon="3.07811">
        <ele>875.4000244</ele>
        <time>2014-06-06T08:54:32Z</time>
      </trkpt>
      <trkpt lat="43.71003" lon="3.07801">
        <ele>875</ele>
        <time>2014-06-06T08:54:33Z</time>
      </trkpt>
      <trkpt lat="43.71004" lon="3.07792">
        <ele>874.4000244</ele>
        <time>2014-06-06T08:54:34Z</time>
      </trkpt>
      <trkpt lat="43.71003" lon="3.07782">
        <ele>874</ele>
        <time>2014-06-06T08:54:35Z</time>
      </trkpt>
      <trkpt lat="43.71001" lon="3.07775">
        <ele>873.5999756</ele>
        <time>2014-06-06T08:54:36Z</time>
      </trkpt>
      <trkpt lat="43.70997" lon="3.07769">
        <ele>873.2000122</ele>
        <time>2014-06-06T08:54:37Z</time>
      </trkpt>
      <trkpt lat="43.70993" lon="3.07765">
        <ele>872.7999878</ele>
        <time>2014-06-06T08:54:38Z</time>
      </trkpt>
      <trkpt lat="43.70988" lon="3.07762">
        <ele>872.4000244</ele>
        <time>2014-06-06T08:54:39Z</time>
      </trkpt>
      <trkpt lat="43.70982" lon="3.0776">
        <ele>871.7999878</ele>
        <time>2014-06-06T08:54:40Z</time>
      </trkpt>
      <trkpt lat="43.70976" lon="3.07758">
        <ele>871.4000244</ele>
        <time>2014-06-06T08:54:41Z</time>
      </trkpt>
      <trkpt lat="43.70971" lon="3.07756">
        <ele>871</ele>
        <time>2014-06-06T08:54:42Z</time>
      </trkpt>
      <trkpt lat="43.70965" lon="3.07753">
        <ele>870.4000244</ele>
        <time>2014-06-06T08:54:43Z</time>
      </trkpt>
      <trkpt lat="43.70959" lon="3.07751">
        <ele>870</ele>
        <time>2014-06-06T08:54:44Z</time>
      </trkpt>
      <trkpt lat="43.70953" lon="3.0775">
        <ele>870</ele>
        <time>2014-06-06T08:54:45Z</time>
      </trkpt>
      <trkpt lat="43.70947" lon="3.0775">
        <ele>870</ele>
        <time>2014-06-06T08:54:46Z</time>
      </trkpt>
      <trkpt lat="43.70935" lon="3.07752">
        <ele>870</ele>
        <time>2014-06-06T08:54:48Z</time>
      </trkpt>
      <trkpt lat="43.70929" lon="3.07755">
        <ele>870</ele>
        <time>2014-06-06T08:54:49Z</time>
      </trkpt>
      <trkpt lat="43.70917" lon="3.07763">
        <ele>869.5999756</ele>
        <time>2014-06-06T08:54:51Z</time>
      </trkpt>
      <trkpt lat="43.70911" lon="3.07766">
        <ele>869.2000122</ele>
        <time>2014-06-06T08:54:52Z</time>
      </trkpt>
      <trkpt lat="43.70905" lon="3.07768">
        <ele>868.7999878</ele>
        <time>2014-06-06T08:54:53Z</time>
      </trkpt>
      <trkpt lat="43.70899" lon="3.07769">
        <ele>868.4000244</ele>
        <time>2014-06-06T08:54:54Z</time>
      </trkpt>
      <trkpt lat="43.70892" lon="3.07768">
        <ele>868</ele>
        <time>2014-06-06T08:54:55Z</time>
      </trkpt>
      <trkpt lat="43.70879" lon="3.07764">
        <ele>867.5999756</ele>
        <time>2014-06-06T08:54:57Z</time>
      </trkpt>
      <trkpt lat="43.70872" lon="3.07761">
        <ele>867</ele>
        <time>2014-06-06T08:54:58Z</time>
      </trkpt>
      <trkpt lat="43.70865" lon="3.07758">
        <ele>866.5999756</ele>
        <time>2014-06-06T08:54:59Z</time>
      </trkpt>
      <trkpt lat="43.70858" lon="3.07755">
        <ele>866</ele>
        <time>2014-06-06T08:55:00Z</time>
      </trkpt>
      <trkpt lat="43.70851" lon="3.07752">
        <ele>865.5999756</ele>
        <time>2014-06-06T08:55:01Z</time>
      </trkpt>
      <trkpt lat="43.7083" lon="3.07746">
        <ele>864.5999756</ele>
        <time>2014-06-06T08:55:04Z</time>
      </trkpt>
      <trkpt lat="43.70823" lon="3.07746">
        <ele>864.2000122</ele>
        <time>2014-06-06T08:55:05Z</time>
      </trkpt>
      <trkpt lat="43.70817" lon="3.07747">
        <ele>863.7999878</ele>
        <time>2014-06-06T08:55:06Z</time>
      </trkpt>
      <trkpt lat="43.70813" lon="3.07747">
        <ele>863.4000244</ele>
        <time>2014-06-06T08:55:07Z</time>
      </trkpt>
      <trkpt lat="43.7081" lon="3.07747">
        <ele>863.4000244</ele>
        <time>2014-06-06T08:55:08Z</time>
      </trkpt>
      <trkpt lat="43.70809" lon="3.07747">
        <ele>863.4000244</ele>
        <time>2014-06-06T08:55:09Z</time>
      </trkpt>
      <trkpt lat="43.70806" lon="3.07747">
        <ele>863.4000244</ele>
        <time>2014-06-06T08:55:11Z</time>
      </trkpt>
      <trkpt lat="43.70802" lon="3.07746">
        <ele>863.4000244</ele>
        <time>2014-06-06T08:55:15Z</time>
      </trkpt>
      <trkpt lat="43.70801" lon="3.07747">
        <ele>863.4000244</ele>
        <time>2014-06-06T08:55:16Z</time>
      </trkpt>
      <trkpt lat="43.70802" lon="3.07752">
        <ele>863.4000244</ele>
        <time>2014-06-06T08:55:20Z</time>
      </trkpt>
      <trkpt lat="43.70806" lon="3.07749">
        <ele>863.4000244</ele>
        <time>2014-06-06T08:55:24Z</time>
      </trkpt>
      <trkpt lat="43.70805" lon="3.07745">
        <ele>863.4000244</ele>
        <time>2014-06-06T08:55:26Z</time>
      </trkpt>
      <trkpt lat="43.70803" lon="3.07744">
        <ele>863.4000244</ele>
        <time>2014-06-06T08:55:27Z</time>
      </trkpt>
      <trkpt lat="43.70793" lon="3.07745">
        <ele>863.4000244</ele>
        <time>2014-06-06T08:55:31Z</time>
      </trkpt>
      <trkpt lat="43.70791" lon="3.07743">
        <ele>863.4000244</ele>
        <time>2014-06-06T08:55:32Z</time>
      </trkpt>
      <trkpt lat="43.70781" lon="3.0774">
        <ele>863.4000244</ele>
        <time>2014-06-06T08:55:36Z</time>
      </trkpt>
      <trkpt lat="43.70774" lon="3.07738">
        <ele>863.4000244</ele>
        <time>2014-06-06T08:55:39Z</time>
      </trkpt>
      <trkpt lat="43.70767" lon="3.07734">
        <ele>863.4000244</ele>
        <time>2014-06-06T08:55:42Z</time>
      </trkpt>
      <trkpt lat="43.70756" lon="3.07726">
        <ele>863.4000244</ele>
        <time>2014-06-06T08:55:46Z</time>
      </trkpt>
      <trkpt lat="43.70747" lon="3.07712">
        <ele>863.4000244</ele>
        <time>2014-06-06T08:55:51Z</time>
      </trkpt>
      <trkpt lat="43.70745" lon="3.07709">
        <ele>863.4000244</ele>
        <time>2014-06-06T08:55:52Z</time>
      </trkpt>
      <trkpt lat="43.70743" lon="3.07701">
        <ele>863.7999878</ele>
        <time>2014-06-06T08:55:54Z</time>
      </trkpt>
      <trkpt lat="43.70742" lon="3.07697">
        <ele>864.2000122</ele>
        <time>2014-06-06T08:55:55Z</time>
      </trkpt>
      <trkpt lat="43.70742" lon="3.07693">
        <ele>864.5999756</ele>
        <time>2014-06-06T08:55:56Z</time>
      </trkpt>
      <trkpt lat="43.70741" lon="3.07689">
        <ele>865</ele>
        <time>2014-06-06T08:55:57Z</time>
      </trkpt>
      <trkpt lat="43.7074" lon="3.07684">
        <ele>865.4000244</ele>
        <time>2014-06-06T08:55:58Z</time>
      </trkpt>
      <trkpt lat="43.70738" lon="3.07659">
        <ele>865.4000244</ele>
        <time>2014-06-06T08:56:04Z</time>
      </trkpt>
      <trkpt lat="43.70738" lon="3.07655">
        <ele>865.4000244</ele>
        <time>2014-06-06T08:56:05Z</time>
      </trkpt>
      <trkpt lat="43.70738" lon="3.0764">
        <ele>865.4000244</ele>
        <time>2014-06-06T08:56:10Z</time>
      </trkpt>
      <trkpt lat="43.70738" lon="3.07637">
        <ele>865.4000244</ele>
        <time>2014-06-06T08:56:11Z</time>
      </trkpt>
      <trkpt lat="43.70739" lon="3.07633">
        <ele>865.7999878</ele>
        <time>2014-06-06T08:56:12Z</time>
      </trkpt>
      <trkpt lat="43.70739" lon="3.0763">
        <ele>866.2000122</ele>
        <time>2014-06-06T08:56:13Z</time>
      </trkpt>
      <trkpt lat="43.70738" lon="3.07626">
        <ele>866.5999756</ele>
        <time>2014-06-06T08:56:14Z</time>
      </trkpt>
      <trkpt lat="43.70737" lon="3.07623">
        <ele>867</ele>
        <time>2014-06-06T08:56:15Z</time>
      </trkpt>
      <trkpt lat="43.70737" lon="3.0762">
        <ele>867.4000244</ele>
        <time>2014-06-06T08:56:16Z</time>
      </trkpt>
      <trkpt lat="43.70736" lon="3.07617">
        <ele>867.4000244</ele>
        <time>2014-06-06T08:56:17Z</time>
      </trkpt>
      <trkpt lat="43.70735" lon="3.07596">
        <ele>867.4000244</ele>
        <time>2014-06-06T08:56:23Z</time>
      </trkpt>
      <trkpt lat="43.70732" lon="3.07577">
        <ele>868</ele>
        <time>2014-06-06T08:56:29Z</time>
      </trkpt>
      <trkpt lat="43.70732" lon="3.07574">
        <ele>868.4000244</ele>
        <time>2014-06-06T08:56:30Z</time>
      </trkpt>
      <trkpt lat="43.70732" lon="3.07571">
        <ele>868.7999878</ele>
        <time>2014-06-06T08:56:31Z</time>
      </trkpt>
      <trkpt lat="43.70732" lon="3.07568">
        <ele>869.2000122</ele>
        <time>2014-06-06T08:56:32Z</time>
      </trkpt>
      <trkpt lat="43.70732" lon="3.07566">
        <ele>869.5999756</ele>
        <time>2014-06-06T08:56:33Z</time>
      </trkpt>
      <trkpt lat="43.70735" lon="3.07557">
        <ele>869.5999756</ele>
        <time>2014-06-06T08:56:36Z</time>
      </trkpt>
      <trkpt lat="43.70739" lon="3.0754">
        <ele>870</ele>
        <time>2014-06-06T08:56:41Z</time>
      </trkpt>
      <trkpt lat="43.70739" lon="3.07537">
        <ele>870.4000244</ele>
        <time>2014-06-06T08:56:42Z</time>
      </trkpt>
      <trkpt lat="43.70739" lon="3.07534">
        <ele>871.2000122</ele>
        <time>2014-06-06T08:56:43Z</time>
      </trkpt>
      <trkpt lat="43.70739" lon="3.07532">
        <ele>871.5999756</ele>
        <time>2014-06-06T08:56:44Z</time>
      </trkpt>
      <trkpt lat="43.70739" lon="3.07522">
        <ele>871.5999756</ele>
        <time>2014-06-06T08:56:48Z</time>
      </trkpt>
      <trkpt lat="43.70742" lon="3.07505">
        <ele>872.2000122</ele>
        <time>2014-06-06T08:56:55Z</time>
      </trkpt>
      <trkpt lat="43.70742" lon="3.07502">
        <ele>872.5999756</ele>
        <time>2014-06-06T08:56:56Z</time>
      </trkpt>
      <trkpt lat="43.70742" lon="3.075">
        <ele>873</ele>
        <time>2014-06-06T08:56:57Z</time>
      </trkpt>
      <trkpt lat="43.70742" lon="3.07498">
        <ele>873.4000244</ele>
        <time>2014-06-06T08:56:58Z</time>
      </trkpt>
      <trkpt lat="43.70743" lon="3.07495">
        <ele>874</ele>
        <time>2014-06-06T08:56:59Z</time>
      </trkpt>
      <trkpt lat="43.70742" lon="3.07493">
        <ele>874</ele>
        <time>2014-06-06T08:57:00Z</time>
      </trkpt>
      <trkpt lat="43.70741" lon="3.07492">
        <ele>874</ele>
        <time>2014-06-06T08:57:01Z</time>
      </trkpt>
      <trkpt lat="43.70742" lon="3.07485">
        <ele>874</ele>
        <time>2014-06-06T08:57:04Z</time>
      </trkpt>
      <trkpt lat="43.70743" lon="3.07483">
        <ele>874.4000244</ele>
        <time>2014-06-06T08:57:05Z</time>
      </trkpt>
      <trkpt lat="43.70743" lon="3.07481">
        <ele>874.7999878</ele>
        <time>2014-06-06T08:57:06Z</time>
      </trkpt>
      <trkpt lat="43.70743" lon="3.07479">
        <ele>875.5999756</ele>
        <time>2014-06-06T08:57:07Z</time>
      </trkpt>
      <trkpt lat="43.70743" lon="3.07477">
        <ele>876</ele>
        <time>2014-06-06T08:57:08Z</time>
      </trkpt>
      <trkpt lat="43.70743" lon="3.07473">
        <ele>876</ele>
        <time>2014-06-06T08:57:10Z</time>
      </trkpt>
      <trkpt lat="43.70742" lon="3.07466">
        <ele>876</ele>
        <time>2014-06-06T08:57:13Z</time>
      </trkpt>
      <trkpt lat="43.70742" lon="3.07459">
        <ele>876</ele>
        <time>2014-06-06T08:57:16Z</time>
      </trkpt>
      <trkpt lat="43.7074" lon="3.07452">
        <ele>876.4000244</ele>
        <time>2014-06-06T08:57:20Z</time>
      </trkpt>
      <trkpt lat="43.7074" lon="3.0745">
        <ele>876.7999878</ele>
        <time>2014-06-06T08:57:21Z</time>
      </trkpt>
      <trkpt lat="43.70739" lon="3.07448">
        <ele>877.2000122</ele>
        <time>2014-06-06T08:57:22Z</time>
      </trkpt>
      <trkpt lat="43.70739" lon="3.07445">
        <ele>877.5999756</ele>
        <time>2014-06-06T08:57:23Z</time>
      </trkpt>
      <trkpt lat="43.70739" lon="3.07443">
        <ele>878</ele>
        <time>2014-06-06T08:57:24Z</time>
      </trkpt>
      <trkpt lat="43.7074" lon="3.07433">
        <ele>878</ele>
        <time>2014-06-06T08:57:28Z</time>
      </trkpt>
      <trkpt lat="43.70735" lon="3.07418">
        <ele>878.4000244</ele>
        <time>2014-06-06T08:57:34Z</time>
      </trkpt>
      <trkpt lat="43.70735" lon="3.07415">
        <ele>878.7999878</ele>
        <time>2014-06-06T08:57:35Z</time>
      </trkpt>
      <trkpt lat="43.70734" lon="3.07413">
        <ele>879.2000122</ele>
        <time>2014-06-06T08:57:36Z</time>
      </trkpt>
      <trkpt lat="43.70733" lon="3.0741">
        <ele>879.7999878</ele>
        <time>2014-06-06T08:57:37Z</time>
      </trkpt>
      <trkpt lat="43.70733" lon="3.07408">
        <ele>880.2000122</ele>
        <time>2014-06-06T08:57:38Z</time>
      </trkpt>
      <trkpt lat="43.70732" lon="3.07402">
        <ele>880.2000122</ele>
        <time>2014-06-06T08:57:41Z</time>
      </trkpt>
      <trkpt lat="43.70731" lon="3.07386">
        <ele>880.2000122</ele>
        <time>2014-06-06T08:57:48Z</time>
      </trkpt>
      <trkpt lat="43.7073" lon="3.07383">
        <ele>880.5999756</ele>
        <time>2014-06-06T08:57:49Z</time>
      </trkpt>
      <trkpt lat="43.7073" lon="3.07381">
        <ele>881</ele>
        <time>2014-06-06T08:57:50Z</time>
      </trkpt>
      <trkpt lat="43.7073" lon="3.07379">
        <ele>881.4000244</ele>
        <time>2014-06-06T08:57:51Z</time>
      </trkpt>
      <trkpt lat="43.70729" lon="3.07376">
        <ele>881.7999878</ele>
        <time>2014-06-06T08:57:52Z</time>
      </trkpt>
      <trkpt lat="43.70729" lon="3.07374">
        <ele>882.2000122</ele>
        <time>2014-06-06T08:57:53Z</time>
      </trkpt>
      <trkpt lat="43.70729" lon="3.07371">
        <ele>882.2000122</ele>
        <time>2014-06-06T08:57:54Z</time>
      </trkpt>
      <trkpt lat="43.70726" lon="3.07357">
        <ele>882.2000122</ele>
        <time>2014-06-06T08:58:00Z</time>
      </trkpt>
      <trkpt lat="43.70726" lon="3.07354">
        <ele>882.5999756</ele>
        <time>2014-06-06T08:58:01Z</time>
      </trkpt>
      <trkpt lat="43.70724" lon="3.07351">
        <ele>883</ele>
        <time>2014-06-06T08:58:02Z</time>
      </trkpt>
      <trkpt lat="43.70723" lon="3.07349">
        <ele>883.5999756</ele>
        <time>2014-06-06T08:58:03Z</time>
      </trkpt>
      <trkpt lat="43.70722" lon="3.07347">
        <ele>884</ele>
        <time>2014-06-06T08:58:04Z</time>
      </trkpt>
      <trkpt lat="43.70721" lon="3.07344">
        <ele>884.4000244</ele>
        <time>2014-06-06T08:58:05Z</time>
      </trkpt>
      <trkpt lat="43.7072" lon="3.07342">
        <ele>884.4000244</ele>
        <time>2014-06-06T08:58:06Z</time>
      </trkpt>
      <trkpt lat="43.70716" lon="3.07335">
        <ele>884.4000244</ele>
        <time>2014-06-06T08:58:10Z</time>
      </trkpt>
      <trkpt lat="43.70714" lon="3.07332">
        <ele>884.4000244</ele>
        <time>2014-06-06T08:58:12Z</time>
      </trkpt>
      <trkpt lat="43.70713" lon="3.07329">
        <ele>884.7999878</ele>
        <time>2014-06-06T08:58:13Z</time>
      </trkpt>
      <trkpt lat="43.70712" lon="3.07328">
        <ele>885.2000122</ele>
        <time>2014-06-06T08:58:14Z</time>
      </trkpt>
      <trkpt lat="43.70712" lon="3.07326">
        <ele>885.7999878</ele>
        <time>2014-06-06T08:58:15Z</time>
      </trkpt>
      <trkpt lat="43.70711" lon="3.07324">
        <ele>886.2000122</ele>
        <time>2014-06-06T08:58:16Z</time>
      </trkpt>
      <trkpt lat="43.7071" lon="3.07323">
        <ele>886.5999756</ele>
        <time>2014-06-06T08:58:17Z</time>
      </trkpt>
      <trkpt lat="43.70708" lon="3.07319">
        <ele>886.5999756</ele>
        <time>2014-06-06T08:58:19Z</time>
      </trkpt>
      <trkpt lat="43.70705" lon="3.07311">
        <ele>886.5999756</ele>
        <time>2014-06-06T08:58:23Z</time>
      </trkpt>
      <trkpt lat="43.70704" lon="3.07307">
        <ele>887</ele>
        <time>2014-06-06T08:58:25Z</time>
      </trkpt>
      <trkpt lat="43.70703" lon="3.07305">
        <ele>887.4000244</ele>
        <time>2014-06-06T08:58:26Z</time>
      </trkpt>
      <trkpt lat="43.70703" lon="3.07303">
        <ele>887.7999878</ele>
        <time>2014-06-06T08:58:27Z</time>
      </trkpt>
      <trkpt lat="43.70702" lon="3.07301">
        <ele>888.2000122</ele>
        <time>2014-06-06T08:58:28Z</time>
      </trkpt>
      <trkpt lat="43.70701" lon="3.073">
        <ele>888.5999756</ele>
        <time>2014-06-06T08:58:29Z</time>
      </trkpt>
      <trkpt lat="43.70698" lon="3.07295">
        <ele>888.5999756</ele>
        <time>2014-06-06T08:58:32Z</time>
      </trkpt>
      <trkpt lat="43.70692" lon="3.07282">
        <ele>888.5999756</ele>
        <time>2014-06-06T08:58:39Z</time>
      </trkpt>
      <trkpt lat="43.7069" lon="3.07281">
        <ele>889</ele>
        <time>2014-06-06T08:58:40Z</time>
      </trkpt>
      <trkpt lat="43.7069" lon="3.07279">
        <ele>889.4000244</ele>
        <time>2014-06-06T08:58:41Z</time>
      </trkpt>
      <trkpt lat="43.70689" lon="3.07278">
        <ele>889.7999878</ele>
        <time>2014-06-06T08:58:42Z</time>
      </trkpt>
      <trkpt lat="43.70689" lon="3.07276">
        <ele>890.2000122</ele>
        <time>2014-06-06T08:58:43Z</time>
      </trkpt>
      <trkpt lat="43.70689" lon="3.07275">
        <ele>890.5999756</ele>
        <time>2014-06-06T08:58:44Z</time>
      </trkpt>
      <trkpt lat="43.70689" lon="3.07273">
        <ele>890.5999756</ele>
        <time>2014-06-06T08:58:45Z</time>
      </trkpt>
      <trkpt lat="43.70688" lon="3.07269">
        <ele>890.5999756</ele>
        <time>2014-06-06T08:58:47Z</time>
      </trkpt>
      <trkpt lat="43.70687" lon="3.07265">
        <ele>890.5999756</ele>
        <time>2014-06-06T08:58:49Z</time>
      </trkpt>
      <trkpt lat="43.70685" lon="3.07259">
        <ele>891</ele>
        <time>2014-06-06T08:58:52Z</time>
      </trkpt>
      <trkpt lat="43.70684" lon="3.07257">
        <ele>891.4000244</ele>
        <time>2014-06-06T08:58:53Z</time>
      </trkpt>
      <trkpt lat="43.70684" lon="3.07255">
        <ele>892</ele>
        <time>2014-06-06T08:58:54Z</time>
      </trkpt>
      <trkpt lat="43.70685" lon="3.07253">
        <ele>892.4000244</ele>
        <time>2014-06-06T08:58:55Z</time>
      </trkpt>
      <trkpt lat="43.70685" lon="3.07251">
        <ele>892.7999878</ele>
        <time>2014-06-06T08:58:56Z</time>
      </trkpt>
      <trkpt lat="43.70685" lon="3.07249">
        <ele>892.7999878</ele>
        <time>2014-06-06T08:58:57Z</time>
      </trkpt>
      <trkpt lat="43.70686" lon="3.07243">
        <ele>892.7999878</ele>
        <time>2014-06-06T08:59:00Z</time>
      </trkpt>
      <trkpt lat="43.70686" lon="3.0724">
        <ele>892.7999878</ele>
        <time>2014-06-06T08:59:02Z</time>
      </trkpt>
      <trkpt lat="43.70687" lon="3.07237">
        <ele>893.2000122</ele>
        <time>2014-06-06T08:59:04Z</time>
      </trkpt>
      <trkpt lat="43.70688" lon="3.07235">
        <ele>893.5999756</ele>
        <time>2014-06-06T08:59:05Z</time>
      </trkpt>
      <trkpt lat="43.70689" lon="3.07234">
        <ele>894</ele>
        <time>2014-06-06T08:59:06Z</time>
      </trkpt>
      <trkpt lat="43.7069" lon="3.07232">
        <ele>894.4000244</ele>
        <time>2014-06-06T08:59:07Z</time>
      </trkpt>
      <trkpt lat="43.70691" lon="3.07231">
        <ele>894.7999878</ele>
        <time>2014-06-06T08:59:08Z</time>
      </trkpt>
      <trkpt lat="43.70695" lon="3.07222">
        <ele>894.7999878</ele>
        <time>2014-06-06T08:59:13Z</time>
      </trkpt>
      <trkpt lat="43.70696" lon="3.07213">
        <ele>895.2000122</ele>
        <time>2014-06-06T08:59:17Z</time>
      </trkpt>
      <trkpt lat="43.70696" lon="3.0721">
        <ele>895.5999756</ele>
        <time>2014-06-06T08:59:18Z</time>
      </trkpt>
      <trkpt lat="43.70696" lon="3.07208">
        <ele>896</ele>
        <time>2014-06-06T08:59:19Z</time>
      </trkpt>
      <trkpt lat="43.70697" lon="3.07206">
        <ele>896.4000244</ele>
        <time>2014-06-06T08:59:20Z</time>
      </trkpt>
      <trkpt lat="43.70697" lon="3.07205">
        <ele>897</ele>
        <time>2014-06-06T08:59:21Z</time>
      </trkpt>
      <trkpt lat="43.70702" lon="3.07195">
        <ele>897</ele>
        <time>2014-06-06T08:59:26Z</time>
      </trkpt>
      <trkpt lat="43.70711" lon="3.07184">
        <ele>897</ele>
        <time>2014-06-06T08:59:34Z</time>
      </trkpt>
      <trkpt lat="43.70713" lon="3.0718">
        <ele>897.4000244</ele>
        <time>2014-06-06T08:59:36Z</time>
      </trkpt>
      <trkpt lat="43.70714" lon="3.07179">
        <ele>897.7999878</ele>
        <time>2014-06-06T08:59:37Z</time>
      </trkpt>
      <trkpt lat="43.70715" lon="3.07177">
        <ele>898.2000122</ele>
        <time>2014-06-06T08:59:38Z</time>
      </trkpt>
      <trkpt lat="43.70717" lon="3.07176">
        <ele>898.5999756</ele>
        <time>2014-06-06T08:59:39Z</time>
      </trkpt>
      <trkpt lat="43.70719" lon="3.07175">
        <ele>899</ele>
        <time>2014-06-06T08:59:40Z</time>
      </trkpt>
      <trkpt lat="43.70721" lon="3.07172">
        <ele>899</ele>
        <time>2014-06-06T08:59:42Z</time>
      </trkpt>
      <trkpt lat="43.70722" lon="3.0717">
        <ele>899</ele>
        <time>2014-06-06T08:59:43Z</time>
      </trkpt>
      <trkpt lat="43.70728" lon="3.07156">
        <ele>899.4000244</ele>
        <time>2014-06-06T08:59:51Z</time>
      </trkpt>
      <trkpt lat="43.70729" lon="3.07155">
        <ele>899.7999878</ele>
        <time>2014-06-06T08:59:52Z</time>
      </trkpt>
      <trkpt lat="43.7073" lon="3.07153">
        <ele>900.2000122</ele>
        <time>2014-06-06T08:59:53Z</time>
      </trkpt>
      <trkpt lat="43.70731" lon="3.07152">
        <ele>900.5999756</ele>
        <time>2014-06-06T08:59:54Z</time>
      </trkpt>
      <trkpt lat="43.70732" lon="3.07152">
        <ele>901</ele>
        <time>2014-06-06T08:59:55Z</time>
      </trkpt>
      <trkpt lat="43.70733" lon="3.0715">
        <ele>901</ele>
        <time>2014-06-06T08:59:56Z</time>
      </trkpt>
      <trkpt lat="43.70735" lon="3.07149">
        <ele>901</ele>
        <time>2014-06-06T08:59:57Z</time>
      </trkpt>
      <trkpt lat="43.70744" lon="3.07138">
        <ele>901</ele>
        <time>2014-06-06T09:00:05Z</time>
      </trkpt>
      <trkpt lat="43.70748" lon="3.07135">
        <ele>901</ele>
        <time>2014-06-06T09:00:07Z</time>
      </trkpt>
      <trkpt lat="43.70752" lon="3.07129">
        <ele>901.5999756</ele>
        <time>2014-06-06T09:00:11Z</time>
      </trkpt>
      <trkpt lat="43.70754" lon="3.07127">
        <ele>902</ele>
        <time>2014-06-06T09:00:12Z</time>
      </trkpt>
      <trkpt lat="43.70755" lon="3.07126">
        <ele>902.4000244</ele>
        <time>2014-06-06T09:00:13Z</time>
      </trkpt>
      <trkpt lat="43.70755" lon="3.07124">
        <ele>902.7999878</ele>
        <time>2014-06-06T09:00:14Z</time>
      </trkpt>
      <trkpt lat="43.70757" lon="3.07122">
        <ele>903.2000122</ele>
        <time>2014-06-06T09:00:15Z</time>
      </trkpt>
      <trkpt lat="43.70759" lon="3.07119">
        <ele>903.2000122</ele>
        <time>2014-06-06T09:00:17Z</time>
      </trkpt>
      <trkpt lat="43.70761" lon="3.07117">
        <ele>903.2000122</ele>
        <time>2014-06-06T09:00:18Z</time>
      </trkpt>
      <trkpt lat="43.70765" lon="3.07113">
        <ele>903.5999756</ele>
        <time>2014-06-06T09:00:21Z</time>
      </trkpt>
      <trkpt lat="43.70766" lon="3.07112">
        <ele>904</ele>
        <time>2014-06-06T09:00:22Z</time>
      </trkpt>
      <trkpt lat="43.70767" lon="3.07111">
        <ele>904.4000244</ele>
        <time>2014-06-06T09:00:23Z</time>
      </trkpt>
      <trkpt lat="43.70767" lon="3.07111">
        <ele>904.7999878</ele>
        <time>2014-06-06T09:00:24Z</time>
      </trkpt>
      <trkpt lat="43.70768" lon="3.0711">
        <ele>905.2000122</ele>
        <time>2014-06-06T09:00:25Z</time>
      </trkpt>
      <trkpt lat="43.70772" lon="3.07108">
        <ele>905.2000122</ele>
        <time>2014-06-06T09:00:29Z</time>
      </trkpt>
      <trkpt lat="43.70775" lon="3.07106">
        <ele>905.2000122</ele>
        <time>2014-06-06T09:00:31Z</time>
      </trkpt>
      <trkpt lat="43.70776" lon="3.07105">
        <ele>905.5999756</ele>
        <time>2014-06-06T09:00:32Z</time>
      </trkpt>
      <trkpt lat="43.70778" lon="3.07105">
        <ele>906</ele>
        <time>2014-06-06T09:00:33Z</time>
      </trkpt>
      <trkpt lat="43.70779" lon="3.07105">
        <ele>906.4000244</ele>
        <time>2014-06-06T09:00:34Z</time>
      </trkpt>
      <trkpt lat="43.7078" lon="3.07103">
        <ele>906.7999878</ele>
        <time>2014-06-06T09:00:35Z</time>
      </trkpt>
      <trkpt lat="43.70782" lon="3.07102">
        <ele>907.2000122</ele>
        <time>2014-06-06T09:00:36Z</time>
      </trkpt>
      <trkpt lat="43.70786" lon="3.071">
        <ele>907.2000122</ele>
        <time>2014-06-06T09:00:38Z</time>
      </trkpt>
      <trkpt lat="43.70795" lon="3.07094">
        <ele>907.2000122</ele>
        <time>2014-06-06T09:00:44Z</time>
      </trkpt>
      <trkpt lat="43.70797" lon="3.07094">
        <ele>907.5999756</ele>
        <time>2014-06-06T09:00:45Z</time>
      </trkpt>
      <trkpt lat="43.70798" lon="3.07095">
        <ele>908</ele>
        <time>2014-06-06T09:00:46Z</time>
      </trkpt>
      <trkpt lat="43.708" lon="3.07094">
        <ele>908.5999756</ele>
        <time>2014-06-06T09:00:47Z</time>
      </trkpt>
      <trkpt lat="43.70801" lon="3.07094">
        <ele>909</ele>
        <time>2014-06-06T09:00:48Z</time>
      </trkpt>
      <trkpt lat="43.70803" lon="3.07093">
        <ele>909.4000244</ele>
        <time>2014-06-06T09:00:49Z</time>
      </trkpt>
      <trkpt lat="43.70804" lon="3.07092">
        <ele>909.4000244</ele>
        <time>2014-06-06T09:00:50Z</time>
      </trkpt>
      <trkpt lat="43.70808" lon="3.07091">
        <ele>909.4000244</ele>
        <time>2014-06-06T09:00:53Z</time>
      </trkpt>
      <trkpt lat="43.7081" lon="3.07091">
        <ele>909.4000244</ele>
        <time>2014-06-06T09:00:55Z</time>
      </trkpt>
      <trkpt lat="43.70811" lon="3.07092">
        <ele>909.4000244</ele>
        <time>2014-06-06T09:00:56Z</time>
      </trkpt>
      <trkpt lat="43.70813" lon="3.07093">
        <ele>909.7999878</ele>
        <time>2014-06-06T09:00:58Z</time>
      </trkpt>
      <trkpt lat="43.70815" lon="3.07092">
        <ele>910.2000122</ele>
        <time>2014-06-06T09:00:59Z</time>
      </trkpt>
      <trkpt lat="43.70816" lon="3.07092">
        <ele>910.5999756</ele>
        <time>2014-06-06T09:01:00Z</time>
      </trkpt>
      <trkpt lat="43.70818" lon="3.07092">
        <ele>911</ele>
        <time>2014-06-06T09:01:01Z</time>
      </trkpt>
      <trkpt lat="43.7082" lon="3.07091">
        <ele>911.4000244</ele>
        <time>2014-06-06T09:01:02Z</time>
      </trkpt>
      <trkpt lat="43.70827" lon="3.0709">
        <ele>911.4000244</ele>
        <time>2014-06-06T09:01:08Z</time>
      </trkpt>
      <trkpt lat="43.70828" lon="3.0709">
        <ele>911.7999878</ele>
        <time>2014-06-06T09:01:09Z</time>
      </trkpt>
      <trkpt lat="43.70829" lon="3.07091">
        <ele>912.2000122</ele>
        <time>2014-06-06T09:01:10Z</time>
      </trkpt>
      <trkpt lat="43.7083" lon="3.07091">
        <ele>912.5999756</ele>
        <time>2014-06-06T09:01:11Z</time>
      </trkpt>
      <trkpt lat="43.70831" lon="3.0709">
        <ele>913</ele>
        <time>2014-06-06T09:01:12Z</time>
      </trkpt>
      <trkpt lat="43.70833" lon="3.0709">
        <ele>913.5999756</ele>
        <time>2014-06-06T09:01:13Z</time>
      </trkpt>
      <trkpt lat="43.70834" lon="3.07089">
        <ele>913.5999756</ele>
        <time>2014-06-06T09:01:14Z</time>
      </trkpt>
      <trkpt lat="43.7084" lon="3.07085">
        <ele>914</ele>
        <time>2014-06-06T09:01:20Z</time>
      </trkpt>
      <trkpt lat="43.70841" lon="3.07085">
        <ele>914.4000244</ele>
        <time>2014-06-06T09:01:21Z</time>
      </trkpt>
      <trkpt lat="43.70842" lon="3.07085">
        <ele>914.7999878</ele>
        <time>2014-06-06T09:01:22Z</time>
      </trkpt>
      <trkpt lat="43.70843" lon="3.07084">
        <ele>915.2000122</ele>
        <time>2014-06-06T09:01:23Z</time>
      </trkpt>
      <trkpt lat="43.70844" lon="3.07083">
        <ele>915.5999756</ele>
        <time>2014-06-06T09:01:24Z</time>
      </trkpt>
      <trkpt lat="43.7085" lon="3.07078">
        <ele>915.5999756</ele>
        <time>2014-06-06T09:01:30Z</time>
      </trkpt>
      <trkpt lat="43.70853" lon="3.07077">
        <ele>916</ele>
        <time>2014-06-06T09:01:32Z</time>
      </trkpt>
      <trkpt lat="43.70855" lon="3.07077">
        <ele>916.4000244</ele>
        <time>2014-06-06T09:01:33Z</time>
      </trkpt>
      <trkpt lat="43.70856" lon="3.07076">
        <ele>916.7999878</ele>
        <time>2014-06-06T09:01:35Z</time>
      </trkpt>
      <trkpt lat="43.70857" lon="3.07075">
        <ele>917.2000122</ele>
        <time>2014-06-06T09:01:36Z</time>
      </trkpt>
      <trkpt lat="43.70859" lon="3.07074">
        <ele>917.5999756</ele>
        <time>2014-06-06T09:01:37Z</time>
      </trkpt>
      <trkpt lat="43.70867" lon="3.07065">
        <ele>917.5999756</ele>
        <time>2014-06-06T09:01:45Z</time>
      </trkpt>
      <trkpt lat="43.7087" lon="3.07059">
        <ele>918</ele>
        <time>2014-06-06T09:01:49Z</time>
      </trkpt>
      <trkpt lat="43.7087" lon="3.07057">
        <ele>918.5999756</ele>
        <time>2014-06-06T09:01:50Z</time>
      </trkpt>
      <trkpt lat="43.70871" lon="3.07056">
        <ele>919</ele>
        <time>2014-06-06T09:01:51Z</time>
      </trkpt>
      <trkpt lat="43.7087" lon="3.07054">
        <ele>919.4000244</ele>
        <time>2014-06-06T09:01:52Z</time>
      </trkpt>
      <trkpt lat="43.70871" lon="3.07053">
        <ele>919.7999878</ele>
        <time>2014-06-06T09:01:53Z</time>
      </trkpt>
      <trkpt lat="43.70873" lon="3.07045">
        <ele>920.2000122</ele>
        <time>2014-06-06T09:01:58Z</time>
      </trkpt>
      <trkpt lat="43.70873" lon="3.07043">
        <ele>920.5999756</ele>
        <time>2014-06-06T09:01:59Z</time>
      </trkpt>
      <trkpt lat="43.70874" lon="3.07041">
        <ele>921</ele>
        <time>2014-06-06T09:02:00Z</time>
      </trkpt>
      <trkpt lat="43.70874" lon="3.07039">
        <ele>921.4000244</ele>
        <time>2014-06-06T09:02:01Z</time>
      </trkpt>
      <trkpt lat="43.70875" lon="3.07038">
        <ele>921.7999878</ele>
        <time>2014-06-06T09:02:02Z</time>
      </trkpt>
      <trkpt lat="43.70877" lon="3.07032">
        <ele>921.7999878</ele>
        <time>2014-06-06T09:02:05Z</time>
      </trkpt>
      <trkpt lat="43.70882" lon="3.07022">
        <ele>921.7999878</ele>
        <time>2014-06-06T09:02:12Z</time>
      </trkpt>
      <trkpt lat="43.70884" lon="3.07015">
        <ele>922.2000122</ele>
        <time>2014-06-06T09:02:16Z</time>
      </trkpt>
      <trkpt lat="43.70884" lon="3.07013">
        <ele>922.7999878</ele>
        <time>2014-06-06T09:02:17Z</time>
      </trkpt>
      <trkpt lat="43.70884" lon="3.0701">
        <ele>923.2000122</ele>
        <time>2014-06-06T09:02:18Z</time>
      </trkpt>
      <trkpt lat="43.70884" lon="3.07008">
        <ele>923.5999756</ele>
        <time>2014-06-06T09:02:19Z</time>
      </trkpt>
      <trkpt lat="43.70885" lon="3.07005">
        <ele>924</ele>
        <time>2014-06-06T09:02:20Z</time>
      </trkpt>
      <trkpt lat="43.70887" lon="3.06993">
        <ele>924</ele>
        <time>2014-06-06T09:02:25Z</time>
      </trkpt>
      <trkpt lat="43.70893" lon="3.06981">
        <ele>924.4000244</ele>
        <time>2014-06-06T09:02:31Z</time>
      </trkpt>
      <trkpt lat="43.70893" lon="3.06979">
        <ele>924.7999878</ele>
        <time>2014-06-06T09:02:32Z</time>
      </trkpt>
      <trkpt lat="43.70894" lon="3.06977">
        <ele>925.2000122</ele>
        <time>2014-06-06T09:02:33Z</time>
      </trkpt>
      <trkpt lat="43.70895" lon="3.06975">
        <ele>925.5999756</ele>
        <time>2014-06-06T09:02:34Z</time>
      </trkpt>
      <trkpt lat="43.70895" lon="3.06973">
        <ele>926</ele>
        <time>2014-06-06T09:02:35Z</time>
      </trkpt>
      <trkpt lat="43.70896" lon="3.06969">
        <ele>926</ele>
        <time>2014-06-06T09:02:37Z</time>
      </trkpt>
      <trkpt lat="43.70898" lon="3.06963">
        <ele>926</ele>
        <time>2014-06-06T09:02:40Z</time>
      </trkpt>
      <trkpt lat="43.709" lon="3.06962">
        <ele>926</ele>
        <time>2014-06-06T09:02:42Z</time>
      </trkpt>
      <trkpt lat="43.70901" lon="3.06958">
        <ele>926</ele>
        <time>2014-06-06T09:02:45Z</time>
      </trkpt>
      <trkpt lat="43.70905" lon="3.06953">
        <ele>926.4000244</ele>
        <time>2014-06-06T09:02:48Z</time>
      </trkpt>
      <trkpt lat="43.70906" lon="3.06951">
        <ele>927</ele>
        <time>2014-06-06T09:02:49Z</time>
      </trkpt>
      <trkpt lat="43.70907" lon="3.0695">
        <ele>927.4000244</ele>
        <time>2014-06-06T09:02:50Z</time>
      </trkpt>
      <trkpt lat="43.70908" lon="3.06948">
        <ele>927.7999878</ele>
        <time>2014-06-06T09:02:51Z</time>
      </trkpt>
      <trkpt lat="43.70909" lon="3.06946">
        <ele>928.2000122</ele>
        <time>2014-06-06T09:02:52Z</time>
      </trkpt>
      <trkpt lat="43.70911" lon="3.06937">
        <ele>928.2000122</ele>
        <time>2014-06-06T09:02:56Z</time>
      </trkpt>
      <trkpt lat="43.70911" lon="3.06935">
        <ele>928.2000122</ele>
        <time>2014-06-06T09:02:57Z</time>
      </trkpt>
      <trkpt lat="43.70913" lon="3.06927">
        <ele>928.2000122</ele>
        <time>2014-06-06T09:03:01Z</time>
      </trkpt>
      <trkpt lat="43.70914" lon="3.06925">
        <ele>928.5999756</ele>
        <time>2014-06-06T09:03:02Z</time>
      </trkpt>
      <trkpt lat="43.70915" lon="3.06924">
        <ele>929</ele>
        <time>2014-06-06T09:03:03Z</time>
      </trkpt>
      <trkpt lat="43.70915" lon="3.06922">
        <ele>929.4000244</ele>
        <time>2014-06-06T09:03:04Z</time>
      </trkpt>
      <trkpt lat="43.70916" lon="3.06921">
        <ele>929.7999878</ele>
        <time>2014-06-06T09:03:05Z</time>
      </trkpt>
      <trkpt lat="43.70917" lon="3.06919">
        <ele>930.2000122</ele>
        <time>2014-06-06T09:03:06Z</time>
      </trkpt>
      <trkpt lat="43.70919" lon="3.06915">
        <ele>930.2000122</ele>
        <time>2014-06-06T09:03:08Z</time>
      </trkpt>
      <trkpt lat="43.70922" lon="3.06908">
        <ele>930.5999756</ele>
        <time>2014-06-06T09:03:12Z</time>
      </trkpt>
      <trkpt lat="43.70923" lon="3.06907">
        <ele>931</ele>
        <time>2014-06-06T09:03:13Z</time>
      </trkpt>
      <trkpt lat="43.70924" lon="3.06905">
        <ele>931.5999756</ele>
        <time>2014-06-06T09:03:14Z</time>
      </trkpt>
      <trkpt lat="43.70925" lon="3.06904">
        <ele>932</ele>
        <time>2014-06-06T09:03:15Z</time>
      </trkpt>
      <trkpt lat="43.70927" lon="3.06902">
        <ele>932.4000244</ele>
        <time>2014-06-06T09:03:16Z</time>
      </trkpt>
      <trkpt lat="43.70933" lon="3.06898">
        <ele>932.4000244</ele>
        <time>2014-06-06T09:03:20Z</time>
      </trkpt>
      <trkpt lat="43.70938" lon="3.06893">
        <ele>932.4000244</ele>
        <time>2014-06-06T09:03:24Z</time>
      </trkpt>
      <trkpt lat="43.70941" lon="3.0689">
        <ele>932.4000244</ele>
        <time>2014-06-06T09:03:27Z</time>
      </trkpt>
      <trkpt lat="43.70941" lon="3.06889">
        <ele>932.4000244</ele>
        <time>2014-06-06T09:03:28Z</time>
      </trkpt>
      <trkpt lat="43.70942" lon="3.06888">
        <ele>932.7999878</ele>
        <time>2014-06-06T09:03:29Z</time>
      </trkpt>
      <trkpt lat="43.70942" lon="3.06887">
        <ele>933.2000122</ele>
        <time>2014-06-06T09:03:30Z</time>
      </trkpt>
      <trkpt lat="43.70943" lon="3.06886">
        <ele>933.5999756</ele>
        <time>2014-06-06T09:03:31Z</time>
      </trkpt>
      <trkpt lat="43.70944" lon="3.06884">
        <ele>934.2000122</ele>
        <time>2014-06-06T09:03:32Z</time>
      </trkpt>
      <trkpt lat="43.70945" lon="3.06883">
        <ele>934.5999756</ele>
        <time>2014-06-06T09:03:33Z</time>
      </trkpt>
      <trkpt lat="43.70946" lon="3.06882">
        <ele>934.5999756</ele>
        <time>2014-06-06T09:03:34Z</time>
      </trkpt>
      <trkpt lat="43.70952" lon="3.06874">
        <ele>934.5999756</ele>
        <time>2014-06-06T09:03:41Z</time>
      </trkpt>
      <trkpt lat="43.70955" lon="3.0687">
        <ele>935</ele>
        <time>2014-06-06T09:03:44Z</time>
      </trkpt>
      <trkpt lat="43.70955" lon="3.06868">
        <ele>935.4000244</ele>
        <time>2014-06-06T09:03:45Z</time>
      </trkpt>
      <trkpt lat="43.70956" lon="3.06867">
        <ele>935.7999878</ele>
        <time>2014-06-06T09:03:46Z</time>
      </trkpt>
      <trkpt lat="43.70957" lon="3.06865">
        <ele>936.2000122</ele>
        <time>2014-06-06T09:03:47Z</time>
      </trkpt>
      <trkpt lat="43.70957" lon="3.06864">
        <ele>936.5999756</ele>
        <time>2014-06-06T09:03:48Z</time>
      </trkpt>
      <trkpt lat="43.70958" lon="3.06862">
        <ele>936.5999756</ele>
        <time>2014-06-06T09:03:50Z</time>
      </trkpt>
      <trkpt lat="43.70963" lon="3.06853">
        <ele>936.5999756</ele>
        <time>2014-06-06T09:03:56Z</time>
      </trkpt>
      <trkpt lat="43.70965" lon="3.06853">
        <ele>937</ele>
        <time>2014-06-06T09:03:57Z</time>
      </trkpt>
      <trkpt lat="43.70966" lon="3.06851">
        <ele>937.4000244</ele>
        <time>2014-06-06T09:03:58Z</time>
      </trkpt>
      <trkpt lat="43.70967" lon="3.0685">
        <ele>937.7999878</ele>
        <time>2014-06-06T09:03:59Z</time>
      </trkpt>
      <trkpt lat="43.70968" lon="3.06849">
        <ele>938.4000244</ele>
        <time>2014-06-06T09:04:00Z</time>
      </trkpt>
      <trkpt lat="43.7097" lon="3.06849">
        <ele>938.7999878</ele>
        <time>2014-06-06T09:04:01Z</time>
      </trkpt>
      <trkpt lat="43.70971" lon="3.06848">
        <ele>938.7999878</ele>
        <time>2014-06-06T09:04:02Z</time>
      </trkpt>
      <trkpt lat="43.70972" lon="3.06846">
        <ele>938.7999878</ele>
        <time>2014-06-06T09:04:03Z</time>
      </trkpt>
      <trkpt lat="43.70977" lon="3.06839">
        <ele>938.7999878</ele>
        <time>2014-06-06T09:04:08Z</time>
      </trkpt>
      <trkpt lat="43.70982" lon="3.06834">
        <ele>939.2000122</ele>
        <time>2014-06-06T09:04:13Z</time>
      </trkpt>
      <trkpt lat="43.70984" lon="3.06832">
        <ele>939.5999756</ele>
        <time>2014-06-06T09:04:14Z</time>
      </trkpt>
      <trkpt lat="43.70985" lon="3.06831">
        <ele>940.2000122</ele>
        <time>2014-06-06T09:04:15Z</time>
      </trkpt>
      <trkpt lat="43.70986" lon="3.06829">
        <ele>940.5999756</ele>
        <time>2014-06-06T09:04:16Z</time>
      </trkpt>
      <trkpt lat="43.70988" lon="3.06828">
        <ele>941.2000122</ele>
        <time>2014-06-06T09:04:17Z</time>
      </trkpt>
      <trkpt lat="43.70994" lon="3.06819">
        <ele>941.5999756</ele>
        <time>2014-06-06T09:04:22Z</time>
      </trkpt>
      <trkpt lat="43.70995" lon="3.06817">
        <ele>942</ele>
        <time>2014-06-06T09:04:23Z</time>
      </trkpt>
      <trkpt lat="43.70996" lon="3.06815">
        <ele>942.4000244</ele>
        <time>2014-06-06T09:04:24Z</time>
      </trkpt>
      <trkpt lat="43.70996" lon="3.06814">
        <ele>942.7999878</ele>
        <time>2014-06-06T09:04:25Z</time>
      </trkpt>
      <trkpt lat="43.70997" lon="3.06812">
        <ele>943.2000122</ele>
        <time>2014-06-06T09:04:26Z</time>
      </trkpt>
      <trkpt lat="43.71" lon="3.06804">
        <ele>943.2000122</ele>
        <time>2014-06-06T09:04:31Z</time>
      </trkpt>
      <trkpt lat="43.71003" lon="3.06797">
        <ele>943.5999756</ele>
        <time>2014-06-06T09:04:36Z</time>
      </trkpt>
      <trkpt lat="43.71004" lon="3.06795">
        <ele>944</ele>
        <time>2014-06-06T09:04:37Z</time>
      </trkpt>
      <trkpt lat="43.71004" lon="3.06793">
        <ele>944.4000244</ele>
        <time>2014-06-06T09:04:38Z</time>
      </trkpt>
      <trkpt lat="43.71005" lon="3.06792">
        <ele>944.7999878</ele>
        <time>2014-06-06T09:04:39Z</time>
      </trkpt>
      <trkpt lat="43.71006" lon="3.0679">
        <ele>945.2000122</ele>
        <time>2014-06-06T09:04:40Z</time>
      </trkpt>
      <trkpt lat="43.71007" lon="3.06783">
        <ele>945.2000122</ele>
        <time>2014-06-06T09:04:44Z</time>
      </trkpt>
      <trkpt lat="43.71008" lon="3.06778">
        <ele>945.5999756</ele>
        <time>2014-06-06T09:04:47Z</time>
      </trkpt>
      <trkpt lat="43.71009" lon="3.06777">
        <ele>946</ele>
        <time>2014-06-06T09:04:48Z</time>
      </trkpt>
      <trkpt lat="43.71009" lon="3.06775">
        <ele>946.4000244</ele>
        <time>2014-06-06T09:04:49Z</time>
      </trkpt>
      <trkpt lat="43.71009" lon="3.06773">
        <ele>947</ele>
        <time>2014-06-06T09:04:50Z</time>
      </trkpt>
      <trkpt lat="43.7101" lon="3.06772">
        <ele>947.4000244</ele>
        <time>2014-06-06T09:04:51Z</time>
      </trkpt>
      <trkpt lat="43.71011" lon="3.06771">
        <ele>947.4000244</ele>
        <time>2014-06-06T09:04:52Z</time>
      </trkpt>
      <trkpt lat="43.71014" lon="3.06761">
        <ele>947.4000244</ele>
        <time>2014-06-06T09:04:57Z</time>
      </trkpt>
      <trkpt lat="43.71016" lon="3.06751">
        <ele>947.7999878</ele>
        <time>2014-06-06T09:05:02Z</time>
      </trkpt>
      <trkpt lat="43.71017" lon="3.06749">
        <ele>948.2000122</ele>
        <time>2014-06-06T09:05:03Z</time>
      </trkpt>
      <trkpt lat="43.71018" lon="3.06747">
        <ele>948.5999756</ele>
        <time>2014-06-06T09:05:04Z</time>
      </trkpt>
      <trkpt lat="43.71019" lon="3.06745">
        <ele>949</ele>
        <time>2014-06-06T09:05:05Z</time>
      </trkpt>
      <trkpt lat="43.7102" lon="3.06742">
        <ele>949.4000244</ele>
        <time>2014-06-06T09:05:06Z</time>
      </trkpt>
      <trkpt lat="43.71023" lon="3.06737">
        <ele>949.4000244</ele>
        <time>2014-06-06T09:05:09Z</time>
      </trkpt>
      <trkpt lat="43.7103" lon="3.06724">
        <ele>949.4000244</ele>
        <time>2014-06-06T09:05:16Z</time>
      </trkpt>
      <trkpt lat="43.71033" lon="3.06719">
        <ele>949.7999878</ele>
        <time>2014-06-06T09:05:19Z</time>
      </trkpt>
      <trkpt lat="43.71034" lon="3.06717">
        <ele>950.2000122</ele>
        <time>2014-06-06T09:05:20Z</time>
      </trkpt>
      <trkpt lat="43.71034" lon="3.06715">
        <ele>950.5999756</ele>
        <time>2014-06-06T09:05:21Z</time>
      </trkpt>
      <trkpt lat="43.71035" lon="3.06713">
        <ele>951</ele>
        <time>2014-06-06T09:05:22Z</time>
      </trkpt>
      <trkpt lat="43.71036" lon="3.06712">
        <ele>951.4000244</ele>
        <time>2014-06-06T09:05:23Z</time>
      </trkpt>
      <trkpt lat="43.71037" lon="3.0671">
        <ele>951.4000244</ele>
        <time>2014-06-06T09:05:24Z</time>
      </trkpt>
      <trkpt lat="43.7104" lon="3.06704">
        <ele>951.4000244</ele>
        <time>2014-06-06T09:05:28Z</time>
      </trkpt>
      <trkpt lat="43.71042" lon="3.06701">
        <ele>951.4000244</ele>
        <time>2014-06-06T09:05:30Z</time>
      </trkpt>
      <trkpt lat="43.71043" lon="3.06697">
        <ele>951.7999878</ele>
        <time>2014-06-06T09:05:32Z</time>
      </trkpt>
      <trkpt lat="43.71045" lon="3.06696">
        <ele>952.2000122</ele>
        <time>2014-06-06T09:05:33Z</time>
      </trkpt>
      <trkpt lat="43.71045" lon="3.06695">
        <ele>952.5999756</ele>
        <time>2014-06-06T09:05:34Z</time>
      </trkpt>
      <trkpt lat="43.71046" lon="3.06693">
        <ele>953</ele>
        <time>2014-06-06T09:05:35Z</time>
      </trkpt>
      <trkpt lat="43.71047" lon="3.06691">
        <ele>953.4000244</ele>
        <time>2014-06-06T09:05:36Z</time>
      </trkpt>
      <trkpt lat="43.71051" lon="3.06686">
        <ele>953.4000244</ele>
        <time>2014-06-06T09:05:39Z</time>
      </trkpt>
      <trkpt lat="43.71058" lon="3.06673">
        <ele>954.2000122</ele>
        <time>2014-06-06T09:05:47Z</time>
      </trkpt>
      <trkpt lat="43.71058" lon="3.06672">
        <ele>954.5999756</ele>
        <time>2014-06-06T09:05:48Z</time>
      </trkpt>
      <trkpt lat="43.71059" lon="3.0667">
        <ele>955.2000122</ele>
        <time>2014-06-06T09:05:49Z</time>
      </trkpt>
      <trkpt lat="43.71061" lon="3.06669">
        <ele>955.5999756</ele>
        <time>2014-06-06T09:05:50Z</time>
      </trkpt>
      <trkpt lat="43.71062" lon="3.06664">
        <ele>955.5999756</ele>
        <time>2014-06-06T09:05:52Z</time>
      </trkpt>
      <trkpt lat="43.71068" lon="3.0665">
        <ele>955.5999756</ele>
        <time>2014-06-06T09:05:59Z</time>
      </trkpt>
      <trkpt lat="43.71069" lon="3.06646">
        <ele>956</ele>
        <time>2014-06-06T09:06:01Z</time>
      </trkpt>
      <trkpt lat="43.7107" lon="3.06645">
        <ele>956.4000244</ele>
        <time>2014-06-06T09:06:02Z</time>
      </trkpt>
      <trkpt lat="43.7107" lon="3.06643">
        <ele>956.7999878</ele>
        <time>2014-06-06T09:06:03Z</time>
      </trkpt>
      <trkpt lat="43.71071" lon="3.06641">
        <ele>957.2000122</ele>
        <time>2014-06-06T09:06:04Z</time>
      </trkpt>
      <trkpt lat="43.71072" lon="3.06639">
        <ele>957.5999756</ele>
        <time>2014-06-06T09:06:05Z</time>
      </trkpt>
      <trkpt lat="43.71073" lon="3.06635">
        <ele>957.5999756</ele>
        <time>2014-06-06T09:06:07Z</time>
      </trkpt>
      <trkpt lat="43.71076" lon="3.06628">
        <ele>958.4000244</ele>
        <time>2014-06-06T09:06:12Z</time>
      </trkpt>
      <trkpt lat="43.71076" lon="3.06626">
        <ele>958.7999878</ele>
        <time>2014-06-06T09:06:13Z</time>
      </trkpt>
      <trkpt lat="43.71077" lon="3.06624">
        <ele>959.4000244</ele>
        <time>2014-06-06T09:06:14Z</time>
      </trkpt>
      <trkpt lat="43.71076" lon="3.06621">
        <ele>959.7999878</ele>
        <time>2014-06-06T09:06:15Z</time>
      </trkpt>
      <trkpt lat="43.71076" lon="3.06612">
        <ele>959.7999878</ele>
        <time>2014-06-06T09:06:19Z</time>
      </trkpt>
      <trkpt lat="43.71079" lon="3.06595">
        <ele>959.7999878</ele>
        <time>2014-06-06T09:06:27Z</time>
      </trkpt>
      <trkpt lat="43.7108" lon="3.0659">
        <ele>960.2000122</ele>
        <time>2014-06-06T09:06:30Z</time>
      </trkpt>
      <trkpt lat="43.71079" lon="3.06588">
        <ele>960.5999756</ele>
        <time>2014-06-06T09:06:31Z</time>
      </trkpt>
      <trkpt lat="43.7108" lon="3.06586">
        <ele>961</ele>
        <time>2014-06-06T09:06:32Z</time>
      </trkpt>
      <trkpt lat="43.7108" lon="3.06584">
        <ele>961.4000244</ele>
        <time>2014-06-06T09:06:33Z</time>
      </trkpt>
      <trkpt lat="43.7108" lon="3.06582">
        <ele>961.7999878</ele>
        <time>2014-06-06T09:06:34Z</time>
      </trkpt>
      <trkpt lat="43.71081" lon="3.0657">
        <ele>961.7999878</ele>
        <time>2014-06-06T09:06:41Z</time>
      </trkpt>
      <trkpt lat="43.71083" lon="3.0656">
        <ele>962.2000122</ele>
        <time>2014-06-06T09:06:45Z</time>
      </trkpt>
      <trkpt lat="43.71083" lon="3.06558">
        <ele>962.5999756</ele>
        <time>2014-06-06T09:06:46Z</time>
      </trkpt>
      <trkpt lat="43.71083" lon="3.06555">
        <ele>963</ele>
        <time>2014-06-06T09:06:47Z</time>
      </trkpt>
      <trkpt lat="43.71084" lon="3.06553">
        <ele>963.4000244</ele>
        <time>2014-06-06T09:06:48Z</time>
      </trkpt>
      <trkpt lat="43.71084" lon="3.06551">
        <ele>963.7999878</ele>
        <time>2014-06-06T09:06:49Z</time>
      </trkpt>
      <trkpt lat="43.71086" lon="3.06536">
        <ele>963.7999878</ele>
        <time>2014-06-06T09:06:55Z</time>
      </trkpt>
      <trkpt lat="43.71086" lon="3.06529">
        <ele>963.7999878</ele>
        <time>2014-06-06T09:06:59Z</time>
      </trkpt>
      <trkpt lat="43.71085" lon="3.06529">
        <ele>963.7999878</ele>
        <time>2014-06-06T09:07:01Z</time>
      </trkpt>
      <trkpt lat="43.71084" lon="3.06528">
        <ele>963.7999878</ele>
        <time>2014-06-06T09:07:03Z</time>
      </trkpt>
      <trkpt lat="43.71079" lon="3.06522">
        <ele>965.7999878</ele>
        <time>2014-06-06T09:09:49Z</time>
      </trkpt>
      <trkpt lat="43.71078" lon="3.06521">
        <ele>965.7999878</ele>
        <time>2014-06-06T09:09:50Z</time>
      </trkpt>
      <trkpt lat="43.71076" lon="3.06521">
        <ele>965.7999878</ele>
        <time>2014-06-06T09:09:51Z</time>
      </trkpt>
      <trkpt lat="43.71069" lon="3.06517">
        <ele>965.7999878</ele>
        <time>2014-06-06T09:09:55Z</time>
      </trkpt>
      <trkpt lat="43.71066" lon="3.06517">
        <ele>965.7999878</ele>
        <time>2014-06-06T09:09:57Z</time>
      </trkpt>
      <trkpt lat="43.71055" lon="3.06513">
        <ele>965.7999878</ele>
        <time>2014-06-06T09:10:02Z</time>
      </trkpt>
      <trkpt lat="43.71049" lon="3.06512">
        <ele>965.7999878</ele>
        <time>2014-06-06T09:10:04Z</time>
      </trkpt>
      <trkpt lat="43.71026" lon="3.0651">
        <ele>965.7999878</ele>
        <time>2014-06-06T09:10:12Z</time>
      </trkpt>
      <trkpt lat="43.71002" lon="3.06508">
        <ele>965.7999878</ele>
        <time>2014-06-06T09:10:20Z</time>
      </trkpt>
      <trkpt lat="43.70983" lon="3.06512">
        <ele>965.7999878</ele>
        <time>2014-06-06T09:10:26Z</time>
      </trkpt>
      <trkpt lat="43.70969" lon="3.06524">
        <ele>965.7999878</ele>
        <time>2014-06-06T09:10:31Z</time>
      </trkpt>
      <trkpt lat="43.70963" lon="3.06534">
        <ele>965.7999878</ele>
        <time>2014-06-06T09:10:34Z</time>
      </trkpt>
      <trkpt lat="43.70959" lon="3.06546">
        <ele>965.7999878</ele>
        <time>2014-06-06T09:10:37Z</time>
      </trkpt>
      <trkpt lat="43.70951" lon="3.06573">
        <ele>965.7999878</ele>
        <time>2014-06-06T09:10:43Z</time>
      </trkpt>
      <trkpt lat="43.70945" lon="3.06593">
        <ele>965.7999878</ele>
        <time>2014-06-06T09:10:47Z</time>
      </trkpt>
      <trkpt lat="43.7094" lon="3.06612">
        <ele>965.7999878</ele>
        <time>2014-06-06T09:10:51Z</time>
      </trkpt>
      <trkpt lat="43.70936" lon="3.06626">
        <ele>965.7999878</ele>
        <time>2014-06-06T09:10:54Z</time>
      </trkpt>
      <trkpt lat="43.7093" lon="3.06646">
        <ele>965.7999878</ele>
        <time>2014-06-06T09:10:58Z</time>
      </trkpt>
      <trkpt lat="43.70927" lon="3.06655">
        <ele>965.4000244</ele>
        <time>2014-06-06T09:11:00Z</time>
      </trkpt>
      <trkpt lat="43.70925" lon="3.06661">
        <ele>965</ele>
        <time>2014-06-06T09:11:01Z</time>
      </trkpt>
      <trkpt lat="43.70923" lon="3.06667">
        <ele>964.5999756</ele>
        <time>2014-06-06T09:11:02Z</time>
      </trkpt>
      <trkpt lat="43.70921" lon="3.06672">
        <ele>964.2000122</ele>
        <time>2014-06-06T09:11:03Z</time>
      </trkpt>
      <trkpt lat="43.70919" lon="3.06678">
        <ele>963.7999878</ele>
        <time>2014-06-06T09:11:04Z</time>
      </trkpt>
      <trkpt lat="43.70903" lon="3.06711">
        <ele>963.7999878</ele>
        <time>2014-06-06T09:11:10Z</time>
      </trkpt>
      <trkpt lat="43.70891" lon="3.06728">
        <ele>963.4000244</ele>
        <time>2014-06-06T09:11:14Z</time>
      </trkpt>
      <trkpt lat="43.70888" lon="3.06732">
        <ele>963</ele>
        <time>2014-06-06T09:11:15Z</time>
      </trkpt>
      <trkpt lat="43.70885" lon="3.06736">
        <ele>962.5999756</ele>
        <time>2014-06-06T09:11:16Z</time>
      </trkpt>
      <trkpt lat="43.70882" lon="3.06741">
        <ele>962.2000122</ele>
        <time>2014-06-06T09:11:17Z</time>
      </trkpt>
      <trkpt lat="43.7088" lon="3.06745">
        <ele>961.7999878</ele>
        <time>2014-06-06T09:11:18Z</time>
      </trkpt>
      <trkpt lat="43.70873" lon="3.06755">
        <ele>961.7999878</ele>
        <time>2014-06-06T09:11:20Z</time>
      </trkpt>
      <trkpt lat="43.70868" lon="3.06762">
        <ele>961.7999878</ele>
        <time>2014-06-06T09:11:22Z</time>
      </trkpt>
      <trkpt lat="43.70859" lon="3.06773">
        <ele>961.4000244</ele>
        <time>2014-06-06T09:11:25Z</time>
      </trkpt>
      <trkpt lat="43.70856" lon="3.06777">
        <ele>961</ele>
        <time>2014-06-06T09:11:26Z</time>
      </trkpt>
      <trkpt lat="43.70853" lon="3.0678">
        <ele>960.4000244</ele>
        <time>2014-06-06T09:11:27Z</time>
      </trkpt>
      <trkpt lat="43.70848" lon="3.06784">
        <ele>960</ele>
        <time>2014-06-06T09:11:28Z</time>
      </trkpt>
      <trkpt lat="43.70844" lon="3.06788">
        <ele>959.5999756</ele>
        <time>2014-06-06T09:11:29Z</time>
      </trkpt>
      <trkpt lat="43.70821" lon="3.06803">
        <ele>959.5999756</ele>
        <time>2014-06-06T09:11:33Z</time>
      </trkpt>
      <trkpt lat="43.70815" lon="3.06805">
        <ele>959.2000122</ele>
        <time>2014-06-06T09:11:34Z</time>
      </trkpt>
      <trkpt lat="43.7081" lon="3.06806">
        <ele>958.7999878</ele>
        <time>2014-06-06T09:11:35Z</time>
      </trkpt>
      <trkpt lat="43.70804" lon="3.06808">
        <ele>958.4000244</ele>
        <time>2014-06-06T09:11:36Z</time>
      </trkpt>
      <trkpt lat="43.70799" lon="3.06809">
        <ele>958</ele>
        <time>2014-06-06T09:11:37Z</time>
      </trkpt>
      <trkpt lat="43.70793" lon="3.06811">
        <ele>957.5999756</ele>
        <time>2014-06-06T09:11:38Z</time>
      </trkpt>
      <trkpt lat="43.70788" lon="3.06812">
        <ele>957.5999756</ele>
        <time>2014-06-06T09:11:39Z</time>
      </trkpt>
      <trkpt lat="43.70776" lon="3.06812">
        <ele>957</ele>
        <time>2014-06-06T09:11:41Z</time>
      </trkpt>
      <trkpt lat="43.70771" lon="3.06811">
        <ele>956.5999756</ele>
        <time>2014-06-06T09:11:42Z</time>
      </trkpt>
      <trkpt lat="43.70763" lon="3.0681">
        <ele>956.2000122</ele>
        <time>2014-06-06T09:11:43Z</time>
      </trkpt>
      <trkpt lat="43.70756" lon="3.06808">
        <ele>955.7999878</ele>
        <time>2014-06-06T09:11:44Z</time>
      </trkpt>
      <trkpt lat="43.70749" lon="3.06808">
        <ele>955.2000122</ele>
        <time>2014-06-06T09:11:45Z</time>
      </trkpt>
      <trkpt lat="43.70715" lon="3.068">
        <ele>955.2000122</ele>
        <time>2014-06-06T09:11:49Z</time>
      </trkpt>
      <trkpt lat="43.70691" lon="3.06797">
        <ele>954.7999878</ele>
        <time>2014-06-06T09:11:52Z</time>
      </trkpt>
      <trkpt lat="43.70684" lon="3.06795">
        <ele>954.4000244</ele>
        <time>2014-06-06T09:11:53Z</time>
      </trkpt>
      <trkpt lat="43.70677" lon="3.06793">
        <ele>954</ele>
        <time>2014-06-06T09:11:54Z</time>
      </trkpt>
      <trkpt lat="43.70669" lon="3.06789">
        <ele>953.5999756</ele>
        <time>2014-06-06T09:11:55Z</time>
      </trkpt>
      <trkpt lat="43.70661" lon="3.06786">
        <ele>953.2000122</ele>
        <time>2014-06-06T09:11:56Z</time>
      </trkpt>
      <trkpt lat="43.70655" lon="3.06781">
        <ele>953.2000122</ele>
        <time>2014-06-06T09:11:57Z</time>
      </trkpt>
      <trkpt lat="43.70647" lon="3.06776">
        <ele>952.2000122</ele>
        <time>2014-06-06T09:11:58Z</time>
      </trkpt>
      <trkpt lat="43.7064" lon="3.06771">
        <ele>951.7999878</ele>
        <time>2014-06-06T09:11:59Z</time>
      </trkpt>
      <trkpt lat="43.70632" lon="3.06765">
        <ele>951.4000244</ele>
        <time>2014-06-06T09:12:00Z</time>
      </trkpt>
      <trkpt lat="43.70624" lon="3.06759">
        <ele>951</ele>
        <time>2014-06-06T09:12:01Z</time>
      </trkpt>
      <trkpt lat="43.70618" lon="3.06754">
        <ele>950.4000244</ele>
        <time>2014-06-06T09:12:02Z</time>
      </trkpt>
      <trkpt lat="43.70612" lon="3.0675">
        <ele>950</ele>
        <time>2014-06-06T09:12:03Z</time>
      </trkpt>
      <trkpt lat="43.70607" lon="3.06746">
        <ele>949.4000244</ele>
        <time>2014-06-06T09:12:04Z</time>
      </trkpt>
      <trkpt lat="43.70603" lon="3.06742">
        <ele>949</ele>
        <time>2014-06-06T09:12:05Z</time>
      </trkpt>
      <trkpt lat="43.70599" lon="3.06739">
        <ele>948.4000244</ele>
        <time>2014-06-06T09:12:06Z</time>
      </trkpt>
      <trkpt lat="43.70596" lon="3.06736">
        <ele>948</ele>
        <time>2014-06-06T09:12:07Z</time>
      </trkpt>
      <trkpt lat="43.70594" lon="3.06734">
        <ele>947.5999756</ele>
        <time>2014-06-06T09:12:08Z</time>
      </trkpt>
      <trkpt lat="43.70594" lon="3.06732">
        <ele>947.2000122</ele>
        <time>2014-06-06T09:12:09Z</time>
      </trkpt>
      <trkpt lat="43.70594" lon="3.06732">
        <ele>946.7999878</ele>
        <time>2014-06-06T09:12:10Z</time>
      </trkpt>
      <trkpt lat="43.70593" lon="3.06729">
        <ele>946.7999878</ele>
        <time>2014-06-06T09:12:11Z</time>
      </trkpt>
      <trkpt lat="43.7059" lon="3.06725">
        <ele>946.2000122</ele>
        <time>2014-06-06T09:12:13Z</time>
      </trkpt>
      <trkpt lat="43.70589" lon="3.06725">
        <ele>945.7999878</ele>
        <time>2014-06-06T09:12:14Z</time>
      </trkpt>
      <trkpt lat="43.70588" lon="3.06727">
        <ele>945.4000244</ele>
        <time>2014-06-06T09:12:15Z</time>
      </trkpt>
      <trkpt lat="43.70587" lon="3.06728">
        <ele>945</ele>
        <time>2014-06-06T09:12:16Z</time>
      </trkpt>
      <trkpt lat="43.70587" lon="3.06731">
        <ele>944.5999756</ele>
        <time>2014-06-06T09:12:17Z</time>
      </trkpt>
      <trkpt lat="43.70587" lon="3.06731">
        <ele>944.5999756</ele>
        <time>2014-06-06T09:12:18Z</time>
      </trkpt>
      <trkpt lat="43.70589" lon="3.06741">
        <ele>944.5999756</ele>
        <time>2014-06-06T09:12:33Z</time>
      </trkpt>
      <trkpt lat="43.70591" lon="3.06753">
        <ele>944.5999756</ele>
        <time>2014-06-06T09:12:38Z</time>
      </trkpt>
      <trkpt lat="43.70591" lon="3.06753">
        <ele>944.2000122</ele>
        <time>2014-06-06T09:12:39Z</time>
      </trkpt>
      <trkpt lat="43.70591" lon="3.06753">
        <ele>943.5999756</ele>
        <time>2014-06-06T09:12:40Z</time>
      </trkpt>
      <trkpt lat="43.70592" lon="3.06762">
        <ele>942.4000244</ele>
        <time>2014-06-06T09:12:45Z</time>
      </trkpt>
      <trkpt lat="43.70592" lon="3.06769">
        <ele>942.4000244</ele>
        <time>2014-06-06T09:12:47Z</time>
      </trkpt>
      <trkpt lat="43.70592" lon="3.06773">
        <ele>942</ele>
        <time>2014-06-06T09:12:48Z</time>
      </trkpt>
      <trkpt lat="43.70592" lon="3.06776">
        <ele>941.5999756</ele>
        <time>2014-06-06T09:12:49Z</time>
      </trkpt>
      <trkpt lat="43.70591" lon="3.06779">
        <ele>941.2000122</ele>
        <time>2014-06-06T09:12:50Z</time>
      </trkpt>
      <trkpt lat="43.70591" lon="3.06781">
        <ele>940.7999878</ele>
        <time>2014-06-06T09:12:51Z</time>
      </trkpt>
      <trkpt lat="43.7059" lon="3.06784">
        <ele>940.4000244</ele>
        <time>2014-06-06T09:12:52Z</time>
      </trkpt>
      <trkpt lat="43.70591" lon="3.06797">
        <ele>940.4000244</ele>
        <time>2014-06-06T09:12:58Z</time>
      </trkpt>
      <trkpt lat="43.70591" lon="3.06804">
        <ele>940.4000244</ele>
        <time>2014-06-06T09:13:04Z</time>
      </trkpt>
      <trkpt lat="43.70591" lon="3.06813">
        <ele>940.4000244</ele>
        <time>2014-06-06T09:13:08Z</time>
      </trkpt>
      <trkpt lat="43.7059" lon="3.06815">
        <ele>940.4000244</ele>
        <time>2014-06-06T09:13:09Z</time>
      </trkpt>
      <trkpt lat="43.70589" lon="3.06817">
        <ele>940.4000244</ele>
        <time>2014-06-06T09:13:10Z</time>
      </trkpt>
      <trkpt lat="43.70585" lon="3.06833">
        <ele>940</ele>
        <time>2014-06-06T09:13:15Z</time>
      </trkpt>
      <trkpt lat="43.70584" lon="3.06835">
        <ele>939.5999756</ele>
        <time>2014-06-06T09:13:16Z</time>
      </trkpt>
      <trkpt lat="43.70583" lon="3.06838">
        <ele>939.2000122</ele>
        <time>2014-06-06T09:13:17Z</time>
      </trkpt>
      <trkpt lat="43.70582" lon="3.06841">
        <ele>938.7999878</ele>
        <time>2014-06-06T09:13:18Z</time>
      </trkpt>
      <trkpt lat="43.70582" lon="3.06843">
        <ele>938.4000244</ele>
        <time>2014-06-06T09:13:19Z</time>
      </trkpt>
      <trkpt lat="43.70581" lon="3.06852">
        <ele>938.4000244</ele>
        <time>2014-06-06T09:13:20Z</time>
      </trkpt>
      <trkpt lat="43.70581" lon="3.06864">
        <ele>938.4000244</ele>
        <time>2014-06-06T09:13:23Z</time>
      </trkpt>
      <trkpt lat="43.70583" lon="3.0688">
        <ele>938</ele>
        <time>2014-06-06T09:13:27Z</time>
      </trkpt>
      <trkpt lat="43.70583" lon="3.06884">
        <ele>937.4000244</ele>
        <time>2014-06-06T09:13:28Z</time>
      </trkpt>
      <trkpt lat="43.70585" lon="3.06888">
        <ele>937</ele>
        <time>2014-06-06T09:13:29Z</time>
      </trkpt>
      <trkpt lat="43.70586" lon="3.06891">
        <ele>936.5999756</ele>
        <time>2014-06-06T09:13:30Z</time>
      </trkpt>
      <trkpt lat="43.70586" lon="3.06893">
        <ele>936.2000122</ele>
        <time>2014-06-06T09:13:31Z</time>
      </trkpt>
      <trkpt lat="43.70587" lon="3.06896">
        <ele>936.2000122</ele>
        <time>2014-06-06T09:13:32Z</time>
      </trkpt>
      <trkpt lat="43.70596" lon="3.0691">
        <ele>936.2000122</ele>
        <time>2014-06-06T09:13:36Z</time>
      </trkpt>
      <trkpt lat="43.70598" lon="3.06914">
        <ele>935.2000122</ele>
        <time>2014-06-06T09:13:37Z</time>
      </trkpt>
      <trkpt lat="43.706" lon="3.06917">
        <ele>934.7999878</ele>
        <time>2014-06-06T09:13:38Z</time>
      </trkpt>
      <trkpt lat="43.70601" lon="3.06921">
        <ele>934.4000244</ele>
        <time>2014-06-06T09:13:39Z</time>
      </trkpt>
      <trkpt lat="43.70601" lon="3.06924">
        <ele>934</ele>
        <time>2014-06-06T09:13:40Z</time>
      </trkpt>
      <trkpt lat="43.70601" lon="3.06927">
        <ele>934</ele>
        <time>2014-06-06T09:13:41Z</time>
      </trkpt>
      <trkpt lat="43.70601" lon="3.06935">
        <ele>934</ele>
        <time>2014-06-06T09:13:46Z</time>
      </trkpt>
      <trkpt lat="43.70601" lon="3.06935">
        <ele>934</ele>
        <time>2014-06-06T09:13:48Z</time>
      </trkpt>
      <trkpt lat="43.70604" lon="3.07015">
        <ele>936</ele>
        <time>2014-06-06T09:14:51Z</time>
      </trkpt>
      <trkpt lat="43.70603" lon="3.0702">
        <ele>936</ele>
        <time>2014-06-06T09:14:52Z</time>
      </trkpt>
      <trkpt lat="43.70603" lon="3.07045">
        <ele>936</ele>
        <time>2014-06-06T09:14:57Z</time>
      </trkpt>
      <trkpt lat="43.70603" lon="3.0705">
        <ele>936</ele>
        <time>2014-06-06T09:14:58Z</time>
      </trkpt>
      <trkpt lat="43.70602" lon="3.07054">
        <ele>935.5999756</ele>
        <time>2014-06-06T09:15:00Z</time>
      </trkpt>
      <trkpt lat="43.70602" lon="3.07056">
        <ele>935.2000122</ele>
        <time>2014-06-06T09:15:01Z</time>
      </trkpt>
      <trkpt lat="43.70603" lon="3.07059">
        <ele>934.7999878</ele>
        <time>2014-06-06T09:15:02Z</time>
      </trkpt>
      <trkpt lat="43.70602" lon="3.07062">
        <ele>934.2000122</ele>
        <time>2014-06-06T09:15:03Z</time>
      </trkpt>
      <trkpt lat="43.70602" lon="3.07065">
        <ele>933.7999878</ele>
        <time>2014-06-06T09:15:04Z</time>
      </trkpt>
      <trkpt lat="43.70601" lon="3.07071">
        <ele>933.4000244</ele>
        <time>2014-06-06T09:15:06Z</time>
      </trkpt>
      <trkpt lat="43.70599" lon="3.07077">
        <ele>933</ele>
        <time>2014-06-06T09:15:07Z</time>
      </trkpt>
      <trkpt lat="43.70598" lon="3.0708">
        <ele>932.4000244</ele>
        <time>2014-06-06T09:15:08Z</time>
      </trkpt>
      <trkpt lat="43.70597" lon="3.07083">
        <ele>932</ele>
        <time>2014-06-06T09:15:09Z</time>
      </trkpt>
      <trkpt lat="43.70597" lon="3.07085">
        <ele>931.5999756</ele>
        <time>2014-06-06T09:15:10Z</time>
      </trkpt>
      <trkpt lat="43.70596" lon="3.07086">
        <ele>931.5999756</ele>
        <time>2014-06-06T09:15:11Z</time>
      </trkpt>
      <trkpt lat="43.70596" lon="3.07088">
        <ele>931.5999756</ele>
        <time>2014-06-06T09:15:12Z</time>
      </trkpt>
      <trkpt lat="43.70596" lon="3.07088">
        <ele>931.5999756</ele>
        <time>2014-06-06T09:15:13Z</time>
      </trkpt>
      <trkpt lat="43.70596" lon="3.07092">
        <ele>930.5999756</ele>
        <time>2014-06-06T09:15:15Z</time>
      </trkpt>
      <trkpt lat="43.70596" lon="3.07093">
        <ele>930.2000122</ele>
        <time>2014-06-06T09:15:16Z</time>
      </trkpt>
      <trkpt lat="43.70595" lon="3.07095">
        <ele>929.7999878</ele>
        <time>2014-06-06T09:15:17Z</time>
      </trkpt>
      <trkpt lat="43.70595" lon="3.07097">
        <ele>929.4000244</ele>
        <time>2014-06-06T09:15:18Z</time>
      </trkpt>
      <trkpt lat="43.70593" lon="3.0711">
        <ele>929.4000244</ele>
        <time>2014-06-06T09:15:22Z</time>
      </trkpt>
      <trkpt lat="43.70591" lon="3.07127">
        <ele>929.4000244</ele>
        <time>2014-06-06T09:15:27Z</time>
      </trkpt>
      <trkpt lat="43.70587" lon="3.07143">
        <ele>929.4000244</ele>
        <time>2014-06-06T09:15:32Z</time>
      </trkpt>
      <trkpt lat="43.70586" lon="3.07147">
        <ele>929.4000244</ele>
        <time>2014-06-06T09:15:34Z</time>
      </trkpt>
      <trkpt lat="43.70587" lon="3.07164">
        <ele>930.2000122</ele>
        <time>2014-06-06T09:15:40Z</time>
      </trkpt>
      <trkpt lat="43.70587" lon="3.07168">
        <ele>930.5999756</ele>
        <time>2014-06-06T09:15:41Z</time>
      </trkpt>
      <trkpt lat="43.70586" lon="3.0717">
        <ele>931</ele>
        <time>2014-06-06T09:15:42Z</time>
      </trkpt>
      <trkpt lat="43.70585" lon="3.07172">
        <ele>931.4000244</ele>
        <time>2014-06-06T09:15:43Z</time>
      </trkpt>
      <trkpt lat="43.70584" lon="3.07177">
        <ele>931.4000244</ele>
        <time>2014-06-06T09:15:45Z</time>
      </trkpt>
      <trkpt lat="43.70576" lon="3.07187">
        <ele>931.4000244</ele>
        <time>2014-06-06T09:15:51Z</time>
      </trkpt>
      <trkpt lat="43.70565" lon="3.07199">
        <ele>931.4000244</ele>
        <time>2014-06-06T09:15:55Z</time>
      </trkpt>
      <trkpt lat="43.70554" lon="3.07216">
        <ele>931</ele>
        <time>2014-06-06T09:15:59Z</time>
      </trkpt>
      <trkpt lat="43.7055" lon="3.07219">
        <ele>930.5999756</ele>
        <time>2014-06-06T09:16:00Z</time>
      </trkpt>
      <trkpt lat="43.70546" lon="3.07223">
        <ele>930.2000122</ele>
        <time>2014-06-06T09:16:01Z</time>
      </trkpt>
      <trkpt lat="43.70542" lon="3.07226">
        <ele>929.5999756</ele>
        <time>2014-06-06T09:16:02Z</time>
      </trkpt>
      <trkpt lat="43.70538" lon="3.07229">
        <ele>929.2000122</ele>
        <time>2014-06-06T09:16:03Z</time>
      </trkpt>
      <trkpt lat="43.70531" lon="3.07236">
        <ele>929.2000122</ele>
        <time>2014-06-06T09:16:06Z</time>
      </trkpt>
      <trkpt lat="43.70517" lon="3.07252">
        <ele>929.2000122</ele>
        <time>2014-06-06T09:16:14Z</time>
      </trkpt>
      <trkpt lat="43.70511" lon="3.07258">
        <ele>928.7999878</ele>
        <time>2014-06-06T09:16:16Z</time>
      </trkpt>
      <trkpt lat="43.70509" lon="3.0726">
        <ele>928.4000244</ele>
        <time>2014-06-06T09:16:17Z</time>
      </trkpt>
      <trkpt lat="43.70506" lon="3.07264">
        <ele>928</ele>
        <time>2014-06-06T09:16:18Z</time>
      </trkpt>
      <trkpt lat="43.70504" lon="3.07267">
        <ele>927.5999756</ele>
        <time>2014-06-06T09:16:19Z</time>
      </trkpt>
      <trkpt lat="43.70501" lon="3.07269">
        <ele>927.2000122</ele>
        <time>2014-06-06T09:16:20Z</time>
      </trkpt>
      <trkpt lat="43.70495" lon="3.07278">
        <ele>926.5999756</ele>
        <time>2014-06-06T09:16:23Z</time>
      </trkpt>
      <trkpt lat="43.70492" lon="3.0728">
        <ele>926.2000122</ele>
        <time>2014-06-06T09:16:24Z</time>
      </trkpt>
      <trkpt lat="43.7049" lon="3.07283">
        <ele>925.7999878</ele>
        <time>2014-06-06T09:16:25Z</time>
      </trkpt>
      <trkpt lat="43.70487" lon="3.07287">
        <ele>925.4000244</ele>
        <time>2014-06-06T09:16:26Z</time>
      </trkpt>
      <trkpt lat="43.70485" lon="3.0729">
        <ele>925</ele>
        <time>2014-06-06T09:16:27Z</time>
      </trkpt>
      <trkpt lat="43.70477" lon="3.07301">
        <ele>924</ele>
        <time>2014-06-06T09:16:30Z</time>
      </trkpt>
      <trkpt lat="43.70476" lon="3.07304">
        <ele>923.5999756</ele>
        <time>2014-06-06T09:16:31Z</time>
      </trkpt>
      <trkpt lat="43.70474" lon="3.07306">
        <ele>923</ele>
        <time>2014-06-06T09:16:32Z</time>
      </trkpt>
      <trkpt lat="43.70473" lon="3.07307">
        <ele>922.5999756</ele>
        <time>2014-06-06T09:16:33Z</time>
      </trkpt>
      <trkpt lat="43.70464" lon="3.07314">
        <ele>922.5999756</ele>
        <time>2014-06-06T09:16:36Z</time>
      </trkpt>
      <trkpt lat="43.70461" lon="3.07318">
        <ele>922</ele>
        <time>2014-06-06T09:16:37Z</time>
      </trkpt>
      <trkpt lat="43.70458" lon="3.07322">
        <ele>921.5999756</ele>
        <time>2014-06-06T09:16:38Z</time>
      </trkpt>
      <trkpt lat="43.70456" lon="3.07327">
        <ele>921.2000122</ele>
        <time>2014-06-06T09:16:39Z</time>
      </trkpt>
      <trkpt lat="43.70455" lon="3.07332">
        <ele>920.5999756</ele>
        <time>2014-06-06T09:16:40Z</time>
      </trkpt>
      <trkpt lat="43.70456" lon="3.0733">
        <ele>920.2000122</ele>
        <time>2014-06-06T09:16:41Z</time>
      </trkpt>
      <trkpt lat="43.70456" lon="3.0733">
        <ele>920.2000122</ele>
        <time>2014-06-06T09:16:42Z</time>
      </trkpt>
      <trkpt lat="43.70446" lon="3.07339">
        <ele>919.7999878</ele>
        <time>2014-06-06T09:17:38Z</time>
      </trkpt>
      <trkpt lat="43.70444" lon="3.07341">
        <ele>919.2000122</ele>
        <time>2014-06-06T09:17:39Z</time>
      </trkpt>
      <trkpt lat="43.70442" lon="3.07344">
        <ele>918.7999878</ele>
        <time>2014-06-06T09:17:40Z</time>
      </trkpt>
      <trkpt lat="43.7044" lon="3.07347">
        <ele>918.4000244</ele>
        <time>2014-06-06T09:17:41Z</time>
      </trkpt>
      <trkpt lat="43.70438" lon="3.07351">
        <ele>918</ele>
        <time>2014-06-06T09:17:42Z</time>
      </trkpt>
      <trkpt lat="43.70437" lon="3.07355">
        <ele>917.5999756</ele>
        <time>2014-06-06T09:17:43Z</time>
      </trkpt>
      <trkpt lat="43.70435" lon="3.07358">
        <ele>916.5999756</ele>
        <time>2014-06-06T09:17:44Z</time>
      </trkpt>
      <trkpt lat="43.70433" lon="3.07361">
        <ele>916.2000122</ele>
        <time>2014-06-06T09:17:45Z</time>
      </trkpt>
      <trkpt lat="43.70432" lon="3.07363">
        <ele>915.7999878</ele>
        <time>2014-06-06T09:17:46Z</time>
      </trkpt>
      <trkpt lat="43.70425" lon="3.07372">
        <ele>915.7999878</ele>
        <time>2014-06-06T09:17:51Z</time>
      </trkpt>
      <trkpt lat="43.70422" lon="3.07377">
        <ele>915.7999878</ele>
        <time>2014-06-06T09:17:57Z</time>
      </trkpt>
      <trkpt lat="43.70422" lon="3.07377">
        <ele>915.7999878</ele>
        <time>2014-06-06T09:17:58Z</time>
      </trkpt>
      <trkpt lat="43.70418" lon="3.07384">
        <ele>915.7999878</ele>
        <time>2014-06-06T09:18:02Z</time>
      </trkpt>
      <trkpt lat="43.70413" lon="3.0739">
        <ele>915.7999878</ele>
        <time>2014-06-06T09:18:05Z</time>
      </trkpt>
      <trkpt lat="43.70405" lon="3.07402">
        <ele>915.7999878</ele>
        <time>2014-06-06T09:18:09Z</time>
      </trkpt>
      <trkpt lat="43.70391" lon="3.07412">
        <ele>915.7999878</ele>
        <time>2014-06-06T09:18:14Z</time>
      </trkpt>
      <trkpt lat="43.7038" lon="3.07424">
        <ele>915.4000244</ele>
        <time>2014-06-06T09:18:18Z</time>
      </trkpt>
      <trkpt lat="43.70379" lon="3.07426">
        <ele>915</ele>
        <time>2014-06-06T09:18:19Z</time>
      </trkpt>
      <trkpt lat="43.70379" lon="3.07427">
        <ele>914.5999756</ele>
        <time>2014-06-06T09:18:20Z</time>
      </trkpt>
      <trkpt lat="43.70379" lon="3.07427">
        <ele>914.2000122</ele>
        <time>2014-06-06T09:18:21Z</time>
      </trkpt>
      <trkpt lat="43.70379" lon="3.07427">
        <ele>913.7999878</ele>
        <time>2014-06-06T09:18:22Z</time>
      </trkpt>
      <trkpt lat="43.70373" lon="3.07435">
        <ele>913.7999878</ele>
        <time>2014-06-06T09:18:28Z</time>
      </trkpt>
      <trkpt lat="43.70371" lon="3.07437">
        <ele>913.7999878</ele>
        <time>2014-06-06T09:18:29Z</time>
      </trkpt>
      <trkpt lat="43.70363" lon="3.07446">
        <ele>913.7999878</ele>
        <time>2014-06-06T09:18:33Z</time>
      </trkpt>
      <trkpt lat="43.7035" lon="3.0746">
        <ele>913.4000244</ele>
        <time>2014-06-06T09:18:39Z</time>
      </trkpt>
      <trkpt lat="43.70348" lon="3.07464">
        <ele>913</ele>
        <time>2014-06-06T09:18:40Z</time>
      </trkpt>
      <trkpt lat="43.70345" lon="3.07468">
        <ele>912.5999756</ele>
        <time>2014-06-06T09:18:41Z</time>
      </trkpt>
      <trkpt lat="43.70342" lon="3.07472">
        <ele>912.2000122</ele>
        <time>2014-06-06T09:18:42Z</time>
      </trkpt>
      <trkpt lat="43.70339" lon="3.07476">
        <ele>911.7999878</ele>
        <time>2014-06-06T09:18:43Z</time>
      </trkpt>
      <trkpt lat="43.70337" lon="3.0748">
        <ele>911.7999878</ele>
        <time>2014-06-06T09:18:44Z</time>
      </trkpt>
      <trkpt lat="43.70329" lon="3.07491">
        <ele>911.2000122</ele>
        <time>2014-06-06T09:18:47Z</time>
      </trkpt>
      <trkpt lat="43.70327" lon="3.07495">
        <ele>910.7999878</ele>
        <time>2014-06-06T09:18:48Z</time>
      </trkpt>
      <trkpt lat="43.70324" lon="3.07499">
        <ele>910.4000244</ele>
        <time>2014-06-06T09:18:49Z</time>
      </trkpt>
      <trkpt lat="43.70322" lon="3.07504">
        <ele>910</ele>
        <time>2014-06-06T09:18:50Z</time>
      </trkpt>
      <trkpt lat="43.70321" lon="3.07508">
        <ele>909.5999756</ele>
        <time>2014-06-06T09:18:51Z</time>
      </trkpt>
      <trkpt lat="43.70319" lon="3.07512">
        <ele>909.2000122</ele>
        <time>2014-06-06T09:18:52Z</time>
      </trkpt>
      <trkpt lat="43.70318" lon="3.07516">
        <ele>908.7999878</ele>
        <time>2014-06-06T09:18:53Z</time>
      </trkpt>
      <trkpt lat="43.70316" lon="3.0752">
        <ele>908.2000122</ele>
        <time>2014-06-06T09:18:54Z</time>
      </trkpt>
      <trkpt lat="43.70315" lon="3.07523">
        <ele>907.7999878</ele>
        <time>2014-06-06T09:18:55Z</time>
      </trkpt>
      <trkpt lat="43.70313" lon="3.07525">
        <ele>907.4000244</ele>
        <time>2014-06-06T09:18:56Z</time>
      </trkpt>
      <trkpt lat="43.70311" lon="3.07529">
        <ele>906.7999878</ele>
        <time>2014-06-06T09:18:57Z</time>
      </trkpt>
      <trkpt lat="43.70309" lon="3.07533">
        <ele>905.7999878</ele>
        <time>2014-06-06T09:18:58Z</time>
      </trkpt>
      <trkpt lat="43.70308" lon="3.07537">
        <ele>905.2000122</ele>
        <time>2014-06-06T09:18:59Z</time>
      </trkpt>
      <trkpt lat="43.70306" lon="3.07542">
        <ele>904.5999756</ele>
        <time>2014-06-06T09:19:00Z</time>
      </trkpt>
      <trkpt lat="43.70305" lon="3.07547">
        <ele>904</ele>
        <time>2014-06-06T09:19:01Z</time>
      </trkpt>
      <trkpt lat="43.70304" lon="3.07551">
        <ele>903.5999756</ele>
        <time>2014-06-06T09:19:02Z</time>
      </trkpt>
      <trkpt lat="43.70302" lon="3.07555">
        <ele>903</ele>
        <time>2014-06-06T09:19:03Z</time>
      </trkpt>
      <trkpt lat="43.70299" lon="3.07558">
        <ele>902.4000244</ele>
        <time>2014-06-06T09:19:04Z</time>
      </trkpt>
      <trkpt lat="43.70296" lon="3.07562">
        <ele>901.7999878</ele>
        <time>2014-06-06T09:19:05Z</time>
      </trkpt>
      <trkpt lat="43.70292" lon="3.07565">
        <ele>901.2000122</ele>
        <time>2014-06-06T09:19:06Z</time>
      </trkpt>
      <trkpt lat="43.70287" lon="3.07568">
        <ele>900.7999878</ele>
        <time>2014-06-06T09:19:07Z</time>
      </trkpt>
      <trkpt lat="43.70283" lon="3.07571">
        <ele>900.2000122</ele>
        <time>2014-06-06T09:19:08Z</time>
      </trkpt>
      <trkpt lat="43.70279" lon="3.07574">
        <ele>899.7999878</ele>
        <time>2014-06-06T09:19:09Z</time>
      </trkpt>
      <trkpt lat="43.70274" lon="3.07577">
        <ele>899.2000122</ele>
        <time>2014-06-06T09:19:10Z</time>
      </trkpt>
      <trkpt lat="43.7027" lon="3.0758">
        <ele>898.5999756</ele>
        <time>2014-06-06T09:19:11Z</time>
      </trkpt>
      <trkpt lat="43.70264" lon="3.07582">
        <ele>898.2000122</ele>
        <time>2014-06-06T09:19:12Z</time>
      </trkpt>
      <trkpt lat="43.70259" lon="3.07584">
        <ele>897.7999878</ele>
        <time>2014-06-06T09:19:13Z</time>
      </trkpt>
      <trkpt lat="43.70256" lon="3.07586">
        <ele>897.4000244</ele>
        <time>2014-06-06T09:19:14Z</time>
      </trkpt>
      <trkpt lat="43.70252" lon="3.07588">
        <ele>896.7999878</ele>
        <time>2014-06-06T09:19:15Z</time>
      </trkpt>
      <trkpt lat="43.7025" lon="3.0759">
        <ele>896.4000244</ele>
        <time>2014-06-06T09:19:16Z</time>
      </trkpt>
      <trkpt lat="43.70247" lon="3.07591">
        <ele>896.4000244</ele>
        <time>2014-06-06T09:19:17Z</time>
      </trkpt>
      <trkpt lat="43.70244" lon="3.07593">
        <ele>896</ele>
        <time>2014-06-06T09:19:20Z</time>
      </trkpt>
      <trkpt lat="43.70243" lon="3.07594">
        <ele>895.4000244</ele>
        <time>2014-06-06T09:19:21Z</time>
      </trkpt>
      <trkpt lat="43.70243" lon="3.07595">
        <ele>895</ele>
        <time>2014-06-06T09:19:22Z</time>
      </trkpt>
      <trkpt lat="43.70237" lon="3.07603">
        <ele>894</ele>
        <time>2014-06-06T09:19:25Z</time>
      </trkpt>
      <trkpt lat="43.70233" lon="3.07607">
        <ele>893.5999756</ele>
        <time>2014-06-06T09:19:27Z</time>
      </trkpt>
      <trkpt lat="43.70231" lon="3.07608">
        <ele>893.2000122</ele>
        <time>2014-06-06T09:19:28Z</time>
      </trkpt>
      <trkpt lat="43.70229" lon="3.0761">
        <ele>892.7999878</ele>
        <time>2014-06-06T09:19:29Z</time>
      </trkpt>
      <trkpt lat="43.70226" lon="3.07612">
        <ele>892.4000244</ele>
        <time>2014-06-06T09:19:30Z</time>
      </trkpt>
      <trkpt lat="43.70224" lon="3.07614">
        <ele>892</ele>
        <time>2014-06-06T09:19:31Z</time>
      </trkpt>
      <trkpt lat="43.70221" lon="3.07616">
        <ele>891.5999756</ele>
        <time>2014-06-06T09:19:32Z</time>
      </trkpt>
      <trkpt lat="43.70219" lon="3.07619">
        <ele>891.2000122</ele>
        <time>2014-06-06T09:19:33Z</time>
      </trkpt>
      <trkpt lat="43.70217" lon="3.07622">
        <ele>890.7999878</ele>
        <time>2014-06-06T09:19:34Z</time>
      </trkpt>
      <trkpt lat="43.70214" lon="3.07625">
        <ele>890.4000244</ele>
        <time>2014-06-06T09:19:35Z</time>
      </trkpt>
      <trkpt lat="43.70212" lon="3.07629">
        <ele>890</ele>
        <time>2014-06-06T09:19:36Z</time>
      </trkpt>
      <trkpt lat="43.70209" lon="3.07632">
        <ele>889.5999756</ele>
        <time>2014-06-06T09:19:37Z</time>
      </trkpt>
      <trkpt lat="43.70206" lon="3.07635">
        <ele>889.2000122</ele>
        <time>2014-06-06T09:19:38Z</time>
      </trkpt>
      <trkpt lat="43.70203" lon="3.07639">
        <ele>888.5999756</ele>
        <time>2014-06-06T09:19:39Z</time>
      </trkpt>
      <trkpt lat="43.70199" lon="3.07643">
        <ele>888.2000122</ele>
        <time>2014-06-06T09:19:40Z</time>
      </trkpt>
      <trkpt lat="43.70195" lon="3.07647">
        <ele>887.7999878</ele>
        <time>2014-06-06T09:19:41Z</time>
      </trkpt>
      <trkpt lat="43.70191" lon="3.07652">
        <ele>887.4000244</ele>
        <time>2014-06-06T09:19:42Z</time>
      </trkpt>
      <trkpt lat="43.70187" lon="3.07658">
        <ele>887</ele>
        <time>2014-06-06T09:19:43Z</time>
      </trkpt>
      <trkpt lat="43.70183" lon="3.07661">
        <ele>886.4000244</ele>
        <time>2014-06-06T09:19:44Z</time>
      </trkpt>
      <trkpt lat="43.7018" lon="3.07664">
        <ele>886</ele>
        <time>2014-06-06T09:19:45Z</time>
      </trkpt>
      <trkpt lat="43.70176" lon="3.07667">
        <ele>885.5999756</ele>
        <time>2014-06-06T09:19:46Z</time>
      </trkpt>
      <trkpt lat="43.70172" lon="3.0767">
        <ele>885.2000122</ele>
        <time>2014-06-06T09:19:47Z</time>
      </trkpt>
      <trkpt lat="43.70168" lon="3.07674">
        <ele>884.7999878</ele>
        <time>2014-06-06T09:19:48Z</time>
      </trkpt>
      <trkpt lat="43.70165" lon="3.07677">
        <ele>884.4000244</ele>
        <time>2014-06-06T09:19:49Z</time>
      </trkpt>
      <trkpt lat="43.70161" lon="3.0768">
        <ele>884</ele>
        <time>2014-06-06T09:19:50Z</time>
      </trkpt>
      <trkpt lat="43.70157" lon="3.07683">
        <ele>883.5999756</ele>
        <time>2014-06-06T09:19:51Z</time>
      </trkpt>
      <trkpt lat="43.70145" lon="3.07692">
        <ele>883</ele>
        <time>2014-06-06T09:19:54Z</time>
      </trkpt>
      <trkpt lat="43.70143" lon="3.07693">
        <ele>882.5999756</ele>
        <time>2014-06-06T09:19:55Z</time>
      </trkpt>
      <trkpt lat="43.70142" lon="3.07693">
        <ele>882.2000122</ele>
        <time>2014-06-06T09:19:56Z</time>
      </trkpt>
      <trkpt lat="43.70141" lon="3.07694">
        <ele>881.7999878</ele>
        <time>2014-06-06T09:19:57Z</time>
      </trkpt>
      <trkpt lat="43.70139" lon="3.07694">
        <ele>881.2000122</ele>
        <time>2014-06-06T09:19:58Z</time>
      </trkpt>
      <trkpt lat="43.70137" lon="3.07694">
        <ele>881.2000122</ele>
        <time>2014-06-06T09:19:59Z</time>
      </trkpt>
      <trkpt lat="43.7013" lon="3.07695">
        <ele>880.7999878</ele>
        <time>2014-06-06T09:20:02Z</time>
      </trkpt>
      <trkpt lat="43.70128" lon="3.07696">
        <ele>880.4000244</ele>
        <time>2014-06-06T09:20:03Z</time>
      </trkpt>
      <trkpt lat="43.70124" lon="3.07698">
        <ele>880</ele>
        <time>2014-06-06T09:20:04Z</time>
      </trkpt>
      <trkpt lat="43.70121" lon="3.07699">
        <ele>879.5999756</ele>
        <time>2014-06-06T09:20:05Z</time>
      </trkpt>
      <trkpt lat="43.70118" lon="3.077">
        <ele>879.2000122</ele>
        <time>2014-06-06T09:20:06Z</time>
      </trkpt>
      <trkpt lat="43.7011" lon="3.07702">
        <ele>878.7999878</ele>
        <time>2014-06-06T09:20:08Z</time>
      </trkpt>
      <trkpt lat="43.70107" lon="3.07704">
        <ele>878.2000122</ele>
        <time>2014-06-06T09:20:09Z</time>
      </trkpt>
      <trkpt lat="43.70103" lon="3.07704">
        <ele>877.7999878</ele>
        <time>2014-06-06T09:20:10Z</time>
      </trkpt>
      <trkpt lat="43.70099" lon="3.07704">
        <ele>877</ele>
        <time>2014-06-06T09:20:11Z</time>
      </trkpt>
      <trkpt lat="43.70096" lon="3.07704">
        <ele>876.5999756</ele>
        <time>2014-06-06T09:20:12Z</time>
      </trkpt>
      <trkpt lat="43.70095" lon="3.07705">
        <ele>876.2000122</ele>
        <time>2014-06-06T09:20:13Z</time>
      </trkpt>
      <trkpt lat="43.70094" lon="3.07705">
        <ele>875.7999878</ele>
        <time>2014-06-06T09:20:14Z</time>
      </trkpt>
      <trkpt lat="43.70094" lon="3.07705">
        <ele>875.4000244</ele>
        <time>2014-06-06T09:20:15Z</time>
      </trkpt>
      <trkpt lat="43.70094" lon="3.07705">
        <ele>875</ele>
        <time>2014-06-06T09:20:16Z</time>
      </trkpt>
      <trkpt lat="43.70094" lon="3.07705">
        <ele>875</ele>
        <time>2014-06-06T09:20:17Z</time>
      </trkpt>
      <trkpt lat="43.70088" lon="3.07706">
        <ele>874.2000122</ele>
        <time>2014-06-06T09:20:29Z</time>
      </trkpt>
      <trkpt lat="43.70086" lon="3.07706">
        <ele>873.7999878</ele>
        <time>2014-06-06T09:20:30Z</time>
      </trkpt>
      <trkpt lat="43.70084" lon="3.07707">
        <ele>873.4000244</ele>
        <time>2014-06-06T09:20:31Z</time>
      </trkpt>
      <trkpt lat="43.70081" lon="3.07707">
        <ele>873</ele>
        <time>2014-06-06T09:20:32Z</time>
      </trkpt>
      <trkpt lat="43.70067" lon="3.07712">
        <ele>872.5999756</ele>
        <time>2014-06-06T09:20:37Z</time>
      </trkpt>
      <trkpt lat="43.70064" lon="3.07713">
        <ele>872</ele>
        <time>2014-06-06T09:20:38Z</time>
      </trkpt>
      <trkpt lat="43.70061" lon="3.07714">
        <ele>871.5999756</ele>
        <time>2014-06-06T09:20:39Z</time>
      </trkpt>
      <trkpt lat="43.70057" lon="3.07714">
        <ele>871.2000122</ele>
        <time>2014-06-06T09:20:40Z</time>
      </trkpt>
      <trkpt lat="43.70054" lon="3.07715">
        <ele>870.5999756</ele>
        <time>2014-06-06T09:20:41Z</time>
      </trkpt>
      <trkpt lat="43.70047" lon="3.07717">
        <ele>870.2000122</ele>
        <time>2014-06-06T09:20:43Z</time>
      </trkpt>
      <trkpt lat="43.70044" lon="3.07717">
        <ele>869.7999878</ele>
        <time>2014-06-06T09:20:44Z</time>
      </trkpt>
      <trkpt lat="43.70041" lon="3.07718">
        <ele>869.4000244</ele>
        <time>2014-06-06T09:20:45Z</time>
      </trkpt>
      <trkpt lat="43.70038" lon="3.07719">
        <ele>869</ele>
        <time>2014-06-06T09:20:46Z</time>
      </trkpt>
      <trkpt lat="43.70035" lon="3.0772">
        <ele>868.4000244</ele>
        <time>2014-06-06T09:20:47Z</time>
      </trkpt>
      <trkpt lat="43.70026" lon="3.07721">
        <ele>868</ele>
        <time>2014-06-06T09:20:50Z</time>
      </trkpt>
      <trkpt lat="43.70023" lon="3.07722">
        <ele>867.5999756</ele>
        <time>2014-06-06T09:20:51Z</time>
      </trkpt>
      <trkpt lat="43.7002" lon="3.07723">
        <ele>867.2000122</ele>
        <time>2014-06-06T09:20:52Z</time>
      </trkpt>
      <trkpt lat="43.70016" lon="3.07723">
        <ele>866.5999756</ele>
        <time>2014-06-06T09:20:53Z</time>
      </trkpt>
      <trkpt lat="43.70013" lon="3.07723">
        <ele>866.2000122</ele>
        <time>2014-06-06T09:20:54Z</time>
      </trkpt>
      <trkpt lat="43.70007" lon="3.07723">
        <ele>865.7999878</ele>
        <time>2014-06-06T09:20:56Z</time>
      </trkpt>
      <trkpt lat="43.70004" lon="3.07723">
        <ele>865.4000244</ele>
        <time>2014-06-06T09:20:57Z</time>
      </trkpt>
      <trkpt lat="43.70002" lon="3.07723">
        <ele>864.7999878</ele>
        <time>2014-06-06T09:20:58Z</time>
      </trkpt>
      <trkpt lat="43.69999" lon="3.07724">
        <ele>864.4000244</ele>
        <time>2014-06-06T09:20:59Z</time>
      </trkpt>
      <trkpt lat="43.69996" lon="3.07724">
        <ele>864</ele>
        <time>2014-06-06T09:21:00Z</time>
      </trkpt>
      <trkpt lat="43.69993" lon="3.07724">
        <ele>863.5999756</ele>
        <time>2014-06-06T09:21:01Z</time>
      </trkpt>
      <trkpt lat="43.69989" lon="3.07724">
        <ele>863.2000122</ele>
        <time>2014-06-06T09:21:02Z</time>
      </trkpt>
      <trkpt lat="43.69987" lon="3.07724">
        <ele>862.7999878</ele>
        <time>2014-06-06T09:21:03Z</time>
      </trkpt>
      <trkpt lat="43.69985" lon="3.07724">
        <ele>862.4000244</ele>
        <time>2014-06-06T09:21:04Z</time>
      </trkpt>
      <trkpt lat="43.69983" lon="3.07725">
        <ele>862</ele>
        <time>2014-06-06T09:21:05Z</time>
      </trkpt>
      <trkpt lat="43.69974" lon="3.07726">
        <ele>862</ele>
        <time>2014-06-06T09:21:10Z</time>
      </trkpt>
      <trkpt lat="43.69964" lon="3.07727">
        <ele>861.5999756</ele>
        <time>2014-06-06T09:21:14Z</time>
      </trkpt>
      <trkpt lat="43.69961" lon="3.07727">
        <ele>861.2000122</ele>
        <time>2014-06-06T09:21:15Z</time>
      </trkpt>
      <trkpt lat="43.69958" lon="3.07727">
        <ele>860.5999756</ele>
        <time>2014-06-06T09:21:16Z</time>
      </trkpt>
      <trkpt lat="43.69955" lon="3.07727">
        <ele>860.2000122</ele>
        <time>2014-06-06T09:21:17Z</time>
      </trkpt>
      <trkpt lat="43.69952" lon="3.07728">
        <ele>859.7999878</ele>
        <time>2014-06-06T09:21:18Z</time>
      </trkpt>
      <trkpt lat="43.69941" lon="3.07731">
        <ele>859.7999878</ele>
        <time>2014-06-06T09:21:22Z</time>
      </trkpt>
      <trkpt lat="43.69919" lon="3.07742">
        <ele>859.4000244</ele>
        <time>2014-06-06T09:21:29Z</time>
      </trkpt>
      <trkpt lat="43.69916" lon="3.07745">
        <ele>859</ele>
        <time>2014-06-06T09:21:30Z</time>
      </trkpt>
      <trkpt lat="43.69913" lon="3.07747">
        <ele>858.5999756</ele>
        <time>2014-06-06T09:21:31Z</time>
      </trkpt>
      <trkpt lat="43.6991" lon="3.0775">
        <ele>858.2000122</ele>
        <time>2014-06-06T09:21:32Z</time>
      </trkpt>
      <trkpt lat="43.69907" lon="3.07752">
        <ele>857.7999878</ele>
        <time>2014-06-06T09:21:33Z</time>
      </trkpt>
      <trkpt lat="43.69904" lon="3.07755">
        <ele>857.4000244</ele>
        <time>2014-06-06T09:21:34Z</time>
      </trkpt>
      <trkpt lat="43.69902" lon="3.07757">
        <ele>857</ele>
        <time>2014-06-06T09:21:35Z</time>
      </trkpt>
      <trkpt lat="43.699" lon="3.07759">
        <ele>856.5999756</ele>
        <time>2014-06-06T09:21:36Z</time>
      </trkpt>
      <trkpt lat="43.69899" lon="3.07761">
        <ele>856.2000122</ele>
        <time>2014-06-06T09:21:37Z</time>
      </trkpt>
      <trkpt lat="43.69897" lon="3.07762">
        <ele>855.7999878</ele>
        <time>2014-06-06T09:21:38Z</time>
      </trkpt>
      <trkpt lat="43.69897" lon="3.07763">
        <ele>855.2000122</ele>
        <time>2014-06-06T09:21:39Z</time>
      </trkpt>
      <trkpt lat="43.69895" lon="3.07765">
        <ele>854.7999878</ele>
        <time>2014-06-06T09:21:40Z</time>
      </trkpt>
      <trkpt lat="43.69894" lon="3.07768">
        <ele>854.4000244</ele>
        <time>2014-06-06T09:21:41Z</time>
      </trkpt>
      <trkpt lat="43.69892" lon="3.0777">
        <ele>853.7999878</ele>
        <time>2014-06-06T09:21:42Z</time>
      </trkpt>
      <trkpt lat="43.6989" lon="3.07772">
        <ele>853.4000244</ele>
        <time>2014-06-06T09:21:43Z</time>
      </trkpt>
      <trkpt lat="43.69884" lon="3.07779">
        <ele>853</ele>
        <time>2014-06-06T09:21:46Z</time>
      </trkpt>
      <trkpt lat="43.69882" lon="3.07782">
        <ele>852.5999756</ele>
        <time>2014-06-06T09:21:47Z</time>
      </trkpt>
      <trkpt lat="43.69881" lon="3.07784">
        <ele>852.2000122</ele>
        <time>2014-06-06T09:21:48Z</time>
      </trkpt>
      <trkpt lat="43.6988" lon="3.07786">
        <ele>851.7999878</ele>
        <time>2014-06-06T09:21:49Z</time>
      </trkpt>
      <trkpt lat="43.69879" lon="3.07788">
        <ele>851.4000244</ele>
        <time>2014-06-06T09:21:50Z</time>
      </trkpt>
      <trkpt lat="43.69879" lon="3.07788">
        <ele>851.4000244</ele>
        <time>2014-06-06T09:21:51Z</time>
      </trkpt>
      <trkpt lat="43.69879" lon="3.07788">
        <ele>851.4000244</ele>
        <time>2014-06-06T09:21:52Z</time>
      </trkpt>
      <trkpt lat="43.69876" lon="3.0779">
        <ele>851</ele>
        <time>2014-06-06T09:21:55Z</time>
      </trkpt>
      <trkpt lat="43.69874" lon="3.07791">
        <ele>850.5999756</ele>
        <time>2014-06-06T09:21:56Z</time>
      </trkpt>
      <trkpt lat="43.69873" lon="3.07791">
        <ele>850</ele>
        <time>2014-06-06T09:21:57Z</time>
      </trkpt>
      <trkpt lat="43.69871" lon="3.07792">
        <ele>849.5999756</ele>
        <time>2014-06-06T09:21:58Z</time>
      </trkpt>
      <trkpt lat="43.69869" lon="3.07794">
        <ele>849.2000122</ele>
        <time>2014-06-06T09:21:59Z</time>
      </trkpt>
      <trkpt lat="43.69864" lon="3.07799">
        <ele>848.7999878</ele>
        <time>2014-06-06T09:22:02Z</time>
      </trkpt>
      <trkpt lat="43.69863" lon="3.07802">
        <ele>848.4000244</ele>
        <time>2014-06-06T09:22:03Z</time>
      </trkpt>
      <trkpt lat="43.6986" lon="3.07804">
        <ele>847.7999878</ele>
        <time>2014-06-06T09:22:04Z</time>
      </trkpt>
      <trkpt lat="43.69858" lon="3.07806">
        <ele>847.4000244</ele>
        <time>2014-06-06T09:22:05Z</time>
      </trkpt>
      <trkpt lat="43.69855" lon="3.07809">
        <ele>847</ele>
        <time>2014-06-06T09:22:06Z</time>
      </trkpt>
      <trkpt lat="43.69847" lon="3.07818">
        <ele>846.5999756</ele>
        <time>2014-06-06T09:22:09Z</time>
      </trkpt>
      <trkpt lat="43.69845" lon="3.0782">
        <ele>846</ele>
        <time>2014-06-06T09:22:10Z</time>
      </trkpt>
      <trkpt lat="43.69842" lon="3.07823">
        <ele>845.5999756</ele>
        <time>2014-06-06T09:22:11Z</time>
      </trkpt>
      <trkpt lat="43.69839" lon="3.07826">
        <ele>845.2000122</ele>
        <time>2014-06-06T09:22:12Z</time>
      </trkpt>
      <trkpt lat="43.69837" lon="3.07829">
        <ele>844.5999756</ele>
        <time>2014-06-06T09:22:13Z</time>
      </trkpt>
      <trkpt lat="43.69834" lon="3.07832">
        <ele>844.2000122</ele>
        <time>2014-06-06T09:22:14Z</time>
      </trkpt>
      <trkpt lat="43.69831" lon="3.07834">
        <ele>843.4000244</ele>
        <time>2014-06-06T09:22:15Z</time>
      </trkpt>
      <trkpt lat="43.69828" lon="3.07837">
        <ele>843</ele>
        <time>2014-06-06T09:22:16Z</time>
      </trkpt>
      <trkpt lat="43.69826" lon="3.07839">
        <ele>842.5999756</ele>
        <time>2014-06-06T09:22:17Z</time>
      </trkpt>
      <trkpt lat="43.6982" lon="3.07845">
        <ele>842.2000122</ele>
        <time>2014-06-06T09:22:19Z</time>
      </trkpt>
      <trkpt lat="43.69817" lon="3.07847">
        <ele>841.7999878</ele>
        <time>2014-06-06T09:22:20Z</time>
      </trkpt>
      <trkpt lat="43.69815" lon="3.07849">
        <ele>841.4000244</ele>
        <time>2014-06-06T09:22:21Z</time>
      </trkpt>
      <trkpt lat="43.69812" lon="3.07852">
        <ele>841</ele>
        <time>2014-06-06T09:22:22Z</time>
      </trkpt>
      <trkpt lat="43.69809" lon="3.07854">
        <ele>840.5999756</ele>
        <time>2014-06-06T09:22:23Z</time>
      </trkpt>
      <trkpt lat="43.69807" lon="3.07856">
        <ele>840.5999756</ele>
        <time>2014-06-06T09:22:24Z</time>
      </trkpt>
      <trkpt lat="43.69796" lon="3.07865">
        <ele>840.2000122</ele>
        <time>2014-06-06T09:22:28Z</time>
      </trkpt>
      <trkpt lat="43.69794" lon="3.07866">
        <ele>839.7999878</ele>
        <time>2014-06-06T09:22:29Z</time>
      </trkpt>
      <trkpt lat="43.69791" lon="3.07867">
        <ele>839.4000244</ele>
        <time>2014-06-06T09:22:30Z</time>
      </trkpt>
      <trkpt lat="43.6979" lon="3.07868">
        <ele>839</ele>
        <time>2014-06-06T09:22:31Z</time>
      </trkpt>
      <trkpt lat="43.69788" lon="3.07869">
        <ele>838.5999756</ele>
        <time>2014-06-06T09:22:32Z</time>
      </trkpt>
      <trkpt lat="43.69787" lon="3.0787">
        <ele>838.5999756</ele>
        <time>2014-06-06T09:22:33Z</time>
      </trkpt>
      <trkpt lat="43.69784" lon="3.07874">
        <ele>838.5999756</ele>
        <time>2014-06-06T09:22:38Z</time>
      </trkpt>
      <trkpt lat="43.69782" lon="3.07876">
        <ele>838.5999756</ele>
        <time>2014-06-06T09:22:39Z</time>
      </trkpt>
      <trkpt lat="43.69778" lon="3.07884">
        <ele>838.5999756</ele>
        <time>2014-06-06T09:22:45Z</time>
      </trkpt>
      <trkpt lat="43.69773" lon="3.07889">
        <ele>839</ele>
        <time>2014-06-06T09:22:48Z</time>
      </trkpt>
      <trkpt lat="43.69771" lon="3.07891">
        <ele>839.4000244</ele>
        <time>2014-06-06T09:22:49Z</time>
      </trkpt>
      <trkpt lat="43.69769" lon="3.07893">
        <ele>839.7999878</ele>
        <time>2014-06-06T09:22:50Z</time>
      </trkpt>
      <trkpt lat="43.69767" lon="3.07894">
        <ele>840.2000122</ele>
        <time>2014-06-06T09:22:51Z</time>
      </trkpt>
      <trkpt lat="43.69765" lon="3.07896">
        <ele>840.5999756</ele>
        <time>2014-06-06T09:22:52Z</time>
      </trkpt>
      <trkpt lat="43.6976" lon="3.079">
        <ele>840.5999756</ele>
        <time>2014-06-06T09:22:56Z</time>
      </trkpt>
      <trkpt lat="43.69754" lon="3.07904">
        <ele>840.5999756</ele>
        <time>2014-06-06T09:22:59Z</time>
      </trkpt>
      <trkpt lat="43.69748" lon="3.07912">
        <ele>841</ele>
        <time>2014-06-06T09:23:04Z</time>
      </trkpt>
      <trkpt lat="43.69747" lon="3.07913">
        <ele>841.4000244</ele>
        <time>2014-06-06T09:23:05Z</time>
      </trkpt>
      <trkpt lat="43.69745" lon="3.07914">
        <ele>841.7999878</ele>
        <time>2014-06-06T09:23:06Z</time>
      </trkpt>
      <trkpt lat="43.69744" lon="3.07916">
        <ele>842.2000122</ele>
        <time>2014-06-06T09:23:07Z</time>
      </trkpt>
      <trkpt lat="43.69743" lon="3.07918">
        <ele>842.5999756</ele>
        <time>2014-06-06T09:23:08Z</time>
      </trkpt>
      <trkpt lat="43.6974" lon="3.07921">
        <ele>842.5999756</ele>
        <time>2014-06-06T09:23:11Z</time>
      </trkpt>
      <trkpt lat="43.69739" lon="3.07922">
        <ele>842.5999756</ele>
        <time>2014-06-06T09:23:12Z</time>
      </trkpt>
      <trkpt lat="43.69737" lon="3.07928">
        <ele>842.5999756</ele>
        <time>2014-06-06T09:23:15Z</time>
      </trkpt>
      <trkpt lat="43.69736" lon="3.07929">
        <ele>842.5999756</ele>
        <time>2014-06-06T09:23:17Z</time>
      </trkpt>
      <trkpt lat="43.69736" lon="3.07929">
        <ele>842.5999756</ele>
        <time>2014-06-06T09:23:19Z</time>
      </trkpt>
      <trkpt lat="43.69732" lon="3.0794">
        <ele>842.5999756</ele>
        <time>2014-06-06T09:23:41Z</time>
      </trkpt>
      <trkpt lat="43.69731" lon="3.07946">
        <ele>842.5999756</ele>
        <time>2014-06-06T09:23:43Z</time>
      </trkpt>
      <trkpt lat="43.69728" lon="3.07948">
        <ele>842.5999756</ele>
        <time>2014-06-06T09:23:45Z</time>
      </trkpt>
      <trkpt lat="43.69724" lon="3.07949">
        <ele>842.5999756</ele>
        <time>2014-06-06T09:23:47Z</time>
      </trkpt>
      <trkpt lat="43.69721" lon="3.07949">
        <ele>842.2000122</ele>
        <time>2014-06-06T09:23:48Z</time>
      </trkpt>
      <trkpt lat="43.69717" lon="3.07949">
        <ele>841.7999878</ele>
        <time>2014-06-06T09:23:49Z</time>
      </trkpt>
      <trkpt lat="43.69712" lon="3.07949">
        <ele>841.4000244</ele>
        <time>2014-06-06T09:23:50Z</time>
      </trkpt>
      <trkpt lat="43.69708" lon="3.07949">
        <ele>841</ele>
        <time>2014-06-06T09:23:51Z</time>
      </trkpt>
      <trkpt lat="43.69704" lon="3.07948">
        <ele>840.4000244</ele>
        <time>2014-06-06T09:23:52Z</time>
      </trkpt>
      <trkpt lat="43.69699" lon="3.07948">
        <ele>839.4000244</ele>
        <time>2014-06-06T09:23:53Z</time>
      </trkpt>
      <trkpt lat="43.69695" lon="3.07948">
        <ele>838.7999878</ele>
        <time>2014-06-06T09:23:54Z</time>
      </trkpt>
      <trkpt lat="43.69691" lon="3.07949">
        <ele>838.2000122</ele>
        <time>2014-06-06T09:23:55Z</time>
      </trkpt>
      <trkpt lat="43.69688" lon="3.0795">
        <ele>837.5999756</ele>
        <time>2014-06-06T09:23:56Z</time>
      </trkpt>
      <trkpt lat="43.69685" lon="3.07951">
        <ele>837</ele>
        <time>2014-06-06T09:23:57Z</time>
      </trkpt>
      <trkpt lat="43.69682" lon="3.07952">
        <ele>836.4000244</ele>
        <time>2014-06-06T09:23:58Z</time>
      </trkpt>
      <trkpt lat="43.6968" lon="3.07953">
        <ele>835.5999756</ele>
        <time>2014-06-06T09:23:59Z</time>
      </trkpt>
      <trkpt lat="43.69677" lon="3.07955">
        <ele>835</ele>
        <time>2014-06-06T09:24:00Z</time>
      </trkpt>
      <trkpt lat="43.69674" lon="3.07957">
        <ele>834.4000244</ele>
        <time>2014-06-06T09:24:01Z</time>
      </trkpt>
      <trkpt lat="43.69671" lon="3.07958">
        <ele>833.5999756</ele>
        <time>2014-06-06T09:24:02Z</time>
      </trkpt>
      <trkpt lat="43.69668" lon="3.07959">
        <ele>833</ele>
        <time>2014-06-06T09:24:03Z</time>
      </trkpt>
      <trkpt lat="43.69665" lon="3.0796">
        <ele>832.2000122</ele>
        <time>2014-06-06T09:24:04Z</time>
      </trkpt>
      <trkpt lat="43.69662" lon="3.07962">
        <ele>831.5999756</ele>
        <time>2014-06-06T09:24:05Z</time>
      </trkpt>
      <trkpt lat="43.69661" lon="3.07966">
        <ele>830.7999878</ele>
        <time>2014-06-06T09:24:06Z</time>
      </trkpt>
      <trkpt lat="43.6966" lon="3.07969">
        <ele>830</ele>
        <time>2014-06-06T09:24:07Z</time>
      </trkpt>
      <trkpt lat="43.69659" lon="3.07974">
        <ele>829.2000122</ele>
        <time>2014-06-06T09:24:08Z</time>
      </trkpt>
      <trkpt lat="43.69659" lon="3.07978">
        <ele>828.4000244</ele>
        <time>2014-06-06T09:24:09Z</time>
      </trkpt>
      <trkpt lat="43.69659" lon="3.07982">
        <ele>827.5999756</ele>
        <time>2014-06-06T09:24:10Z</time>
      </trkpt>
      <trkpt lat="43.69658" lon="3.07985">
        <ele>827</ele>
        <time>2014-06-06T09:24:11Z</time>
      </trkpt>
      <trkpt lat="43.69658" lon="3.07987">
        <ele>826.4000244</ele>
        <time>2014-06-06T09:24:12Z</time>
      </trkpt>
      <trkpt lat="43.69657" lon="3.07988">
        <ele>825.7999878</ele>
        <time>2014-06-06T09:24:13Z</time>
      </trkpt>
      <trkpt lat="43.69657" lon="3.07989">
        <ele>825.2000122</ele>
        <time>2014-06-06T09:24:14Z</time>
      </trkpt>
      <trkpt lat="43.69656" lon="3.0799">
        <ele>824.5999756</ele>
        <time>2014-06-06T09:24:15Z</time>
      </trkpt>
      <trkpt lat="43.69651" lon="3.07992">
        <ele>822.4000244</ele>
        <time>2014-06-06T09:24:19Z</time>
      </trkpt>
      <trkpt lat="43.69649" lon="3.07994">
        <ele>822.4000244</ele>
        <time>2014-06-06T09:24:20Z</time>
      </trkpt>
      <trkpt lat="43.69646" lon="3.07996">
        <ele>822</ele>
        <time>2014-06-06T09:24:22Z</time>
      </trkpt>
      <trkpt lat="43.69643" lon="3.07997">
        <ele>821.4000244</ele>
        <time>2014-06-06T09:24:23Z</time>
      </trkpt>
      <trkpt lat="43.69641" lon="3.07998">
        <ele>821</ele>
        <time>2014-06-06T09:24:24Z</time>
      </trkpt>
      <trkpt lat="43.69639" lon="3.07999">
        <ele>820.4000244</ele>
        <time>2014-06-06T09:24:25Z</time>
      </trkpt>
      <trkpt lat="43.69638" lon="3.08001">
        <ele>820</ele>
        <time>2014-06-06T09:24:26Z</time>
      </trkpt>
      <trkpt lat="43.69636" lon="3.08002">
        <ele>819.4000244</ele>
        <time>2014-06-06T09:24:27Z</time>
      </trkpt>
      <trkpt lat="43.69633" lon="3.08004">
        <ele>818.7999878</ele>
        <time>2014-06-06T09:24:28Z</time>
      </trkpt>
      <trkpt lat="43.69631" lon="3.08006">
        <ele>818.4000244</ele>
        <time>2014-06-06T09:24:29Z</time>
      </trkpt>
      <trkpt lat="43.69629" lon="3.08008">
        <ele>817.5999756</ele>
        <time>2014-06-06T09:24:30Z</time>
      </trkpt>
      <trkpt lat="43.69628" lon="3.0801">
        <ele>817</ele>
        <time>2014-06-06T09:24:31Z</time>
      </trkpt>
      <trkpt lat="43.69627" lon="3.08011">
        <ele>816.4000244</ele>
        <time>2014-06-06T09:24:32Z</time>
      </trkpt>
      <trkpt lat="43.69627" lon="3.08011">
        <ele>815.5999756</ele>
        <time>2014-06-06T09:24:33Z</time>
      </trkpt>
      <trkpt lat="43.69627" lon="3.08011">
        <ele>814.7999878</ele>
        <time>2014-06-06T09:24:34Z</time>
      </trkpt>
      <trkpt lat="43.6962" lon="3.08038">
        <ele>804.2000122</ele>
        <time>2014-06-06T09:26:19Z</time>
      </trkpt>
      <trkpt lat="43.69621" lon="3.08039">
        <ele>804.2000122</ele>
        <time>2014-06-06T09:26:20Z</time>
      </trkpt>
      <trkpt lat="43.69622" lon="3.0804">
        <ele>804.2000122</ele>
        <time>2014-06-06T09:26:21Z</time>
      </trkpt>
      <trkpt lat="43.69631" lon="3.08042">
        <ele>804.2000122</ele>
        <time>2014-06-06T09:26:26Z</time>
      </trkpt>
      <trkpt lat="43.69636" lon="3.08042">
        <ele>804.2000122</ele>
        <time>2014-06-06T09:26:29Z</time>
      </trkpt>
      <trkpt lat="43.69639" lon="3.08042">
        <ele>804.2000122</ele>
        <time>2014-06-06T09:26:31Z</time>
      </trkpt>
      <trkpt lat="43.69649" lon="3.08042">
        <ele>804.2000122</ele>
        <time>2014-06-06T09:26:37Z</time>
      </trkpt>
      <trkpt lat="43.69651" lon="3.08043">
        <ele>804.2000122</ele>
        <time>2014-06-06T09:26:38Z</time>
      </trkpt>
      <trkpt lat="43.69666" lon="3.08043">
        <ele>804.2000122</ele>
        <time>2014-06-06T09:26:44Z</time>
      </trkpt>
      <trkpt lat="43.69682" lon="3.08041">
        <ele>804.2000122</ele>
        <time>2014-06-06T09:26:50Z</time>
      </trkpt>
      <trkpt lat="43.69697" lon="3.08041">
        <ele>804.2000122</ele>
        <time>2014-06-06T09:26:55Z</time>
      </trkpt>
      <trkpt lat="43.69721" lon="3.08044">
        <ele>804.2000122</ele>
        <time>2014-06-06T09:27:02Z</time>
      </trkpt>
      <trkpt lat="43.69743" lon="3.0805">
        <ele>804.2000122</ele>
        <time>2014-06-06T09:27:08Z</time>
      </trkpt>
      <trkpt lat="43.69754" lon="3.08056">
        <ele>804.2000122</ele>
        <time>2014-06-06T09:27:12Z</time>
      </trkpt>
      <trkpt lat="43.69769" lon="3.08062">
        <ele>804.2000122</ele>
        <time>2014-06-06T09:27:18Z</time>
      </trkpt>
      <trkpt lat="43.69778" lon="3.08065">
        <ele>804.2000122</ele>
        <time>2014-06-06T09:27:21Z</time>
      </trkpt>
      <trkpt lat="43.69785" lon="3.0807">
        <ele>804.2000122</ele>
        <time>2014-06-06T09:27:23Z</time>
      </trkpt>
      <trkpt lat="43.69806" lon="3.08077">
        <ele>804.2000122</ele>
        <time>2014-06-06T09:27:28Z</time>
      </trkpt>
      <trkpt lat="43.69819" lon="3.08081">
        <ele>804.2000122</ele>
        <time>2014-06-06T09:27:31Z</time>
      </trkpt>
      <trkpt lat="43.69829" lon="3.0808">
        <ele>804.2000122</ele>
        <time>2014-06-06T09:27:33Z</time>
      </trkpt>
      <trkpt lat="43.69834" lon="3.0808">
        <ele>804.2000122</ele>
        <time>2014-06-06T09:27:34Z</time>
      </trkpt>
      <trkpt lat="43.69839" lon="3.08081">
        <ele>803.7999878</ele>
        <time>2014-06-06T09:27:35Z</time>
      </trkpt>
      <trkpt lat="43.69842" lon="3.08085">
        <ele>803.4000244</ele>
        <time>2014-06-06T09:27:36Z</time>
      </trkpt>
      <trkpt lat="43.69845" lon="3.08089">
        <ele>803</ele>
        <time>2014-06-06T09:27:37Z</time>
      </trkpt>
      <trkpt lat="43.69846" lon="3.08094">
        <ele>802.5999756</ele>
        <time>2014-06-06T09:27:38Z</time>
      </trkpt>
      <trkpt lat="43.69846" lon="3.08099">
        <ele>802.2000122</ele>
        <time>2014-06-06T09:27:39Z</time>
      </trkpt>
      <trkpt lat="43.69847" lon="3.08105">
        <ele>801.7999878</ele>
        <time>2014-06-06T09:27:41Z</time>
      </trkpt>
      <trkpt lat="43.69847" lon="3.08107">
        <ele>801.4000244</ele>
        <time>2014-06-06T09:27:42Z</time>
      </trkpt>
      <trkpt lat="43.69848" lon="3.08108">
        <ele>800.7999878</ele>
        <time>2014-06-06T09:27:43Z</time>
      </trkpt>
      <trkpt lat="43.69848" lon="3.0811">
        <ele>800</ele>
        <time>2014-06-06T09:27:45Z</time>
      </trkpt>
      <trkpt lat="43.69848" lon="3.08112">
        <ele>800</ele>
        <time>2014-06-06T09:27:46Z</time>
      </trkpt>
      <trkpt lat="43.69848" lon="3.08116">
        <ele>800</ele>
        <time>2014-06-06T09:27:47Z</time>
      </trkpt>
      <trkpt lat="43.69849" lon="3.08118">
        <ele>800</ele>
        <time>2014-06-06T09:27:48Z</time>
      </trkpt>
      <trkpt lat="43.69847" lon="3.08138">
        <ele>800</ele>
        <time>2014-06-06T09:27:53Z</time>
      </trkpt>
      <trkpt lat="43.69848" lon="3.08165">
        <ele>799.5999756</ele>
        <time>2014-06-06T09:27:59Z</time>
      </trkpt>
      <trkpt lat="43.69849" lon="3.08169">
        <ele>798.7999878</ele>
        <time>2014-06-06T09:28:00Z</time>
      </trkpt>
      <trkpt lat="43.69849" lon="3.08174">
        <ele>798.4000244</ele>
        <time>2014-06-06T09:28:01Z</time>
      </trkpt>
      <trkpt lat="43.6985" lon="3.08179">
        <ele>798</ele>
        <time>2014-06-06T09:28:02Z</time>
      </trkpt>
      <trkpt lat="43.69849" lon="3.08193">
        <ele>798</ele>
        <time>2014-06-06T09:28:04Z</time>
      </trkpt>
      <trkpt lat="43.69849" lon="3.08218">
        <ele>797.5999756</ele>
        <time>2014-06-06T09:28:09Z</time>
      </trkpt>
      <trkpt lat="43.6985" lon="3.08222">
        <ele>797.2000122</ele>
        <time>2014-06-06T09:28:10Z</time>
      </trkpt>
      <trkpt lat="43.6985" lon="3.08227">
        <ele>796.5999756</ele>
        <time>2014-06-06T09:28:11Z</time>
      </trkpt>
      <trkpt lat="43.69851" lon="3.08232">
        <ele>796.2000122</ele>
        <time>2014-06-06T09:28:12Z</time>
      </trkpt>
      <trkpt lat="43.69852" lon="3.08238">
        <ele>795.7999878</ele>
        <time>2014-06-06T09:28:13Z</time>
      </trkpt>
      <trkpt lat="43.69854" lon="3.0825">
        <ele>795.7999878</ele>
        <time>2014-06-06T09:28:15Z</time>
      </trkpt>
      <trkpt lat="43.69854" lon="3.08256">
        <ele>795.7999878</ele>
        <time>2014-06-06T09:28:16Z</time>
      </trkpt>
      <trkpt lat="43.69855" lon="3.08269">
        <ele>795.4000244</ele>
        <time>2014-06-06T09:28:18Z</time>
      </trkpt>
      <trkpt lat="43.69856" lon="3.08275">
        <ele>794.7999878</ele>
        <time>2014-06-06T09:28:19Z</time>
      </trkpt>
      <trkpt lat="43.69857" lon="3.08281">
        <ele>794.4000244</ele>
        <time>2014-06-06T09:28:20Z</time>
      </trkpt>
      <trkpt lat="43.69858" lon="3.08286">
        <ele>793.7999878</ele>
        <time>2014-06-06T09:28:21Z</time>
      </trkpt>
      <trkpt lat="43.69859" lon="3.08291">
        <ele>793.4000244</ele>
        <time>2014-06-06T09:28:22Z</time>
      </trkpt>
      <trkpt lat="43.6986" lon="3.08297">
        <ele>793</ele>
        <time>2014-06-06T09:28:23Z</time>
      </trkpt>
      <trkpt lat="43.6986" lon="3.08302">
        <ele>792.4000244</ele>
        <time>2014-06-06T09:28:24Z</time>
      </trkpt>
      <trkpt lat="43.6986" lon="3.08307">
        <ele>791.5999756</ele>
        <time>2014-06-06T09:28:25Z</time>
      </trkpt>
      <trkpt lat="43.6986" lon="3.08312">
        <ele>791</ele>
        <time>2014-06-06T09:28:26Z</time>
      </trkpt>
      <trkpt lat="43.6986" lon="3.08328">
        <ele>791</ele>
        <time>2014-06-06T09:28:29Z</time>
      </trkpt>
      <trkpt lat="43.69861" lon="3.08343">
        <ele>791</ele>
        <time>2014-06-06T09:28:32Z</time>
      </trkpt>
      <trkpt lat="43.69862" lon="3.08347">
        <ele>790.5999756</ele>
        <time>2014-06-06T09:28:33Z</time>
      </trkpt>
      <trkpt lat="43.69862" lon="3.08353">
        <ele>790.2000122</ele>
        <time>2014-06-06T09:28:34Z</time>
      </trkpt>
      <trkpt lat="43.69863" lon="3.08359">
        <ele>789.7999878</ele>
        <time>2014-06-06T09:28:35Z</time>
      </trkpt>
      <trkpt lat="43.69864" lon="3.08365">
        <ele>789.4000244</ele>
        <time>2014-06-06T09:28:36Z</time>
      </trkpt>
      <trkpt lat="43.69865" lon="3.08372">
        <ele>789</ele>
        <time>2014-06-06T09:28:37Z</time>
      </trkpt>
      <trkpt lat="43.69865" lon="3.08379">
        <ele>789</ele>
        <time>2014-06-06T09:28:38Z</time>
      </trkpt>
      <trkpt lat="43.69865" lon="3.0841">
        <ele>789</ele>
        <time>2014-06-06T09:28:43Z</time>
      </trkpt>
      <trkpt lat="43.69865" lon="3.08435">
        <ele>789</ele>
        <time>2014-06-06T09:28:48Z</time>
      </trkpt>
      <trkpt lat="43.69864" lon="3.08439">
        <ele>788.5999756</ele>
        <time>2014-06-06T09:28:49Z</time>
      </trkpt>
      <trkpt lat="43.69863" lon="3.08443">
        <ele>787.7999878</ele>
        <time>2014-06-06T09:28:50Z</time>
      </trkpt>
      <trkpt lat="43.69862" lon="3.08447">
        <ele>787.4000244</ele>
        <time>2014-06-06T09:28:51Z</time>
      </trkpt>
      <trkpt lat="43.69861" lon="3.08451">
        <ele>787</ele>
        <time>2014-06-06T09:28:52Z</time>
      </trkpt>
      <trkpt lat="43.69858" lon="3.08464">
        <ele>787</ele>
        <time>2014-06-06T09:28:55Z</time>
      </trkpt>
      <trkpt lat="43.69855" lon="3.08474">
        <ele>786.5999756</ele>
        <time>2014-06-06T09:28:57Z</time>
      </trkpt>
      <trkpt lat="43.69854" lon="3.08479">
        <ele>786.2000122</ele>
        <time>2014-06-06T09:28:58Z</time>
      </trkpt>
      <trkpt lat="43.69853" lon="3.08484">
        <ele>785.7999878</ele>
        <time>2014-06-06T09:28:59Z</time>
      </trkpt>
      <trkpt lat="43.69851" lon="3.08489">
        <ele>785.4000244</ele>
        <time>2014-06-06T09:29:00Z</time>
      </trkpt>
      <trkpt lat="43.6985" lon="3.08493">
        <ele>785</ele>
        <time>2014-06-06T09:29:01Z</time>
      </trkpt>
      <trkpt lat="43.69845" lon="3.08518">
        <ele>784.5999756</ele>
        <time>2014-06-06T09:29:06Z</time>
      </trkpt>
      <trkpt lat="43.69843" lon="3.08524">
        <ele>784.2000122</ele>
        <time>2014-06-06T09:29:07Z</time>
      </trkpt>
      <trkpt lat="43.69842" lon="3.0853">
        <ele>783.5999756</ele>
        <time>2014-06-06T09:29:08Z</time>
      </trkpt>
      <trkpt lat="43.6984" lon="3.08537">
        <ele>783.2000122</ele>
        <time>2014-06-06T09:29:09Z</time>
      </trkpt>
      <trkpt lat="43.69837" lon="3.08543">
        <ele>782.7999878</ele>
        <time>2014-06-06T09:29:10Z</time>
      </trkpt>
      <trkpt lat="43.69835" lon="3.0855">
        <ele>782.7999878</ele>
        <time>2014-06-06T09:29:11Z</time>
      </trkpt>
      <trkpt lat="43.6983" lon="3.08567">
        <ele>781.7999878</ele>
        <time>2014-06-06T09:29:14Z</time>
      </trkpt>
      <trkpt lat="43.69828" lon="3.08572">
        <ele>781.4000244</ele>
        <time>2014-06-06T09:29:15Z</time>
      </trkpt>
      <trkpt lat="43.69827" lon="3.08577">
        <ele>780.7999878</ele>
        <time>2014-06-06T09:29:16Z</time>
      </trkpt>
      <trkpt lat="43.69826" lon="3.08581">
        <ele>780.4000244</ele>
        <time>2014-06-06T09:29:17Z</time>
      </trkpt>
      <trkpt lat="43.69823" lon="3.08592">
        <ele>780</ele>
        <time>2014-06-06T09:29:19Z</time>
      </trkpt>
      <trkpt lat="43.69821" lon="3.08597">
        <ele>779.5999756</ele>
        <time>2014-06-06T09:29:20Z</time>
      </trkpt>
      <trkpt lat="43.6982" lon="3.08601">
        <ele>779.2000122</ele>
        <time>2014-06-06T09:29:21Z</time>
      </trkpt>
      <trkpt lat="43.69819" lon="3.08605">
        <ele>778.7999878</ele>
        <time>2014-06-06T09:29:22Z</time>
      </trkpt>
      <trkpt lat="43.69817" lon="3.08609">
        <ele>778.4000244</ele>
        <time>2014-06-06T09:29:23Z</time>
      </trkpt>
      <trkpt lat="43.69812" lon="3.08628">
        <ele>778.4000244</ele>
        <time>2014-06-06T09:29:27Z</time>
      </trkpt>
      <trkpt lat="43.69805" lon="3.08656">
        <ele>778.4000244</ele>
        <time>2014-06-06T09:29:33Z</time>
      </trkpt>
      <trkpt lat="43.69799" lon="3.0867">
        <ele>778.4000244</ele>
        <time>2014-06-06T09:29:36Z</time>
      </trkpt>
      <trkpt lat="43.69799" lon="3.08676">
        <ele>778.4000244</ele>
        <time>2014-06-06T09:29:37Z</time>
      </trkpt>
      <trkpt lat="43.69799" lon="3.08682">
        <ele>778</ele>
        <time>2014-06-06T09:29:38Z</time>
      </trkpt>
      <trkpt lat="43.69799" lon="3.08688">
        <ele>777</ele>
        <time>2014-06-06T09:29:39Z</time>
      </trkpt>
      <trkpt lat="43.69798" lon="3.08692">
        <ele>776.5999756</ele>
        <time>2014-06-06T09:29:40Z</time>
      </trkpt>
      <trkpt lat="43.69798" lon="3.08697">
        <ele>776.2000122</ele>
        <time>2014-06-06T09:29:41Z</time>
      </trkpt>
      <trkpt lat="43.69797" lon="3.08701">
        <ele>776.2000122</ele>
        <time>2014-06-06T09:29:42Z</time>
      </trkpt>
      <trkpt lat="43.69793" lon="3.08738">
        <ele>776.2000122</ele>
        <time>2014-06-06T09:29:50Z</time>
      </trkpt>
      <trkpt lat="43.69787" lon="3.08767">
        <ele>776.2000122</ele>
        <time>2014-06-06T09:29:56Z</time>
      </trkpt>
      <trkpt lat="43.69777" lon="3.08798">
        <ele>776.2000122</ele>
        <time>2014-06-06T09:30:01Z</time>
      </trkpt>
      <trkpt lat="43.69773" lon="3.08809">
        <ele>775.7999878</ele>
        <time>2014-06-06T09:30:03Z</time>
      </trkpt>
      <trkpt lat="43.6977" lon="3.08815">
        <ele>775</ele>
        <time>2014-06-06T09:30:04Z</time>
      </trkpt>
      <trkpt lat="43.69768" lon="3.08822">
        <ele>774.5999756</ele>
        <time>2014-06-06T09:30:05Z</time>
      </trkpt>
      <trkpt lat="43.69766" lon="3.08828">
        <ele>774.2000122</ele>
        <time>2014-06-06T09:30:06Z</time>
      </trkpt>
      <trkpt lat="43.69763" lon="3.0884">
        <ele>774.2000122</ele>
        <time>2014-06-06T09:30:08Z</time>
      </trkpt>
      <trkpt lat="43.69763" lon="3.08852">
        <ele>774.2000122</ele>
        <time>2014-06-06T09:30:10Z</time>
      </trkpt>
      <trkpt lat="43.69765" lon="3.08866">
        <ele>774.2000122</ele>
        <time>2014-06-06T09:30:14Z</time>
      </trkpt>
      <trkpt lat="43.69764" lon="3.08875">
        <ele>774.2000122</ele>
        <time>2014-06-06T09:30:19Z</time>
      </trkpt>
      <trkpt lat="43.69764" lon="3.08878">
        <ele>774.2000122</ele>
        <time>2014-06-06T09:30:21Z</time>
      </trkpt>
      <trkpt lat="43.69765" lon="3.08881">
        <ele>774.2000122</ele>
        <time>2014-06-06T09:30:24Z</time>
      </trkpt>
      <trkpt lat="43.69765" lon="3.08881">
        <ele>774.2000122</ele>
        <time>2014-06-06T09:30:27Z</time>
      </trkpt>
      <trkpt lat="43.69765" lon="3.08881">
        <ele>774.2000122</ele>
        <time>2014-06-06T09:30:28Z</time>
      </trkpt>
      <trkpt lat="43.69763" lon="3.08885">
        <ele>774.2000122</ele>
        <time>2014-06-06T09:31:59Z</time>
      </trkpt>
      <trkpt lat="43.69761" lon="3.08888">
        <ele>774.2000122</ele>
        <time>2014-06-06T09:32:00Z</time>
      </trkpt>
      <trkpt lat="43.69759" lon="3.0889">
        <ele>774.2000122</ele>
        <time>2014-06-06T09:32:01Z</time>
      </trkpt>
      <trkpt lat="43.6975" lon="3.08904">
        <ele>774.2000122</ele>
        <time>2014-06-06T09:32:05Z</time>
      </trkpt>
      <trkpt lat="43.69745" lon="3.0891">
        <ele>774.2000122</ele>
        <time>2014-06-06T09:32:07Z</time>
      </trkpt>
      <trkpt lat="43.69721" lon="3.08932">
        <ele>773.7999878</ele>
        <time>2014-06-06T09:32:14Z</time>
      </trkpt>
      <trkpt lat="43.69718" lon="3.08935">
        <ele>773.2000122</ele>
        <time>2014-06-06T09:32:15Z</time>
      </trkpt>
      <trkpt lat="43.69714" lon="3.08939">
        <ele>772.7999878</ele>
        <time>2014-06-06T09:32:16Z</time>
      </trkpt>
      <trkpt lat="43.6971" lon="3.08942">
        <ele>772.4000244</ele>
        <time>2014-06-06T09:32:17Z</time>
      </trkpt>
      <trkpt lat="43.69705" lon="3.08945">
        <ele>772</ele>
        <time>2014-06-06T09:32:18Z</time>
      </trkpt>
      <trkpt lat="43.697" lon="3.08949">
        <ele>772</ele>
        <time>2014-06-06T09:32:19Z</time>
      </trkpt>
      <trkpt lat="43.69685" lon="3.08968">
        <ele>772</ele>
        <time>2014-06-06T09:32:23Z</time>
      </trkpt>
      <trkpt lat="43.6968" lon="3.08979">
        <ele>772</ele>
        <time>2014-06-06T09:32:25Z</time>
      </trkpt>
      <trkpt lat="43.69675" lon="3.08997">
        <ele>771.5999756</ele>
        <time>2014-06-06T09:32:28Z</time>
      </trkpt>
      <trkpt lat="43.69673" lon="3.09003">
        <ele>771.2000122</ele>
        <time>2014-06-06T09:32:29Z</time>
      </trkpt>
      <trkpt lat="43.6967" lon="3.09009">
        <ele>770.7999878</ele>
        <time>2014-06-06T09:32:30Z</time>
      </trkpt>
      <trkpt lat="43.69668" lon="3.09016">
        <ele>770</ele>
        <time>2014-06-06T09:32:31Z</time>
      </trkpt>
      <trkpt lat="43.69657" lon="3.09038">
        <ele>770</ele>
        <time>2014-06-06T09:32:35Z</time>
      </trkpt>
      <trkpt lat="43.69654" lon="3.09044">
        <ele>770</ele>
        <time>2014-06-06T09:32:36Z</time>
      </trkpt>
      <trkpt lat="43.69641" lon="3.09068">
        <ele>770</ele>
        <time>2014-06-06T09:32:40Z</time>
      </trkpt>
      <trkpt lat="43.69635" lon="3.0908">
        <ele>769.5999756</ele>
        <time>2014-06-06T09:32:42Z</time>
      </trkpt>
      <trkpt lat="43.69632" lon="3.09087">
        <ele>769.2000122</ele>
        <time>2014-06-06T09:32:43Z</time>
      </trkpt>
      <trkpt lat="43.69629" lon="3.09094">
        <ele>768.5999756</ele>
        <time>2014-06-06T09:32:44Z</time>
      </trkpt>
      <trkpt lat="43.69626" lon="3.09101">
        <ele>768.2000122</ele>
        <time>2014-06-06T09:32:45Z</time>
      </trkpt>
      <trkpt lat="43.69623" lon="3.09109">
        <ele>767.7999878</ele>
        <time>2014-06-06T09:32:46Z</time>
      </trkpt>
      <trkpt lat="43.69609" lon="3.09146">
        <ele>767.7999878</ele>
        <time>2014-06-06T09:32:51Z</time>
      </trkpt>
      <trkpt lat="43.69606" lon="3.09154">
        <ele>767.4000244</ele>
        <time>2014-06-06T09:32:52Z</time>
      </trkpt>
      <trkpt lat="43.69603" lon="3.09161">
        <ele>767</ele>
        <time>2014-06-06T09:32:53Z</time>
      </trkpt>
      <trkpt lat="43.69599" lon="3.09169">
        <ele>766.5999756</ele>
        <time>2014-06-06T09:32:54Z</time>
      </trkpt>
      <trkpt lat="43.69596" lon="3.09176">
        <ele>766</ele>
        <time>2014-06-06T09:32:55Z</time>
      </trkpt>
      <trkpt lat="43.69592" lon="3.09184">
        <ele>765.5999756</ele>
        <time>2014-06-06T09:32:56Z</time>
      </trkpt>
      <trkpt lat="43.69588" lon="3.09191">
        <ele>765.5999756</ele>
        <time>2014-06-06T09:32:57Z</time>
      </trkpt>
      <trkpt lat="43.69581" lon="3.09207">
        <ele>765.2000122</ele>
        <time>2014-06-06T09:32:59Z</time>
      </trkpt>
      <trkpt lat="43.69578" lon="3.09215">
        <ele>764.7999878</ele>
        <time>2014-06-06T09:33:00Z</time>
      </trkpt>
      <trkpt lat="43.69574" lon="3.09224">
        <ele>764.4000244</ele>
        <time>2014-06-06T09:33:01Z</time>
      </trkpt>
      <trkpt lat="43.69571" lon="3.09232">
        <ele>764</ele>
        <time>2014-06-06T09:33:02Z</time>
      </trkpt>
      <trkpt lat="43.69567" lon="3.09241">
        <ele>763.5999756</ele>
        <time>2014-06-06T09:33:03Z</time>
      </trkpt>
      <trkpt lat="43.6956" lon="3.09258">
        <ele>763</ele>
        <time>2014-06-06T09:33:05Z</time>
      </trkpt>
      <trkpt lat="43.69556" lon="3.09266">
        <ele>762.5999756</ele>
        <time>2014-06-06T09:33:06Z</time>
      </trkpt>
      <trkpt lat="43.69552" lon="3.09275">
        <ele>762.2000122</ele>
        <time>2014-06-06T09:33:07Z</time>
      </trkpt>
      <trkpt lat="43.69549" lon="3.09283">
        <ele>761.7999878</ele>
        <time>2014-06-06T09:33:08Z</time>
      </trkpt>
      <trkpt lat="43.69545" lon="3.09291">
        <ele>761.4000244</ele>
        <time>2014-06-06T09:33:09Z</time>
      </trkpt>
      <trkpt lat="43.69537" lon="3.09305">
        <ele>761.4000244</ele>
        <time>2014-06-06T09:33:11Z</time>
      </trkpt>
      <trkpt lat="43.69532" lon="3.09311">
        <ele>761.4000244</ele>
        <time>2014-06-06T09:33:12Z</time>
      </trkpt>
      <trkpt lat="43.69522" lon="3.09324">
        <ele>761</ele>
        <time>2014-06-06T09:33:14Z</time>
      </trkpt>
      <trkpt lat="43.69518" lon="3.09332">
        <ele>760.5999756</ele>
        <time>2014-06-06T09:33:15Z</time>
      </trkpt>
      <trkpt lat="43.69515" lon="3.09339">
        <ele>760.2000122</ele>
        <time>2014-06-06T09:33:16Z</time>
      </trkpt>
      <trkpt lat="43.69512" lon="3.09346">
        <ele>759.7999878</ele>
        <time>2014-06-06T09:33:17Z</time>
      </trkpt>
      <trkpt lat="43.69509" lon="3.09353">
        <ele>759.4000244</ele>
        <time>2014-06-06T09:33:18Z</time>
      </trkpt>
      <trkpt lat="43.69504" lon="3.09366">
        <ele>759.4000244</ele>
        <time>2014-06-06T09:33:20Z</time>
      </trkpt>
      <trkpt lat="43.69501" lon="3.09379">
        <ele>759.4000244</ele>
        <time>2014-06-06T09:33:22Z</time>
      </trkpt>
      <trkpt lat="43.695" lon="3.09385">
        <ele>758.7999878</ele>
        <time>2014-06-06T09:33:23Z</time>
      </trkpt>
      <trkpt lat="43.695" lon="3.0939">
        <ele>758.4000244</ele>
        <time>2014-06-06T09:33:24Z</time>
      </trkpt>
      <trkpt lat="43.695" lon="3.09394">
        <ele>758</ele>
        <time>2014-06-06T09:33:25Z</time>
      </trkpt>
      <trkpt lat="43.69499" lon="3.09396">
        <ele>757.5999756</ele>
        <time>2014-06-06T09:33:26Z</time>
      </trkpt>
      <trkpt lat="43.69499" lon="3.09399">
        <ele>757.2000122</ele>
        <time>2014-06-06T09:33:27Z</time>
      </trkpt>
      <trkpt lat="43.69495" lon="3.09412">
        <ele>757.2000122</ele>
        <time>2014-06-06T09:33:31Z</time>
      </trkpt>
      <trkpt lat="43.6949" lon="3.0942">
        <ele>757.2000122</ele>
        <time>2014-06-06T09:33:33Z</time>
      </trkpt>
      <trkpt lat="43.69487" lon="3.09425">
        <ele>756.5999756</ele>
        <time>2014-06-06T09:33:34Z</time>
      </trkpt>
      <trkpt lat="43.69484" lon="3.09431">
        <ele>756.2000122</ele>
        <time>2014-06-06T09:33:35Z</time>
      </trkpt>
      <trkpt lat="43.69479" lon="3.09438">
        <ele>755.7999878</ele>
        <time>2014-06-06T09:33:36Z</time>
      </trkpt>
      <trkpt lat="43.69476" lon="3.09444">
        <ele>755.2000122</ele>
        <time>2014-06-06T09:33:37Z</time>
      </trkpt>
      <trkpt lat="43.69472" lon="3.09451">
        <ele>754.5999756</ele>
        <time>2014-06-06T09:33:38Z</time>
      </trkpt>
      <trkpt lat="43.69468" lon="3.09458">
        <ele>754</ele>
        <time>2014-06-06T09:33:39Z</time>
      </trkpt>
      <trkpt lat="43.69464" lon="3.09465">
        <ele>753.4000244</ele>
        <time>2014-06-06T09:33:40Z</time>
      </trkpt>
      <trkpt lat="43.6946" lon="3.09472">
        <ele>752.5999756</ele>
        <time>2014-06-06T09:33:41Z</time>
      </trkpt>
      <trkpt lat="43.69457" lon="3.09479">
        <ele>751.7999878</ele>
        <time>2014-06-06T09:33:42Z</time>
      </trkpt>
      <trkpt lat="43.69454" lon="3.09486">
        <ele>751</ele>
        <time>2014-06-06T09:33:43Z</time>
      </trkpt>
      <trkpt lat="43.69452" lon="3.09492">
        <ele>750.4000244</ele>
        <time>2014-06-06T09:33:44Z</time>
      </trkpt>
      <trkpt lat="43.69452" lon="3.09495">
        <ele>748.7999878</ele>
        <time>2014-06-06T09:33:45Z</time>
      </trkpt>
      <trkpt lat="43.69451" lon="3.09498">
        <ele>748.2000122</ele>
        <time>2014-06-06T09:33:46Z</time>
      </trkpt>
      <trkpt lat="43.69451" lon="3.09501">
        <ele>747.5999756</ele>
        <time>2014-06-06T09:33:47Z</time>
      </trkpt>
      <trkpt lat="43.69449" lon="3.09504">
        <ele>747</ele>
        <time>2014-06-06T09:33:48Z</time>
      </trkpt>
      <trkpt lat="43.69448" lon="3.09507">
        <ele>746.2000122</ele>
        <time>2014-06-06T09:33:49Z</time>
      </trkpt>
      <trkpt lat="43.69447" lon="3.09508">
        <ele>745.7999878</ele>
        <time>2014-06-06T09:33:50Z</time>
      </trkpt>
      <trkpt lat="43.69446" lon="3.0951">
        <ele>745.2000122</ele>
        <time>2014-06-06T09:33:51Z</time>
      </trkpt>
      <trkpt lat="43.69446" lon="3.09511">
        <ele>744.5999756</ele>
        <time>2014-06-06T09:33:52Z</time>
      </trkpt>
      <trkpt lat="43.69444" lon="3.09523">
        <ele>742.5999756</ele>
        <time>2014-06-06T09:33:56Z</time>
      </trkpt>
      <trkpt lat="43.69442" lon="3.09526">
        <ele>742.2000122</ele>
        <time>2014-06-06T09:33:57Z</time>
      </trkpt>
      <trkpt lat="43.69441" lon="3.09531">
        <ele>741.7999878</ele>
        <time>2014-06-06T09:33:58Z</time>
      </trkpt>
      <trkpt lat="43.6944" lon="3.09534">
        <ele>741.4000244</ele>
        <time>2014-06-06T09:33:59Z</time>
      </trkpt>
      <trkpt lat="43.69437" lon="3.0954">
        <ele>740.7999878</ele>
        <time>2014-06-06T09:34:01Z</time>
      </trkpt>
      <trkpt lat="43.69435" lon="3.09544">
        <ele>740.4000244</ele>
        <time>2014-06-06T09:34:02Z</time>
      </trkpt>
      <trkpt lat="43.69433" lon="3.09548">
        <ele>740</ele>
        <time>2014-06-06T09:34:03Z</time>
      </trkpt>
      <trkpt lat="43.69431" lon="3.09552">
        <ele>739.4000244</ele>
        <time>2014-06-06T09:34:04Z</time>
      </trkpt>
      <trkpt lat="43.69429" lon="3.09555">
        <ele>739</ele>
        <time>2014-06-06T09:34:05Z</time>
      </trkpt>
      <trkpt lat="43.69426" lon="3.0956">
        <ele>738.5999756</ele>
        <time>2014-06-06T09:34:07Z</time>
      </trkpt>
      <trkpt lat="43.69424" lon="3.09562">
        <ele>738.2000122</ele>
        <time>2014-06-06T09:34:08Z</time>
      </trkpt>
      <trkpt lat="43.69423" lon="3.09564">
        <ele>737.5999756</ele>
        <time>2014-06-06T09:34:09Z</time>
      </trkpt>
      <trkpt lat="43.69422" lon="3.09567">
        <ele>736.7999878</ele>
        <time>2014-06-06T09:34:10Z</time>
      </trkpt>
      <trkpt lat="43.69418" lon="3.09576">
        <ele>736.4000244</ele>
        <time>2014-06-06T09:34:13Z</time>
      </trkpt>
      <trkpt lat="43.69419" lon="3.09576">
        <ele>735.7999878</ele>
        <time>2014-06-06T09:34:14Z</time>
      </trkpt>
      <trkpt lat="43.69419" lon="3.09576">
        <ele>735.4000244</ele>
        <time>2014-06-06T09:34:15Z</time>
      </trkpt>
      <trkpt lat="43.69416" lon="3.09582">
        <ele>734.5999756</ele>
        <time>2014-06-06T09:34:48Z</time>
      </trkpt>
      <trkpt lat="43.69415" lon="3.09585">
        <ele>734.5999756</ele>
        <time>2014-06-06T09:34:49Z</time>
      </trkpt>
      <trkpt lat="43.69412" lon="3.09591">
        <ele>734.5999756</ele>
        <time>2014-06-06T09:34:53Z</time>
      </trkpt>
      <trkpt lat="43.69412" lon="3.09591">
        <ele>734.5999756</ele>
        <time>2014-06-06T09:34:55Z</time>
      </trkpt>
      <trkpt lat="43.69399" lon="3.09627">
        <ele>732.5999756</ele>
        <time>2014-06-06T09:35:30Z</time>
      </trkpt>
      <trkpt lat="43.69398" lon="3.0963">
        <ele>732.5999756</ele>
        <time>2014-06-06T09:35:31Z</time>
      </trkpt>
      <trkpt lat="43.69396" lon="3.09635">
        <ele>732.5999756</ele>
        <time>2014-06-06T09:35:35Z</time>
      </trkpt>
      <trkpt lat="43.69395" lon="3.09637">
        <ele>732.5999756</ele>
        <time>2014-06-06T09:35:36Z</time>
      </trkpt>
      <trkpt lat="43.69394" lon="3.09639">
        <ele>732.5999756</ele>
        <time>2014-06-06T09:35:38Z</time>
      </trkpt>
      <trkpt lat="43.69393" lon="3.09642">
        <ele>732.5999756</ele>
        <time>2014-06-06T09:35:39Z</time>
      </trkpt>
      <trkpt lat="43.69391" lon="3.09646">
        <ele>732.5999756</ele>
        <time>2014-06-06T09:35:41Z</time>
      </trkpt>
      <trkpt lat="43.69387" lon="3.0966">
        <ele>732.5999756</ele>
        <time>2014-06-06T09:35:47Z</time>
      </trkpt>
      <trkpt lat="43.69386" lon="3.09662">
        <ele>732.5999756</ele>
        <time>2014-06-06T09:35:48Z</time>
      </trkpt>
      <trkpt lat="43.69384" lon="3.09663">
        <ele>732.5999756</ele>
        <time>2014-06-06T09:35:50Z</time>
      </trkpt>
      <trkpt lat="43.69384" lon="3.09663">
        <ele>732.5999756</ele>
        <time>2014-06-06T09:35:52Z</time>
      </trkpt>
      <trkpt lat="43.69369" lon="3.09712">
        <ele>734.5999756</ele>
        <time>2014-06-06T09:36:38Z</time>
      </trkpt>
      <trkpt lat="43.69369" lon="3.09715">
        <ele>734.5999756</ele>
        <time>2014-06-06T09:36:39Z</time>
      </trkpt>
      <trkpt lat="43.69368" lon="3.09729">
        <ele>734.5999756</ele>
        <time>2014-06-06T09:36:43Z</time>
      </trkpt>
      <trkpt lat="43.69366" lon="3.09735">
        <ele>734.5999756</ele>
        <time>2014-06-06T09:36:45Z</time>
      </trkpt>
      <trkpt lat="43.69365" lon="3.09742">
        <ele>734.5999756</ele>
        <time>2014-06-06T09:36:47Z</time>
      </trkpt>
      <trkpt lat="43.69358" lon="3.09761">
        <ele>734.5999756</ele>
        <time>2014-06-06T09:36:52Z</time>
      </trkpt>
      <trkpt lat="43.69358" lon="3.09775">
        <ele>734.5999756</ele>
        <time>2014-06-06T09:36:56Z</time>
      </trkpt>
      <trkpt lat="43.69353" lon="3.09795">
        <ele>734.5999756</ele>
        <time>2014-06-06T09:37:01Z</time>
      </trkpt>
      <trkpt lat="43.69352" lon="3.09798">
        <ele>734.2000122</ele>
        <time>2014-06-06T09:37:02Z</time>
      </trkpt>
      <trkpt lat="43.69352" lon="3.09799">
        <ele>733.7999878</ele>
        <time>2014-06-06T09:37:03Z</time>
      </trkpt>
      <trkpt lat="43.69351" lon="3.09799">
        <ele>733.4000244</ele>
        <time>2014-06-06T09:37:04Z</time>
      </trkpt>
      <trkpt lat="43.69343" lon="3.09812">
        <ele>732.5999756</ele>
        <time>2014-06-06T09:37:33Z</time>
      </trkpt>
      <trkpt lat="43.69335" lon="3.09825">
        <ele>732.5999756</ele>
        <time>2014-06-06T09:37:39Z</time>
      </trkpt>
      <trkpt lat="43.69333" lon="3.09827">
        <ele>733</ele>
        <time>2014-06-06T09:37:40Z</time>
      </trkpt>
      <trkpt lat="43.69331" lon="3.0983">
        <ele>733.4000244</ele>
        <time>2014-06-06T09:37:41Z</time>
      </trkpt>
      <trkpt lat="43.69329" lon="3.09833">
        <ele>733.7999878</ele>
        <time>2014-06-06T09:37:42Z</time>
      </trkpt>
      <trkpt lat="43.69327" lon="3.09835">
        <ele>734.2000122</ele>
        <time>2014-06-06T09:37:43Z</time>
      </trkpt>
      <trkpt lat="43.69325" lon="3.09837">
        <ele>734.5999756</ele>
        <time>2014-06-06T09:37:44Z</time>
      </trkpt>
      <trkpt lat="43.6932" lon="3.09845">
        <ele>734.5999756</ele>
        <time>2014-06-06T09:37:48Z</time>
      </trkpt>
      <trkpt lat="43.69319" lon="3.09848">
        <ele>734.5999756</ele>
        <time>2014-06-06T09:37:49Z</time>
      </trkpt>
      <trkpt lat="43.69314" lon="3.09869">
        <ele>734.5999756</ele>
        <time>2014-06-06T09:37:55Z</time>
      </trkpt>
      <trkpt lat="43.69305" lon="3.09901">
        <ele>734.5999756</ele>
        <time>2014-06-06T09:38:01Z</time>
      </trkpt>
      <trkpt lat="43.69304" lon="3.09906">
        <ele>734.5999756</ele>
        <time>2014-06-06T09:38:02Z</time>
      </trkpt>
      <trkpt lat="43.69301" lon="3.09911">
        <ele>734.5999756</ele>
        <time>2014-06-06T09:38:05Z</time>
      </trkpt>
      <trkpt lat="43.69301" lon="3.09912">
        <ele>734.5999756</ele>
        <time>2014-06-06T09:38:06Z</time>
      </trkpt>
      <trkpt lat="43.69286" lon="3.09946">
        <ele>736.5999756</ele>
        <time>2014-06-06T09:38:35Z</time>
      </trkpt>
      <trkpt lat="43.69284" lon="3.09949">
        <ele>736.5999756</ele>
        <time>2014-06-06T09:38:36Z</time>
      </trkpt>
      <trkpt lat="43.69277" lon="3.09956">
        <ele>736.5999756</ele>
        <time>2014-06-06T09:38:40Z</time>
      </trkpt>
      <trkpt lat="43.69277" lon="3.09956">
        <ele>736.5999756</ele>
        <time>2014-06-06T09:38:41Z</time>
      </trkpt>
      <trkpt lat="43.6927" lon="3.09966">
        <ele>736.5999756</ele>
        <time>2014-06-06T09:38:46Z</time>
      </trkpt>
      <trkpt lat="43.69267" lon="3.09969">
        <ele>736.5999756</ele>
        <time>2014-06-06T09:38:48Z</time>
      </trkpt>
      <trkpt lat="43.69263" lon="3.09971">
        <ele>736.5999756</ele>
        <time>2014-06-06T09:38:52Z</time>
      </trkpt>
      <trkpt lat="43.69263" lon="3.09971">
        <ele>736.5999756</ele>
        <time>2014-06-06T09:38:53Z</time>
      </trkpt>
      <trkpt lat="43.69236" lon="3.09971">
        <ele>738.5999756</ele>
        <time>2014-06-06T09:42:40Z</time>
      </trkpt>
      <trkpt lat="43.69235" lon="3.0997">
        <ele>738.5999756</ele>
        <time>2014-06-06T09:42:41Z</time>
      </trkpt>
      <trkpt lat="43.69234" lon="3.0997">
        <ele>738.5999756</ele>
        <time>2014-06-06T09:42:42Z</time>
      </trkpt>
      <trkpt lat="43.69232" lon="3.09968">
        <ele>738.5999756</ele>
        <time>2014-06-06T09:42:44Z</time>
      </trkpt>
      <trkpt lat="43.69232" lon="3.09968">
        <ele>738.5999756</ele>
        <time>2014-06-06T09:42:45Z</time>
      </trkpt>
      <trkpt lat="43.69228" lon="3.09962">
        <ele>738.5999756</ele>
        <time>2014-06-06T09:42:50Z</time>
      </trkpt>
      <trkpt lat="43.69227" lon="3.09961">
        <ele>738.5999756</ele>
        <time>2014-06-06T09:42:52Z</time>
      </trkpt>
      <trkpt lat="43.69227" lon="3.09959">
        <ele>738.5999756</ele>
        <time>2014-06-06T09:42:55Z</time>
      </trkpt>
      <trkpt lat="43.69224" lon="3.09957">
        <ele>738.2000122</ele>
        <time>2014-06-06T09:42:58Z</time>
      </trkpt>
      <trkpt lat="43.69223" lon="3.09957">
        <ele>737.7999878</ele>
        <time>2014-06-06T09:42:59Z</time>
      </trkpt>
      <trkpt lat="43.69223" lon="3.09958">
        <ele>737.4000244</ele>
        <time>2014-06-06T09:43:00Z</time>
      </trkpt>
      <trkpt lat="43.69223" lon="3.09958">
        <ele>736.7999878</ele>
        <time>2014-06-06T09:43:01Z</time>
      </trkpt>
      <trkpt lat="43.69223" lon="3.09963">
        <ele>736.4000244</ele>
        <time>2014-06-06T09:43:04Z</time>
      </trkpt>
      <trkpt lat="43.69223" lon="3.09964">
        <ele>736.4000244</ele>
        <time>2014-06-06T09:43:05Z</time>
      </trkpt>
      <trkpt lat="43.69223" lon="3.09965">
        <ele>736.4000244</ele>
        <time>2014-06-06T09:43:06Z</time>
      </trkpt>
      <trkpt lat="43.69223" lon="3.09965">
        <ele>736</ele>
        <time>2014-06-06T09:43:08Z</time>
      </trkpt>
      <trkpt lat="43.69222" lon="3.09964">
        <ele>735.5999756</ele>
        <time>2014-06-06T09:43:09Z</time>
      </trkpt>
      <trkpt lat="43.69221" lon="3.09964">
        <ele>735</ele>
        <time>2014-06-06T09:43:10Z</time>
      </trkpt>
      <trkpt lat="43.6922" lon="3.09962">
        <ele>734.5999756</ele>
        <time>2014-06-06T09:43:11Z</time>
      </trkpt>
      <trkpt lat="43.69219" lon="3.09962">
        <ele>734.2000122</ele>
        <time>2014-06-06T09:43:12Z</time>
      </trkpt>
      <trkpt lat="43.69218" lon="3.09958">
        <ele>733.7999878</ele>
        <time>2014-06-06T09:43:15Z</time>
      </trkpt>
      <trkpt lat="43.69217" lon="3.09958">
        <ele>733.2000122</ele>
        <time>2014-06-06T09:43:16Z</time>
      </trkpt>
      <trkpt lat="43.69215" lon="3.09957">
        <ele>732.7999878</ele>
        <time>2014-06-06T09:43:17Z</time>
      </trkpt>
      <trkpt lat="43.69214" lon="3.09957">
        <ele>732.4000244</ele>
        <time>2014-06-06T09:43:18Z</time>
      </trkpt>
      <trkpt lat="43.69214" lon="3.09956">
        <ele>732</ele>
        <time>2014-06-06T09:43:19Z</time>
      </trkpt>
      <trkpt lat="43.69214" lon="3.09956">
        <ele>732</ele>
        <time>2014-06-06T09:43:20Z</time>
      </trkpt>
      <trkpt lat="43.69213" lon="3.09956">
        <ele>728.5999756</ele>
        <time>2014-06-06T09:43:45Z</time>
      </trkpt>
      <trkpt lat="43.69213" lon="3.09956">
        <ele>728.2000122</ele>
        <time>2014-06-06T09:43:46Z</time>
      </trkpt>
      <trkpt lat="43.69213" lon="3.09956">
        <ele>727.7999878</ele>
        <time>2014-06-06T09:43:47Z</time>
      </trkpt>
      <trkpt lat="43.69212" lon="3.09954">
        <ele>727.4000244</ele>
        <time>2014-06-06T09:43:49Z</time>
      </trkpt>
      <trkpt lat="43.69211" lon="3.09953">
        <ele>727</ele>
        <time>2014-06-06T09:43:50Z</time>
      </trkpt>
      <trkpt lat="43.6921" lon="3.09953">
        <ele>726.5999756</ele>
        <time>2014-06-06T09:43:51Z</time>
      </trkpt>
      <trkpt lat="43.69209" lon="3.09953">
        <ele>726.2000122</ele>
        <time>2014-06-06T09:43:52Z</time>
      </trkpt>
      <trkpt lat="43.69209" lon="3.09953">
        <ele>725.7999878</ele>
        <time>2014-06-06T09:43:53Z</time>
      </trkpt>
      <trkpt lat="43.69208" lon="3.09954">
        <ele>725.7999878</ele>
        <time>2014-06-06T09:43:54Z</time>
      </trkpt>
      <trkpt lat="43.69208" lon="3.09955">
        <ele>725.7999878</ele>
        <time>2014-06-06T09:43:55Z</time>
      </trkpt>
      <trkpt lat="43.69207" lon="3.09959">
        <ele>725.2000122</ele>
        <time>2014-06-06T09:43:59Z</time>
      </trkpt>
      <trkpt lat="43.69207" lon="3.0996">
        <ele>724.7999878</ele>
        <time>2014-06-06T09:44:00Z</time>
      </trkpt>
      <trkpt lat="43.69205" lon="3.0996">
        <ele>724.4000244</ele>
        <time>2014-06-06T09:44:01Z</time>
      </trkpt>
      <trkpt lat="43.69203" lon="3.0996">
        <ele>723.5999756</ele>
        <time>2014-06-06T09:44:02Z</time>
      </trkpt>
      <trkpt lat="43.692" lon="3.09961">
        <ele>723.5999756</ele>
        <time>2014-06-06T09:44:05Z</time>
      </trkpt>
      <trkpt lat="43.69196" lon="3.09959">
        <ele>723.5999756</ele>
        <time>2014-06-06T09:44:07Z</time>
      </trkpt>
      <trkpt lat="43.69195" lon="3.09954">
        <ele>721.4000244</ele>
        <time>2014-06-06T09:44:13Z</time>
      </trkpt>
      <trkpt lat="43.69194" lon="3.09952">
        <ele>721</ele>
        <time>2014-06-06T09:44:15Z</time>
      </trkpt>
      <trkpt lat="43.69194" lon="3.09952">
        <ele>720.5999756</ele>
        <time>2014-06-06T09:44:16Z</time>
      </trkpt>
      <trkpt lat="43.69193" lon="3.09951">
        <ele>720.2000122</ele>
        <time>2014-06-06T09:44:17Z</time>
      </trkpt>
      <trkpt lat="43.69192" lon="3.09951">
        <ele>719.7999878</ele>
        <time>2014-06-06T09:44:18Z</time>
      </trkpt>
      <trkpt lat="43.69192" lon="3.09949">
        <ele>719.4000244</ele>
        <time>2014-06-06T09:44:19Z</time>
      </trkpt>
      <trkpt lat="43.69191" lon="3.09949">
        <ele>719</ele>
        <time>2014-06-06T09:44:20Z</time>
      </trkpt>
      <trkpt lat="43.6919" lon="3.09948">
        <ele>718.4000244</ele>
        <time>2014-06-06T09:44:21Z</time>
      </trkpt>
      <trkpt lat="43.6919" lon="3.09947">
        <ele>718</ele>
        <time>2014-06-06T09:44:22Z</time>
      </trkpt>
      <trkpt lat="43.69189" lon="3.09946">
        <ele>717.5999756</ele>
        <time>2014-06-06T09:44:23Z</time>
      </trkpt>
      <trkpt lat="43.69188" lon="3.09946">
        <ele>717.2000122</ele>
        <time>2014-06-06T09:44:24Z</time>
      </trkpt>
      <trkpt lat="43.69188" lon="3.09946">
        <ele>716.5999756</ele>
        <time>2014-06-06T09:44:25Z</time>
      </trkpt>
      <trkpt lat="43.69186" lon="3.09945">
        <ele>716.2000122</ele>
        <time>2014-06-06T09:44:26Z</time>
      </trkpt>
      <trkpt lat="43.69184" lon="3.09944">
        <ele>715.2000122</ele>
        <time>2014-06-06T09:44:27Z</time>
      </trkpt>
      <trkpt lat="43.69183" lon="3.09943">
        <ele>714.5999756</ele>
        <time>2014-06-06T09:44:28Z</time>
      </trkpt>
      <trkpt lat="43.69181" lon="3.09942">
        <ele>714</ele>
        <time>2014-06-06T09:44:29Z</time>
      </trkpt>
      <trkpt lat="43.69179" lon="3.0994">
        <ele>713.4000244</ele>
        <time>2014-06-06T09:44:30Z</time>
      </trkpt>
      <trkpt lat="43.69178" lon="3.09939">
        <ele>712.7999878</ele>
        <time>2014-06-06T09:44:31Z</time>
      </trkpt>
      <trkpt lat="43.69176" lon="3.09937">
        <ele>712.2000122</ele>
        <time>2014-06-06T09:44:32Z</time>
      </trkpt>
      <trkpt lat="43.69175" lon="3.09936">
        <ele>711.5999756</ele>
        <time>2014-06-06T09:44:33Z</time>
      </trkpt>
      <trkpt lat="43.69173" lon="3.09936">
        <ele>711</ele>
        <time>2014-06-06T09:44:34Z</time>
      </trkpt>
      <trkpt lat="43.69172" lon="3.09936">
        <ele>710.4000244</ele>
        <time>2014-06-06T09:44:35Z</time>
      </trkpt>
      <trkpt lat="43.69169" lon="3.09937">
        <ele>709.7999878</ele>
        <time>2014-06-06T09:44:36Z</time>
      </trkpt>
      <trkpt lat="43.69167" lon="3.09938">
        <ele>709.2000122</ele>
        <time>2014-06-06T09:44:37Z</time>
      </trkpt>
      <trkpt lat="43.69165" lon="3.09939">
        <ele>708.7999878</ele>
        <time>2014-06-06T09:44:38Z</time>
      </trkpt>
      <trkpt lat="43.69163" lon="3.09939">
        <ele>708</ele>
        <time>2014-06-06T09:44:39Z</time>
      </trkpt>
      <trkpt lat="43.69161" lon="3.0994">
        <ele>707.4000244</ele>
        <time>2014-06-06T09:44:40Z</time>
      </trkpt>
      <trkpt lat="43.69159" lon="3.0994">
        <ele>706.7999878</ele>
        <time>2014-06-06T09:44:41Z</time>
      </trkpt>
      <trkpt lat="43.69156" lon="3.09939">
        <ele>706</ele>
        <time>2014-06-06T09:44:42Z</time>
      </trkpt>
      <trkpt lat="43.69154" lon="3.09937">
        <ele>705.2000122</ele>
        <time>2014-06-06T09:44:43Z</time>
      </trkpt>
      <trkpt lat="43.69153" lon="3.09937">
        <ele>704.4000244</ele>
        <time>2014-06-06T09:44:44Z</time>
      </trkpt>
      <trkpt lat="43.69151" lon="3.09936">
        <ele>703.5999756</ele>
        <time>2014-06-06T09:44:45Z</time>
      </trkpt>
      <trkpt lat="43.69149" lon="3.09935">
        <ele>703</ele>
        <time>2014-06-06T09:44:46Z</time>
      </trkpt>
      <trkpt lat="43.69146" lon="3.09934">
        <ele>702.2000122</ele>
        <time>2014-06-06T09:44:47Z</time>
      </trkpt>
      <trkpt lat="43.69145" lon="3.09934">
        <ele>701.4000244</ele>
        <time>2014-06-06T09:44:48Z</time>
      </trkpt>
      <trkpt lat="43.69143" lon="3.09934">
        <ele>700.7999878</ele>
        <time>2014-06-06T09:44:49Z</time>
      </trkpt>
      <trkpt lat="43.69142" lon="3.09933">
        <ele>700.7999878</ele>
        <time>2014-06-06T09:44:50Z</time>
      </trkpt>
      <trkpt lat="43.6913" lon="3.09932">
        <ele>698.7999878</ele>
        <time>2014-06-06T09:44:55Z</time>
      </trkpt>
      <trkpt lat="43.69125" lon="3.09935">
        <ele>698.7999878</ele>
        <time>2014-06-06T09:44:57Z</time>
      </trkpt>
      <trkpt lat="43.69121" lon="3.09934">
        <ele>698.2000122</ele>
        <time>2014-06-06T09:44:59Z</time>
      </trkpt>
      <trkpt lat="43.69118" lon="3.09933">
        <ele>697.7999878</ele>
        <time>2014-06-06T09:45:00Z</time>
      </trkpt>
      <trkpt lat="43.69117" lon="3.09933">
        <ele>697.4000244</ele>
        <time>2014-06-06T09:45:01Z</time>
      </trkpt>
      <trkpt lat="43.69116" lon="3.09932">
        <ele>696.7999878</ele>
        <time>2014-06-06T09:45:02Z</time>
      </trkpt>
      <trkpt lat="43.69115" lon="3.09932">
        <ele>696.4000244</ele>
        <time>2014-06-06T09:45:03Z</time>
      </trkpt>
      <trkpt lat="43.69115" lon="3.09931">
        <ele>696.4000244</ele>
        <time>2014-06-06T09:45:05Z</time>
      </trkpt>
      <trkpt lat="43.69101" lon="3.0993">
        <ele>693</ele>
        <time>2014-06-06T09:45:25Z</time>
      </trkpt>
      <trkpt lat="43.69099" lon="3.09931">
        <ele>692.5999756</ele>
        <time>2014-06-06T09:45:26Z</time>
      </trkpt>
      <trkpt lat="43.69097" lon="3.09932">
        <ele>692.2000122</ele>
        <time>2014-06-06T09:45:27Z</time>
      </trkpt>
      <trkpt lat="43.69094" lon="3.09932">
        <ele>691.7999878</ele>
        <time>2014-06-06T09:45:28Z</time>
      </trkpt>
      <trkpt lat="43.69092" lon="3.09933">
        <ele>691.4000244</ele>
        <time>2014-06-06T09:45:29Z</time>
      </trkpt>
      <trkpt lat="43.6909" lon="3.09934">
        <ele>691</ele>
        <time>2014-06-06T09:45:30Z</time>
      </trkpt>
      <trkpt lat="43.69087" lon="3.09935">
        <ele>690.5999756</ele>
        <time>2014-06-06T09:45:31Z</time>
      </trkpt>
      <trkpt lat="43.69085" lon="3.09934">
        <ele>690</ele>
        <time>2014-06-06T09:45:32Z</time>
      </trkpt>
      <trkpt lat="43.69083" lon="3.09934">
        <ele>689.4000244</ele>
        <time>2014-06-06T09:45:33Z</time>
      </trkpt>
      <trkpt lat="43.69081" lon="3.09934">
        <ele>688.7999878</ele>
        <time>2014-06-06T09:45:34Z</time>
      </trkpt>
      <trkpt lat="43.69079" lon="3.09933">
        <ele>688.2000122</ele>
        <time>2014-06-06T09:45:35Z</time>
      </trkpt>
      <trkpt lat="43.69076" lon="3.09933">
        <ele>687.5999756</ele>
        <time>2014-06-06T09:45:36Z</time>
      </trkpt>
      <trkpt lat="43.69074" lon="3.09934">
        <ele>687</ele>
        <time>2014-06-06T09:45:37Z</time>
      </trkpt>
      <trkpt lat="43.69072" lon="3.09935">
        <ele>686.5999756</ele>
        <time>2014-06-06T09:45:38Z</time>
      </trkpt>
      <trkpt lat="43.69069" lon="3.09935">
        <ele>686.2000122</ele>
        <time>2014-06-06T09:45:39Z</time>
      </trkpt>
      <trkpt lat="43.69067" lon="3.09936">
        <ele>685.5999756</ele>
        <time>2014-06-06T09:45:40Z</time>
      </trkpt>
      <trkpt lat="43.69063" lon="3.09938">
        <ele>684.7999878</ele>
        <time>2014-06-06T09:45:41Z</time>
      </trkpt>
      <trkpt lat="43.6906" lon="3.09939">
        <ele>684.2000122</ele>
        <time>2014-06-06T09:45:42Z</time>
      </trkpt>
      <trkpt lat="43.69057" lon="3.0994">
        <ele>683.5999756</ele>
        <time>2014-06-06T09:45:43Z</time>
      </trkpt>
      <trkpt lat="43.69054" lon="3.09942">
        <ele>683</ele>
        <time>2014-06-06T09:45:44Z</time>
      </trkpt>
      <trkpt lat="43.69052" lon="3.09944">
        <ele>682.2000122</ele>
        <time>2014-06-06T09:45:45Z</time>
      </trkpt>
      <trkpt lat="43.69049" lon="3.09946">
        <ele>681.5999756</ele>
        <time>2014-06-06T09:45:46Z</time>
      </trkpt>
      <trkpt lat="43.69047" lon="3.09947">
        <ele>680.7999878</ele>
        <time>2014-06-06T09:45:47Z</time>
      </trkpt>
      <trkpt lat="43.69045" lon="3.09948">
        <ele>680.2000122</ele>
        <time>2014-06-06T09:45:48Z</time>
      </trkpt>
      <trkpt lat="43.69043" lon="3.09949">
        <ele>679.4000244</ele>
        <time>2014-06-06T09:45:49Z</time>
      </trkpt>
      <trkpt lat="43.6904" lon="3.09952">
        <ele>678.5999756</ele>
        <time>2014-06-06T09:45:50Z</time>
      </trkpt>
      <trkpt lat="43.69038" lon="3.09954">
        <ele>678</ele>
        <time>2014-06-06T09:45:51Z</time>
      </trkpt>
      <trkpt lat="43.69035" lon="3.09957">
        <ele>677.2000122</ele>
        <time>2014-06-06T09:45:52Z</time>
      </trkpt>
      <trkpt lat="43.69031" lon="3.0996">
        <ele>676.4000244</ele>
        <time>2014-06-06T09:45:53Z</time>
      </trkpt>
      <trkpt lat="43.69028" lon="3.09963">
        <ele>675.7999878</ele>
        <time>2014-06-06T09:45:54Z</time>
      </trkpt>
      <trkpt lat="43.69024" lon="3.09966">
        <ele>675</ele>
        <time>2014-06-06T09:45:55Z</time>
      </trkpt>
      <trkpt lat="43.6902" lon="3.09966">
        <ele>674.4000244</ele>
        <time>2014-06-06T09:45:56Z</time>
      </trkpt>
      <trkpt lat="43.69016" lon="3.09968">
        <ele>673.5999756</ele>
        <time>2014-06-06T09:45:57Z</time>
      </trkpt>
      <trkpt lat="43.69013" lon="3.09969">
        <ele>672.7999878</ele>
        <time>2014-06-06T09:45:58Z</time>
      </trkpt>
      <trkpt lat="43.6901" lon="3.09971">
        <ele>672.2000122</ele>
        <time>2014-06-06T09:45:59Z</time>
      </trkpt>
      <trkpt lat="43.69006" lon="3.09974">
        <ele>671.4000244</ele>
        <time>2014-06-06T09:46:00Z</time>
      </trkpt>
      <trkpt lat="43.69002" lon="3.09977">
        <ele>670.5999756</ele>
        <time>2014-06-06T09:46:01Z</time>
      </trkpt>
      <trkpt lat="43.68999" lon="3.0998">
        <ele>670.2000122</ele>
        <time>2014-06-06T09:46:02Z</time>
      </trkpt>
      <trkpt lat="43.68996" lon="3.09982">
        <ele>669.5999756</ele>
        <time>2014-06-06T09:46:03Z</time>
      </trkpt>
      <trkpt lat="43.68992" lon="3.09984">
        <ele>669.2000122</ele>
        <time>2014-06-06T09:46:04Z</time>
      </trkpt>
      <trkpt lat="43.68987" lon="3.09986">
        <ele>668.5999756</ele>
        <time>2014-06-06T09:46:05Z</time>
      </trkpt>
      <trkpt lat="43.68984" lon="3.09989">
        <ele>667.4000244</ele>
        <time>2014-06-06T09:46:06Z</time>
      </trkpt>
      <trkpt lat="43.68981" lon="3.09993">
        <ele>667</ele>
        <time>2014-06-06T09:46:07Z</time>
      </trkpt>
      <trkpt lat="43.68977" lon="3.09995">
        <ele>666.4000244</ele>
        <time>2014-06-06T09:46:08Z</time>
      </trkpt>
      <trkpt lat="43.68974" lon="3.09996">
        <ele>665.7999878</ele>
        <time>2014-06-06T09:46:09Z</time>
      </trkpt>
      <trkpt lat="43.6897" lon="3.09998">
        <ele>665.2000122</ele>
        <time>2014-06-06T09:46:10Z</time>
      </trkpt>
      <trkpt lat="43.68966" lon="3.1">
        <ele>664.5999756</ele>
        <time>2014-06-06T09:46:11Z</time>
      </trkpt>
      <trkpt lat="43.68962" lon="3.10002">
        <ele>664</ele>
        <time>2014-06-06T09:46:12Z</time>
      </trkpt>
      <trkpt lat="43.68959" lon="3.10003">
        <ele>663.4000244</ele>
        <time>2014-06-06T09:46:13Z</time>
      </trkpt>
      <trkpt lat="43.68956" lon="3.10004">
        <ele>663</ele>
        <time>2014-06-06T09:46:14Z</time>
      </trkpt>
      <trkpt lat="43.68953" lon="3.10004">
        <ele>662.4000244</ele>
        <time>2014-06-06T09:46:15Z</time>
      </trkpt>
      <trkpt lat="43.6895" lon="3.10006">
        <ele>661.7999878</ele>
        <time>2014-06-06T09:46:16Z</time>
      </trkpt>
      <trkpt lat="43.68947" lon="3.10007">
        <ele>661.4000244</ele>
        <time>2014-06-06T09:46:17Z</time>
      </trkpt>
      <trkpt lat="43.68944" lon="3.10009">
        <ele>660.7999878</ele>
        <time>2014-06-06T09:46:18Z</time>
      </trkpt>
      <trkpt lat="43.68941" lon="3.10011">
        <ele>660.4000244</ele>
        <time>2014-06-06T09:46:19Z</time>
      </trkpt>
      <trkpt lat="43.68938" lon="3.10013">
        <ele>660</ele>
        <time>2014-06-06T09:46:20Z</time>
      </trkpt>
      <trkpt lat="43.68935" lon="3.10015">
        <ele>659.5999756</ele>
        <time>2014-06-06T09:46:21Z</time>
      </trkpt>
      <trkpt lat="43.68932" lon="3.10017">
        <ele>659.2000122</ele>
        <time>2014-06-06T09:46:22Z</time>
      </trkpt>
      <trkpt lat="43.68929" lon="3.10017">
        <ele>659.2000122</ele>
        <time>2014-06-06T09:46:23Z</time>
      </trkpt>
      <trkpt lat="43.68929" lon="3.10017">
        <ele>658.7999878</ele>
        <time>2014-06-06T09:46:24Z</time>
      </trkpt>
      <trkpt lat="43.68929" lon="3.10017">
        <ele>658.2000122</ele>
        <time>2014-06-06T09:46:25Z</time>
      </trkpt>
      <trkpt lat="43.68929" lon="3.10017">
        <ele>657.7999878</ele>
        <time>2014-06-06T09:46:26Z</time>
      </trkpt>
      <trkpt lat="43.68911" lon="3.10035">
        <ele>650.4000244</ele>
        <time>2014-06-06T09:47:10Z</time>
      </trkpt>
      <trkpt lat="43.68907" lon="3.10039">
        <ele>650.4000244</ele>
        <time>2014-06-06T09:47:12Z</time>
      </trkpt>
      <trkpt lat="43.68902" lon="3.10043">
        <ele>650</ele>
        <time>2014-06-06T09:47:14Z</time>
      </trkpt>
      <trkpt lat="43.68899" lon="3.10045">
        <ele>649.5999756</ele>
        <time>2014-06-06T09:47:15Z</time>
      </trkpt>
      <trkpt lat="43.68896" lon="3.10046">
        <ele>649.2000122</ele>
        <time>2014-06-06T09:47:16Z</time>
      </trkpt>
      <trkpt lat="43.68894" lon="3.10048">
        <ele>648.7999878</ele>
        <time>2014-06-06T09:47:17Z</time>
      </trkpt>
      <trkpt lat="43.68893" lon="3.1005">
        <ele>648.4000244</ele>
        <time>2014-06-06T09:47:18Z</time>
      </trkpt>
      <trkpt lat="43.68892" lon="3.10053">
        <ele>648</ele>
        <time>2014-06-06T09:47:19Z</time>
      </trkpt>
      <trkpt lat="43.6889" lon="3.10055">
        <ele>647</ele>
        <time>2014-06-06T09:47:20Z</time>
      </trkpt>
      <trkpt lat="43.68888" lon="3.10056">
        <ele>646.5999756</ele>
        <time>2014-06-06T09:47:21Z</time>
      </trkpt>
      <trkpt lat="43.68887" lon="3.10057">
        <ele>646</ele>
        <time>2014-06-06T09:47:22Z</time>
      </trkpt>
      <trkpt lat="43.68886" lon="3.10058">
        <ele>645.5999756</ele>
        <time>2014-06-06T09:47:23Z</time>
      </trkpt>
      <trkpt lat="43.68886" lon="3.10057">
        <ele>645</ele>
        <time>2014-06-06T09:47:24Z</time>
      </trkpt>
      <trkpt lat="43.68885" lon="3.10056">
        <ele>644.5999756</ele>
        <time>2014-06-06T09:47:25Z</time>
      </trkpt>
      <trkpt lat="43.68884" lon="3.10058">
        <ele>642</ele>
        <time>2014-06-06T09:48:01Z</time>
      </trkpt>
      <trkpt lat="43.6889" lon="3.10052">
        <ele>642</ele>
        <time>2014-06-06T09:48:07Z</time>
      </trkpt>
      <trkpt lat="43.68892" lon="3.10052">
        <ele>642</ele>
        <time>2014-06-06T09:48:08Z</time>
      </trkpt>
      <trkpt lat="43.68899" lon="3.10051">
        <ele>642</ele>
        <time>2014-06-06T09:48:12Z</time>
      </trkpt>
      <trkpt lat="43.68901" lon="3.1005">
        <ele>642</ele>
        <time>2014-06-06T09:48:13Z</time>
      </trkpt>
      <trkpt lat="43.68914" lon="3.10041">
        <ele>642</ele>
        <time>2014-06-06T09:48:19Z</time>
      </trkpt>
      <trkpt lat="43.68926" lon="3.10038">
        <ele>642</ele>
        <time>2014-06-06T09:48:23Z</time>
      </trkpt>
      <trkpt lat="43.68929" lon="3.10037">
        <ele>642</ele>
        <time>2014-06-06T09:48:24Z</time>
      </trkpt>
      <trkpt lat="43.68944" lon="3.1003">
        <ele>642</ele>
        <time>2014-06-06T09:48:30Z</time>
      </trkpt>
      <trkpt lat="43.68963" lon="3.10021">
        <ele>642</ele>
        <time>2014-06-06T09:48:37Z</time>
      </trkpt>
      <trkpt lat="43.68981" lon="3.10015">
        <ele>642</ele>
        <time>2014-06-06T09:48:44Z</time>
      </trkpt>
      <trkpt lat="43.68999" lon="3.10011">
        <ele>642</ele>
        <time>2014-06-06T09:48:51Z</time>
      </trkpt>
      <trkpt lat="43.69003" lon="3.10009">
        <ele>642.4000244</ele>
        <time>2014-06-06T09:48:53Z</time>
      </trkpt>
      <trkpt lat="43.69005" lon="3.10007">
        <ele>642.7999878</ele>
        <time>2014-06-06T09:48:54Z</time>
      </trkpt>
      <trkpt lat="43.69008" lon="3.10007">
        <ele>643.2000122</ele>
        <time>2014-06-06T09:48:55Z</time>
      </trkpt>
      <trkpt lat="43.6901" lon="3.10007">
        <ele>643.5999756</ele>
        <time>2014-06-06T09:48:56Z</time>
      </trkpt>
      <trkpt lat="43.69013" lon="3.10006">
        <ele>644</ele>
        <time>2014-06-06T09:48:57Z</time>
      </trkpt>
      <trkpt lat="43.69028" lon="3.10006">
        <ele>644</ele>
        <time>2014-06-06T09:49:02Z</time>
      </trkpt>
      <trkpt lat="43.69043" lon="3.1001">
        <ele>644</ele>
        <time>2014-06-06T09:49:07Z</time>
      </trkpt>
      <trkpt lat="43.69058" lon="3.10016">
        <ele>644</ele>
        <time>2014-06-06T09:49:13Z</time>
      </trkpt>
      <trkpt lat="43.69069" lon="3.10029">
        <ele>644</ele>
        <time>2014-06-06T09:49:18Z</time>
      </trkpt>
      <trkpt lat="43.69074" lon="3.10042">
        <ele>644</ele>
        <time>2014-06-06T09:49:23Z</time>
      </trkpt>
      <trkpt lat="43.6908" lon="3.10049">
        <ele>644.4000244</ele>
        <time>2014-06-06T09:49:26Z</time>
      </trkpt>
      <trkpt lat="43.69081" lon="3.10052">
        <ele>644.7999878</ele>
        <time>2014-06-06T09:49:27Z</time>
      </trkpt>
      <trkpt lat="43.69083" lon="3.10053">
        <ele>645.2000122</ele>
        <time>2014-06-06T09:49:28Z</time>
      </trkpt>
      <trkpt lat="43.69084" lon="3.10056">
        <ele>645.7999878</ele>
        <time>2014-06-06T09:49:29Z</time>
      </trkpt>
      <trkpt lat="43.69086" lon="3.10059">
        <ele>646.2000122</ele>
        <time>2014-06-06T09:49:30Z</time>
      </trkpt>
      <trkpt lat="43.69091" lon="3.10067">
        <ele>646.2000122</ele>
        <time>2014-06-06T09:49:33Z</time>
      </trkpt>
      <trkpt lat="43.69102" lon="3.10081">
        <ele>646.2000122</ele>
        <time>2014-06-06T09:49:39Z</time>
      </trkpt>
      <trkpt lat="43.69112" lon="3.10101">
        <ele>646.2000122</ele>
        <time>2014-06-06T09:49:45Z</time>
      </trkpt>
      <trkpt lat="43.6912" lon="3.10111">
        <ele>646.2000122</ele>
        <time>2014-06-06T09:49:50Z</time>
      </trkpt>
      <trkpt lat="43.69128" lon="3.10121">
        <ele>646.5999756</ele>
        <time>2014-06-06T09:49:55Z</time>
      </trkpt>
      <trkpt lat="43.69129" lon="3.10123">
        <ele>647</ele>
        <time>2014-06-06T09:49:56Z</time>
      </trkpt>
      <trkpt lat="43.69131" lon="3.10125">
        <ele>647.4000244</ele>
        <time>2014-06-06T09:49:57Z</time>
      </trkpt>
      <trkpt lat="43.69131" lon="3.10127">
        <ele>647.7999878</ele>
        <time>2014-06-06T09:49:58Z</time>
      </trkpt>
      <trkpt lat="43.69133" lon="3.1013">
        <ele>648.2000122</ele>
        <time>2014-06-06T09:49:59Z</time>
      </trkpt>
      <trkpt lat="43.69139" lon="3.10138">
        <ele>648.2000122</ele>
        <time>2014-06-06T09:50:02Z</time>
      </trkpt>
      <trkpt lat="43.69147" lon="3.10152">
        <ele>648.2000122</ele>
        <time>2014-06-06T09:50:07Z</time>
      </trkpt>
      <trkpt lat="43.69155" lon="3.10167">
        <ele>648.2000122</ele>
        <time>2014-06-06T09:50:12Z</time>
      </trkpt>
      <trkpt lat="43.69162" lon="3.10182">
        <ele>648.2000122</ele>
        <time>2014-06-06T09:50:17Z</time>
      </trkpt>
      <trkpt lat="43.69173" lon="3.10204">
        <ele>648.2000122</ele>
        <time>2014-06-06T09:50:24Z</time>
      </trkpt>
      <trkpt lat="43.69181" lon="3.10218">
        <ele>648.5999756</ele>
        <time>2014-06-06T09:50:29Z</time>
      </trkpt>
      <trkpt lat="43.69183" lon="3.10221">
        <ele>649</ele>
        <time>2014-06-06T09:50:30Z</time>
      </trkpt>
      <trkpt lat="43.69186" lon="3.10224">
        <ele>649.4000244</ele>
        <time>2014-06-06T09:50:31Z</time>
      </trkpt>
      <trkpt lat="43.69189" lon="3.10226">
        <ele>649.7999878</ele>
        <time>2014-06-06T09:50:32Z</time>
      </trkpt>
      <trkpt lat="43.69191" lon="3.10228">
        <ele>650.2000122</ele>
        <time>2014-06-06T09:50:33Z</time>
      </trkpt>
      <trkpt lat="43.69198" lon="3.10233">
        <ele>650.2000122</ele>
        <time>2014-06-06T09:50:36Z</time>
      </trkpt>
      <trkpt lat="43.69205" lon="3.10236">
        <ele>650.2000122</ele>
        <time>2014-06-06T09:50:41Z</time>
      </trkpt>
      <trkpt lat="43.69205" lon="3.10236">
        <ele>650.2000122</ele>
        <time>2014-06-06T09:50:42Z</time>
      </trkpt>
      <trkpt lat="43.69211" lon="3.10237">
        <ele>650.2000122</ele>
        <time>2014-06-06T09:51:01Z</time>
      </trkpt>
      <trkpt lat="43.69212" lon="3.10236">
        <ele>650.2000122</ele>
        <time>2014-06-06T09:51:02Z</time>
      </trkpt>
      <trkpt lat="43.69217" lon="3.10234">
        <ele>650.2000122</ele>
        <time>2014-06-06T09:51:05Z</time>
      </trkpt>
      <trkpt lat="43.69225" lon="3.10229">
        <ele>650.2000122</ele>
        <time>2014-06-06T09:51:10Z</time>
      </trkpt>
      <trkpt lat="43.6923" lon="3.10226">
        <ele>650.2000122</ele>
        <time>2014-06-06T09:51:14Z</time>
      </trkpt>
      <trkpt lat="43.69233" lon="3.10224">
        <ele>650.2000122</ele>
        <time>2014-06-06T09:51:16Z</time>
      </trkpt>
      <trkpt lat="43.69241" lon="3.10218">
        <ele>650.5999756</ele>
        <time>2014-06-06T09:51:21Z</time>
      </trkpt>
      <trkpt lat="43.69242" lon="3.10217">
        <ele>651</ele>
        <time>2014-06-06T09:51:22Z</time>
      </trkpt>
      <trkpt lat="43.69245" lon="3.10215">
        <ele>651.5999756</ele>
        <time>2014-06-06T09:51:23Z</time>
      </trkpt>
      <trkpt lat="43.69247" lon="3.10214">
        <ele>652</ele>
        <time>2014-06-06T09:51:24Z</time>
      </trkpt>
      <trkpt lat="43.6925" lon="3.10212">
        <ele>652.4000244</ele>
        <time>2014-06-06T09:51:25Z</time>
      </trkpt>
      <trkpt lat="43.69254" lon="3.10211">
        <ele>652.4000244</ele>
        <time>2014-06-06T09:51:27Z</time>
      </trkpt>
      <trkpt lat="43.69262" lon="3.10209">
        <ele>652.4000244</ele>
        <time>2014-06-06T09:51:30Z</time>
      </trkpt>
      <trkpt lat="43.69266" lon="3.10207">
        <ele>652.4000244</ele>
        <time>2014-06-06T09:51:31Z</time>
      </trkpt>
      <trkpt lat="43.6928" lon="3.10199">
        <ele>652.4000244</ele>
        <time>2014-06-06T09:51:36Z</time>
      </trkpt>
      <trkpt lat="43.69291" lon="3.10192">
        <ele>652.4000244</ele>
        <time>2014-06-06T09:51:40Z</time>
      </trkpt>
      <trkpt lat="43.69294" lon="3.10189">
        <ele>652.4000244</ele>
        <time>2014-06-06T09:51:42Z</time>
      </trkpt>
      <trkpt lat="43.69302" lon="3.10185">
        <ele>652.4000244</ele>
        <time>2014-06-06T09:51:47Z</time>
      </trkpt>
      <trkpt lat="43.69303" lon="3.10185">
        <ele>652.4000244</ele>
        <time>2014-06-06T09:51:48Z</time>
      </trkpt>
      <trkpt lat="43.69303" lon="3.10185">
        <ele>652.4000244</ele>
        <time>2014-06-06T09:51:49Z</time>
      </trkpt>
      <trkpt lat="43.69308" lon="3.10184">
        <ele>652.4000244</ele>
        <time>2014-06-06T09:51:52Z</time>
      </trkpt>
      <trkpt lat="43.69314" lon="3.10184">
        <ele>652.4000244</ele>
        <time>2014-06-06T09:51:55Z</time>
      </trkpt>
      <trkpt lat="43.69324" lon="3.10183">
        <ele>652.4000244</ele>
        <time>2014-06-06T09:52:01Z</time>
      </trkpt>
      <trkpt lat="43.6933" lon="3.10184">
        <ele>652.4000244</ele>
        <time>2014-06-06T09:52:07Z</time>
      </trkpt>
      <trkpt lat="43.69333" lon="3.10183">
        <ele>652.4000244</ele>
        <time>2014-06-06T09:52:13Z</time>
      </trkpt>
      <trkpt lat="43.69333" lon="3.10183">
        <ele>652.4000244</ele>
        <time>2014-06-06T09:52:16Z</time>
      </trkpt>
      <trkpt lat="43.69337" lon="3.10184">
        <ele>652.4000244</ele>
        <time>2014-06-06T09:52:18Z</time>
      </trkpt>
      <trkpt lat="43.69339" lon="3.10184">
        <ele>652.4000244</ele>
        <time>2014-06-06T09:52:20Z</time>
      </trkpt>
      <trkpt lat="43.69347" lon="3.10187">
        <ele>652.4000244</ele>
        <time>2014-06-06T09:52:26Z</time>
      </trkpt>
      <trkpt lat="43.69359" lon="3.10187">
        <ele>652.4000244</ele>
        <time>2014-06-06T09:52:32Z</time>
      </trkpt>
      <trkpt lat="43.69365" lon="3.10186">
        <ele>652.4000244</ele>
        <time>2014-06-06T09:52:36Z</time>
      </trkpt>
      <trkpt lat="43.69365" lon="3.10186">
        <ele>652.4000244</ele>
        <time>2014-06-06T09:52:37Z</time>
      </trkpt>
      <trkpt lat="43.69365" lon="3.10185">
        <ele>652.4000244</ele>
        <time>2014-06-06T09:52:38Z</time>
      </trkpt>
      <trkpt lat="43.69373" lon="3.10186">
        <ele>650.2000122</ele>
        <time>2014-06-06T09:52:44Z</time>
      </trkpt>
      <trkpt lat="43.69375" lon="3.10184">
        <ele>650.2000122</ele>
        <time>2014-06-06T09:52:46Z</time>
      </trkpt>
      <trkpt lat="43.69375" lon="3.10185">
        <ele>650.2000122</ele>
        <time>2014-06-06T09:52:47Z</time>
      </trkpt>
      <trkpt lat="43.69379" lon="3.10181">
        <ele>650.2000122</ele>
        <time>2014-06-06T09:52:50Z</time>
      </trkpt>
      <trkpt lat="43.69384" lon="3.10178">
        <ele>650.2000122</ele>
        <time>2014-06-06T09:52:52Z</time>
      </trkpt>
      <trkpt lat="43.6939" lon="3.10167">
        <ele>649.7999878</ele>
        <time>2014-06-06T09:52:55Z</time>
      </trkpt>
      <trkpt lat="43.69394" lon="3.10163">
        <ele>649.4000244</ele>
        <time>2014-06-06T09:52:56Z</time>
      </trkpt>
      <trkpt lat="43.69398" lon="3.10159">
        <ele>649</ele>
        <time>2014-06-06T09:52:57Z</time>
      </trkpt>
      <trkpt lat="43.69402" lon="3.10156">
        <ele>648.5999756</ele>
        <time>2014-06-06T09:52:58Z</time>
      </trkpt>
      <trkpt lat="43.69405" lon="3.10153">
        <ele>648.2000122</ele>
        <time>2014-06-06T09:52:59Z</time>
      </trkpt>
      <trkpt lat="43.69418" lon="3.10136">
        <ele>648.2000122</ele>
        <time>2014-06-06T09:53:04Z</time>
      </trkpt>
      <trkpt lat="43.69423" lon="3.1012">
        <ele>647.7999878</ele>
        <time>2014-06-06T09:53:08Z</time>
      </trkpt>
      <trkpt lat="43.69424" lon="3.10116">
        <ele>647.4000244</ele>
        <time>2014-06-06T09:53:09Z</time>
      </trkpt>
      <trkpt lat="43.69425" lon="3.10113">
        <ele>647</ele>
        <time>2014-06-06T09:53:10Z</time>
      </trkpt>
      <trkpt lat="43.69426" lon="3.10108">
        <ele>646.5999756</ele>
        <time>2014-06-06T09:53:11Z</time>
      </trkpt>
      <trkpt lat="43.69426" lon="3.10105">
        <ele>646.2000122</ele>
        <time>2014-06-06T09:53:12Z</time>
      </trkpt>
      <trkpt lat="43.69425" lon="3.10092">
        <ele>646.2000122</ele>
        <time>2014-06-06T09:53:15Z</time>
      </trkpt>
      <trkpt lat="43.69426" lon="3.10072">
        <ele>645.7999878</ele>
        <time>2014-06-06T09:53:20Z</time>
      </trkpt>
      <trkpt lat="43.69426" lon="3.10068">
        <ele>645.4000244</ele>
        <time>2014-06-06T09:53:21Z</time>
      </trkpt>
      <trkpt lat="43.69427" lon="3.10065">
        <ele>644.7999878</ele>
        <time>2014-06-06T09:53:22Z</time>
      </trkpt>
      <trkpt lat="43.69428" lon="3.10063">
        <ele>644.4000244</ele>
        <time>2014-06-06T09:53:23Z</time>
      </trkpt>
      <trkpt lat="43.69429" lon="3.10061">
        <ele>644</ele>
        <time>2014-06-06T09:53:24Z</time>
      </trkpt>
      <trkpt lat="43.6943" lon="3.10058">
        <ele>644</ele>
        <time>2014-06-06T09:53:25Z</time>
      </trkpt>
      <trkpt lat="43.69429" lon="3.10057">
        <ele>644</ele>
        <time>2014-06-06T09:53:26Z</time>
      </trkpt>
      <trkpt lat="43.69431" lon="3.10051">
        <ele>644</ele>
        <time>2014-06-06T09:53:27Z</time>
      </trkpt>
      <trkpt lat="43.69436" lon="3.10038">
        <ele>644</ele>
        <time>2014-06-06T09:53:31Z</time>
      </trkpt>
      <trkpt lat="43.69437" lon="3.10035">
        <ele>643.5999756</ele>
        <time>2014-06-06T09:53:32Z</time>
      </trkpt>
      <trkpt lat="43.69438" lon="3.10032">
        <ele>643.2000122</ele>
        <time>2014-06-06T09:53:33Z</time>
      </trkpt>
      <trkpt lat="43.6944" lon="3.10029">
        <ele>642.7999878</ele>
        <time>2014-06-06T09:53:34Z</time>
      </trkpt>
      <trkpt lat="43.6944" lon="3.10028">
        <ele>642.4000244</ele>
        <time>2014-06-06T09:53:35Z</time>
      </trkpt>
      <trkpt lat="43.69441" lon="3.10026">
        <ele>642</ele>
        <time>2014-06-06T09:53:36Z</time>
      </trkpt>
      <trkpt lat="43.69448" lon="3.10005">
        <ele>642</ele>
        <time>2014-06-06T09:53:41Z</time>
      </trkpt>
      <trkpt lat="43.69453" lon="3.09997">
        <ele>642</ele>
        <time>2014-06-06T09:53:43Z</time>
      </trkpt>
      <trkpt lat="43.69456" lon="3.09992">
        <ele>641.5999756</ele>
        <time>2014-06-06T09:53:44Z</time>
      </trkpt>
      <trkpt lat="43.69459" lon="3.09987">
        <ele>641.2000122</ele>
        <time>2014-06-06T09:53:45Z</time>
      </trkpt>
      <trkpt lat="43.6946" lon="3.09982">
        <ele>640.7999878</ele>
        <time>2014-06-06T09:53:46Z</time>
      </trkpt>
      <trkpt lat="43.69462" lon="3.09978">
        <ele>640.4000244</ele>
        <time>2014-06-06T09:53:47Z</time>
      </trkpt>
      <trkpt lat="43.69464" lon="3.09974">
        <ele>639.7999878</ele>
        <time>2014-06-06T09:53:48Z</time>
      </trkpt>
      <trkpt lat="43.69469" lon="3.09957">
        <ele>639.4000244</ele>
        <time>2014-06-06T09:53:52Z</time>
      </trkpt>
      <trkpt lat="43.69469" lon="3.09955">
        <ele>639</ele>
        <time>2014-06-06T09:53:53Z</time>
      </trkpt>
      <trkpt lat="43.6947" lon="3.09951">
        <ele>638.5999756</ele>
        <time>2014-06-06T09:53:54Z</time>
      </trkpt>
      <trkpt lat="43.69469" lon="3.09948">
        <ele>638.2000122</ele>
        <time>2014-06-06T09:53:55Z</time>
      </trkpt>
      <trkpt lat="43.6947" lon="3.09945">
        <ele>637.7999878</ele>
        <time>2014-06-06T09:53:56Z</time>
      </trkpt>
      <trkpt lat="43.69471" lon="3.09936">
        <ele>637.7999878</ele>
        <time>2014-06-06T09:53:59Z</time>
      </trkpt>
      <trkpt lat="43.6947" lon="3.09932">
        <ele>637.4000244</ele>
        <time>2014-06-06T09:54:00Z</time>
      </trkpt>
      <trkpt lat="43.69472" lon="3.0993">
        <ele>637</ele>
        <time>2014-06-06T09:54:01Z</time>
      </trkpt>
      <trkpt lat="43.69473" lon="3.09927">
        <ele>636.5999756</ele>
        <time>2014-06-06T09:54:02Z</time>
      </trkpt>
      <trkpt lat="43.69472" lon="3.09925">
        <ele>636.2000122</ele>
        <time>2014-06-06T09:54:03Z</time>
      </trkpt>
      <trkpt lat="43.69472" lon="3.09921">
        <ele>635.7999878</ele>
        <time>2014-06-06T09:54:04Z</time>
      </trkpt>
      <trkpt lat="43.69471" lon="3.09907">
        <ele>635.7999878</ele>
        <time>2014-06-06T09:54:07Z</time>
      </trkpt>
      <trkpt lat="43.69474" lon="3.09893">
        <ele>635.7999878</ele>
        <time>2014-06-06T09:54:11Z</time>
      </trkpt>
      <trkpt lat="43.69475" lon="3.09889">
        <ele>635.7999878</ele>
        <time>2014-06-06T09:54:12Z</time>
      </trkpt>
      <trkpt lat="43.69481" lon="3.09866">
        <ele>635.4000244</ele>
        <time>2014-06-06T09:54:17Z</time>
      </trkpt>
      <trkpt lat="43.69482" lon="3.09862">
        <ele>635</ele>
        <time>2014-06-06T09:54:18Z</time>
      </trkpt>
      <trkpt lat="43.69483" lon="3.09859">
        <ele>634.4000244</ele>
        <time>2014-06-06T09:54:19Z</time>
      </trkpt>
      <trkpt lat="43.69484" lon="3.09857">
        <ele>633.5999756</ele>
        <time>2014-06-06T09:54:20Z</time>
      </trkpt>
      <trkpt lat="43.69484" lon="3.09851">
        <ele>633.5999756</ele>
        <time>2014-06-06T09:54:22Z</time>
      </trkpt>
      <trkpt lat="43.69487" lon="3.09836">
        <ele>633.2000122</ele>
        <time>2014-06-06T09:54:26Z</time>
      </trkpt>
      <trkpt lat="43.69488" lon="3.09833">
        <ele>632.7999878</ele>
        <time>2014-06-06T09:54:27Z</time>
      </trkpt>
      <trkpt lat="43.69488" lon="3.0983">
        <ele>632.4000244</ele>
        <time>2014-06-06T09:54:28Z</time>
      </trkpt>
      <trkpt lat="43.69489" lon="3.09827">
        <ele>632</ele>
        <time>2014-06-06T09:54:29Z</time>
      </trkpt>
      <trkpt lat="43.6949" lon="3.09823">
        <ele>631.5999756</ele>
        <time>2014-06-06T09:54:30Z</time>
      </trkpt>
      <trkpt lat="43.69491" lon="3.09818">
        <ele>631.5999756</ele>
        <time>2014-06-06T09:54:32Z</time>
      </trkpt>
      <trkpt lat="43.69499" lon="3.09802">
        <ele>631.5999756</ele>
        <time>2014-06-06T09:54:37Z</time>
      </trkpt>
      <trkpt lat="43.69503" lon="3.09792">
        <ele>631.2000122</ele>
        <time>2014-06-06T09:54:40Z</time>
      </trkpt>
      <trkpt lat="43.69505" lon="3.09789">
        <ele>630.7999878</ele>
        <time>2014-06-06T09:54:41Z</time>
      </trkpt>
      <trkpt lat="43.69507" lon="3.09787">
        <ele>630.4000244</ele>
        <time>2014-06-06T09:54:42Z</time>
      </trkpt>
      <trkpt lat="43.69507" lon="3.09783">
        <ele>630</ele>
        <time>2014-06-06T09:54:43Z</time>
      </trkpt>
      <trkpt lat="43.69508" lon="3.0978">
        <ele>629.5999756</ele>
        <time>2014-06-06T09:54:44Z</time>
      </trkpt>
      <trkpt lat="43.69506" lon="3.09773">
        <ele>629.5999756</ele>
        <time>2014-06-06T09:54:46Z</time>
      </trkpt>
      <trkpt lat="43.69503" lon="3.09766">
        <ele>629.5999756</ele>
        <time>2014-06-06T09:54:48Z</time>
      </trkpt>
      <trkpt lat="43.69504" lon="3.09758">
        <ele>629.5999756</ele>
        <time>2014-06-06T09:54:51Z</time>
      </trkpt>
      <trkpt lat="43.69506" lon="3.09755">
        <ele>629.5999756</ele>
        <time>2014-06-06T09:54:53Z</time>
      </trkpt>
      <trkpt lat="43.69509" lon="3.09746">
        <ele>629.5999756</ele>
        <time>2014-06-06T09:54:58Z</time>
      </trkpt>
      <trkpt lat="43.69509" lon="3.09746">
        <ele>629.5999756</ele>
        <time>2014-06-06T09:55:00Z</time>
      </trkpt>
      <trkpt lat="43.69511" lon="3.09736">
        <ele>629.2000122</ele>
        <time>2014-06-06T09:55:14Z</time>
      </trkpt>
      <trkpt lat="43.69512" lon="3.09734">
        <ele>628.5999756</ele>
        <time>2014-06-06T09:55:15Z</time>
      </trkpt>
      <trkpt lat="43.69512" lon="3.09733">
        <ele>628.2000122</ele>
        <time>2014-06-06T09:55:16Z</time>
      </trkpt>
      <trkpt lat="43.69512" lon="3.09731">
        <ele>627.7999878</ele>
        <time>2014-06-06T09:55:17Z</time>
      </trkpt>
      <trkpt lat="43.69513" lon="3.0973">
        <ele>627.4000244</ele>
        <time>2014-06-06T09:55:18Z</time>
      </trkpt>
      <trkpt lat="43.69513" lon="3.09729">
        <ele>627.4000244</ele>
        <time>2014-06-06T09:55:19Z</time>
      </trkpt>
      <trkpt lat="43.69542" lon="3.09712">
        <ele>627.4000244</ele>
        <time>2014-06-06T09:56:05Z</time>
      </trkpt>
      <trkpt lat="43.69544" lon="3.09712">
        <ele>627.4000244</ele>
        <time>2014-06-06T09:56:06Z</time>
      </trkpt>
      <trkpt lat="43.69557" lon="3.09703">
        <ele>627.4000244</ele>
        <time>2014-06-06T09:56:11Z</time>
      </trkpt>
      <trkpt lat="43.6957" lon="3.09692">
        <ele>627</ele>
        <time>2014-06-06T09:56:16Z</time>
      </trkpt>
      <trkpt lat="43.69572" lon="3.0969">
        <ele>626.4000244</ele>
        <time>2014-06-06T09:56:17Z</time>
      </trkpt>
      <trkpt lat="43.69573" lon="3.09688">
        <ele>626</ele>
        <time>2014-06-06T09:56:18Z</time>
      </trkpt>
      <trkpt lat="43.69575" lon="3.09686">
        <ele>625.5999756</ele>
        <time>2014-06-06T09:56:19Z</time>
      </trkpt>
      <trkpt lat="43.69576" lon="3.09683">
        <ele>625.2000122</ele>
        <time>2014-06-06T09:56:20Z</time>
      </trkpt>
      <trkpt lat="43.69581" lon="3.09677">
        <ele>625.2000122</ele>
        <time>2014-06-06T09:56:23Z</time>
      </trkpt>
      <trkpt lat="43.69587" lon="3.09668">
        <ele>625.2000122</ele>
        <time>2014-06-06T09:56:28Z</time>
      </trkpt>
      <trkpt lat="43.69599" lon="3.0967">
        <ele>625.2000122</ele>
        <time>2014-06-06T09:56:51Z</time>
      </trkpt>
      <trkpt lat="43.69601" lon="3.09677">
        <ele>624.7999878</ele>
        <time>2014-06-06T09:56:54Z</time>
      </trkpt>
      <trkpt lat="43.69602" lon="3.09679">
        <ele>624.4000244</ele>
        <time>2014-06-06T09:56:55Z</time>
      </trkpt>
      <trkpt lat="43.69603" lon="3.09681">
        <ele>624</ele>
        <time>2014-06-06T09:56:56Z</time>
      </trkpt>
      <trkpt lat="43.69604" lon="3.09684">
        <ele>623.5999756</ele>
        <time>2014-06-06T09:56:57Z</time>
      </trkpt>
      <trkpt lat="43.69606" lon="3.09687">
        <ele>623.2000122</ele>
        <time>2014-06-06T09:56:58Z</time>
      </trkpt>
      <trkpt lat="43.69612" lon="3.09697">
        <ele>623.2000122</ele>
        <time>2014-06-06T09:57:01Z</time>
      </trkpt>
      <trkpt lat="43.69618" lon="3.09722">
        <ele>623.2000122</ele>
        <time>2014-06-06T09:57:07Z</time>
      </trkpt>
      <trkpt lat="43.69625" lon="3.09746">
        <ele>622.2000122</ele>
        <time>2014-06-06T09:57:12Z</time>
      </trkpt>
      <trkpt lat="43.69627" lon="3.0975">
        <ele>621.7999878</ele>
        <time>2014-06-06T09:57:13Z</time>
      </trkpt>
      <trkpt lat="43.69629" lon="3.09754">
        <ele>621.4000244</ele>
        <time>2014-06-06T09:57:14Z</time>
      </trkpt>
      <trkpt lat="43.69632" lon="3.09758">
        <ele>621</ele>
        <time>2014-06-06T09:57:15Z</time>
      </trkpt>
      <trkpt lat="43.69635" lon="3.09761">
        <ele>621</ele>
        <time>2014-06-06T09:57:16Z</time>
      </trkpt>
      <trkpt lat="43.69638" lon="3.09763">
        <ele>621</ele>
        <time>2014-06-06T09:57:17Z</time>
      </trkpt>
      <trkpt lat="43.69649" lon="3.09765">
        <ele>620.5999756</ele>
        <time>2014-06-06T09:57:21Z</time>
      </trkpt>
      <trkpt lat="43.69652" lon="3.09765">
        <ele>620.2000122</ele>
        <time>2014-06-06T09:57:22Z</time>
      </trkpt>
      <trkpt lat="43.69654" lon="3.09765">
        <ele>619.5999756</ele>
        <time>2014-06-06T09:57:23Z</time>
      </trkpt>
      <trkpt lat="43.69657" lon="3.09765">
        <ele>619.2000122</ele>
        <time>2014-06-06T09:57:24Z</time>
      </trkpt>
      <trkpt lat="43.69659" lon="3.09765">
        <ele>618.7999878</ele>
        <time>2014-06-06T09:57:25Z</time>
      </trkpt>
      <trkpt lat="43.69663" lon="3.09766">
        <ele>618.7999878</ele>
        <time>2014-06-06T09:57:27Z</time>
      </trkpt>
      <trkpt lat="43.69669" lon="3.09765">
        <ele>618.4000244</ele>
        <time>2014-06-06T09:57:30Z</time>
      </trkpt>
      <trkpt lat="43.69671" lon="3.09766">
        <ele>618</ele>
        <time>2014-06-06T09:57:31Z</time>
      </trkpt>
      <trkpt lat="43.69673" lon="3.09767">
        <ele>617.5999756</ele>
        <time>2014-06-06T09:57:32Z</time>
      </trkpt>
      <trkpt lat="43.69675" lon="3.09769">
        <ele>617.2000122</ele>
        <time>2014-06-06T09:57:33Z</time>
      </trkpt>
      <trkpt lat="43.69676" lon="3.09771">
        <ele>616.7999878</ele>
        <time>2014-06-06T09:57:34Z</time>
      </trkpt>
      <trkpt lat="43.6968" lon="3.09779">
        <ele>616.7999878</ele>
        <time>2014-06-06T09:57:37Z</time>
      </trkpt>
      <trkpt lat="43.69683" lon="3.09785">
        <ele>616.7999878</ele>
        <time>2014-06-06T09:57:39Z</time>
      </trkpt>
      <trkpt lat="43.69686" lon="3.09789">
        <ele>616.7999878</ele>
        <time>2014-06-06T09:57:42Z</time>
      </trkpt>
      <trkpt lat="43.69685" lon="3.09795">
        <ele>616.7999878</ele>
        <time>2014-06-06T09:57:58Z</time>
      </trkpt>
      <trkpt lat="43.69685" lon="3.09797">
        <ele>616.7999878</ele>
        <time>2014-06-06T09:57:59Z</time>
      </trkpt>
      <trkpt lat="43.69684" lon="3.09803">
        <ele>616.4000244</ele>
        <time>2014-06-06T09:58:01Z</time>
      </trkpt>
      <trkpt lat="43.69684" lon="3.09807">
        <ele>615.7999878</ele>
        <time>2014-06-06T09:58:02Z</time>
      </trkpt>
      <trkpt lat="43.69684" lon="3.0981">
        <ele>615.4000244</ele>
        <time>2014-06-06T09:58:03Z</time>
      </trkpt>
      <trkpt lat="43.69684" lon="3.09814">
        <ele>615</ele>
        <time>2014-06-06T09:58:04Z</time>
      </trkpt>
      <trkpt lat="43.69683" lon="3.09818">
        <ele>614.5999756</ele>
        <time>2014-06-06T09:58:05Z</time>
      </trkpt>
      <trkpt lat="43.69684" lon="3.09835">
        <ele>614.5999756</ele>
        <time>2014-06-06T09:58:09Z</time>
      </trkpt>
      <trkpt lat="43.69684" lon="3.09837">
        <ele>614.2000122</ele>
        <time>2014-06-06T09:58:10Z</time>
      </trkpt>
      <trkpt lat="43.69687" lon="3.09841">
        <ele>613.7999878</ele>
        <time>2014-06-06T09:58:11Z</time>
      </trkpt>
      <trkpt lat="43.69691" lon="3.09844">
        <ele>613.4000244</ele>
        <time>2014-06-06T09:58:12Z</time>
      </trkpt>
      <trkpt lat="43.69695" lon="3.09847">
        <ele>612.7999878</ele>
        <time>2014-06-06T09:58:13Z</time>
      </trkpt>
      <trkpt lat="43.69699" lon="3.0985">
        <ele>612.4000244</ele>
        <time>2014-06-06T09:58:14Z</time>
      </trkpt>
      <trkpt lat="43.69713" lon="3.09863">
        <ele>612</ele>
        <time>2014-06-06T09:58:18Z</time>
      </trkpt>
      <trkpt lat="43.69716" lon="3.09867">
        <ele>611.5999756</ele>
        <time>2014-06-06T09:58:19Z</time>
      </trkpt>
      <trkpt lat="43.69719" lon="3.09871">
        <ele>611.2000122</ele>
        <time>2014-06-06T09:58:20Z</time>
      </trkpt>
      <trkpt lat="43.69723" lon="3.09875">
        <ele>610.7999878</ele>
        <time>2014-06-06T09:58:21Z</time>
      </trkpt>
      <trkpt lat="43.69726" lon="3.09879">
        <ele>610.4000244</ele>
        <time>2014-06-06T09:58:22Z</time>
      </trkpt>
      <trkpt lat="43.69732" lon="3.09885">
        <ele>610.4000244</ele>
        <time>2014-06-06T09:58:24Z</time>
      </trkpt>
      <trkpt lat="43.69737" lon="3.09889">
        <ele>609.5999756</ele>
        <time>2014-06-06T09:58:26Z</time>
      </trkpt>
      <trkpt lat="43.6974" lon="3.09892">
        <ele>609</ele>
        <time>2014-06-06T09:58:27Z</time>
      </trkpt>
      <trkpt lat="43.69742" lon="3.09895">
        <ele>608.5999756</ele>
        <time>2014-06-06T09:58:28Z</time>
      </trkpt>
      <trkpt lat="43.69744" lon="3.09898">
        <ele>608.2000122</ele>
        <time>2014-06-06T09:58:29Z</time>
      </trkpt>
      <trkpt lat="43.69759" lon="3.09912">
        <ele>608.2000122</ele>
        <time>2014-06-06T09:58:34Z</time>
      </trkpt>
      <trkpt lat="43.69762" lon="3.09914">
        <ele>607.7999878</ele>
        <time>2014-06-06T09:58:35Z</time>
      </trkpt>
      <trkpt lat="43.69765" lon="3.09916">
        <ele>607.4000244</ele>
        <time>2014-06-06T09:58:36Z</time>
      </trkpt>
      <trkpt lat="43.69768" lon="3.09918">
        <ele>607</ele>
        <time>2014-06-06T09:58:37Z</time>
      </trkpt>
      <trkpt lat="43.69771" lon="3.09919">
        <ele>606.5999756</ele>
        <time>2014-06-06T09:58:38Z</time>
      </trkpt>
      <trkpt lat="43.69773" lon="3.09921">
        <ele>606</ele>
        <time>2014-06-06T09:58:39Z</time>
      </trkpt>
      <trkpt lat="43.69779" lon="3.09923">
        <ele>606</ele>
        <time>2014-06-06T09:58:41Z</time>
      </trkpt>
      <trkpt lat="43.69795" lon="3.09929">
        <ele>605.5999756</ele>
        <time>2014-06-06T09:58:45Z</time>
      </trkpt>
      <trkpt lat="43.698" lon="3.09929">
        <ele>605.2000122</ele>
        <time>2014-06-06T09:58:46Z</time>
      </trkpt>
      <trkpt lat="43.69804" lon="3.09929">
        <ele>604.7999878</ele>
        <time>2014-06-06T09:58:47Z</time>
      </trkpt>
      <trkpt lat="43.69809" lon="3.09929">
        <ele>604.4000244</ele>
        <time>2014-06-06T09:58:48Z</time>
      </trkpt>
      <trkpt lat="43.69812" lon="3.09929">
        <ele>604</ele>
        <time>2014-06-06T09:58:49Z</time>
      </trkpt>
      <trkpt lat="43.69823" lon="3.09927">
        <ele>604</ele>
        <time>2014-06-06T09:58:53Z</time>
      </trkpt>
      <trkpt lat="43.69827" lon="3.09928">
        <ele>603.5999756</ele>
        <time>2014-06-06T09:58:55Z</time>
      </trkpt>
      <trkpt lat="43.69829" lon="3.09929">
        <ele>603.2000122</ele>
        <time>2014-06-06T09:58:56Z</time>
      </trkpt>
      <trkpt lat="43.69831" lon="3.09931">
        <ele>602.5999756</ele>
        <time>2014-06-06T09:58:57Z</time>
      </trkpt>
      <trkpt lat="43.69832" lon="3.09933">
        <ele>602.2000122</ele>
        <time>2014-06-06T09:58:58Z</time>
      </trkpt>
      <trkpt lat="43.69835" lon="3.09937">
        <ele>601.7999878</ele>
        <time>2014-06-06T09:58:59Z</time>
      </trkpt>
      <trkpt lat="43.69841" lon="3.09941">
        <ele>601.7999878</ele>
        <time>2014-06-06T09:59:02Z</time>
      </trkpt>
      <trkpt lat="43.69843" lon="3.09943">
        <ele>601.7999878</ele>
        <time>2014-06-06T09:59:03Z</time>
      </trkpt>
      <trkpt lat="43.69845" lon="3.09947">
        <ele>601.7999878</ele>
        <time>2014-06-06T09:59:04Z</time>
      </trkpt>
      <trkpt lat="43.69851" lon="3.09959">
        <ele>601.7999878</ele>
        <time>2014-06-06T09:59:07Z</time>
      </trkpt>
      <trkpt lat="43.69855" lon="3.09965">
        <ele>601.4000244</ele>
        <time>2014-06-06T09:59:09Z</time>
      </trkpt>
      <trkpt lat="43.69857" lon="3.09967">
        <ele>601</ele>
        <time>2014-06-06T09:59:10Z</time>
      </trkpt>
      <trkpt lat="43.69859" lon="3.09968">
        <ele>600.5999756</ele>
        <time>2014-06-06T09:59:11Z</time>
      </trkpt>
      <trkpt lat="43.6986" lon="3.0997">
        <ele>600</ele>
        <time>2014-06-06T09:59:12Z</time>
      </trkpt>
      <trkpt lat="43.69862" lon="3.0997">
        <ele>599.5999756</ele>
        <time>2014-06-06T09:59:13Z</time>
      </trkpt>
      <trkpt lat="43.69866" lon="3.09976">
        <ele>599.5999756</ele>
        <time>2014-06-06T09:59:20Z</time>
      </trkpt>
      <trkpt lat="43.69868" lon="3.09978">
        <ele>599.5999756</ele>
        <time>2014-06-06T09:59:21Z</time>
      </trkpt>
      <trkpt lat="43.69874" lon="3.09984">
        <ele>599.5999756</ele>
        <time>2014-06-06T09:59:25Z</time>
      </trkpt>
      <trkpt lat="43.69876" lon="3.09985">
        <ele>599.5999756</ele>
        <time>2014-06-06T09:59:26Z</time>
      </trkpt>
      <trkpt lat="43.69888" lon="3.09991">
        <ele>599.5999756</ele>
        <time>2014-06-06T09:59:31Z</time>
      </trkpt>
      <trkpt lat="43.69902" lon="3.09993">
        <ele>599.5999756</ele>
        <time>2014-06-06T09:59:36Z</time>
      </trkpt>
      <trkpt lat="43.69907" lon="3.09993">
        <ele>599.5999756</ele>
        <time>2014-06-06T09:59:38Z</time>
      </trkpt>
      <trkpt lat="43.69918" lon="3.0999">
        <ele>599.5999756</ele>
        <time>2014-06-06T09:59:42Z</time>
      </trkpt>
      <trkpt lat="43.69933" lon="3.09977">
        <ele>599.5999756</ele>
        <time>2014-06-06T09:59:49Z</time>
      </trkpt>
      <trkpt lat="43.6994" lon="3.09967">
        <ele>599.5999756</ele>
        <time>2014-06-06T09:59:52Z</time>
      </trkpt>
      <trkpt lat="43.69943" lon="3.09965">
        <ele>599.5999756</ele>
        <time>2014-06-06T09:59:53Z</time>
      </trkpt>
      <trkpt lat="43.6996" lon="3.09952">
        <ele>599.5999756</ele>
        <time>2014-06-06T09:59:59Z</time>
      </trkpt>
      <trkpt lat="43.69965" lon="3.09945">
        <ele>599.2000122</ele>
        <time>2014-06-06T10:00:02Z</time>
      </trkpt>
      <trkpt lat="43.69967" lon="3.09943">
        <ele>598.7999878</ele>
        <time>2014-06-06T10:00:03Z</time>
      </trkpt>
      <trkpt lat="43.69969" lon="3.0994">
        <ele>598.4000244</ele>
        <time>2014-06-06T10:00:04Z</time>
      </trkpt>
      <trkpt lat="43.6997" lon="3.09937">
        <ele>598</ele>
        <time>2014-06-06T10:00:05Z</time>
      </trkpt>
      <trkpt lat="43.69972" lon="3.09934">
        <ele>597.5999756</ele>
        <time>2014-06-06T10:00:06Z</time>
      </trkpt>
      <trkpt lat="43.69982" lon="3.09916">
        <ele>597.5999756</ele>
        <time>2014-06-06T10:00:12Z</time>
      </trkpt>
      <trkpt lat="43.69988" lon="3.09903">
        <ele>597.2000122</ele>
        <time>2014-06-06T10:00:17Z</time>
      </trkpt>
      <trkpt lat="43.6999" lon="3.09901">
        <ele>596.7999878</ele>
        <time>2014-06-06T10:00:18Z</time>
      </trkpt>
      <trkpt lat="43.69992" lon="3.09899">
        <ele>596.4000244</ele>
        <time>2014-06-06T10:00:19Z</time>
      </trkpt>
      <trkpt lat="43.69993" lon="3.09897">
        <ele>596</ele>
        <time>2014-06-06T10:00:20Z</time>
      </trkpt>
      <trkpt lat="43.69994" lon="3.09895">
        <ele>595.5999756</ele>
        <time>2014-06-06T10:00:21Z</time>
      </trkpt>
      <trkpt lat="43.69997" lon="3.09889">
        <ele>595.5999756</ele>
        <time>2014-06-06T10:00:23Z</time>
      </trkpt>
      <trkpt lat="43.69999" lon="3.09887">
        <ele>595.5999756</ele>
        <time>2014-06-06T10:00:24Z</time>
      </trkpt>
      <trkpt lat="43.70005" lon="3.09884">
        <ele>595.5999756</ele>
        <time>2014-06-06T10:00:27Z</time>
      </trkpt>
      <trkpt lat="43.70008" lon="3.09881">
        <ele>595.2000122</ele>
        <time>2014-06-06T10:00:29Z</time>
      </trkpt>
      <trkpt lat="43.70009" lon="3.09878">
        <ele>594.7999878</ele>
        <time>2014-06-06T10:00:30Z</time>
      </trkpt>
      <trkpt lat="43.70011" lon="3.09876">
        <ele>594</ele>
        <time>2014-06-06T10:00:31Z</time>
      </trkpt>
      <trkpt lat="43.70012" lon="3.09873">
        <ele>593.5999756</ele>
        <time>2014-06-06T10:00:32Z</time>
      </trkpt>
      <trkpt lat="43.70015" lon="3.09862">
        <ele>593.5999756</ele>
        <time>2014-06-06T10:00:37Z</time>
      </trkpt>
      <trkpt lat="43.7002" lon="3.09855">
        <ele>593.5999756</ele>
        <time>2014-06-06T10:00:43Z</time>
      </trkpt>
      <trkpt lat="43.70021" lon="3.09857">
        <ele>593.5999756</ele>
        <time>2014-06-06T10:00:44Z</time>
      </trkpt>
      <trkpt lat="43.70022" lon="3.09858">
        <ele>593</ele>
        <time>2014-06-06T10:00:45Z</time>
      </trkpt>
      <trkpt lat="43.70023" lon="3.09858">
        <ele>592.5999756</ele>
        <time>2014-06-06T10:00:46Z</time>
      </trkpt>
      <trkpt lat="43.70023" lon="3.09858">
        <ele>592.2000122</ele>
        <time>2014-06-06T10:00:47Z</time>
      </trkpt>
      <trkpt lat="43.70023" lon="3.09858">
        <ele>591.7999878</ele>
        <time>2014-06-06T10:00:48Z</time>
      </trkpt>
      <trkpt lat="43.70023" lon="3.09858">
        <ele>591.4000244</ele>
        <time>2014-06-06T10:00:49Z</time>
      </trkpt>
      <trkpt lat="43.70079" lon="3.09839">
        <ele>590</ele>
        <time>2014-06-06T10:01:52Z</time>
      </trkpt>
      <trkpt lat="43.7008" lon="3.09839">
        <ele>589.5999756</ele>
        <time>2014-06-06T10:01:53Z</time>
      </trkpt>
      <trkpt lat="43.70082" lon="3.09839">
        <ele>589.2000122</ele>
        <time>2014-06-06T10:01:54Z</time>
      </trkpt>
      <trkpt lat="43.70084" lon="3.09839">
        <ele>589.2000122</ele>
        <time>2014-06-06T10:01:55Z</time>
      </trkpt>
      <trkpt lat="43.70097" lon="3.09842">
        <ele>589.2000122</ele>
        <time>2014-06-06T10:02:01Z</time>
      </trkpt>
      <trkpt lat="43.7012" lon="3.09851">
        <ele>589.2000122</ele>
        <time>2014-06-06T10:02:07Z</time>
      </trkpt>
      <trkpt lat="43.70128" lon="3.09854">
        <ele>589.2000122</ele>
        <time>2014-06-06T10:02:09Z</time>
      </trkpt>
      <trkpt lat="43.7014" lon="3.09855">
        <ele>589.2000122</ele>
        <time>2014-06-06T10:02:12Z</time>
      </trkpt>
      <trkpt lat="43.70143" lon="3.09854">
        <ele>589.2000122</ele>
        <time>2014-06-06T10:02:13Z</time>
      </trkpt>
      <trkpt lat="43.70155" lon="3.09852">
        <ele>588.7999878</ele>
        <time>2014-06-06T10:02:16Z</time>
      </trkpt>
      <trkpt lat="43.70158" lon="3.09851">
        <ele>588.4000244</ele>
        <time>2014-06-06T10:02:17Z</time>
      </trkpt>
      <trkpt lat="43.70163" lon="3.09848">
        <ele>588</ele>
        <time>2014-06-06T10:02:18Z</time>
      </trkpt>
      <trkpt lat="43.70165" lon="3.09845">
        <ele>587.4000244</ele>
        <time>2014-06-06T10:02:19Z</time>
      </trkpt>
      <trkpt lat="43.70168" lon="3.09843">
        <ele>587</ele>
        <time>2014-06-06T10:02:20Z</time>
      </trkpt>
      <trkpt lat="43.7018" lon="3.09833">
        <ele>587</ele>
        <time>2014-06-06T10:02:24Z</time>
      </trkpt>
      <trkpt lat="43.70197" lon="3.09809">
        <ele>587</ele>
        <time>2014-06-06T10:02:30Z</time>
      </trkpt>
      <trkpt lat="43.7021" lon="3.09789">
        <ele>586.5999756</ele>
        <time>2014-06-06T10:02:35Z</time>
      </trkpt>
      <trkpt lat="43.70213" lon="3.09784">
        <ele>586.2000122</ele>
        <time>2014-06-06T10:02:36Z</time>
      </trkpt>
      <trkpt lat="43.70215" lon="3.0978">
        <ele>585.7999878</ele>
        <time>2014-06-06T10:02:37Z</time>
      </trkpt>
      <trkpt lat="43.70217" lon="3.09775">
        <ele>585.4000244</ele>
        <time>2014-06-06T10:02:38Z</time>
      </trkpt>
      <trkpt lat="43.70219" lon="3.0977">
        <ele>585</ele>
        <time>2014-06-06T10:02:39Z</time>
      </trkpt>
      <trkpt lat="43.7022" lon="3.09762">
        <ele>585</ele>
        <time>2014-06-06T10:02:41Z</time>
      </trkpt>
      <trkpt lat="43.70214" lon="3.09755">
        <ele>585</ele>
        <time>2014-06-06T10:02:44Z</time>
      </trkpt>
      <trkpt lat="43.70209" lon="3.09737">
        <ele>583</ele>
        <time>2014-06-06T10:02:57Z</time>
      </trkpt>
      <trkpt lat="43.70209" lon="3.09731">
        <ele>583</ele>
        <time>2014-06-06T10:02:59Z</time>
      </trkpt>
      <trkpt lat="43.70204" lon="3.09717">
        <ele>583</ele>
        <time>2014-06-06T10:03:04Z</time>
      </trkpt>
      <trkpt lat="43.70204" lon="3.09713">
        <ele>583</ele>
        <time>2014-06-06T10:03:05Z</time>
      </trkpt>
      <trkpt lat="43.70204" lon="3.09709">
        <ele>582.5999756</ele>
        <time>2014-06-06T10:03:06Z</time>
      </trkpt>
      <trkpt lat="43.70204" lon="3.09704">
        <ele>582.2000122</ele>
        <time>2014-06-06T10:03:07Z</time>
      </trkpt>
      <trkpt lat="43.70205" lon="3.09699">
        <ele>581.7999878</ele>
        <time>2014-06-06T10:03:08Z</time>
      </trkpt>
      <trkpt lat="43.70206" lon="3.09695">
        <ele>581.4000244</ele>
        <time>2014-06-06T10:03:09Z</time>
      </trkpt>
      <trkpt lat="43.70207" lon="3.09691">
        <ele>581</ele>
        <time>2014-06-06T10:03:10Z</time>
      </trkpt>
      <trkpt lat="43.70206" lon="3.09684">
        <ele>581</ele>
        <time>2014-06-06T10:03:12Z</time>
      </trkpt>
      <trkpt lat="43.70205" lon="3.09677">
        <ele>581</ele>
        <time>2014-06-06T10:03:14Z</time>
      </trkpt>
      <trkpt lat="43.70203" lon="3.0967">
        <ele>580.5999756</ele>
        <time>2014-06-06T10:03:16Z</time>
      </trkpt>
      <trkpt lat="43.70202" lon="3.09665">
        <ele>580</ele>
        <time>2014-06-06T10:03:17Z</time>
      </trkpt>
      <trkpt lat="43.70201" lon="3.09661">
        <ele>579.5999756</ele>
        <time>2014-06-06T10:03:18Z</time>
      </trkpt>
      <trkpt lat="43.702" lon="3.09656">
        <ele>579.2000122</ele>
        <time>2014-06-06T10:03:19Z</time>
      </trkpt>
      <trkpt lat="43.70198" lon="3.09651">
        <ele>578.7999878</ele>
        <time>2014-06-06T10:03:20Z</time>
      </trkpt>
      <trkpt lat="43.70189" lon="3.09637">
        <ele>578.7999878</ele>
        <time>2014-06-06T10:03:23Z</time>
      </trkpt>
      <trkpt lat="43.7018" lon="3.09625">
        <ele>578.7999878</ele>
        <time>2014-06-06T10:03:26Z</time>
      </trkpt>
      <trkpt lat="43.70176" lon="3.09621">
        <ele>578.7999878</ele>
        <time>2014-06-06T10:03:29Z</time>
      </trkpt>
      <trkpt lat="43.70201" lon="3.09619">
        <ele>576.7999878</ele>
        <time>2014-06-06T10:03:52Z</time>
      </trkpt>
      <trkpt lat="43.70201" lon="3.09618">
        <ele>576.7999878</ele>
        <time>2014-06-06T10:03:53Z</time>
      </trkpt>
      <trkpt lat="43.70201" lon="3.09618">
        <ele>576.7999878</ele>
        <time>2014-06-06T10:03:55Z</time>
      </trkpt>
      <trkpt lat="43.70209" lon="3.09614">
        <ele>576.7999878</ele>
        <time>2014-06-06T10:04:06Z</time>
      </trkpt>
      <trkpt lat="43.70211" lon="3.09613">
        <ele>576.7999878</ele>
        <time>2014-06-06T10:04:07Z</time>
      </trkpt>
      <trkpt lat="43.70222" lon="3.0961">
        <ele>576.4000244</ele>
        <time>2014-06-06T10:04:11Z</time>
      </trkpt>
      <trkpt lat="43.70226" lon="3.09609">
        <ele>576</ele>
        <time>2014-06-06T10:04:12Z</time>
      </trkpt>
      <trkpt lat="43.70229" lon="3.09607">
        <ele>575.2000122</ele>
        <time>2014-06-06T10:04:13Z</time>
      </trkpt>
      <trkpt lat="43.70232" lon="3.09605">
        <ele>574.7999878</ele>
        <time>2014-06-06T10:04:14Z</time>
      </trkpt>
      <trkpt lat="43.70243" lon="3.09595">
        <ele>574.7999878</ele>
        <time>2014-06-06T10:04:18Z</time>
      </trkpt>
      <trkpt lat="43.70245" lon="3.09592">
        <ele>574.2000122</ele>
        <time>2014-06-06T10:04:19Z</time>
      </trkpt>
      <trkpt lat="43.70248" lon="3.09588">
        <ele>573.7999878</ele>
        <time>2014-06-06T10:04:20Z</time>
      </trkpt>
      <trkpt lat="43.7025" lon="3.09584">
        <ele>573.4000244</ele>
        <time>2014-06-06T10:04:21Z</time>
      </trkpt>
      <trkpt lat="43.70252" lon="3.09579">
        <ele>573</ele>
        <time>2014-06-06T10:04:22Z</time>
      </trkpt>
      <trkpt lat="43.70254" lon="3.09574">
        <ele>572.5999756</ele>
        <time>2014-06-06T10:04:23Z</time>
      </trkpt>
      <trkpt lat="43.70263" lon="3.0955">
        <ele>572.5999756</ele>
        <time>2014-06-06T10:04:28Z</time>
      </trkpt>
      <trkpt lat="43.70265" lon="3.09547">
        <ele>572.2000122</ele>
        <time>2014-06-06T10:04:29Z</time>
      </trkpt>
      <trkpt lat="43.70266" lon="3.09543">
        <ele>571.7999878</ele>
        <time>2014-06-06T10:04:30Z</time>
      </trkpt>
      <trkpt lat="43.70267" lon="3.09539">
        <ele>571.4000244</ele>
        <time>2014-06-06T10:04:31Z</time>
      </trkpt>
      <trkpt lat="43.70268" lon="3.09535">
        <ele>570.7999878</ele>
        <time>2014-06-06T10:04:32Z</time>
      </trkpt>
      <trkpt lat="43.7027" lon="3.09531">
        <ele>570.4000244</ele>
        <time>2014-06-06T10:04:33Z</time>
      </trkpt>
      <trkpt lat="43.70275" lon="3.09509">
        <ele>570.4000244</ele>
        <time>2014-06-06T10:04:38Z</time>
      </trkpt>
      <trkpt lat="43.70274" lon="3.09504">
        <ele>570.4000244</ele>
        <time>2014-06-06T10:04:39Z</time>
      </trkpt>
      <trkpt lat="43.70274" lon="3.09493">
        <ele>570</ele>
        <time>2014-06-06T10:04:41Z</time>
      </trkpt>
      <trkpt lat="43.70274" lon="3.09488">
        <ele>569.5999756</ele>
        <time>2014-06-06T10:04:42Z</time>
      </trkpt>
      <trkpt lat="43.70274" lon="3.09483">
        <ele>569.2000122</ele>
        <time>2014-06-06T10:04:43Z</time>
      </trkpt>
      <trkpt lat="43.70274" lon="3.09479">
        <ele>568.7999878</ele>
        <time>2014-06-06T10:04:44Z</time>
      </trkpt>
      <trkpt lat="43.70273" lon="3.09475">
        <ele>568.4000244</ele>
        <time>2014-06-06T10:04:45Z</time>
      </trkpt>
      <trkpt lat="43.70273" lon="3.09469">
        <ele>568.4000244</ele>
        <time>2014-06-06T10:04:47Z</time>
      </trkpt>
      <trkpt lat="43.70277" lon="3.09454">
        <ele>568.4000244</ele>
        <time>2014-06-06T10:04:51Z</time>
      </trkpt>
      <trkpt lat="43.70278" lon="3.09451">
        <ele>568</ele>
        <time>2014-06-06T10:04:52Z</time>
      </trkpt>
      <trkpt lat="43.70279" lon="3.09447">
        <ele>567.5999756</ele>
        <time>2014-06-06T10:04:53Z</time>
      </trkpt>
      <trkpt lat="43.70279" lon="3.09443">
        <ele>567.2000122</ele>
        <time>2014-06-06T10:04:54Z</time>
      </trkpt>
      <trkpt lat="43.7028" lon="3.0944">
        <ele>566.7999878</ele>
        <time>2014-06-06T10:04:55Z</time>
      </trkpt>
      <trkpt lat="43.70281" lon="3.09436">
        <ele>566.4000244</ele>
        <time>2014-06-06T10:04:56Z</time>
      </trkpt>
      <trkpt lat="43.70285" lon="3.09418">
        <ele>566.4000244</ele>
        <time>2014-06-06T10:05:02Z</time>
      </trkpt>
      <trkpt lat="43.70283" lon="3.09413">
        <ele>566.4000244</ele>
        <time>2014-06-06T10:05:03Z</time>
      </trkpt>
      <trkpt lat="43.70281" lon="3.094">
        <ele>566.4000244</ele>
        <time>2014-06-06T10:05:06Z</time>
      </trkpt>
      <trkpt lat="43.7028" lon="3.09396">
        <ele>566.4000244</ele>
        <time>2014-06-06T10:05:07Z</time>
      </trkpt>
      <trkpt lat="43.70279" lon="3.09391">
        <ele>566</ele>
        <time>2014-06-06T10:05:08Z</time>
      </trkpt>
      <trkpt lat="43.70278" lon="3.09387">
        <ele>565.5999756</ele>
        <time>2014-06-06T10:05:09Z</time>
      </trkpt>
      <trkpt lat="43.70278" lon="3.09383">
        <ele>565.2000122</ele>
        <time>2014-06-06T10:05:10Z</time>
      </trkpt>
      <trkpt lat="43.70277" lon="3.0938">
        <ele>564.5999756</ele>
        <time>2014-06-06T10:05:11Z</time>
      </trkpt>
      <trkpt lat="43.70277" lon="3.09375">
        <ele>564.2000122</ele>
        <time>2014-06-06T10:05:12Z</time>
      </trkpt>
      <trkpt lat="43.70278" lon="3.09362">
        <ele>564.2000122</ele>
        <time>2014-06-06T10:05:16Z</time>
      </trkpt>
      <trkpt lat="43.70278" lon="3.09346">
        <ele>564.2000122</ele>
        <time>2014-06-06T10:05:21Z</time>
      </trkpt>
      <trkpt lat="43.7028" lon="3.09343">
        <ele>564.2000122</ele>
        <time>2014-06-06T10:05:22Z</time>
      </trkpt>
      <trkpt lat="43.70284" lon="3.09334">
        <ele>563.7999878</ele>
        <time>2014-06-06T10:05:24Z</time>
      </trkpt>
      <trkpt lat="43.70286" lon="3.09328">
        <ele>563.4000244</ele>
        <time>2014-06-06T10:05:25Z</time>
      </trkpt>
      <trkpt lat="43.70286" lon="3.09323">
        <ele>563</ele>
        <time>2014-06-06T10:05:26Z</time>
      </trkpt>
      <trkpt lat="43.70287" lon="3.09318">
        <ele>562.2000122</ele>
        <time>2014-06-06T10:05:27Z</time>
      </trkpt>
      <trkpt lat="43.70287" lon="3.09313">
        <ele>562.2000122</ele>
        <time>2014-06-06T10:05:28Z</time>
      </trkpt>
      <trkpt lat="43.70288" lon="3.09308">
        <ele>562.2000122</ele>
        <time>2014-06-06T10:05:29Z</time>
      </trkpt>
      <trkpt lat="43.70291" lon="3.09298">
        <ele>561.7999878</ele>
        <time>2014-06-06T10:05:31Z</time>
      </trkpt>
      <trkpt lat="43.70293" lon="3.09293">
        <ele>561.4000244</ele>
        <time>2014-06-06T10:05:32Z</time>
      </trkpt>
      <trkpt lat="43.70293" lon="3.09289">
        <ele>561</ele>
        <time>2014-06-06T10:05:33Z</time>
      </trkpt>
      <trkpt lat="43.70293" lon="3.09284">
        <ele>560.4000244</ele>
        <time>2014-06-06T10:05:34Z</time>
      </trkpt>
      <trkpt lat="43.70291" lon="3.0928">
        <ele>560</ele>
        <time>2014-06-06T10:05:35Z</time>
      </trkpt>
      <trkpt lat="43.7029" lon="3.09276">
        <ele>560</ele>
        <time>2014-06-06T10:05:36Z</time>
      </trkpt>
      <trkpt lat="43.70288" lon="3.09273">
        <ele>560</ele>
        <time>2014-06-06T10:05:37Z</time>
      </trkpt>
      <trkpt lat="43.70286" lon="3.09269">
        <ele>560</ele>
        <time>2014-06-06T10:05:38Z</time>
      </trkpt>
      <trkpt lat="43.70284" lon="3.09264">
        <ele>559.5999756</ele>
        <time>2014-06-06T10:05:39Z</time>
      </trkpt>
      <trkpt lat="43.70282" lon="3.09259">
        <ele>559.2000122</ele>
        <time>2014-06-06T10:05:40Z</time>
      </trkpt>
      <trkpt lat="43.7028" lon="3.09255">
        <ele>558.7999878</ele>
        <time>2014-06-06T10:05:41Z</time>
      </trkpt>
      <trkpt lat="43.70279" lon="3.09252">
        <ele>558.4000244</ele>
        <time>2014-06-06T10:05:42Z</time>
      </trkpt>
      <trkpt lat="43.70278" lon="3.09249">
        <ele>557.7999878</ele>
        <time>2014-06-06T10:05:43Z</time>
      </trkpt>
      <trkpt lat="43.70277" lon="3.09242">
        <ele>557.7999878</ele>
        <time>2014-06-06T10:05:45Z</time>
      </trkpt>
      <trkpt lat="43.70274" lon="3.09234">
        <ele>557.7999878</ele>
        <time>2014-06-06T10:05:47Z</time>
      </trkpt>
      <trkpt lat="43.70272" lon="3.09231">
        <ele>557.4000244</ele>
        <time>2014-06-06T10:05:48Z</time>
      </trkpt>
      <trkpt lat="43.70269" lon="3.09228">
        <ele>557</ele>
        <time>2014-06-06T10:05:49Z</time>
      </trkpt>
      <trkpt lat="43.70266" lon="3.09224">
        <ele>556.5999756</ele>
        <time>2014-06-06T10:05:50Z</time>
      </trkpt>
      <trkpt lat="43.70264" lon="3.0922">
        <ele>555.7999878</ele>
        <time>2014-06-06T10:05:51Z</time>
      </trkpt>
      <trkpt lat="43.70263" lon="3.09215">
        <ele>555.7999878</ele>
        <time>2014-06-06T10:05:52Z</time>
      </trkpt>
      <trkpt lat="43.7026" lon="3.09197">
        <ele>555.7999878</ele>
        <time>2014-06-06T10:05:57Z</time>
      </trkpt>
      <trkpt lat="43.70244" lon="3.09178">
        <ele>555.4000244</ele>
        <time>2014-06-06T10:05:59Z</time>
      </trkpt>
      <trkpt lat="43.70243" lon="3.09174">
        <ele>555</ele>
        <time>2014-06-06T10:06:00Z</time>
      </trkpt>
      <trkpt lat="43.70242" lon="3.09171">
        <ele>554.5999756</ele>
        <time>2014-06-06T10:06:01Z</time>
      </trkpt>
      <trkpt lat="43.7024" lon="3.09168">
        <ele>554.2000122</ele>
        <time>2014-06-06T10:06:02Z</time>
      </trkpt>
      <trkpt lat="43.70238" lon="3.09166">
        <ele>553.5999756</ele>
        <time>2014-06-06T10:06:03Z</time>
      </trkpt>
      <trkpt lat="43.70237" lon="3.09164">
        <ele>553.5999756</ele>
        <time>2014-06-06T10:06:04Z</time>
      </trkpt>
      <trkpt lat="43.70237" lon="3.09163">
        <ele>553.5999756</ele>
        <time>2014-06-06T10:06:36Z</time>
      </trkpt>
      <trkpt lat="43.70241" lon="3.09171">
        <ele>553.2000122</ele>
        <time>2014-06-06T10:06:38Z</time>
      </trkpt>
      <trkpt lat="43.70243" lon="3.09175">
        <ele>552.7999878</ele>
        <time>2014-06-06T10:06:39Z</time>
      </trkpt>
      <trkpt lat="43.70244" lon="3.0918">
        <ele>552.4000244</ele>
        <time>2014-06-06T10:06:40Z</time>
      </trkpt>
      <trkpt lat="43.70245" lon="3.09184">
        <ele>551.5999756</ele>
        <time>2014-06-06T10:06:41Z</time>
      </trkpt>
      <trkpt lat="43.7025" lon="3.09194">
        <ele>551.2000122</ele>
        <time>2014-06-06T10:06:44Z</time>
      </trkpt>
      <trkpt lat="43.70251" lon="3.09197">
        <ele>550.7999878</ele>
        <time>2014-06-06T10:06:45Z</time>
      </trkpt>
      <trkpt lat="43.70254" lon="3.092">
        <ele>550.4000244</ele>
        <time>2014-06-06T10:06:46Z</time>
      </trkpt>
      <trkpt lat="43.70256" lon="3.09202">
        <ele>549.7999878</ele>
        <time>2014-06-06T10:06:47Z</time>
      </trkpt>
      <trkpt lat="43.70258" lon="3.09204">
        <ele>549.4000244</ele>
        <time>2014-06-06T10:06:48Z</time>
      </trkpt>
      <trkpt lat="43.70266" lon="3.09211">
        <ele>549</ele>
        <time>2014-06-06T10:06:51Z</time>
      </trkpt>
      <trkpt lat="43.70268" lon="3.09215">
        <ele>548.5999756</ele>
        <time>2014-06-06T10:06:52Z</time>
      </trkpt>
      <trkpt lat="43.70272" lon="3.09219">
        <ele>548</ele>
        <time>2014-06-06T10:06:53Z</time>
      </trkpt>
      <trkpt lat="43.70275" lon="3.09222">
        <ele>547.5999756</ele>
        <time>2014-06-06T10:06:54Z</time>
      </trkpt>
      <trkpt lat="43.70279" lon="3.09226">
        <ele>547.2000122</ele>
        <time>2014-06-06T10:06:55Z</time>
      </trkpt>
      <trkpt lat="43.70283" lon="3.09231">
        <ele>546.7999878</ele>
        <time>2014-06-06T10:06:56Z</time>
      </trkpt>
      <trkpt lat="43.70286" lon="3.09236">
        <ele>546.4000244</ele>
        <time>2014-06-06T10:06:57Z</time>
      </trkpt>
      <trkpt lat="43.7029" lon="3.0924">
        <ele>546</ele>
        <time>2014-06-06T10:06:58Z</time>
      </trkpt>
      <trkpt lat="43.70294" lon="3.09244">
        <ele>545.5999756</ele>
        <time>2014-06-06T10:06:59Z</time>
      </trkpt>
      <trkpt lat="43.70298" lon="3.09247">
        <ele>545.2000122</ele>
        <time>2014-06-06T10:07:00Z</time>
      </trkpt>
      <trkpt lat="43.70301" lon="3.0925">
        <ele>544.5999756</ele>
        <time>2014-06-06T10:07:01Z</time>
      </trkpt>
      <trkpt lat="43.70302" lon="3.09255">
        <ele>544.2000122</ele>
        <time>2014-06-06T10:07:02Z</time>
      </trkpt>
      <trkpt lat="43.70305" lon="3.09259">
        <ele>543.5999756</ele>
        <time>2014-06-06T10:07:03Z</time>
      </trkpt>
      <trkpt lat="43.70306" lon="3.09265">
        <ele>543.2000122</ele>
        <time>2014-06-06T10:07:04Z</time>
      </trkpt>
      <trkpt lat="43.70308" lon="3.0927">
        <ele>542.5999756</ele>
        <time>2014-06-06T10:07:05Z</time>
      </trkpt>
      <trkpt lat="43.70309" lon="3.09276">
        <ele>542.2000122</ele>
        <time>2014-06-06T10:07:06Z</time>
      </trkpt>
      <trkpt lat="43.7031" lon="3.09282">
        <ele>541.7999878</ele>
        <time>2014-06-06T10:07:07Z</time>
      </trkpt>
      <trkpt lat="43.70311" lon="3.09288">
        <ele>541.4000244</ele>
        <time>2014-06-06T10:07:08Z</time>
      </trkpt>
      <trkpt lat="43.70312" lon="3.09294">
        <ele>541</ele>
        <time>2014-06-06T10:07:09Z</time>
      </trkpt>
      <trkpt lat="43.70314" lon="3.093">
        <ele>540.4000244</ele>
        <time>2014-06-06T10:07:10Z</time>
      </trkpt>
      <trkpt lat="43.70314" lon="3.09305">
        <ele>540</ele>
        <time>2014-06-06T10:07:11Z</time>
      </trkpt>
      <trkpt lat="43.70315" lon="3.09311">
        <ele>539.5999756</ele>
        <time>2014-06-06T10:07:12Z</time>
      </trkpt>
      <trkpt lat="43.70315" lon="3.09317">
        <ele>539.2000122</ele>
        <time>2014-06-06T10:07:13Z</time>
      </trkpt>
      <trkpt lat="43.70314" lon="3.09323">
        <ele>538.7999878</ele>
        <time>2014-06-06T10:07:14Z</time>
      </trkpt>
      <trkpt lat="43.70314" lon="3.09329">
        <ele>538.2000122</ele>
        <time>2014-06-06T10:07:15Z</time>
      </trkpt>
      <trkpt lat="43.70313" lon="3.09335">
        <ele>537.7999878</ele>
        <time>2014-06-06T10:07:16Z</time>
      </trkpt>
      <trkpt lat="43.70313" lon="3.09341">
        <ele>537.2000122</ele>
        <time>2014-06-06T10:07:17Z</time>
      </trkpt>
      <trkpt lat="43.70314" lon="3.09347">
        <ele>536.7999878</ele>
        <time>2014-06-06T10:07:18Z</time>
      </trkpt>
      <trkpt lat="43.70314" lon="3.09352">
        <ele>536.2000122</ele>
        <time>2014-06-06T10:07:19Z</time>
      </trkpt>
      <trkpt lat="43.70314" lon="3.09357">
        <ele>535.7999878</ele>
        <time>2014-06-06T10:07:20Z</time>
      </trkpt>
      <trkpt lat="43.70315" lon="3.09361">
        <ele>535.4000244</ele>
        <time>2014-06-06T10:07:21Z</time>
      </trkpt>
      <trkpt lat="43.70316" lon="3.09365">
        <ele>534.7999878</ele>
        <time>2014-06-06T10:07:22Z</time>
      </trkpt>
      <trkpt lat="43.70316" lon="3.09369">
        <ele>534.4000244</ele>
        <time>2014-06-06T10:07:23Z</time>
      </trkpt>
      <trkpt lat="43.70317" lon="3.09373">
        <ele>534</ele>
        <time>2014-06-06T10:07:24Z</time>
      </trkpt>
      <trkpt lat="43.70317" lon="3.09378">
        <ele>533.5999756</ele>
        <time>2014-06-06T10:07:25Z</time>
      </trkpt>
      <trkpt lat="43.70318" lon="3.09382">
        <ele>533.2000122</ele>
        <time>2014-06-06T10:07:26Z</time>
      </trkpt>
      <trkpt lat="43.70319" lon="3.09386">
        <ele>532.7999878</ele>
        <time>2014-06-06T10:07:27Z</time>
      </trkpt>
      <trkpt lat="43.70319" lon="3.0939">
        <ele>532.4000244</ele>
        <time>2014-06-06T10:07:28Z</time>
      </trkpt>
      <trkpt lat="43.7032" lon="3.09394">
        <ele>532</ele>
        <time>2014-06-06T10:07:29Z</time>
      </trkpt>
      <trkpt lat="43.70321" lon="3.09399">
        <ele>531</ele>
        <time>2014-06-06T10:07:30Z</time>
      </trkpt>
      <trkpt lat="43.70321" lon="3.09403">
        <ele>530.5999756</ele>
        <time>2014-06-06T10:07:31Z</time>
      </trkpt>
      <trkpt lat="43.70322" lon="3.09408">
        <ele>530.2000122</ele>
        <time>2014-06-06T10:07:32Z</time>
      </trkpt>
      <trkpt lat="43.70323" lon="3.09412">
        <ele>529.7999878</ele>
        <time>2014-06-06T10:07:33Z</time>
      </trkpt>
      <trkpt lat="43.70323" lon="3.09422">
        <ele>529.7999878</ele>
        <time>2014-06-06T10:07:35Z</time>
      </trkpt>
      <trkpt lat="43.70323" lon="3.09427">
        <ele>529.4000244</ele>
        <time>2014-06-06T10:07:36Z</time>
      </trkpt>
      <trkpt lat="43.70323" lon="3.09432">
        <ele>529</ele>
        <time>2014-06-06T10:07:37Z</time>
      </trkpt>
      <trkpt lat="43.70323" lon="3.09438">
        <ele>528.5999756</ele>
        <time>2014-06-06T10:07:38Z</time>
      </trkpt>
      <trkpt lat="43.70324" lon="3.09443">
        <ele>528</ele>
        <time>2014-06-06T10:07:39Z</time>
      </trkpt>
      <trkpt lat="43.70325" lon="3.09449">
        <ele>527.5999756</ele>
        <time>2014-06-06T10:07:40Z</time>
      </trkpt>
      <trkpt lat="43.70328" lon="3.09456">
        <ele>527.2000122</ele>
        <time>2014-06-06T10:07:41Z</time>
      </trkpt>
      <trkpt lat="43.7033" lon="3.09462">
        <ele>526.7999878</ele>
        <time>2014-06-06T10:07:42Z</time>
      </trkpt>
      <trkpt lat="43.70333" lon="3.09469">
        <ele>526.4000244</ele>
        <time>2014-06-06T10:07:43Z</time>
      </trkpt>
      <trkpt lat="43.70335" lon="3.09474">
        <ele>526</ele>
        <time>2014-06-06T10:07:44Z</time>
      </trkpt>
      <trkpt lat="43.70336" lon="3.0948">
        <ele>525.5999756</ele>
        <time>2014-06-06T10:07:45Z</time>
      </trkpt>
      <trkpt lat="43.70337" lon="3.09485">
        <ele>525</ele>
        <time>2014-06-06T10:07:46Z</time>
      </trkpt>
      <trkpt lat="43.70338" lon="3.09491">
        <ele>524.5999756</ele>
        <time>2014-06-06T10:07:47Z</time>
      </trkpt>
      <trkpt lat="43.70339" lon="3.09498">
        <ele>524</ele>
        <time>2014-06-06T10:07:48Z</time>
      </trkpt>
      <trkpt lat="43.70341" lon="3.09503">
        <ele>523.5999756</ele>
        <time>2014-06-06T10:07:49Z</time>
      </trkpt>
      <trkpt lat="43.70343" lon="3.09509">
        <ele>523</ele>
        <time>2014-06-06T10:07:50Z</time>
      </trkpt>
      <trkpt lat="43.70344" lon="3.09513">
        <ele>522.5999756</ele>
        <time>2014-06-06T10:07:51Z</time>
      </trkpt>
      <trkpt lat="43.70346" lon="3.09521">
        <ele>522.2000122</ele>
        <time>2014-06-06T10:07:52Z</time>
      </trkpt>
      <trkpt lat="43.70348" lon="3.09527">
        <ele>521.7999878</ele>
        <time>2014-06-06T10:07:53Z</time>
      </trkpt>
      <trkpt lat="43.70349" lon="3.09533">
        <ele>521.4000244</ele>
        <time>2014-06-06T10:07:54Z</time>
      </trkpt>
      <trkpt lat="43.7035" lon="3.09539">
        <ele>520.4000244</ele>
        <time>2014-06-06T10:07:55Z</time>
      </trkpt>
      <trkpt lat="43.70352" lon="3.09546">
        <ele>519.7999878</ele>
        <time>2014-06-06T10:07:56Z</time>
      </trkpt>
      <trkpt lat="43.70353" lon="3.09553">
        <ele>519.2000122</ele>
        <time>2014-06-06T10:07:57Z</time>
      </trkpt>
      <trkpt lat="43.70354" lon="3.0956">
        <ele>518.5999756</ele>
        <time>2014-06-06T10:07:58Z</time>
      </trkpt>
      <trkpt lat="43.70354" lon="3.09567">
        <ele>518</ele>
        <time>2014-06-06T10:07:59Z</time>
      </trkpt>
      <trkpt lat="43.70355" lon="3.09574">
        <ele>517.4000244</ele>
        <time>2014-06-06T10:08:00Z</time>
      </trkpt>
      <trkpt lat="43.70357" lon="3.0958">
        <ele>516.7999878</ele>
        <time>2014-06-06T10:08:01Z</time>
      </trkpt>
      <trkpt lat="43.70359" lon="3.09587">
        <ele>516</ele>
        <time>2014-06-06T10:08:02Z</time>
      </trkpt>
      <trkpt lat="43.70361" lon="3.09595">
        <ele>515.4000244</ele>
        <time>2014-06-06T10:08:03Z</time>
      </trkpt>
      <trkpt lat="43.70363" lon="3.09602">
        <ele>514.7999878</ele>
        <time>2014-06-06T10:08:04Z</time>
      </trkpt>
      <trkpt lat="43.70365" lon="3.09609">
        <ele>514.2000122</ele>
        <time>2014-06-06T10:08:05Z</time>
      </trkpt>
      <trkpt lat="43.70366" lon="3.09616">
        <ele>513.5999756</ele>
        <time>2014-06-06T10:08:06Z</time>
      </trkpt>
      <trkpt lat="43.70367" lon="3.09622">
        <ele>512.7999878</ele>
        <time>2014-06-06T10:08:07Z</time>
      </trkpt>
      <trkpt lat="43.70368" lon="3.09629">
        <ele>512.2000122</ele>
        <time>2014-06-06T10:08:08Z</time>
      </trkpt>
      <trkpt lat="43.70371" lon="3.09633">
        <ele>511.6000061</ele>
        <time>2014-06-06T10:08:09Z</time>
      </trkpt>
      <trkpt lat="43.70373" lon="3.09637">
        <ele>511</ele>
        <time>2014-06-06T10:08:10Z</time>
      </trkpt>
      <trkpt lat="43.70375" lon="3.09641">
        <ele>510.3999939</ele>
        <time>2014-06-06T10:08:11Z</time>
      </trkpt>
      <trkpt lat="43.70377" lon="3.09644">
        <ele>509.7999878</ele>
        <time>2014-06-06T10:08:12Z</time>
      </trkpt>
      <trkpt lat="43.70378" lon="3.09646">
        <ele>509.2000122</ele>
        <time>2014-06-06T10:08:13Z</time>
      </trkpt>
      <trkpt lat="43.70379" lon="3.09649">
        <ele>508.7999878</ele>
        <time>2014-06-06T10:08:14Z</time>
      </trkpt>
      <trkpt lat="43.7038" lon="3.09653">
        <ele>508.3999939</ele>
        <time>2014-06-06T10:08:15Z</time>
      </trkpt>
      <trkpt lat="43.70381" lon="3.09657">
        <ele>508</ele>
        <time>2014-06-06T10:08:16Z</time>
      </trkpt>
      <trkpt lat="43.70381" lon="3.09661">
        <ele>507.6000061</ele>
        <time>2014-06-06T10:08:17Z</time>
      </trkpt>
      <trkpt lat="43.7038" lon="3.09668">
        <ele>507.2000122</ele>
        <time>2014-06-06T10:08:18Z</time>
      </trkpt>
      <trkpt lat="43.70377" lon="3.0968">
        <ele>506.2000122</ele>
        <time>2014-06-06T10:08:20Z</time>
      </trkpt>
      <trkpt lat="43.70375" lon="3.09685">
        <ele>505.7999878</ele>
        <time>2014-06-06T10:08:21Z</time>
      </trkpt>
      <trkpt lat="43.70372" lon="3.09691">
        <ele>505.3999939</ele>
        <time>2014-06-06T10:08:22Z</time>
      </trkpt>
      <trkpt lat="43.70367" lon="3.09696">
        <ele>504.7999878</ele>
        <time>2014-06-06T10:08:23Z</time>
      </trkpt>
      <trkpt lat="43.70362" lon="3.09699">
        <ele>504.3999939</ele>
        <time>2014-06-06T10:08:24Z</time>
      </trkpt>
      <trkpt lat="43.70359" lon="3.09702">
        <ele>504</ele>
        <time>2014-06-06T10:08:25Z</time>
      </trkpt>
      <trkpt lat="43.70356" lon="3.09704">
        <ele>503.6000061</ele>
        <time>2014-06-06T10:08:26Z</time>
      </trkpt>
      <trkpt lat="43.70353" lon="3.09706">
        <ele>503.2000122</ele>
        <time>2014-06-06T10:08:27Z</time>
      </trkpt>
      <trkpt lat="43.7035" lon="3.09706">
        <ele>502.7999878</ele>
        <time>2014-06-06T10:08:28Z</time>
      </trkpt>
      <trkpt lat="43.70348" lon="3.09707">
        <ele>502.7999878</ele>
        <time>2014-06-06T10:08:29Z</time>
      </trkpt>
      <trkpt lat="43.70346" lon="3.09708">
        <ele>502.3999939</ele>
        <time>2014-06-06T10:08:30Z</time>
      </trkpt>
      <trkpt lat="43.70345" lon="3.09709">
        <ele>502</ele>
        <time>2014-06-06T10:08:31Z</time>
      </trkpt>
      <trkpt lat="43.70344" lon="3.0971">
        <ele>501.6000061</ele>
        <time>2014-06-06T10:08:32Z</time>
      </trkpt>
      <trkpt lat="43.70344" lon="3.09712">
        <ele>501.2000122</ele>
        <time>2014-06-06T10:08:33Z</time>
      </trkpt>
      <trkpt lat="43.70343" lon="3.09714">
        <ele>500.7999878</ele>
        <time>2014-06-06T10:08:34Z</time>
      </trkpt>
      <trkpt lat="43.70344" lon="3.09715">
        <ele>500.7999878</ele>
        <time>2014-06-06T10:08:35Z</time>
      </trkpt>
      <trkpt lat="43.70347" lon="3.09725">
        <ele>500.7999878</ele>
        <time>2014-06-06T10:08:38Z</time>
      </trkpt>
      <trkpt lat="43.7035" lon="3.09733">
        <ele>500.7999878</ele>
        <time>2014-06-06T10:08:40Z</time>
      </trkpt>
      <trkpt lat="43.70353" lon="3.09741">
        <ele>500.7999878</ele>
        <time>2014-06-06T10:08:42Z</time>
      </trkpt>
      <trkpt lat="43.70354" lon="3.09745">
        <ele>500.3999939</ele>
        <time>2014-06-06T10:08:43Z</time>
      </trkpt>
      <trkpt lat="43.70356" lon="3.09749">
        <ele>499.6000061</ele>
        <time>2014-06-06T10:08:44Z</time>
      </trkpt>
      <trkpt lat="43.70357" lon="3.09752">
        <ele>499.2000122</ele>
        <time>2014-06-06T10:08:45Z</time>
      </trkpt>
      <trkpt lat="43.70357" lon="3.09755">
        <ele>498.6000061</ele>
        <time>2014-06-06T10:08:46Z</time>
      </trkpt>
      <trkpt lat="43.70359" lon="3.09761">
        <ele>498.2000122</ele>
        <time>2014-06-06T10:08:48Z</time>
      </trkpt>
      <trkpt lat="43.70359" lon="3.09765">
        <ele>497.7999878</ele>
        <time>2014-06-06T10:08:49Z</time>
      </trkpt>
      <trkpt lat="43.7036" lon="3.09769">
        <ele>497.3999939</ele>
        <time>2014-06-06T10:08:50Z</time>
      </trkpt>
      <trkpt lat="43.7036" lon="3.09774">
        <ele>497</ele>
        <time>2014-06-06T10:08:51Z</time>
      </trkpt>
      <trkpt lat="43.7036" lon="3.09779">
        <ele>496.6000061</ele>
        <time>2014-06-06T10:08:52Z</time>
      </trkpt>
      <trkpt lat="43.7036" lon="3.09785">
        <ele>496.6000061</ele>
        <time>2014-06-06T10:08:53Z</time>
      </trkpt>
      <trkpt lat="43.7036" lon="3.09791">
        <ele>496.2000122</ele>
        <time>2014-06-06T10:08:54Z</time>
      </trkpt>
      <trkpt lat="43.70362" lon="3.09797">
        <ele>495.7999878</ele>
        <time>2014-06-06T10:08:55Z</time>
      </trkpt>
      <trkpt lat="43.70363" lon="3.09803">
        <ele>495.2000122</ele>
        <time>2014-06-06T10:08:56Z</time>
      </trkpt>
      <trkpt lat="43.70363" lon="3.09808">
        <ele>494.7999878</ele>
        <time>2014-06-06T10:08:57Z</time>
      </trkpt>
      <trkpt lat="43.70364" lon="3.09813">
        <ele>494.2000122</ele>
        <time>2014-06-06T10:08:58Z</time>
      </trkpt>
      <trkpt lat="43.70365" lon="3.09818">
        <ele>493.7999878</ele>
        <time>2014-06-06T10:08:59Z</time>
      </trkpt>
      <trkpt lat="43.70367" lon="3.09825">
        <ele>493.2000122</ele>
        <time>2014-06-06T10:09:00Z</time>
      </trkpt>
      <trkpt lat="43.70369" lon="3.09832">
        <ele>492.7999878</ele>
        <time>2014-06-06T10:09:01Z</time>
      </trkpt>
      <trkpt lat="43.70372" lon="3.09839">
        <ele>492.3999939</ele>
        <time>2014-06-06T10:09:02Z</time>
      </trkpt>
      <trkpt lat="43.70374" lon="3.09847">
        <ele>491.7999878</ele>
        <time>2014-06-06T10:09:03Z</time>
      </trkpt>
      <trkpt lat="43.70376" lon="3.09854">
        <ele>491.3999939</ele>
        <time>2014-06-06T10:09:04Z</time>
      </trkpt>
      <trkpt lat="43.70377" lon="3.09862">
        <ele>490.7999878</ele>
        <time>2014-06-06T10:09:05Z</time>
      </trkpt>
      <trkpt lat="43.70378" lon="3.09869">
        <ele>490.3999939</ele>
        <time>2014-06-06T10:09:06Z</time>
      </trkpt>
      <trkpt lat="43.70378" lon="3.09874">
        <ele>489.7999878</ele>
        <time>2014-06-06T10:09:07Z</time>
      </trkpt>
      <trkpt lat="43.70376" lon="3.09878">
        <ele>489.2000122</ele>
        <time>2014-06-06T10:09:08Z</time>
      </trkpt>
      <trkpt lat="43.70373" lon="3.09884">
        <ele>488.7999878</ele>
        <time>2014-06-06T10:09:09Z</time>
      </trkpt>
      <trkpt lat="43.70368" lon="3.09889">
        <ele>487.6000061</ele>
        <time>2014-06-06T10:09:10Z</time>
      </trkpt>
      <trkpt lat="43.70365" lon="3.09892">
        <ele>487.2000122</ele>
        <time>2014-06-06T10:09:11Z</time>
      </trkpt>
      <trkpt lat="43.70358" lon="3.099">
        <ele>486.6000061</ele>
        <time>2014-06-06T10:09:13Z</time>
      </trkpt>
      <trkpt lat="43.70353" lon="3.09904">
        <ele>486.2000122</ele>
        <time>2014-06-06T10:09:14Z</time>
      </trkpt>
      <trkpt lat="43.70349" lon="3.09908">
        <ele>485.7999878</ele>
        <time>2014-06-06T10:09:15Z</time>
      </trkpt>
      <trkpt lat="43.70345" lon="3.09912">
        <ele>485.2000122</ele>
        <time>2014-06-06T10:09:16Z</time>
      </trkpt>
      <trkpt lat="43.7034" lon="3.09916">
        <ele>484.7999878</ele>
        <time>2014-06-06T10:09:17Z</time>
      </trkpt>
      <trkpt lat="43.70335" lon="3.0992">
        <ele>484.2000122</ele>
        <time>2014-06-06T10:09:18Z</time>
      </trkpt>
      <trkpt lat="43.70329" lon="3.09924">
        <ele>483.7999878</ele>
        <time>2014-06-06T10:09:19Z</time>
      </trkpt>
      <trkpt lat="43.70323" lon="3.09929">
        <ele>483.2000122</ele>
        <time>2014-06-06T10:09:20Z</time>
      </trkpt>
      <trkpt lat="43.70318" lon="3.09933">
        <ele>482.6000061</ele>
        <time>2014-06-06T10:09:21Z</time>
      </trkpt>
      <trkpt lat="43.70313" lon="3.09939">
        <ele>482</ele>
        <time>2014-06-06T10:09:22Z</time>
      </trkpt>
      <trkpt lat="43.70307" lon="3.09946">
        <ele>481.2000122</ele>
        <time>2014-06-06T10:09:23Z</time>
      </trkpt>
      <trkpt lat="43.70303" lon="3.09952">
        <ele>480.6000061</ele>
        <time>2014-06-06T10:09:24Z</time>
      </trkpt>
      <trkpt lat="43.70299" lon="3.09957">
        <ele>479.7999878</ele>
        <time>2014-06-06T10:09:25Z</time>
      </trkpt>
      <trkpt lat="43.70296" lon="3.09964">
        <ele>479</ele>
        <time>2014-06-06T10:09:26Z</time>
      </trkpt>
      <trkpt lat="43.70292" lon="3.09971">
        <ele>478.3999939</ele>
        <time>2014-06-06T10:09:27Z</time>
      </trkpt>
      <trkpt lat="43.70288" lon="3.09981">
        <ele>477.6000061</ele>
        <time>2014-06-06T10:09:28Z</time>
      </trkpt>
      <trkpt lat="43.70282" lon="3.0999">
        <ele>477</ele>
        <time>2014-06-06T10:09:29Z</time>
      </trkpt>
      <trkpt lat="43.70276" lon="3.09999">
        <ele>476.2000122</ele>
        <time>2014-06-06T10:09:30Z</time>
      </trkpt>
      <trkpt lat="43.7027" lon="3.10007">
        <ele>475.6000061</ele>
        <time>2014-06-06T10:09:31Z</time>
      </trkpt>
      <trkpt lat="43.70265" lon="3.10013">
        <ele>475</ele>
        <time>2014-06-06T10:09:32Z</time>
      </trkpt>
      <trkpt lat="43.70262" lon="3.10018">
        <ele>474.3999939</ele>
        <time>2014-06-06T10:09:33Z</time>
      </trkpt>
      <trkpt lat="43.70258" lon="3.10024">
        <ele>473.3999939</ele>
        <time>2014-06-06T10:09:34Z</time>
      </trkpt>
      <trkpt lat="43.70256" lon="3.10028">
        <ele>472.7999878</ele>
        <time>2014-06-06T10:09:35Z</time>
      </trkpt>
      <trkpt lat="43.70254" lon="3.10032">
        <ele>472.3999939</ele>
        <time>2014-06-06T10:09:36Z</time>
      </trkpt>
      <trkpt lat="43.70253" lon="3.10035">
        <ele>471.7999878</ele>
        <time>2014-06-06T10:09:37Z</time>
      </trkpt>
      <trkpt lat="43.70252" lon="3.10038">
        <ele>471.2000122</ele>
        <time>2014-06-06T10:09:38Z</time>
      </trkpt>
      <trkpt lat="43.70255" lon="3.1004">
        <ele>470.6000061</ele>
        <time>2014-06-06T10:10:04Z</time>
      </trkpt>
      <trkpt lat="43.7026" lon="3.1004">
        <ele>470.2000122</ele>
        <time>2014-06-06T10:10:07Z</time>
      </trkpt>
      <trkpt lat="43.70262" lon="3.10039">
        <ele>469.7999878</ele>
        <time>2014-06-06T10:10:08Z</time>
      </trkpt>
      <trkpt lat="43.70265" lon="3.1004">
        <ele>469.3999939</ele>
        <time>2014-06-06T10:10:09Z</time>
      </trkpt>
      <trkpt lat="43.70267" lon="3.1004">
        <ele>469</ele>
        <time>2014-06-06T10:10:10Z</time>
      </trkpt>
      <trkpt lat="43.7027" lon="3.10039">
        <ele>468.6000061</ele>
        <time>2014-06-06T10:10:11Z</time>
      </trkpt>
      <trkpt lat="43.70274" lon="3.10036">
        <ele>468.6000061</ele>
        <time>2014-06-06T10:10:13Z</time>
      </trkpt>
      <trkpt lat="43.70279" lon="3.10033">
        <ele>468.6000061</ele>
        <time>2014-06-06T10:10:15Z</time>
      </trkpt>
      <trkpt lat="43.70284" lon="3.10028">
        <ele>468.2000122</ele>
        <time>2014-06-06T10:10:17Z</time>
      </trkpt>
      <trkpt lat="43.70286" lon="3.10027">
        <ele>467.7999878</ele>
        <time>2014-06-06T10:10:18Z</time>
      </trkpt>
      <trkpt lat="43.70288" lon="3.10025">
        <ele>467.2000122</ele>
        <time>2014-06-06T10:10:19Z</time>
      </trkpt>
      <trkpt lat="43.70292" lon="3.10023">
        <ele>466.7999878</ele>
        <time>2014-06-06T10:10:20Z</time>
      </trkpt>
      <trkpt lat="43.70295" lon="3.10021">
        <ele>466.3999939</ele>
        <time>2014-06-06T10:10:21Z</time>
      </trkpt>
      <trkpt lat="43.70299" lon="3.10019">
        <ele>466</ele>
        <time>2014-06-06T10:10:22Z</time>
      </trkpt>
      <trkpt lat="43.70302" lon="3.10016">
        <ele>465.6000061</ele>
        <time>2014-06-06T10:10:23Z</time>
      </trkpt>
      <trkpt lat="43.70306" lon="3.10013">
        <ele>464.6000061</ele>
        <time>2014-06-06T10:10:24Z</time>
      </trkpt>
      <trkpt lat="43.70311" lon="3.10011">
        <ele>464.2000122</ele>
        <time>2014-06-06T10:10:25Z</time>
      </trkpt>
      <trkpt lat="43.70315" lon="3.10008">
        <ele>463.7999878</ele>
        <time>2014-06-06T10:10:26Z</time>
      </trkpt>
      <trkpt lat="43.7032" lon="3.10005">
        <ele>463.3999939</ele>
        <time>2014-06-06T10:10:27Z</time>
      </trkpt>
      <trkpt lat="43.70324" lon="3.10003">
        <ele>463</ele>
        <time>2014-06-06T10:10:28Z</time>
      </trkpt>
      <trkpt lat="43.70329" lon="3.09999">
        <ele>462.3999939</ele>
        <time>2014-06-06T10:10:29Z</time>
      </trkpt>
      <trkpt lat="43.70334" lon="3.09996">
        <ele>462</ele>
        <time>2014-06-06T10:10:30Z</time>
      </trkpt>
      <trkpt lat="43.7034" lon="3.09993">
        <ele>461.6000061</ele>
        <time>2014-06-06T10:10:31Z</time>
      </trkpt>
      <trkpt lat="43.70345" lon="3.0999">
        <ele>461.2000122</ele>
        <time>2014-06-06T10:10:32Z</time>
      </trkpt>
      <trkpt lat="43.70351" lon="3.09986">
        <ele>460.6000061</ele>
        <time>2014-06-06T10:10:33Z</time>
      </trkpt>
      <trkpt lat="43.70356" lon="3.09983">
        <ele>460.2000122</ele>
        <time>2014-06-06T10:10:34Z</time>
      </trkpt>
      <trkpt lat="43.70361" lon="3.0998">
        <ele>459.7999878</ele>
        <time>2014-06-06T10:10:35Z</time>
      </trkpt>
      <trkpt lat="43.70367" lon="3.09975">
        <ele>459.7999878</ele>
        <time>2014-06-06T10:10:36Z</time>
      </trkpt>
      <trkpt lat="43.70371" lon="3.09969">
        <ele>459.3999939</ele>
        <time>2014-06-06T10:10:37Z</time>
      </trkpt>
      <trkpt lat="43.70374" lon="3.09963">
        <ele>459</ele>
        <time>2014-06-06T10:10:38Z</time>
      </trkpt>
      <trkpt lat="43.70379" lon="3.09956">
        <ele>458.6000061</ele>
        <time>2014-06-06T10:10:39Z</time>
      </trkpt>
      <trkpt lat="43.70384" lon="3.0995">
        <ele>458.2000122</ele>
        <time>2014-06-06T10:10:40Z</time>
      </trkpt>
      <trkpt lat="43.70388" lon="3.09944">
        <ele>457.7999878</ele>
        <time>2014-06-06T10:10:41Z</time>
      </trkpt>
      <trkpt lat="43.704" lon="3.09926">
        <ele>457.7999878</ele>
        <time>2014-06-06T10:10:45Z</time>
      </trkpt>
      <trkpt lat="43.70404" lon="3.09923">
        <ele>457.7999878</ele>
        <time>2014-06-06T10:10:47Z</time>
      </trkpt>
      <trkpt lat="43.70407" lon="3.09924">
        <ele>457.3999939</ele>
        <time>2014-06-06T10:10:48Z</time>
      </trkpt>
      <trkpt lat="43.70408" lon="3.09924">
        <ele>456.3999939</ele>
        <time>2014-06-06T10:10:49Z</time>
      </trkpt>
      <trkpt lat="43.7041" lon="3.09926">
        <ele>455.6000061</ele>
        <time>2014-06-06T10:10:51Z</time>
      </trkpt>
      <trkpt lat="43.70407" lon="3.09933">
        <ele>455.2000122</ele>
        <time>2014-06-06T10:10:53Z</time>
      </trkpt>
      <trkpt lat="43.70405" lon="3.09937">
        <ele>454.7999878</ele>
        <time>2014-06-06T10:10:54Z</time>
      </trkpt>
      <trkpt lat="43.70403" lon="3.0994">
        <ele>454.3999939</ele>
        <time>2014-06-06T10:10:55Z</time>
      </trkpt>
      <trkpt lat="43.70401" lon="3.09945">
        <ele>454</ele>
        <time>2014-06-06T10:10:56Z</time>
      </trkpt>
      <trkpt lat="43.70398" lon="3.09949">
        <ele>453.6000061</ele>
        <time>2014-06-06T10:10:57Z</time>
      </trkpt>
      <trkpt lat="43.70377" lon="3.09977">
        <ele>453.2000122</ele>
        <time>2014-06-06T10:11:03Z</time>
      </trkpt>
      <trkpt lat="43.70372" lon="3.09983">
        <ele>452.7999878</ele>
        <time>2014-06-06T10:11:04Z</time>
      </trkpt>
      <trkpt lat="43.70368" lon="3.09989">
        <ele>452.2000122</ele>
        <time>2014-06-06T10:11:05Z</time>
      </trkpt>
      <trkpt lat="43.70362" lon="3.09994">
        <ele>451.7999878</ele>
        <time>2014-06-06T10:11:06Z</time>
      </trkpt>
      <trkpt lat="43.70358" lon="3.1">
        <ele>451.3999939</ele>
        <time>2014-06-06T10:11:07Z</time>
      </trkpt>
      <trkpt lat="43.70347" lon="3.10012">
        <ele>451.3999939</ele>
        <time>2014-06-06T10:11:09Z</time>
      </trkpt>
      <trkpt lat="43.70341" lon="3.10018">
        <ele>451</ele>
        <time>2014-06-06T10:11:10Z</time>
      </trkpt>
      <trkpt lat="43.70336" lon="3.10024">
        <ele>450.6000061</ele>
        <time>2014-06-06T10:11:11Z</time>
      </trkpt>
      <trkpt lat="43.70331" lon="3.10029">
        <ele>450.2000122</ele>
        <time>2014-06-06T10:11:12Z</time>
      </trkpt>
      <trkpt lat="43.70326" lon="3.10033">
        <ele>449.3999939</ele>
        <time>2014-06-06T10:11:13Z</time>
      </trkpt>
      <trkpt lat="43.70322" lon="3.10036">
        <ele>449.3999939</ele>
        <time>2014-06-06T10:11:14Z</time>
      </trkpt>
      <trkpt lat="43.70311" lon="3.10044">
        <ele>449</ele>
        <time>2014-06-06T10:11:17Z</time>
      </trkpt>
      <trkpt lat="43.70308" lon="3.10047">
        <ele>448.6000061</ele>
        <time>2014-06-06T10:11:18Z</time>
      </trkpt>
      <trkpt lat="43.70304" lon="3.10051">
        <ele>448.2000122</ele>
        <time>2014-06-06T10:11:19Z</time>
      </trkpt>
      <trkpt lat="43.70301" lon="3.10055">
        <ele>447.6000061</ele>
        <time>2014-06-06T10:11:20Z</time>
      </trkpt>
      <trkpt lat="43.70297" lon="3.10059">
        <ele>447.2000122</ele>
        <time>2014-06-06T10:11:21Z</time>
      </trkpt>
      <trkpt lat="43.70291" lon="3.10068">
        <ele>447.2000122</ele>
        <time>2014-06-06T10:11:23Z</time>
      </trkpt>
      <trkpt lat="43.70287" lon="3.10073">
        <ele>447.2000122</ele>
        <time>2014-06-06T10:11:24Z</time>
      </trkpt>
      <trkpt lat="43.70268" lon="3.1009">
        <ele>446.7999878</ele>
        <time>2014-06-06T10:11:28Z</time>
      </trkpt>
      <trkpt lat="43.70264" lon="3.10093">
        <ele>446.3999939</ele>
        <time>2014-06-06T10:11:29Z</time>
      </trkpt>
      <trkpt lat="43.7026" lon="3.10097">
        <ele>446</ele>
        <time>2014-06-06T10:11:30Z</time>
      </trkpt>
      <trkpt lat="43.70257" lon="3.101">
        <ele>445.3999939</ele>
        <time>2014-06-06T10:11:31Z</time>
      </trkpt>
      <trkpt lat="43.70252" lon="3.10103">
        <ele>445</ele>
        <time>2014-06-06T10:11:32Z</time>
      </trkpt>
      <trkpt lat="43.70234" lon="3.10118">
        <ele>445</ele>
        <time>2014-06-06T10:11:36Z</time>
      </trkpt>
      <trkpt lat="43.7023" lon="3.10122">
        <ele>445</ele>
        <time>2014-06-06T10:11:37Z</time>
      </trkpt>
      <trkpt lat="43.70227" lon="3.10125">
        <ele>444.6000061</ele>
        <time>2014-06-06T10:11:38Z</time>
      </trkpt>
      <trkpt lat="43.70223" lon="3.10128">
        <ele>444.2000122</ele>
        <time>2014-06-06T10:11:39Z</time>
      </trkpt>
      <trkpt lat="43.7022" lon="3.1013">
        <ele>443.6000061</ele>
        <time>2014-06-06T10:11:40Z</time>
      </trkpt>
      <trkpt lat="43.7022" lon="3.10135">
        <ele>443.2000122</ele>
        <time>2014-06-06T10:11:41Z</time>
      </trkpt>
      <trkpt lat="43.70218" lon="3.10138">
        <ele>442.7999878</ele>
        <time>2014-06-06T10:11:42Z</time>
      </trkpt>
      <trkpt lat="43.70213" lon="3.10143">
        <ele>442.7999878</ele>
        <time>2014-06-06T10:11:44Z</time>
      </trkpt>
      <trkpt lat="43.70209" lon="3.10146">
        <ele>442.7999878</ele>
        <time>2014-06-06T10:11:45Z</time>
      </trkpt>
      <trkpt lat="43.70205" lon="3.10149">
        <ele>442.7999878</ele>
        <time>2014-06-06T10:11:46Z</time>
      </trkpt>
      <trkpt lat="43.70192" lon="3.10158">
        <ele>442.7999878</ele>
        <time>2014-06-06T10:11:49Z</time>
      </trkpt>
      <trkpt lat="43.70183" lon="3.10164">
        <ele>442.3999939</ele>
        <time>2014-06-06T10:11:51Z</time>
      </trkpt>
      <trkpt lat="43.70179" lon="3.10168">
        <ele>442</ele>
        <time>2014-06-06T10:11:52Z</time>
      </trkpt>
      <trkpt lat="43.70174" lon="3.10172">
        <ele>441.6000061</ele>
        <time>2014-06-06T10:11:53Z</time>
      </trkpt>
      <trkpt lat="43.7017" lon="3.10176">
        <ele>441.2000122</ele>
        <time>2014-06-06T10:11:54Z</time>
      </trkpt>
      <trkpt lat="43.70167" lon="3.10181">
        <ele>440.7999878</ele>
        <time>2014-06-06T10:11:55Z</time>
      </trkpt>
      <trkpt lat="43.70152" lon="3.10198">
        <ele>440.7999878</ele>
        <time>2014-06-06T10:12:00Z</time>
      </trkpt>
      <trkpt lat="43.70148" lon="3.10199">
        <ele>440.2000122</ele>
        <time>2014-06-06T10:12:01Z</time>
      </trkpt>
      <trkpt lat="43.70143" lon="3.102">
        <ele>439.3999939</ele>
        <time>2014-06-06T10:12:02Z</time>
      </trkpt>
      <trkpt lat="43.70139" lon="3.10202">
        <ele>438.7999878</ele>
        <time>2014-06-06T10:12:03Z</time>
      </trkpt>
      <trkpt lat="43.70135" lon="3.10204">
        <ele>438.3999939</ele>
        <time>2014-06-06T10:12:04Z</time>
      </trkpt>
      <trkpt lat="43.70122" lon="3.1021">
        <ele>438.3999939</ele>
        <time>2014-06-06T10:12:07Z</time>
      </trkpt>
      <trkpt lat="43.70118" lon="3.10213">
        <ele>438</ele>
        <time>2014-06-06T10:12:08Z</time>
      </trkpt>
      <trkpt lat="43.70115" lon="3.10216">
        <ele>437.6000061</ele>
        <time>2014-06-06T10:12:09Z</time>
      </trkpt>
      <trkpt lat="43.70111" lon="3.1022">
        <ele>437.2000122</ele>
        <time>2014-06-06T10:12:10Z</time>
      </trkpt>
      <trkpt lat="43.70107" lon="3.10226">
        <ele>436.6000061</ele>
        <time>2014-06-06T10:12:11Z</time>
      </trkpt>
      <trkpt lat="43.70102" lon="3.10231">
        <ele>436.2000122</ele>
        <time>2014-06-06T10:12:12Z</time>
      </trkpt>
      <trkpt lat="43.70085" lon="3.10243">
        <ele>436.2000122</ele>
        <time>2014-06-06T10:12:15Z</time>
      </trkpt>
      <trkpt lat="43.70079" lon="3.10247">
        <ele>435.7999878</ele>
        <time>2014-06-06T10:12:16Z</time>
      </trkpt>
      <trkpt lat="43.70073" lon="3.1025">
        <ele>435.2000122</ele>
        <time>2014-06-06T10:12:17Z</time>
      </trkpt>
      <trkpt lat="43.70068" lon="3.10255">
        <ele>434.7999878</ele>
        <time>2014-06-06T10:12:18Z</time>
      </trkpt>
      <trkpt lat="43.70062" lon="3.1026">
        <ele>434.3999939</ele>
        <time>2014-06-06T10:12:19Z</time>
      </trkpt>
      <trkpt lat="43.70056" lon="3.10265">
        <ele>433.7999878</ele>
        <time>2014-06-06T10:12:20Z</time>
      </trkpt>
      <trkpt lat="43.7005" lon="3.10269">
        <ele>433.7999878</ele>
        <time>2014-06-06T10:12:21Z</time>
      </trkpt>
      <trkpt lat="43.70041" lon="3.10274">
        <ele>433.3999939</ele>
        <time>2014-06-06T10:12:23Z</time>
      </trkpt>
      <trkpt lat="43.70036" lon="3.10277">
        <ele>433</ele>
        <time>2014-06-06T10:12:24Z</time>
      </trkpt>
      <trkpt lat="43.70031" lon="3.1028">
        <ele>432.6000061</ele>
        <time>2014-06-06T10:12:25Z</time>
      </trkpt>
      <trkpt lat="43.70026" lon="3.10283">
        <ele>432.2000122</ele>
        <time>2014-06-06T10:12:26Z</time>
      </trkpt>
      <trkpt lat="43.70021" lon="3.10287">
        <ele>431.7999878</ele>
        <time>2014-06-06T10:12:27Z</time>
      </trkpt>
      <trkpt lat="43.70012" lon="3.10297">
        <ele>431.3999939</ele>
        <time>2014-06-06T10:12:29Z</time>
      </trkpt>
      <trkpt lat="43.70008" lon="3.10303">
        <ele>431</ele>
        <time>2014-06-06T10:12:30Z</time>
      </trkpt>
      <trkpt lat="43.70005" lon="3.10309">
        <ele>430.6000061</ele>
        <time>2014-06-06T10:12:31Z</time>
      </trkpt>
      <trkpt lat="43.7" lon="3.10313">
        <ele>430</ele>
        <time>2014-06-06T10:12:32Z</time>
      </trkpt>
      <trkpt lat="43.69995" lon="3.10319">
        <ele>429.6000061</ele>
        <time>2014-06-06T10:12:33Z</time>
      </trkpt>
      <trkpt lat="43.6998" lon="3.10334">
        <ele>429.6000061</ele>
        <time>2014-06-06T10:12:36Z</time>
      </trkpt>
      <trkpt lat="43.69973" lon="3.10344">
        <ele>429.2000122</ele>
        <time>2014-06-06T10:12:38Z</time>
      </trkpt>
      <trkpt lat="43.69969" lon="3.10347">
        <ele>428.7999878</ele>
        <time>2014-06-06T10:12:39Z</time>
      </trkpt>
      <trkpt lat="43.69968" lon="3.1035">
        <ele>428.2000122</ele>
        <time>2014-06-06T10:12:40Z</time>
      </trkpt>
      <trkpt lat="43.69966" lon="3.10352">
        <ele>427.7999878</ele>
        <time>2014-06-06T10:12:41Z</time>
      </trkpt>
      <trkpt lat="43.69964" lon="3.10353">
        <ele>427.3999939</ele>
        <time>2014-06-06T10:12:42Z</time>
      </trkpt>
      <trkpt lat="43.69959" lon="3.10362">
        <ele>427.3999939</ele>
        <time>2014-06-06T10:12:46Z</time>
      </trkpt>
      <trkpt lat="43.69951" lon="3.10373">
        <ele>427.3999939</ele>
        <time>2014-06-06T10:12:50Z</time>
      </trkpt>
      <trkpt lat="43.69948" lon="3.10377">
        <ele>427</ele>
        <time>2014-06-06T10:12:52Z</time>
      </trkpt>
      <trkpt lat="43.69945" lon="3.1038">
        <ele>426.6000061</ele>
        <time>2014-06-06T10:12:53Z</time>
      </trkpt>
      <trkpt lat="43.69943" lon="3.10383">
        <ele>426.2000122</ele>
        <time>2014-06-06T10:12:54Z</time>
      </trkpt>
      <trkpt lat="43.69941" lon="3.10384">
        <ele>425.7999878</ele>
        <time>2014-06-06T10:12:55Z</time>
      </trkpt>
      <trkpt lat="43.6994" lon="3.10386">
        <ele>425.3999939</ele>
        <time>2014-06-06T10:12:56Z</time>
      </trkpt>
      <trkpt lat="43.69937" lon="3.10389">
        <ele>425.3999939</ele>
        <time>2014-06-06T10:12:57Z</time>
      </trkpt>
      <trkpt lat="43.69933" lon="3.10393">
        <ele>425.3999939</ele>
        <time>2014-06-06T10:12:58Z</time>
      </trkpt>
      <trkpt lat="43.69919" lon="3.10405">
        <ele>425.3999939</ele>
        <time>2014-06-06T10:13:01Z</time>
      </trkpt>
      <trkpt lat="43.69901" lon="3.10418">
        <ele>425</ele>
        <time>2014-06-06T10:13:05Z</time>
      </trkpt>
      <trkpt lat="43.69895" lon="3.10421">
        <ele>424.6000061</ele>
        <time>2014-06-06T10:13:06Z</time>
      </trkpt>
      <trkpt lat="43.69889" lon="3.10424">
        <ele>424.2000122</ele>
        <time>2014-06-06T10:13:07Z</time>
      </trkpt>
      <trkpt lat="43.69884" lon="3.10426">
        <ele>423.7999878</ele>
        <time>2014-06-06T10:13:08Z</time>
      </trkpt>
      <trkpt lat="43.69879" lon="3.10427">
        <ele>423.2000122</ele>
        <time>2014-06-06T10:13:09Z</time>
      </trkpt>
      <trkpt lat="43.69865" lon="3.10433">
        <ele>423.2000122</ele>
        <time>2014-06-06T10:13:12Z</time>
      </trkpt>
      <trkpt lat="43.69843" lon="3.10448">
        <ele>423.2000122</ele>
        <time>2014-06-06T10:13:18Z</time>
      </trkpt>
      <trkpt lat="43.69838" lon="3.10453">
        <ele>423.2000122</ele>
        <time>2014-06-06T10:13:22Z</time>
      </trkpt>
      <trkpt lat="43.69843" lon="3.10459">
        <ele>423.2000122</ele>
        <time>2014-06-06T10:13:26Z</time>
      </trkpt>
      <trkpt lat="43.69843" lon="3.10461">
        <ele>423.2000122</ele>
        <time>2014-06-06T10:13:28Z</time>
      </trkpt>
      <trkpt lat="43.69842" lon="3.10462">
        <ele>423.2000122</ele>
        <time>2014-06-06T10:13:32Z</time>
      </trkpt>
      <trkpt lat="43.69842" lon="3.10462">
        <ele>423.2000122</ele>
        <time>2014-06-06T10:13:34Z</time>
      </trkpt>
      <trkpt lat="43.69832" lon="3.10467">
        <ele>423.2000122</ele>
        <time>2014-06-06T10:13:53Z</time>
      </trkpt>
      <trkpt lat="43.69831" lon="3.10469">
        <ele>423.2000122</ele>
        <time>2014-06-06T10:13:54Z</time>
      </trkpt>
      <trkpt lat="43.69828" lon="3.10473">
        <ele>423.2000122</ele>
        <time>2014-06-06T10:13:55Z</time>
      </trkpt>
      <trkpt lat="43.69817" lon="3.1049">
        <ele>423.2000122</ele>
        <time>2014-06-06T10:13:58Z</time>
      </trkpt>
      <trkpt lat="43.6981" lon="3.10498">
        <ele>422.7999878</ele>
        <time>2014-06-06T10:14:00Z</time>
      </trkpt>
      <trkpt lat="43.69808" lon="3.105">
        <ele>422.2000122</ele>
        <time>2014-06-06T10:14:01Z</time>
      </trkpt>
      <trkpt lat="43.69807" lon="3.10501">
        <ele>421.7999878</ele>
        <time>2014-06-06T10:14:02Z</time>
      </trkpt>
      <trkpt lat="43.69804" lon="3.10502">
        <ele>421.3999939</ele>
        <time>2014-06-06T10:14:03Z</time>
      </trkpt>
      <trkpt lat="43.69802" lon="3.10503">
        <ele>420.7999878</ele>
        <time>2014-06-06T10:14:04Z</time>
      </trkpt>
      <trkpt lat="43.69797" lon="3.10504">
        <ele>420.7999878</ele>
        <time>2014-06-06T10:14:07Z</time>
      </trkpt>
      <trkpt lat="43.69795" lon="3.10503">
        <ele>420.3999939</ele>
        <time>2014-06-06T10:14:08Z</time>
      </trkpt>
      <trkpt lat="43.69794" lon="3.10503">
        <ele>420</ele>
        <time>2014-06-06T10:14:09Z</time>
      </trkpt>
      <trkpt lat="43.69777" lon="3.10531">
        <ele>418.6000061</ele>
        <time>2014-06-06T10:15:05Z</time>
      </trkpt>
      <trkpt lat="43.69775" lon="3.10532">
        <ele>418.6000061</ele>
        <time>2014-06-06T10:15:06Z</time>
      </trkpt>
      <trkpt lat="43.69774" lon="3.10533">
        <ele>418.6000061</ele>
        <time>2014-06-06T10:15:07Z</time>
      </trkpt>
      <trkpt lat="43.6977" lon="3.10534">
        <ele>418.6000061</ele>
        <time>2014-06-06T10:15:10Z</time>
      </trkpt>
      <trkpt lat="43.69744" lon="3.10562">
        <ele>416.6000061</ele>
        <time>2014-06-06T10:16:04Z</time>
      </trkpt>
      <trkpt lat="43.69743" lon="3.10562">
        <ele>416.6000061</ele>
        <time>2014-06-06T10:16:05Z</time>
      </trkpt>
      <trkpt lat="43.69743" lon="3.10562">
        <ele>416.6000061</ele>
        <time>2014-06-06T10:16:08Z</time>
      </trkpt>
      <trkpt lat="43.69739" lon="3.10567">
        <ele>416.6000061</ele>
        <time>2014-06-06T10:16:14Z</time>
      </trkpt>
      <trkpt lat="43.69738" lon="3.10569">
        <ele>416.6000061</ele>
        <time>2014-06-06T10:16:17Z</time>
      </trkpt>
      <trkpt lat="43.69738" lon="3.10569">
        <ele>416.6000061</ele>
        <time>2014-06-06T10:16:18Z</time>
      </trkpt>
      <trkpt lat="43.69732" lon="3.10578">
        <ele>416.6000061</ele>
        <time>2014-06-06T10:16:31Z</time>
      </trkpt>
      <trkpt lat="43.69727" lon="3.10582">
        <ele>416.6000061</ele>
        <time>2014-06-06T10:16:34Z</time>
      </trkpt>
      <trkpt lat="43.69706" lon="3.10589">
        <ele>416.6000061</ele>
        <time>2014-06-06T10:16:41Z</time>
      </trkpt>
      <trkpt lat="43.69692" lon="3.10598">
        <ele>416.6000061</ele>
        <time>2014-06-06T10:16:44Z</time>
      </trkpt>
      <trkpt lat="43.69687" lon="3.10602">
        <ele>416.2000122</ele>
        <time>2014-06-06T10:16:45Z</time>
      </trkpt>
      <trkpt lat="43.69683" lon="3.10604">
        <ele>415.7999878</ele>
        <time>2014-06-06T10:16:46Z</time>
      </trkpt>
      <trkpt lat="43.69679" lon="3.10606">
        <ele>415.2000122</ele>
        <time>2014-06-06T10:16:47Z</time>
      </trkpt>
      <trkpt lat="43.69675" lon="3.10607">
        <ele>414.7999878</ele>
        <time>2014-06-06T10:16:48Z</time>
      </trkpt>
      <trkpt lat="43.69672" lon="3.10607">
        <ele>414.3999939</ele>
        <time>2014-06-06T10:16:49Z</time>
      </trkpt>
      <trkpt lat="43.69658" lon="3.10611">
        <ele>414.3999939</ele>
        <time>2014-06-06T10:16:53Z</time>
      </trkpt>
      <trkpt lat="43.69657" lon="3.10614">
        <ele>414.3999939</ele>
        <time>2014-06-06T10:16:54Z</time>
      </trkpt>
      <trkpt lat="43.69655" lon="3.10622">
        <ele>414</ele>
        <time>2014-06-06T10:16:57Z</time>
      </trkpt>
      <trkpt lat="43.69654" lon="3.10625">
        <ele>413.6000061</ele>
        <time>2014-06-06T10:16:58Z</time>
      </trkpt>
      <trkpt lat="43.69653" lon="3.10628">
        <ele>413.2000122</ele>
        <time>2014-06-06T10:16:59Z</time>
      </trkpt>
      <trkpt lat="43.69651" lon="3.10631">
        <ele>412.3999939</ele>
        <time>2014-06-06T10:17:00Z</time>
      </trkpt>
      <trkpt lat="43.69644" lon="3.10638">
        <ele>412.3999939</ele>
        <time>2014-06-06T10:17:02Z</time>
      </trkpt>
      <trkpt lat="43.69641" lon="3.1064">
        <ele>412.3999939</ele>
        <time>2014-06-06T10:17:03Z</time>
      </trkpt>
      <trkpt lat="43.69637" lon="3.10643">
        <ele>412.3999939</ele>
        <time>2014-06-06T10:17:05Z</time>
      </trkpt>
      <trkpt lat="43.69631" lon="3.10641">
        <ele>412.3999939</ele>
        <time>2014-06-06T10:17:08Z</time>
      </trkpt>
      <trkpt lat="43.69629" lon="3.10642">
        <ele>412.3999939</ele>
        <time>2014-06-06T10:17:09Z</time>
      </trkpt>
      <trkpt lat="43.69621" lon="3.10644">
        <ele>412.3999939</ele>
        <time>2014-06-06T10:17:12Z</time>
      </trkpt>
      <trkpt lat="43.69618" lon="3.10643">
        <ele>412.3999939</ele>
        <time>2014-06-06T10:17:13Z</time>
      </trkpt>
      <trkpt lat="43.69611" lon="3.10642">
        <ele>412.7999878</ele>
        <time>2014-06-06T10:17:15Z</time>
      </trkpt>
      <trkpt lat="43.69606" lon="3.10643">
        <ele>413.2000122</ele>
        <time>2014-06-06T10:17:16Z</time>
      </trkpt>
      <trkpt lat="43.69602" lon="3.10643">
        <ele>413.6000061</ele>
        <time>2014-06-06T10:17:17Z</time>
      </trkpt>
      <trkpt lat="43.69597" lon="3.10644">
        <ele>414</ele>
        <time>2014-06-06T10:17:18Z</time>
      </trkpt>
      <trkpt lat="43.69593" lon="3.10644">
        <ele>414.3999939</ele>
        <time>2014-06-06T10:17:19Z</time>
      </trkpt>
      <trkpt lat="43.69585" lon="3.10642">
        <ele>414.3999939</ele>
        <time>2014-06-06T10:17:21Z</time>
      </trkpt>
      <trkpt lat="43.69582" lon="3.1064">
        <ele>414.3999939</ele>
        <time>2014-06-06T10:17:22Z</time>
      </trkpt>
      <trkpt lat="43.69577" lon="3.10641">
        <ele>414.3999939</ele>
        <time>2014-06-06T10:17:24Z</time>
      </trkpt>
      <trkpt lat="43.69573" lon="3.10642">
        <ele>414.3999939</ele>
        <time>2014-06-06T10:17:25Z</time>
      </trkpt>
      <trkpt lat="43.69564" lon="3.10646">
        <ele>414</ele>
        <time>2014-06-06T10:17:27Z</time>
      </trkpt>
      <trkpt lat="43.6956" lon="3.10649">
        <ele>413.6000061</ele>
        <time>2014-06-06T10:17:28Z</time>
      </trkpt>
      <trkpt lat="43.69556" lon="3.10652">
        <ele>413.2000122</ele>
        <time>2014-06-06T10:17:29Z</time>
      </trkpt>
      <trkpt lat="43.69554" lon="3.10652">
        <ele>412.6000061</ele>
        <time>2014-06-06T10:17:30Z</time>
      </trkpt>
      <trkpt lat="43.69552" lon="3.10653">
        <ele>412.2000122</ele>
        <time>2014-06-06T10:17:31Z</time>
      </trkpt>
      <trkpt lat="43.69549" lon="3.10655">
        <ele>411.6000061</ele>
        <time>2014-06-06T10:17:32Z</time>
      </trkpt>
      <trkpt lat="43.69546" lon="3.10657">
        <ele>411.2000122</ele>
        <time>2014-06-06T10:17:33Z</time>
      </trkpt>
      <trkpt lat="43.69544" lon="3.10658">
        <ele>410.6000061</ele>
        <time>2014-06-06T10:17:34Z</time>
      </trkpt>
      <trkpt lat="43.69542" lon="3.10659">
        <ele>410.2000122</ele>
        <time>2014-06-06T10:17:35Z</time>
      </trkpt>
      <trkpt lat="43.6954" lon="3.10661">
        <ele>410.2000122</ele>
        <time>2014-06-06T10:17:37Z</time>
      </trkpt>
      <trkpt lat="43.69534" lon="3.10665">
        <ele>409.6000061</ele>
        <time>2014-06-06T10:17:39Z</time>
      </trkpt>
      <trkpt lat="43.69531" lon="3.10666">
        <ele>409.2000122</ele>
        <time>2014-06-06T10:17:40Z</time>
      </trkpt>
      <trkpt lat="43.69529" lon="3.10667">
        <ele>408.6000061</ele>
        <time>2014-06-06T10:17:41Z</time>
      </trkpt>
      <trkpt lat="43.69528" lon="3.10667">
        <ele>408.2000122</ele>
        <time>2014-06-06T10:17:42Z</time>
      </trkpt>
      <trkpt lat="43.69517" lon="3.10671">
        <ele>407.6000061</ele>
        <time>2014-06-06T10:17:47Z</time>
      </trkpt>
      <trkpt lat="43.69515" lon="3.10671">
        <ele>407.6000061</ele>
        <time>2014-06-06T10:17:48Z</time>
      </trkpt>
      <trkpt lat="43.69502" lon="3.10679">
        <ele>407.6000061</ele>
        <time>2014-06-06T10:17:54Z</time>
      </trkpt>
      <trkpt lat="43.69502" lon="3.10683">
        <ele>407.6000061</ele>
        <time>2014-06-06T10:17:58Z</time>
      </trkpt>
      <trkpt lat="43.69495" lon="3.1069">
        <ele>407.6000061</ele>
        <time>2014-06-06T10:18:04Z</time>
      </trkpt>
      <trkpt lat="43.69488" lon="3.10695">
        <ele>407.6000061</ele>
        <time>2014-06-06T10:18:08Z</time>
      </trkpt>
      <trkpt lat="43.69487" lon="3.10696">
        <ele>407.6000061</ele>
        <time>2014-06-06T10:18:09Z</time>
      </trkpt>
      <trkpt lat="43.69475" lon="3.10706">
        <ele>407.6000061</ele>
        <time>2014-06-06T10:18:15Z</time>
      </trkpt>
      <trkpt lat="43.69462" lon="3.10713">
        <ele>407.6000061</ele>
        <time>2014-06-06T10:18:21Z</time>
      </trkpt>
      <trkpt lat="43.69452" lon="3.10726">
        <ele>407.6000061</ele>
        <time>2014-06-06T10:18:25Z</time>
      </trkpt>
      <trkpt lat="43.69447" lon="3.10731">
        <ele>407.6000061</ele>
        <time>2014-06-06T10:18:27Z</time>
      </trkpt>
      <trkpt lat="43.69444" lon="3.10737">
        <ele>407.6000061</ele>
        <time>2014-06-06T10:18:29Z</time>
      </trkpt>
      <trkpt lat="43.69441" lon="3.10745">
        <ele>407.6000061</ele>
        <time>2014-06-06T10:18:31Z</time>
      </trkpt>
      <trkpt lat="43.6944" lon="3.1075">
        <ele>407.2000122</ele>
        <time>2014-06-06T10:18:32Z</time>
      </trkpt>
      <trkpt lat="43.69438" lon="3.10755">
        <ele>406.7999878</ele>
        <time>2014-06-06T10:18:33Z</time>
      </trkpt>
      <trkpt lat="43.69437" lon="3.1076">
        <ele>406.3999939</ele>
        <time>2014-06-06T10:18:34Z</time>
      </trkpt>
      <trkpt lat="43.69436" lon="3.10766">
        <ele>406</ele>
        <time>2014-06-06T10:18:35Z</time>
      </trkpt>
      <trkpt lat="43.69435" lon="3.10774">
        <ele>405.6000061</ele>
        <time>2014-06-06T10:18:36Z</time>
      </trkpt>
      <trkpt lat="43.69434" lon="3.10782">
        <ele>405.6000061</ele>
        <time>2014-06-06T10:18:37Z</time>
      </trkpt>
      <trkpt lat="43.69433" lon="3.1079">
        <ele>405.6000061</ele>
        <time>2014-06-06T10:18:38Z</time>
      </trkpt>
      <trkpt lat="43.69431" lon="3.10797">
        <ele>404.7999878</ele>
        <time>2014-06-06T10:18:39Z</time>
      </trkpt>
      <trkpt lat="43.69428" lon="3.10803">
        <ele>404.2000122</ele>
        <time>2014-06-06T10:18:40Z</time>
      </trkpt>
      <trkpt lat="43.69425" lon="3.10809">
        <ele>403.7999878</ele>
        <time>2014-06-06T10:18:41Z</time>
      </trkpt>
      <trkpt lat="43.69422" lon="3.10814">
        <ele>403.2000122</ele>
        <time>2014-06-06T10:18:42Z</time>
      </trkpt>
      <trkpt lat="43.69419" lon="3.10819">
        <ele>403.2000122</ele>
        <time>2014-06-06T10:18:43Z</time>
      </trkpt>
      <trkpt lat="43.69416" lon="3.10824">
        <ele>402.7999878</ele>
        <time>2014-06-06T10:18:44Z</time>
      </trkpt>
      <trkpt lat="43.69413" lon="3.10829">
        <ele>402.3999939</ele>
        <time>2014-06-06T10:18:45Z</time>
      </trkpt>
      <trkpt lat="43.6941" lon="3.10834">
        <ele>402</ele>
        <time>2014-06-06T10:18:46Z</time>
      </trkpt>
      <trkpt lat="43.69407" lon="3.10839">
        <ele>401.6000061</ele>
        <time>2014-06-06T10:18:47Z</time>
      </trkpt>
      <trkpt lat="43.69404" lon="3.10844">
        <ele>401.2000122</ele>
        <time>2014-06-06T10:18:48Z</time>
      </trkpt>
      <trkpt lat="43.69401" lon="3.10848">
        <ele>401.2000122</ele>
        <time>2014-06-06T10:18:49Z</time>
      </trkpt>
      <trkpt lat="43.69396" lon="3.10851">
        <ele>401.2000122</ele>
        <time>2014-06-06T10:18:51Z</time>
      </trkpt>
      <trkpt lat="43.69387" lon="3.10854">
        <ele>401.2000122</ele>
        <time>2014-06-06T10:18:54Z</time>
      </trkpt>
      <trkpt lat="43.6938" lon="3.10854">
        <ele>401.2000122</ele>
        <time>2014-06-06T10:18:56Z</time>
      </trkpt>
      <trkpt lat="43.69365" lon="3.1086">
        <ele>401.2000122</ele>
        <time>2014-06-06T10:18:59Z</time>
      </trkpt>
      <trkpt lat="43.69356" lon="3.10859">
        <ele>401.2000122</ele>
        <time>2014-06-06T10:19:01Z</time>
      </trkpt>
      <trkpt lat="43.69351" lon="3.10861">
        <ele>400.7999878</ele>
        <time>2014-06-06T10:19:02Z</time>
      </trkpt>
      <trkpt lat="43.69346" lon="3.10861">
        <ele>399.7999878</ele>
        <time>2014-06-06T10:19:03Z</time>
      </trkpt>
      <trkpt lat="43.69343" lon="3.10861">
        <ele>399.3999939</ele>
        <time>2014-06-06T10:19:04Z</time>
      </trkpt>
      <trkpt lat="43.6934" lon="3.10861">
        <ele>399</ele>
        <time>2014-06-06T10:19:05Z</time>
      </trkpt>
      <trkpt lat="43.69335" lon="3.1086">
        <ele>398.6000061</ele>
        <time>2014-06-06T10:19:07Z</time>
      </trkpt>
      <trkpt lat="43.69334" lon="3.1086">
        <ele>398.2000122</ele>
        <time>2014-06-06T10:19:08Z</time>
      </trkpt>
      <trkpt lat="43.69332" lon="3.1086">
        <ele>397.7999878</ele>
        <time>2014-06-06T10:19:09Z</time>
      </trkpt>
      <trkpt lat="43.69301" lon="3.10868">
        <ele>397</ele>
        <time>2014-06-06T10:19:39Z</time>
      </trkpt>
      <trkpt lat="43.69296" lon="3.1087">
        <ele>397</ele>
        <time>2014-06-06T10:19:41Z</time>
      </trkpt>
      <trkpt lat="43.69286" lon="3.10872">
        <ele>397</ele>
        <time>2014-06-06T10:19:44Z</time>
      </trkpt>
      <trkpt lat="43.69281" lon="3.10874">
        <ele>397</ele>
        <time>2014-06-06T10:19:46Z</time>
      </trkpt>
      <trkpt lat="43.69269" lon="3.10882">
        <ele>397</ele>
        <time>2014-06-06T10:19:50Z</time>
      </trkpt>
      <trkpt lat="43.69266" lon="3.10884">
        <ele>397</ele>
        <time>2014-06-06T10:19:51Z</time>
      </trkpt>
      <trkpt lat="43.69252" lon="3.10892">
        <ele>396.6000061</ele>
        <time>2014-06-06T10:19:56Z</time>
      </trkpt>
      <trkpt lat="43.6925" lon="3.10894">
        <ele>396.2000122</ele>
        <time>2014-06-06T10:19:57Z</time>
      </trkpt>
      <trkpt lat="43.69247" lon="3.10896">
        <ele>395.7999878</ele>
        <time>2014-06-06T10:19:58Z</time>
      </trkpt>
      <trkpt lat="43.69243" lon="3.10897">
        <ele>395.3999939</ele>
        <time>2014-06-06T10:19:59Z</time>
      </trkpt>
      <trkpt lat="43.6924" lon="3.10899">
        <ele>395</ele>
        <time>2014-06-06T10:20:00Z</time>
      </trkpt>
      <trkpt lat="43.69232" lon="3.10904">
        <ele>395</ele>
        <time>2014-06-06T10:20:03Z</time>
      </trkpt>
      <trkpt lat="43.69229" lon="3.10907">
        <ele>395</ele>
        <time>2014-06-06T10:20:04Z</time>
      </trkpt>
      <trkpt lat="43.69221" lon="3.10913">
        <ele>395</ele>
        <time>2014-06-06T10:20:07Z</time>
      </trkpt>
      <trkpt lat="43.69212" lon="3.10921">
        <ele>395</ele>
        <time>2014-06-06T10:20:11Z</time>
      </trkpt>
      <trkpt lat="43.69201" lon="3.10933">
        <ele>395</ele>
        <time>2014-06-06T10:20:15Z</time>
      </trkpt>
      <trkpt lat="43.69194" lon="3.10938">
        <ele>394.6000061</ele>
        <time>2014-06-06T10:20:17Z</time>
      </trkpt>
      <trkpt lat="43.69191" lon="3.10939">
        <ele>393.7999878</ele>
        <time>2014-06-06T10:20:18Z</time>
      </trkpt>
      <trkpt lat="43.69189" lon="3.1094">
        <ele>393.3999939</ele>
        <time>2014-06-06T10:20:19Z</time>
      </trkpt>
      <trkpt lat="43.69188" lon="3.1094">
        <ele>393</ele>
        <time>2014-06-06T10:20:20Z</time>
      </trkpt>
      <trkpt lat="43.69187" lon="3.1094">
        <ele>393</ele>
        <time>2014-06-06T10:20:21Z</time>
      </trkpt>
      <trkpt lat="43.6916" lon="3.10965">
        <ele>393</ele>
        <time>2014-06-06T10:21:02Z</time>
      </trkpt>
      <trkpt lat="43.69159" lon="3.10967">
        <ele>393</ele>
        <time>2014-06-06T10:21:03Z</time>
      </trkpt>
      <trkpt lat="43.69151" lon="3.10972">
        <ele>392.6000061</ele>
        <time>2014-06-06T10:21:07Z</time>
      </trkpt>
      <trkpt lat="43.69149" lon="3.10974">
        <ele>392.2000122</ele>
        <time>2014-06-06T10:21:08Z</time>
      </trkpt>
      <trkpt lat="43.69148" lon="3.10973">
        <ele>391.7999878</ele>
        <time>2014-06-06T10:21:09Z</time>
      </trkpt>
      <trkpt lat="43.69147" lon="3.10973">
        <ele>391.3999939</ele>
        <time>2014-06-06T10:21:10Z</time>
      </trkpt>
      <trkpt lat="43.69146" lon="3.10973">
        <ele>391</ele>
        <time>2014-06-06T10:21:11Z</time>
      </trkpt>
      <trkpt lat="43.69072" lon="3.11029">
        <ele>388.7999878</ele>
        <time>2014-06-06T10:23:07Z</time>
      </trkpt>
      <trkpt lat="43.69062" lon="3.11031">
        <ele>388.7999878</ele>
        <time>2014-06-06T10:23:13Z</time>
      </trkpt>
      <trkpt lat="43.69058" lon="3.11032">
        <ele>388.7999878</ele>
        <time>2014-06-06T10:23:15Z</time>
      </trkpt>
      <trkpt lat="43.69052" lon="3.11037">
        <ele>388.7999878</ele>
        <time>2014-06-06T10:23:18Z</time>
      </trkpt>
      <trkpt lat="43.69049" lon="3.11039">
        <ele>388.7999878</ele>
        <time>2014-06-06T10:23:19Z</time>
      </trkpt>
      <trkpt lat="43.69042" lon="3.11041">
        <ele>388.7999878</ele>
        <time>2014-06-06T10:23:23Z</time>
      </trkpt>
      <trkpt lat="43.69038" lon="3.1104">
        <ele>388.7999878</ele>
        <time>2014-06-06T10:23:24Z</time>
      </trkpt>
      <trkpt lat="43.69022" lon="3.11036">
        <ele>388.7999878</ele>
        <time>2014-06-06T10:23:29Z</time>
      </trkpt>
      <trkpt lat="43.69017" lon="3.11036">
        <ele>388.7999878</ele>
        <time>2014-06-06T10:23:30Z</time>
      </trkpt>
      <trkpt lat="43.69004" lon="3.11035">
        <ele>388.7999878</ele>
        <time>2014-06-06T10:23:33Z</time>
      </trkpt>
      <trkpt lat="43.68996" lon="3.11036">
        <ele>388.3999939</ele>
        <time>2014-06-06T10:23:35Z</time>
      </trkpt>
      <trkpt lat="43.6899" lon="3.11038">
        <ele>388</ele>
        <time>2014-06-06T10:23:36Z</time>
      </trkpt>
      <trkpt lat="43.68984" lon="3.11039">
        <ele>387.6000061</ele>
        <time>2014-06-06T10:23:37Z</time>
      </trkpt>
      <trkpt lat="43.68978" lon="3.11041">
        <ele>387.2000122</ele>
        <time>2014-06-06T10:23:38Z</time>
      </trkpt>
      <trkpt lat="43.68972" lon="3.11042">
        <ele>386.7999878</ele>
        <time>2014-06-06T10:23:39Z</time>
      </trkpt>
      <trkpt lat="43.68966" lon="3.11043">
        <ele>386.7999878</ele>
        <time>2014-06-06T10:23:40Z</time>
      </trkpt>
      <trkpt lat="43.6895" lon="3.11048">
        <ele>386.7999878</ele>
        <time>2014-06-06T10:23:43Z</time>
      </trkpt>
      <trkpt lat="43.68939" lon="3.11057">
        <ele>386.7999878</ele>
        <time>2014-06-06T10:23:45Z</time>
      </trkpt>
      <trkpt lat="43.68927" lon="3.11058">
        <ele>386.7999878</ele>
        <time>2014-06-06T10:23:48Z</time>
      </trkpt>
      <trkpt lat="43.68915" lon="3.11059">
        <ele>386.7999878</ele>
        <time>2014-06-06T10:23:51Z</time>
      </trkpt>
      <trkpt lat="43.68911" lon="3.11061">
        <ele>386.7999878</ele>
        <time>2014-06-06T10:23:52Z</time>
      </trkpt>
      <trkpt lat="43.68907" lon="3.11064">
        <ele>386.7999878</ele>
        <time>2014-06-06T10:23:53Z</time>
      </trkpt>
      <trkpt lat="43.68899" lon="3.11071">
        <ele>386.7999878</ele>
        <time>2014-06-06T10:23:56Z</time>
      </trkpt>
      <trkpt lat="43.68896" lon="3.11074">
        <ele>386.3999939</ele>
        <time>2014-06-06T10:23:57Z</time>
      </trkpt>
      <trkpt lat="43.68892" lon="3.11076">
        <ele>386</ele>
        <time>2014-06-06T10:23:58Z</time>
      </trkpt>
      <trkpt lat="43.68889" lon="3.11077">
        <ele>385.6000061</ele>
        <time>2014-06-06T10:23:59Z</time>
      </trkpt>
      <trkpt lat="43.68886" lon="3.1108">
        <ele>384.7999878</ele>
        <time>2014-06-06T10:24:00Z</time>
      </trkpt>
      <trkpt lat="43.6888" lon="3.11082">
        <ele>384.3999939</ele>
        <time>2014-06-06T10:24:02Z</time>
      </trkpt>
      <trkpt lat="43.68878" lon="3.11081">
        <ele>384</ele>
        <time>2014-06-06T10:24:03Z</time>
      </trkpt>
      <trkpt lat="43.68876" lon="3.11081">
        <ele>383.6000061</ele>
        <time>2014-06-06T10:24:04Z</time>
      </trkpt>
      <trkpt lat="43.68873" lon="3.11081">
        <ele>383.2000122</ele>
        <time>2014-06-06T10:24:05Z</time>
      </trkpt>
      <trkpt lat="43.68871" lon="3.11082">
        <ele>382.7999878</ele>
        <time>2014-06-06T10:24:06Z</time>
      </trkpt>
      <trkpt lat="43.68866" lon="3.11085">
        <ele>382.7999878</ele>
        <time>2014-06-06T10:24:08Z</time>
      </trkpt>
      <trkpt lat="43.68863" lon="3.11087">
        <ele>382.7999878</ele>
        <time>2014-06-06T10:24:09Z</time>
      </trkpt>
      <trkpt lat="43.68861" lon="3.11087">
        <ele>382.7999878</ele>
        <time>2014-06-06T10:24:10Z</time>
      </trkpt>
      <trkpt lat="43.68859" lon="3.11087">
        <ele>382.7999878</ele>
        <time>2014-06-06T10:24:11Z</time>
      </trkpt>
      <trkpt lat="43.68852" lon="3.11089">
        <ele>382.7999878</ele>
        <time>2014-06-06T10:24:14Z</time>
      </trkpt>
      <trkpt lat="43.68838" lon="3.11092">
        <ele>382.7999878</ele>
        <time>2014-06-06T10:24:18Z</time>
      </trkpt>
      <trkpt lat="43.68833" lon="3.11093">
        <ele>382.7999878</ele>
        <time>2014-06-06T10:24:19Z</time>
      </trkpt>
      <trkpt lat="43.68819" lon="3.11093">
        <ele>382.7999878</ele>
        <time>2014-06-06T10:24:23Z</time>
      </trkpt>
      <trkpt lat="43.68809" lon="3.11093">
        <ele>382.7999878</ele>
        <time>2014-06-06T10:24:26Z</time>
      </trkpt>
      <trkpt lat="43.68805" lon="3.11095">
        <ele>382.7999878</ele>
        <time>2014-06-06T10:24:28Z</time>
      </trkpt>
      <trkpt lat="43.68804" lon="3.11095">
        <ele>382.7999878</ele>
        <time>2014-06-06T10:24:29Z</time>
      </trkpt>
      <trkpt lat="43.68803" lon="3.11095">
        <ele>382.7999878</ele>
        <time>2014-06-06T10:24:32Z</time>
      </trkpt>
      <trkpt lat="43.68791" lon="3.11109">
        <ele>382.7999878</ele>
        <time>2014-06-06T10:25:03Z</time>
      </trkpt>
      <trkpt lat="43.68788" lon="3.11111">
        <ele>382.7999878</ele>
        <time>2014-06-06T10:25:04Z</time>
      </trkpt>
      <trkpt lat="43.68777" lon="3.11115">
        <ele>382.7999878</ele>
        <time>2014-06-06T10:25:08Z</time>
      </trkpt>
      <trkpt lat="43.68775" lon="3.11117">
        <ele>382.7999878</ele>
        <time>2014-06-06T10:25:09Z</time>
      </trkpt>
      <trkpt lat="43.68761" lon="3.11121">
        <ele>382.7999878</ele>
        <time>2014-06-06T10:25:13Z</time>
      </trkpt>
      <trkpt lat="43.6876" lon="3.11121">
        <ele>382.7999878</ele>
        <time>2014-06-06T10:25:14Z</time>
      </trkpt>
      <trkpt lat="43.68756" lon="3.11127">
        <ele>382.7999878</ele>
        <time>2014-06-06T10:25:21Z</time>
      </trkpt>
      <trkpt lat="43.68755" lon="3.11129">
        <ele>382.3999939</ele>
        <time>2014-06-06T10:25:22Z</time>
      </trkpt>
      <trkpt lat="43.68754" lon="3.11132">
        <ele>382</ele>
        <time>2014-06-06T10:25:23Z</time>
      </trkpt>
      <trkpt lat="43.68754" lon="3.11134">
        <ele>381.6000061</ele>
        <time>2014-06-06T10:25:24Z</time>
      </trkpt>
      <trkpt lat="43.68751" lon="3.11136">
        <ele>381.2000122</ele>
        <time>2014-06-06T10:25:25Z</time>
      </trkpt>
      <trkpt lat="43.68749" lon="3.11138">
        <ele>380.7999878</ele>
        <time>2014-06-06T10:25:26Z</time>
      </trkpt>
      <trkpt lat="43.68747" lon="3.11141">
        <ele>380.7999878</ele>
        <time>2014-06-06T10:25:27Z</time>
      </trkpt>
      <trkpt lat="43.68744" lon="3.11143">
        <ele>380.3999939</ele>
        <time>2014-06-06T10:25:28Z</time>
      </trkpt>
      <trkpt lat="43.68742" lon="3.11145">
        <ele>379.7999878</ele>
        <time>2014-06-06T10:25:29Z</time>
      </trkpt>
      <trkpt lat="43.68738" lon="3.11147">
        <ele>379.3999939</ele>
        <time>2014-06-06T10:25:30Z</time>
      </trkpt>
      <trkpt lat="43.68732" lon="3.1115">
        <ele>379</ele>
        <time>2014-06-06T10:25:31Z</time>
      </trkpt>
      <trkpt lat="43.68727" lon="3.11154">
        <ele>378.6000061</ele>
        <time>2014-06-06T10:25:32Z</time>
      </trkpt>
      <trkpt lat="43.68714" lon="3.11164">
        <ele>378.6000061</ele>
        <time>2014-06-06T10:25:35Z</time>
      </trkpt>
      <trkpt lat="43.68701" lon="3.11174">
        <ele>378.6000061</ele>
        <time>2014-06-06T10:25:38Z</time>
      </trkpt>
      <trkpt lat="43.68679" lon="3.11186">
        <ele>378.6000061</ele>
        <time>2014-06-06T10:25:43Z</time>
      </trkpt>
      <trkpt lat="43.68654" lon="3.11189">
        <ele>378.6000061</ele>
        <time>2014-06-06T10:25:49Z</time>
      </trkpt>
      <trkpt lat="43.68642" lon="3.11189">
        <ele>378.6000061</ele>
        <time>2014-06-06T10:25:53Z</time>
      </trkpt>
      <trkpt lat="43.68639" lon="3.11189">
        <ele>378.6000061</ele>
        <time>2014-06-06T10:25:54Z</time>
      </trkpt>
      <trkpt lat="43.6863" lon="3.11188">
        <ele>378.6000061</ele>
        <time>2014-06-06T10:25:57Z</time>
      </trkpt>
      <trkpt lat="43.68627" lon="3.11186">
        <ele>378.6000061</ele>
        <time>2014-06-06T10:25:58Z</time>
      </trkpt>
      <trkpt lat="43.68618" lon="3.11181">
        <ele>379.6000061</ele>
        <time>2014-06-06T10:26:02Z</time>
      </trkpt>
      <trkpt lat="43.68616" lon="3.1118">
        <ele>380</ele>
        <time>2014-06-06T10:26:03Z</time>
      </trkpt>
      <trkpt lat="43.68613" lon="3.11179">
        <ele>380.6000061</ele>
        <time>2014-06-06T10:26:04Z</time>
      </trkpt>
      <trkpt lat="43.6861" lon="3.11178">
        <ele>381</ele>
        <time>2014-06-06T10:26:05Z</time>
      </trkpt>
      <trkpt lat="43.68598" lon="3.11175">
        <ele>381</ele>
        <time>2014-06-06T10:26:09Z</time>
      </trkpt>
      <trkpt lat="43.68588" lon="3.11174">
        <ele>381</ele>
        <time>2014-06-06T10:26:13Z</time>
      </trkpt>
      <trkpt lat="43.68585" lon="3.11174">
        <ele>381</ele>
        <time>2014-06-06T10:26:14Z</time>
      </trkpt>
      <trkpt lat="43.68572" lon="3.11169">
        <ele>381</ele>
        <time>2014-06-06T10:26:18Z</time>
      </trkpt>
      <trkpt lat="43.68561" lon="3.11167">
        <ele>381</ele>
        <time>2014-06-06T10:26:21Z</time>
      </trkpt>
      <trkpt lat="43.68558" lon="3.11168">
        <ele>381</ele>
        <time>2014-06-06T10:26:22Z</time>
      </trkpt>
      <trkpt lat="43.68549" lon="3.11167">
        <ele>381</ele>
        <time>2014-06-06T10:26:25Z</time>
      </trkpt>
      <trkpt lat="43.68542" lon="3.11168">
        <ele>380.6000061</ele>
        <time>2014-06-06T10:26:27Z</time>
      </trkpt>
      <trkpt lat="43.68539" lon="3.11169">
        <ele>380.2000122</ele>
        <time>2014-06-06T10:26:28Z</time>
      </trkpt>
      <trkpt lat="43.68537" lon="3.1117">
        <ele>379.7999878</ele>
        <time>2014-06-06T10:26:29Z</time>
      </trkpt>
      <trkpt lat="43.68535" lon="3.1117">
        <ele>379.3999939</ele>
        <time>2014-06-06T10:26:30Z</time>
      </trkpt>
      <trkpt lat="43.68532" lon="3.11171">
        <ele>379</ele>
        <time>2014-06-06T10:26:31Z</time>
      </trkpt>
      <trkpt lat="43.6853" lon="3.11171">
        <ele>378.3999939</ele>
        <time>2014-06-06T10:26:32Z</time>
      </trkpt>
      <trkpt lat="43.68529" lon="3.11172">
        <ele>378</ele>
        <time>2014-06-06T10:26:33Z</time>
      </trkpt>
      <trkpt lat="43.68527" lon="3.11177">
        <ele>377.6000061</ele>
        <time>2014-06-06T10:26:34Z</time>
      </trkpt>
      <trkpt lat="43.68526" lon="3.1118">
        <ele>377</ele>
        <time>2014-06-06T10:26:35Z</time>
      </trkpt>
      <trkpt lat="43.68524" lon="3.11183">
        <ele>376.6000061</ele>
        <time>2014-06-06T10:26:36Z</time>
      </trkpt>
      <trkpt lat="43.68517" lon="3.11192">
        <ele>376.2000122</ele>
        <time>2014-06-06T10:26:39Z</time>
      </trkpt>
      <trkpt lat="43.68515" lon="3.11194">
        <ele>375.7999878</ele>
        <time>2014-06-06T10:26:40Z</time>
      </trkpt>
      <trkpt lat="43.68513" lon="3.11196">
        <ele>375.3999939</ele>
        <time>2014-06-06T10:26:41Z</time>
      </trkpt>
      <trkpt lat="43.6851" lon="3.11196">
        <ele>375</ele>
        <time>2014-06-06T10:26:42Z</time>
      </trkpt>
      <trkpt lat="43.68508" lon="3.11197">
        <ele>374.6000061</ele>
        <time>2014-06-06T10:26:43Z</time>
      </trkpt>
      <trkpt lat="43.68499" lon="3.11201">
        <ele>374.6000061</ele>
        <time>2014-06-06T10:26:46Z</time>
      </trkpt>
      <trkpt lat="43.68493" lon="3.11205">
        <ele>374.6000061</ele>
        <time>2014-06-06T10:26:48Z</time>
      </trkpt>
      <trkpt lat="43.68485" lon="3.11206">
        <ele>374.6000061</ele>
        <time>2014-06-06T10:26:52Z</time>
      </trkpt>
      <trkpt lat="43.68484" lon="3.11206">
        <ele>374.6000061</ele>
        <time>2014-06-06T10:26:53Z</time>
      </trkpt>
      <trkpt lat="43.68482" lon="3.11207">
        <ele>374.2000122</ele>
        <time>2014-06-06T10:26:55Z</time>
      </trkpt>
      <trkpt lat="43.68476" lon="3.11213">
        <ele>373.3999939</ele>
        <time>2014-06-06T10:26:57Z</time>
      </trkpt>
      <trkpt lat="43.68473" lon="3.11216">
        <ele>373</ele>
        <time>2014-06-06T10:26:58Z</time>
      </trkpt>
      <trkpt lat="43.6847" lon="3.11218">
        <ele>372.3999939</ele>
        <time>2014-06-06T10:26:59Z</time>
      </trkpt>
      <trkpt lat="43.68464" lon="3.11219">
        <ele>372</ele>
        <time>2014-06-06T10:27:01Z</time>
      </trkpt>
      <trkpt lat="43.68461" lon="3.11221">
        <ele>371.6000061</ele>
        <time>2014-06-06T10:27:02Z</time>
      </trkpt>
      <trkpt lat="43.68459" lon="3.11224">
        <ele>371.2000122</ele>
        <time>2014-06-06T10:27:03Z</time>
      </trkpt>
      <trkpt lat="43.68457" lon="3.11226">
        <ele>370.7999878</ele>
        <time>2014-06-06T10:27:04Z</time>
      </trkpt>
      <trkpt lat="43.68454" lon="3.11229">
        <ele>370.2000122</ele>
        <time>2014-06-06T10:27:05Z</time>
      </trkpt>
      <trkpt lat="43.68449" lon="3.11232">
        <ele>369.7999878</ele>
        <time>2014-06-06T10:27:07Z</time>
      </trkpt>
      <trkpt lat="43.68447" lon="3.11233">
        <ele>369.3999939</ele>
        <time>2014-06-06T10:27:08Z</time>
      </trkpt>
      <trkpt lat="43.68445" lon="3.11234">
        <ele>369</ele>
        <time>2014-06-06T10:27:09Z</time>
      </trkpt>
      <trkpt lat="43.68443" lon="3.11235">
        <ele>368.6000061</ele>
        <time>2014-06-06T10:27:10Z</time>
      </trkpt>
      <trkpt lat="43.68441" lon="3.11236">
        <ele>368.2000122</ele>
        <time>2014-06-06T10:27:11Z</time>
      </trkpt>
      <trkpt lat="43.68441" lon="3.11237">
        <ele>368.2000122</ele>
        <time>2014-06-06T10:27:12Z</time>
      </trkpt>
      <trkpt lat="43.68396" lon="3.11245">
        <ele>366.2000122</ele>
        <time>2014-06-06T10:28:13Z</time>
      </trkpt>
      <trkpt lat="43.68394" lon="3.11246">
        <ele>366.2000122</ele>
        <time>2014-06-06T10:28:14Z</time>
      </trkpt>
      <trkpt lat="43.68391" lon="3.11249">
        <ele>366.2000122</ele>
        <time>2014-06-06T10:28:17Z</time>
      </trkpt>
      <trkpt lat="43.68385" lon="3.11253">
        <ele>366.2000122</ele>
        <time>2014-06-06T10:28:22Z</time>
      </trkpt>
      <trkpt lat="43.68375" lon="3.11253">
        <ele>366.2000122</ele>
        <time>2014-06-06T10:28:29Z</time>
      </trkpt>
      <trkpt lat="43.68367" lon="3.11254">
        <ele>366.6000061</ele>
        <time>2014-06-06T10:28:36Z</time>
      </trkpt>
      <trkpt lat="43.68366" lon="3.11254">
        <ele>367</ele>
        <time>2014-06-06T10:28:37Z</time>
      </trkpt>
      <trkpt lat="43.68365" lon="3.11255">
        <ele>367.3999939</ele>
        <time>2014-06-06T10:28:38Z</time>
      </trkpt>
      <trkpt lat="43.68364" lon="3.11255">
        <ele>367.7999878</ele>
        <time>2014-06-06T10:28:39Z</time>
      </trkpt>
      <trkpt lat="43.68363" lon="3.11255">
        <ele>368.2000122</ele>
        <time>2014-06-06T10:28:40Z</time>
      </trkpt>
      <trkpt lat="43.68359" lon="3.11256">
        <ele>368.2000122</ele>
        <time>2014-06-06T10:28:43Z</time>
      </trkpt>
      <trkpt lat="43.68355" lon="3.11257">
        <ele>368.2000122</ele>
        <time>2014-06-06T10:28:47Z</time>
      </trkpt>
      <trkpt lat="43.68352" lon="3.11258">
        <ele>368.2000122</ele>
        <time>2014-06-06T10:28:50Z</time>
      </trkpt>
      <trkpt lat="43.68348" lon="3.11259">
        <ele>368.6000061</ele>
        <time>2014-06-06T10:28:54Z</time>
      </trkpt>
      <trkpt lat="43.68347" lon="3.11259">
        <ele>369.3999939</ele>
        <time>2014-06-06T10:28:55Z</time>
      </trkpt>
      <trkpt lat="43.68346" lon="3.11259">
        <ele>369.7999878</ele>
        <time>2014-06-06T10:28:56Z</time>
      </trkpt>
      <trkpt lat="43.68345" lon="3.11259">
        <ele>370.2000122</ele>
        <time>2014-06-06T10:28:57Z</time>
      </trkpt>
      <trkpt lat="43.68344" lon="3.1126">
        <ele>370.2000122</ele>
        <time>2014-06-06T10:28:58Z</time>
      </trkpt>
      <trkpt lat="43.68337" lon="3.11259">
        <ele>370.2000122</ele>
        <time>2014-06-06T10:29:04Z</time>
      </trkpt>
      <trkpt lat="43.68335" lon="3.1126">
        <ele>370.6000061</ele>
        <time>2014-06-06T10:29:06Z</time>
      </trkpt>
      <trkpt lat="43.68334" lon="3.1126">
        <ele>371</ele>
        <time>2014-06-06T10:29:07Z</time>
      </trkpt>
      <trkpt lat="43.68334" lon="3.11261">
        <ele>371.3999939</ele>
        <time>2014-06-06T10:29:08Z</time>
      </trkpt>
      <trkpt lat="43.68333" lon="3.11262">
        <ele>371.7999878</ele>
        <time>2014-06-06T10:29:09Z</time>
      </trkpt>
      <trkpt lat="43.68332" lon="3.11263">
        <ele>372.3999939</ele>
        <time>2014-06-06T10:29:10Z</time>
      </trkpt>
      <trkpt lat="43.68332" lon="3.11264">
        <ele>372.3999939</ele>
        <time>2014-06-06T10:29:11Z</time>
      </trkpt>
      <trkpt lat="43.68329" lon="3.11267">
        <ele>372.3999939</ele>
        <time>2014-06-06T10:29:15Z</time>
      </trkpt>
      <trkpt lat="43.68326" lon="3.11272">
        <ele>372.3999939</ele>
        <time>2014-06-06T10:29:19Z</time>
      </trkpt>
      <trkpt lat="43.68326" lon="3.11273">
        <ele>373.2000122</ele>
        <time>2014-06-06T10:29:20Z</time>
      </trkpt>
      <trkpt lat="43.68325" lon="3.11274">
        <ele>373.6000061</ele>
        <time>2014-06-06T10:29:21Z</time>
      </trkpt>
      <trkpt lat="43.68324" lon="3.11276">
        <ele>374</ele>
        <time>2014-06-06T10:29:22Z</time>
      </trkpt>
      <trkpt lat="43.68323" lon="3.11277">
        <ele>374.3999939</ele>
        <time>2014-06-06T10:29:23Z</time>
      </trkpt>
      <trkpt lat="43.68319" lon="3.11282">
        <ele>374.3999939</ele>
        <time>2014-06-06T10:29:26Z</time>
      </trkpt>
      <trkpt lat="43.68309" lon="3.11298">
        <ele>374.3999939</ele>
        <time>2014-06-06T10:29:34Z</time>
      </trkpt>
      <trkpt lat="43.68298" lon="3.11307">
        <ele>374.3999939</ele>
        <time>2014-06-06T10:29:37Z</time>
      </trkpt>
      <trkpt lat="43.68295" lon="3.11309">
        <ele>374.3999939</ele>
        <time>2014-06-06T10:29:38Z</time>
      </trkpt>
      <trkpt lat="43.68288" lon="3.11314">
        <ele>374.3999939</ele>
        <time>2014-06-06T10:29:40Z</time>
      </trkpt>
      <trkpt lat="43.68275" lon="3.11322">
        <ele>373.7999878</ele>
        <time>2014-06-06T10:29:43Z</time>
      </trkpt>
      <trkpt lat="43.68272" lon="3.11326">
        <ele>373.3999939</ele>
        <time>2014-06-06T10:29:44Z</time>
      </trkpt>
      <trkpt lat="43.68268" lon="3.11328">
        <ele>372.3999939</ele>
        <time>2014-06-06T10:29:45Z</time>
      </trkpt>
      <trkpt lat="43.68264" lon="3.1133">
        <ele>372</ele>
        <time>2014-06-06T10:29:46Z</time>
      </trkpt>
      <trkpt lat="43.68256" lon="3.11334">
        <ele>371.6000061</ele>
        <time>2014-06-06T10:29:48Z</time>
      </trkpt>
      <trkpt lat="43.68253" lon="3.11336">
        <ele>371.2000122</ele>
        <time>2014-06-06T10:29:49Z</time>
      </trkpt>
      <trkpt lat="43.68249" lon="3.11339">
        <ele>370.7999878</ele>
        <time>2014-06-06T10:29:50Z</time>
      </trkpt>
      <trkpt lat="43.68243" lon="3.11341">
        <ele>370.3999939</ele>
        <time>2014-06-06T10:29:51Z</time>
      </trkpt>
      <trkpt lat="43.68237" lon="3.11343">
        <ele>369.7999878</ele>
        <time>2014-06-06T10:29:52Z</time>
      </trkpt>
      <trkpt lat="43.68232" lon="3.11344">
        <ele>369.2000122</ele>
        <time>2014-06-06T10:29:53Z</time>
      </trkpt>
      <trkpt lat="43.68226" lon="3.11344">
        <ele>368.6000061</ele>
        <time>2014-06-06T10:29:54Z</time>
      </trkpt>
      <trkpt lat="43.6822" lon="3.11345">
        <ele>368</ele>
        <time>2014-06-06T10:29:55Z</time>
      </trkpt>
      <trkpt lat="43.68215" lon="3.11346">
        <ele>367.3999939</ele>
        <time>2014-06-06T10:29:56Z</time>
      </trkpt>
      <trkpt lat="43.68204" lon="3.11348">
        <ele>367</ele>
        <time>2014-06-06T10:29:58Z</time>
      </trkpt>
      <trkpt lat="43.68199" lon="3.11348">
        <ele>366.3999939</ele>
        <time>2014-06-06T10:29:59Z</time>
      </trkpt>
      <trkpt lat="43.68194" lon="3.1135">
        <ele>366</ele>
        <time>2014-06-06T10:30:00Z</time>
      </trkpt>
      <trkpt lat="43.68189" lon="3.11352">
        <ele>365.2000122</ele>
        <time>2014-06-06T10:30:01Z</time>
      </trkpt>
      <trkpt lat="43.68184" lon="3.11355">
        <ele>364.6000061</ele>
        <time>2014-06-06T10:30:02Z</time>
      </trkpt>
      <trkpt lat="43.68179" lon="3.11357">
        <ele>364</ele>
        <time>2014-06-06T10:30:03Z</time>
      </trkpt>
      <trkpt lat="43.68175" lon="3.11359">
        <ele>363.2000122</ele>
        <time>2014-06-06T10:30:04Z</time>
      </trkpt>
      <trkpt lat="43.68171" lon="3.1136">
        <ele>362.6000061</ele>
        <time>2014-06-06T10:30:05Z</time>
      </trkpt>
      <trkpt lat="43.68169" lon="3.1136">
        <ele>361.7999878</ele>
        <time>2014-06-06T10:30:06Z</time>
      </trkpt>
      <trkpt lat="43.68168" lon="3.11359">
        <ele>361.2000122</ele>
        <time>2014-06-06T10:30:07Z</time>
      </trkpt>
      <trkpt lat="43.68167" lon="3.11359">
        <ele>360.3999939</ele>
        <time>2014-06-06T10:30:08Z</time>
      </trkpt>
      <trkpt lat="43.68166" lon="3.1136">
        <ele>360.3999939</ele>
        <time>2014-06-06T10:30:11Z</time>
      </trkpt>
      <trkpt lat="43.68149" lon="3.1137">
        <ele>358.3999939</ele>
        <time>2014-06-06T10:30:48Z</time>
      </trkpt>
      <trkpt lat="43.68147" lon="3.1137">
        <ele>358.3999939</ele>
        <time>2014-06-06T10:30:49Z</time>
      </trkpt>
      <trkpt lat="43.68147" lon="3.1137">
        <ele>358.3999939</ele>
        <time>2014-06-06T10:30:50Z</time>
      </trkpt>
      <trkpt lat="43.68142" lon="3.11371">
        <ele>358.3999939</ele>
        <time>2014-06-06T10:30:51Z</time>
      </trkpt>
      <trkpt lat="43.68119" lon="3.11378">
        <ele>358.3999939</ele>
        <time>2014-06-06T10:30:58Z</time>
      </trkpt>
      <trkpt lat="43.68112" lon="3.11379">
        <ele>358.7999878</ele>
        <time>2014-06-06T10:31:00Z</time>
      </trkpt>
      <trkpt lat="43.6811" lon="3.11379">
        <ele>359.2000122</ele>
        <time>2014-06-06T10:31:01Z</time>
      </trkpt>
      <trkpt lat="43.68107" lon="3.11379">
        <ele>359.6000061</ele>
        <time>2014-06-06T10:31:02Z</time>
      </trkpt>
      <trkpt lat="43.68103" lon="3.11379">
        <ele>360</ele>
        <time>2014-06-06T10:31:03Z</time>
      </trkpt>
      <trkpt lat="43.681" lon="3.1138">
        <ele>360.3999939</ele>
        <time>2014-06-06T10:31:04Z</time>
      </trkpt>
      <trkpt lat="43.68081" lon="3.1138">
        <ele>360.3999939</ele>
        <time>2014-06-06T10:31:09Z</time>
      </trkpt>
      <trkpt lat="43.6807" lon="3.11382">
        <ele>361.3999939</ele>
        <time>2014-06-06T10:31:11Z</time>
      </trkpt>
      <trkpt lat="43.68067" lon="3.11384">
        <ele>361.7999878</ele>
        <time>2014-06-06T10:31:13Z</time>
      </trkpt>
      <trkpt lat="43.68064" lon="3.11385">
        <ele>362.2000122</ele>
        <time>2014-06-06T10:31:14Z</time>
      </trkpt>
      <trkpt lat="43.68061" lon="3.11386">
        <ele>362.7999878</ele>
        <time>2014-06-06T10:31:15Z</time>
      </trkpt>
      <trkpt lat="43.68053" lon="3.11388">
        <ele>362.7999878</ele>
        <time>2014-06-06T10:31:18Z</time>
      </trkpt>
      <trkpt lat="43.68029" lon="3.11396">
        <ele>362.7999878</ele>
        <time>2014-06-06T10:31:24Z</time>
      </trkpt>
      <trkpt lat="43.68001" lon="3.11405">
        <ele>362.7999878</ele>
        <time>2014-06-06T10:31:30Z</time>
      </trkpt>
      <trkpt lat="43.67971" lon="3.11409">
        <ele>362.7999878</ele>
        <time>2014-06-06T10:31:35Z</time>
      </trkpt>
      <trkpt lat="43.67965" lon="3.1141">
        <ele>362.7999878</ele>
        <time>2014-06-06T10:31:36Z</time>
      </trkpt>
      <trkpt lat="43.67961" lon="3.11413">
        <ele>362.2000122</ele>
        <time>2014-06-06T10:31:37Z</time>
      </trkpt>
      <trkpt lat="43.67956" lon="3.11416">
        <ele>361.7999878</ele>
        <time>2014-06-06T10:31:38Z</time>
      </trkpt>
      <trkpt lat="43.6795" lon="3.1142">
        <ele>361.3999939</ele>
        <time>2014-06-06T10:31:39Z</time>
      </trkpt>
      <trkpt lat="43.67946" lon="3.11424">
        <ele>361</ele>
        <time>2014-06-06T10:31:40Z</time>
      </trkpt>
      <trkpt lat="43.67942" lon="3.11428">
        <ele>360.6000061</ele>
        <time>2014-06-06T10:31:41Z</time>
      </trkpt>
      <trkpt lat="43.67937" lon="3.1144">
        <ele>360.6000061</ele>
        <time>2014-06-06T10:31:43Z</time>
      </trkpt>
      <trkpt lat="43.67934" lon="3.11453">
        <ele>360.6000061</ele>
        <time>2014-06-06T10:31:45Z</time>
      </trkpt>
      <trkpt lat="43.67924" lon="3.11469">
        <ele>360.6000061</ele>
        <time>2014-06-06T10:31:48Z</time>
      </trkpt>
      <trkpt lat="43.67919" lon="3.11472">
        <ele>360.6000061</ele>
        <time>2014-06-06T10:31:49Z</time>
      </trkpt>
      <trkpt lat="43.67898" lon="3.11476">
        <ele>360.6000061</ele>
        <time>2014-06-06T10:31:52Z</time>
      </trkpt>
      <trkpt lat="43.67891" lon="3.11476">
        <ele>360.6000061</ele>
        <time>2014-06-06T10:31:53Z</time>
      </trkpt>
      <trkpt lat="43.67877" lon="3.11469">
        <ele>360</ele>
        <time>2014-06-06T10:31:55Z</time>
      </trkpt>
      <trkpt lat="43.67869" lon="3.11465">
        <ele>359.6000061</ele>
        <time>2014-06-06T10:31:56Z</time>
      </trkpt>
      <trkpt lat="43.67864" lon="3.11462">
        <ele>359</ele>
        <time>2014-06-06T10:31:57Z</time>
      </trkpt>
      <trkpt lat="43.67859" lon="3.11461">
        <ele>358.6000061</ele>
        <time>2014-06-06T10:31:58Z</time>
      </trkpt>
      <trkpt lat="43.67855" lon="3.11463">
        <ele>358</ele>
        <time>2014-06-06T10:31:59Z</time>
      </trkpt>
      <trkpt lat="43.67851" lon="3.11465">
        <ele>357</ele>
        <time>2014-06-06T10:32:00Z</time>
      </trkpt>
      <trkpt lat="43.67849" lon="3.1147">
        <ele>356.3999939</ele>
        <time>2014-06-06T10:32:01Z</time>
      </trkpt>
      <trkpt lat="43.67848" lon="3.11476">
        <ele>355.7999878</ele>
        <time>2014-06-06T10:32:02Z</time>
      </trkpt>
      <trkpt lat="43.67846" lon="3.11482">
        <ele>355.7999878</ele>
        <time>2014-06-06T10:32:03Z</time>
      </trkpt>
      <trkpt lat="43.67834" lon="3.11498">
        <ele>355.3999939</ele>
        <time>2014-06-06T10:32:06Z</time>
      </trkpt>
      <trkpt lat="43.6783" lon="3.11503">
        <ele>355</ele>
        <time>2014-06-06T10:32:07Z</time>
      </trkpt>
      <trkpt lat="43.67826" lon="3.11508">
        <ele>354.6000061</ele>
        <time>2014-06-06T10:32:08Z</time>
      </trkpt>
      <trkpt lat="43.67822" lon="3.11513">
        <ele>354.2000122</ele>
        <time>2014-06-06T10:32:09Z</time>
      </trkpt>
      <trkpt lat="43.67818" lon="3.11519">
        <ele>353.7999878</ele>
        <time>2014-06-06T10:32:10Z</time>
      </trkpt>
      <trkpt lat="43.67815" lon="3.11525">
        <ele>353.7999878</ele>
        <time>2014-06-06T10:32:11Z</time>
      </trkpt>
      <trkpt lat="43.67798" lon="3.11546">
        <ele>353.7999878</ele>
        <time>2014-06-06T10:32:15Z</time>
      </trkpt>
      <trkpt lat="43.67793" lon="3.1155">
        <ele>353.7999878</ele>
        <time>2014-06-06T10:32:16Z</time>
      </trkpt>
      <trkpt lat="43.67766" lon="3.11578">
        <ele>353.7999878</ele>
        <time>2014-06-06T10:32:22Z</time>
      </trkpt>
      <trkpt lat="43.67761" lon="3.11583">
        <ele>353.7999878</ele>
        <time>2014-06-06T10:32:23Z</time>
      </trkpt>
      <trkpt lat="43.67742" lon="3.11612">
        <ele>353.7999878</ele>
        <time>2014-06-06T10:32:28Z</time>
      </trkpt>
      <trkpt lat="43.67715" lon="3.11652">
        <ele>353.7999878</ele>
        <time>2014-06-06T10:32:35Z</time>
      </trkpt>
      <trkpt lat="43.67693" lon="3.11686">
        <ele>353.7999878</ele>
        <time>2014-06-06T10:32:41Z</time>
      </trkpt>
      <trkpt lat="43.67689" lon="3.11691">
        <ele>353.7999878</ele>
        <time>2014-06-06T10:32:42Z</time>
      </trkpt>
      <trkpt lat="43.6767" lon="3.11718">
        <ele>353.7999878</ele>
        <time>2014-06-06T10:32:47Z</time>
      </trkpt>
      <trkpt lat="43.67647" lon="3.11751">
        <ele>353.7999878</ele>
        <time>2014-06-06T10:32:53Z</time>
      </trkpt>
      <trkpt lat="43.67643" lon="3.11757">
        <ele>353.3999939</ele>
        <time>2014-06-06T10:32:54Z</time>
      </trkpt>
      <trkpt lat="43.67638" lon="3.11762">
        <ele>353</ele>
        <time>2014-06-06T10:32:55Z</time>
      </trkpt>
      <trkpt lat="43.67634" lon="3.11768">
        <ele>352.3999939</ele>
        <time>2014-06-06T10:32:56Z</time>
      </trkpt>
      <trkpt lat="43.6763" lon="3.11774">
        <ele>352</ele>
        <time>2014-06-06T10:32:57Z</time>
      </trkpt>
      <trkpt lat="43.67626" lon="3.1178">
        <ele>351.6000061</ele>
        <time>2014-06-06T10:32:58Z</time>
      </trkpt>
      <trkpt lat="43.67618" lon="3.11791">
        <ele>351.6000061</ele>
        <time>2014-06-06T10:33:00Z</time>
      </trkpt>
      <trkpt lat="43.67596" lon="3.1182">
        <ele>351.6000061</ele>
        <time>2014-06-06T10:33:05Z</time>
      </trkpt>
      <trkpt lat="43.67583" lon="3.11833">
        <ele>351.2000122</ele>
        <time>2014-06-06T10:33:08Z</time>
      </trkpt>
      <trkpt lat="43.67578" lon="3.11834">
        <ele>350.7999878</ele>
        <time>2014-06-06T10:33:09Z</time>
      </trkpt>
      <trkpt lat="43.67573" lon="3.11833">
        <ele>350.2000122</ele>
        <time>2014-06-06T10:33:10Z</time>
      </trkpt>
      <trkpt lat="43.6757" lon="3.11833">
        <ele>349.7999878</ele>
        <time>2014-06-06T10:33:11Z</time>
      </trkpt>
      <trkpt lat="43.67568" lon="3.11831">
        <ele>349.2000122</ele>
        <time>2014-06-06T10:33:12Z</time>
      </trkpt>
      <trkpt lat="43.67566" lon="3.11827">
        <ele>348.3999939</ele>
        <time>2014-06-06T10:33:14Z</time>
      </trkpt>
      <trkpt lat="43.67566" lon="3.11825">
        <ele>347.7999878</ele>
        <time>2014-06-06T10:33:15Z</time>
      </trkpt>
      <trkpt lat="43.67566" lon="3.11824">
        <ele>347.3999939</ele>
        <time>2014-06-06T10:33:16Z</time>
      </trkpt>
      <trkpt lat="43.67565" lon="3.11823">
        <ele>347</ele>
        <time>2014-06-06T10:33:17Z</time>
      </trkpt>
      <trkpt lat="43.67565" lon="3.11823">
        <ele>347</ele>
        <time>2014-06-06T10:33:18Z</time>
      </trkpt>
      <trkpt lat="43.67837" lon="3.1147">
        <ele>319</ele>
        <time>2013-07-07T05:50:37Z</time>
      </trkpt>
      <trkpt lat="43.67838" lon="3.11475">
        <ele>319</ele>
        <time>2013-07-07T05:50:38Z</time>
      </trkpt>
      <trkpt lat="43.67843" lon="3.11482">
        <ele>319</ele>
        <time>2013-07-07T05:50:40Z</time>
      </trkpt>
      <trkpt lat="43.67847" lon="3.11484">
        <ele>319</ele>
        <time>2013-07-07T05:50:41Z</time>
      </trkpt>
      <trkpt lat="43.6785" lon="3.11482">
        <ele>319</ele>
        <time>2013-07-07T05:50:42Z</time>
      </trkpt>
      <trkpt lat="43.67852" lon="3.11478">
        <ele>319</ele>
        <time>2013-07-07T05:50:43Z</time>
      </trkpt>
      <trkpt lat="43.67855" lon="3.11475">
        <ele>319</ele>
        <time>2013-07-07T05:50:44Z</time>
      </trkpt>
      <trkpt lat="43.67867" lon="3.11463">
        <ele>319</ele>
        <time>2013-07-07T05:50:49Z</time>
      </trkpt>
      <trkpt lat="43.6787" lon="3.11463">
        <ele>319</ele>
        <time>2013-07-07T05:50:50Z</time>
      </trkpt>
      <trkpt lat="43.67879" lon="3.11469">
        <ele>319</ele>
        <time>2013-07-07T05:50:53Z</time>
      </trkpt>
      <trkpt lat="43.67882" lon="3.1147">
        <ele>319.3999939</ele>
        <time>2013-07-07T05:50:54Z</time>
      </trkpt>
      <trkpt lat="43.67885" lon="3.11472">
        <ele>319.7999878</ele>
        <time>2013-07-07T05:50:55Z</time>
      </trkpt>
      <trkpt lat="43.67887" lon="3.11474">
        <ele>320.2000122</ele>
        <time>2013-07-07T05:50:56Z</time>
      </trkpt>
      <trkpt lat="43.6789" lon="3.11475">
        <ele>320.7999878</ele>
        <time>2013-07-07T05:50:57Z</time>
      </trkpt>
      <trkpt lat="43.67893" lon="3.11476">
        <ele>321.2000122</ele>
        <time>2013-07-07T05:50:58Z</time>
      </trkpt>
      <trkpt lat="43.679" lon="3.11478">
        <ele>321.2000122</ele>
        <time>2013-07-07T05:51:00Z</time>
      </trkpt>
      <trkpt lat="43.679" lon="3.11478">
        <ele>321.2000122</ele>
        <time>2013-07-07T05:51:01Z</time>
      </trkpt>
      <trkpt lat="43.67907" lon="3.11478">
        <ele>321.2000122</ele>
        <time>2013-07-07T05:51:04Z</time>
      </trkpt>
      <trkpt lat="43.67912" lon="3.11478">
        <ele>321.6000061</ele>
        <time>2013-07-07T05:51:06Z</time>
      </trkpt>
      <trkpt lat="43.67914" lon="3.11477">
        <ele>322</ele>
        <time>2013-07-07T05:51:07Z</time>
      </trkpt>
      <trkpt lat="43.67917" lon="3.11477">
        <ele>322.3999939</ele>
        <time>2013-07-07T05:51:08Z</time>
      </trkpt>
      <trkpt lat="43.67919" lon="3.11477">
        <ele>322.7999878</ele>
        <time>2013-07-07T05:51:09Z</time>
      </trkpt>
      <trkpt lat="43.6792" lon="3.11477">
        <ele>323.2000122</ele>
        <time>2013-07-07T05:51:10Z</time>
      </trkpt>
      <trkpt lat="43.67929" lon="3.11472">
        <ele>323.2000122</ele>
        <time>2013-07-07T05:51:15Z</time>
      </trkpt>
      <trkpt lat="43.6793" lon="3.11471">
        <ele>323.6000061</ele>
        <time>2013-07-07T05:51:16Z</time>
      </trkpt>
      <trkpt lat="43.67932" lon="3.1147">
        <ele>324</ele>
        <time>2013-07-07T05:51:17Z</time>
      </trkpt>
      <trkpt lat="43.67934" lon="3.1147">
        <ele>324.3999939</ele>
        <time>2013-07-07T05:51:18Z</time>
      </trkpt>
      <trkpt lat="43.67936" lon="3.11469">
        <ele>325</ele>
        <time>2013-07-07T05:51:19Z</time>
      </trkpt>
      <trkpt lat="43.67937" lon="3.11468">
        <ele>325.3999939</ele>
        <time>2013-07-07T05:51:20Z</time>
      </trkpt>
      <trkpt lat="43.67941" lon="3.11467">
        <ele>325.3999939</ele>
        <time>2013-07-07T05:51:22Z</time>
      </trkpt>
      <trkpt lat="43.67947" lon="3.11464">
        <ele>325.3999939</ele>
        <time>2013-07-07T05:51:25Z</time>
      </trkpt>
      <trkpt lat="43.6795" lon="3.11463">
        <ele>325.7999878</ele>
        <time>2013-07-07T05:51:27Z</time>
      </trkpt>
      <trkpt lat="43.67952" lon="3.11461">
        <ele>326.2000122</ele>
        <time>2013-07-07T05:51:28Z</time>
      </trkpt>
      <trkpt lat="43.67953" lon="3.1146">
        <ele>326.6000061</ele>
        <time>2013-07-07T05:51:29Z</time>
      </trkpt>
      <trkpt lat="43.67955" lon="3.11459">
        <ele>327</ele>
        <time>2013-07-07T05:51:30Z</time>
      </trkpt>
      <trkpt lat="43.67957" lon="3.11458">
        <ele>327.3999939</ele>
        <time>2013-07-07T05:51:31Z</time>
      </trkpt>
      <trkpt lat="43.67964" lon="3.11454">
        <ele>327.3999939</ele>
        <time>2013-07-07T05:51:35Z</time>
      </trkpt>
      <trkpt lat="43.67972" lon="3.11451">
        <ele>327.7999878</ele>
        <time>2013-07-07T05:51:39Z</time>
      </trkpt>
      <trkpt lat="43.67974" lon="3.1145">
        <ele>328.2000122</ele>
        <time>2013-07-07T05:51:40Z</time>
      </trkpt>
      <trkpt lat="43.67975" lon="3.11449">
        <ele>328.7999878</ele>
        <time>2013-07-07T05:51:41Z</time>
      </trkpt>
      <trkpt lat="43.67977" lon="3.11448">
        <ele>329.2000122</ele>
        <time>2013-07-07T05:51:42Z</time>
      </trkpt>
      <trkpt lat="43.67979" lon="3.11447">
        <ele>329.6000061</ele>
        <time>2013-07-07T05:51:43Z</time>
      </trkpt>
      <trkpt lat="43.67993" lon="3.11443">
        <ele>329.6000061</ele>
        <time>2013-07-07T05:51:50Z</time>
      </trkpt>
      <trkpt lat="43.67999" lon="3.11441">
        <ele>330.2000122</ele>
        <time>2013-07-07T05:51:53Z</time>
      </trkpt>
      <trkpt lat="43.68001" lon="3.1144">
        <ele>330.6000061</ele>
        <time>2013-07-07T05:51:54Z</time>
      </trkpt>
      <trkpt lat="43.68002" lon="3.11439">
        <ele>331</ele>
        <time>2013-07-07T05:51:55Z</time>
      </trkpt>
      <trkpt lat="43.68004" lon="3.11438">
        <ele>331.3999939</ele>
        <time>2013-07-07T05:51:56Z</time>
      </trkpt>
      <trkpt lat="43.68005" lon="3.11436">
        <ele>331.7999878</ele>
        <time>2013-07-07T05:51:57Z</time>
      </trkpt>
      <trkpt lat="43.68007" lon="3.11435">
        <ele>331.7999878</ele>
        <time>2013-07-07T05:51:58Z</time>
      </trkpt>
      <trkpt lat="43.68014" lon="3.11431">
        <ele>332.3999939</ele>
        <time>2013-07-07T05:52:02Z</time>
      </trkpt>
      <trkpt lat="43.68016" lon="3.11429">
        <ele>332.7999878</ele>
        <time>2013-07-07T05:52:03Z</time>
      </trkpt>
      <trkpt lat="43.68017" lon="3.11427">
        <ele>333.2000122</ele>
        <time>2013-07-07T05:52:04Z</time>
      </trkpt>
      <trkpt lat="43.68019" lon="3.11426">
        <ele>333.6000061</ele>
        <time>2013-07-07T05:52:05Z</time>
      </trkpt>
      <trkpt lat="43.6802" lon="3.11425">
        <ele>334</ele>
        <time>2013-07-07T05:52:06Z</time>
      </trkpt>
      <trkpt lat="43.68029" lon="3.11417">
        <ele>334</ele>
        <time>2013-07-07T05:52:12Z</time>
      </trkpt>
      <trkpt lat="43.68039" lon="3.11414">
        <ele>334.3999939</ele>
        <time>2013-07-07T05:52:18Z</time>
      </trkpt>
      <trkpt lat="43.68041" lon="3.11413">
        <ele>334.7999878</ele>
        <time>2013-07-07T05:52:19Z</time>
      </trkpt>
      <trkpt lat="43.68044" lon="3.11413">
        <ele>335.3999939</ele>
        <time>2013-07-07T05:52:20Z</time>
      </trkpt>
      <trkpt lat="43.68046" lon="3.11413">
        <ele>335.7999878</ele>
        <time>2013-07-07T05:52:21Z</time>
      </trkpt>
      <trkpt lat="43.68047" lon="3.11413">
        <ele>336.2000122</ele>
        <time>2013-07-07T05:52:22Z</time>
      </trkpt>
      <trkpt lat="43.68053" lon="3.11412">
        <ele>336.2000122</ele>
        <time>2013-07-07T05:52:25Z</time>
      </trkpt>
      <trkpt lat="43.6806" lon="3.11412">
        <ele>336.6000061</ele>
        <time>2013-07-07T05:52:29Z</time>
      </trkpt>
      <trkpt lat="43.68062" lon="3.11412">
        <ele>337</ele>
        <time>2013-07-07T05:52:30Z</time>
      </trkpt>
      <trkpt lat="43.68064" lon="3.11413">
        <ele>337.3999939</ele>
        <time>2013-07-07T05:52:31Z</time>
      </trkpt>
      <trkpt lat="43.68065" lon="3.11413">
        <ele>337.7999878</ele>
        <time>2013-07-07T05:52:32Z</time>
      </trkpt>
      <trkpt lat="43.68067" lon="3.11413">
        <ele>338.3999939</ele>
        <time>2013-07-07T05:52:33Z</time>
      </trkpt>
      <trkpt lat="43.68076" lon="3.11413">
        <ele>338.3999939</ele>
        <time>2013-07-07T05:52:38Z</time>
      </trkpt>
      <trkpt lat="43.68083" lon="3.11414">
        <ele>338.7999878</ele>
        <time>2013-07-07T05:52:42Z</time>
      </trkpt>
      <trkpt lat="43.68085" lon="3.11415">
        <ele>339.2000122</ele>
        <time>2013-07-07T05:52:43Z</time>
      </trkpt>
      <trkpt lat="43.68086" lon="3.11415">
        <ele>339.6000061</ele>
        <time>2013-07-07T05:52:44Z</time>
      </trkpt>
      <trkpt lat="43.68088" lon="3.11416">
        <ele>340</ele>
        <time>2013-07-07T05:52:45Z</time>
      </trkpt>
      <trkpt lat="43.6809" lon="3.11416">
        <ele>340.3999939</ele>
        <time>2013-07-07T05:52:46Z</time>
      </trkpt>
      <trkpt lat="43.68097" lon="3.11417">
        <ele>340.3999939</ele>
        <time>2013-07-07T05:52:50Z</time>
      </trkpt>
      <trkpt lat="43.68101" lon="3.11418">
        <ele>340.7999878</ele>
        <time>2013-07-07T05:52:52Z</time>
      </trkpt>
      <trkpt lat="43.68103" lon="3.11419">
        <ele>341.3999939</ele>
        <time>2013-07-07T05:52:53Z</time>
      </trkpt>
      <trkpt lat="43.68104" lon="3.11419">
        <ele>341.7999878</ele>
        <time>2013-07-07T05:52:54Z</time>
      </trkpt>
      <trkpt lat="43.68106" lon="3.11419">
        <ele>342.2000122</ele>
        <time>2013-07-07T05:52:55Z</time>
      </trkpt>
      <trkpt lat="43.68108" lon="3.11419">
        <ele>342.6000061</ele>
        <time>2013-07-07T05:52:56Z</time>
      </trkpt>
      <trkpt lat="43.68118" lon="3.11421">
        <ele>342.6000061</ele>
        <time>2013-07-07T05:53:02Z</time>
      </trkpt>
      <trkpt lat="43.6813" lon="3.11423">
        <ele>343</ele>
        <time>2013-07-07T05:53:09Z</time>
      </trkpt>
      <trkpt lat="43.68131" lon="3.11423">
        <ele>343.3999939</ele>
        <time>2013-07-07T05:53:10Z</time>
      </trkpt>
      <trkpt lat="43.68134" lon="3.11424">
        <ele>343.7999878</ele>
        <time>2013-07-07T05:53:11Z</time>
      </trkpt>
      <trkpt lat="43.68136" lon="3.11424">
        <ele>344.2000122</ele>
        <time>2013-07-07T05:53:12Z</time>
      </trkpt>
      <trkpt lat="43.68137" lon="3.11425">
        <ele>344.6000061</ele>
        <time>2013-07-07T05:53:13Z</time>
      </trkpt>
      <trkpt lat="43.68146" lon="3.11426">
        <ele>344.6000061</ele>
        <time>2013-07-07T05:53:18Z</time>
      </trkpt>
      <trkpt lat="43.68149" lon="3.11428">
        <ele>345</ele>
        <time>2013-07-07T05:53:20Z</time>
      </trkpt>
      <trkpt lat="43.68151" lon="3.11428">
        <ele>345.6000061</ele>
        <time>2013-07-07T05:53:21Z</time>
      </trkpt>
      <trkpt lat="43.68152" lon="3.11429">
        <ele>346</ele>
        <time>2013-07-07T05:53:22Z</time>
      </trkpt>
      <trkpt lat="43.68154" lon="3.1143">
        <ele>346.3999939</ele>
        <time>2013-07-07T05:53:23Z</time>
      </trkpt>
      <trkpt lat="43.68155" lon="3.11431">
        <ele>346.7999878</ele>
        <time>2013-07-07T05:53:24Z</time>
      </trkpt>
      <trkpt lat="43.68165" lon="3.11436">
        <ele>346.7999878</ele>
        <time>2013-07-07T05:53:30Z</time>
      </trkpt>
      <trkpt lat="43.68171" lon="3.11437">
        <ele>347.2000122</ele>
        <time>2013-07-07T05:53:33Z</time>
      </trkpt>
      <trkpt lat="43.68173" lon="3.11438">
        <ele>347.6000061</ele>
        <time>2013-07-07T05:53:34Z</time>
      </trkpt>
      <trkpt lat="43.68174" lon="3.11439">
        <ele>348</ele>
        <time>2013-07-07T05:53:35Z</time>
      </trkpt>
      <trkpt lat="43.68176" lon="3.1144">
        <ele>348.3999939</ele>
        <time>2013-07-07T05:53:36Z</time>
      </trkpt>
      <trkpt lat="43.68178" lon="3.11441">
        <ele>348.7999878</ele>
        <time>2013-07-07T05:53:37Z</time>
      </trkpt>
      <trkpt lat="43.68179" lon="3.11441">
        <ele>348.7999878</ele>
        <time>2013-07-07T05:53:38Z</time>
      </trkpt>
      <trkpt lat="43.6819" lon="3.11444">
        <ele>348.7999878</ele>
        <time>2013-07-07T05:53:44Z</time>
      </trkpt>
      <trkpt lat="43.68194" lon="3.11445">
        <ele>349.2000122</ele>
        <time>2013-07-07T05:53:46Z</time>
      </trkpt>
      <trkpt lat="43.68196" lon="3.11446">
        <ele>349.6000061</ele>
        <time>2013-07-07T05:53:47Z</time>
      </trkpt>
      <trkpt lat="43.68198" lon="3.11447">
        <ele>350</ele>
        <time>2013-07-07T05:53:48Z</time>
      </trkpt>
      <trkpt lat="43.682" lon="3.11448">
        <ele>350.3999939</ele>
        <time>2013-07-07T05:53:49Z</time>
      </trkpt>
      <trkpt lat="43.68201" lon="3.11449">
        <ele>350.7999878</ele>
        <time>2013-07-07T05:53:50Z</time>
      </trkpt>
      <trkpt lat="43.68203" lon="3.11451">
        <ele>350.7999878</ele>
        <time>2013-07-07T05:53:51Z</time>
      </trkpt>
      <trkpt lat="43.68213" lon="3.11459">
        <ele>350.7999878</ele>
        <time>2013-07-07T05:53:58Z</time>
      </trkpt>
      <trkpt lat="43.68216" lon="3.11462">
        <ele>351.2000122</ele>
        <time>2013-07-07T05:54:00Z</time>
      </trkpt>
      <trkpt lat="43.68217" lon="3.11464">
        <ele>351.6000061</ele>
        <time>2013-07-07T05:54:01Z</time>
      </trkpt>
      <trkpt lat="43.68218" lon="3.11465">
        <ele>352</ele>
        <time>2013-07-07T05:54:02Z</time>
      </trkpt>
      <trkpt lat="43.6822" lon="3.11466">
        <ele>352.3999939</ele>
        <time>2013-07-07T05:54:03Z</time>
      </trkpt>
      <trkpt lat="43.68222" lon="3.11467">
        <ele>352.7999878</ele>
        <time>2013-07-07T05:54:04Z</time>
      </trkpt>
      <trkpt lat="43.68224" lon="3.11468">
        <ele>352.7999878</ele>
        <time>2013-07-07T05:54:05Z</time>
      </trkpt>
      <trkpt lat="43.68226" lon="3.11471">
        <ele>352.7999878</ele>
        <time>2013-07-07T05:54:07Z</time>
      </trkpt>
      <trkpt lat="43.6823" lon="3.11476">
        <ele>352.7999878</ele>
        <time>2013-07-07T05:54:10Z</time>
      </trkpt>
      <trkpt lat="43.68238" lon="3.11482">
        <ele>353.3999939</ele>
        <time>2013-07-07T05:54:15Z</time>
      </trkpt>
      <trkpt lat="43.68239" lon="3.11483">
        <ele>353.7999878</ele>
        <time>2013-07-07T05:54:16Z</time>
      </trkpt>
      <trkpt lat="43.68241" lon="3.11485">
        <ele>354.2000122</ele>
        <time>2013-07-07T05:54:17Z</time>
      </trkpt>
      <trkpt lat="43.68243" lon="3.11486">
        <ele>354.6000061</ele>
        <time>2013-07-07T05:54:18Z</time>
      </trkpt>
      <trkpt lat="43.68245" lon="3.11487">
        <ele>355</ele>
        <time>2013-07-07T05:54:19Z</time>
      </trkpt>
      <trkpt lat="43.68253" lon="3.11493">
        <ele>355</ele>
        <time>2013-07-07T05:54:24Z</time>
      </trkpt>
      <trkpt lat="43.6826" lon="3.11501">
        <ele>355.3999939</ele>
        <time>2013-07-07T05:54:29Z</time>
      </trkpt>
      <trkpt lat="43.68261" lon="3.11502">
        <ele>355.7999878</ele>
        <time>2013-07-07T05:54:30Z</time>
      </trkpt>
      <trkpt lat="43.68263" lon="3.11503">
        <ele>356.3999939</ele>
        <time>2013-07-07T05:54:31Z</time>
      </trkpt>
      <trkpt lat="43.68264" lon="3.11504">
        <ele>356.7999878</ele>
        <time>2013-07-07T05:54:32Z</time>
      </trkpt>
      <trkpt lat="43.68266" lon="3.11505">
        <ele>357.2000122</ele>
        <time>2013-07-07T05:54:33Z</time>
      </trkpt>
      <trkpt lat="43.68271" lon="3.11509">
        <ele>357.2000122</ele>
        <time>2013-07-07T05:54:36Z</time>
      </trkpt>
      <trkpt lat="43.68278" lon="3.11513">
        <ele>357.6000061</ele>
        <time>2013-07-07T05:54:40Z</time>
      </trkpt>
      <trkpt lat="43.6828" lon="3.11514">
        <ele>358</ele>
        <time>2013-07-07T05:54:41Z</time>
      </trkpt>
      <trkpt lat="43.68281" lon="3.11515">
        <ele>358.3999939</ele>
        <time>2013-07-07T05:54:42Z</time>
      </trkpt>
      <trkpt lat="43.68283" lon="3.11516">
        <ele>358.7999878</ele>
        <time>2013-07-07T05:54:43Z</time>
      </trkpt>
      <trkpt lat="43.68284" lon="3.11518">
        <ele>359.2000122</ele>
        <time>2013-07-07T05:54:44Z</time>
      </trkpt>
      <trkpt lat="43.68291" lon="3.11522">
        <ele>359.2000122</ele>
        <time>2013-07-07T05:54:47Z</time>
      </trkpt>
      <trkpt lat="43.68302" lon="3.11527">
        <ele>359.6000061</ele>
        <time>2013-07-07T05:54:53Z</time>
      </trkpt>
      <trkpt lat="43.68305" lon="3.11527">
        <ele>360</ele>
        <time>2013-07-07T05:54:54Z</time>
      </trkpt>
      <trkpt lat="43.68307" lon="3.11528">
        <ele>360.3999939</ele>
        <time>2013-07-07T05:54:55Z</time>
      </trkpt>
      <trkpt lat="43.68309" lon="3.11528">
        <ele>361</ele>
        <time>2013-07-07T05:54:56Z</time>
      </trkpt>
      <trkpt lat="43.68311" lon="3.11529">
        <ele>361.3999939</ele>
        <time>2013-07-07T05:54:57Z</time>
      </trkpt>
      <trkpt lat="43.68316" lon="3.11532">
        <ele>361.3999939</ele>
        <time>2013-07-07T05:55:00Z</time>
      </trkpt>
      <trkpt lat="43.68329" lon="3.11538">
        <ele>361.7999878</ele>
        <time>2013-07-07T05:55:07Z</time>
      </trkpt>
      <trkpt lat="43.68331" lon="3.11539">
        <ele>362.2000122</ele>
        <time>2013-07-07T05:55:08Z</time>
      </trkpt>
      <trkpt lat="43.68333" lon="3.1154">
        <ele>362.6000061</ele>
        <time>2013-07-07T05:55:09Z</time>
      </trkpt>
      <trkpt lat="43.68334" lon="3.11541">
        <ele>363</ele>
        <time>2013-07-07T05:55:10Z</time>
      </trkpt>
      <trkpt lat="43.68336" lon="3.11542">
        <ele>363.6000061</ele>
        <time>2013-07-07T05:55:11Z</time>
      </trkpt>
      <trkpt lat="43.68347" lon="3.11547">
        <ele>363.6000061</ele>
        <time>2013-07-07T05:55:17Z</time>
      </trkpt>
      <trkpt lat="43.68349" lon="3.11548">
        <ele>364.3999939</ele>
        <time>2013-07-07T05:55:18Z</time>
      </trkpt>
      <trkpt lat="43.68351" lon="3.11549">
        <ele>364.7999878</ele>
        <time>2013-07-07T05:55:19Z</time>
      </trkpt>
      <trkpt lat="43.68353" lon="3.1155">
        <ele>365.2000122</ele>
        <time>2013-07-07T05:55:20Z</time>
      </trkpt>
      <trkpt lat="43.68354" lon="3.11551">
        <ele>365.6000061</ele>
        <time>2013-07-07T05:55:21Z</time>
      </trkpt>
      <trkpt lat="43.68362" lon="3.11554">
        <ele>365.6000061</ele>
        <time>2013-07-07T05:55:25Z</time>
      </trkpt>
      <trkpt lat="43.68374" lon="3.1156">
        <ele>365.6000061</ele>
        <time>2013-07-07T05:55:31Z</time>
      </trkpt>
      <trkpt lat="43.68376" lon="3.11561">
        <ele>366</ele>
        <time>2013-07-07T05:55:32Z</time>
      </trkpt>
      <trkpt lat="43.68378" lon="3.11562">
        <ele>366.3999939</ele>
        <time>2013-07-07T05:55:33Z</time>
      </trkpt>
      <trkpt lat="43.68379" lon="3.11562">
        <ele>366.7999878</ele>
        <time>2013-07-07T05:55:34Z</time>
      </trkpt>
      <trkpt lat="43.68381" lon="3.11563">
        <ele>367.2000122</ele>
        <time>2013-07-07T05:55:35Z</time>
      </trkpt>
      <trkpt lat="43.68383" lon="3.11563">
        <ele>367.6000061</ele>
        <time>2013-07-07T05:55:36Z</time>
      </trkpt>
      <trkpt lat="43.68387" lon="3.11565">
        <ele>367.6000061</ele>
        <time>2013-07-07T05:55:38Z</time>
      </trkpt>
      <trkpt lat="43.68394" lon="3.11569">
        <ele>367.6000061</ele>
        <time>2013-07-07T05:55:42Z</time>
      </trkpt>
      <trkpt lat="43.684" lon="3.11574">
        <ele>368</ele>
        <time>2013-07-07T05:55:46Z</time>
      </trkpt>
      <trkpt lat="43.68402" lon="3.11575">
        <ele>368.3999939</ele>
        <time>2013-07-07T05:55:47Z</time>
      </trkpt>
      <trkpt lat="43.68404" lon="3.11576">
        <ele>368.7999878</ele>
        <time>2013-07-07T05:55:48Z</time>
      </trkpt>
      <trkpt lat="43.68405" lon="3.11578">
        <ele>369.2000122</ele>
        <time>2013-07-07T05:55:49Z</time>
      </trkpt>
      <trkpt lat="43.68407" lon="3.1158">
        <ele>369.6000061</ele>
        <time>2013-07-07T05:55:50Z</time>
      </trkpt>
      <trkpt lat="43.68418" lon="3.11588">
        <ele>369.6000061</ele>
        <time>2013-07-07T05:55:56Z</time>
      </trkpt>
      <trkpt lat="43.68425" lon="3.11597">
        <ele>370.2000122</ele>
        <time>2013-07-07T05:56:01Z</time>
      </trkpt>
      <trkpt lat="43.68426" lon="3.11599">
        <ele>370.6000061</ele>
        <time>2013-07-07T05:56:02Z</time>
      </trkpt>
      <trkpt lat="43.68428" lon="3.11601">
        <ele>371</ele>
        <time>2013-07-07T05:56:03Z</time>
      </trkpt>
      <trkpt lat="43.68429" lon="3.11603">
        <ele>371.6000061</ele>
        <time>2013-07-07T05:56:04Z</time>
      </trkpt>
      <trkpt lat="43.68431" lon="3.11605">
        <ele>372</ele>
        <time>2013-07-07T05:56:05Z</time>
      </trkpt>
      <trkpt lat="43.68439" lon="3.11616">
        <ele>372</ele>
        <time>2013-07-07T05:56:11Z</time>
      </trkpt>
      <trkpt lat="43.68445" lon="3.11624">
        <ele>372.3999939</ele>
        <time>2013-07-07T05:56:15Z</time>
      </trkpt>
      <trkpt lat="43.68446" lon="3.11625">
        <ele>372.7999878</ele>
        <time>2013-07-07T05:56:16Z</time>
      </trkpt>
      <trkpt lat="43.68448" lon="3.11627">
        <ele>373.2000122</ele>
        <time>2013-07-07T05:56:17Z</time>
      </trkpt>
      <trkpt lat="43.6845" lon="3.11629">
        <ele>373.6000061</ele>
        <time>2013-07-07T05:56:18Z</time>
      </trkpt>
      <trkpt lat="43.68451" lon="3.1163">
        <ele>374</ele>
        <time>2013-07-07T05:56:19Z</time>
      </trkpt>
      <trkpt lat="43.68462" lon="3.1164">
        <ele>374</ele>
        <time>2013-07-07T05:56:25Z</time>
      </trkpt>
      <trkpt lat="43.68464" lon="3.11641">
        <ele>374.3999939</ele>
        <time>2013-07-07T05:56:26Z</time>
      </trkpt>
      <trkpt lat="43.68465" lon="3.11642">
        <ele>374.7999878</ele>
        <time>2013-07-07T05:56:27Z</time>
      </trkpt>
      <trkpt lat="43.68467" lon="3.11644">
        <ele>375.2000122</ele>
        <time>2013-07-07T05:56:28Z</time>
      </trkpt>
      <trkpt lat="43.68468" lon="3.11646">
        <ele>375.7999878</ele>
        <time>2013-07-07T05:56:29Z</time>
      </trkpt>
      <trkpt lat="43.68469" lon="3.11648">
        <ele>376.2000122</ele>
        <time>2013-07-07T05:56:30Z</time>
      </trkpt>
      <trkpt lat="43.6847" lon="3.11649">
        <ele>376.2000122</ele>
        <time>2013-07-07T05:56:31Z</time>
      </trkpt>
      <trkpt lat="43.6848" lon="3.11657">
        <ele>376.2000122</ele>
        <time>2013-07-07T05:56:37Z</time>
      </trkpt>
      <trkpt lat="43.68481" lon="3.11659">
        <ele>376.6000061</ele>
        <time>2013-07-07T05:56:38Z</time>
      </trkpt>
      <trkpt lat="43.68483" lon="3.1166">
        <ele>377</ele>
        <time>2013-07-07T05:56:39Z</time>
      </trkpt>
      <trkpt lat="43.68484" lon="3.11662">
        <ele>377.3999939</ele>
        <time>2013-07-07T05:56:40Z</time>
      </trkpt>
      <trkpt lat="43.68486" lon="3.11664">
        <ele>377.7999878</ele>
        <time>2013-07-07T05:56:41Z</time>
      </trkpt>
      <trkpt lat="43.68487" lon="3.11665">
        <ele>378.2000122</ele>
        <time>2013-07-07T05:56:42Z</time>
      </trkpt>
      <trkpt lat="43.68491" lon="3.11671">
        <ele>378.2000122</ele>
        <time>2013-07-07T05:56:46Z</time>
      </trkpt>
      <trkpt lat="43.68496" lon="3.11676">
        <ele>378.6000061</ele>
        <time>2013-07-07T05:56:49Z</time>
      </trkpt>
      <trkpt lat="43.68498" lon="3.11678">
        <ele>379.2000122</ele>
        <time>2013-07-07T05:56:50Z</time>
      </trkpt>
      <trkpt lat="43.685" lon="3.11679">
        <ele>379.6000061</ele>
        <time>2013-07-07T05:56:51Z</time>
      </trkpt>
      <trkpt lat="43.68501" lon="3.11681">
        <ele>380</ele>
        <time>2013-07-07T05:56:52Z</time>
      </trkpt>
      <trkpt lat="43.68503" lon="3.11682">
        <ele>380.3999939</ele>
        <time>2013-07-07T05:56:53Z</time>
      </trkpt>
      <trkpt lat="43.68512" lon="3.1169">
        <ele>380.3999939</ele>
        <time>2013-07-07T05:56:58Z</time>
      </trkpt>
      <trkpt lat="43.68521" lon="3.11698">
        <ele>380.7999878</ele>
        <time>2013-07-07T05:57:04Z</time>
      </trkpt>
      <trkpt lat="43.68523" lon="3.11699">
        <ele>381.2000122</ele>
        <time>2013-07-07T05:57:05Z</time>
      </trkpt>
      <trkpt lat="43.68524" lon="3.11701">
        <ele>381.6000061</ele>
        <time>2013-07-07T05:57:06Z</time>
      </trkpt>
      <trkpt lat="43.68525" lon="3.11703">
        <ele>382</ele>
        <time>2013-07-07T05:57:07Z</time>
      </trkpt>
      <trkpt lat="43.68527" lon="3.11705">
        <ele>382.3999939</ele>
        <time>2013-07-07T05:57:08Z</time>
      </trkpt>
      <trkpt lat="43.68534" lon="3.11711">
        <ele>382.3999939</ele>
        <time>2013-07-07T05:57:12Z</time>
      </trkpt>
      <trkpt lat="43.68544" lon="3.11725">
        <ele>382.3999939</ele>
        <time>2013-07-07T05:57:19Z</time>
      </trkpt>
      <trkpt lat="43.68545" lon="3.11726">
        <ele>382.7999878</ele>
        <time>2013-07-07T05:57:20Z</time>
      </trkpt>
      <trkpt lat="43.68547" lon="3.11728">
        <ele>383.2000122</ele>
        <time>2013-07-07T05:57:21Z</time>
      </trkpt>
      <trkpt lat="43.68547" lon="3.11729">
        <ele>384</ele>
        <time>2013-07-07T05:57:22Z</time>
      </trkpt>
      <trkpt lat="43.68549" lon="3.11731">
        <ele>384.6000061</ele>
        <time>2013-07-07T05:57:23Z</time>
      </trkpt>
      <trkpt lat="43.68549" lon="3.11734">
        <ele>384.6000061</ele>
        <time>2013-07-07T05:57:24Z</time>
      </trkpt>
      <trkpt lat="43.68549" lon="3.1174">
        <ele>384.6000061</ele>
        <time>2013-07-07T05:57:26Z</time>
      </trkpt>
      <trkpt lat="43.68545" lon="3.11746">
        <ele>384.6000061</ele>
        <time>2013-07-07T05:57:29Z</time>
      </trkpt>
      <trkpt lat="43.68535" lon="3.11743">
        <ele>385</ele>
        <time>2013-07-07T05:57:34Z</time>
      </trkpt>
      <trkpt lat="43.68533" lon="3.11742">
        <ele>385.3999939</ele>
        <time>2013-07-07T05:57:35Z</time>
      </trkpt>
      <trkpt lat="43.68531" lon="3.11739">
        <ele>385.7999878</ele>
        <time>2013-07-07T05:57:36Z</time>
      </trkpt>
      <trkpt lat="43.6853" lon="3.11738">
        <ele>386.2000122</ele>
        <time>2013-07-07T05:57:37Z</time>
      </trkpt>
      <trkpt lat="43.68529" lon="3.11735">
        <ele>386.6000061</ele>
        <time>2013-07-07T05:57:38Z</time>
      </trkpt>
      <trkpt lat="43.68528" lon="3.11733">
        <ele>386.6000061</ele>
        <time>2013-07-07T05:57:39Z</time>
      </trkpt>
      <trkpt lat="43.68518" lon="3.11721">
        <ele>386.6000061</ele>
        <time>2013-07-07T05:57:45Z</time>
      </trkpt>
      <trkpt lat="43.68505" lon="3.11708">
        <ele>386.6000061</ele>
        <time>2013-07-07T05:57:51Z</time>
      </trkpt>
      <trkpt lat="43.68494" lon="3.11702">
        <ele>387</ele>
        <time>2013-07-07T05:57:56Z</time>
      </trkpt>
      <trkpt lat="43.68492" lon="3.117">
        <ele>387.3999939</ele>
        <time>2013-07-07T05:57:57Z</time>
      </trkpt>
      <trkpt lat="43.6849" lon="3.11699">
        <ele>387.7999878</ele>
        <time>2013-07-07T05:57:58Z</time>
      </trkpt>
      <trkpt lat="43.68487" lon="3.11696">
        <ele>388.2000122</ele>
        <time>2013-07-07T05:57:59Z</time>
      </trkpt>
      <trkpt lat="43.68485" lon="3.11695">
        <ele>388.6000061</ele>
        <time>2013-07-07T05:58:00Z</time>
      </trkpt>
      <trkpt lat="43.68481" lon="3.1169">
        <ele>388.6000061</ele>
        <time>2013-07-07T05:58:03Z</time>
      </trkpt>
      <trkpt lat="43.68471" lon="3.11681">
        <ele>388.6000061</ele>
        <time>2013-07-07T05:58:09Z</time>
      </trkpt>
      <trkpt lat="43.68456" lon="3.11671">
        <ele>388.6000061</ele>
        <time>2013-07-07T05:58:16Z</time>
      </trkpt>
      <trkpt lat="43.68453" lon="3.1167">
        <ele>389</ele>
        <time>2013-07-07T05:58:17Z</time>
      </trkpt>
      <trkpt lat="43.68451" lon="3.11669">
        <ele>389.3999939</ele>
        <time>2013-07-07T05:58:18Z</time>
      </trkpt>
      <trkpt lat="43.68449" lon="3.11667">
        <ele>389.7999878</ele>
        <time>2013-07-07T05:58:19Z</time>
      </trkpt>
      <trkpt lat="43.68447" lon="3.11666">
        <ele>390.2000122</ele>
        <time>2013-07-07T05:58:20Z</time>
      </trkpt>
      <trkpt lat="43.68445" lon="3.11664">
        <ele>390.7999878</ele>
        <time>2013-07-07T05:58:21Z</time>
      </trkpt>
      <trkpt lat="43.68433" lon="3.11657">
        <ele>390.7999878</ele>
        <time>2013-07-07T05:58:26Z</time>
      </trkpt>
      <trkpt lat="43.68418" lon="3.11647">
        <ele>390.7999878</ele>
        <time>2013-07-07T05:58:33Z</time>
      </trkpt>
      <trkpt lat="43.68413" lon="3.11644">
        <ele>391.2000122</ele>
        <time>2013-07-07T05:58:35Z</time>
      </trkpt>
      <trkpt lat="43.68411" lon="3.11643">
        <ele>392</ele>
        <time>2013-07-07T05:58:36Z</time>
      </trkpt>
      <trkpt lat="43.68409" lon="3.11641">
        <ele>392.3999939</ele>
        <time>2013-07-07T05:58:37Z</time>
      </trkpt>
      <trkpt lat="43.68407" lon="3.11639">
        <ele>392.7999878</ele>
        <time>2013-07-07T05:58:38Z</time>
      </trkpt>
      <trkpt lat="43.68403" lon="3.11637">
        <ele>392.7999878</ele>
        <time>2013-07-07T05:58:40Z</time>
      </trkpt>
      <trkpt lat="43.68387" lon="3.11624">
        <ele>392.7999878</ele>
        <time>2013-07-07T05:58:48Z</time>
      </trkpt>
      <trkpt lat="43.68382" lon="3.11622">
        <ele>393.2000122</ele>
        <time>2013-07-07T05:58:50Z</time>
      </trkpt>
      <trkpt lat="43.6838" lon="3.11621">
        <ele>393.6000061</ele>
        <time>2013-07-07T05:58:51Z</time>
      </trkpt>
      <trkpt lat="43.68378" lon="3.1162">
        <ele>394</ele>
        <time>2013-07-07T05:58:52Z</time>
      </trkpt>
      <trkpt lat="43.68375" lon="3.11619">
        <ele>394.3999939</ele>
        <time>2013-07-07T05:58:53Z</time>
      </trkpt>
      <trkpt lat="43.68373" lon="3.11618">
        <ele>394.7999878</ele>
        <time>2013-07-07T05:58:54Z</time>
      </trkpt>
      <trkpt lat="43.68364" lon="3.11615">
        <ele>394.7999878</ele>
        <time>2013-07-07T05:58:58Z</time>
      </trkpt>
      <trkpt lat="43.68353" lon="3.11615">
        <ele>394.7999878</ele>
        <time>2013-07-07T05:59:02Z</time>
      </trkpt>
      <trkpt lat="43.68343" lon="3.11613">
        <ele>395.2000122</ele>
        <time>2013-07-07T05:59:06Z</time>
      </trkpt>
      <trkpt lat="43.6834" lon="3.11613">
        <ele>395.6000061</ele>
        <time>2013-07-07T05:59:07Z</time>
      </trkpt>
      <trkpt lat="43.68338" lon="3.11612">
        <ele>396</ele>
        <time>2013-07-07T05:59:08Z</time>
      </trkpt>
      <trkpt lat="43.68335" lon="3.11609">
        <ele>396.3999939</ele>
        <time>2013-07-07T05:59:09Z</time>
      </trkpt>
      <trkpt lat="43.68332" lon="3.1161">
        <ele>397</ele>
        <time>2013-07-07T05:59:10Z</time>
      </trkpt>
      <trkpt lat="43.68324" lon="3.11608">
        <ele>397</ele>
        <time>2013-07-07T05:59:13Z</time>
      </trkpt>
      <trkpt lat="43.68309" lon="3.11604">
        <ele>397.3999939</ele>
        <time>2013-07-07T05:59:19Z</time>
      </trkpt>
      <trkpt lat="43.68307" lon="3.11603">
        <ele>397.7999878</ele>
        <time>2013-07-07T05:59:20Z</time>
      </trkpt>
      <trkpt lat="43.68304" lon="3.11603">
        <ele>398.2000122</ele>
        <time>2013-07-07T05:59:21Z</time>
      </trkpt>
      <trkpt lat="43.68302" lon="3.11603">
        <ele>398.6000061</ele>
        <time>2013-07-07T05:59:22Z</time>
      </trkpt>
      <trkpt lat="43.683" lon="3.11602">
        <ele>399</ele>
        <time>2013-07-07T05:59:23Z</time>
      </trkpt>
      <trkpt lat="43.6829" lon="3.116">
        <ele>399</ele>
        <time>2013-07-07T05:59:27Z</time>
      </trkpt>
      <trkpt lat="43.68278" lon="3.11596">
        <ele>399</ele>
        <time>2013-07-07T05:59:33Z</time>
      </trkpt>
      <trkpt lat="43.68271" lon="3.11594">
        <ele>399.3999939</ele>
        <time>2013-07-07T05:59:36Z</time>
      </trkpt>
      <trkpt lat="43.68269" lon="3.11593">
        <ele>399.7999878</ele>
        <time>2013-07-07T05:59:37Z</time>
      </trkpt>
      <trkpt lat="43.68267" lon="3.11592">
        <ele>400.2000122</ele>
        <time>2013-07-07T05:59:38Z</time>
      </trkpt>
      <trkpt lat="43.68264" lon="3.11591">
        <ele>400.6000061</ele>
        <time>2013-07-07T05:59:39Z</time>
      </trkpt>
      <trkpt lat="43.68262" lon="3.1159">
        <ele>401.2000122</ele>
        <time>2013-07-07T05:59:40Z</time>
      </trkpt>
      <trkpt lat="43.6826" lon="3.1159">
        <ele>401.2000122</ele>
        <time>2013-07-07T05:59:41Z</time>
      </trkpt>
      <trkpt lat="43.68235" lon="3.11586">
        <ele>401.6000061</ele>
        <time>2013-07-07T05:59:51Z</time>
      </trkpt>
      <trkpt lat="43.68232" lon="3.11586">
        <ele>402</ele>
        <time>2013-07-07T05:59:52Z</time>
      </trkpt>
      <trkpt lat="43.68229" lon="3.11585">
        <ele>402.3999939</ele>
        <time>2013-07-07T05:59:53Z</time>
      </trkpt>
      <trkpt lat="43.68227" lon="3.11584">
        <ele>402.7999878</ele>
        <time>2013-07-07T05:59:54Z</time>
      </trkpt>
      <trkpt lat="43.68225" lon="3.11583">
        <ele>403.2000122</ele>
        <time>2013-07-07T05:59:55Z</time>
      </trkpt>
      <trkpt lat="43.68216" lon="3.11578">
        <ele>403.2000122</ele>
        <time>2013-07-07T05:59:59Z</time>
      </trkpt>
      <trkpt lat="43.68209" lon="3.11574">
        <ele>403.6000061</ele>
        <time>2013-07-07T06:00:02Z</time>
      </trkpt>
      <trkpt lat="43.68207" lon="3.11573">
        <ele>404</ele>
        <time>2013-07-07T06:00:03Z</time>
      </trkpt>
      <trkpt lat="43.68204" lon="3.11572">
        <ele>404.3999939</ele>
        <time>2013-07-07T06:00:04Z</time>
      </trkpt>
      <trkpt lat="43.68202" lon="3.11571">
        <ele>404.7999878</ele>
        <time>2013-07-07T06:00:05Z</time>
      </trkpt>
      <trkpt lat="43.68199" lon="3.11571">
        <ele>405.2000122</ele>
        <time>2013-07-07T06:00:06Z</time>
      </trkpt>
      <trkpt lat="43.68196" lon="3.1157">
        <ele>405.2000122</ele>
        <time>2013-07-07T06:00:07Z</time>
      </trkpt>
      <trkpt lat="43.68176" lon="3.11569">
        <ele>406</ele>
        <time>2013-07-07T06:00:15Z</time>
      </trkpt>
      <trkpt lat="43.68173" lon="3.1157">
        <ele>406.6000061</ele>
        <time>2013-07-07T06:00:16Z</time>
      </trkpt>
      <trkpt lat="43.68171" lon="3.11571">
        <ele>407</ele>
        <time>2013-07-07T06:00:17Z</time>
      </trkpt>
      <trkpt lat="43.68168" lon="3.11572">
        <ele>407.3999939</ele>
        <time>2013-07-07T06:00:18Z</time>
      </trkpt>
      <trkpt lat="43.6816" lon="3.11574">
        <ele>407.3999939</ele>
        <time>2013-07-07T06:00:21Z</time>
      </trkpt>
      <trkpt lat="43.68148" lon="3.11579">
        <ele>407.7999878</ele>
        <time>2013-07-07T06:00:26Z</time>
      </trkpt>
      <trkpt lat="43.68145" lon="3.1158">
        <ele>408.2000122</ele>
        <time>2013-07-07T06:00:27Z</time>
      </trkpt>
      <trkpt lat="43.68143" lon="3.11581">
        <ele>408.6000061</ele>
        <time>2013-07-07T06:00:28Z</time>
      </trkpt>
      <trkpt lat="43.68141" lon="3.11583">
        <ele>409</ele>
        <time>2013-07-07T06:00:29Z</time>
      </trkpt>
      <trkpt lat="43.68138" lon="3.11584">
        <ele>409.3999939</ele>
        <time>2013-07-07T06:00:30Z</time>
      </trkpt>
      <trkpt lat="43.68128" lon="3.11595">
        <ele>409.3999939</ele>
        <time>2013-07-07T06:00:35Z</time>
      </trkpt>
      <trkpt lat="43.6812" lon="3.11606">
        <ele>410.2000122</ele>
        <time>2013-07-07T06:00:40Z</time>
      </trkpt>
      <trkpt lat="43.68119" lon="3.11609">
        <ele>410.6000061</ele>
        <time>2013-07-07T06:00:41Z</time>
      </trkpt>
      <trkpt lat="43.68118" lon="3.11612">
        <ele>411</ele>
        <time>2013-07-07T06:00:42Z</time>
      </trkpt>
      <trkpt lat="43.68117" lon="3.11615">
        <ele>411.3999939</ele>
        <time>2013-07-07T06:00:43Z</time>
      </trkpt>
      <trkpt lat="43.68108" lon="3.1163">
        <ele>411.3999939</ele>
        <time>2013-07-07T06:00:49Z</time>
      </trkpt>
      <trkpt lat="43.68105" lon="3.11634">
        <ele>411.7999878</ele>
        <time>2013-07-07T06:00:51Z</time>
      </trkpt>
      <trkpt lat="43.68103" lon="3.11636">
        <ele>412.2000122</ele>
        <time>2013-07-07T06:00:52Z</time>
      </trkpt>
      <trkpt lat="43.68102" lon="3.11638">
        <ele>412.6000061</ele>
        <time>2013-07-07T06:00:53Z</time>
      </trkpt>
      <trkpt lat="43.681" lon="3.1164">
        <ele>413</ele>
        <time>2013-07-07T06:00:54Z</time>
      </trkpt>
      <trkpt lat="43.68098" lon="3.11641">
        <ele>413.6000061</ele>
        <time>2013-07-07T06:00:55Z</time>
      </trkpt>
      <trkpt lat="43.68097" lon="3.11643">
        <ele>413.6000061</ele>
        <time>2013-07-07T06:00:56Z</time>
      </trkpt>
      <trkpt lat="43.68086" lon="3.11654">
        <ele>414</ele>
        <time>2013-07-07T06:01:03Z</time>
      </trkpt>
      <trkpt lat="43.68084" lon="3.11656">
        <ele>414.3999939</ele>
        <time>2013-07-07T06:01:04Z</time>
      </trkpt>
      <trkpt lat="43.68082" lon="3.11657">
        <ele>415.2000122</ele>
        <time>2013-07-07T06:01:05Z</time>
      </trkpt>
      <trkpt lat="43.68081" lon="3.11658">
        <ele>415.7999878</ele>
        <time>2013-07-07T06:01:06Z</time>
      </trkpt>
      <trkpt lat="43.68073" lon="3.11661">
        <ele>415.7999878</ele>
        <time>2013-07-07T06:01:10Z</time>
      </trkpt>
      <trkpt lat="43.68064" lon="3.11666">
        <ele>416.2000122</ele>
        <time>2013-07-07T06:01:15Z</time>
      </trkpt>
      <trkpt lat="43.68062" lon="3.11667">
        <ele>416.6000061</ele>
        <time>2013-07-07T06:01:16Z</time>
      </trkpt>
      <trkpt lat="43.6806" lon="3.11668">
        <ele>417</ele>
        <time>2013-07-07T06:01:17Z</time>
      </trkpt>
      <trkpt lat="43.68058" lon="3.11668">
        <ele>417.3999939</ele>
        <time>2013-07-07T06:01:18Z</time>
      </trkpt>
      <trkpt lat="43.68055" lon="3.11669">
        <ele>417.7999878</ele>
        <time>2013-07-07T06:01:19Z</time>
      </trkpt>
      <trkpt lat="43.68043" lon="3.11667">
        <ele>417.7999878</ele>
        <time>2013-07-07T06:01:25Z</time>
      </trkpt>
      <trkpt lat="43.68041" lon="3.11666">
        <ele>418.2000122</ele>
        <time>2013-07-07T06:01:26Z</time>
      </trkpt>
      <trkpt lat="43.68039" lon="3.11664">
        <ele>418.6000061</ele>
        <time>2013-07-07T06:01:27Z</time>
      </trkpt>
      <trkpt lat="43.68037" lon="3.11663">
        <ele>419</ele>
        <time>2013-07-07T06:01:28Z</time>
      </trkpt>
      <trkpt lat="43.68036" lon="3.11662">
        <ele>420</ele>
        <time>2013-07-07T06:01:29Z</time>
      </trkpt>
      <trkpt lat="43.68028" lon="3.11658">
        <ele>420</ele>
        <time>2013-07-07T06:01:33Z</time>
      </trkpt>
      <trkpt lat="43.68025" lon="3.11657">
        <ele>420.3999939</ele>
        <time>2013-07-07T06:01:35Z</time>
      </trkpt>
      <trkpt lat="43.68023" lon="3.11656">
        <ele>420.7999878</ele>
        <time>2013-07-07T06:01:36Z</time>
      </trkpt>
      <trkpt lat="43.68021" lon="3.11655">
        <ele>421.2000122</ele>
        <time>2013-07-07T06:01:37Z</time>
      </trkpt>
      <trkpt lat="43.68019" lon="3.11655">
        <ele>421.6000061</ele>
        <time>2013-07-07T06:01:38Z</time>
      </trkpt>
      <trkpt lat="43.68017" lon="3.11655">
        <ele>422</ele>
        <time>2013-07-07T06:01:39Z</time>
      </trkpt>
      <trkpt lat="43.68015" lon="3.11654">
        <ele>422</ele>
        <time>2013-07-07T06:01:40Z</time>
      </trkpt>
      <trkpt lat="43.68001" lon="3.11656">
        <ele>422</ele>
        <time>2013-07-07T06:01:47Z</time>
      </trkpt>
      <trkpt lat="43.67999" lon="3.11657">
        <ele>422.3999939</ele>
        <time>2013-07-07T06:01:48Z</time>
      </trkpt>
      <trkpt lat="43.67997" lon="3.11658">
        <ele>422.7999878</ele>
        <time>2013-07-07T06:01:49Z</time>
      </trkpt>
      <trkpt lat="43.67995" lon="3.11659">
        <ele>423.2000122</ele>
        <time>2013-07-07T06:01:50Z</time>
      </trkpt>
      <trkpt lat="43.67993" lon="3.11659">
        <ele>423.6000061</ele>
        <time>2013-07-07T06:01:51Z</time>
      </trkpt>
      <trkpt lat="43.67991" lon="3.1166">
        <ele>424.2000122</ele>
        <time>2013-07-07T06:01:52Z</time>
      </trkpt>
      <trkpt lat="43.67986" lon="3.11664">
        <ele>424.2000122</ele>
        <time>2013-07-07T06:01:55Z</time>
      </trkpt>
      <trkpt lat="43.67977" lon="3.1167">
        <ele>424.6000061</ele>
        <time>2013-07-07T06:02:00Z</time>
      </trkpt>
      <trkpt lat="43.67975" lon="3.11672">
        <ele>425</ele>
        <time>2013-07-07T06:02:01Z</time>
      </trkpt>
      <trkpt lat="43.67973" lon="3.11674">
        <ele>425.3999939</ele>
        <time>2013-07-07T06:02:02Z</time>
      </trkpt>
      <trkpt lat="43.67972" lon="3.11675">
        <ele>425.7999878</ele>
        <time>2013-07-07T06:02:03Z</time>
      </trkpt>
      <trkpt lat="43.6797" lon="3.11677">
        <ele>426.2000122</ele>
        <time>2013-07-07T06:02:04Z</time>
      </trkpt>
      <trkpt lat="43.67962" lon="3.11686">
        <ele>426.2000122</ele>
        <time>2013-07-07T06:02:09Z</time>
      </trkpt>
      <trkpt lat="43.67956" lon="3.11694">
        <ele>426.6000061</ele>
        <time>2013-07-07T06:02:13Z</time>
      </trkpt>
      <trkpt lat="43.67955" lon="3.11696">
        <ele>427</ele>
        <time>2013-07-07T06:02:14Z</time>
      </trkpt>
      <trkpt lat="43.67954" lon="3.11699">
        <ele>427.6000061</ele>
        <time>2013-07-07T06:02:15Z</time>
      </trkpt>
      <trkpt lat="43.67953" lon="3.11702">
        <ele>428</ele>
        <time>2013-07-07T06:02:16Z</time>
      </trkpt>
      <trkpt lat="43.67952" lon="3.11705">
        <ele>428.3999939</ele>
        <time>2013-07-07T06:02:17Z</time>
      </trkpt>
      <trkpt lat="43.67946" lon="3.11726">
        <ele>428.3999939</ele>
        <time>2013-07-07T06:02:25Z</time>
      </trkpt>
      <trkpt lat="43.67943" lon="3.11741">
        <ele>428.7999878</ele>
        <time>2013-07-07T06:02:30Z</time>
      </trkpt>
      <trkpt lat="43.67943" lon="3.11744">
        <ele>429.2000122</ele>
        <time>2013-07-07T06:02:31Z</time>
      </trkpt>
      <trkpt lat="43.67942" lon="3.11747">
        <ele>429.6000061</ele>
        <time>2013-07-07T06:02:32Z</time>
      </trkpt>
      <trkpt lat="43.67941" lon="3.1175">
        <ele>430</ele>
        <time>2013-07-07T06:02:33Z</time>
      </trkpt>
      <trkpt lat="43.6794" lon="3.11752">
        <ele>430.6000061</ele>
        <time>2013-07-07T06:02:34Z</time>
      </trkpt>
      <trkpt lat="43.67933" lon="3.11764">
        <ele>430.6000061</ele>
        <time>2013-07-07T06:02:39Z</time>
      </trkpt>
      <trkpt lat="43.67927" lon="3.11768">
        <ele>431</ele>
        <time>2013-07-07T06:02:42Z</time>
      </trkpt>
      <trkpt lat="43.67926" lon="3.11769">
        <ele>431.3999939</ele>
        <time>2013-07-07T06:02:43Z</time>
      </trkpt>
      <trkpt lat="43.67924" lon="3.11771">
        <ele>432.2000122</ele>
        <time>2013-07-07T06:02:44Z</time>
      </trkpt>
      <trkpt lat="43.67923" lon="3.11772">
        <ele>432.6000061</ele>
        <time>2013-07-07T06:02:45Z</time>
      </trkpt>
      <trkpt lat="43.6791" lon="3.11784">
        <ele>432.6000061</ele>
        <time>2013-07-07T06:02:52Z</time>
      </trkpt>
      <trkpt lat="43.67908" lon="3.11786">
        <ele>433</ele>
        <time>2013-07-07T06:02:53Z</time>
      </trkpt>
      <trkpt lat="43.67906" lon="3.11788">
        <ele>433.3999939</ele>
        <time>2013-07-07T06:02:54Z</time>
      </trkpt>
      <trkpt lat="43.67904" lon="3.1179">
        <ele>433.7999878</ele>
        <time>2013-07-07T06:02:55Z</time>
      </trkpt>
      <trkpt lat="43.67903" lon="3.11793">
        <ele>434.2000122</ele>
        <time>2013-07-07T06:02:56Z</time>
      </trkpt>
      <trkpt lat="43.67901" lon="3.11794">
        <ele>434.6000061</ele>
        <time>2013-07-07T06:02:57Z</time>
      </trkpt>
      <trkpt lat="43.67897" lon="3.118">
        <ele>434.6000061</ele>
        <time>2013-07-07T06:03:00Z</time>
      </trkpt>
      <trkpt lat="43.67892" lon="3.11811">
        <ele>435</ele>
        <time>2013-07-07T06:03:04Z</time>
      </trkpt>
      <trkpt lat="43.67892" lon="3.11814">
        <ele>435.3999939</ele>
        <time>2013-07-07T06:03:05Z</time>
      </trkpt>
      <trkpt lat="43.67891" lon="3.11816">
        <ele>435.7999878</ele>
        <time>2013-07-07T06:03:06Z</time>
      </trkpt>
      <trkpt lat="43.67891" lon="3.11819">
        <ele>436.2000122</ele>
        <time>2013-07-07T06:03:07Z</time>
      </trkpt>
      <trkpt lat="43.67891" lon="3.11822">
        <ele>436.6000061</ele>
        <time>2013-07-07T06:03:08Z</time>
      </trkpt>
      <trkpt lat="43.67891" lon="3.11833">
        <ele>436.6000061</ele>
        <time>2013-07-07T06:03:12Z</time>
      </trkpt>
      <trkpt lat="43.67891" lon="3.11844">
        <ele>437</ele>
        <time>2013-07-07T06:03:16Z</time>
      </trkpt>
      <trkpt lat="43.67891" lon="3.11847">
        <ele>437.6000061</ele>
        <time>2013-07-07T06:03:17Z</time>
      </trkpt>
      <trkpt lat="43.67891" lon="3.1185">
        <ele>438</ele>
        <time>2013-07-07T06:03:18Z</time>
      </trkpt>
      <trkpt lat="43.67892" lon="3.11853">
        <ele>438.3999939</ele>
        <time>2013-07-07T06:03:19Z</time>
      </trkpt>
      <trkpt lat="43.67892" lon="3.11856">
        <ele>438.7999878</ele>
        <time>2013-07-07T06:03:20Z</time>
      </trkpt>
      <trkpt lat="43.67895" lon="3.11875">
        <ele>438.7999878</ele>
        <time>2013-07-07T06:03:27Z</time>
      </trkpt>
      <trkpt lat="43.67896" lon="3.11883">
        <ele>439.2000122</ele>
        <time>2013-07-07T06:03:30Z</time>
      </trkpt>
      <trkpt lat="43.67897" lon="3.11886">
        <ele>439.6000061</ele>
        <time>2013-07-07T06:03:31Z</time>
      </trkpt>
      <trkpt lat="43.67897" lon="3.11888">
        <ele>440</ele>
        <time>2013-07-07T06:03:32Z</time>
      </trkpt>
      <trkpt lat="43.67898" lon="3.11891">
        <ele>440.7999878</ele>
        <time>2013-07-07T06:03:33Z</time>
      </trkpt>
      <trkpt lat="43.67898" lon="3.11897">
        <ele>440.7999878</ele>
        <time>2013-07-07T06:03:35Z</time>
      </trkpt>
      <trkpt lat="43.67901" lon="3.11914">
        <ele>441.2000122</ele>
        <time>2013-07-07T06:03:41Z</time>
      </trkpt>
      <trkpt lat="43.67902" lon="3.11917">
        <ele>441.6000061</ele>
        <time>2013-07-07T06:03:42Z</time>
      </trkpt>
      <trkpt lat="43.67902" lon="3.11921">
        <ele>442</ele>
        <time>2013-07-07T06:03:43Z</time>
      </trkpt>
      <trkpt lat="43.67903" lon="3.11924">
        <ele>442.3999939</ele>
        <time>2013-07-07T06:03:44Z</time>
      </trkpt>
      <trkpt lat="43.67903" lon="3.11927">
        <ele>442.7999878</ele>
        <time>2013-07-07T06:03:45Z</time>
      </trkpt>
      <trkpt lat="43.67905" lon="3.11938">
        <ele>442.7999878</ele>
        <time>2013-07-07T06:03:49Z</time>
      </trkpt>
      <trkpt lat="43.67907" lon="3.11947">
        <ele>443.3999939</ele>
        <time>2013-07-07T06:03:52Z</time>
      </trkpt>
      <trkpt lat="43.67907" lon="3.1195">
        <ele>443.7999878</ele>
        <time>2013-07-07T06:03:53Z</time>
      </trkpt>
      <trkpt lat="43.67908" lon="3.11953">
        <ele>444.2000122</ele>
        <time>2013-07-07T06:03:54Z</time>
      </trkpt>
      <trkpt lat="43.67908" lon="3.11956">
        <ele>444.6000061</ele>
        <time>2013-07-07T06:03:55Z</time>
      </trkpt>
      <trkpt lat="43.67909" lon="3.11959">
        <ele>445</ele>
        <time>2013-07-07T06:03:56Z</time>
      </trkpt>
      <trkpt lat="43.67914" lon="3.11977">
        <ele>445.3999939</ele>
        <time>2013-07-07T06:04:03Z</time>
      </trkpt>
      <trkpt lat="43.67915" lon="3.1198">
        <ele>445.7999878</ele>
        <time>2013-07-07T06:04:04Z</time>
      </trkpt>
      <trkpt lat="43.67916" lon="3.11982">
        <ele>446.2000122</ele>
        <time>2013-07-07T06:04:05Z</time>
      </trkpt>
      <trkpt lat="43.67917" lon="3.11985">
        <ele>446.6000061</ele>
        <time>2013-07-07T06:04:06Z</time>
      </trkpt>
      <trkpt lat="43.67917" lon="3.11987">
        <ele>447.2000122</ele>
        <time>2013-07-07T06:04:07Z</time>
      </trkpt>
      <trkpt lat="43.67922" lon="3.11998">
        <ele>447.2000122</ele>
        <time>2013-07-07T06:04:11Z</time>
      </trkpt>
      <trkpt lat="43.67927" lon="3.12009">
        <ele>447.6000061</ele>
        <time>2013-07-07T06:04:15Z</time>
      </trkpt>
      <trkpt lat="43.67928" lon="3.12011">
        <ele>448</ele>
        <time>2013-07-07T06:04:16Z</time>
      </trkpt>
      <trkpt lat="43.67929" lon="3.12013">
        <ele>448.3999939</ele>
        <time>2013-07-07T06:04:17Z</time>
      </trkpt>
      <trkpt lat="43.6793" lon="3.12015">
        <ele>448.7999878</ele>
        <time>2013-07-07T06:04:18Z</time>
      </trkpt>
      <trkpt lat="43.67931" lon="3.12017">
        <ele>449.2000122</ele>
        <time>2013-07-07T06:04:19Z</time>
      </trkpt>
      <trkpt lat="43.67933" lon="3.1202">
        <ele>449.2000122</ele>
        <time>2013-07-07T06:04:20Z</time>
      </trkpt>
      <trkpt lat="43.67939" lon="3.12035">
        <ele>449.6000061</ele>
        <time>2013-07-07T06:04:26Z</time>
      </trkpt>
      <trkpt lat="43.67939" lon="3.12037">
        <ele>450</ele>
        <time>2013-07-07T06:04:27Z</time>
      </trkpt>
      <trkpt lat="43.67941" lon="3.1204">
        <ele>450.3999939</ele>
        <time>2013-07-07T06:04:28Z</time>
      </trkpt>
      <trkpt lat="43.67942" lon="3.12043">
        <ele>450.7999878</ele>
        <time>2013-07-07T06:04:29Z</time>
      </trkpt>
      <trkpt lat="43.67943" lon="3.12046">
        <ele>451.2000122</ele>
        <time>2013-07-07T06:04:30Z</time>
      </trkpt>
      <trkpt lat="43.67945" lon="3.12051">
        <ele>451.2000122</ele>
        <time>2013-07-07T06:04:32Z</time>
      </trkpt>
      <trkpt lat="43.6795" lon="3.12067">
        <ele>451.2000122</ele>
        <time>2013-07-07T06:04:38Z</time>
      </trkpt>
      <trkpt lat="43.6795" lon="3.12069">
        <ele>451.6000061</ele>
        <time>2013-07-07T06:04:39Z</time>
      </trkpt>
      <trkpt lat="43.67951" lon="3.12072">
        <ele>452</ele>
        <time>2013-07-07T06:04:40Z</time>
      </trkpt>
      <trkpt lat="43.67952" lon="3.12075">
        <ele>452.3999939</ele>
        <time>2013-07-07T06:04:41Z</time>
      </trkpt>
      <trkpt lat="43.67952" lon="3.12078">
        <ele>452.7999878</ele>
        <time>2013-07-07T06:04:42Z</time>
      </trkpt>
      <trkpt lat="43.67953" lon="3.1208">
        <ele>453.3999939</ele>
        <time>2013-07-07T06:04:43Z</time>
      </trkpt>
      <trkpt lat="43.67954" lon="3.12083">
        <ele>453.3999939</ele>
        <time>2013-07-07T06:04:44Z</time>
      </trkpt>
      <trkpt lat="43.67957" lon="3.12098">
        <ele>453.7999878</ele>
        <time>2013-07-07T06:04:49Z</time>
      </trkpt>
      <trkpt lat="43.67957" lon="3.12101">
        <ele>454.2000122</ele>
        <time>2013-07-07T06:04:50Z</time>
      </trkpt>
      <trkpt lat="43.67958" lon="3.12104">
        <ele>454.6000061</ele>
        <time>2013-07-07T06:04:51Z</time>
      </trkpt>
      <trkpt lat="43.67958" lon="3.12106">
        <ele>455</ele>
        <time>2013-07-07T06:04:52Z</time>
      </trkpt>
      <trkpt lat="43.67957" lon="3.12109">
        <ele>455.3999939</ele>
        <time>2013-07-07T06:04:53Z</time>
      </trkpt>
      <trkpt lat="43.67958" lon="3.12122">
        <ele>455.3999939</ele>
        <time>2013-07-07T06:04:57Z</time>
      </trkpt>
      <trkpt lat="43.67957" lon="3.12131">
        <ele>455.7999878</ele>
        <time>2013-07-07T06:05:00Z</time>
      </trkpt>
      <trkpt lat="43.67957" lon="3.12134">
        <ele>456.2000122</ele>
        <time>2013-07-07T06:05:01Z</time>
      </trkpt>
      <trkpt lat="43.67957" lon="3.12137">
        <ele>456.6000061</ele>
        <time>2013-07-07T06:05:02Z</time>
      </trkpt>
      <trkpt lat="43.67956" lon="3.1214">
        <ele>457</ele>
        <time>2013-07-07T06:05:03Z</time>
      </trkpt>
      <trkpt lat="43.67956" lon="3.12143">
        <ele>457.3999939</ele>
        <time>2013-07-07T06:05:04Z</time>
      </trkpt>
      <trkpt lat="43.67953" lon="3.12162">
        <ele>457.3999939</ele>
        <time>2013-07-07T06:05:10Z</time>
      </trkpt>
      <trkpt lat="43.67951" lon="3.12173">
        <ele>457.7999878</ele>
        <time>2013-07-07T06:05:14Z</time>
      </trkpt>
      <trkpt lat="43.67951" lon="3.12175">
        <ele>458.3999939</ele>
        <time>2013-07-07T06:05:15Z</time>
      </trkpt>
      <trkpt lat="43.6795" lon="3.12179">
        <ele>458.7999878</ele>
        <time>2013-07-07T06:05:16Z</time>
      </trkpt>
      <trkpt lat="43.6795" lon="3.12181">
        <ele>459.2000122</ele>
        <time>2013-07-07T06:05:17Z</time>
      </trkpt>
      <trkpt lat="43.6795" lon="3.12184">
        <ele>459.6000061</ele>
        <time>2013-07-07T06:05:18Z</time>
      </trkpt>
      <trkpt lat="43.67945" lon="3.12207">
        <ele>459.6000061</ele>
        <time>2013-07-07T06:05:26Z</time>
      </trkpt>
      <trkpt lat="43.67944" lon="3.12212">
        <ele>460</ele>
        <time>2013-07-07T06:05:28Z</time>
      </trkpt>
      <trkpt lat="43.67943" lon="3.12215">
        <ele>460.3999939</ele>
        <time>2013-07-07T06:05:29Z</time>
      </trkpt>
      <trkpt lat="43.67942" lon="3.12218">
        <ele>461</ele>
        <time>2013-07-07T06:05:30Z</time>
      </trkpt>
      <trkpt lat="43.67942" lon="3.12221">
        <ele>461.3999939</ele>
        <time>2013-07-07T06:05:31Z</time>
      </trkpt>
      <trkpt lat="43.67941" lon="3.12223">
        <ele>461.7999878</ele>
        <time>2013-07-07T06:05:32Z</time>
      </trkpt>
      <trkpt lat="43.67936" lon="3.12239">
        <ele>461.7999878</ele>
        <time>2013-07-07T06:05:38Z</time>
      </trkpt>
      <trkpt lat="43.67935" lon="3.12242">
        <ele>462.2000122</ele>
        <time>2013-07-07T06:05:39Z</time>
      </trkpt>
      <trkpt lat="43.67935" lon="3.12245">
        <ele>462.6000061</ele>
        <time>2013-07-07T06:05:40Z</time>
      </trkpt>
      <trkpt lat="43.67934" lon="3.12248">
        <ele>463</ele>
        <time>2013-07-07T06:05:41Z</time>
      </trkpt>
      <trkpt lat="43.67933" lon="3.12251">
        <ele>463.3999939</ele>
        <time>2013-07-07T06:05:42Z</time>
      </trkpt>
      <trkpt lat="43.67933" lon="3.12253">
        <ele>463.7999878</ele>
        <time>2013-07-07T06:05:43Z</time>
      </trkpt>
      <trkpt lat="43.67931" lon="3.12259">
        <ele>463.7999878</ele>
        <time>2013-07-07T06:05:45Z</time>
      </trkpt>
      <trkpt lat="43.67928" lon="3.12274">
        <ele>464.2000122</ele>
        <time>2013-07-07T06:05:50Z</time>
      </trkpt>
      <trkpt lat="43.67928" lon="3.12277">
        <ele>464.6000061</ele>
        <time>2013-07-07T06:05:51Z</time>
      </trkpt>
      <trkpt lat="43.67927" lon="3.1228">
        <ele>465</ele>
        <time>2013-07-07T06:05:52Z</time>
      </trkpt>
      <trkpt lat="43.67927" lon="3.12282">
        <ele>465.3999939</ele>
        <time>2013-07-07T06:05:53Z</time>
      </trkpt>
      <trkpt lat="43.67927" lon="3.12286">
        <ele>465.7999878</ele>
        <time>2013-07-07T06:05:54Z</time>
      </trkpt>
      <trkpt lat="43.67926" lon="3.12297">
        <ele>465.7999878</ele>
        <time>2013-07-07T06:05:58Z</time>
      </trkpt>
      <trkpt lat="43.67925" lon="3.12309">
        <ele>466.3999939</ele>
        <time>2013-07-07T06:06:02Z</time>
      </trkpt>
      <trkpt lat="43.67925" lon="3.12311">
        <ele>466.7999878</ele>
        <time>2013-07-07T06:06:03Z</time>
      </trkpt>
      <trkpt lat="43.67926" lon="3.12314">
        <ele>467.2000122</ele>
        <time>2013-07-07T06:06:04Z</time>
      </trkpt>
      <trkpt lat="43.67925" lon="3.12317">
        <ele>467.6000061</ele>
        <time>2013-07-07T06:06:05Z</time>
      </trkpt>
      <trkpt lat="43.67925" lon="3.1232">
        <ele>468</ele>
        <time>2013-07-07T06:06:06Z</time>
      </trkpt>
      <trkpt lat="43.67924" lon="3.12342">
        <ele>468.3999939</ele>
        <time>2013-07-07T06:06:13Z</time>
      </trkpt>
      <trkpt lat="43.67925" lon="3.12344">
        <ele>468.7999878</ele>
        <time>2013-07-07T06:06:14Z</time>
      </trkpt>
      <trkpt lat="43.67925" lon="3.12348">
        <ele>469.2000122</ele>
        <time>2013-07-07T06:06:15Z</time>
      </trkpt>
      <trkpt lat="43.67925" lon="3.1235">
        <ele>469.6000061</ele>
        <time>2013-07-07T06:06:16Z</time>
      </trkpt>
      <trkpt lat="43.67925" lon="3.12354">
        <ele>470</ele>
        <time>2013-07-07T06:06:17Z</time>
      </trkpt>
      <trkpt lat="43.67925" lon="3.12365">
        <ele>470.3999939</ele>
        <time>2013-07-07T06:06:21Z</time>
      </trkpt>
      <trkpt lat="43.67925" lon="3.12368">
        <ele>470.7999878</ele>
        <time>2013-07-07T06:06:22Z</time>
      </trkpt>
      <trkpt lat="43.67925" lon="3.12371">
        <ele>471.2000122</ele>
        <time>2013-07-07T06:06:23Z</time>
      </trkpt>
      <trkpt lat="43.67925" lon="3.12373">
        <ele>472</ele>
        <time>2013-07-07T06:06:24Z</time>
      </trkpt>
      <trkpt lat="43.67925" lon="3.12388">
        <ele>472</ele>
        <time>2013-07-07T06:06:29Z</time>
      </trkpt>
      <trkpt lat="43.67926" lon="3.12396">
        <ele>472.6000061</ele>
        <time>2013-07-07T06:06:32Z</time>
      </trkpt>
      <trkpt lat="43.67925" lon="3.12399">
        <ele>473</ele>
        <time>2013-07-07T06:06:33Z</time>
      </trkpt>
      <trkpt lat="43.67925" lon="3.12401">
        <ele>473.3999939</ele>
        <time>2013-07-07T06:06:34Z</time>
      </trkpt>
      <trkpt lat="43.67924" lon="3.12404">
        <ele>473.7999878</ele>
        <time>2013-07-07T06:06:35Z</time>
      </trkpt>
      <trkpt lat="43.67924" lon="3.12408">
        <ele>474.2000122</ele>
        <time>2013-07-07T06:06:36Z</time>
      </trkpt>
      <trkpt lat="43.67925" lon="3.12427">
        <ele>474.2000122</ele>
        <time>2013-07-07T06:06:43Z</time>
      </trkpt>
      <trkpt lat="43.6793" lon="3.12429">
        <ele>474.6000061</ele>
        <time>2013-07-07T06:06:46Z</time>
      </trkpt>
      <trkpt lat="43.67931" lon="3.12428">
        <ele>475</ele>
        <time>2013-07-07T06:06:47Z</time>
      </trkpt>
      <trkpt lat="43.67932" lon="3.12427">
        <ele>475.6000061</ele>
        <time>2013-07-07T06:06:48Z</time>
      </trkpt>
      <trkpt lat="43.67932" lon="3.12427">
        <ele>476.3999939</ele>
        <time>2013-07-07T06:06:49Z</time>
      </trkpt>
      <trkpt lat="43.67931" lon="3.12427">
        <ele>476.3999939</ele>
        <time>2013-07-07T06:06:51Z</time>
      </trkpt>
      <trkpt lat="43.67935" lon="3.12428">
        <ele>476.3999939</ele>
        <time>2013-07-07T06:07:13Z</time>
      </trkpt>
      <trkpt lat="43.67935" lon="3.12427">
        <ele>476.3999939</ele>
        <time>2013-07-07T06:07:14Z</time>
      </trkpt>
      <trkpt lat="43.67935" lon="3.12427">
        <ele>476.3999939</ele>
        <time>2013-07-07T06:07:16Z</time>
      </trkpt>
      <trkpt lat="43.67937" lon="3.12419">
        <ele>476.3999939</ele>
        <time>2013-07-07T06:12:08Z</time>
      </trkpt>
      <trkpt lat="43.67937" lon="3.12418">
        <ele>476.3999939</ele>
        <time>2013-07-07T06:12:09Z</time>
      </trkpt>
      <trkpt lat="43.67938" lon="3.12416">
        <ele>476.3999939</ele>
        <time>2013-07-07T06:12:10Z</time>
      </trkpt>
      <trkpt lat="43.67938" lon="3.12411">
        <ele>476.3999939</ele>
        <time>2013-07-07T06:12:13Z</time>
      </trkpt>
      <trkpt lat="43.67938" lon="3.12407">
        <ele>476.3999939</ele>
        <time>2013-07-07T06:12:15Z</time>
      </trkpt>
      <trkpt lat="43.67938" lon="3.12405">
        <ele>476.3999939</ele>
        <time>2013-07-07T06:12:16Z</time>
      </trkpt>
      <trkpt lat="43.67938" lon="3.12403">
        <ele>476.3999939</ele>
        <time>2013-07-07T06:12:17Z</time>
      </trkpt>
      <trkpt lat="43.67938" lon="3.12401">
        <ele>476.3999939</ele>
        <time>2013-07-07T06:12:18Z</time>
      </trkpt>
      <trkpt lat="43.67939" lon="3.12394">
        <ele>476.7999878</ele>
        <time>2013-07-07T06:12:21Z</time>
      </trkpt>
      <trkpt lat="43.67939" lon="3.12392">
        <ele>477.2000122</ele>
        <time>2013-07-07T06:12:22Z</time>
      </trkpt>
      <trkpt lat="43.67939" lon="3.12389">
        <ele>477.6000061</ele>
        <time>2013-07-07T06:12:23Z</time>
      </trkpt>
      <trkpt lat="43.6794" lon="3.12387">
        <ele>478</ele>
        <time>2013-07-07T06:12:24Z</time>
      </trkpt>
      <trkpt lat="43.6794" lon="3.12385">
        <ele>478.3999939</ele>
        <time>2013-07-07T06:12:25Z</time>
      </trkpt>
      <trkpt lat="43.6794" lon="3.12383">
        <ele>478.3999939</ele>
        <time>2013-07-07T06:12:26Z</time>
      </trkpt>
      <trkpt lat="43.67944" lon="3.12361">
        <ele>478.7999878</ele>
        <time>2013-07-07T06:12:35Z</time>
      </trkpt>
      <trkpt lat="43.67944" lon="3.12359">
        <ele>479.2000122</ele>
        <time>2013-07-07T06:12:36Z</time>
      </trkpt>
      <trkpt lat="43.67945" lon="3.12357">
        <ele>479.7999878</ele>
        <time>2013-07-07T06:12:37Z</time>
      </trkpt>
      <trkpt lat="43.67945" lon="3.12355">
        <ele>480.2000122</ele>
        <time>2013-07-07T06:12:38Z</time>
      </trkpt>
      <trkpt lat="43.67946" lon="3.12352">
        <ele>480.6000061</ele>
        <time>2013-07-07T06:12:39Z</time>
      </trkpt>
      <trkpt lat="43.67949" lon="3.12343">
        <ele>480.6000061</ele>
        <time>2013-07-07T06:12:43Z</time>
      </trkpt>
      <trkpt lat="43.67955" lon="3.12326">
        <ele>480.6000061</ele>
        <time>2013-07-07T06:12:50Z</time>
      </trkpt>
      <trkpt lat="43.6796" lon="3.12314">
        <ele>481</ele>
        <time>2013-07-07T06:12:55Z</time>
      </trkpt>
      <trkpt lat="43.67961" lon="3.12312">
        <ele>481.3999939</ele>
        <time>2013-07-07T06:12:56Z</time>
      </trkpt>
      <trkpt lat="43.67962" lon="3.12309">
        <ele>481.7999878</ele>
        <time>2013-07-07T06:12:57Z</time>
      </trkpt>
      <trkpt lat="43.67963" lon="3.12306">
        <ele>482.2000122</ele>
        <time>2013-07-07T06:12:58Z</time>
      </trkpt>
      <trkpt lat="43.67964" lon="3.12304">
        <ele>482.6000061</ele>
        <time>2013-07-07T06:12:59Z</time>
      </trkpt>
      <trkpt lat="43.6797" lon="3.12285">
        <ele>482.6000061</ele>
        <time>2013-07-07T06:13:07Z</time>
      </trkpt>
      <trkpt lat="43.67978" lon="3.12262">
        <ele>482.6000061</ele>
        <time>2013-07-07T06:13:15Z</time>
      </trkpt>
      <trkpt lat="43.67979" lon="3.12259">
        <ele>483</ele>
        <time>2013-07-07T06:13:16Z</time>
      </trkpt>
      <trkpt lat="43.6798" lon="3.12257">
        <ele>483.7999878</ele>
        <time>2013-07-07T06:13:17Z</time>
      </trkpt>
      <trkpt lat="43.67982" lon="3.12254">
        <ele>484.2000122</ele>
        <time>2013-07-07T06:13:18Z</time>
      </trkpt>
      <trkpt lat="43.67983" lon="3.12251">
        <ele>484.6000061</ele>
        <time>2013-07-07T06:13:19Z</time>
      </trkpt>
      <trkpt lat="43.67987" lon="3.1224">
        <ele>484.6000061</ele>
        <time>2013-07-07T06:13:23Z</time>
      </trkpt>
      <trkpt lat="43.67993" lon="3.1223">
        <ele>485</ele>
        <time>2013-07-07T06:13:27Z</time>
      </trkpt>
      <trkpt lat="43.67995" lon="3.12227">
        <ele>485.3999939</ele>
        <time>2013-07-07T06:13:28Z</time>
      </trkpt>
      <trkpt lat="43.67996" lon="3.12225">
        <ele>485.7999878</ele>
        <time>2013-07-07T06:13:29Z</time>
      </trkpt>
      <trkpt lat="43.67997" lon="3.12222">
        <ele>486.2000122</ele>
        <time>2013-07-07T06:13:30Z</time>
      </trkpt>
      <trkpt lat="43.67998" lon="3.12219">
        <ele>486.6000061</ele>
        <time>2013-07-07T06:13:31Z</time>
      </trkpt>
      <trkpt lat="43.68006" lon="3.12197">
        <ele>486.6000061</ele>
        <time>2013-07-07T06:13:38Z</time>
      </trkpt>
      <trkpt lat="43.68008" lon="3.12187">
        <ele>487</ele>
        <time>2013-07-07T06:13:41Z</time>
      </trkpt>
      <trkpt lat="43.68009" lon="3.12184">
        <ele>488</ele>
        <time>2013-07-07T06:13:42Z</time>
      </trkpt>
      <trkpt lat="43.6801" lon="3.12181">
        <ele>488.3999939</ele>
        <time>2013-07-07T06:13:43Z</time>
      </trkpt>
      <trkpt lat="43.68011" lon="3.12178">
        <ele>488.7999878</ele>
        <time>2013-07-07T06:13:44Z</time>
      </trkpt>
      <trkpt lat="43.68014" lon="3.12164">
        <ele>489.2000122</ele>
        <time>2013-07-07T06:13:49Z</time>
      </trkpt>
      <trkpt lat="43.68015" lon="3.12161">
        <ele>489.6000061</ele>
        <time>2013-07-07T06:13:50Z</time>
      </trkpt>
      <trkpt lat="43.68015" lon="3.12158">
        <ele>490</ele>
        <time>2013-07-07T06:13:51Z</time>
      </trkpt>
      <trkpt lat="43.68016" lon="3.12155">
        <ele>490.3999939</ele>
        <time>2013-07-07T06:13:52Z</time>
      </trkpt>
      <trkpt lat="43.68017" lon="3.12153">
        <ele>490.7999878</ele>
        <time>2013-07-07T06:13:53Z</time>
      </trkpt>
      <trkpt lat="43.68019" lon="3.12142">
        <ele>490.7999878</ele>
        <time>2013-07-07T06:13:57Z</time>
      </trkpt>
      <trkpt lat="43.6802" lon="3.12136">
        <ele>491.2000122</ele>
        <time>2013-07-07T06:13:59Z</time>
      </trkpt>
      <trkpt lat="43.6802" lon="3.12133">
        <ele>491.6000061</ele>
        <time>2013-07-07T06:14:00Z</time>
      </trkpt>
      <trkpt lat="43.68021" lon="3.12131">
        <ele>492</ele>
        <time>2013-07-07T06:14:01Z</time>
      </trkpt>
      <trkpt lat="43.68022" lon="3.12128">
        <ele>492.3999939</ele>
        <time>2013-07-07T06:14:02Z</time>
      </trkpt>
      <trkpt lat="43.68022" lon="3.12124">
        <ele>492.7999878</ele>
        <time>2013-07-07T06:14:03Z</time>
      </trkpt>
      <trkpt lat="43.68025" lon="3.12109">
        <ele>492.7999878</ele>
        <time>2013-07-07T06:14:08Z</time>
      </trkpt>
      <trkpt lat="43.68025" lon="3.12106">
        <ele>493.2000122</ele>
        <time>2013-07-07T06:14:09Z</time>
      </trkpt>
      <trkpt lat="43.68025" lon="3.12103">
        <ele>493.6000061</ele>
        <time>2013-07-07T06:14:10Z</time>
      </trkpt>
      <trkpt lat="43.68025" lon="3.12099">
        <ele>494</ele>
        <time>2013-07-07T06:14:11Z</time>
      </trkpt>
      <trkpt lat="43.68025" lon="3.12096">
        <ele>494.6000061</ele>
        <time>2013-07-07T06:14:12Z</time>
      </trkpt>
      <trkpt lat="43.68026" lon="3.12093">
        <ele>495</ele>
        <time>2013-07-07T06:14:13Z</time>
      </trkpt>
      <trkpt lat="43.68026" lon="3.12086">
        <ele>495</ele>
        <time>2013-07-07T06:14:15Z</time>
      </trkpt>
      <trkpt lat="43.68028" lon="3.12068">
        <ele>495</ele>
        <time>2013-07-07T06:14:21Z</time>
      </trkpt>
      <trkpt lat="43.68028" lon="3.12065">
        <ele>495.3999939</ele>
        <time>2013-07-07T06:14:22Z</time>
      </trkpt>
      <trkpt lat="43.68029" lon="3.12061">
        <ele>495.7999878</ele>
        <time>2013-07-07T06:14:23Z</time>
      </trkpt>
      <trkpt lat="43.68029" lon="3.12058">
        <ele>496.2000122</ele>
        <time>2013-07-07T06:14:24Z</time>
      </trkpt>
      <trkpt lat="43.68029" lon="3.12055">
        <ele>496.6000061</ele>
        <time>2013-07-07T06:14:25Z</time>
      </trkpt>
      <trkpt lat="43.68029" lon="3.12051">
        <ele>497</ele>
        <time>2013-07-07T06:14:26Z</time>
      </trkpt>
      <trkpt lat="43.6803" lon="3.1204">
        <ele>497</ele>
        <time>2013-07-07T06:14:29Z</time>
      </trkpt>
      <trkpt lat="43.6803" lon="3.12023">
        <ele>497</ele>
        <time>2013-07-07T06:14:34Z</time>
      </trkpt>
      <trkpt lat="43.68031" lon="3.12013">
        <ele>497</ele>
        <time>2013-07-07T06:14:37Z</time>
      </trkpt>
      <trkpt lat="43.68031" lon="3.1201">
        <ele>497.3999939</ele>
        <time>2013-07-07T06:14:38Z</time>
      </trkpt>
      <trkpt lat="43.68031" lon="3.12007">
        <ele>497.7999878</ele>
        <time>2013-07-07T06:14:39Z</time>
      </trkpt>
      <trkpt lat="43.68032" lon="3.12004">
        <ele>498.2000122</ele>
        <time>2013-07-07T06:14:40Z</time>
      </trkpt>
      <trkpt lat="43.68032" lon="3.12001">
        <ele>498.6000061</ele>
        <time>2013-07-07T06:14:41Z</time>
      </trkpt>
      <trkpt lat="43.68032" lon="3.11998">
        <ele>499.2000122</ele>
        <time>2013-07-07T06:14:42Z</time>
      </trkpt>
      <trkpt lat="43.68032" lon="3.11983">
        <ele>499.2000122</ele>
        <time>2013-07-07T06:14:46Z</time>
      </trkpt>
      <trkpt lat="43.68034" lon="3.11969">
        <ele>499.6000061</ele>
        <time>2013-07-07T06:14:50Z</time>
      </trkpt>
      <trkpt lat="43.68035" lon="3.11966">
        <ele>500</ele>
        <time>2013-07-07T06:14:51Z</time>
      </trkpt>
      <trkpt lat="43.68035" lon="3.11963">
        <ele>500.3999939</ele>
        <time>2013-07-07T06:14:52Z</time>
      </trkpt>
      <trkpt lat="43.68036" lon="3.1196">
        <ele>500.7999878</ele>
        <time>2013-07-07T06:14:53Z</time>
      </trkpt>
      <trkpt lat="43.68036" lon="3.11957">
        <ele>501.2000122</ele>
        <time>2013-07-07T06:14:54Z</time>
      </trkpt>
      <trkpt lat="43.6804" lon="3.11942">
        <ele>501.2000122</ele>
        <time>2013-07-07T06:14:59Z</time>
      </trkpt>
      <trkpt lat="43.68046" lon="3.11923">
        <ele>501.6000061</ele>
        <time>2013-07-07T06:15:05Z</time>
      </trkpt>
      <trkpt lat="43.68047" lon="3.11921">
        <ele>502</ele>
        <time>2013-07-07T06:15:06Z</time>
      </trkpt>
      <trkpt lat="43.68048" lon="3.11918">
        <ele>502.3999939</ele>
        <time>2013-07-07T06:15:07Z</time>
      </trkpt>
      <trkpt lat="43.68049" lon="3.11916">
        <ele>502.7999878</ele>
        <time>2013-07-07T06:15:08Z</time>
      </trkpt>
      <trkpt lat="43.6805" lon="3.11913">
        <ele>503.2000122</ele>
        <time>2013-07-07T06:15:09Z</time>
      </trkpt>
      <trkpt lat="43.68053" lon="3.11906">
        <ele>503.2000122</ele>
        <time>2013-07-07T06:15:12Z</time>
      </trkpt>
      <trkpt lat="43.68056" lon="3.11898">
        <ele>503.7999878</ele>
        <time>2013-07-07T06:15:15Z</time>
      </trkpt>
      <trkpt lat="43.68057" lon="3.11896">
        <ele>504.2000122</ele>
        <time>2013-07-07T06:15:16Z</time>
      </trkpt>
      <trkpt lat="43.68058" lon="3.11894">
        <ele>504.6000061</ele>
        <time>2013-07-07T06:15:17Z</time>
      </trkpt>
      <trkpt lat="43.68059" lon="3.11892">
        <ele>505</ele>
        <time>2013-07-07T06:15:18Z</time>
      </trkpt>
      <trkpt lat="43.68061" lon="3.1189">
        <ele>505.3999939</ele>
        <time>2013-07-07T06:15:19Z</time>
      </trkpt>
      <trkpt lat="43.68069" lon="3.11888">
        <ele>505.3999939</ele>
        <time>2013-07-07T06:15:23Z</time>
      </trkpt>
      <trkpt lat="43.68072" lon="3.11889">
        <ele>505.7999878</ele>
        <time>2013-07-07T06:15:24Z</time>
      </trkpt>
      <trkpt lat="43.68073" lon="3.11891">
        <ele>506.2000122</ele>
        <time>2013-07-07T06:15:25Z</time>
      </trkpt>
      <trkpt lat="43.68074" lon="3.11894">
        <ele>506.6000061</ele>
        <time>2013-07-07T06:15:26Z</time>
      </trkpt>
      <trkpt lat="43.68074" lon="3.11896">
        <ele>507</ele>
        <time>2013-07-07T06:15:27Z</time>
      </trkpt>
      <trkpt lat="43.68074" lon="3.11899">
        <ele>507.6000061</ele>
        <time>2013-07-07T06:15:28Z</time>
      </trkpt>
      <trkpt lat="43.68074" lon="3.11901">
        <ele>508.2000122</ele>
        <time>2013-07-07T06:15:29Z</time>
      </trkpt>
      <trkpt lat="43.68074" lon="3.11903">
        <ele>508.7999878</ele>
        <time>2013-07-07T06:15:30Z</time>
      </trkpt>
      <trkpt lat="43.68073" lon="3.11906">
        <ele>509.3999939</ele>
        <time>2013-07-07T06:15:31Z</time>
      </trkpt>
      <trkpt lat="43.68073" lon="3.11908">
        <ele>510</ele>
        <time>2013-07-07T06:15:32Z</time>
      </trkpt>
      <trkpt lat="43.68073" lon="3.11915">
        <ele>510</ele>
        <time>2013-07-07T06:15:35Z</time>
      </trkpt>
      <trkpt lat="43.68073" lon="3.11931">
        <ele>510</ele>
        <time>2013-07-07T06:15:41Z</time>
      </trkpt>
      <trkpt lat="43.68072" lon="3.11943">
        <ele>510.7999878</ele>
        <time>2013-07-07T06:15:45Z</time>
      </trkpt>
      <trkpt lat="43.68072" lon="3.11945">
        <ele>511.2000122</ele>
        <time>2013-07-07T06:15:46Z</time>
      </trkpt>
      <trkpt lat="43.68071" lon="3.11948">
        <ele>511.6000061</ele>
        <time>2013-07-07T06:15:47Z</time>
      </trkpt>
      <trkpt lat="43.68071" lon="3.1195">
        <ele>512</ele>
        <time>2013-07-07T06:15:48Z</time>
      </trkpt>
      <trkpt lat="43.6807" lon="3.1197">
        <ele>512</ele>
        <time>2013-07-07T06:15:55Z</time>
      </trkpt>
      <trkpt lat="43.68069" lon="3.11975">
        <ele>512.4000244</ele>
        <time>2013-07-07T06:15:57Z</time>
      </trkpt>
      <trkpt lat="43.68068" lon="3.11977">
        <ele>512.7999878</ele>
        <time>2013-07-07T06:15:58Z</time>
      </trkpt>
      <trkpt lat="43.68068" lon="3.11979">
        <ele>513.2000122</ele>
        <time>2013-07-07T06:15:59Z</time>
      </trkpt>
      <trkpt lat="43.68068" lon="3.11982">
        <ele>513.5999756</ele>
        <time>2013-07-07T06:16:00Z</time>
      </trkpt>
      <trkpt lat="43.68068" lon="3.11984">
        <ele>514</ele>
        <time>2013-07-07T06:16:01Z</time>
      </trkpt>
      <trkpt lat="43.68068" lon="3.1199">
        <ele>514</ele>
        <time>2013-07-07T06:16:03Z</time>
      </trkpt>
      <trkpt lat="43.68068" lon="3.11993">
        <ele>514</ele>
        <time>2013-07-07T06:16:04Z</time>
      </trkpt>
      <trkpt lat="43.68067" lon="3.12004">
        <ele>514</ele>
        <time>2013-07-07T06:16:08Z</time>
      </trkpt>
      <trkpt lat="43.68067" lon="3.12009">
        <ele>514.4000244</ele>
        <time>2013-07-07T06:16:10Z</time>
      </trkpt>
      <trkpt lat="43.68067" lon="3.12012">
        <ele>514.7999878</ele>
        <time>2013-07-07T06:16:11Z</time>
      </trkpt>
      <trkpt lat="43.68067" lon="3.12016">
        <ele>515.2000122</ele>
        <time>2013-07-07T06:16:12Z</time>
      </trkpt>
      <trkpt lat="43.68067" lon="3.12019">
        <ele>515.5999756</ele>
        <time>2013-07-07T06:16:13Z</time>
      </trkpt>
      <trkpt lat="43.68067" lon="3.12022">
        <ele>516.2000122</ele>
        <time>2013-07-07T06:16:14Z</time>
      </trkpt>
      <trkpt lat="43.68067" lon="3.12043">
        <ele>516.2000122</ele>
        <time>2013-07-07T06:16:21Z</time>
      </trkpt>
      <trkpt lat="43.68069" lon="3.12053">
        <ele>516.5999756</ele>
        <time>2013-07-07T06:16:25Z</time>
      </trkpt>
      <trkpt lat="43.68069" lon="3.12056">
        <ele>517</ele>
        <time>2013-07-07T06:16:26Z</time>
      </trkpt>
      <trkpt lat="43.68069" lon="3.12059">
        <ele>517.4000244</ele>
        <time>2013-07-07T06:16:27Z</time>
      </trkpt>
      <trkpt lat="43.68068" lon="3.12062">
        <ele>517.7999878</ele>
        <time>2013-07-07T06:16:28Z</time>
      </trkpt>
      <trkpt lat="43.68068" lon="3.12064">
        <ele>518.2000122</ele>
        <time>2013-07-07T06:16:29Z</time>
      </trkpt>
      <trkpt lat="43.68068" lon="3.1207">
        <ele>518.2000122</ele>
        <time>2013-07-07T06:16:31Z</time>
      </trkpt>
      <trkpt lat="43.68069" lon="3.12091">
        <ele>518.2000122</ele>
        <time>2013-07-07T06:16:38Z</time>
      </trkpt>
      <trkpt lat="43.68071" lon="3.12112">
        <ele>518.5999756</ele>
        <time>2013-07-07T06:16:44Z</time>
      </trkpt>
      <trkpt lat="43.68071" lon="3.12115">
        <ele>519</ele>
        <time>2013-07-07T06:16:45Z</time>
      </trkpt>
      <trkpt lat="43.68071" lon="3.12118">
        <ele>519.4000244</ele>
        <time>2013-07-07T06:16:46Z</time>
      </trkpt>
      <trkpt lat="43.68072" lon="3.12121">
        <ele>520</ele>
        <time>2013-07-07T06:16:47Z</time>
      </trkpt>
      <trkpt lat="43.68072" lon="3.12124">
        <ele>520.4000244</ele>
        <time>2013-07-07T06:16:48Z</time>
      </trkpt>
      <trkpt lat="43.68073" lon="3.12138">
        <ele>520.4000244</ele>
        <time>2013-07-07T06:16:53Z</time>
      </trkpt>
      <trkpt lat="43.68073" lon="3.12146">
        <ele>520.7999878</ele>
        <time>2013-07-07T06:16:56Z</time>
      </trkpt>
      <trkpt lat="43.68074" lon="3.12149">
        <ele>521.2000122</ele>
        <time>2013-07-07T06:16:57Z</time>
      </trkpt>
      <trkpt lat="43.68074" lon="3.12151">
        <ele>521.5999756</ele>
        <time>2013-07-07T06:16:58Z</time>
      </trkpt>
      <trkpt lat="43.68074" lon="3.12154">
        <ele>522</ele>
        <time>2013-07-07T06:16:59Z</time>
      </trkpt>
      <trkpt lat="43.68074" lon="3.12156">
        <ele>522.4000244</ele>
        <time>2013-07-07T06:17:00Z</time>
      </trkpt>
      <trkpt lat="43.68073" lon="3.1217">
        <ele>522.7999878</ele>
        <time>2013-07-07T06:17:05Z</time>
      </trkpt>
      <trkpt lat="43.68073" lon="3.12173">
        <ele>523.2000122</ele>
        <time>2013-07-07T06:17:06Z</time>
      </trkpt>
      <trkpt lat="43.68073" lon="3.12176">
        <ele>523.5999756</ele>
        <time>2013-07-07T06:17:07Z</time>
      </trkpt>
      <trkpt lat="43.68072" lon="3.12178">
        <ele>524</ele>
        <time>2013-07-07T06:17:08Z</time>
      </trkpt>
      <trkpt lat="43.68072" lon="3.12181">
        <ele>524.4000244</ele>
        <time>2013-07-07T06:17:09Z</time>
      </trkpt>
      <trkpt lat="43.6807" lon="3.12192">
        <ele>524.4000244</ele>
        <time>2013-07-07T06:17:13Z</time>
      </trkpt>
      <trkpt lat="43.68071" lon="3.12203">
        <ele>524.4000244</ele>
        <time>2013-07-07T06:17:17Z</time>
      </trkpt>
      <trkpt lat="43.68072" lon="3.12204">
        <ele>524.4000244</ele>
        <time>2013-07-07T06:17:18Z</time>
      </trkpt>
      <trkpt lat="43.68074" lon="3.12203">
        <ele>524.4000244</ele>
        <time>2013-07-07T06:17:19Z</time>
      </trkpt>
      <trkpt lat="43.68076" lon="3.122">
        <ele>524.4000244</ele>
        <time>2013-07-07T06:17:21Z</time>
      </trkpt>
      <trkpt lat="43.68077" lon="3.12197">
        <ele>525</ele>
        <time>2013-07-07T06:17:22Z</time>
      </trkpt>
      <trkpt lat="43.68078" lon="3.12195">
        <ele>525.4000244</ele>
        <time>2013-07-07T06:17:23Z</time>
      </trkpt>
      <trkpt lat="43.68079" lon="3.12193">
        <ele>526.2000122</ele>
        <time>2013-07-07T06:17:24Z</time>
      </trkpt>
      <trkpt lat="43.6808" lon="3.12191">
        <ele>526.5999756</ele>
        <time>2013-07-07T06:17:25Z</time>
      </trkpt>
      <trkpt lat="43.68082" lon="3.12184">
        <ele>526.5999756</ele>
        <time>2013-07-07T06:17:28Z</time>
      </trkpt>
      <trkpt lat="43.68082" lon="3.12181">
        <ele>527</ele>
        <time>2013-07-07T06:17:29Z</time>
      </trkpt>
      <trkpt lat="43.68083" lon="3.12179">
        <ele>527.4000244</ele>
        <time>2013-07-07T06:17:30Z</time>
      </trkpt>
      <trkpt lat="43.68084" lon="3.12176">
        <ele>527.7999878</ele>
        <time>2013-07-07T06:17:31Z</time>
      </trkpt>
      <trkpt lat="43.68084" lon="3.12175">
        <ele>528.4000244</ele>
        <time>2013-07-07T06:17:32Z</time>
      </trkpt>
      <trkpt lat="43.68085" lon="3.12173">
        <ele>528.7999878</ele>
        <time>2013-07-07T06:17:33Z</time>
      </trkpt>
      <trkpt lat="43.68087" lon="3.12169">
        <ele>528.7999878</ele>
        <time>2013-07-07T06:17:35Z</time>
      </trkpt>
      <trkpt lat="43.68091" lon="3.12158">
        <ele>529.2000122</ele>
        <time>2013-07-07T06:17:40Z</time>
      </trkpt>
      <trkpt lat="43.68091" lon="3.12155">
        <ele>529.5999756</ele>
        <time>2013-07-07T06:17:41Z</time>
      </trkpt>
      <trkpt lat="43.68092" lon="3.12153">
        <ele>530</ele>
        <time>2013-07-07T06:17:42Z</time>
      </trkpt>
      <trkpt lat="43.68093" lon="3.1215">
        <ele>530.4000244</ele>
        <time>2013-07-07T06:17:43Z</time>
      </trkpt>
      <trkpt lat="43.68094" lon="3.12148">
        <ele>530.7999878</ele>
        <time>2013-07-07T06:17:44Z</time>
      </trkpt>
      <trkpt lat="43.68097" lon="3.12136">
        <ele>530.7999878</ele>
        <time>2013-07-07T06:17:49Z</time>
      </trkpt>
      <trkpt lat="43.68098" lon="3.12134">
        <ele>531.2000122</ele>
        <time>2013-07-07T06:17:50Z</time>
      </trkpt>
      <trkpt lat="43.68098" lon="3.12132">
        <ele>531.7999878</ele>
        <time>2013-07-07T06:17:51Z</time>
      </trkpt>
      <trkpt lat="43.68099" lon="3.12129">
        <ele>532.2000122</ele>
        <time>2013-07-07T06:17:52Z</time>
      </trkpt>
      <trkpt lat="43.681" lon="3.12127">
        <ele>532.5999756</ele>
        <time>2013-07-07T06:17:53Z</time>
      </trkpt>
      <trkpt lat="43.68101" lon="3.12124">
        <ele>533</ele>
        <time>2013-07-07T06:17:54Z</time>
      </trkpt>
      <trkpt lat="43.68103" lon="3.12117">
        <ele>533</ele>
        <time>2013-07-07T06:17:57Z</time>
      </trkpt>
      <trkpt lat="43.68106" lon="3.12108">
        <ele>533.4000244</ele>
        <time>2013-07-07T06:18:02Z</time>
      </trkpt>
      <trkpt lat="43.68107" lon="3.12105">
        <ele>533.7999878</ele>
        <time>2013-07-07T06:18:03Z</time>
      </trkpt>
      <trkpt lat="43.68108" lon="3.12103">
        <ele>534.2000122</ele>
        <time>2013-07-07T06:18:04Z</time>
      </trkpt>
      <trkpt lat="43.68109" lon="3.12101">
        <ele>534.5999756</ele>
        <time>2013-07-07T06:18:05Z</time>
      </trkpt>
      <trkpt lat="43.68109" lon="3.12099">
        <ele>535</ele>
        <time>2013-07-07T06:18:06Z</time>
      </trkpt>
      <trkpt lat="43.68112" lon="3.12087">
        <ele>535</ele>
        <time>2013-07-07T06:18:11Z</time>
      </trkpt>
      <trkpt lat="43.68112" lon="3.12084">
        <ele>535.4000244</ele>
        <time>2013-07-07T06:18:12Z</time>
      </trkpt>
      <trkpt lat="43.68113" lon="3.12082">
        <ele>535.7999878</ele>
        <time>2013-07-07T06:18:13Z</time>
      </trkpt>
      <trkpt lat="43.68114" lon="3.1208">
        <ele>536.5999756</ele>
        <time>2013-07-07T06:18:14Z</time>
      </trkpt>
      <trkpt lat="43.68115" lon="3.12077">
        <ele>537</ele>
        <time>2013-07-07T06:18:15Z</time>
      </trkpt>
      <trkpt lat="43.68118" lon="3.12069">
        <ele>537</ele>
        <time>2013-07-07T06:18:19Z</time>
      </trkpt>
      <trkpt lat="43.68121" lon="3.12064">
        <ele>537.5999756</ele>
        <time>2013-07-07T06:18:21Z</time>
      </trkpt>
      <trkpt lat="43.68122" lon="3.12063">
        <ele>538</ele>
        <time>2013-07-07T06:18:22Z</time>
      </trkpt>
      <trkpt lat="43.68122" lon="3.1206">
        <ele>538.4000244</ele>
        <time>2013-07-07T06:18:23Z</time>
      </trkpt>
      <trkpt lat="43.68123" lon="3.12058">
        <ele>538.7999878</ele>
        <time>2013-07-07T06:18:24Z</time>
      </trkpt>
      <trkpt lat="43.68124" lon="3.12056">
        <ele>539.2000122</ele>
        <time>2013-07-07T06:18:25Z</time>
      </trkpt>
      <trkpt lat="43.68125" lon="3.12053">
        <ele>539.2000122</ele>
        <time>2013-07-07T06:18:26Z</time>
      </trkpt>
      <trkpt lat="43.6813" lon="3.12041">
        <ele>539.2000122</ele>
        <time>2013-07-07T06:18:32Z</time>
      </trkpt>
      <trkpt lat="43.68131" lon="3.12039">
        <ele>539.5999756</ele>
        <time>2013-07-07T06:18:33Z</time>
      </trkpt>
      <trkpt lat="43.68133" lon="3.12037">
        <ele>540</ele>
        <time>2013-07-07T06:18:34Z</time>
      </trkpt>
      <trkpt lat="43.68134" lon="3.12034">
        <ele>540.4000244</ele>
        <time>2013-07-07T06:18:35Z</time>
      </trkpt>
      <trkpt lat="43.68136" lon="3.12033">
        <ele>540.7999878</ele>
        <time>2013-07-07T06:18:36Z</time>
      </trkpt>
      <trkpt lat="43.68137" lon="3.1203">
        <ele>541.4000244</ele>
        <time>2013-07-07T06:18:37Z</time>
      </trkpt>
      <trkpt lat="43.68139" lon="3.12027">
        <ele>541.4000244</ele>
        <time>2013-07-07T06:18:39Z</time>
      </trkpt>
      <trkpt lat="43.68143" lon="3.12022">
        <ele>541.7999878</ele>
        <time>2013-07-07T06:18:42Z</time>
      </trkpt>
      <trkpt lat="43.68145" lon="3.1202">
        <ele>542.2000122</ele>
        <time>2013-07-07T06:18:43Z</time>
      </trkpt>
      <trkpt lat="43.68146" lon="3.12018">
        <ele>542.5999756</ele>
        <time>2013-07-07T06:18:44Z</time>
      </trkpt>
      <trkpt lat="43.68147" lon="3.12016">
        <ele>543</ele>
        <time>2013-07-07T06:18:45Z</time>
      </trkpt>
      <trkpt lat="43.68148" lon="3.12014">
        <ele>543.4000244</ele>
        <time>2013-07-07T06:18:46Z</time>
      </trkpt>
      <trkpt lat="43.68161" lon="3.11998">
        <ele>543.7999878</ele>
        <time>2013-07-07T06:18:55Z</time>
      </trkpt>
      <trkpt lat="43.68163" lon="3.11996">
        <ele>544.2000122</ele>
        <time>2013-07-07T06:18:56Z</time>
      </trkpt>
      <trkpt lat="43.68165" lon="3.11995">
        <ele>544.7999878</ele>
        <time>2013-07-07T06:18:57Z</time>
      </trkpt>
      <trkpt lat="43.68167" lon="3.11994">
        <ele>545.2000122</ele>
        <time>2013-07-07T06:18:58Z</time>
      </trkpt>
      <trkpt lat="43.68168" lon="3.11993">
        <ele>545.5999756</ele>
        <time>2013-07-07T06:18:59Z</time>
      </trkpt>
      <trkpt lat="43.68178" lon="3.11984">
        <ele>545.5999756</ele>
        <time>2013-07-07T06:19:05Z</time>
      </trkpt>
      <trkpt lat="43.68181" lon="3.11981">
        <ele>546</ele>
        <time>2013-07-07T06:19:07Z</time>
      </trkpt>
      <trkpt lat="43.68182" lon="3.1198">
        <ele>546.4000244</ele>
        <time>2013-07-07T06:19:08Z</time>
      </trkpt>
      <trkpt lat="43.68184" lon="3.11978">
        <ele>546.7999878</ele>
        <time>2013-07-07T06:19:09Z</time>
      </trkpt>
      <trkpt lat="43.68186" lon="3.11977">
        <ele>547.4000244</ele>
        <time>2013-07-07T06:19:10Z</time>
      </trkpt>
      <trkpt lat="43.68187" lon="3.11976">
        <ele>547.7999878</ele>
        <time>2013-07-07T06:19:11Z</time>
      </trkpt>
      <trkpt lat="43.68201" lon="3.11971">
        <ele>548.2000122</ele>
        <time>2013-07-07T06:19:18Z</time>
      </trkpt>
      <trkpt lat="43.68203" lon="3.11972">
        <ele>548.5999756</ele>
        <time>2013-07-07T06:19:19Z</time>
      </trkpt>
      <trkpt lat="43.68205" lon="3.11971">
        <ele>549</ele>
        <time>2013-07-07T06:19:20Z</time>
      </trkpt>
      <trkpt lat="43.68207" lon="3.11971">
        <ele>549.4000244</ele>
        <time>2013-07-07T06:19:21Z</time>
      </trkpt>
      <trkpt lat="43.68209" lon="3.11972">
        <ele>549.7999878</ele>
        <time>2013-07-07T06:19:22Z</time>
      </trkpt>
      <trkpt lat="43.68215" lon="3.11973">
        <ele>549.7999878</ele>
        <time>2013-07-07T06:19:25Z</time>
      </trkpt>
      <trkpt lat="43.68221" lon="3.11974">
        <ele>550.2000122</ele>
        <time>2013-07-07T06:19:28Z</time>
      </trkpt>
      <trkpt lat="43.68223" lon="3.11975">
        <ele>550.5999756</ele>
        <time>2013-07-07T06:19:29Z</time>
      </trkpt>
      <trkpt lat="43.68225" lon="3.11976">
        <ele>551</ele>
        <time>2013-07-07T06:19:30Z</time>
      </trkpt>
      <trkpt lat="43.68227" lon="3.11976">
        <ele>551.4000244</ele>
        <time>2013-07-07T06:19:31Z</time>
      </trkpt>
      <trkpt lat="43.68229" lon="3.11976">
        <ele>552</ele>
        <time>2013-07-07T06:19:32Z</time>
      </trkpt>
      <trkpt lat="43.68233" lon="3.11978">
        <ele>552</ele>
        <time>2013-07-07T06:19:34Z</time>
      </trkpt>
      <trkpt lat="43.68246" lon="3.11983">
        <ele>552</ele>
        <time>2013-07-07T06:19:41Z</time>
      </trkpt>
      <trkpt lat="43.68254" lon="3.11986">
        <ele>552.4000244</ele>
        <time>2013-07-07T06:19:45Z</time>
      </trkpt>
      <trkpt lat="43.68256" lon="3.11987">
        <ele>552.7999878</ele>
        <time>2013-07-07T06:19:46Z</time>
      </trkpt>
      <trkpt lat="43.68258" lon="3.11987">
        <ele>553.2000122</ele>
        <time>2013-07-07T06:19:47Z</time>
      </trkpt>
      <trkpt lat="43.6826" lon="3.11987">
        <ele>553.5999756</ele>
        <time>2013-07-07T06:19:48Z</time>
      </trkpt>
      <trkpt lat="43.68262" lon="3.11988">
        <ele>554</ele>
        <time>2013-07-07T06:19:49Z</time>
      </trkpt>
      <trkpt lat="43.68274" lon="3.11992">
        <ele>554</ele>
        <time>2013-07-07T06:19:55Z</time>
      </trkpt>
      <trkpt lat="43.68277" lon="3.11995">
        <ele>554.4000244</ele>
        <time>2013-07-07T06:19:57Z</time>
      </trkpt>
      <trkpt lat="43.68279" lon="3.11995">
        <ele>554.7999878</ele>
        <time>2013-07-07T06:19:58Z</time>
      </trkpt>
      <trkpt lat="43.68281" lon="3.11996">
        <ele>555.2000122</ele>
        <time>2013-07-07T06:19:59Z</time>
      </trkpt>
      <trkpt lat="43.68283" lon="3.11997">
        <ele>555.5999756</ele>
        <time>2013-07-07T06:20:00Z</time>
      </trkpt>
      <trkpt lat="43.68285" lon="3.11999">
        <ele>556</ele>
        <time>2013-07-07T06:20:01Z</time>
      </trkpt>
      <trkpt lat="43.68286" lon="3.12">
        <ele>556</ele>
        <time>2013-07-07T06:20:02Z</time>
      </trkpt>
      <trkpt lat="43.6829" lon="3.12009">
        <ele>556.4000244</ele>
        <time>2013-07-07T06:20:06Z</time>
      </trkpt>
      <trkpt lat="43.68289" lon="3.12012">
        <ele>556.7999878</ele>
        <time>2013-07-07T06:20:07Z</time>
      </trkpt>
      <trkpt lat="43.68288" lon="3.12014">
        <ele>557.2000122</ele>
        <time>2013-07-07T06:20:08Z</time>
      </trkpt>
      <trkpt lat="43.68287" lon="3.12016">
        <ele>557.5999756</ele>
        <time>2013-07-07T06:20:09Z</time>
      </trkpt>
      <trkpt lat="43.68286" lon="3.12017">
        <ele>558</ele>
        <time>2013-07-07T06:20:10Z</time>
      </trkpt>
      <trkpt lat="43.68282" lon="3.12019">
        <ele>558</ele>
        <time>2013-07-07T06:20:12Z</time>
      </trkpt>
      <trkpt lat="43.6828" lon="3.12019">
        <ele>558.4000244</ele>
        <time>2013-07-07T06:20:13Z</time>
      </trkpt>
      <trkpt lat="43.68278" lon="3.12019">
        <ele>558.7999878</ele>
        <time>2013-07-07T06:20:14Z</time>
      </trkpt>
      <trkpt lat="43.68276" lon="3.12019">
        <ele>559.2000122</ele>
        <time>2013-07-07T06:20:15Z</time>
      </trkpt>
      <trkpt lat="43.68274" lon="3.12019">
        <ele>559.5999756</ele>
        <time>2013-07-07T06:20:16Z</time>
      </trkpt>
      <trkpt lat="43.68272" lon="3.12018">
        <ele>560</ele>
        <time>2013-07-07T06:20:17Z</time>
      </trkpt>
      <trkpt lat="43.6827" lon="3.12017">
        <ele>560</ele>
        <time>2013-07-07T06:20:18Z</time>
      </trkpt>
      <trkpt lat="43.6826" lon="3.12015">
        <ele>560.5999756</ele>
        <time>2013-07-07T06:20:23Z</time>
      </trkpt>
      <trkpt lat="43.68259" lon="3.12014">
        <ele>561</ele>
        <time>2013-07-07T06:20:24Z</time>
      </trkpt>
      <trkpt lat="43.68257" lon="3.12014">
        <ele>561.4000244</ele>
        <time>2013-07-07T06:20:25Z</time>
      </trkpt>
      <trkpt lat="43.68255" lon="3.12014">
        <ele>561.7999878</ele>
        <time>2013-07-07T06:20:26Z</time>
      </trkpt>
      <trkpt lat="43.68253" lon="3.12013">
        <ele>562.4000244</ele>
        <time>2013-07-07T06:20:27Z</time>
      </trkpt>
      <trkpt lat="43.68242" lon="3.12012">
        <ele>562.4000244</ele>
        <time>2013-07-07T06:20:33Z</time>
      </trkpt>
      <trkpt lat="43.68228" lon="3.12013">
        <ele>562.4000244</ele>
        <time>2013-07-07T06:20:40Z</time>
      </trkpt>
      <trkpt lat="43.68223" lon="3.12014">
        <ele>563.2000122</ele>
        <time>2013-07-07T06:20:42Z</time>
      </trkpt>
      <trkpt lat="43.68221" lon="3.12015">
        <ele>563.5999756</ele>
        <time>2013-07-07T06:20:43Z</time>
      </trkpt>
      <trkpt lat="43.68219" lon="3.12016">
        <ele>564</ele>
        <time>2013-07-07T06:20:44Z</time>
      </trkpt>
      <trkpt lat="43.68217" lon="3.12017">
        <ele>564.4000244</ele>
        <time>2013-07-07T06:20:45Z</time>
      </trkpt>
      <trkpt lat="43.68213" lon="3.1202">
        <ele>564.4000244</ele>
        <time>2013-07-07T06:20:47Z</time>
      </trkpt>
      <trkpt lat="43.68205" lon="3.12031">
        <ele>564.4000244</ele>
        <time>2013-07-07T06:20:53Z</time>
      </trkpt>
      <trkpt lat="43.68203" lon="3.12046">
        <ele>564.4000244</ele>
        <time>2013-07-07T06:20:59Z</time>
      </trkpt>
      <trkpt lat="43.68202" lon="3.12052">
        <ele>564.7999878</ele>
        <time>2013-07-07T06:21:01Z</time>
      </trkpt>
      <trkpt lat="43.68202" lon="3.12055">
        <ele>565.4000244</ele>
        <time>2013-07-07T06:21:02Z</time>
      </trkpt>
      <trkpt lat="43.68202" lon="3.12057">
        <ele>565.7999878</ele>
        <time>2013-07-07T06:21:03Z</time>
      </trkpt>
      <trkpt lat="43.68201" lon="3.1206">
        <ele>566.2000122</ele>
        <time>2013-07-07T06:21:04Z</time>
      </trkpt>
      <trkpt lat="43.68201" lon="3.12063">
        <ele>566.5999756</ele>
        <time>2013-07-07T06:21:05Z</time>
      </trkpt>
      <trkpt lat="43.682" lon="3.12071">
        <ele>566.5999756</ele>
        <time>2013-07-07T06:21:08Z</time>
      </trkpt>
      <trkpt lat="43.68197" lon="3.12085">
        <ele>567</ele>
        <time>2013-07-07T06:21:14Z</time>
      </trkpt>
      <trkpt lat="43.68197" lon="3.12087">
        <ele>567.4000244</ele>
        <time>2013-07-07T06:21:15Z</time>
      </trkpt>
      <trkpt lat="43.68196" lon="3.1209">
        <ele>567.7999878</ele>
        <time>2013-07-07T06:21:16Z</time>
      </trkpt>
      <trkpt lat="43.68196" lon="3.12092">
        <ele>568.2000122</ele>
        <time>2013-07-07T06:21:17Z</time>
      </trkpt>
      <trkpt lat="43.68195" lon="3.12095">
        <ele>568.5999756</ele>
        <time>2013-07-07T06:21:18Z</time>
      </trkpt>
      <trkpt lat="43.68193" lon="3.12102">
        <ele>568.5999756</ele>
        <time>2013-07-07T06:21:21Z</time>
      </trkpt>
      <trkpt lat="43.68188" lon="3.12118">
        <ele>568.5999756</ele>
        <time>2013-07-07T06:21:27Z</time>
      </trkpt>
      <trkpt lat="43.68186" lon="3.12123">
        <ele>569</ele>
        <time>2013-07-07T06:21:29Z</time>
      </trkpt>
      <trkpt lat="43.68186" lon="3.12125">
        <ele>569.7999878</ele>
        <time>2013-07-07T06:21:30Z</time>
      </trkpt>
      <trkpt lat="43.68185" lon="3.12128">
        <ele>570.2000122</ele>
        <time>2013-07-07T06:21:31Z</time>
      </trkpt>
      <trkpt lat="43.68184" lon="3.1213">
        <ele>570.5999756</ele>
        <time>2013-07-07T06:21:32Z</time>
      </trkpt>
      <trkpt lat="43.68182" lon="3.12138">
        <ele>570.5999756</ele>
        <time>2013-07-07T06:21:35Z</time>
      </trkpt>
      <trkpt lat="43.68178" lon="3.1216">
        <ele>570.5999756</ele>
        <time>2013-07-07T06:21:44Z</time>
      </trkpt>
      <trkpt lat="43.68177" lon="3.1217">
        <ele>571</ele>
        <time>2013-07-07T06:21:48Z</time>
      </trkpt>
      <trkpt lat="43.68177" lon="3.12173">
        <ele>571.4000244</ele>
        <time>2013-07-07T06:21:49Z</time>
      </trkpt>
      <trkpt lat="43.68177" lon="3.12175">
        <ele>571.7999878</ele>
        <time>2013-07-07T06:21:50Z</time>
      </trkpt>
      <trkpt lat="43.68178" lon="3.12178">
        <ele>572.4000244</ele>
        <time>2013-07-07T06:21:51Z</time>
      </trkpt>
      <trkpt lat="43.68178" lon="3.1218">
        <ele>572.7999878</ele>
        <time>2013-07-07T06:21:52Z</time>
      </trkpt>
      <trkpt lat="43.68178" lon="3.12187">
        <ele>573.2000122</ele>
        <time>2013-07-07T06:21:55Z</time>
      </trkpt>
      <trkpt lat="43.68178" lon="3.1219">
        <ele>573.5999756</ele>
        <time>2013-07-07T06:21:56Z</time>
      </trkpt>
      <trkpt lat="43.68178" lon="3.12192">
        <ele>574</ele>
        <time>2013-07-07T06:21:57Z</time>
      </trkpt>
      <trkpt lat="43.68178" lon="3.12194">
        <ele>574.4000244</ele>
        <time>2013-07-07T06:21:58Z</time>
      </trkpt>
      <trkpt lat="43.68179" lon="3.12196">
        <ele>574.7999878</ele>
        <time>2013-07-07T06:21:59Z</time>
      </trkpt>
      <trkpt lat="43.68181" lon="3.12205">
        <ele>574.7999878</ele>
        <time>2013-07-07T06:22:03Z</time>
      </trkpt>
      <trkpt lat="43.68183" lon="3.12209">
        <ele>575.4000244</ele>
        <time>2013-07-07T06:22:05Z</time>
      </trkpt>
      <trkpt lat="43.68184" lon="3.12211">
        <ele>575.7999878</ele>
        <time>2013-07-07T06:22:06Z</time>
      </trkpt>
      <trkpt lat="43.68186" lon="3.12213">
        <ele>576.2000122</ele>
        <time>2013-07-07T06:22:07Z</time>
      </trkpt>
      <trkpt lat="43.68187" lon="3.12214">
        <ele>576.5999756</ele>
        <time>2013-07-07T06:22:08Z</time>
      </trkpt>
      <trkpt lat="43.68189" lon="3.12215">
        <ele>577</ele>
        <time>2013-07-07T06:22:09Z</time>
      </trkpt>
      <trkpt lat="43.68191" lon="3.12215">
        <ele>577</ele>
        <time>2013-07-07T06:22:10Z</time>
      </trkpt>
      <trkpt lat="43.68196" lon="3.1221">
        <ele>577</ele>
        <time>2013-07-07T06:22:14Z</time>
      </trkpt>
      <trkpt lat="43.68196" lon="3.12208">
        <ele>577</ele>
        <time>2013-07-07T06:22:15Z</time>
      </trkpt>
      <trkpt lat="43.68197" lon="3.12204">
        <ele>577.4000244</ele>
        <time>2013-07-07T06:22:17Z</time>
      </trkpt>
      <trkpt lat="43.68197" lon="3.12202">
        <ele>577.7999878</ele>
        <time>2013-07-07T06:22:18Z</time>
      </trkpt>
      <trkpt lat="43.68198" lon="3.122">
        <ele>578.2000122</ele>
        <time>2013-07-07T06:22:19Z</time>
      </trkpt>
      <trkpt lat="43.68199" lon="3.12199">
        <ele>579.2000122</ele>
        <time>2013-07-07T06:22:20Z</time>
      </trkpt>
      <trkpt lat="43.682" lon="3.12193">
        <ele>579.2000122</ele>
        <time>2013-07-07T06:22:23Z</time>
      </trkpt>
      <trkpt lat="43.682" lon="3.12192">
        <ele>579.5999756</ele>
        <time>2013-07-07T06:22:24Z</time>
      </trkpt>
      <trkpt lat="43.682" lon="3.1219">
        <ele>580</ele>
        <time>2013-07-07T06:22:25Z</time>
      </trkpt>
      <trkpt lat="43.68199" lon="3.12188">
        <ele>580.4000244</ele>
        <time>2013-07-07T06:22:26Z</time>
      </trkpt>
      <trkpt lat="43.68199" lon="3.12186">
        <ele>581</ele>
        <time>2013-07-07T06:22:27Z</time>
      </trkpt>
      <trkpt lat="43.682" lon="3.12184">
        <ele>581.4000244</ele>
        <time>2013-07-07T06:22:28Z</time>
      </trkpt>
      <trkpt lat="43.682" lon="3.12182">
        <ele>581.4000244</ele>
        <time>2013-07-07T06:22:29Z</time>
      </trkpt>
      <trkpt lat="43.68202" lon="3.12173">
        <ele>581.7999878</ele>
        <time>2013-07-07T06:22:34Z</time>
      </trkpt>
      <trkpt lat="43.68203" lon="3.12171">
        <ele>582.2000122</ele>
        <time>2013-07-07T06:22:35Z</time>
      </trkpt>
      <trkpt lat="43.68204" lon="3.1217">
        <ele>582.7999878</ele>
        <time>2013-07-07T06:22:36Z</time>
      </trkpt>
      <trkpt lat="43.68204" lon="3.12168">
        <ele>583.2000122</ele>
        <time>2013-07-07T06:22:37Z</time>
      </trkpt>
      <trkpt lat="43.68205" lon="3.12166">
        <ele>583.5999756</ele>
        <time>2013-07-07T06:22:38Z</time>
      </trkpt>
      <trkpt lat="43.68208" lon="3.12159">
        <ele>583.5999756</ele>
        <time>2013-07-07T06:22:42Z</time>
      </trkpt>
      <trkpt lat="43.6821" lon="3.12154">
        <ele>584</ele>
        <time>2013-07-07T06:22:45Z</time>
      </trkpt>
      <trkpt lat="43.68211" lon="3.12152">
        <ele>584.4000244</ele>
        <time>2013-07-07T06:22:46Z</time>
      </trkpt>
      <trkpt lat="43.68212" lon="3.1215">
        <ele>584.7999878</ele>
        <time>2013-07-07T06:22:47Z</time>
      </trkpt>
      <trkpt lat="43.68213" lon="3.12148">
        <ele>585.4000244</ele>
        <time>2013-07-07T06:22:48Z</time>
      </trkpt>
      <trkpt lat="43.68213" lon="3.12147">
        <ele>585.7999878</ele>
        <time>2013-07-07T06:22:49Z</time>
      </trkpt>
      <trkpt lat="43.68215" lon="3.12145">
        <ele>585.7999878</ele>
        <time>2013-07-07T06:22:50Z</time>
      </trkpt>
      <trkpt lat="43.68223" lon="3.12136">
        <ele>586.2000122</ele>
        <time>2013-07-07T06:22:57Z</time>
      </trkpt>
      <trkpt lat="43.68225" lon="3.12135">
        <ele>586.5999756</ele>
        <time>2013-07-07T06:22:58Z</time>
      </trkpt>
      <trkpt lat="43.68226" lon="3.12133">
        <ele>587</ele>
        <time>2013-07-07T06:22:59Z</time>
      </trkpt>
      <trkpt lat="43.68227" lon="3.12131">
        <ele>587.4000244</ele>
        <time>2013-07-07T06:23:00Z</time>
      </trkpt>
      <trkpt lat="43.68228" lon="3.1213">
        <ele>587.7999878</ele>
        <time>2013-07-07T06:23:01Z</time>
      </trkpt>
      <trkpt lat="43.68232" lon="3.12126">
        <ele>587.7999878</ele>
        <time>2013-07-07T06:23:04Z</time>
      </trkpt>
      <trkpt lat="43.68237" lon="3.12119">
        <ele>588.2000122</ele>
        <time>2013-07-07T06:23:09Z</time>
      </trkpt>
      <trkpt lat="43.68239" lon="3.12118">
        <ele>588.5999756</ele>
        <time>2013-07-07T06:23:10Z</time>
      </trkpt>
      <trkpt lat="43.6824" lon="3.12116">
        <ele>589</ele>
        <time>2013-07-07T06:23:11Z</time>
      </trkpt>
      <trkpt lat="43.68242" lon="3.12115">
        <ele>589.4000244</ele>
        <time>2013-07-07T06:23:12Z</time>
      </trkpt>
      <trkpt lat="43.68243" lon="3.12113">
        <ele>589.7999878</ele>
        <time>2013-07-07T06:23:13Z</time>
      </trkpt>
      <trkpt lat="43.68251" lon="3.12109">
        <ele>589.7999878</ele>
        <time>2013-07-07T06:23:19Z</time>
      </trkpt>
      <trkpt lat="43.68258" lon="3.12108">
        <ele>590.2000122</ele>
        <time>2013-07-07T06:23:24Z</time>
      </trkpt>
      <trkpt lat="43.6826" lon="3.12108">
        <ele>590.5999756</ele>
        <time>2013-07-07T06:23:25Z</time>
      </trkpt>
      <trkpt lat="43.68262" lon="3.12109">
        <ele>591</ele>
        <time>2013-07-07T06:23:26Z</time>
      </trkpt>
      <trkpt lat="43.68263" lon="3.12109">
        <ele>591.5999756</ele>
        <time>2013-07-07T06:23:27Z</time>
      </trkpt>
      <trkpt lat="43.68265" lon="3.1211">
        <ele>592</ele>
        <time>2013-07-07T06:23:28Z</time>
      </trkpt>
      <trkpt lat="43.68272" lon="3.12118">
        <ele>592.4000244</ele>
        <time>2013-07-07T06:23:34Z</time>
      </trkpt>
      <trkpt lat="43.68272" lon="3.12119">
        <ele>592.7999878</ele>
        <time>2013-07-07T06:23:35Z</time>
      </trkpt>
      <trkpt lat="43.68273" lon="3.1212">
        <ele>593.2000122</ele>
        <time>2013-07-07T06:23:36Z</time>
      </trkpt>
      <trkpt lat="43.68274" lon="3.12121">
        <ele>593.7999878</ele>
        <time>2013-07-07T06:23:37Z</time>
      </trkpt>
      <trkpt lat="43.68275" lon="3.12122">
        <ele>594.2000122</ele>
        <time>2013-07-07T06:23:38Z</time>
      </trkpt>
      <trkpt lat="43.68279" lon="3.12128">
        <ele>594.2000122</ele>
        <time>2013-07-07T06:23:42Z</time>
      </trkpt>
      <trkpt lat="43.6828" lon="3.12129">
        <ele>594.5999756</ele>
        <time>2013-07-07T06:23:43Z</time>
      </trkpt>
      <trkpt lat="43.68281" lon="3.1213">
        <ele>595</ele>
        <time>2013-07-07T06:23:44Z</time>
      </trkpt>
      <trkpt lat="43.68282" lon="3.12132">
        <ele>595.4000244</ele>
        <time>2013-07-07T06:23:45Z</time>
      </trkpt>
      <trkpt lat="43.68283" lon="3.12133">
        <ele>595.7999878</ele>
        <time>2013-07-07T06:23:46Z</time>
      </trkpt>
      <trkpt lat="43.68283" lon="3.12134">
        <ele>596.4000244</ele>
        <time>2013-07-07T06:23:47Z</time>
      </trkpt>
      <trkpt lat="43.68286" lon="3.12137">
        <ele>596.7999878</ele>
        <time>2013-07-07T06:23:50Z</time>
      </trkpt>
      <trkpt lat="43.68287" lon="3.12139">
        <ele>597.2000122</ele>
        <time>2013-07-07T06:23:51Z</time>
      </trkpt>
      <trkpt lat="43.68288" lon="3.1214">
        <ele>597.5999756</ele>
        <time>2013-07-07T06:23:52Z</time>
      </trkpt>
      <trkpt lat="43.68289" lon="3.12141">
        <ele>598</ele>
        <time>2013-07-07T06:23:53Z</time>
      </trkpt>
      <trkpt lat="43.68289" lon="3.12143">
        <ele>598.4000244</ele>
        <time>2013-07-07T06:23:54Z</time>
      </trkpt>
      <trkpt lat="43.68293" lon="3.12149">
        <ele>598.7999878</ele>
        <time>2013-07-07T06:23:58Z</time>
      </trkpt>
      <trkpt lat="43.68294" lon="3.12151">
        <ele>599.2000122</ele>
        <time>2013-07-07T06:23:59Z</time>
      </trkpt>
      <trkpt lat="43.68294" lon="3.12153">
        <ele>599.5999756</ele>
        <time>2013-07-07T06:24:00Z</time>
      </trkpt>
      <trkpt lat="43.68295" lon="3.12154">
        <ele>600</ele>
        <time>2013-07-07T06:24:01Z</time>
      </trkpt>
      <trkpt lat="43.68296" lon="3.12156">
        <ele>600.4000244</ele>
        <time>2013-07-07T06:24:02Z</time>
      </trkpt>
      <trkpt lat="43.68299" lon="3.12164">
        <ele>600.4000244</ele>
        <time>2013-07-07T06:24:07Z</time>
      </trkpt>
      <trkpt lat="43.683" lon="3.12167">
        <ele>600.7999878</ele>
        <time>2013-07-07T06:24:09Z</time>
      </trkpt>
      <trkpt lat="43.68301" lon="3.12168">
        <ele>601.2000122</ele>
        <time>2013-07-07T06:24:10Z</time>
      </trkpt>
      <trkpt lat="43.68301" lon="3.1217">
        <ele>601.5999756</ele>
        <time>2013-07-07T06:24:11Z</time>
      </trkpt>
      <trkpt lat="43.68302" lon="3.12171">
        <ele>602.2000122</ele>
        <time>2013-07-07T06:24:12Z</time>
      </trkpt>
      <trkpt lat="43.68302" lon="3.12173">
        <ele>602.5999756</ele>
        <time>2013-07-07T06:24:13Z</time>
      </trkpt>
      <trkpt lat="43.68303" lon="3.12179">
        <ele>602.5999756</ele>
        <time>2013-07-07T06:24:16Z</time>
      </trkpt>
      <trkpt lat="43.68304" lon="3.12189">
        <ele>603</ele>
        <time>2013-07-07T06:24:21Z</time>
      </trkpt>
      <trkpt lat="43.68304" lon="3.12191">
        <ele>603.4000244</ele>
        <time>2013-07-07T06:24:22Z</time>
      </trkpt>
      <trkpt lat="43.68304" lon="3.12193">
        <ele>604.2000122</ele>
        <time>2013-07-07T06:24:23Z</time>
      </trkpt>
      <trkpt lat="43.68304" lon="3.12194">
        <ele>604.7999878</ele>
        <time>2013-07-07T06:24:24Z</time>
      </trkpt>
      <trkpt lat="43.68306" lon="3.12204">
        <ele>604.7999878</ele>
        <time>2013-07-07T06:24:30Z</time>
      </trkpt>
      <trkpt lat="43.68306" lon="3.12206">
        <ele>605.2000122</ele>
        <time>2013-07-07T06:24:31Z</time>
      </trkpt>
      <trkpt lat="43.68306" lon="3.12207">
        <ele>605.5999756</ele>
        <time>2013-07-07T06:24:32Z</time>
      </trkpt>
      <trkpt lat="43.68306" lon="3.12209">
        <ele>606</ele>
        <time>2013-07-07T06:24:33Z</time>
      </trkpt>
      <trkpt lat="43.68307" lon="3.12211">
        <ele>606.4000244</ele>
        <time>2013-07-07T06:24:34Z</time>
      </trkpt>
      <trkpt lat="43.68307" lon="3.12212">
        <ele>606.7999878</ele>
        <time>2013-07-07T06:24:35Z</time>
      </trkpt>
      <trkpt lat="43.68309" lon="3.12219">
        <ele>607.2000122</ele>
        <time>2013-07-07T06:24:39Z</time>
      </trkpt>
      <trkpt lat="43.6831" lon="3.1222">
        <ele>607.5999756</ele>
        <time>2013-07-07T06:24:40Z</time>
      </trkpt>
      <trkpt lat="43.6831" lon="3.12222">
        <ele>608</ele>
        <time>2013-07-07T06:24:41Z</time>
      </trkpt>
      <trkpt lat="43.6831" lon="3.12223">
        <ele>608.4000244</ele>
        <time>2013-07-07T06:24:42Z</time>
      </trkpt>
      <trkpt lat="43.6831" lon="3.12225">
        <ele>608.7999878</ele>
        <time>2013-07-07T06:24:43Z</time>
      </trkpt>
      <trkpt lat="43.68312" lon="3.12232">
        <ele>609.4000244</ele>
        <time>2013-07-07T06:24:47Z</time>
      </trkpt>
      <trkpt lat="43.68312" lon="3.12233">
        <ele>609.7999878</ele>
        <time>2013-07-07T06:24:48Z</time>
      </trkpt>
      <trkpt lat="43.68312" lon="3.12235">
        <ele>610.2000122</ele>
        <time>2013-07-07T06:24:49Z</time>
      </trkpt>
      <trkpt lat="43.68312" lon="3.12236">
        <ele>610.7999878</ele>
        <time>2013-07-07T06:24:50Z</time>
      </trkpt>
      <trkpt lat="43.68313" lon="3.12238">
        <ele>611.2000122</ele>
        <time>2013-07-07T06:24:51Z</time>
      </trkpt>
      <trkpt lat="43.68314" lon="3.12243">
        <ele>611.5999756</ele>
        <time>2013-07-07T06:24:55Z</time>
      </trkpt>
      <trkpt lat="43.68314" lon="3.12245">
        <ele>612</ele>
        <time>2013-07-07T06:24:56Z</time>
      </trkpt>
      <trkpt lat="43.68315" lon="3.12246">
        <ele>612.4000244</ele>
        <time>2013-07-07T06:24:57Z</time>
      </trkpt>
      <trkpt lat="43.68316" lon="3.12247">
        <ele>613</ele>
        <time>2013-07-07T06:24:58Z</time>
      </trkpt>
      <trkpt lat="43.68317" lon="3.12249">
        <ele>613.4000244</ele>
        <time>2013-07-07T06:24:59Z</time>
      </trkpt>
      <trkpt lat="43.68322" lon="3.12257">
        <ele>613.7999878</ele>
        <time>2013-07-07T06:25:06Z</time>
      </trkpt>
      <trkpt lat="43.68323" lon="3.12258">
        <ele>614.2000122</ele>
        <time>2013-07-07T06:25:07Z</time>
      </trkpt>
      <trkpt lat="43.68324" lon="3.12259">
        <ele>614.5999756</ele>
        <time>2013-07-07T06:25:08Z</time>
      </trkpt>
      <trkpt lat="43.68325" lon="3.12259">
        <ele>615</ele>
        <time>2013-07-07T06:25:09Z</time>
      </trkpt>
      <trkpt lat="43.68326" lon="3.1226">
        <ele>615.5999756</ele>
        <time>2013-07-07T06:25:10Z</time>
      </trkpt>
      <trkpt lat="43.6833" lon="3.12264">
        <ele>615.5999756</ele>
        <time>2013-07-07T06:25:15Z</time>
      </trkpt>
      <trkpt lat="43.68331" lon="3.12265">
        <ele>616</ele>
        <time>2013-07-07T06:25:16Z</time>
      </trkpt>
      <trkpt lat="43.68332" lon="3.12266">
        <ele>616.4000244</ele>
        <time>2013-07-07T06:25:17Z</time>
      </trkpt>
      <trkpt lat="43.68333" lon="3.12266">
        <ele>616.7999878</ele>
        <time>2013-07-07T06:25:18Z</time>
      </trkpt>
      <trkpt lat="43.68334" lon="3.12266">
        <ele>617.2000122</ele>
        <time>2013-07-07T06:25:19Z</time>
      </trkpt>
      <trkpt lat="43.68335" lon="3.12267">
        <ele>617.7999878</ele>
        <time>2013-07-07T06:25:20Z</time>
      </trkpt>
      <trkpt lat="43.68338" lon="3.12269">
        <ele>617.7999878</ele>
        <time>2013-07-07T06:25:23Z</time>
      </trkpt>
      <trkpt lat="43.68341" lon="3.12271">
        <ele>618.2000122</ele>
        <time>2013-07-07T06:25:26Z</time>
      </trkpt>
      <trkpt lat="43.68342" lon="3.12272">
        <ele>618.5999756</ele>
        <time>2013-07-07T06:25:27Z</time>
      </trkpt>
      <trkpt lat="43.68343" lon="3.12273">
        <ele>619</ele>
        <time>2013-07-07T06:25:28Z</time>
      </trkpt>
      <trkpt lat="43.68344" lon="3.12274">
        <ele>619.4000244</ele>
        <time>2013-07-07T06:25:29Z</time>
      </trkpt>
      <trkpt lat="43.68344" lon="3.12275">
        <ele>619.7999878</ele>
        <time>2013-07-07T06:25:30Z</time>
      </trkpt>
      <trkpt lat="43.6835" lon="3.1228">
        <ele>619.7999878</ele>
        <time>2013-07-07T06:25:35Z</time>
      </trkpt>
      <trkpt lat="43.68351" lon="3.12281">
        <ele>620.2000122</ele>
        <time>2013-07-07T06:25:36Z</time>
      </trkpt>
      <trkpt lat="43.68352" lon="3.12282">
        <ele>620.5999756</ele>
        <time>2013-07-07T06:25:37Z</time>
      </trkpt>
      <trkpt lat="43.68352" lon="3.12283">
        <ele>621</ele>
        <time>2013-07-07T06:25:38Z</time>
      </trkpt>
      <trkpt lat="43.68353" lon="3.12285">
        <ele>621.4000244</ele>
        <time>2013-07-07T06:25:39Z</time>
      </trkpt>
      <trkpt lat="43.68354" lon="3.12286">
        <ele>622</ele>
        <time>2013-07-07T06:25:40Z</time>
      </trkpt>
      <trkpt lat="43.6836" lon="3.12293">
        <ele>622</ele>
        <time>2013-07-07T06:25:46Z</time>
      </trkpt>
      <trkpt lat="43.68361" lon="3.12294">
        <ele>622.4000244</ele>
        <time>2013-07-07T06:25:47Z</time>
      </trkpt>
      <trkpt lat="43.68362" lon="3.12294">
        <ele>622.7999878</ele>
        <time>2013-07-07T06:25:48Z</time>
      </trkpt>
      <trkpt lat="43.68363" lon="3.12295">
        <ele>623.2000122</ele>
        <time>2013-07-07T06:25:49Z</time>
      </trkpt>
      <trkpt lat="43.68364" lon="3.12296">
        <ele>623.5999756</ele>
        <time>2013-07-07T06:25:50Z</time>
      </trkpt>
      <trkpt lat="43.68366" lon="3.12297">
        <ele>624</ele>
        <time>2013-07-07T06:25:51Z</time>
      </trkpt>
      <trkpt lat="43.68368" lon="3.12298">
        <ele>624</ele>
        <time>2013-07-07T06:25:53Z</time>
      </trkpt>
      <trkpt lat="43.68373" lon="3.12304">
        <ele>624.4000244</ele>
        <time>2013-07-07T06:25:58Z</time>
      </trkpt>
      <trkpt lat="43.68374" lon="3.12305">
        <ele>624.7999878</ele>
        <time>2013-07-07T06:25:59Z</time>
      </trkpt>
      <trkpt lat="43.68375" lon="3.12306">
        <ele>625.7999878</ele>
        <time>2013-07-07T06:26:00Z</time>
      </trkpt>
      <trkpt lat="43.68376" lon="3.12307">
        <ele>626.2000122</ele>
        <time>2013-07-07T06:26:01Z</time>
      </trkpt>
      <trkpt lat="43.68385" lon="3.12314">
        <ele>626.5999756</ele>
        <time>2013-07-07T06:26:09Z</time>
      </trkpt>
      <trkpt lat="43.68386" lon="3.12316">
        <ele>627</ele>
        <time>2013-07-07T06:26:10Z</time>
      </trkpt>
      <trkpt lat="43.68387" lon="3.12317">
        <ele>627.4000244</ele>
        <time>2013-07-07T06:26:11Z</time>
      </trkpt>
      <trkpt lat="43.68388" lon="3.12318">
        <ele>627.7999878</ele>
        <time>2013-07-07T06:26:12Z</time>
      </trkpt>
      <trkpt lat="43.6839" lon="3.12319">
        <ele>628.4000244</ele>
        <time>2013-07-07T06:26:13Z</time>
      </trkpt>
      <trkpt lat="43.68397" lon="3.12327">
        <ele>628.7999878</ele>
        <time>2013-07-07T06:26:20Z</time>
      </trkpt>
      <trkpt lat="43.68399" lon="3.12328">
        <ele>629.2000122</ele>
        <time>2013-07-07T06:26:21Z</time>
      </trkpt>
      <trkpt lat="43.684" lon="3.12329">
        <ele>629.5999756</ele>
        <time>2013-07-07T06:26:22Z</time>
      </trkpt>
      <trkpt lat="43.68401" lon="3.1233">
        <ele>630</ele>
        <time>2013-07-07T06:26:23Z</time>
      </trkpt>
      <trkpt lat="43.68402" lon="3.12331">
        <ele>630.4000244</ele>
        <time>2013-07-07T06:26:24Z</time>
      </trkpt>
      <trkpt lat="43.68408" lon="3.12337">
        <ele>630.4000244</ele>
        <time>2013-07-07T06:26:29Z</time>
      </trkpt>
      <trkpt lat="43.68411" lon="3.12339">
        <ele>630.7999878</ele>
        <time>2013-07-07T06:26:32Z</time>
      </trkpt>
      <trkpt lat="43.68412" lon="3.12341">
        <ele>631.2000122</ele>
        <time>2013-07-07T06:26:33Z</time>
      </trkpt>
      <trkpt lat="43.68413" lon="3.12342">
        <ele>631.5999756</ele>
        <time>2013-07-07T06:26:34Z</time>
      </trkpt>
      <trkpt lat="43.68414" lon="3.12344">
        <ele>632.2000122</ele>
        <time>2013-07-07T06:26:35Z</time>
      </trkpt>
      <trkpt lat="43.68415" lon="3.12345">
        <ele>632.5999756</ele>
        <time>2013-07-07T06:26:36Z</time>
      </trkpt>
      <trkpt lat="43.68422" lon="3.12354">
        <ele>633</ele>
        <time>2013-07-07T06:26:43Z</time>
      </trkpt>
      <trkpt lat="43.68424" lon="3.12356">
        <ele>633.4000244</ele>
        <time>2013-07-07T06:26:44Z</time>
      </trkpt>
      <trkpt lat="43.68425" lon="3.12357">
        <ele>633.7999878</ele>
        <time>2013-07-07T06:26:45Z</time>
      </trkpt>
      <trkpt lat="43.68426" lon="3.12358">
        <ele>634.2000122</ele>
        <time>2013-07-07T06:26:46Z</time>
      </trkpt>
      <trkpt lat="43.68427" lon="3.1236">
        <ele>634.5999756</ele>
        <time>2013-07-07T06:26:47Z</time>
      </trkpt>
      <trkpt lat="43.68431" lon="3.12365">
        <ele>634.5999756</ele>
        <time>2013-07-07T06:26:51Z</time>
      </trkpt>
      <trkpt lat="43.68434" lon="3.12369">
        <ele>635</ele>
        <time>2013-07-07T06:26:54Z</time>
      </trkpt>
      <trkpt lat="43.68435" lon="3.12371">
        <ele>635.4000244</ele>
        <time>2013-07-07T06:26:55Z</time>
      </trkpt>
      <trkpt lat="43.68436" lon="3.12372">
        <ele>636</ele>
        <time>2013-07-07T06:26:56Z</time>
      </trkpt>
      <trkpt lat="43.68437" lon="3.12373">
        <ele>636.4000244</ele>
        <time>2013-07-07T06:26:57Z</time>
      </trkpt>
      <trkpt lat="43.68437" lon="3.12375">
        <ele>636.7999878</ele>
        <time>2013-07-07T06:26:58Z</time>
      </trkpt>
      <trkpt lat="43.68439" lon="3.12377">
        <ele>636.7999878</ele>
        <time>2013-07-07T06:26:59Z</time>
      </trkpt>
      <trkpt lat="43.68446" lon="3.12386">
        <ele>637.2000122</ele>
        <time>2013-07-07T06:27:06Z</time>
      </trkpt>
      <trkpt lat="43.68447" lon="3.12387">
        <ele>637.5999756</ele>
        <time>2013-07-07T06:27:07Z</time>
      </trkpt>
      <trkpt lat="43.68448" lon="3.12388">
        <ele>638</ele>
        <time>2013-07-07T06:27:08Z</time>
      </trkpt>
      <trkpt lat="43.68449" lon="3.1239">
        <ele>638.5999756</ele>
        <time>2013-07-07T06:27:09Z</time>
      </trkpt>
      <trkpt lat="43.6845" lon="3.12391">
        <ele>639</ele>
        <time>2013-07-07T06:27:10Z</time>
      </trkpt>
      <trkpt lat="43.68455" lon="3.12399">
        <ele>639</ele>
        <time>2013-07-07T06:27:15Z</time>
      </trkpt>
      <trkpt lat="43.68457" lon="3.12403">
        <ele>639.4000244</ele>
        <time>2013-07-07T06:27:17Z</time>
      </trkpt>
      <trkpt lat="43.68458" lon="3.12404">
        <ele>639.7999878</ele>
        <time>2013-07-07T06:27:18Z</time>
      </trkpt>
      <trkpt lat="43.6846" lon="3.12406">
        <ele>640.2000122</ele>
        <time>2013-07-07T06:27:19Z</time>
      </trkpt>
      <trkpt lat="43.68461" lon="3.12408">
        <ele>640.5999756</ele>
        <time>2013-07-07T06:27:20Z</time>
      </trkpt>
      <trkpt lat="43.68462" lon="3.1241">
        <ele>641</ele>
        <time>2013-07-07T06:27:21Z</time>
      </trkpt>
      <trkpt lat="43.68463" lon="3.12411">
        <ele>641</ele>
        <time>2013-07-07T06:27:22Z</time>
      </trkpt>
      <trkpt lat="43.6847" lon="3.12426">
        <ele>641.4000244</ele>
        <time>2013-07-07T06:27:30Z</time>
      </trkpt>
      <trkpt lat="43.68471" lon="3.12428">
        <ele>641.7999878</ele>
        <time>2013-07-07T06:27:31Z</time>
      </trkpt>
      <trkpt lat="43.68472" lon="3.12429">
        <ele>642.2000122</ele>
        <time>2013-07-07T06:27:32Z</time>
      </trkpt>
      <trkpt lat="43.68472" lon="3.12432">
        <ele>642.5999756</ele>
        <time>2013-07-07T06:27:33Z</time>
      </trkpt>
      <trkpt lat="43.68473" lon="3.12433">
        <ele>643</ele>
        <time>2013-07-07T06:27:34Z</time>
      </trkpt>
      <trkpt lat="43.68474" lon="3.12438">
        <ele>643</ele>
        <time>2013-07-07T06:27:37Z</time>
      </trkpt>
      <trkpt lat="43.68477" lon="3.12449">
        <ele>643.4000244</ele>
        <time>2013-07-07T06:27:42Z</time>
      </trkpt>
      <trkpt lat="43.68477" lon="3.12451">
        <ele>643.7999878</ele>
        <time>2013-07-07T06:27:43Z</time>
      </trkpt>
      <trkpt lat="43.68477" lon="3.12453">
        <ele>644.2000122</ele>
        <time>2013-07-07T06:27:44Z</time>
      </trkpt>
      <trkpt lat="43.68477" lon="3.12455">
        <ele>644.5999756</ele>
        <time>2013-07-07T06:27:45Z</time>
      </trkpt>
      <trkpt lat="43.68477" lon="3.12457">
        <ele>645.2000122</ele>
        <time>2013-07-07T06:27:46Z</time>
      </trkpt>
      <trkpt lat="43.68477" lon="3.12468">
        <ele>645.2000122</ele>
        <time>2013-07-07T06:27:51Z</time>
      </trkpt>
      <trkpt lat="43.68477" lon="3.12471">
        <ele>645.5999756</ele>
        <time>2013-07-07T06:27:52Z</time>
      </trkpt>
      <trkpt lat="43.68477" lon="3.12473">
        <ele>646</ele>
        <time>2013-07-07T06:27:53Z</time>
      </trkpt>
      <trkpt lat="43.68477" lon="3.12475">
        <ele>646.4000244</ele>
        <time>2013-07-07T06:27:54Z</time>
      </trkpt>
      <trkpt lat="43.68477" lon="3.12477">
        <ele>646.7999878</ele>
        <time>2013-07-07T06:27:55Z</time>
      </trkpt>
      <trkpt lat="43.68477" lon="3.12479">
        <ele>647.2000122</ele>
        <time>2013-07-07T06:27:56Z</time>
      </trkpt>
      <trkpt lat="43.68477" lon="3.12481">
        <ele>647.2000122</ele>
        <time>2013-07-07T06:27:57Z</time>
      </trkpt>
      <trkpt lat="43.68477" lon="3.12482">
        <ele>647.2000122</ele>
        <time>2013-07-07T06:27:58Z</time>
      </trkpt>
      <trkpt lat="43.68477" lon="3.12487">
        <ele>647.5999756</ele>
        <time>2013-07-07T06:28:00Z</time>
      </trkpt>
      <trkpt lat="43.68478" lon="3.12489">
        <ele>648</ele>
        <time>2013-07-07T06:28:01Z</time>
      </trkpt>
      <trkpt lat="43.68478" lon="3.12492">
        <ele>649</ele>
        <time>2013-07-07T06:28:02Z</time>
      </trkpt>
      <trkpt lat="43.68478" lon="3.12494">
        <ele>649.4000244</ele>
        <time>2013-07-07T06:28:03Z</time>
      </trkpt>
      <trkpt lat="43.68478" lon="3.12496">
        <ele>649.4000244</ele>
        <time>2013-07-07T06:28:04Z</time>
      </trkpt>
      <trkpt lat="43.68478" lon="3.125">
        <ele>649.4000244</ele>
        <time>2013-07-07T06:28:06Z</time>
      </trkpt>
      <trkpt lat="43.68478" lon="3.12504">
        <ele>649.7999878</ele>
        <time>2013-07-07T06:28:08Z</time>
      </trkpt>
      <trkpt lat="43.68478" lon="3.12507">
        <ele>650.2000122</ele>
        <time>2013-07-07T06:28:09Z</time>
      </trkpt>
      <trkpt lat="43.68477" lon="3.12509">
        <ele>650.5999756</ele>
        <time>2013-07-07T06:28:10Z</time>
      </trkpt>
      <trkpt lat="43.68477" lon="3.12511">
        <ele>651</ele>
        <time>2013-07-07T06:28:11Z</time>
      </trkpt>
      <trkpt lat="43.68477" lon="3.12514">
        <ele>651.4000244</ele>
        <time>2013-07-07T06:28:12Z</time>
      </trkpt>
      <trkpt lat="43.68476" lon="3.12524">
        <ele>651.7999878</ele>
        <time>2013-07-07T06:28:17Z</time>
      </trkpt>
      <trkpt lat="43.68476" lon="3.12526">
        <ele>652.2000122</ele>
        <time>2013-07-07T06:28:18Z</time>
      </trkpt>
      <trkpt lat="43.68476" lon="3.12528">
        <ele>652.5999756</ele>
        <time>2013-07-07T06:28:19Z</time>
      </trkpt>
      <trkpt lat="43.68476" lon="3.1253">
        <ele>653</ele>
        <time>2013-07-07T06:28:20Z</time>
      </trkpt>
      <trkpt lat="43.68476" lon="3.12532">
        <ele>653.4000244</ele>
        <time>2013-07-07T06:28:21Z</time>
      </trkpt>
      <trkpt lat="43.68476" lon="3.12544">
        <ele>653.7999878</ele>
        <time>2013-07-07T06:28:27Z</time>
      </trkpt>
      <trkpt lat="43.68476" lon="3.12546">
        <ele>654.4000244</ele>
        <time>2013-07-07T06:28:28Z</time>
      </trkpt>
      <trkpt lat="43.68477" lon="3.12548">
        <ele>654.7999878</ele>
        <time>2013-07-07T06:28:29Z</time>
      </trkpt>
      <trkpt lat="43.68477" lon="3.1255">
        <ele>655.2000122</ele>
        <time>2013-07-07T06:28:30Z</time>
      </trkpt>
      <trkpt lat="43.68478" lon="3.12551">
        <ele>655.5999756</ele>
        <time>2013-07-07T06:28:31Z</time>
      </trkpt>
      <trkpt lat="43.6848" lon="3.12559">
        <ele>655.5999756</ele>
        <time>2013-07-07T06:28:35Z</time>
      </trkpt>
      <trkpt lat="43.68481" lon="3.12563">
        <ele>656</ele>
        <time>2013-07-07T06:28:37Z</time>
      </trkpt>
      <trkpt lat="43.68482" lon="3.12565">
        <ele>656.4000244</ele>
        <time>2013-07-07T06:28:38Z</time>
      </trkpt>
      <trkpt lat="43.68483" lon="3.12566">
        <ele>656.7999878</ele>
        <time>2013-07-07T06:28:39Z</time>
      </trkpt>
      <trkpt lat="43.68483" lon="3.12568">
        <ele>657.2000122</ele>
        <time>2013-07-07T06:28:40Z</time>
      </trkpt>
      <trkpt lat="43.68483" lon="3.1257">
        <ele>657.5999756</ele>
        <time>2013-07-07T06:28:41Z</time>
      </trkpt>
      <trkpt lat="43.68484" lon="3.12573">
        <ele>657.5999756</ele>
        <time>2013-07-07T06:28:43Z</time>
      </trkpt>
      <trkpt lat="43.68485" lon="3.12577">
        <ele>658.2000122</ele>
        <time>2013-07-07T06:28:45Z</time>
      </trkpt>
      <trkpt lat="43.68486" lon="3.1258">
        <ele>658.5999756</ele>
        <time>2013-07-07T06:28:46Z</time>
      </trkpt>
      <trkpt lat="43.68486" lon="3.12582">
        <ele>659</ele>
        <time>2013-07-07T06:28:47Z</time>
      </trkpt>
      <trkpt lat="43.68486" lon="3.12583">
        <ele>659.5999756</ele>
        <time>2013-07-07T06:28:48Z</time>
      </trkpt>
      <trkpt lat="43.68487" lon="3.12585">
        <ele>660</ele>
        <time>2013-07-07T06:28:49Z</time>
      </trkpt>
      <trkpt lat="43.68491" lon="3.12595">
        <ele>660.4000244</ele>
        <time>2013-07-07T06:28:54Z</time>
      </trkpt>
      <trkpt lat="43.68492" lon="3.12598">
        <ele>660.7999878</ele>
        <time>2013-07-07T06:28:55Z</time>
      </trkpt>
      <trkpt lat="43.68493" lon="3.126">
        <ele>661.2000122</ele>
        <time>2013-07-07T06:28:56Z</time>
      </trkpt>
      <trkpt lat="43.68493" lon="3.12602">
        <ele>661.5999756</ele>
        <time>2013-07-07T06:28:57Z</time>
      </trkpt>
      <trkpt lat="43.68493" lon="3.12604">
        <ele>662</ele>
        <time>2013-07-07T06:28:58Z</time>
      </trkpt>
      <trkpt lat="43.68491" lon="3.12608">
        <ele>662</ele>
        <time>2013-07-07T06:29:00Z</time>
      </trkpt>
      <trkpt lat="43.6849" lon="3.12609">
        <ele>662</ele>
        <time>2013-07-07T06:29:01Z</time>
      </trkpt>
      <trkpt lat="43.68483" lon="3.12614">
        <ele>662</ele>
        <time>2013-07-07T06:29:07Z</time>
      </trkpt>
      <trkpt lat="43.68482" lon="3.12614">
        <ele>662</ele>
        <time>2013-07-07T06:29:09Z</time>
      </trkpt>
      <trkpt lat="43.68482" lon="3.12614">
        <ele>662</ele>
        <time>2013-07-07T06:29:10Z</time>
      </trkpt>
      <trkpt lat="43.68486" lon="3.12616">
        <ele>664.2000122</ele>
        <time>2013-07-07T06:38:14Z</time>
      </trkpt>
      <trkpt lat="43.68486" lon="3.12615">
        <ele>664.2000122</ele>
        <time>2013-07-07T06:38:15Z</time>
      </trkpt>
      <trkpt lat="43.68491" lon="3.12609">
        <ele>664.2000122</ele>
        <time>2013-07-07T06:38:22Z</time>
      </trkpt>
      <trkpt lat="43.68492" lon="3.126">
        <ele>664.2000122</ele>
        <time>2013-07-07T06:38:28Z</time>
      </trkpt>
      <trkpt lat="43.68492" lon="3.12597">
        <ele>664.2000122</ele>
        <time>2013-07-07T06:38:31Z</time>
      </trkpt>
      <trkpt lat="43.68491" lon="3.12594">
        <ele>664.2000122</ele>
        <time>2013-07-07T06:38:34Z</time>
      </trkpt>
      <trkpt lat="43.6849" lon="3.12588">
        <ele>664.2000122</ele>
        <time>2013-07-07T06:38:39Z</time>
      </trkpt>
      <trkpt lat="43.68489" lon="3.12587">
        <ele>664.2000122</ele>
        <time>2013-07-07T06:38:41Z</time>
      </trkpt>
      <trkpt lat="43.68489" lon="3.12587">
        <ele>664.2000122</ele>
        <time>2013-07-07T06:38:42Z</time>
      </trkpt>
      <trkpt lat="43.68487" lon="3.12581">
        <ele>664.2000122</ele>
        <time>2013-07-07T06:39:25Z</time>
      </trkpt>
      <trkpt lat="43.68486" lon="3.12576">
        <ele>664.2000122</ele>
        <time>2013-07-07T06:39:26Z</time>
      </trkpt>
      <trkpt lat="43.68483" lon="3.12565">
        <ele>664.2000122</ele>
        <time>2013-07-07T06:39:29Z</time>
      </trkpt>
      <trkpt lat="43.68482" lon="3.12563">
        <ele>663.5999756</ele>
        <time>2013-07-07T06:39:30Z</time>
      </trkpt>
      <trkpt lat="43.68482" lon="3.1256">
        <ele>663.2000122</ele>
        <time>2013-07-07T06:39:31Z</time>
      </trkpt>
      <trkpt lat="43.68482" lon="3.12558">
        <ele>662.7999878</ele>
        <time>2013-07-07T06:39:32Z</time>
      </trkpt>
      <trkpt lat="43.68482" lon="3.12556">
        <ele>662.4000244</ele>
        <time>2013-07-07T06:39:33Z</time>
      </trkpt>
      <trkpt lat="43.68482" lon="3.12554">
        <ele>661.7999878</ele>
        <time>2013-07-07T06:39:34Z</time>
      </trkpt>
      <trkpt lat="43.68483" lon="3.1255">
        <ele>661.4000244</ele>
        <time>2013-07-07T06:39:36Z</time>
      </trkpt>
      <trkpt lat="43.68484" lon="3.12546">
        <ele>661</ele>
        <time>2013-07-07T06:39:37Z</time>
      </trkpt>
      <trkpt lat="43.68485" lon="3.12542">
        <ele>660.5999756</ele>
        <time>2013-07-07T06:39:38Z</time>
      </trkpt>
      <trkpt lat="43.68487" lon="3.12535">
        <ele>660</ele>
        <time>2013-07-07T06:39:39Z</time>
      </trkpt>
      <trkpt lat="43.68488" lon="3.12529">
        <ele>659.2000122</ele>
        <time>2013-07-07T06:39:40Z</time>
      </trkpt>
      <trkpt lat="43.68489" lon="3.12523">
        <ele>658.4000244</ele>
        <time>2013-07-07T06:39:41Z</time>
      </trkpt>
      <trkpt lat="43.6849" lon="3.12517">
        <ele>657.5999756</ele>
        <time>2013-07-07T06:39:42Z</time>
      </trkpt>
      <trkpt lat="43.68491" lon="3.1251">
        <ele>656.7999878</ele>
        <time>2013-07-07T06:39:43Z</time>
      </trkpt>
      <trkpt lat="43.68492" lon="3.12504">
        <ele>655.7999878</ele>
        <time>2013-07-07T06:39:44Z</time>
      </trkpt>
      <trkpt lat="43.68492" lon="3.12498">
        <ele>655</ele>
        <time>2013-07-07T06:39:45Z</time>
      </trkpt>
      <trkpt lat="43.68492" lon="3.12492">
        <ele>654.2000122</ele>
        <time>2013-07-07T06:39:46Z</time>
      </trkpt>
      <trkpt lat="43.68492" lon="3.12486">
        <ele>653.4000244</ele>
        <time>2013-07-07T06:39:47Z</time>
      </trkpt>
      <trkpt lat="43.68492" lon="3.12481">
        <ele>652.4000244</ele>
        <time>2013-07-07T06:39:48Z</time>
      </trkpt>
      <trkpt lat="43.68492" lon="3.12476">
        <ele>651.5999756</ele>
        <time>2013-07-07T06:39:49Z</time>
      </trkpt>
      <trkpt lat="43.68493" lon="3.12472">
        <ele>650.7999878</ele>
        <time>2013-07-07T06:39:50Z</time>
      </trkpt>
      <trkpt lat="43.68493" lon="3.12469">
        <ele>650.2000122</ele>
        <time>2013-07-07T06:39:51Z</time>
      </trkpt>
      <trkpt lat="43.68493" lon="3.12466">
        <ele>649.4000244</ele>
        <time>2013-07-07T06:39:52Z</time>
      </trkpt>
      <trkpt lat="43.68493" lon="3.12463">
        <ele>648.5999756</ele>
        <time>2013-07-07T06:39:53Z</time>
      </trkpt>
      <trkpt lat="43.68493" lon="3.12461">
        <ele>647.7999878</ele>
        <time>2013-07-07T06:39:54Z</time>
      </trkpt>
      <trkpt lat="43.68492" lon="3.12458">
        <ele>647.4000244</ele>
        <time>2013-07-07T06:39:55Z</time>
      </trkpt>
      <trkpt lat="43.68492" lon="3.12455">
        <ele>647</ele>
        <time>2013-07-07T06:39:56Z</time>
      </trkpt>
      <trkpt lat="43.68492" lon="3.12452">
        <ele>646.5999756</ele>
        <time>2013-07-07T06:39:57Z</time>
      </trkpt>
      <trkpt lat="43.68492" lon="3.12449">
        <ele>646.2000122</ele>
        <time>2013-07-07T06:39:58Z</time>
      </trkpt>
      <trkpt lat="43.68493" lon="3.12447">
        <ele>645.5999756</ele>
        <time>2013-07-07T06:39:59Z</time>
      </trkpt>
      <trkpt lat="43.68493" lon="3.12445">
        <ele>645.2000122</ele>
        <time>2013-07-07T06:40:00Z</time>
      </trkpt>
      <trkpt lat="43.68493" lon="3.12443">
        <ele>644.7999878</ele>
        <time>2013-07-07T06:40:01Z</time>
      </trkpt>
      <trkpt lat="43.68492" lon="3.12441">
        <ele>644.4000244</ele>
        <time>2013-07-07T06:40:02Z</time>
      </trkpt>
      <trkpt lat="43.68492" lon="3.12439">
        <ele>644</ele>
        <time>2013-07-07T06:40:03Z</time>
      </trkpt>
      <trkpt lat="43.68492" lon="3.12436">
        <ele>643.5999756</ele>
        <time>2013-07-07T06:40:04Z</time>
      </trkpt>
      <trkpt lat="43.68492" lon="3.12427">
        <ele>643.2000122</ele>
        <time>2013-07-07T06:40:07Z</time>
      </trkpt>
      <trkpt lat="43.68491" lon="3.12426">
        <ele>642.5999756</ele>
        <time>2013-07-07T06:40:08Z</time>
      </trkpt>
      <trkpt lat="43.68491" lon="3.12425">
        <ele>642.2000122</ele>
        <time>2013-07-07T06:40:09Z</time>
      </trkpt>
      <trkpt lat="43.68491" lon="3.12425">
        <ele>641.7999878</ele>
        <time>2013-07-07T06:40:10Z</time>
      </trkpt>
      <trkpt lat="43.68491" lon="3.12425">
        <ele>641.4000244</ele>
        <time>2013-07-07T06:40:11Z</time>
      </trkpt>
      <trkpt lat="43.68491" lon="3.12418">
        <ele>641.4000244</ele>
        <time>2013-07-07T06:40:15Z</time>
      </trkpt>
      <trkpt lat="43.68491" lon="3.12416">
        <ele>641</ele>
        <time>2013-07-07T06:40:16Z</time>
      </trkpt>
      <trkpt lat="43.6849" lon="3.12413">
        <ele>640.5999756</ele>
        <time>2013-07-07T06:40:17Z</time>
      </trkpt>
      <trkpt lat="43.68489" lon="3.1241">
        <ele>640</ele>
        <time>2013-07-07T06:40:18Z</time>
      </trkpt>
      <trkpt lat="43.68488" lon="3.12407">
        <ele>639.5999756</ele>
        <time>2013-07-07T06:40:19Z</time>
      </trkpt>
      <trkpt lat="43.68488" lon="3.12403">
        <ele>639.2000122</ele>
        <time>2013-07-07T06:40:20Z</time>
      </trkpt>
      <trkpt lat="43.68486" lon="3.12392">
        <ele>638.4000244</ele>
        <time>2013-07-07T06:40:23Z</time>
      </trkpt>
      <trkpt lat="43.68486" lon="3.12389">
        <ele>637.7999878</ele>
        <time>2013-07-07T06:40:24Z</time>
      </trkpt>
      <trkpt lat="43.68485" lon="3.12385">
        <ele>637.4000244</ele>
        <time>2013-07-07T06:40:25Z</time>
      </trkpt>
      <trkpt lat="43.68484" lon="3.12382">
        <ele>637</ele>
        <time>2013-07-07T06:40:26Z</time>
      </trkpt>
      <trkpt lat="43.68484" lon="3.12379">
        <ele>636.5999756</ele>
        <time>2013-07-07T06:40:27Z</time>
      </trkpt>
      <trkpt lat="43.68483" lon="3.12376">
        <ele>636.2000122</ele>
        <time>2013-07-07T06:40:28Z</time>
      </trkpt>
      <trkpt lat="43.68482" lon="3.12374">
        <ele>635.5999756</ele>
        <time>2013-07-07T06:40:29Z</time>
      </trkpt>
      <trkpt lat="43.68482" lon="3.12372">
        <ele>635.2000122</ele>
        <time>2013-07-07T06:40:30Z</time>
      </trkpt>
      <trkpt lat="43.68482" lon="3.12372">
        <ele>634.7999878</ele>
        <time>2013-07-07T06:40:31Z</time>
      </trkpt>
      <trkpt lat="43.68482" lon="3.12372">
        <ele>634.4000244</ele>
        <time>2013-07-07T06:40:32Z</time>
      </trkpt>
      <trkpt lat="43.68481" lon="3.12368">
        <ele>632.5999756</ele>
        <time>2013-07-07T06:40:37Z</time>
      </trkpt>
      <trkpt lat="43.68479" lon="3.12367">
        <ele>632.5999756</ele>
        <time>2013-07-07T06:40:39Z</time>
      </trkpt>
      <trkpt lat="43.68478" lon="3.12365">
        <ele>632.5999756</ele>
        <time>2013-07-07T06:40:42Z</time>
      </trkpt>
      <trkpt lat="43.68476" lon="3.12362">
        <ele>631.7999878</ele>
        <time>2013-07-07T06:40:45Z</time>
      </trkpt>
      <trkpt lat="43.68476" lon="3.12362">
        <ele>631.4000244</ele>
        <time>2013-07-07T06:40:46Z</time>
      </trkpt>
      <trkpt lat="43.68476" lon="3.12362">
        <ele>631</ele>
        <time>2013-07-07T06:40:47Z</time>
      </trkpt>
      <trkpt lat="43.68475" lon="3.12361">
        <ele>630.5999756</ele>
        <time>2013-07-07T06:40:48Z</time>
      </trkpt>
      <trkpt lat="43.68473" lon="3.12354">
        <ele>630.2000122</ele>
        <time>2013-07-07T06:40:53Z</time>
      </trkpt>
      <trkpt lat="43.68472" lon="3.12352">
        <ele>629.7999878</ele>
        <time>2013-07-07T06:40:54Z</time>
      </trkpt>
      <trkpt lat="43.68472" lon="3.1235">
        <ele>629.4000244</ele>
        <time>2013-07-07T06:40:55Z</time>
      </trkpt>
      <trkpt lat="43.68471" lon="3.12349">
        <ele>629</ele>
        <time>2013-07-07T06:40:56Z</time>
      </trkpt>
      <trkpt lat="43.6847" lon="3.12347">
        <ele>628.5999756</ele>
        <time>2013-07-07T06:40:57Z</time>
      </trkpt>
      <trkpt lat="43.68469" lon="3.12346">
        <ele>628.5999756</ele>
        <time>2013-07-07T06:40:59Z</time>
      </trkpt>
      <trkpt lat="43.68469" lon="3.12346">
        <ele>628.5999756</ele>
        <time>2013-07-07T06:41:00Z</time>
      </trkpt>
      <trkpt lat="43.68469" lon="3.12346">
        <ele>628.5999756</ele>
        <time>2013-07-07T06:41:01Z</time>
      </trkpt>
      <trkpt lat="43.68468" lon="3.1234">
        <ele>628.5999756</ele>
        <time>2013-07-07T06:41:05Z</time>
      </trkpt>
      <trkpt lat="43.6847" lon="3.12338">
        <ele>628.5999756</ele>
        <time>2013-07-07T06:41:07Z</time>
      </trkpt>
      <trkpt lat="43.68471" lon="3.12339">
        <ele>628.2000122</ele>
        <time>2013-07-07T06:41:08Z</time>
      </trkpt>
      <trkpt lat="43.68472" lon="3.1234">
        <ele>627.5999756</ele>
        <time>2013-07-07T06:41:09Z</time>
      </trkpt>
      <trkpt lat="43.68473" lon="3.12341">
        <ele>627.2000122</ele>
        <time>2013-07-07T06:41:10Z</time>
      </trkpt>
      <trkpt lat="43.68474" lon="3.12343">
        <ele>626.7999878</ele>
        <time>2013-07-07T06:41:11Z</time>
      </trkpt>
      <trkpt lat="43.68475" lon="3.12344">
        <ele>626.4000244</ele>
        <time>2013-07-07T06:41:12Z</time>
      </trkpt>
      <trkpt lat="43.68477" lon="3.12345">
        <ele>626.4000244</ele>
        <time>2013-07-07T06:41:13Z</time>
      </trkpt>
      <trkpt lat="43.68487" lon="3.12349">
        <ele>626.4000244</ele>
        <time>2013-07-07T06:41:17Z</time>
      </trkpt>
      <trkpt lat="43.6849" lon="3.1235">
        <ele>626.4000244</ele>
        <time>2013-07-07T06:41:18Z</time>
      </trkpt>
      <trkpt lat="43.68508" lon="3.12351">
        <ele>626.4000244</ele>
        <time>2013-07-07T06:41:23Z</time>
      </trkpt>
      <trkpt lat="43.68513" lon="3.12352">
        <ele>625.7999878</ele>
        <time>2013-07-07T06:41:24Z</time>
      </trkpt>
      <trkpt lat="43.68519" lon="3.12355">
        <ele>625.4000244</ele>
        <time>2013-07-07T06:41:25Z</time>
      </trkpt>
      <trkpt lat="43.68524" lon="3.12358">
        <ele>625</ele>
        <time>2013-07-07T06:41:26Z</time>
      </trkpt>
      <trkpt lat="43.68528" lon="3.12363">
        <ele>624.4000244</ele>
        <time>2013-07-07T06:41:27Z</time>
      </trkpt>
      <trkpt lat="43.68532" lon="3.12367">
        <ele>623.7999878</ele>
        <time>2013-07-07T06:41:28Z</time>
      </trkpt>
      <trkpt lat="43.68535" lon="3.12371">
        <ele>623</ele>
        <time>2013-07-07T06:41:29Z</time>
      </trkpt>
      <trkpt lat="43.68537" lon="3.12375">
        <ele>622.4000244</ele>
        <time>2013-07-07T06:41:30Z</time>
      </trkpt>
      <trkpt lat="43.68538" lon="3.1238">
        <ele>621.7999878</ele>
        <time>2013-07-07T06:41:31Z</time>
      </trkpt>
      <trkpt lat="43.68539" lon="3.12386">
        <ele>621</ele>
        <time>2013-07-07T06:41:32Z</time>
      </trkpt>
      <trkpt lat="43.68541" lon="3.12396">
        <ele>620.5999756</ele>
        <time>2013-07-07T06:41:34Z</time>
      </trkpt>
      <trkpt lat="43.68543" lon="3.12401">
        <ele>620.2000122</ele>
        <time>2013-07-07T06:41:35Z</time>
      </trkpt>
      <trkpt lat="43.68544" lon="3.12406">
        <ele>619.4000244</ele>
        <time>2013-07-07T06:41:36Z</time>
      </trkpt>
      <trkpt lat="43.68545" lon="3.12411">
        <ele>618.7999878</ele>
        <time>2013-07-07T06:41:37Z</time>
      </trkpt>
      <trkpt lat="43.68548" lon="3.12436">
        <ele>618.7999878</ele>
        <time>2013-07-07T06:41:42Z</time>
      </trkpt>
      <trkpt lat="43.68551" lon="3.12451">
        <ele>618.7999878</ele>
        <time>2013-07-07T06:41:45Z</time>
      </trkpt>
      <trkpt lat="43.68555" lon="3.12466">
        <ele>618.4000244</ele>
        <time>2013-07-07T06:41:48Z</time>
      </trkpt>
      <trkpt lat="43.68556" lon="3.12471">
        <ele>618</ele>
        <time>2013-07-07T06:41:49Z</time>
      </trkpt>
      <trkpt lat="43.68557" lon="3.12477">
        <ele>617.5999756</ele>
        <time>2013-07-07T06:41:50Z</time>
      </trkpt>
      <trkpt lat="43.68558" lon="3.12482">
        <ele>617.2000122</ele>
        <time>2013-07-07T06:41:51Z</time>
      </trkpt>
      <trkpt lat="43.6856" lon="3.12488">
        <ele>616.7999878</ele>
        <time>2013-07-07T06:41:52Z</time>
      </trkpt>
      <trkpt lat="43.68564" lon="3.12512">
        <ele>616.7999878</ele>
        <time>2013-07-07T06:41:56Z</time>
      </trkpt>
      <trkpt lat="43.68567" lon="3.12529">
        <ele>616.4000244</ele>
        <time>2013-07-07T06:41:59Z</time>
      </trkpt>
      <trkpt lat="43.68568" lon="3.12535">
        <ele>616</ele>
        <time>2013-07-07T06:42:00Z</time>
      </trkpt>
      <trkpt lat="43.6857" lon="3.1254">
        <ele>615.2000122</ele>
        <time>2013-07-07T06:42:01Z</time>
      </trkpt>
      <trkpt lat="43.68572" lon="3.12545">
        <ele>614.7999878</ele>
        <time>2013-07-07T06:42:02Z</time>
      </trkpt>
      <trkpt lat="43.68574" lon="3.12548">
        <ele>614.7999878</ele>
        <time>2013-07-07T06:42:03Z</time>
      </trkpt>
      <trkpt lat="43.6858" lon="3.12563">
        <ele>614.7999878</ele>
        <time>2013-07-07T06:42:08Z</time>
      </trkpt>
      <trkpt lat="43.68584" lon="3.12571">
        <ele>614.2000122</ele>
        <time>2013-07-07T06:42:12Z</time>
      </trkpt>
      <trkpt lat="43.68585" lon="3.12573">
        <ele>613.7999878</ele>
        <time>2013-07-07T06:42:13Z</time>
      </trkpt>
      <trkpt lat="43.68586" lon="3.12576">
        <ele>613.4000244</ele>
        <time>2013-07-07T06:42:14Z</time>
      </trkpt>
      <trkpt lat="43.68587" lon="3.12578">
        <ele>613</ele>
        <time>2013-07-07T06:42:15Z</time>
      </trkpt>
      <trkpt lat="43.68589" lon="3.1258">
        <ele>612.4000244</ele>
        <time>2013-07-07T06:42:16Z</time>
      </trkpt>
      <trkpt lat="43.68594" lon="3.12588">
        <ele>612</ele>
        <time>2013-07-07T06:42:19Z</time>
      </trkpt>
      <trkpt lat="43.68596" lon="3.12591">
        <ele>611.5999756</ele>
        <time>2013-07-07T06:42:20Z</time>
      </trkpt>
      <trkpt lat="43.68598" lon="3.12595">
        <ele>611</ele>
        <time>2013-07-07T06:42:21Z</time>
      </trkpt>
      <trkpt lat="43.686" lon="3.12598">
        <ele>610.5999756</ele>
        <time>2013-07-07T06:42:22Z</time>
      </trkpt>
      <trkpt lat="43.68602" lon="3.126">
        <ele>610</ele>
        <time>2013-07-07T06:42:23Z</time>
      </trkpt>
      <trkpt lat="43.68604" lon="3.12602">
        <ele>609.5999756</ele>
        <time>2013-07-07T06:42:24Z</time>
      </trkpt>
      <trkpt lat="43.68607" lon="3.12604">
        <ele>609.2000122</ele>
        <time>2013-07-07T06:42:25Z</time>
      </trkpt>
      <trkpt lat="43.68608" lon="3.12606">
        <ele>608.2000122</ele>
        <time>2013-07-07T06:42:26Z</time>
      </trkpt>
      <trkpt lat="43.6861" lon="3.12608">
        <ele>607.5999756</ele>
        <time>2013-07-07T06:42:27Z</time>
      </trkpt>
      <trkpt lat="43.68611" lon="3.1261">
        <ele>607</ele>
        <time>2013-07-07T06:42:28Z</time>
      </trkpt>
      <trkpt lat="43.68614" lon="3.12614">
        <ele>606.4000244</ele>
        <time>2013-07-07T06:42:29Z</time>
      </trkpt>
      <trkpt lat="43.68617" lon="3.12618">
        <ele>605.7999878</ele>
        <time>2013-07-07T06:42:30Z</time>
      </trkpt>
      <trkpt lat="43.68619" lon="3.12619">
        <ele>605.2000122</ele>
        <time>2013-07-07T06:42:31Z</time>
      </trkpt>
      <trkpt lat="43.68621" lon="3.12619">
        <ele>604.5999756</ele>
        <time>2013-07-07T06:42:32Z</time>
      </trkpt>
      <trkpt lat="43.68623" lon="3.12619">
        <ele>603.7999878</ele>
        <time>2013-07-07T06:42:33Z</time>
      </trkpt>
      <trkpt lat="43.68625" lon="3.12618">
        <ele>603.2000122</ele>
        <time>2013-07-07T06:42:34Z</time>
      </trkpt>
      <trkpt lat="43.68626" lon="3.12617">
        <ele>602.4000244</ele>
        <time>2013-07-07T06:42:35Z</time>
      </trkpt>
      <trkpt lat="43.68627" lon="3.12615">
        <ele>601.7999878</ele>
        <time>2013-07-07T06:42:36Z</time>
      </trkpt>
      <trkpt lat="43.68629" lon="3.12613">
        <ele>601.2000122</ele>
        <time>2013-07-07T06:42:37Z</time>
      </trkpt>
      <trkpt lat="43.6863" lon="3.12611">
        <ele>600.5999756</ele>
        <time>2013-07-07T06:42:38Z</time>
      </trkpt>
      <trkpt lat="43.68631" lon="3.12609">
        <ele>600</ele>
        <time>2013-07-07T06:42:39Z</time>
      </trkpt>
      <trkpt lat="43.68631" lon="3.12607">
        <ele>599.4000244</ele>
        <time>2013-07-07T06:42:40Z</time>
      </trkpt>
      <trkpt lat="43.68632" lon="3.12606">
        <ele>598.7999878</ele>
        <time>2013-07-07T06:42:41Z</time>
      </trkpt>
      <trkpt lat="43.68633" lon="3.12605">
        <ele>598.2000122</ele>
        <time>2013-07-07T06:42:42Z</time>
      </trkpt>
      <trkpt lat="43.68633" lon="3.12605">
        <ele>597.7999878</ele>
        <time>2013-07-07T06:42:43Z</time>
      </trkpt>
      <trkpt lat="43.68633" lon="3.12604">
        <ele>597.2000122</ele>
        <time>2013-07-07T06:42:44Z</time>
      </trkpt>
      <trkpt lat="43.68635" lon="3.12604">
        <ele>596.5999756</ele>
        <time>2013-07-07T06:42:45Z</time>
      </trkpt>
      <trkpt lat="43.68637" lon="3.12607">
        <ele>596.5999756</ele>
        <time>2013-07-07T06:42:48Z</time>
      </trkpt>
      <trkpt lat="43.68638" lon="3.12611">
        <ele>596.5999756</ele>
        <time>2013-07-07T06:42:51Z</time>
      </trkpt>
      <trkpt lat="43.68639" lon="3.12613">
        <ele>596.5999756</ele>
        <time>2013-07-07T06:42:52Z</time>
      </trkpt>
      <trkpt lat="43.68641" lon="3.12619">
        <ele>596.2000122</ele>
        <time>2013-07-07T06:42:55Z</time>
      </trkpt>
      <trkpt lat="43.68642" lon="3.12619">
        <ele>595.5999756</ele>
        <time>2013-07-07T06:42:56Z</time>
      </trkpt>
      <trkpt lat="43.68643" lon="3.12619">
        <ele>595.2000122</ele>
        <time>2013-07-07T06:42:57Z</time>
      </trkpt>
      <trkpt lat="43.68645" lon="3.12618">
        <ele>594.5999756</ele>
        <time>2013-07-07T06:42:58Z</time>
      </trkpt>
      <trkpt lat="43.68646" lon="3.12619">
        <ele>594</ele>
        <time>2013-07-07T06:42:59Z</time>
      </trkpt>
      <trkpt lat="43.68649" lon="3.12619">
        <ele>593.4000244</ele>
        <time>2013-07-07T06:43:00Z</time>
      </trkpt>
      <trkpt lat="43.6865" lon="3.12618">
        <ele>592.7999878</ele>
        <time>2013-07-07T06:43:01Z</time>
      </trkpt>
      <trkpt lat="43.68652" lon="3.12617">
        <ele>592.2000122</ele>
        <time>2013-07-07T06:43:02Z</time>
      </trkpt>
      <trkpt lat="43.68653" lon="3.12615">
        <ele>591.4000244</ele>
        <time>2013-07-07T06:43:03Z</time>
      </trkpt>
      <trkpt lat="43.68654" lon="3.12613">
        <ele>590.5999756</ele>
        <time>2013-07-07T06:43:04Z</time>
      </trkpt>
      <trkpt lat="43.68655" lon="3.1261">
        <ele>590</ele>
        <time>2013-07-07T06:43:05Z</time>
      </trkpt>
      <trkpt lat="43.68655" lon="3.12607">
        <ele>589.2000122</ele>
        <time>2013-07-07T06:43:06Z</time>
      </trkpt>
      <trkpt lat="43.68654" lon="3.12596">
        <ele>588.7999878</ele>
        <time>2013-07-07T06:43:09Z</time>
      </trkpt>
      <trkpt lat="43.68654" lon="3.12592">
        <ele>588.4000244</ele>
        <time>2013-07-07T06:43:10Z</time>
      </trkpt>
      <trkpt lat="43.68654" lon="3.12589">
        <ele>588</ele>
        <time>2013-07-07T06:43:11Z</time>
      </trkpt>
      <trkpt lat="43.68654" lon="3.12586">
        <ele>587.4000244</ele>
        <time>2013-07-07T06:43:12Z</time>
      </trkpt>
      <trkpt lat="43.68654" lon="3.12584">
        <ele>587</ele>
        <time>2013-07-07T06:43:13Z</time>
      </trkpt>
      <trkpt lat="43.68655" lon="3.12581">
        <ele>586.5999756</ele>
        <time>2013-07-07T06:43:14Z</time>
      </trkpt>
      <trkpt lat="43.68655" lon="3.12579">
        <ele>585.7999878</ele>
        <time>2013-07-07T06:43:15Z</time>
      </trkpt>
      <trkpt lat="43.68654" lon="3.12577">
        <ele>585.4000244</ele>
        <time>2013-07-07T06:43:16Z</time>
      </trkpt>
      <trkpt lat="43.68654" lon="3.12576">
        <ele>584.7999878</ele>
        <time>2013-07-07T06:43:17Z</time>
      </trkpt>
      <trkpt lat="43.68653" lon="3.12575">
        <ele>584.4000244</ele>
        <time>2013-07-07T06:43:18Z</time>
      </trkpt>
      <trkpt lat="43.68653" lon="3.12574">
        <ele>584</ele>
        <time>2013-07-07T06:43:19Z</time>
      </trkpt>
      <trkpt lat="43.68653" lon="3.12572">
        <ele>583.5999756</ele>
        <time>2013-07-07T06:43:20Z</time>
      </trkpt>
      <trkpt lat="43.68653" lon="3.12572">
        <ele>583</ele>
        <time>2013-07-07T06:43:21Z</time>
      </trkpt>
      <trkpt lat="43.68653" lon="3.12572">
        <ele>582.5999756</ele>
        <time>2013-07-07T06:43:22Z</time>
      </trkpt>
      <trkpt lat="43.68653" lon="3.12572">
        <ele>582.5999756</ele>
        <time>2013-07-07T06:43:23Z</time>
      </trkpt>
      <trkpt lat="43.68658" lon="3.12572">
        <ele>580.5999756</ele>
        <time>2013-07-07T06:43:35Z</time>
      </trkpt>
      <trkpt lat="43.6866" lon="3.12573">
        <ele>580.5999756</ele>
        <time>2013-07-07T06:43:36Z</time>
      </trkpt>
      <trkpt lat="43.68664" lon="3.12577">
        <ele>580.5999756</ele>
        <time>2013-07-07T06:43:40Z</time>
      </trkpt>
      <trkpt lat="43.68667" lon="3.12579">
        <ele>580.5999756</ele>
        <time>2013-07-07T06:43:42Z</time>
      </trkpt>
      <trkpt lat="43.68669" lon="3.12581">
        <ele>580.5999756</ele>
        <time>2013-07-07T06:43:44Z</time>
      </trkpt>
      <trkpt lat="43.68671" lon="3.12585">
        <ele>580.5999756</ele>
        <time>2013-07-07T06:43:46Z</time>
      </trkpt>
      <trkpt lat="43.68673" lon="3.12595">
        <ele>580.5999756</ele>
        <time>2013-07-07T06:43:51Z</time>
      </trkpt>
      <trkpt lat="43.68674" lon="3.12598">
        <ele>580.5999756</ele>
        <time>2013-07-07T06:43:53Z</time>
      </trkpt>
      <trkpt lat="43.68674" lon="3.12609">
        <ele>580.5999756</ele>
        <time>2013-07-07T06:43:58Z</time>
      </trkpt>
      <trkpt lat="43.68674" lon="3.1261">
        <ele>580.5999756</ele>
        <time>2013-07-07T06:43:59Z</time>
      </trkpt>
      <trkpt lat="43.68674" lon="3.12612">
        <ele>580.5999756</ele>
        <time>2013-07-07T06:44:35Z</time>
      </trkpt>
      <trkpt lat="43.68674" lon="3.12614">
        <ele>580.5999756</ele>
        <time>2013-07-07T06:44:36Z</time>
      </trkpt>
      <trkpt lat="43.68674" lon="3.12616">
        <ele>581</ele>
        <time>2013-07-07T06:44:37Z</time>
      </trkpt>
      <trkpt lat="43.68673" lon="3.12617">
        <ele>581.4000244</ele>
        <time>2013-07-07T06:44:38Z</time>
      </trkpt>
      <trkpt lat="43.68673" lon="3.12619">
        <ele>581.7999878</ele>
        <time>2013-07-07T06:44:39Z</time>
      </trkpt>
      <trkpt lat="43.68672" lon="3.12621">
        <ele>582.2000122</ele>
        <time>2013-07-07T06:44:40Z</time>
      </trkpt>
      <trkpt lat="43.68671" lon="3.12623">
        <ele>582.5999756</ele>
        <time>2013-07-07T06:44:41Z</time>
      </trkpt>
      <trkpt lat="43.68668" lon="3.12633">
        <ele>582.5999756</ele>
        <time>2013-07-07T06:44:44Z</time>
      </trkpt>
      <trkpt lat="43.6866" lon="3.12656">
        <ele>582.5999756</ele>
        <time>2013-07-07T06:44:51Z</time>
      </trkpt>
      <trkpt lat="43.68657" lon="3.12669">
        <ele>582.2000122</ele>
        <time>2013-07-07T06:44:54Z</time>
      </trkpt>
      <trkpt lat="43.68657" lon="3.12673">
        <ele>581.5999756</ele>
        <time>2013-07-07T06:44:55Z</time>
      </trkpt>
      <trkpt lat="43.68656" lon="3.12677">
        <ele>581.2000122</ele>
        <time>2013-07-07T06:44:56Z</time>
      </trkpt>
      <trkpt lat="43.68654" lon="3.12681">
        <ele>580.5999756</ele>
        <time>2013-07-07T06:44:57Z</time>
      </trkpt>
      <trkpt lat="43.68653" lon="3.12685">
        <ele>579.7999878</ele>
        <time>2013-07-07T06:44:58Z</time>
      </trkpt>
      <trkpt lat="43.68652" lon="3.12688">
        <ele>579.2000122</ele>
        <time>2013-07-07T06:44:59Z</time>
      </trkpt>
      <trkpt lat="43.68652" lon="3.12692">
        <ele>578.5999756</ele>
        <time>2013-07-07T06:45:00Z</time>
      </trkpt>
      <trkpt lat="43.68651" lon="3.12696">
        <ele>578</ele>
        <time>2013-07-07T06:45:01Z</time>
      </trkpt>
      <trkpt lat="43.68651" lon="3.127">
        <ele>577.4000244</ele>
        <time>2013-07-07T06:45:02Z</time>
      </trkpt>
      <trkpt lat="43.68652" lon="3.12703">
        <ele>576.7999878</ele>
        <time>2013-07-07T06:45:03Z</time>
      </trkpt>
      <trkpt lat="43.68652" lon="3.12706">
        <ele>576.2000122</ele>
        <time>2013-07-07T06:45:04Z</time>
      </trkpt>
      <trkpt lat="43.68652" lon="3.1271">
        <ele>575.5999756</ele>
        <time>2013-07-07T06:45:05Z</time>
      </trkpt>
      <trkpt lat="43.68651" lon="3.12712">
        <ele>575</ele>
        <time>2013-07-07T06:45:06Z</time>
      </trkpt>
      <trkpt lat="43.68651" lon="3.12715">
        <ele>574.5999756</ele>
        <time>2013-07-07T06:45:07Z</time>
      </trkpt>
      <trkpt lat="43.68651" lon="3.12717">
        <ele>574.2000122</ele>
        <time>2013-07-07T06:45:08Z</time>
      </trkpt>
      <trkpt lat="43.68651" lon="3.1272">
        <ele>573.5999756</ele>
        <time>2013-07-07T06:45:09Z</time>
      </trkpt>
      <trkpt lat="43.68651" lon="3.12723">
        <ele>573.2000122</ele>
        <time>2013-07-07T06:45:10Z</time>
      </trkpt>
      <trkpt lat="43.68651" lon="3.12725">
        <ele>573.2000122</ele>
        <time>2013-07-07T06:45:11Z</time>
      </trkpt>
      <trkpt lat="43.6865" lon="3.12727">
        <ele>572.7999878</ele>
        <time>2013-07-07T06:45:12Z</time>
      </trkpt>
      <trkpt lat="43.68649" lon="3.1273">
        <ele>572.2000122</ele>
        <time>2013-07-07T06:45:13Z</time>
      </trkpt>
      <trkpt lat="43.68649" lon="3.12733">
        <ele>571.7999878</ele>
        <time>2013-07-07T06:45:14Z</time>
      </trkpt>
      <trkpt lat="43.68648" lon="3.12736">
        <ele>571.4000244</ele>
        <time>2013-07-07T06:45:15Z</time>
      </trkpt>
      <trkpt lat="43.68647" lon="3.1274">
        <ele>570.7999878</ele>
        <time>2013-07-07T06:45:16Z</time>
      </trkpt>
      <trkpt lat="43.68646" lon="3.12744">
        <ele>570.4000244</ele>
        <time>2013-07-07T06:45:17Z</time>
      </trkpt>
      <trkpt lat="43.68646" lon="3.12746">
        <ele>569.7999878</ele>
        <time>2013-07-07T06:45:18Z</time>
      </trkpt>
      <trkpt lat="43.68646" lon="3.12749">
        <ele>568.7999878</ele>
        <time>2013-07-07T06:45:19Z</time>
      </trkpt>
      <trkpt lat="43.68646" lon="3.1275">
        <ele>568.2000122</ele>
        <time>2013-07-07T06:45:20Z</time>
      </trkpt>
      <trkpt lat="43.68646" lon="3.12752">
        <ele>567.7999878</ele>
        <time>2013-07-07T06:45:21Z</time>
      </trkpt>
      <trkpt lat="43.68647" lon="3.12755">
        <ele>567.2000122</ele>
        <time>2013-07-07T06:45:22Z</time>
      </trkpt>
      <trkpt lat="43.68647" lon="3.12757">
        <ele>566.5999756</ele>
        <time>2013-07-07T06:45:23Z</time>
      </trkpt>
      <trkpt lat="43.68648" lon="3.12758">
        <ele>566</ele>
        <time>2013-07-07T06:45:24Z</time>
      </trkpt>
      <trkpt lat="43.68648" lon="3.12759">
        <ele>565.4000244</ele>
        <time>2013-07-07T06:45:25Z</time>
      </trkpt>
      <trkpt lat="43.68648" lon="3.12759">
        <ele>565</ele>
        <time>2013-07-07T06:45:26Z</time>
      </trkpt>
      <trkpt lat="43.6865" lon="3.12772">
        <ele>565.7999878</ele>
        <time>2013-07-07T06:46:03Z</time>
      </trkpt>
      <trkpt lat="43.6865" lon="3.12773">
        <ele>566.4000244</ele>
        <time>2013-07-07T06:46:05Z</time>
      </trkpt>
      <trkpt lat="43.68651" lon="3.12775">
        <ele>566.7999878</ele>
        <time>2013-07-07T06:46:06Z</time>
      </trkpt>
      <trkpt lat="43.68651" lon="3.12777">
        <ele>567.2000122</ele>
        <time>2013-07-07T06:46:07Z</time>
      </trkpt>
      <trkpt lat="43.68652" lon="3.12779">
        <ele>567.5999756</ele>
        <time>2013-07-07T06:46:08Z</time>
      </trkpt>
      <trkpt lat="43.68652" lon="3.1278">
        <ele>568</ele>
        <time>2013-07-07T06:46:09Z</time>
      </trkpt>
      <trkpt lat="43.68653" lon="3.12786">
        <ele>568</ele>
        <time>2013-07-07T06:46:13Z</time>
      </trkpt>
      <trkpt lat="43.68653" lon="3.12787">
        <ele>568</ele>
        <time>2013-07-07T06:46:14Z</time>
      </trkpt>
      <trkpt lat="43.68653" lon="3.12788">
        <ele>568</ele>
        <time>2013-07-07T06:46:15Z</time>
      </trkpt>
      <trkpt lat="43.68654" lon="3.1279">
        <ele>568</ele>
        <time>2013-07-07T06:46:19Z</time>
      </trkpt>
      <trkpt lat="43.68653" lon="3.12795">
        <ele>568</ele>
        <time>2013-07-07T06:46:21Z</time>
      </trkpt>
      <trkpt lat="43.68652" lon="3.12806">
        <ele>568</ele>
        <time>2013-07-07T06:46:25Z</time>
      </trkpt>
      <trkpt lat="43.68652" lon="3.12809">
        <ele>568.4000244</ele>
        <time>2013-07-07T06:46:26Z</time>
      </trkpt>
      <trkpt lat="43.68652" lon="3.1281">
        <ele>568.7999878</ele>
        <time>2013-07-07T06:46:27Z</time>
      </trkpt>
      <trkpt lat="43.68653" lon="3.12812">
        <ele>569.2000122</ele>
        <time>2013-07-07T06:46:28Z</time>
      </trkpt>
      <trkpt lat="43.68654" lon="3.12814">
        <ele>569.5999756</ele>
        <time>2013-07-07T06:46:29Z</time>
      </trkpt>
      <trkpt lat="43.68654" lon="3.12818">
        <ele>570</ele>
        <time>2013-07-07T06:46:30Z</time>
      </trkpt>
      <trkpt lat="43.68655" lon="3.12821">
        <ele>570</ele>
        <time>2013-07-07T06:46:32Z</time>
      </trkpt>
      <trkpt lat="43.68658" lon="3.12828">
        <ele>570.4000244</ele>
        <time>2013-07-07T06:46:35Z</time>
      </trkpt>
      <trkpt lat="43.68659" lon="3.12831">
        <ele>570.7999878</ele>
        <time>2013-07-07T06:46:36Z</time>
      </trkpt>
      <trkpt lat="43.6866" lon="3.12834">
        <ele>571.2000122</ele>
        <time>2013-07-07T06:46:37Z</time>
      </trkpt>
      <trkpt lat="43.68662" lon="3.12836">
        <ele>571.5999756</ele>
        <time>2013-07-07T06:46:38Z</time>
      </trkpt>
      <trkpt lat="43.68663" lon="3.12838">
        <ele>572</ele>
        <time>2013-07-07T06:46:39Z</time>
      </trkpt>
      <trkpt lat="43.68664" lon="3.1284">
        <ele>572</ele>
        <time>2013-07-07T06:46:40Z</time>
      </trkpt>
      <trkpt lat="43.68667" lon="3.12844">
        <ele>572</ele>
        <time>2013-07-07T06:46:43Z</time>
      </trkpt>
      <trkpt lat="43.68668" lon="3.12845">
        <ele>572</ele>
        <time>2013-07-07T06:46:44Z</time>
      </trkpt>
      <trkpt lat="43.68668" lon="3.12846">
        <ele>572</ele>
        <time>2013-07-07T06:46:45Z</time>
      </trkpt>
      <trkpt lat="43.68671" lon="3.12852">
        <ele>572</ele>
        <time>2013-07-07T06:46:54Z</time>
      </trkpt>
      <trkpt lat="43.6867" lon="3.12855">
        <ele>572.5999756</ele>
        <time>2013-07-07T06:46:58Z</time>
      </trkpt>
      <trkpt lat="43.68671" lon="3.1286">
        <ele>575</ele>
        <time>2013-07-07T06:47:12Z</time>
      </trkpt>
      <trkpt lat="43.68671" lon="3.1286">
        <ele>575.4000244</ele>
        <time>2013-07-07T06:47:13Z</time>
      </trkpt>
      <trkpt lat="43.68672" lon="3.12861">
        <ele>575.7999878</ele>
        <time>2013-07-07T06:47:14Z</time>
      </trkpt>
      <trkpt lat="43.68672" lon="3.12861">
        <ele>576.2000122</ele>
        <time>2013-07-07T06:47:15Z</time>
      </trkpt>
      <trkpt lat="43.68674" lon="3.12866">
        <ele>576.2000122</ele>
        <time>2013-07-07T06:47:20Z</time>
      </trkpt>
      <trkpt lat="43.68677" lon="3.1287">
        <ele>576.2000122</ele>
        <time>2013-07-07T06:47:22Z</time>
      </trkpt>
      <trkpt lat="43.68688" lon="3.12882">
        <ele>576.2000122</ele>
        <time>2013-07-07T06:47:27Z</time>
      </trkpt>
      <trkpt lat="43.68691" lon="3.12883">
        <ele>576.2000122</ele>
        <time>2013-07-07T06:47:29Z</time>
      </trkpt>
      <trkpt lat="43.68693" lon="3.12884">
        <ele>576.2000122</ele>
        <time>2013-07-07T06:47:30Z</time>
      </trkpt>
      <trkpt lat="43.68698" lon="3.12886">
        <ele>576.2000122</ele>
        <time>2013-07-07T06:47:33Z</time>
      </trkpt>
      <trkpt lat="43.687" lon="3.12888">
        <ele>576.2000122</ele>
        <time>2013-07-07T06:47:34Z</time>
      </trkpt>
      <trkpt lat="43.68701" lon="3.12889">
        <ele>576.2000122</ele>
        <time>2013-07-07T06:47:35Z</time>
      </trkpt>
      <trkpt lat="43.68706" lon="3.12892">
        <ele>576.2000122</ele>
        <time>2013-07-07T06:47:38Z</time>
      </trkpt>
      <trkpt lat="43.68711" lon="3.12895">
        <ele>576.2000122</ele>
        <time>2013-07-07T06:47:41Z</time>
      </trkpt>
      <trkpt lat="43.68714" lon="3.12899">
        <ele>576.2000122</ele>
        <time>2013-07-07T06:47:43Z</time>
      </trkpt>
      <trkpt lat="43.68715" lon="3.12901">
        <ele>576.2000122</ele>
        <time>2013-07-07T06:47:44Z</time>
      </trkpt>
      <trkpt lat="43.68715" lon="3.12905">
        <ele>576.2000122</ele>
        <time>2013-07-07T06:47:48Z</time>
      </trkpt>
      <trkpt lat="43.68714" lon="3.12907">
        <ele>577</ele>
        <time>2013-07-07T06:47:49Z</time>
      </trkpt>
      <trkpt lat="43.68714" lon="3.12908">
        <ele>577.4000244</ele>
        <time>2013-07-07T06:47:50Z</time>
      </trkpt>
      <trkpt lat="43.68714" lon="3.12909">
        <ele>578</ele>
        <time>2013-07-07T06:47:51Z</time>
      </trkpt>
      <trkpt lat="43.68714" lon="3.1291">
        <ele>578.4000244</ele>
        <time>2013-07-07T06:47:52Z</time>
      </trkpt>
      <trkpt lat="43.68713" lon="3.12911">
        <ele>578.4000244</ele>
        <time>2013-07-07T06:47:53Z</time>
      </trkpt>
      <trkpt lat="43.68712" lon="3.12912">
        <ele>578.4000244</ele>
        <time>2013-07-07T06:47:55Z</time>
      </trkpt>
      <trkpt lat="43.68712" lon="3.12913">
        <ele>578.4000244</ele>
        <time>2013-07-07T06:47:59Z</time>
      </trkpt>
      <trkpt lat="43.68709" lon="3.12917">
        <ele>578.7999878</ele>
        <time>2013-07-07T06:48:13Z</time>
      </trkpt>
      <trkpt lat="43.68708" lon="3.12919">
        <ele>579.2000122</ele>
        <time>2013-07-07T06:48:14Z</time>
      </trkpt>
      <trkpt lat="43.68707" lon="3.12921">
        <ele>579.5999756</ele>
        <time>2013-07-07T06:48:15Z</time>
      </trkpt>
      <trkpt lat="43.68707" lon="3.12923">
        <ele>580</ele>
        <time>2013-07-07T06:48:16Z</time>
      </trkpt>
      <trkpt lat="43.68708" lon="3.12925">
        <ele>580.4000244</ele>
        <time>2013-07-07T06:48:17Z</time>
      </trkpt>
      <trkpt lat="43.68708" lon="3.12928">
        <ele>580.4000244</ele>
        <time>2013-07-07T06:48:18Z</time>
      </trkpt>
      <trkpt lat="43.68707" lon="3.12945">
        <ele>580.4000244</ele>
        <time>2013-07-07T06:48:23Z</time>
      </trkpt>
      <trkpt lat="43.68705" lon="3.12965">
        <ele>580.4000244</ele>
        <time>2013-07-07T06:48:27Z</time>
      </trkpt>
      <trkpt lat="43.68705" lon="3.1297">
        <ele>580.4000244</ele>
        <time>2013-07-07T06:48:28Z</time>
      </trkpt>
      <trkpt lat="43.68704" lon="3.12979">
        <ele>580</ele>
        <time>2013-07-07T06:48:30Z</time>
      </trkpt>
      <trkpt lat="43.68704" lon="3.12984">
        <ele>579.5999756</ele>
        <time>2013-07-07T06:48:31Z</time>
      </trkpt>
      <trkpt lat="43.68705" lon="3.12991">
        <ele>579.2000122</ele>
        <time>2013-07-07T06:48:32Z</time>
      </trkpt>
      <trkpt lat="43.68706" lon="3.12997">
        <ele>578.7999878</ele>
        <time>2013-07-07T06:48:33Z</time>
      </trkpt>
      <trkpt lat="43.68708" lon="3.13003">
        <ele>578.2000122</ele>
        <time>2013-07-07T06:48:34Z</time>
      </trkpt>
      <trkpt lat="43.68709" lon="3.13009">
        <ele>578.2000122</ele>
        <time>2013-07-07T06:48:35Z</time>
      </trkpt>
      <trkpt lat="43.68711" lon="3.13014">
        <ele>578.2000122</ele>
        <time>2013-07-07T06:48:36Z</time>
      </trkpt>
      <trkpt lat="43.68712" lon="3.1302">
        <ele>577.7999878</ele>
        <time>2013-07-07T06:48:37Z</time>
      </trkpt>
      <trkpt lat="43.68714" lon="3.13025">
        <ele>577</ele>
        <time>2013-07-07T06:48:38Z</time>
      </trkpt>
      <trkpt lat="43.68715" lon="3.13029">
        <ele>576.5999756</ele>
        <time>2013-07-07T06:48:39Z</time>
      </trkpt>
      <trkpt lat="43.68716" lon="3.13034">
        <ele>576.2000122</ele>
        <time>2013-07-07T06:48:40Z</time>
      </trkpt>
      <trkpt lat="43.68716" lon="3.1304">
        <ele>575.5999756</ele>
        <time>2013-07-07T06:48:41Z</time>
      </trkpt>
      <trkpt lat="43.68717" lon="3.13044">
        <ele>575.2000122</ele>
        <time>2013-07-07T06:48:42Z</time>
      </trkpt>
      <trkpt lat="43.68718" lon="3.13047">
        <ele>574.5999756</ele>
        <time>2013-07-07T06:48:43Z</time>
      </trkpt>
      <trkpt lat="43.68719" lon="3.13051">
        <ele>574.2000122</ele>
        <time>2013-07-07T06:48:44Z</time>
      </trkpt>
      <trkpt lat="43.68729" lon="3.13063">
        <ele>574.2000122</ele>
        <time>2013-07-07T06:48:49Z</time>
      </trkpt>
      <trkpt lat="43.6874" lon="3.13073">
        <ele>574.5999756</ele>
        <time>2013-07-07T06:48:55Z</time>
      </trkpt>
      <trkpt lat="43.68741" lon="3.13075">
        <ele>575</ele>
        <time>2013-07-07T06:48:56Z</time>
      </trkpt>
      <trkpt lat="43.68742" lon="3.13076">
        <ele>575.4000244</ele>
        <time>2013-07-07T06:48:57Z</time>
      </trkpt>
      <trkpt lat="43.68743" lon="3.13078">
        <ele>575.7999878</ele>
        <time>2013-07-07T06:48:58Z</time>
      </trkpt>
      <trkpt lat="43.68744" lon="3.13078">
        <ele>576.2000122</ele>
        <time>2013-07-07T06:48:59Z</time>
      </trkpt>
      <trkpt lat="43.68748" lon="3.1308">
        <ele>576.2000122</ele>
        <time>2013-07-07T06:49:01Z</time>
      </trkpt>
      <trkpt lat="43.68749" lon="3.1308">
        <ele>576.7999878</ele>
        <time>2013-07-07T06:49:02Z</time>
      </trkpt>
      <trkpt lat="43.68751" lon="3.1308">
        <ele>577.5999756</ele>
        <time>2013-07-07T06:49:03Z</time>
      </trkpt>
      <trkpt lat="43.68754" lon="3.1308">
        <ele>578.2000122</ele>
        <time>2013-07-07T06:49:04Z</time>
      </trkpt>
      <trkpt lat="43.68756" lon="3.13079">
        <ele>578.5999756</ele>
        <time>2013-07-07T06:49:05Z</time>
      </trkpt>
      <trkpt lat="43.68759" lon="3.13077">
        <ele>578.5999756</ele>
        <time>2013-07-07T06:49:06Z</time>
      </trkpt>
      <trkpt lat="43.68766" lon="3.13072">
        <ele>578.5999756</ele>
        <time>2013-07-07T06:49:09Z</time>
      </trkpt>
      <trkpt lat="43.68777" lon="3.13068">
        <ele>578.5999756</ele>
        <time>2013-07-07T06:49:12Z</time>
      </trkpt>
      <trkpt lat="43.6878" lon="3.13065">
        <ele>578.2000122</ele>
        <time>2013-07-07T06:49:13Z</time>
      </trkpt>
      <trkpt lat="43.68783" lon="3.13063">
        <ele>577.5999756</ele>
        <time>2013-07-07T06:49:14Z</time>
      </trkpt>
      <trkpt lat="43.68787" lon="3.1306">
        <ele>577.2000122</ele>
        <time>2013-07-07T06:49:15Z</time>
      </trkpt>
      <trkpt lat="43.68791" lon="3.13058">
        <ele>576.7999878</ele>
        <time>2013-07-07T06:49:16Z</time>
      </trkpt>
      <trkpt lat="43.68794" lon="3.13056">
        <ele>576.2000122</ele>
        <time>2013-07-07T06:49:17Z</time>
      </trkpt>
      <trkpt lat="43.68802" lon="3.13055">
        <ele>575.7999878</ele>
        <time>2013-07-07T06:49:19Z</time>
      </trkpt>
      <trkpt lat="43.68806" lon="3.13055">
        <ele>575.4000244</ele>
        <time>2013-07-07T06:49:20Z</time>
      </trkpt>
      <trkpt lat="43.68813" lon="3.13055">
        <ele>574.7999878</ele>
        <time>2013-07-07T06:49:21Z</time>
      </trkpt>
      <trkpt lat="43.68821" lon="3.13056">
        <ele>574.4000244</ele>
        <time>2013-07-07T06:49:22Z</time>
      </trkpt>
      <trkpt lat="43.68828" lon="3.13058">
        <ele>574</ele>
        <time>2013-07-07T06:49:23Z</time>
      </trkpt>
      <trkpt lat="43.68843" lon="3.13064">
        <ele>574</ele>
        <time>2013-07-07T06:49:25Z</time>
      </trkpt>
      <trkpt lat="43.68849" lon="3.13068">
        <ele>573.5999756</ele>
        <time>2013-07-07T06:49:26Z</time>
      </trkpt>
      <trkpt lat="43.68854" lon="3.13073">
        <ele>572.5999756</ele>
        <time>2013-07-07T06:49:27Z</time>
      </trkpt>
      <trkpt lat="43.6886" lon="3.13079">
        <ele>572.2000122</ele>
        <time>2013-07-07T06:49:28Z</time>
      </trkpt>
      <trkpt lat="43.68864" lon="3.13083">
        <ele>571.7999878</ele>
        <time>2013-07-07T06:49:29Z</time>
      </trkpt>
      <trkpt lat="43.68875" lon="3.13095">
        <ele>571.7999878</ele>
        <time>2013-07-07T06:49:32Z</time>
      </trkpt>
      <trkpt lat="43.68885" lon="3.13099">
        <ele>571.2000122</ele>
        <time>2013-07-07T06:49:35Z</time>
      </trkpt>
      <trkpt lat="43.68888" lon="3.13101">
        <ele>570.7999878</ele>
        <time>2013-07-07T06:49:36Z</time>
      </trkpt>
      <trkpt lat="43.68891" lon="3.13103">
        <ele>570.4000244</ele>
        <time>2013-07-07T06:49:37Z</time>
      </trkpt>
      <trkpt lat="43.68894" lon="3.13105">
        <ele>570</ele>
        <time>2013-07-07T06:49:38Z</time>
      </trkpt>
      <trkpt lat="43.68896" lon="3.13106">
        <ele>569.5999756</ele>
        <time>2013-07-07T06:49:39Z</time>
      </trkpt>
      <trkpt lat="43.68903" lon="3.13109">
        <ele>569.2000122</ele>
        <time>2013-07-07T06:49:41Z</time>
      </trkpt>
      <trkpt lat="43.68906" lon="3.13111">
        <ele>568.5999756</ele>
        <time>2013-07-07T06:49:42Z</time>
      </trkpt>
      <trkpt lat="43.68908" lon="3.13113">
        <ele>568.2000122</ele>
        <time>2013-07-07T06:49:43Z</time>
      </trkpt>
      <trkpt lat="43.68911" lon="3.13114">
        <ele>567.7999878</ele>
        <time>2013-07-07T06:49:44Z</time>
      </trkpt>
      <trkpt lat="43.68913" lon="3.13116">
        <ele>567.2000122</ele>
        <time>2013-07-07T06:49:45Z</time>
      </trkpt>
      <trkpt lat="43.68915" lon="3.13118">
        <ele>567.2000122</ele>
        <time>2013-07-07T06:49:47Z</time>
      </trkpt>
      <trkpt lat="43.68918" lon="3.13119">
        <ele>567.2000122</ele>
        <time>2013-07-07T06:49:48Z</time>
      </trkpt>
      <trkpt lat="43.68927" lon="3.1312">
        <ele>567.2000122</ele>
        <time>2013-07-07T06:49:51Z</time>
      </trkpt>
      <trkpt lat="43.68938" lon="3.13123">
        <ele>567.2000122</ele>
        <time>2013-07-07T06:49:54Z</time>
      </trkpt>
      <trkpt lat="43.68945" lon="3.13123">
        <ele>566.7999878</ele>
        <time>2013-07-07T06:49:56Z</time>
      </trkpt>
      <trkpt lat="43.68948" lon="3.13123">
        <ele>566.4000244</ele>
        <time>2013-07-07T06:49:57Z</time>
      </trkpt>
      <trkpt lat="43.68951" lon="3.13123">
        <ele>565.7999878</ele>
        <time>2013-07-07T06:49:58Z</time>
      </trkpt>
      <trkpt lat="43.68953" lon="3.13123">
        <ele>565.4000244</ele>
        <time>2013-07-07T06:49:59Z</time>
      </trkpt>
      <trkpt lat="43.68956" lon="3.13123">
        <ele>565</ele>
        <time>2013-07-07T06:50:00Z</time>
      </trkpt>
      <trkpt lat="43.68959" lon="3.13122">
        <ele>565</ele>
        <time>2013-07-07T06:50:01Z</time>
      </trkpt>
      <trkpt lat="43.68971" lon="3.13119">
        <ele>564.5999756</ele>
        <time>2013-07-07T06:50:04Z</time>
      </trkpt>
      <trkpt lat="43.68976" lon="3.13119">
        <ele>564.2000122</ele>
        <time>2013-07-07T06:50:05Z</time>
      </trkpt>
      <trkpt lat="43.68981" lon="3.13119">
        <ele>563.7999878</ele>
        <time>2013-07-07T06:50:06Z</time>
      </trkpt>
      <trkpt lat="43.68986" lon="3.13118">
        <ele>563.2000122</ele>
        <time>2013-07-07T06:50:07Z</time>
      </trkpt>
      <trkpt lat="43.6899" lon="3.13118">
        <ele>562.7999878</ele>
        <time>2013-07-07T06:50:08Z</time>
      </trkpt>
      <trkpt lat="43.69" lon="3.1312">
        <ele>562.7999878</ele>
        <time>2013-07-07T06:50:10Z</time>
      </trkpt>
      <trkpt lat="43.69009" lon="3.13121">
        <ele>562.7999878</ele>
        <time>2013-07-07T06:50:12Z</time>
      </trkpt>
      <trkpt lat="43.6902" lon="3.13123">
        <ele>562.4000244</ele>
        <time>2013-07-07T06:50:14Z</time>
      </trkpt>
      <trkpt lat="43.69025" lon="3.13124">
        <ele>562</ele>
        <time>2013-07-07T06:50:15Z</time>
      </trkpt>
      <trkpt lat="43.6903" lon="3.13126">
        <ele>561.2000122</ele>
        <time>2013-07-07T06:50:16Z</time>
      </trkpt>
      <trkpt lat="43.69034" lon="3.13128">
        <ele>560.7999878</ele>
        <time>2013-07-07T06:50:17Z</time>
      </trkpt>
      <trkpt lat="43.69046" lon="3.13135">
        <ele>560.4000244</ele>
        <time>2013-07-07T06:50:20Z</time>
      </trkpt>
      <trkpt lat="43.6905" lon="3.13138">
        <ele>560</ele>
        <time>2013-07-07T06:50:21Z</time>
      </trkpt>
      <trkpt lat="43.69055" lon="3.1314">
        <ele>559.5999756</ele>
        <time>2013-07-07T06:50:22Z</time>
      </trkpt>
      <trkpt lat="43.69059" lon="3.13143">
        <ele>559.2000122</ele>
        <time>2013-07-07T06:50:23Z</time>
      </trkpt>
      <trkpt lat="43.69063" lon="3.13147">
        <ele>558.7999878</ele>
        <time>2013-07-07T06:50:24Z</time>
      </trkpt>
      <trkpt lat="43.69072" lon="3.13155">
        <ele>558.7999878</ele>
        <time>2013-07-07T06:50:26Z</time>
      </trkpt>
      <trkpt lat="43.6908" lon="3.13162">
        <ele>558.7999878</ele>
        <time>2013-07-07T06:50:28Z</time>
      </trkpt>
      <trkpt lat="43.69084" lon="3.13166">
        <ele>558.4000244</ele>
        <time>2013-07-07T06:50:29Z</time>
      </trkpt>
      <trkpt lat="43.69087" lon="3.1317">
        <ele>558</ele>
        <time>2013-07-07T06:50:30Z</time>
      </trkpt>
      <trkpt lat="43.69091" lon="3.13174">
        <ele>557.5999756</ele>
        <time>2013-07-07T06:50:31Z</time>
      </trkpt>
      <trkpt lat="43.69094" lon="3.13177">
        <ele>557</ele>
        <time>2013-07-07T06:50:32Z</time>
      </trkpt>
      <trkpt lat="43.69097" lon="3.13181">
        <ele>556.5999756</ele>
        <time>2013-07-07T06:50:33Z</time>
      </trkpt>
      <trkpt lat="43.69102" lon="3.13188">
        <ele>556.2000122</ele>
        <time>2013-07-07T06:50:35Z</time>
      </trkpt>
      <trkpt lat="43.69104" lon="3.13192">
        <ele>555.7999878</ele>
        <time>2013-07-07T06:50:36Z</time>
      </trkpt>
      <trkpt lat="43.69107" lon="3.13196">
        <ele>555.4000244</ele>
        <time>2013-07-07T06:50:37Z</time>
      </trkpt>
      <trkpt lat="43.6911" lon="3.13198">
        <ele>555</ele>
        <time>2013-07-07T06:50:38Z</time>
      </trkpt>
      <trkpt lat="43.69112" lon="3.13199">
        <ele>554.5999756</ele>
        <time>2013-07-07T06:50:39Z</time>
      </trkpt>
      <trkpt lat="43.69126" lon="3.13205">
        <ele>554.2000122</ele>
        <time>2013-07-07T06:50:44Z</time>
      </trkpt>
      <trkpt lat="43.69129" lon="3.13206">
        <ele>553.7999878</ele>
        <time>2013-07-07T06:50:45Z</time>
      </trkpt>
      <trkpt lat="43.69133" lon="3.13208">
        <ele>553.4000244</ele>
        <time>2013-07-07T06:50:46Z</time>
      </trkpt>
      <trkpt lat="43.69136" lon="3.13209">
        <ele>553</ele>
        <time>2013-07-07T06:50:47Z</time>
      </trkpt>
      <trkpt lat="43.69139" lon="3.13211">
        <ele>552.5999756</ele>
        <time>2013-07-07T06:50:48Z</time>
      </trkpt>
      <trkpt lat="43.69145" lon="3.13216">
        <ele>552.5999756</ele>
        <time>2013-07-07T06:50:51Z</time>
      </trkpt>
      <trkpt lat="43.69148" lon="3.13216">
        <ele>552.5999756</ele>
        <time>2013-07-07T06:50:52Z</time>
      </trkpt>
      <trkpt lat="43.69158" lon="3.13208">
        <ele>552.5999756</ele>
        <time>2013-07-07T06:50:56Z</time>
      </trkpt>
      <trkpt lat="43.69161" lon="3.13198">
        <ele>552</ele>
        <time>2013-07-07T06:51:00Z</time>
      </trkpt>
      <trkpt lat="43.69161" lon="3.13195">
        <ele>551.5999756</ele>
        <time>2013-07-07T06:51:01Z</time>
      </trkpt>
      <trkpt lat="43.69161" lon="3.13191">
        <ele>551.2000122</ele>
        <time>2013-07-07T06:51:02Z</time>
      </trkpt>
      <trkpt lat="43.69163" lon="3.13188">
        <ele>550.7999878</ele>
        <time>2013-07-07T06:51:03Z</time>
      </trkpt>
      <trkpt lat="43.69165" lon="3.13185">
        <ele>550.4000244</ele>
        <time>2013-07-07T06:51:04Z</time>
      </trkpt>
      <trkpt lat="43.69168" lon="3.13177">
        <ele>550.4000244</ele>
        <time>2013-07-07T06:51:06Z</time>
      </trkpt>
      <trkpt lat="43.69168" lon="3.13175">
        <ele>550.4000244</ele>
        <time>2013-07-07T06:51:07Z</time>
      </trkpt>
      <trkpt lat="43.6917" lon="3.1317">
        <ele>550.4000244</ele>
        <time>2013-07-07T06:51:08Z</time>
      </trkpt>
      <trkpt lat="43.69172" lon="3.13162">
        <ele>550</ele>
        <time>2013-07-07T06:51:10Z</time>
      </trkpt>
      <trkpt lat="43.69173" lon="3.13159">
        <ele>549.5999756</ele>
        <time>2013-07-07T06:51:11Z</time>
      </trkpt>
      <trkpt lat="43.69175" lon="3.13156">
        <ele>549.2000122</ele>
        <time>2013-07-07T06:51:12Z</time>
      </trkpt>
      <trkpt lat="43.69178" lon="3.13153">
        <ele>548.7999878</ele>
        <time>2013-07-07T06:51:13Z</time>
      </trkpt>
      <trkpt lat="43.69181" lon="3.1315">
        <ele>548.4000244</ele>
        <time>2013-07-07T06:51:14Z</time>
      </trkpt>
      <trkpt lat="43.6919" lon="3.13143">
        <ele>548.4000244</ele>
        <time>2013-07-07T06:51:17Z</time>
      </trkpt>
      <trkpt lat="43.69199" lon="3.13133">
        <ele>548</ele>
        <time>2013-07-07T06:51:20Z</time>
      </trkpt>
      <trkpt lat="43.69202" lon="3.13131">
        <ele>547.4000244</ele>
        <time>2013-07-07T06:51:21Z</time>
      </trkpt>
      <trkpt lat="43.69206" lon="3.1313">
        <ele>547</ele>
        <time>2013-07-07T06:51:22Z</time>
      </trkpt>
      <trkpt lat="43.69209" lon="3.13129">
        <ele>546.5999756</ele>
        <time>2013-07-07T06:51:23Z</time>
      </trkpt>
      <trkpt lat="43.69213" lon="3.13128">
        <ele>546.2000122</ele>
        <time>2013-07-07T06:51:24Z</time>
      </trkpt>
      <trkpt lat="43.6922" lon="3.13129">
        <ele>546.2000122</ele>
        <time>2013-07-07T06:51:26Z</time>
      </trkpt>
      <trkpt lat="43.69232" lon="3.13126">
        <ele>545.7999878</ele>
        <time>2013-07-07T06:51:30Z</time>
      </trkpt>
      <trkpt lat="43.69235" lon="3.13124">
        <ele>545.2000122</ele>
        <time>2013-07-07T06:51:31Z</time>
      </trkpt>
      <trkpt lat="43.69237" lon="3.13123">
        <ele>544.7999878</ele>
        <time>2013-07-07T06:51:32Z</time>
      </trkpt>
      <trkpt lat="43.69241" lon="3.13121">
        <ele>544.4000244</ele>
        <time>2013-07-07T06:51:33Z</time>
      </trkpt>
      <trkpt lat="43.69244" lon="3.1312">
        <ele>544</ele>
        <time>2013-07-07T06:51:34Z</time>
      </trkpt>
      <trkpt lat="43.69247" lon="3.13117">
        <ele>544</ele>
        <time>2013-07-07T06:51:35Z</time>
      </trkpt>
      <trkpt lat="43.69249" lon="3.13114">
        <ele>544</ele>
        <time>2013-07-07T06:51:36Z</time>
      </trkpt>
      <trkpt lat="43.69252" lon="3.13111">
        <ele>543.5999756</ele>
        <time>2013-07-07T06:51:37Z</time>
      </trkpt>
      <trkpt lat="43.69253" lon="3.13109">
        <ele>543.2000122</ele>
        <time>2013-07-07T06:51:38Z</time>
      </trkpt>
      <trkpt lat="43.69255" lon="3.13107">
        <ele>542.7999878</ele>
        <time>2013-07-07T06:51:39Z</time>
      </trkpt>
      <trkpt lat="43.69256" lon="3.13105">
        <ele>542.4000244</ele>
        <time>2013-07-07T06:51:40Z</time>
      </trkpt>
      <trkpt lat="43.69258" lon="3.13103">
        <ele>541.7999878</ele>
        <time>2013-07-07T06:51:41Z</time>
      </trkpt>
      <trkpt lat="43.69258" lon="3.13098">
        <ele>541.7999878</ele>
        <time>2013-07-07T06:51:43Z</time>
      </trkpt>
      <trkpt lat="43.69257" lon="3.13092">
        <ele>541.7999878</ele>
        <time>2013-07-07T06:51:45Z</time>
      </trkpt>
      <trkpt lat="43.69244" lon="3.13074">
        <ele>541.7999878</ele>
        <time>2013-07-07T06:51:50Z</time>
      </trkpt>
      <trkpt lat="43.6924" lon="3.13068">
        <ele>541.7999878</ele>
        <time>2013-07-07T06:51:51Z</time>
      </trkpt>
      <trkpt lat="43.69237" lon="3.13063">
        <ele>541.4000244</ele>
        <time>2013-07-07T06:51:52Z</time>
      </trkpt>
      <trkpt lat="43.69236" lon="3.13058">
        <ele>541</ele>
        <time>2013-07-07T06:51:53Z</time>
      </trkpt>
      <trkpt lat="43.69235" lon="3.13053">
        <ele>540.5999756</ele>
        <time>2013-07-07T06:51:54Z</time>
      </trkpt>
      <trkpt lat="43.69233" lon="3.13047">
        <ele>539.7999878</ele>
        <time>2013-07-07T06:51:55Z</time>
      </trkpt>
      <trkpt lat="43.69231" lon="3.13041">
        <ele>539.7999878</ele>
        <time>2013-07-07T06:51:56Z</time>
      </trkpt>
      <trkpt lat="43.6923" lon="3.13036">
        <ele>539.7999878</ele>
        <time>2013-07-07T06:51:57Z</time>
      </trkpt>
      <trkpt lat="43.69229" lon="3.13018">
        <ele>539.7999878</ele>
        <time>2013-07-07T06:52:00Z</time>
      </trkpt>
      <trkpt lat="43.69229" lon="3.13005">
        <ele>539.4000244</ele>
        <time>2013-07-07T06:52:02Z</time>
      </trkpt>
      <trkpt lat="43.6923" lon="3.12999">
        <ele>539</ele>
        <time>2013-07-07T06:52:03Z</time>
      </trkpt>
      <trkpt lat="43.6923" lon="3.12992">
        <ele>538.5999756</ele>
        <time>2013-07-07T06:52:04Z</time>
      </trkpt>
      <trkpt lat="43.69231" lon="3.12986">
        <ele>538.2000122</ele>
        <time>2013-07-07T06:52:05Z</time>
      </trkpt>
      <trkpt lat="43.69231" lon="3.12981">
        <ele>537.7999878</ele>
        <time>2013-07-07T06:52:06Z</time>
      </trkpt>
      <trkpt lat="43.69227" lon="3.12954">
        <ele>537.7999878</ele>
        <time>2013-07-07T06:52:12Z</time>
      </trkpt>
      <trkpt lat="43.69231" lon="3.12949">
        <ele>537.7999878</ele>
        <time>2013-07-07T06:52:15Z</time>
      </trkpt>
      <trkpt lat="43.69233" lon="3.12946">
        <ele>537.7999878</ele>
        <time>2013-07-07T06:52:16Z</time>
      </trkpt>
      <trkpt lat="43.69242" lon="3.12936">
        <ele>537.2000122</ele>
        <time>2013-07-07T06:52:20Z</time>
      </trkpt>
      <trkpt lat="43.69245" lon="3.12932">
        <ele>536.7999878</ele>
        <time>2013-07-07T06:52:21Z</time>
      </trkpt>
      <trkpt lat="43.69247" lon="3.12927">
        <ele>536.4000244</ele>
        <time>2013-07-07T06:52:22Z</time>
      </trkpt>
      <trkpt lat="43.69249" lon="3.12923">
        <ele>536</ele>
        <time>2013-07-07T06:52:23Z</time>
      </trkpt>
      <trkpt lat="43.6925" lon="3.12917">
        <ele>535.5999756</ele>
        <time>2013-07-07T06:52:24Z</time>
      </trkpt>
      <trkpt lat="43.6925" lon="3.12912">
        <ele>535.5999756</ele>
        <time>2013-07-07T06:52:25Z</time>
      </trkpt>
      <trkpt lat="43.69251" lon="3.129">
        <ele>535.5999756</ele>
        <time>2013-07-07T06:52:28Z</time>
      </trkpt>
      <trkpt lat="43.69252" lon="3.12894">
        <ele>535.2000122</ele>
        <time>2013-07-07T06:52:30Z</time>
      </trkpt>
      <trkpt lat="43.69253" lon="3.12891">
        <ele>534.7999878</ele>
        <time>2013-07-07T06:52:31Z</time>
      </trkpt>
      <trkpt lat="43.69252" lon="3.12888">
        <ele>534.4000244</ele>
        <time>2013-07-07T06:52:32Z</time>
      </trkpt>
      <trkpt lat="43.69252" lon="3.12886">
        <ele>533.7999878</ele>
        <time>2013-07-07T06:52:33Z</time>
      </trkpt>
      <trkpt lat="43.69252" lon="3.12883">
        <ele>533.4000244</ele>
        <time>2013-07-07T06:52:34Z</time>
      </trkpt>
      <trkpt lat="43.69254" lon="3.12872">
        <ele>533.4000244</ele>
        <time>2013-07-07T06:52:36Z</time>
      </trkpt>
      <trkpt lat="43.69261" lon="3.12849">
        <ele>533.4000244</ele>
        <time>2013-07-07T06:52:41Z</time>
      </trkpt>
      <trkpt lat="43.69259" lon="3.12838">
        <ele>533</ele>
        <time>2013-07-07T06:52:43Z</time>
      </trkpt>
      <trkpt lat="43.69258" lon="3.12833">
        <ele>532.2000122</ele>
        <time>2013-07-07T06:52:44Z</time>
      </trkpt>
      <trkpt lat="43.69256" lon="3.12826">
        <ele>531.7999878</ele>
        <time>2013-07-07T06:52:45Z</time>
      </trkpt>
      <trkpt lat="43.69254" lon="3.12819">
        <ele>531.4000244</ele>
        <time>2013-07-07T06:52:46Z</time>
      </trkpt>
      <trkpt lat="43.69252" lon="3.12813">
        <ele>531</ele>
        <time>2013-07-07T06:52:47Z</time>
      </trkpt>
      <trkpt lat="43.69251" lon="3.12807">
        <ele>530.5999756</ele>
        <time>2013-07-07T06:52:48Z</time>
      </trkpt>
      <trkpt lat="43.69251" lon="3.12801">
        <ele>530.2000122</ele>
        <time>2013-07-07T06:52:49Z</time>
      </trkpt>
      <trkpt lat="43.6925" lon="3.12796">
        <ele>529.7999878</ele>
        <time>2013-07-07T06:52:50Z</time>
      </trkpt>
      <trkpt lat="43.6925" lon="3.12792">
        <ele>529.2000122</ele>
        <time>2013-07-07T06:52:51Z</time>
      </trkpt>
      <trkpt lat="43.69249" lon="3.12786">
        <ele>529.2000122</ele>
        <time>2013-07-07T06:52:54Z</time>
      </trkpt>
      <trkpt lat="43.69249" lon="3.12781">
        <ele>527.2000122</ele>
        <time>2013-07-07T06:53:03Z</time>
      </trkpt>
      <trkpt lat="43.69248" lon="3.1278">
        <ele>527.2000122</ele>
        <time>2013-07-07T06:53:06Z</time>
      </trkpt>
      <trkpt lat="43.69251" lon="3.12763">
        <ele>527.2000122</ele>
        <time>2013-07-07T06:53:29Z</time>
      </trkpt>
      <trkpt lat="43.69252" lon="3.12756">
        <ele>527.2000122</ele>
        <time>2013-07-07T06:53:31Z</time>
      </trkpt>
      <trkpt lat="43.69254" lon="3.12746">
        <ele>527.2000122</ele>
        <time>2013-07-07T06:53:34Z</time>
      </trkpt>
      <trkpt lat="43.69255" lon="3.12742">
        <ele>526.7999878</ele>
        <time>2013-07-07T06:53:35Z</time>
      </trkpt>
      <trkpt lat="43.69256" lon="3.12737">
        <ele>526.4000244</ele>
        <time>2013-07-07T06:53:36Z</time>
      </trkpt>
      <trkpt lat="43.69257" lon="3.12733">
        <ele>526</ele>
        <time>2013-07-07T06:53:37Z</time>
      </trkpt>
      <trkpt lat="43.69258" lon="3.12728">
        <ele>525.5999756</ele>
        <time>2013-07-07T06:53:39Z</time>
      </trkpt>
      <trkpt lat="43.69259" lon="3.12723">
        <ele>525.2000122</ele>
        <time>2013-07-07T06:53:40Z</time>
      </trkpt>
      <trkpt lat="43.69258" lon="3.12712">
        <ele>525.2000122</ele>
        <time>2013-07-07T06:53:42Z</time>
      </trkpt>
      <trkpt lat="43.69255" lon="3.12684">
        <ele>525.2000122</ele>
        <time>2013-07-07T06:53:47Z</time>
      </trkpt>
      <trkpt lat="43.69249" lon="3.12667">
        <ele>524.7999878</ele>
        <time>2013-07-07T06:53:50Z</time>
      </trkpt>
      <trkpt lat="43.69246" lon="3.1266">
        <ele>524.4000244</ele>
        <time>2013-07-07T06:53:51Z</time>
      </trkpt>
      <trkpt lat="43.69244" lon="3.12654">
        <ele>524</ele>
        <time>2013-07-07T06:53:52Z</time>
      </trkpt>
      <trkpt lat="43.69241" lon="3.12648">
        <ele>523.5999756</ele>
        <time>2013-07-07T06:53:53Z</time>
      </trkpt>
      <trkpt lat="43.69237" lon="3.12641">
        <ele>523.2000122</ele>
        <time>2013-07-07T06:53:54Z</time>
      </trkpt>
      <trkpt lat="43.69231" lon="3.12631">
        <ele>523.2000122</ele>
        <time>2013-07-07T06:53:56Z</time>
      </trkpt>
      <trkpt lat="43.69229" lon="3.12627">
        <ele>522.7999878</ele>
        <time>2013-07-07T06:53:57Z</time>
      </trkpt>
      <trkpt lat="43.69228" lon="3.12621">
        <ele>522.2000122</ele>
        <time>2013-07-07T06:53:58Z</time>
      </trkpt>
      <trkpt lat="43.69227" lon="3.12616">
        <ele>521.7999878</ele>
        <time>2013-07-07T06:53:59Z</time>
      </trkpt>
      <trkpt lat="43.69226" lon="3.1261">
        <ele>520.7999878</ele>
        <time>2013-07-07T06:54:00Z</time>
      </trkpt>
      <trkpt lat="43.69226" lon="3.12604">
        <ele>520.7999878</ele>
        <time>2013-07-07T06:54:01Z</time>
      </trkpt>
      <trkpt lat="43.69225" lon="3.12591">
        <ele>520.4000244</ele>
        <time>2013-07-07T06:54:03Z</time>
      </trkpt>
      <trkpt lat="43.69225" lon="3.12584">
        <ele>520</ele>
        <time>2013-07-07T06:54:04Z</time>
      </trkpt>
      <trkpt lat="43.69226" lon="3.12578">
        <ele>519.5999756</ele>
        <time>2013-07-07T06:54:05Z</time>
      </trkpt>
      <trkpt lat="43.69228" lon="3.12573">
        <ele>519.2000122</ele>
        <time>2013-07-07T06:54:06Z</time>
      </trkpt>
      <trkpt lat="43.69231" lon="3.1257">
        <ele>518.7999878</ele>
        <time>2013-07-07T06:54:07Z</time>
      </trkpt>
      <trkpt lat="43.69238" lon="3.12564">
        <ele>518.7999878</ele>
        <time>2013-07-07T06:54:09Z</time>
      </trkpt>
      <trkpt lat="43.69245" lon="3.12561">
        <ele>518.7999878</ele>
        <time>2013-07-07T06:54:11Z</time>
      </trkpt>
      <trkpt lat="43.69249" lon="3.12559">
        <ele>518.7999878</ele>
        <time>2013-07-07T06:54:12Z</time>
      </trkpt>
      <trkpt lat="43.69254" lon="3.12557">
        <ele>518.2000122</ele>
        <time>2013-07-07T06:54:13Z</time>
      </trkpt>
      <trkpt lat="43.6926" lon="3.12555">
        <ele>517.7999878</ele>
        <time>2013-07-07T06:54:14Z</time>
      </trkpt>
      <trkpt lat="43.69265" lon="3.12553">
        <ele>517.4000244</ele>
        <time>2013-07-07T06:54:15Z</time>
      </trkpt>
      <trkpt lat="43.69271" lon="3.12551">
        <ele>517</ele>
        <time>2013-07-07T06:54:16Z</time>
      </trkpt>
      <trkpt lat="43.69277" lon="3.12548">
        <ele>516.5999756</ele>
        <time>2013-07-07T06:54:17Z</time>
      </trkpt>
      <trkpt lat="43.69282" lon="3.12545">
        <ele>516.2000122</ele>
        <time>2013-07-07T06:54:18Z</time>
      </trkpt>
      <trkpt lat="43.69288" lon="3.12541">
        <ele>515.5999756</ele>
        <time>2013-07-07T06:54:19Z</time>
      </trkpt>
      <trkpt lat="43.69293" lon="3.12537">
        <ele>515.2000122</ele>
        <time>2013-07-07T06:54:20Z</time>
      </trkpt>
      <trkpt lat="43.69298" lon="3.12533">
        <ele>514.7999878</ele>
        <time>2013-07-07T06:54:21Z</time>
      </trkpt>
      <trkpt lat="43.69303" lon="3.1253">
        <ele>514.4000244</ele>
        <time>2013-07-07T06:54:22Z</time>
      </trkpt>
      <trkpt lat="43.69316" lon="3.12521">
        <ele>514</ele>
        <time>2013-07-07T06:54:25Z</time>
      </trkpt>
      <trkpt lat="43.6932" lon="3.12518">
        <ele>513.5999756</ele>
        <time>2013-07-07T06:54:26Z</time>
      </trkpt>
      <trkpt lat="43.69324" lon="3.12514">
        <ele>513.2000122</ele>
        <time>2013-07-07T06:54:27Z</time>
      </trkpt>
      <trkpt lat="43.69328" lon="3.12511">
        <ele>512.7999878</ele>
        <time>2013-07-07T06:54:28Z</time>
      </trkpt>
      <trkpt lat="43.69332" lon="3.12507">
        <ele>512.4000244</ele>
        <time>2013-07-07T06:54:29Z</time>
      </trkpt>
      <trkpt lat="43.69339" lon="3.125">
        <ele>512.4000244</ele>
        <time>2013-07-07T06:54:31Z</time>
      </trkpt>
      <trkpt lat="43.69343" lon="3.12496">
        <ele>512.4000244</ele>
        <time>2013-07-07T06:54:32Z</time>
      </trkpt>
      <trkpt lat="43.69347" lon="3.12493">
        <ele>511.7999878</ele>
        <time>2013-07-07T06:54:33Z</time>
      </trkpt>
      <trkpt lat="43.69351" lon="3.12491">
        <ele>511.3999939</ele>
        <time>2013-07-07T06:54:34Z</time>
      </trkpt>
      <trkpt lat="43.69355" lon="3.12488">
        <ele>511</ele>
        <time>2013-07-07T06:54:35Z</time>
      </trkpt>
      <trkpt lat="43.6936" lon="3.12485">
        <ele>510.6000061</ele>
        <time>2013-07-07T06:54:36Z</time>
      </trkpt>
      <trkpt lat="43.69364" lon="3.12483">
        <ele>510.2000122</ele>
        <time>2013-07-07T06:54:37Z</time>
      </trkpt>
      <trkpt lat="43.69372" lon="3.12477">
        <ele>509.7999878</ele>
        <time>2013-07-07T06:54:39Z</time>
      </trkpt>
      <trkpt lat="43.69377" lon="3.12475">
        <ele>509.3999939</ele>
        <time>2013-07-07T06:54:40Z</time>
      </trkpt>
      <trkpt lat="43.69382" lon="3.12472">
        <ele>509</ele>
        <time>2013-07-07T06:54:41Z</time>
      </trkpt>
      <trkpt lat="43.69387" lon="3.1247">
        <ele>508.6000061</ele>
        <time>2013-07-07T06:54:42Z</time>
      </trkpt>
      <trkpt lat="43.69465" lon="3.12485">
        <ele>503.7999878</ele>
        <time>2013-07-07T06:55:28Z</time>
      </trkpt>
      <trkpt lat="43.69468" lon="3.12487">
        <ele>503.3999939</ele>
        <time>2013-07-07T06:55:29Z</time>
      </trkpt>
      <trkpt lat="43.6947" lon="3.1249">
        <ele>503</ele>
        <time>2013-07-07T06:55:30Z</time>
      </trkpt>
      <trkpt lat="43.69472" lon="3.12493">
        <ele>502.6000061</ele>
        <time>2013-07-07T06:55:31Z</time>
      </trkpt>
      <trkpt lat="43.69474" lon="3.12496">
        <ele>502</ele>
        <time>2013-07-07T06:55:32Z</time>
      </trkpt>
      <trkpt lat="43.69477" lon="3.12499">
        <ele>502</ele>
        <time>2013-07-07T06:55:33Z</time>
      </trkpt>
      <trkpt lat="43.69479" lon="3.12503">
        <ele>502</ele>
        <time>2013-07-07T06:55:34Z</time>
      </trkpt>
      <trkpt lat="43.69484" lon="3.12508">
        <ele>501.6000061</ele>
        <time>2013-07-07T06:55:36Z</time>
      </trkpt>
      <trkpt lat="43.69486" lon="3.12511">
        <ele>501.2000122</ele>
        <time>2013-07-07T06:55:37Z</time>
      </trkpt>
      <trkpt lat="43.69488" lon="3.12515">
        <ele>500.7999878</ele>
        <time>2013-07-07T06:55:38Z</time>
      </trkpt>
      <trkpt lat="43.69491" lon="3.12517">
        <ele>499.7999878</ele>
        <time>2013-07-07T06:55:39Z</time>
      </trkpt>
      <trkpt lat="43.69497" lon="3.12518">
        <ele>499.7999878</ele>
        <time>2013-07-07T06:55:41Z</time>
      </trkpt>
      <trkpt lat="43.695" lon="3.12521">
        <ele>499.3999939</ele>
        <time>2013-07-07T06:55:42Z</time>
      </trkpt>
      <trkpt lat="43.69502" lon="3.12525">
        <ele>499</ele>
        <time>2013-07-07T06:55:43Z</time>
      </trkpt>
      <trkpt lat="43.69504" lon="3.1253">
        <ele>498.6000061</ele>
        <time>2013-07-07T06:55:44Z</time>
      </trkpt>
      <trkpt lat="43.69507" lon="3.12534">
        <ele>498</ele>
        <time>2013-07-07T06:55:45Z</time>
      </trkpt>
      <trkpt lat="43.69509" lon="3.12538">
        <ele>497.6000061</ele>
        <time>2013-07-07T06:55:46Z</time>
      </trkpt>
      <trkpt lat="43.69515" lon="3.12542">
        <ele>497.6000061</ele>
        <time>2013-07-07T06:55:49Z</time>
      </trkpt>
      <trkpt lat="43.6952" lon="3.1254">
        <ele>497.6000061</ele>
        <time>2013-07-07T06:55:52Z</time>
      </trkpt>
      <trkpt lat="43.69523" lon="3.12538">
        <ele>497.6000061</ele>
        <time>2013-07-07T06:55:53Z</time>
      </trkpt>
      <trkpt lat="43.69524" lon="3.12538">
        <ele>497.2000122</ele>
        <time>2013-07-07T06:55:54Z</time>
      </trkpt>
      <trkpt lat="43.69525" lon="3.12537">
        <ele>496.7999878</ele>
        <time>2013-07-07T06:55:55Z</time>
      </trkpt>
      <trkpt lat="43.69526" lon="3.12537">
        <ele>496.3999939</ele>
        <time>2013-07-07T06:55:56Z</time>
      </trkpt>
      <trkpt lat="43.69528" lon="3.12536">
        <ele>496</ele>
        <time>2013-07-07T06:55:57Z</time>
      </trkpt>
      <trkpt lat="43.6953" lon="3.12535">
        <ele>495.6000061</ele>
        <time>2013-07-07T06:55:58Z</time>
      </trkpt>
      <trkpt lat="43.69534" lon="3.12531">
        <ele>495.6000061</ele>
        <time>2013-07-07T06:56:00Z</time>
      </trkpt>
      <trkpt lat="43.69548" lon="3.12527">
        <ele>495.6000061</ele>
        <time>2013-07-07T06:56:05Z</time>
      </trkpt>
      <trkpt lat="43.69552" lon="3.12529">
        <ele>495.2000122</ele>
        <time>2013-07-07T06:56:06Z</time>
      </trkpt>
      <trkpt lat="43.69555" lon="3.12531">
        <ele>494.7999878</ele>
        <time>2013-07-07T06:56:07Z</time>
      </trkpt>
      <trkpt lat="43.69558" lon="3.12533">
        <ele>494.3999939</ele>
        <time>2013-07-07T06:56:08Z</time>
      </trkpt>
      <trkpt lat="43.69563" lon="3.12532">
        <ele>494</ele>
        <time>2013-07-07T06:56:09Z</time>
      </trkpt>
      <trkpt lat="43.69566" lon="3.12532">
        <ele>493.6000061</ele>
        <time>2013-07-07T06:56:10Z</time>
      </trkpt>
      <trkpt lat="43.69572" lon="3.12525">
        <ele>493.2000122</ele>
        <time>2013-07-07T06:56:13Z</time>
      </trkpt>
      <trkpt lat="43.69575" lon="3.12522">
        <ele>492.7999878</ele>
        <time>2013-07-07T06:56:14Z</time>
      </trkpt>
      <trkpt lat="43.69577" lon="3.12519">
        <ele>492.2000122</ele>
        <time>2013-07-07T06:56:15Z</time>
      </trkpt>
      <trkpt lat="43.69581" lon="3.12515">
        <ele>491.7999878</ele>
        <time>2013-07-07T06:56:16Z</time>
      </trkpt>
      <trkpt lat="43.69584" lon="3.12511">
        <ele>491.3999939</ele>
        <time>2013-07-07T06:56:17Z</time>
      </trkpt>
      <trkpt lat="43.69592" lon="3.12503">
        <ele>491.3999939</ele>
        <time>2013-07-07T06:56:19Z</time>
      </trkpt>
      <trkpt lat="43.69597" lon="3.12499">
        <ele>491</ele>
        <time>2013-07-07T06:56:20Z</time>
      </trkpt>
      <trkpt lat="43.69601" lon="3.12494">
        <ele>490.6000061</ele>
        <time>2013-07-07T06:56:21Z</time>
      </trkpt>
      <trkpt lat="43.69605" lon="3.12489">
        <ele>490.2000122</ele>
        <time>2013-07-07T06:56:22Z</time>
      </trkpt>
      <trkpt lat="43.6961" lon="3.12486">
        <ele>489.7999878</ele>
        <time>2013-07-07T06:56:23Z</time>
      </trkpt>
      <trkpt lat="43.69614" lon="3.12483">
        <ele>489.3999939</ele>
        <time>2013-07-07T06:56:24Z</time>
      </trkpt>
      <trkpt lat="43.6962" lon="3.12482">
        <ele>488.7999878</ele>
        <time>2013-07-07T06:56:25Z</time>
      </trkpt>
      <trkpt lat="43.69624" lon="3.12479">
        <ele>488.3999939</ele>
        <time>2013-07-07T06:56:26Z</time>
      </trkpt>
      <trkpt lat="43.69629" lon="3.12477">
        <ele>488</ele>
        <time>2013-07-07T06:56:27Z</time>
      </trkpt>
      <trkpt lat="43.69634" lon="3.12474">
        <ele>487.3999939</ele>
        <time>2013-07-07T06:56:28Z</time>
      </trkpt>
      <trkpt lat="43.69639" lon="3.12471">
        <ele>487</ele>
        <time>2013-07-07T06:56:29Z</time>
      </trkpt>
      <trkpt lat="43.69648" lon="3.12468">
        <ele>487</ele>
        <time>2013-07-07T06:56:31Z</time>
      </trkpt>
      <trkpt lat="43.69652" lon="3.12467">
        <ele>486.6000061</ele>
        <time>2013-07-07T06:56:32Z</time>
      </trkpt>
      <trkpt lat="43.69656" lon="3.12466">
        <ele>486.2000122</ele>
        <time>2013-07-07T06:56:33Z</time>
      </trkpt>
      <trkpt lat="43.69659" lon="3.12468">
        <ele>485.6000061</ele>
        <time>2013-07-07T06:56:34Z</time>
      </trkpt>
      <trkpt lat="43.69661" lon="3.1247">
        <ele>485.2000122</ele>
        <time>2013-07-07T06:56:35Z</time>
      </trkpt>
      <trkpt lat="43.69662" lon="3.12473">
        <ele>484.7999878</ele>
        <time>2013-07-07T06:56:36Z</time>
      </trkpt>
      <trkpt lat="43.69667" lon="3.12488">
        <ele>484.3999939</ele>
        <time>2013-07-07T06:56:39Z</time>
      </trkpt>
      <trkpt lat="43.69668" lon="3.12494">
        <ele>484</ele>
        <time>2013-07-07T06:56:40Z</time>
      </trkpt>
      <trkpt lat="43.69669" lon="3.12501">
        <ele>483.6000061</ele>
        <time>2013-07-07T06:56:41Z</time>
      </trkpt>
      <trkpt lat="43.69668" lon="3.12507">
        <ele>483.2000122</ele>
        <time>2013-07-07T06:56:42Z</time>
      </trkpt>
      <trkpt lat="43.69667" lon="3.12512">
        <ele>482.7999878</ele>
        <time>2013-07-07T06:56:43Z</time>
      </trkpt>
      <trkpt lat="43.69667" lon="3.12518">
        <ele>482.7999878</ele>
        <time>2013-07-07T06:56:44Z</time>
      </trkpt>
      <trkpt lat="43.69667" lon="3.12533">
        <ele>482.3999939</ele>
        <time>2013-07-07T06:56:47Z</time>
      </trkpt>
      <trkpt lat="43.69668" lon="3.12538">
        <ele>482</ele>
        <time>2013-07-07T06:56:48Z</time>
      </trkpt>
      <trkpt lat="43.69668" lon="3.12543">
        <ele>481.6000061</ele>
        <time>2013-07-07T06:56:49Z</time>
      </trkpt>
      <trkpt lat="43.69668" lon="3.12547">
        <ele>481.2000122</ele>
        <time>2013-07-07T06:56:50Z</time>
      </trkpt>
      <trkpt lat="43.6967" lon="3.12552">
        <ele>480.7999878</ele>
        <time>2013-07-07T06:56:51Z</time>
      </trkpt>
      <trkpt lat="43.69673" lon="3.12568">
        <ele>480.7999878</ele>
        <time>2013-07-07T06:56:54Z</time>
      </trkpt>
      <trkpt lat="43.69675" lon="3.12574">
        <ele>480.2000122</ele>
        <time>2013-07-07T06:56:55Z</time>
      </trkpt>
      <trkpt lat="43.69676" lon="3.12579">
        <ele>479.7999878</ele>
        <time>2013-07-07T06:56:56Z</time>
      </trkpt>
      <trkpt lat="43.69676" lon="3.12584">
        <ele>479.3999939</ele>
        <time>2013-07-07T06:56:57Z</time>
      </trkpt>
      <trkpt lat="43.69677" lon="3.12589">
        <ele>479</ele>
        <time>2013-07-07T06:56:58Z</time>
      </trkpt>
      <trkpt lat="43.69678" lon="3.12594">
        <ele>478.3999939</ele>
        <time>2013-07-07T06:56:59Z</time>
      </trkpt>
      <trkpt lat="43.6968" lon="3.12606">
        <ele>478.3999939</ele>
        <time>2013-07-07T06:57:03Z</time>
      </trkpt>
      <trkpt lat="43.6968" lon="3.12605">
        <ele>478.3999939</ele>
        <time>2013-07-07T06:57:04Z</time>
      </trkpt>
      <trkpt lat="43.6968" lon="3.12605">
        <ele>478.3999939</ele>
        <time>2013-07-07T06:57:05Z</time>
      </trkpt>
      <trkpt lat="43.69689" lon="3.12604">
        <ele>476.2000122</ele>
        <time>2013-07-07T06:57:32Z</time>
      </trkpt>
      <trkpt lat="43.69688" lon="3.126">
        <ele>476.2000122</ele>
        <time>2013-07-07T06:57:34Z</time>
      </trkpt>
      <trkpt lat="43.6969" lon="3.12583">
        <ele>476.2000122</ele>
        <time>2013-07-07T06:57:38Z</time>
      </trkpt>
      <trkpt lat="43.69691" lon="3.12567">
        <ele>476.2000122</ele>
        <time>2013-07-07T06:57:41Z</time>
      </trkpt>
      <trkpt lat="43.69692" lon="3.12562">
        <ele>475.7999878</ele>
        <time>2013-07-07T06:57:42Z</time>
      </trkpt>
      <trkpt lat="43.69694" lon="3.12556">
        <ele>475</ele>
        <time>2013-07-07T06:57:43Z</time>
      </trkpt>
      <trkpt lat="43.69696" lon="3.12549">
        <ele>474.6000061</ele>
        <time>2013-07-07T06:57:44Z</time>
      </trkpt>
      <trkpt lat="43.69699" lon="3.12544">
        <ele>474</ele>
        <time>2013-07-07T06:57:45Z</time>
      </trkpt>
      <trkpt lat="43.69703" lon="3.12532">
        <ele>473.6000061</ele>
        <time>2013-07-07T06:57:47Z</time>
      </trkpt>
      <trkpt lat="43.69705" lon="3.12526">
        <ele>473.2000122</ele>
        <time>2013-07-07T06:57:48Z</time>
      </trkpt>
      <trkpt lat="43.69707" lon="3.12519">
        <ele>472.7999878</ele>
        <time>2013-07-07T06:57:49Z</time>
      </trkpt>
      <trkpt lat="43.69709" lon="3.12511">
        <ele>472.3999939</ele>
        <time>2013-07-07T06:57:50Z</time>
      </trkpt>
      <trkpt lat="43.69712" lon="3.12502">
        <ele>472</ele>
        <time>2013-07-07T06:57:51Z</time>
      </trkpt>
      <trkpt lat="43.69713" lon="3.12494">
        <ele>471.3999939</ele>
        <time>2013-07-07T06:57:52Z</time>
      </trkpt>
      <trkpt lat="43.69715" lon="3.12486">
        <ele>471</ele>
        <time>2013-07-07T06:57:53Z</time>
      </trkpt>
      <trkpt lat="43.69716" lon="3.12478">
        <ele>470.3999939</ele>
        <time>2013-07-07T06:57:54Z</time>
      </trkpt>
      <trkpt lat="43.69718" lon="3.12469">
        <ele>470</ele>
        <time>2013-07-07T06:57:55Z</time>
      </trkpt>
      <trkpt lat="43.6972" lon="3.12454">
        <ele>470</ele>
        <time>2013-07-07T06:57:59Z</time>
      </trkpt>
      <trkpt lat="43.6972" lon="3.1245">
        <ele>469.6000061</ele>
        <time>2013-07-07T06:58:00Z</time>
      </trkpt>
      <trkpt lat="43.6972" lon="3.12448">
        <ele>469.2000122</ele>
        <time>2013-07-07T06:58:01Z</time>
      </trkpt>
      <trkpt lat="43.69717" lon="3.12443">
        <ele>468.7999878</ele>
        <time>2013-07-07T06:58:02Z</time>
      </trkpt>
      <trkpt lat="43.69716" lon="3.12438">
        <ele>468.3999939</ele>
        <time>2013-07-07T06:58:03Z</time>
      </trkpt>
      <trkpt lat="43.69714" lon="3.12434">
        <ele>467.6000061</ele>
        <time>2013-07-07T06:58:04Z</time>
      </trkpt>
      <trkpt lat="43.69714" lon="3.12426">
        <ele>467</ele>
        <time>2013-07-07T06:58:05Z</time>
      </trkpt>
      <trkpt lat="43.69715" lon="3.12418">
        <ele>466.2000122</ele>
        <time>2013-07-07T06:58:06Z</time>
      </trkpt>
      <trkpt lat="43.69716" lon="3.12409">
        <ele>464.6000061</ele>
        <time>2013-07-07T06:58:07Z</time>
      </trkpt>
      <trkpt lat="43.69717" lon="3.12401">
        <ele>463.7999878</ele>
        <time>2013-07-07T06:58:08Z</time>
      </trkpt>
      <trkpt lat="43.69717" lon="3.12395">
        <ele>463</ele>
        <time>2013-07-07T06:58:09Z</time>
      </trkpt>
      <trkpt lat="43.69715" lon="3.12391">
        <ele>463</ele>
        <time>2013-07-07T06:58:10Z</time>
      </trkpt>
      <trkpt lat="43.69712" lon="3.12382">
        <ele>463</ele>
        <time>2013-07-07T06:58:14Z</time>
      </trkpt>
      <trkpt lat="43.69711" lon="3.1238">
        <ele>463</ele>
        <time>2013-07-07T06:58:15Z</time>
      </trkpt>
      <trkpt lat="43.69703" lon="3.12365">
        <ele>463</ele>
        <time>2013-07-07T06:58:21Z</time>
      </trkpt>
      <trkpt lat="43.69693" lon="3.12352">
        <ele>463</ele>
        <time>2013-07-07T06:58:28Z</time>
      </trkpt>
      <trkpt lat="43.69686" lon="3.12345">
        <ele>463.7999878</ele>
        <time>2013-07-07T06:58:32Z</time>
      </trkpt>
      <trkpt lat="43.69685" lon="3.12344">
        <ele>464.2000122</ele>
        <time>2013-07-07T06:58:33Z</time>
      </trkpt>
      <trkpt lat="43.69683" lon="3.12343">
        <ele>464.7999878</ele>
        <time>2013-07-07T06:58:34Z</time>
      </trkpt>
      <trkpt lat="43.69681" lon="3.12341">
        <ele>465.2000122</ele>
        <time>2013-07-07T06:58:35Z</time>
      </trkpt>
      <trkpt lat="43.69673" lon="3.12335">
        <ele>465.2000122</ele>
        <time>2013-07-07T06:58:38Z</time>
      </trkpt>
      <trkpt lat="43.69662" lon="3.1232">
        <ele>465.2000122</ele>
        <time>2013-07-07T06:58:44Z</time>
      </trkpt>
      <trkpt lat="43.69657" lon="3.12304">
        <ele>465.2000122</ele>
        <time>2013-07-07T06:58:49Z</time>
      </trkpt>
      <trkpt lat="43.69656" lon="3.12301">
        <ele>465.6000061</ele>
        <time>2013-07-07T06:58:50Z</time>
      </trkpt>
      <trkpt lat="43.69656" lon="3.12297">
        <ele>466</ele>
        <time>2013-07-07T06:58:51Z</time>
      </trkpt>
      <trkpt lat="43.69656" lon="3.12293">
        <ele>466.3999939</ele>
        <time>2013-07-07T06:58:52Z</time>
      </trkpt>
      <trkpt lat="43.69657" lon="3.1229">
        <ele>466.7999878</ele>
        <time>2013-07-07T06:58:53Z</time>
      </trkpt>
      <trkpt lat="43.69657" lon="3.12285">
        <ele>467.2000122</ele>
        <time>2013-07-07T06:58:54Z</time>
      </trkpt>
      <trkpt lat="43.69659" lon="3.12277">
        <ele>467.2000122</ele>
        <time>2013-07-07T06:58:56Z</time>
      </trkpt>
      <trkpt lat="43.69667" lon="3.12261">
        <ele>467.2000122</ele>
        <time>2013-07-07T06:59:01Z</time>
      </trkpt>
      <trkpt lat="43.69681" lon="3.1225">
        <ele>467.2000122</ele>
        <time>2013-07-07T06:59:07Z</time>
      </trkpt>
      <trkpt lat="43.69692" lon="3.12246">
        <ele>467.6000061</ele>
        <time>2013-07-07T06:59:11Z</time>
      </trkpt>
      <trkpt lat="43.69695" lon="3.12245">
        <ele>468.2000122</ele>
        <time>2013-07-07T06:59:12Z</time>
      </trkpt>
      <trkpt lat="43.69697" lon="3.12243">
        <ele>468.6000061</ele>
        <time>2013-07-07T06:59:13Z</time>
      </trkpt>
      <trkpt lat="43.697" lon="3.12241">
        <ele>469</ele>
        <time>2013-07-07T06:59:14Z</time>
      </trkpt>
      <trkpt lat="43.69702" lon="3.12239">
        <ele>469.3999939</ele>
        <time>2013-07-07T06:59:15Z</time>
      </trkpt>
      <trkpt lat="43.69714" lon="3.1223">
        <ele>469.3999939</ele>
        <time>2013-07-07T06:59:20Z</time>
      </trkpt>
      <trkpt lat="43.69731" lon="3.12221">
        <ele>469.3999939</ele>
        <time>2013-07-07T06:59:26Z</time>
      </trkpt>
      <trkpt lat="43.69732" lon="3.12215">
        <ele>469.3999939</ele>
        <time>2013-07-07T06:59:28Z</time>
      </trkpt>
      <trkpt lat="43.6973" lon="3.122">
        <ele>469.3999939</ele>
        <time>2013-07-07T06:59:30Z</time>
      </trkpt>
      <trkpt lat="43.69726" lon="3.12189">
        <ele>469.7999878</ele>
        <time>2013-07-07T06:59:32Z</time>
      </trkpt>
      <trkpt lat="43.69724" lon="3.12185">
        <ele>470.2000122</ele>
        <time>2013-07-07T06:59:33Z</time>
      </trkpt>
      <trkpt lat="43.69723" lon="3.12181">
        <ele>470.6000061</ele>
        <time>2013-07-07T06:59:34Z</time>
      </trkpt>
      <trkpt lat="43.69721" lon="3.12178">
        <ele>471</ele>
        <time>2013-07-07T06:59:35Z</time>
      </trkpt>
      <trkpt lat="43.69719" lon="3.12175">
        <ele>471.3999939</ele>
        <time>2013-07-07T06:59:36Z</time>
      </trkpt>
      <trkpt lat="43.69711" lon="3.12156">
        <ele>471.3999939</ele>
        <time>2013-07-07T06:59:41Z</time>
      </trkpt>
      <trkpt lat="43.69705" lon="3.12137">
        <ele>471.7999878</ele>
        <time>2013-07-07T06:59:46Z</time>
      </trkpt>
      <trkpt lat="43.69703" lon="3.12133">
        <ele>472.2000122</ele>
        <time>2013-07-07T06:59:47Z</time>
      </trkpt>
      <trkpt lat="43.69702" lon="3.1213">
        <ele>472.6000061</ele>
        <time>2013-07-07T06:59:48Z</time>
      </trkpt>
      <trkpt lat="43.69701" lon="3.12126">
        <ele>473</ele>
        <time>2013-07-07T06:59:49Z</time>
      </trkpt>
      <trkpt lat="43.697" lon="3.12123">
        <ele>473.6000061</ele>
        <time>2013-07-07T06:59:50Z</time>
      </trkpt>
      <trkpt lat="43.69697" lon="3.12104">
        <ele>473.6000061</ele>
        <time>2013-07-07T06:59:55Z</time>
      </trkpt>
      <trkpt lat="43.697" lon="3.12085">
        <ele>474</ele>
        <time>2013-07-07T07:00:01Z</time>
      </trkpt>
      <trkpt lat="43.69701" lon="3.12082">
        <ele>474.3999939</ele>
        <time>2013-07-07T07:00:02Z</time>
      </trkpt>
      <trkpt lat="43.69701" lon="3.1208">
        <ele>474.7999878</ele>
        <time>2013-07-07T07:00:03Z</time>
      </trkpt>
      <trkpt lat="43.69701" lon="3.12078">
        <ele>475.2000122</ele>
        <time>2013-07-07T07:00:04Z</time>
      </trkpt>
      <trkpt lat="43.69702" lon="3.12075">
        <ele>475.6000061</ele>
        <time>2013-07-07T07:00:05Z</time>
      </trkpt>
      <trkpt lat="43.69702" lon="3.12072">
        <ele>475.6000061</ele>
        <time>2013-07-07T07:00:06Z</time>
      </trkpt>
      <trkpt lat="43.69704" lon="3.12067">
        <ele>475.6000061</ele>
        <time>2013-07-07T07:00:08Z</time>
      </trkpt>
      <trkpt lat="43.69702" lon="3.12055">
        <ele>475.6000061</ele>
        <time>2013-07-07T07:00:12Z</time>
      </trkpt>
      <trkpt lat="43.69701" lon="3.12052">
        <ele>476</ele>
        <time>2013-07-07T07:00:14Z</time>
      </trkpt>
      <trkpt lat="43.69701" lon="3.1205">
        <ele>476.6000061</ele>
        <time>2013-07-07T07:00:15Z</time>
      </trkpt>
      <trkpt lat="43.69701" lon="3.12048">
        <ele>477</ele>
        <time>2013-07-07T07:00:16Z</time>
      </trkpt>
      <trkpt lat="43.69701" lon="3.12047">
        <ele>477.3999939</ele>
        <time>2013-07-07T07:00:17Z</time>
      </trkpt>
      <trkpt lat="43.69702" lon="3.12044">
        <ele>477.7999878</ele>
        <time>2013-07-07T07:00:18Z</time>
      </trkpt>
      <trkpt lat="43.69705" lon="3.12038">
        <ele>477.7999878</ele>
        <time>2013-07-07T07:00:21Z</time>
      </trkpt>
      <trkpt lat="43.69705" lon="3.12033">
        <ele>478.2000122</ele>
        <time>2013-07-07T07:00:23Z</time>
      </trkpt>
      <trkpt lat="43.69706" lon="3.12031">
        <ele>478.7999878</ele>
        <time>2013-07-07T07:00:24Z</time>
      </trkpt>
      <trkpt lat="43.69706" lon="3.12029">
        <ele>479.2000122</ele>
        <time>2013-07-07T07:00:25Z</time>
      </trkpt>
      <trkpt lat="43.69707" lon="3.12027">
        <ele>479.6000061</ele>
        <time>2013-07-07T07:00:26Z</time>
      </trkpt>
      <trkpt lat="43.69708" lon="3.12024">
        <ele>480</ele>
        <time>2013-07-07T07:00:27Z</time>
      </trkpt>
      <trkpt lat="43.69708" lon="3.12022">
        <ele>480</ele>
        <time>2013-07-07T07:00:28Z</time>
      </trkpt>
      <trkpt lat="43.69712" lon="3.12015">
        <ele>480.3999939</ele>
        <time>2013-07-07T07:00:32Z</time>
      </trkpt>
      <trkpt lat="43.69712" lon="3.12013">
        <ele>480.7999878</ele>
        <time>2013-07-07T07:00:33Z</time>
      </trkpt>
      <trkpt lat="43.69713" lon="3.12012">
        <ele>481.2000122</ele>
        <time>2013-07-07T07:00:34Z</time>
      </trkpt>
      <trkpt lat="43.69713" lon="3.12011">
        <ele>482.2000122</ele>
        <time>2013-07-07T07:00:35Z</time>
      </trkpt>
      <trkpt lat="43.69718" lon="3.12">
        <ele>482.2000122</ele>
        <time>2013-07-07T07:00:41Z</time>
      </trkpt>
      <trkpt lat="43.6972" lon="3.11999">
        <ele>482.6000061</ele>
        <time>2013-07-07T07:00:42Z</time>
      </trkpt>
      <trkpt lat="43.69721" lon="3.11998">
        <ele>483</ele>
        <time>2013-07-07T07:00:43Z</time>
      </trkpt>
      <trkpt lat="43.69722" lon="3.11998">
        <ele>483.3999939</ele>
        <time>2013-07-07T07:00:44Z</time>
      </trkpt>
      <trkpt lat="43.69723" lon="3.11997">
        <ele>483.7999878</ele>
        <time>2013-07-07T07:00:45Z</time>
      </trkpt>
      <trkpt lat="43.69723" lon="3.11996">
        <ele>484.2000122</ele>
        <time>2013-07-07T07:00:46Z</time>
      </trkpt>
      <trkpt lat="43.69724" lon="3.11995">
        <ele>484.2000122</ele>
        <time>2013-07-07T07:00:47Z</time>
      </trkpt>
      <trkpt lat="43.69728" lon="3.11992">
        <ele>484.2000122</ele>
        <time>2013-07-07T07:00:50Z</time>
      </trkpt>
      <trkpt lat="43.69729" lon="3.11992">
        <ele>484.6000061</ele>
        <time>2013-07-07T07:00:51Z</time>
      </trkpt>
      <trkpt lat="43.6973" lon="3.11991">
        <ele>485</ele>
        <time>2013-07-07T07:00:52Z</time>
      </trkpt>
      <trkpt lat="43.69731" lon="3.1199">
        <ele>485.3999939</ele>
        <time>2013-07-07T07:00:53Z</time>
      </trkpt>
      <trkpt lat="43.69732" lon="3.11988">
        <ele>486</ele>
        <time>2013-07-07T07:00:54Z</time>
      </trkpt>
      <trkpt lat="43.69732" lon="3.11988">
        <ele>486.3999939</ele>
        <time>2013-07-07T07:00:55Z</time>
      </trkpt>
      <trkpt lat="43.69735" lon="3.11986">
        <ele>486.3999939</ele>
        <time>2013-07-07T07:00:58Z</time>
      </trkpt>
      <trkpt lat="43.69737" lon="3.11985">
        <ele>486.7999878</ele>
        <time>2013-07-07T07:00:59Z</time>
      </trkpt>
      <trkpt lat="43.69738" lon="3.11984">
        <ele>487.6000061</ele>
        <time>2013-07-07T07:01:00Z</time>
      </trkpt>
      <trkpt lat="43.69739" lon="3.11982">
        <ele>488</ele>
        <time>2013-07-07T07:01:01Z</time>
      </trkpt>
      <trkpt lat="43.6974" lon="3.11982">
        <ele>488.3999939</ele>
        <time>2013-07-07T07:01:02Z</time>
      </trkpt>
      <trkpt lat="43.69743" lon="3.11979">
        <ele>488.3999939</ele>
        <time>2013-07-07T07:01:04Z</time>
      </trkpt>
      <trkpt lat="43.69746" lon="3.11972">
        <ele>488.7999878</ele>
        <time>2013-07-07T07:01:09Z</time>
      </trkpt>
      <trkpt lat="43.69747" lon="3.1197">
        <ele>489.2000122</ele>
        <time>2013-07-07T07:01:10Z</time>
      </trkpt>
      <trkpt lat="43.69748" lon="3.11969">
        <ele>489.7999878</ele>
        <time>2013-07-07T07:01:11Z</time>
      </trkpt>
      <trkpt lat="43.69749" lon="3.11968">
        <ele>490.2000122</ele>
        <time>2013-07-07T07:01:12Z</time>
      </trkpt>
      <trkpt lat="43.6975" lon="3.11966">
        <ele>490.6000061</ele>
        <time>2013-07-07T07:01:13Z</time>
      </trkpt>
      <trkpt lat="43.69753" lon="3.11961">
        <ele>491</ele>
        <time>2013-07-07T07:01:17Z</time>
      </trkpt>
      <trkpt lat="43.69754" lon="3.11959">
        <ele>491.3999939</ele>
        <time>2013-07-07T07:01:18Z</time>
      </trkpt>
      <trkpt lat="43.69754" lon="3.11958">
        <ele>491.7999878</ele>
        <time>2013-07-07T07:01:19Z</time>
      </trkpt>
      <trkpt lat="43.69755" lon="3.11957">
        <ele>492.2000122</ele>
        <time>2013-07-07T07:01:20Z</time>
      </trkpt>
      <trkpt lat="43.69756" lon="3.11955">
        <ele>492.6000061</ele>
        <time>2013-07-07T07:01:21Z</time>
      </trkpt>
      <trkpt lat="43.69759" lon="3.1195">
        <ele>492.6000061</ele>
        <time>2013-07-07T07:01:25Z</time>
      </trkpt>
      <trkpt lat="43.69761" lon="3.11947">
        <ele>493</ele>
        <time>2013-07-07T07:01:27Z</time>
      </trkpt>
      <trkpt lat="43.69762" lon="3.11945">
        <ele>493.6000061</ele>
        <time>2013-07-07T07:01:28Z</time>
      </trkpt>
      <trkpt lat="43.69762" lon="3.11945">
        <ele>494</ele>
        <time>2013-07-07T07:01:29Z</time>
      </trkpt>
      <trkpt lat="43.69764" lon="3.11943">
        <ele>494.3999939</ele>
        <time>2013-07-07T07:01:30Z</time>
      </trkpt>
      <trkpt lat="43.69765" lon="3.11942">
        <ele>494.7999878</ele>
        <time>2013-07-07T07:01:31Z</time>
      </trkpt>
      <trkpt lat="43.69766" lon="3.1194">
        <ele>494.7999878</ele>
        <time>2013-07-07T07:01:32Z</time>
      </trkpt>
      <trkpt lat="43.69769" lon="3.11936">
        <ele>494.7999878</ele>
        <time>2013-07-07T07:01:34Z</time>
      </trkpt>
      <trkpt lat="43.69773" lon="3.11931">
        <ele>495.2000122</ele>
        <time>2013-07-07T07:01:37Z</time>
      </trkpt>
      <trkpt lat="43.69774" lon="3.1193">
        <ele>495.6000061</ele>
        <time>2013-07-07T07:01:38Z</time>
      </trkpt>
      <trkpt lat="43.69775" lon="3.11928">
        <ele>496.2000122</ele>
        <time>2013-07-07T07:01:39Z</time>
      </trkpt>
      <trkpt lat="43.69776" lon="3.11927">
        <ele>496.6000061</ele>
        <time>2013-07-07T07:01:40Z</time>
      </trkpt>
      <trkpt lat="43.69777" lon="3.11926">
        <ele>497</ele>
        <time>2013-07-07T07:01:41Z</time>
      </trkpt>
      <trkpt lat="43.6978" lon="3.11923">
        <ele>497</ele>
        <time>2013-07-07T07:01:44Z</time>
      </trkpt>
      <trkpt lat="43.69783" lon="3.1192">
        <ele>497.3999939</ele>
        <time>2013-07-07T07:01:47Z</time>
      </trkpt>
      <trkpt lat="43.69784" lon="3.11918">
        <ele>497.7999878</ele>
        <time>2013-07-07T07:01:48Z</time>
      </trkpt>
      <trkpt lat="43.69784" lon="3.11918">
        <ele>498.2000122</ele>
        <time>2013-07-07T07:01:49Z</time>
      </trkpt>
      <trkpt lat="43.69785" lon="3.11916">
        <ele>499</ele>
        <time>2013-07-07T07:01:50Z</time>
      </trkpt>
      <trkpt lat="43.69786" lon="3.11915">
        <ele>499</ele>
        <time>2013-07-07T07:01:51Z</time>
      </trkpt>
      <trkpt lat="43.69787" lon="3.11913">
        <ele>499</ele>
        <time>2013-07-07T07:01:53Z</time>
      </trkpt>
      <trkpt lat="43.69791" lon="3.11908">
        <ele>499.3999939</ele>
        <time>2013-07-07T07:01:56Z</time>
      </trkpt>
      <trkpt lat="43.69791" lon="3.11907">
        <ele>499.7999878</ele>
        <time>2013-07-07T07:01:57Z</time>
      </trkpt>
      <trkpt lat="43.69793" lon="3.11905">
        <ele>500.2000122</ele>
        <time>2013-07-07T07:01:58Z</time>
      </trkpt>
      <trkpt lat="43.69794" lon="3.11903">
        <ele>500.6000061</ele>
        <time>2013-07-07T07:01:59Z</time>
      </trkpt>
      <trkpt lat="43.69795" lon="3.11901">
        <ele>501</ele>
        <time>2013-07-07T07:02:00Z</time>
      </trkpt>
      <trkpt lat="43.698" lon="3.11887">
        <ele>501.3999939</ele>
        <time>2013-07-07T07:02:05Z</time>
      </trkpt>
      <trkpt lat="43.69802" lon="3.11885">
        <ele>501.7999878</ele>
        <time>2013-07-07T07:02:06Z</time>
      </trkpt>
      <trkpt lat="43.69803" lon="3.11883">
        <ele>502.3999939</ele>
        <time>2013-07-07T07:02:07Z</time>
      </trkpt>
      <trkpt lat="43.69804" lon="3.11882">
        <ele>502.7999878</ele>
        <time>2013-07-07T07:02:08Z</time>
      </trkpt>
      <trkpt lat="43.69806" lon="3.11881">
        <ele>503.2000122</ele>
        <time>2013-07-07T07:02:09Z</time>
      </trkpt>
      <trkpt lat="43.6981" lon="3.11875">
        <ele>503.2000122</ele>
        <time>2013-07-07T07:02:12Z</time>
      </trkpt>
      <trkpt lat="43.69813" lon="3.11872">
        <ele>503.6000061</ele>
        <time>2013-07-07T07:02:14Z</time>
      </trkpt>
      <trkpt lat="43.69815" lon="3.11871">
        <ele>504</ele>
        <time>2013-07-07T07:02:15Z</time>
      </trkpt>
      <trkpt lat="43.69816" lon="3.1187">
        <ele>504.3999939</ele>
        <time>2013-07-07T07:02:16Z</time>
      </trkpt>
      <trkpt lat="43.69818" lon="3.11869">
        <ele>504.7999878</ele>
        <time>2013-07-07T07:02:17Z</time>
      </trkpt>
      <trkpt lat="43.69819" lon="3.11868">
        <ele>505.3999939</ele>
        <time>2013-07-07T07:02:18Z</time>
      </trkpt>
      <trkpt lat="43.6982" lon="3.11867">
        <ele>505.3999939</ele>
        <time>2013-07-07T07:02:19Z</time>
      </trkpt>
      <trkpt lat="43.69825" lon="3.1186">
        <ele>505.7999878</ele>
        <time>2013-07-07T07:02:23Z</time>
      </trkpt>
      <trkpt lat="43.69826" lon="3.11858">
        <ele>506.2000122</ele>
        <time>2013-07-07T07:02:24Z</time>
      </trkpt>
      <trkpt lat="43.69827" lon="3.11857">
        <ele>506.6000061</ele>
        <time>2013-07-07T07:02:25Z</time>
      </trkpt>
      <trkpt lat="43.69828" lon="3.11855">
        <ele>507</ele>
        <time>2013-07-07T07:02:26Z</time>
      </trkpt>
      <trkpt lat="43.69828" lon="3.11853">
        <ele>507.3999939</ele>
        <time>2013-07-07T07:02:27Z</time>
      </trkpt>
      <trkpt lat="43.69832" lon="3.11847">
        <ele>507.3999939</ele>
        <time>2013-07-07T07:02:30Z</time>
      </trkpt>
      <trkpt lat="43.69835" lon="3.1184">
        <ele>507.3999939</ele>
        <time>2013-07-07T07:02:33Z</time>
      </trkpt>
      <trkpt lat="43.69836" lon="3.11839">
        <ele>507.7999878</ele>
        <time>2013-07-07T07:02:34Z</time>
      </trkpt>
      <trkpt lat="43.69837" lon="3.11837">
        <ele>508.2000122</ele>
        <time>2013-07-07T07:02:35Z</time>
      </trkpt>
      <trkpt lat="43.69838" lon="3.11835">
        <ele>508.6000061</ele>
        <time>2013-07-07T07:02:36Z</time>
      </trkpt>
      <trkpt lat="43.69839" lon="3.11833">
        <ele>509</ele>
        <time>2013-07-07T07:02:37Z</time>
      </trkpt>
      <trkpt lat="43.6984" lon="3.11831">
        <ele>509.3999939</ele>
        <time>2013-07-07T07:02:38Z</time>
      </trkpt>
      <trkpt lat="43.69843" lon="3.11826">
        <ele>509.3999939</ele>
        <time>2013-07-07T07:02:41Z</time>
      </trkpt>
      <trkpt lat="43.69846" lon="3.11824">
        <ele>509.7999878</ele>
        <time>2013-07-07T07:02:43Z</time>
      </trkpt>
      <trkpt lat="43.69847" lon="3.11822">
        <ele>510.2000122</ele>
        <time>2013-07-07T07:02:44Z</time>
      </trkpt>
      <trkpt lat="43.69848" lon="3.11821">
        <ele>510.6000061</ele>
        <time>2013-07-07T07:02:45Z</time>
      </trkpt>
      <trkpt lat="43.69849" lon="3.1182">
        <ele>511</ele>
        <time>2013-07-07T07:02:46Z</time>
      </trkpt>
      <trkpt lat="43.69851" lon="3.11819">
        <ele>511.3999939</ele>
        <time>2013-07-07T07:02:47Z</time>
      </trkpt>
      <trkpt lat="43.69852" lon="3.11818">
        <ele>511.3999939</ele>
        <time>2013-07-07T07:02:48Z</time>
      </trkpt>
      <trkpt lat="43.69858" lon="3.11813">
        <ele>511.3999939</ele>
        <time>2013-07-07T07:02:53Z</time>
      </trkpt>
      <trkpt lat="43.6986" lon="3.11812">
        <ele>512</ele>
        <time>2013-07-07T07:02:54Z</time>
      </trkpt>
      <trkpt lat="43.69861" lon="3.11811">
        <ele>512.4000244</ele>
        <time>2013-07-07T07:02:55Z</time>
      </trkpt>
      <trkpt lat="43.69863" lon="3.1181">
        <ele>512.7999878</ele>
        <time>2013-07-07T07:02:56Z</time>
      </trkpt>
      <trkpt lat="43.69864" lon="3.1181">
        <ele>513.2000122</ele>
        <time>2013-07-07T07:02:57Z</time>
      </trkpt>
      <trkpt lat="43.69866" lon="3.1181">
        <ele>513.5999756</ele>
        <time>2013-07-07T07:02:58Z</time>
      </trkpt>
      <trkpt lat="43.69868" lon="3.11809">
        <ele>513.5999756</ele>
        <time>2013-07-07T07:03:00Z</time>
      </trkpt>
      <trkpt lat="43.69872" lon="3.11806">
        <ele>514</ele>
        <time>2013-07-07T07:03:03Z</time>
      </trkpt>
      <trkpt lat="43.69874" lon="3.11805">
        <ele>514.4000244</ele>
        <time>2013-07-07T07:03:04Z</time>
      </trkpt>
      <trkpt lat="43.69875" lon="3.11803">
        <ele>514.7999878</ele>
        <time>2013-07-07T07:03:05Z</time>
      </trkpt>
      <trkpt lat="43.69877" lon="3.11802">
        <ele>515.2000122</ele>
        <time>2013-07-07T07:03:06Z</time>
      </trkpt>
      <trkpt lat="43.69879" lon="3.11801">
        <ele>515.5999756</ele>
        <time>2013-07-07T07:03:07Z</time>
      </trkpt>
      <trkpt lat="43.69882" lon="3.11798">
        <ele>515.5999756</ele>
        <time>2013-07-07T07:03:09Z</time>
      </trkpt>
      <trkpt lat="43.69884" lon="3.11797">
        <ele>515.5999756</ele>
        <time>2013-07-07T07:03:11Z</time>
      </trkpt>
      <trkpt lat="43.69887" lon="3.11796">
        <ele>516.2000122</ele>
        <time>2013-07-07T07:03:13Z</time>
      </trkpt>
      <trkpt lat="43.69888" lon="3.11796">
        <ele>516.5999756</ele>
        <time>2013-07-07T07:03:14Z</time>
      </trkpt>
      <trkpt lat="43.69889" lon="3.11796">
        <ele>517</ele>
        <time>2013-07-07T07:03:15Z</time>
      </trkpt>
      <trkpt lat="43.69891" lon="3.11795">
        <ele>517.4000244</ele>
        <time>2013-07-07T07:03:16Z</time>
      </trkpt>
      <trkpt lat="43.69892" lon="3.11794">
        <ele>517.7999878</ele>
        <time>2013-07-07T07:03:17Z</time>
      </trkpt>
      <trkpt lat="43.69893" lon="3.11793">
        <ele>517.7999878</ele>
        <time>2013-07-07T07:03:18Z</time>
      </trkpt>
      <trkpt lat="43.699" lon="3.11793">
        <ele>518.4000244</ele>
        <time>2013-07-07T07:03:22Z</time>
      </trkpt>
      <trkpt lat="43.69901" lon="3.11793">
        <ele>518.7999878</ele>
        <time>2013-07-07T07:03:23Z</time>
      </trkpt>
      <trkpt lat="43.69903" lon="3.11794">
        <ele>519.2000122</ele>
        <time>2013-07-07T07:03:24Z</time>
      </trkpt>
      <trkpt lat="43.69905" lon="3.11793">
        <ele>519.5999756</ele>
        <time>2013-07-07T07:03:25Z</time>
      </trkpt>
      <trkpt lat="43.69906" lon="3.11792">
        <ele>520</ele>
        <time>2013-07-07T07:03:26Z</time>
      </trkpt>
      <trkpt lat="43.69912" lon="3.11789">
        <ele>520</ele>
        <time>2013-07-07T07:03:29Z</time>
      </trkpt>
      <trkpt lat="43.69915" lon="3.1179">
        <ele>520</ele>
        <time>2013-07-07T07:03:30Z</time>
      </trkpt>
      <trkpt lat="43.69919" lon="3.11791">
        <ele>520.4000244</ele>
        <time>2013-07-07T07:03:32Z</time>
      </trkpt>
      <trkpt lat="43.69922" lon="3.11791">
        <ele>520.7999878</ele>
        <time>2013-07-07T07:03:33Z</time>
      </trkpt>
      <trkpt lat="43.69924" lon="3.11791">
        <ele>521.4000244</ele>
        <time>2013-07-07T07:03:34Z</time>
      </trkpt>
      <trkpt lat="43.69926" lon="3.11792">
        <ele>521.7999878</ele>
        <time>2013-07-07T07:03:35Z</time>
      </trkpt>
      <trkpt lat="43.69928" lon="3.11792">
        <ele>522.2000122</ele>
        <time>2013-07-07T07:03:36Z</time>
      </trkpt>
      <trkpt lat="43.69932" lon="3.11792">
        <ele>522.2000122</ele>
        <time>2013-07-07T07:03:38Z</time>
      </trkpt>
      <trkpt lat="43.6994" lon="3.11791">
        <ele>522.5999756</ele>
        <time>2013-07-07T07:03:42Z</time>
      </trkpt>
      <trkpt lat="43.69942" lon="3.1179">
        <ele>523</ele>
        <time>2013-07-07T07:03:43Z</time>
      </trkpt>
      <trkpt lat="43.69943" lon="3.1179">
        <ele>523.4000244</ele>
        <time>2013-07-07T07:03:44Z</time>
      </trkpt>
      <trkpt lat="43.69945" lon="3.1179">
        <ele>523.7999878</ele>
        <time>2013-07-07T07:03:45Z</time>
      </trkpt>
      <trkpt lat="43.69947" lon="3.11789">
        <ele>524.2000122</ele>
        <time>2013-07-07T07:03:46Z</time>
      </trkpt>
      <trkpt lat="43.69953" lon="3.11788">
        <ele>524.2000122</ele>
        <time>2013-07-07T07:03:50Z</time>
      </trkpt>
      <trkpt lat="43.69955" lon="3.11788">
        <ele>524.2000122</ele>
        <time>2013-07-07T07:03:51Z</time>
      </trkpt>
      <trkpt lat="43.6996" lon="3.11788">
        <ele>525</ele>
        <time>2013-07-07T07:03:53Z</time>
      </trkpt>
      <trkpt lat="43.69961" lon="3.11789">
        <ele>525.5999756</ele>
        <time>2013-07-07T07:03:54Z</time>
      </trkpt>
      <trkpt lat="43.69963" lon="3.11789">
        <ele>526</ele>
        <time>2013-07-07T07:03:55Z</time>
      </trkpt>
      <trkpt lat="43.69965" lon="3.11788">
        <ele>526.4000244</ele>
        <time>2013-07-07T07:03:56Z</time>
      </trkpt>
      <trkpt lat="43.6997" lon="3.11788">
        <ele>526.4000244</ele>
        <time>2013-07-07T07:03:59Z</time>
      </trkpt>
      <trkpt lat="43.69972" lon="3.11788">
        <ele>526.4000244</ele>
        <time>2013-07-07T07:04:00Z</time>
      </trkpt>
      <trkpt lat="43.69973" lon="3.11788">
        <ele>526.7999878</ele>
        <time>2013-07-07T07:04:01Z</time>
      </trkpt>
      <trkpt lat="43.69975" lon="3.11787">
        <ele>527.2000122</ele>
        <time>2013-07-07T07:04:02Z</time>
      </trkpt>
      <trkpt lat="43.69977" lon="3.11787">
        <ele>527.5999756</ele>
        <time>2013-07-07T07:04:03Z</time>
      </trkpt>
      <trkpt lat="43.69979" lon="3.11786">
        <ele>528</ele>
        <time>2013-07-07T07:04:04Z</time>
      </trkpt>
      <trkpt lat="43.6998" lon="3.11787">
        <ele>528.4000244</ele>
        <time>2013-07-07T07:04:05Z</time>
      </trkpt>
      <trkpt lat="43.69982" lon="3.11788">
        <ele>528.4000244</ele>
        <time>2013-07-07T07:04:07Z</time>
      </trkpt>
      <trkpt lat="43.69985" lon="3.11787">
        <ele>528.4000244</ele>
        <time>2013-07-07T07:04:09Z</time>
      </trkpt>
      <trkpt lat="43.69988" lon="3.11784">
        <ele>528.7999878</ele>
        <time>2013-07-07T07:04:11Z</time>
      </trkpt>
      <trkpt lat="43.69989" lon="3.11784">
        <ele>529.2000122</ele>
        <time>2013-07-07T07:04:12Z</time>
      </trkpt>
      <trkpt lat="43.69991" lon="3.11784">
        <ele>529.5999756</ele>
        <time>2013-07-07T07:04:13Z</time>
      </trkpt>
      <trkpt lat="43.69993" lon="3.11782">
        <ele>530.2000122</ele>
        <time>2013-07-07T07:04:14Z</time>
      </trkpt>
      <trkpt lat="43.69994" lon="3.11782">
        <ele>530.5999756</ele>
        <time>2013-07-07T07:04:15Z</time>
      </trkpt>
      <trkpt lat="43.69999" lon="3.11776">
        <ele>530.5999756</ele>
        <time>2013-07-07T07:04:19Z</time>
      </trkpt>
      <trkpt lat="43.70004" lon="3.11772">
        <ele>531</ele>
        <time>2013-07-07T07:04:22Z</time>
      </trkpt>
      <trkpt lat="43.70005" lon="3.11771">
        <ele>531.4000244</ele>
        <time>2013-07-07T07:04:23Z</time>
      </trkpt>
      <trkpt lat="43.70006" lon="3.1177">
        <ele>531.7999878</ele>
        <time>2013-07-07T07:04:24Z</time>
      </trkpt>
      <trkpt lat="43.70007" lon="3.11769">
        <ele>532.2000122</ele>
        <time>2013-07-07T07:04:25Z</time>
      </trkpt>
      <trkpt lat="43.70009" lon="3.11768">
        <ele>532.7999878</ele>
        <time>2013-07-07T07:04:26Z</time>
      </trkpt>
      <trkpt lat="43.70014" lon="3.11763">
        <ele>532.7999878</ele>
        <time>2013-07-07T07:04:31Z</time>
      </trkpt>
      <trkpt lat="43.70017" lon="3.11762">
        <ele>533.2000122</ele>
        <time>2013-07-07T07:04:33Z</time>
      </trkpt>
      <trkpt lat="43.70019" lon="3.11762">
        <ele>533.5999756</ele>
        <time>2013-07-07T07:04:34Z</time>
      </trkpt>
      <trkpt lat="43.7002" lon="3.11762">
        <ele>534</ele>
        <time>2013-07-07T07:04:35Z</time>
      </trkpt>
      <trkpt lat="43.70022" lon="3.1176">
        <ele>534.4000244</ele>
        <time>2013-07-07T07:04:36Z</time>
      </trkpt>
      <trkpt lat="43.70023" lon="3.11759">
        <ele>534.7999878</ele>
        <time>2013-07-07T07:04:37Z</time>
      </trkpt>
      <trkpt lat="43.70029" lon="3.11753">
        <ele>534.7999878</ele>
        <time>2013-07-07T07:04:42Z</time>
      </trkpt>
      <trkpt lat="43.7003" lon="3.11752">
        <ele>535.2000122</ele>
        <time>2013-07-07T07:04:43Z</time>
      </trkpt>
      <trkpt lat="43.70031" lon="3.1175">
        <ele>535.5999756</ele>
        <time>2013-07-07T07:04:44Z</time>
      </trkpt>
      <trkpt lat="43.70033" lon="3.11749">
        <ele>536</ele>
        <time>2013-07-07T07:04:45Z</time>
      </trkpt>
      <trkpt lat="43.70034" lon="3.11748">
        <ele>536.4000244</ele>
        <time>2013-07-07T07:04:46Z</time>
      </trkpt>
      <trkpt lat="43.70036" lon="3.11746">
        <ele>536.7999878</ele>
        <time>2013-07-07T07:04:47Z</time>
      </trkpt>
      <trkpt lat="43.7004" lon="3.11743">
        <ele>536.7999878</ele>
        <time>2013-07-07T07:04:50Z</time>
      </trkpt>
      <trkpt lat="43.70051" lon="3.11735">
        <ele>536.7999878</ele>
        <time>2013-07-07T07:04:56Z</time>
      </trkpt>
      <trkpt lat="43.70055" lon="3.11733">
        <ele>537.2000122</ele>
        <time>2013-07-07T07:04:58Z</time>
      </trkpt>
      <trkpt lat="43.70057" lon="3.11732">
        <ele>537.5999756</ele>
        <time>2013-07-07T07:04:59Z</time>
      </trkpt>
      <trkpt lat="43.70059" lon="3.11731">
        <ele>538</ele>
        <time>2013-07-07T07:05:00Z</time>
      </trkpt>
      <trkpt lat="43.70061" lon="3.1173">
        <ele>538.4000244</ele>
        <time>2013-07-07T07:05:01Z</time>
      </trkpt>
      <trkpt lat="43.70063" lon="3.11729">
        <ele>538.7999878</ele>
        <time>2013-07-07T07:05:02Z</time>
      </trkpt>
      <trkpt lat="43.70076" lon="3.11723">
        <ele>538.7999878</ele>
        <time>2013-07-07T07:05:09Z</time>
      </trkpt>
      <trkpt lat="43.70078" lon="3.11722">
        <ele>539.2000122</ele>
        <time>2013-07-07T07:05:10Z</time>
      </trkpt>
      <trkpt lat="43.70079" lon="3.11721">
        <ele>539.7999878</ele>
        <time>2013-07-07T07:05:11Z</time>
      </trkpt>
      <trkpt lat="43.70081" lon="3.1172">
        <ele>540.2000122</ele>
        <time>2013-07-07T07:05:12Z</time>
      </trkpt>
      <trkpt lat="43.70083" lon="3.11719">
        <ele>540.5999756</ele>
        <time>2013-07-07T07:05:13Z</time>
      </trkpt>
      <trkpt lat="43.70085" lon="3.11719">
        <ele>541</ele>
        <time>2013-07-07T07:05:14Z</time>
      </trkpt>
      <trkpt lat="43.70087" lon="3.11719">
        <ele>541</ele>
        <time>2013-07-07T07:05:15Z</time>
      </trkpt>
      <trkpt lat="43.70092" lon="3.11717">
        <ele>541</ele>
        <time>2013-07-07T07:05:18Z</time>
      </trkpt>
      <trkpt lat="43.70099" lon="3.11718">
        <ele>541</ele>
        <time>2013-07-07T07:05:21Z</time>
      </trkpt>
      <trkpt lat="43.70102" lon="3.11719">
        <ele>541.4000244</ele>
        <time>2013-07-07T07:05:22Z</time>
      </trkpt>
      <trkpt lat="43.70105" lon="3.1172">
        <ele>541.7999878</ele>
        <time>2013-07-07T07:05:23Z</time>
      </trkpt>
      <trkpt lat="43.70107" lon="3.11721">
        <ele>542.2000122</ele>
        <time>2013-07-07T07:05:24Z</time>
      </trkpt>
      <trkpt lat="43.70111" lon="3.11722">
        <ele>542.5999756</ele>
        <time>2013-07-07T07:05:25Z</time>
      </trkpt>
      <trkpt lat="43.70113" lon="3.11723">
        <ele>543</ele>
        <time>2013-07-07T07:05:26Z</time>
      </trkpt>
      <trkpt lat="43.7012" lon="3.11726">
        <ele>543</ele>
        <time>2013-07-07T07:05:29Z</time>
      </trkpt>
      <trkpt lat="43.70131" lon="3.11728">
        <ele>543</ele>
        <time>2013-07-07T07:05:33Z</time>
      </trkpt>
      <trkpt lat="43.70135" lon="3.11728">
        <ele>543.4000244</ele>
        <time>2013-07-07T07:05:35Z</time>
      </trkpt>
      <trkpt lat="43.70138" lon="3.11728">
        <ele>543.7999878</ele>
        <time>2013-07-07T07:05:36Z</time>
      </trkpt>
      <trkpt lat="43.70141" lon="3.11729">
        <ele>544.2000122</ele>
        <time>2013-07-07T07:05:37Z</time>
      </trkpt>
      <trkpt lat="43.70143" lon="3.11729">
        <ele>544.7999878</ele>
        <time>2013-07-07T07:05:38Z</time>
      </trkpt>
      <trkpt lat="43.70145" lon="3.11729">
        <ele>545.2000122</ele>
        <time>2013-07-07T07:05:39Z</time>
      </trkpt>
      <trkpt lat="43.70149" lon="3.11729">
        <ele>545.2000122</ele>
        <time>2013-07-07T07:05:41Z</time>
      </trkpt>
      <trkpt lat="43.70163" lon="3.11729">
        <ele>545.5999756</ele>
        <time>2013-07-07T07:05:47Z</time>
      </trkpt>
      <trkpt lat="43.70165" lon="3.11729">
        <ele>546</ele>
        <time>2013-07-07T07:05:48Z</time>
      </trkpt>
      <trkpt lat="43.70167" lon="3.11729">
        <ele>546.4000244</ele>
        <time>2013-07-07T07:05:49Z</time>
      </trkpt>
      <trkpt lat="43.70169" lon="3.11727">
        <ele>546.7999878</ele>
        <time>2013-07-07T07:05:50Z</time>
      </trkpt>
      <trkpt lat="43.70172" lon="3.11727">
        <ele>547.2000122</ele>
        <time>2013-07-07T07:05:51Z</time>
      </trkpt>
      <trkpt lat="43.70174" lon="3.11727">
        <ele>547.2000122</ele>
        <time>2013-07-07T07:05:52Z</time>
      </trkpt>
      <trkpt lat="43.70188" lon="3.11723">
        <ele>547.2000122</ele>
        <time>2013-07-07T07:05:58Z</time>
      </trkpt>
      <trkpt lat="43.70197" lon="3.11725">
        <ele>547.5999756</ele>
        <time>2013-07-07T07:06:02Z</time>
      </trkpt>
      <trkpt lat="43.702" lon="3.11724">
        <ele>548</ele>
        <time>2013-07-07T07:06:03Z</time>
      </trkpt>
      <trkpt lat="43.70202" lon="3.11723">
        <ele>548.4000244</ele>
        <time>2013-07-07T07:06:04Z</time>
      </trkpt>
      <trkpt lat="43.70204" lon="3.11723">
        <ele>548.7999878</ele>
        <time>2013-07-07T07:06:05Z</time>
      </trkpt>
      <trkpt lat="43.70206" lon="3.11722">
        <ele>549.2000122</ele>
        <time>2013-07-07T07:06:06Z</time>
      </trkpt>
      <trkpt lat="43.70217" lon="3.11721">
        <ele>549.2000122</ele>
        <time>2013-07-07T07:06:11Z</time>
      </trkpt>
      <trkpt lat="43.70222" lon="3.11721">
        <ele>549.5999756</ele>
        <time>2013-07-07T07:06:14Z</time>
      </trkpt>
      <trkpt lat="43.70225" lon="3.1172">
        <ele>550</ele>
        <time>2013-07-07T07:06:15Z</time>
      </trkpt>
      <trkpt lat="43.70228" lon="3.11721">
        <ele>550.5999756</ele>
        <time>2013-07-07T07:06:16Z</time>
      </trkpt>
      <trkpt lat="43.7023" lon="3.11721">
        <ele>551</ele>
        <time>2013-07-07T07:06:17Z</time>
      </trkpt>
      <trkpt lat="43.70232" lon="3.11721">
        <ele>551.4000244</ele>
        <time>2013-07-07T07:06:18Z</time>
      </trkpt>
      <trkpt lat="43.70234" lon="3.11723">
        <ele>551.4000244</ele>
        <time>2013-07-07T07:06:19Z</time>
      </trkpt>
      <trkpt lat="43.7024" lon="3.11724">
        <ele>551.4000244</ele>
        <time>2013-07-07T07:06:22Z</time>
      </trkpt>
      <trkpt lat="43.70242" lon="3.11724">
        <ele>551.7999878</ele>
        <time>2013-07-07T07:06:23Z</time>
      </trkpt>
      <trkpt lat="43.70244" lon="3.11724">
        <ele>552.2000122</ele>
        <time>2013-07-07T07:06:24Z</time>
      </trkpt>
      <trkpt lat="43.70247" lon="3.11724">
        <ele>552.5999756</ele>
        <time>2013-07-07T07:06:25Z</time>
      </trkpt>
      <trkpt lat="43.70248" lon="3.11723">
        <ele>553</ele>
        <time>2013-07-07T07:06:26Z</time>
      </trkpt>
      <trkpt lat="43.70251" lon="3.11723">
        <ele>553.5999756</ele>
        <time>2013-07-07T07:06:27Z</time>
      </trkpt>
      <trkpt lat="43.70256" lon="3.11721">
        <ele>553.5999756</ele>
        <time>2013-07-07T07:06:29Z</time>
      </trkpt>
      <trkpt lat="43.70268" lon="3.11727">
        <ele>554</ele>
        <time>2013-07-07T07:06:35Z</time>
      </trkpt>
      <trkpt lat="43.7027" lon="3.1173">
        <ele>554.4000244</ele>
        <time>2013-07-07T07:06:36Z</time>
      </trkpt>
      <trkpt lat="43.70272" lon="3.11732">
        <ele>554.7999878</ele>
        <time>2013-07-07T07:06:37Z</time>
      </trkpt>
      <trkpt lat="43.70273" lon="3.11734">
        <ele>555.2000122</ele>
        <time>2013-07-07T07:06:38Z</time>
      </trkpt>
      <trkpt lat="43.70274" lon="3.11736">
        <ele>555.5999756</ele>
        <time>2013-07-07T07:06:39Z</time>
      </trkpt>
      <trkpt lat="43.70274" lon="3.11738">
        <ele>555.5999756</ele>
        <time>2013-07-07T07:06:40Z</time>
      </trkpt>
      <trkpt lat="43.70268" lon="3.11746">
        <ele>555.5999756</ele>
        <time>2013-07-07T07:06:44Z</time>
      </trkpt>
      <trkpt lat="43.70266" lon="3.11749">
        <ele>556</ele>
        <time>2013-07-07T07:06:46Z</time>
      </trkpt>
      <trkpt lat="43.70265" lon="3.11751">
        <ele>556.4000244</ele>
        <time>2013-07-07T07:06:47Z</time>
      </trkpt>
      <trkpt lat="43.70265" lon="3.11752">
        <ele>557</ele>
        <time>2013-07-07T07:06:48Z</time>
      </trkpt>
      <trkpt lat="43.70264" lon="3.11754">
        <ele>557.4000244</ele>
        <time>2013-07-07T07:06:49Z</time>
      </trkpt>
      <trkpt lat="43.70263" lon="3.11755">
        <ele>557.7999878</ele>
        <time>2013-07-07T07:06:50Z</time>
      </trkpt>
      <trkpt lat="43.70261" lon="3.11758">
        <ele>557.7999878</ele>
        <time>2013-07-07T07:06:52Z</time>
      </trkpt>
      <trkpt lat="43.7026" lon="3.11759">
        <ele>557.7999878</ele>
        <time>2013-07-07T07:06:53Z</time>
      </trkpt>
      <trkpt lat="43.70247" lon="3.11772">
        <ele>557.7999878</ele>
        <time>2013-07-07T07:07:00Z</time>
      </trkpt>
      <trkpt lat="43.70237" lon="3.11781">
        <ele>558.2000122</ele>
        <time>2013-07-07T07:07:04Z</time>
      </trkpt>
      <trkpt lat="43.70235" lon="3.11784">
        <ele>558.5999756</ele>
        <time>2013-07-07T07:07:05Z</time>
      </trkpt>
      <trkpt lat="43.70233" lon="3.11787">
        <ele>559</ele>
        <time>2013-07-07T07:07:06Z</time>
      </trkpt>
      <trkpt lat="43.70231" lon="3.1179">
        <ele>559.4000244</ele>
        <time>2013-07-07T07:07:07Z</time>
      </trkpt>
      <trkpt lat="43.7023" lon="3.11793">
        <ele>559.7999878</ele>
        <time>2013-07-07T07:07:08Z</time>
      </trkpt>
      <trkpt lat="43.70221" lon="3.11807">
        <ele>559.7999878</ele>
        <time>2013-07-07T07:07:13Z</time>
      </trkpt>
      <trkpt lat="43.7021" lon="3.11829">
        <ele>560.2000122</ele>
        <time>2013-07-07T07:07:20Z</time>
      </trkpt>
      <trkpt lat="43.70209" lon="3.11832">
        <ele>560.5999756</ele>
        <time>2013-07-07T07:07:21Z</time>
      </trkpt>
      <trkpt lat="43.70208" lon="3.11835">
        <ele>561</ele>
        <time>2013-07-07T07:07:22Z</time>
      </trkpt>
      <trkpt lat="43.70207" lon="3.11839">
        <ele>561.4000244</ele>
        <time>2013-07-07T07:07:23Z</time>
      </trkpt>
      <trkpt lat="43.70206" lon="3.11841">
        <ele>562</ele>
        <time>2013-07-07T07:07:24Z</time>
      </trkpt>
      <trkpt lat="43.70204" lon="3.11849">
        <ele>562</ele>
        <time>2013-07-07T07:07:26Z</time>
      </trkpt>
      <trkpt lat="43.70206" lon="3.1187">
        <ele>562</ele>
        <time>2013-07-07T07:07:31Z</time>
      </trkpt>
      <trkpt lat="43.7021" lon="3.11885">
        <ele>562.7999878</ele>
        <time>2013-07-07T07:07:35Z</time>
      </trkpt>
      <trkpt lat="43.70212" lon="3.11888">
        <ele>563.2000122</ele>
        <time>2013-07-07T07:07:36Z</time>
      </trkpt>
      <trkpt lat="43.70213" lon="3.11892">
        <ele>563.5999756</ele>
        <time>2013-07-07T07:07:37Z</time>
      </trkpt>
      <trkpt lat="43.70215" lon="3.11895">
        <ele>564</ele>
        <time>2013-07-07T07:07:38Z</time>
      </trkpt>
      <trkpt lat="43.70224" lon="3.11912">
        <ele>564.4000244</ele>
        <time>2013-07-07T07:07:44Z</time>
      </trkpt>
      <trkpt lat="43.70225" lon="3.11915">
        <ele>564.7999878</ele>
        <time>2013-07-07T07:07:45Z</time>
      </trkpt>
      <trkpt lat="43.70226" lon="3.11918">
        <ele>565.2000122</ele>
        <time>2013-07-07T07:07:46Z</time>
      </trkpt>
      <trkpt lat="43.70225" lon="3.11923">
        <ele>565.5999756</ele>
        <time>2013-07-07T07:07:47Z</time>
      </trkpt>
      <trkpt lat="43.70223" lon="3.11927">
        <ele>566</ele>
        <time>2013-07-07T07:07:48Z</time>
      </trkpt>
      <trkpt lat="43.70216" lon="3.11937">
        <ele>566</ele>
        <time>2013-07-07T07:07:51Z</time>
      </trkpt>
      <trkpt lat="43.70213" lon="3.11939">
        <ele>566</ele>
        <time>2013-07-07T07:07:52Z</time>
      </trkpt>
      <trkpt lat="43.70199" lon="3.11951">
        <ele>566</ele>
        <time>2013-07-07T07:07:57Z</time>
      </trkpt>
      <trkpt lat="43.70179" lon="3.1196">
        <ele>566</ele>
        <time>2013-07-07T07:08:03Z</time>
      </trkpt>
      <trkpt lat="43.70157" lon="3.11969">
        <ele>566.4000244</ele>
        <time>2013-07-07T07:08:09Z</time>
      </trkpt>
      <trkpt lat="43.70154" lon="3.1197">
        <ele>566.7999878</ele>
        <time>2013-07-07T07:08:10Z</time>
      </trkpt>
      <trkpt lat="43.70151" lon="3.11971">
        <ele>567.2000122</ele>
        <time>2013-07-07T07:08:11Z</time>
      </trkpt>
      <trkpt lat="43.70148" lon="3.11973">
        <ele>567.5999756</ele>
        <time>2013-07-07T07:08:12Z</time>
      </trkpt>
      <trkpt lat="43.70145" lon="3.11975">
        <ele>568</ele>
        <time>2013-07-07T07:08:13Z</time>
      </trkpt>
      <trkpt lat="43.70136" lon="3.11978">
        <ele>568</ele>
        <time>2013-07-07T07:08:15Z</time>
      </trkpt>
      <trkpt lat="43.70118" lon="3.11983">
        <ele>568</ele>
        <time>2013-07-07T07:08:20Z</time>
      </trkpt>
      <trkpt lat="43.701" lon="3.11985">
        <ele>568.5999756</ele>
        <time>2013-07-07T07:08:25Z</time>
      </trkpt>
      <trkpt lat="43.70097" lon="3.11986">
        <ele>569</ele>
        <time>2013-07-07T07:08:26Z</time>
      </trkpt>
      <trkpt lat="43.70093" lon="3.11986">
        <ele>569.4000244</ele>
        <time>2013-07-07T07:08:27Z</time>
      </trkpt>
      <trkpt lat="43.7009" lon="3.11985">
        <ele>570</ele>
        <time>2013-07-07T07:08:28Z</time>
      </trkpt>
      <trkpt lat="43.70086" lon="3.11987">
        <ele>570.4000244</ele>
        <time>2013-07-07T07:08:29Z</time>
      </trkpt>
      <trkpt lat="43.70071" lon="3.1199">
        <ele>570.4000244</ele>
        <time>2013-07-07T07:08:33Z</time>
      </trkpt>
      <trkpt lat="43.70045" lon="3.11998">
        <ele>570.4000244</ele>
        <time>2013-07-07T07:08:40Z</time>
      </trkpt>
      <trkpt lat="43.70038" lon="3.12001">
        <ele>570.7999878</ele>
        <time>2013-07-07T07:08:42Z</time>
      </trkpt>
      <trkpt lat="43.70033" lon="3.12003">
        <ele>571.2000122</ele>
        <time>2013-07-07T07:08:43Z</time>
      </trkpt>
      <trkpt lat="43.7003" lon="3.12005">
        <ele>571.5999756</ele>
        <time>2013-07-07T07:08:44Z</time>
      </trkpt>
      <trkpt lat="43.70026" lon="3.12006">
        <ele>572.2000122</ele>
        <time>2013-07-07T07:08:45Z</time>
      </trkpt>
      <trkpt lat="43.70023" lon="3.12008">
        <ele>572.5999756</ele>
        <time>2013-07-07T07:08:46Z</time>
      </trkpt>
      <trkpt lat="43.70004" lon="3.12017">
        <ele>572.5999756</ele>
        <time>2013-07-07T07:08:52Z</time>
      </trkpt>
      <trkpt lat="43.69995" lon="3.12023">
        <ele>573</ele>
        <time>2013-07-07T07:08:55Z</time>
      </trkpt>
      <trkpt lat="43.69993" lon="3.12025">
        <ele>573.4000244</ele>
        <time>2013-07-07T07:08:56Z</time>
      </trkpt>
      <trkpt lat="43.6999" lon="3.12027">
        <ele>573.7999878</ele>
        <time>2013-07-07T07:08:57Z</time>
      </trkpt>
      <trkpt lat="43.69987" lon="3.12028">
        <ele>574.2000122</ele>
        <time>2013-07-07T07:08:58Z</time>
      </trkpt>
      <trkpt lat="43.69984" lon="3.1203">
        <ele>574.5999756</ele>
        <time>2013-07-07T07:08:59Z</time>
      </trkpt>
      <trkpt lat="43.6997" lon="3.12047">
        <ele>574.5999756</ele>
        <time>2013-07-07T07:09:05Z</time>
      </trkpt>
      <trkpt lat="43.69962" lon="3.12063">
        <ele>575</ele>
        <time>2013-07-07T07:09:09Z</time>
      </trkpt>
      <trkpt lat="43.69961" lon="3.12068">
        <ele>575.5999756</ele>
        <time>2013-07-07T07:09:10Z</time>
      </trkpt>
      <trkpt lat="43.69961" lon="3.12073">
        <ele>576</ele>
        <time>2013-07-07T07:09:11Z</time>
      </trkpt>
      <trkpt lat="43.6996" lon="3.12077">
        <ele>576.4000244</ele>
        <time>2013-07-07T07:09:12Z</time>
      </trkpt>
      <trkpt lat="43.6996" lon="3.12081">
        <ele>576.7999878</ele>
        <time>2013-07-07T07:09:13Z</time>
      </trkpt>
      <trkpt lat="43.69968" lon="3.12101">
        <ele>576.7999878</ele>
        <time>2013-07-07T07:09:17Z</time>
      </trkpt>
      <trkpt lat="43.69982" lon="3.12123">
        <ele>576.7999878</ele>
        <time>2013-07-07T07:09:22Z</time>
      </trkpt>
      <trkpt lat="43.69987" lon="3.12124">
        <ele>576.7999878</ele>
        <time>2013-07-07T07:09:23Z</time>
      </trkpt>
      <trkpt lat="43.69995" lon="3.12127">
        <ele>577.2000122</ele>
        <time>2013-07-07T07:09:25Z</time>
      </trkpt>
      <trkpt lat="43.69998" lon="3.12128">
        <ele>577.5999756</ele>
        <time>2013-07-07T07:09:26Z</time>
      </trkpt>
      <trkpt lat="43.70002" lon="3.12129">
        <ele>578</ele>
        <time>2013-07-07T07:09:27Z</time>
      </trkpt>
      <trkpt lat="43.70005" lon="3.12131">
        <ele>578.5999756</ele>
        <time>2013-07-07T07:09:28Z</time>
      </trkpt>
      <trkpt lat="43.70007" lon="3.12132">
        <ele>579</ele>
        <time>2013-07-07T07:09:29Z</time>
      </trkpt>
      <trkpt lat="43.70016" lon="3.12137">
        <ele>579</ele>
        <time>2013-07-07T07:09:32Z</time>
      </trkpt>
      <trkpt lat="43.70022" lon="3.12141">
        <ele>579.4000244</ele>
        <time>2013-07-07T07:09:34Z</time>
      </trkpt>
      <trkpt lat="43.70025" lon="3.12143">
        <ele>579.7999878</ele>
        <time>2013-07-07T07:09:35Z</time>
      </trkpt>
      <trkpt lat="43.70029" lon="3.12144">
        <ele>580.2000122</ele>
        <time>2013-07-07T07:09:36Z</time>
      </trkpt>
      <trkpt lat="43.70032" lon="3.12145">
        <ele>580.7999878</ele>
        <time>2013-07-07T07:09:37Z</time>
      </trkpt>
      <trkpt lat="43.70036" lon="3.12146">
        <ele>581.2000122</ele>
        <time>2013-07-07T07:09:38Z</time>
      </trkpt>
      <trkpt lat="43.70052" lon="3.12149">
        <ele>581.2000122</ele>
        <time>2013-07-07T07:09:43Z</time>
      </trkpt>
      <trkpt lat="43.70072" lon="3.12148">
        <ele>581.2000122</ele>
        <time>2013-07-07T07:09:49Z</time>
      </trkpt>
      <trkpt lat="43.70075" lon="3.12147">
        <ele>581.5999756</ele>
        <time>2013-07-07T07:09:50Z</time>
      </trkpt>
      <trkpt lat="43.7008" lon="3.12148">
        <ele>582</ele>
        <time>2013-07-07T07:09:51Z</time>
      </trkpt>
      <trkpt lat="43.70084" lon="3.1215">
        <ele>582.4000244</ele>
        <time>2013-07-07T07:09:52Z</time>
      </trkpt>
      <trkpt lat="43.70088" lon="3.12152">
        <ele>582.7999878</ele>
        <time>2013-07-07T07:09:53Z</time>
      </trkpt>
      <trkpt lat="43.70091" lon="3.12155">
        <ele>583.2000122</ele>
        <time>2013-07-07T07:09:54Z</time>
      </trkpt>
      <trkpt lat="43.70101" lon="3.12161">
        <ele>583.2000122</ele>
        <time>2013-07-07T07:09:57Z</time>
      </trkpt>
      <trkpt lat="43.70104" lon="3.12163">
        <ele>583.2000122</ele>
        <time>2013-07-07T07:09:58Z</time>
      </trkpt>
      <trkpt lat="43.7012" lon="3.12171">
        <ele>583.5999756</ele>
        <time>2013-07-07T07:10:04Z</time>
      </trkpt>
      <trkpt lat="43.70123" lon="3.12173">
        <ele>584</ele>
        <time>2013-07-07T07:10:05Z</time>
      </trkpt>
      <trkpt lat="43.70126" lon="3.12173">
        <ele>584.4000244</ele>
        <time>2013-07-07T07:10:06Z</time>
      </trkpt>
      <trkpt lat="43.70129" lon="3.12173">
        <ele>585</ele>
        <time>2013-07-07T07:10:07Z</time>
      </trkpt>
      <trkpt lat="43.70132" lon="3.12173">
        <ele>585.4000244</ele>
        <time>2013-07-07T07:10:08Z</time>
      </trkpt>
      <trkpt lat="43.70138" lon="3.12174">
        <ele>585.4000244</ele>
        <time>2013-07-07T07:10:10Z</time>
      </trkpt>
      <trkpt lat="43.70157" lon="3.12183">
        <ele>585.4000244</ele>
        <time>2013-07-07T07:10:17Z</time>
      </trkpt>
      <trkpt lat="43.70166" lon="3.12191">
        <ele>585.7999878</ele>
        <time>2013-07-07T07:10:20Z</time>
      </trkpt>
      <trkpt lat="43.70168" lon="3.12193">
        <ele>586.2000122</ele>
        <time>2013-07-07T07:10:21Z</time>
      </trkpt>
      <trkpt lat="43.70171" lon="3.12195">
        <ele>586.5999756</ele>
        <time>2013-07-07T07:10:22Z</time>
      </trkpt>
      <trkpt lat="43.70173" lon="3.12197">
        <ele>587</ele>
        <time>2013-07-07T07:10:23Z</time>
      </trkpt>
      <trkpt lat="43.70175" lon="3.122">
        <ele>587.4000244</ele>
        <time>2013-07-07T07:10:24Z</time>
      </trkpt>
      <trkpt lat="43.70186" lon="3.12218">
        <ele>587.4000244</ele>
        <time>2013-07-07T07:10:29Z</time>
      </trkpt>
      <trkpt lat="43.70199" lon="3.1224">
        <ele>587.4000244</ele>
        <time>2013-07-07T07:10:35Z</time>
      </trkpt>
      <trkpt lat="43.70209" lon="3.12257">
        <ele>587.4000244</ele>
        <time>2013-07-07T07:10:41Z</time>
      </trkpt>
      <trkpt lat="43.70213" lon="3.12263">
        <ele>587.4000244</ele>
        <time>2013-07-07T07:10:44Z</time>
      </trkpt>
      <trkpt lat="43.70216" lon="3.12266">
        <ele>587.4000244</ele>
        <time>2013-07-07T07:10:46Z</time>
      </trkpt>
      <trkpt lat="43.70224" lon="3.12277">
        <ele>587.4000244</ele>
        <time>2013-07-07T07:10:50Z</time>
      </trkpt>
      <trkpt lat="43.70225" lon="3.1228">
        <ele>587.4000244</ele>
        <time>2013-07-07T07:10:51Z</time>
      </trkpt>
      <trkpt lat="43.70236" lon="3.12298">
        <ele>587.4000244</ele>
        <time>2013-07-07T07:10:58Z</time>
      </trkpt>
      <trkpt lat="43.7024" lon="3.12299">
        <ele>587.4000244</ele>
        <time>2013-07-07T07:11:00Z</time>
      </trkpt>
      <trkpt lat="43.70247" lon="3.12296">
        <ele>587.7999878</ele>
        <time>2013-07-07T07:11:04Z</time>
      </trkpt>
      <trkpt lat="43.70248" lon="3.12295">
        <ele>588.2000122</ele>
        <time>2013-07-07T07:11:05Z</time>
      </trkpt>
      <trkpt lat="43.70248" lon="3.12296">
        <ele>588.5999756</ele>
        <time>2013-07-07T07:11:06Z</time>
      </trkpt>
      <trkpt lat="43.70248" lon="3.12295">
        <ele>589</ele>
        <time>2013-07-07T07:11:07Z</time>
      </trkpt>
      <trkpt lat="43.70247" lon="3.12296">
        <ele>589.4000244</ele>
        <time>2013-07-07T07:21:26Z</time>
      </trkpt>
      <trkpt lat="43.70246" lon="3.12297">
        <ele>589.4000244</ele>
        <time>2013-07-07T07:21:27Z</time>
      </trkpt>
      <trkpt lat="43.70242" lon="3.12311">
        <ele>589.4000244</ele>
        <time>2013-07-07T07:21:32Z</time>
      </trkpt>
      <trkpt lat="43.70239" lon="3.12316">
        <ele>589.4000244</ele>
        <time>2013-07-07T07:21:34Z</time>
      </trkpt>
      <trkpt lat="43.70236" lon="3.12326">
        <ele>589.4000244</ele>
        <time>2013-07-07T07:21:38Z</time>
      </trkpt>
      <trkpt lat="43.7023" lon="3.12335">
        <ele>589.4000244</ele>
        <time>2013-07-07T07:21:42Z</time>
      </trkpt>
      <trkpt lat="43.70224" lon="3.12345">
        <ele>589.4000244</ele>
        <time>2013-07-07T07:21:46Z</time>
      </trkpt>
      <trkpt lat="43.70222" lon="3.1235">
        <ele>589.4000244</ele>
        <time>2013-07-07T07:21:47Z</time>
      </trkpt>
      <trkpt lat="43.70217" lon="3.12362">
        <ele>589.7999878</ele>
        <time>2013-07-07T07:21:50Z</time>
      </trkpt>
      <trkpt lat="43.70216" lon="3.12364">
        <ele>590.2000122</ele>
        <time>2013-07-07T07:21:51Z</time>
      </trkpt>
      <trkpt lat="43.70214" lon="3.12367">
        <ele>590.5999756</ele>
        <time>2013-07-07T07:21:52Z</time>
      </trkpt>
      <trkpt lat="43.70212" lon="3.12371">
        <ele>591.2000122</ele>
        <time>2013-07-07T07:21:53Z</time>
      </trkpt>
      <trkpt lat="43.70211" lon="3.12375">
        <ele>591.5999756</ele>
        <time>2013-07-07T07:21:54Z</time>
      </trkpt>
      <trkpt lat="43.70207" lon="3.12383">
        <ele>591.5999756</ele>
        <time>2013-07-07T07:21:57Z</time>
      </trkpt>
      <trkpt lat="43.70205" lon="3.12386">
        <ele>591.5999756</ele>
        <time>2013-07-07T07:21:58Z</time>
      </trkpt>
      <trkpt lat="43.70197" lon="3.12405">
        <ele>591.5999756</ele>
        <time>2013-07-07T07:22:04Z</time>
      </trkpt>
      <trkpt lat="43.70196" lon="3.12408">
        <ele>592</ele>
        <time>2013-07-07T07:22:05Z</time>
      </trkpt>
      <trkpt lat="43.70195" lon="3.12411">
        <ele>592.4000244</ele>
        <time>2013-07-07T07:22:06Z</time>
      </trkpt>
      <trkpt lat="43.70194" lon="3.12415">
        <ele>592.7999878</ele>
        <time>2013-07-07T07:22:07Z</time>
      </trkpt>
      <trkpt lat="43.70193" lon="3.12417">
        <ele>593.2000122</ele>
        <time>2013-07-07T07:22:08Z</time>
      </trkpt>
      <trkpt lat="43.70192" lon="3.1242">
        <ele>593.5999756</ele>
        <time>2013-07-07T07:22:09Z</time>
      </trkpt>
      <trkpt lat="43.70191" lon="3.12422">
        <ele>593.5999756</ele>
        <time>2013-07-07T07:22:10Z</time>
      </trkpt>
      <trkpt lat="43.70182" lon="3.12444">
        <ele>593.5999756</ele>
        <time>2013-07-07T07:22:16Z</time>
      </trkpt>
      <trkpt lat="43.70176" lon="3.12463">
        <ele>594</ele>
        <time>2013-07-07T07:22:21Z</time>
      </trkpt>
      <trkpt lat="43.70175" lon="3.12467">
        <ele>594.4000244</ele>
        <time>2013-07-07T07:22:22Z</time>
      </trkpt>
      <trkpt lat="43.70173" lon="3.12471">
        <ele>594.7999878</ele>
        <time>2013-07-07T07:22:23Z</time>
      </trkpt>
      <trkpt lat="43.70172" lon="3.12475">
        <ele>595.5999756</ele>
        <time>2013-07-07T07:22:24Z</time>
      </trkpt>
      <trkpt lat="43.70169" lon="3.12485">
        <ele>595.5999756</ele>
        <time>2013-07-07T07:22:27Z</time>
      </trkpt>
      <trkpt lat="43.70159" lon="3.12498">
        <ele>595.5999756</ele>
        <time>2013-07-07T07:22:31Z</time>
      </trkpt>
      <trkpt lat="43.70146" lon="3.12499">
        <ele>595.5999756</ele>
        <time>2013-07-07T07:22:35Z</time>
      </trkpt>
      <trkpt lat="43.70143" lon="3.12498">
        <ele>595.5999756</ele>
        <time>2013-07-07T07:22:36Z</time>
      </trkpt>
      <trkpt lat="43.70124" lon="3.12489">
        <ele>596</ele>
        <time>2013-07-07T07:22:42Z</time>
      </trkpt>
      <trkpt lat="43.70121" lon="3.12488">
        <ele>596.4000244</ele>
        <time>2013-07-07T07:22:43Z</time>
      </trkpt>
      <trkpt lat="43.70118" lon="3.12487">
        <ele>596.7999878</ele>
        <time>2013-07-07T07:22:44Z</time>
      </trkpt>
      <trkpt lat="43.70115" lon="3.12487">
        <ele>597.4000244</ele>
        <time>2013-07-07T07:22:45Z</time>
      </trkpt>
      <trkpt lat="43.70112" lon="3.12487">
        <ele>597.7999878</ele>
        <time>2013-07-07T07:22:46Z</time>
      </trkpt>
      <trkpt lat="43.70096" lon="3.1249">
        <ele>597.7999878</ele>
        <time>2013-07-07T07:22:51Z</time>
      </trkpt>
      <trkpt lat="43.7008" lon="3.12498">
        <ele>597.7999878</ele>
        <time>2013-07-07T07:22:57Z</time>
      </trkpt>
      <trkpt lat="43.70075" lon="3.125">
        <ele>598.2000122</ele>
        <time>2013-07-07T07:22:59Z</time>
      </trkpt>
      <trkpt lat="43.70072" lon="3.12502">
        <ele>598.5999756</ele>
        <time>2013-07-07T07:23:00Z</time>
      </trkpt>
      <trkpt lat="43.70069" lon="3.12504">
        <ele>599</ele>
        <time>2013-07-07T07:23:01Z</time>
      </trkpt>
      <trkpt lat="43.70066" lon="3.12506">
        <ele>599.4000244</ele>
        <time>2013-07-07T07:23:02Z</time>
      </trkpt>
      <trkpt lat="43.70063" lon="3.12508">
        <ele>599.7999878</ele>
        <time>2013-07-07T07:23:03Z</time>
      </trkpt>
      <trkpt lat="43.70051" lon="3.12516">
        <ele>599.7999878</ele>
        <time>2013-07-07T07:23:07Z</time>
      </trkpt>
      <trkpt lat="43.70033" lon="3.12526">
        <ele>600.2000122</ele>
        <time>2013-07-07T07:23:13Z</time>
      </trkpt>
      <trkpt lat="43.7003" lon="3.12527">
        <ele>600.5999756</ele>
        <time>2013-07-07T07:23:14Z</time>
      </trkpt>
      <trkpt lat="43.70027" lon="3.1253">
        <ele>601</ele>
        <time>2013-07-07T07:23:15Z</time>
      </trkpt>
      <trkpt lat="43.70024" lon="3.12532">
        <ele>601.4000244</ele>
        <time>2013-07-07T07:23:16Z</time>
      </trkpt>
      <trkpt lat="43.70022" lon="3.12535">
        <ele>601.7999878</ele>
        <time>2013-07-07T07:23:17Z</time>
      </trkpt>
      <trkpt lat="43.70014" lon="3.12542">
        <ele>601.7999878</ele>
        <time>2013-07-07T07:23:20Z</time>
      </trkpt>
      <trkpt lat="43.69996" lon="3.1256">
        <ele>601.7999878</ele>
        <time>2013-07-07T07:23:27Z</time>
      </trkpt>
      <trkpt lat="43.69988" lon="3.12568">
        <ele>602.2000122</ele>
        <time>2013-07-07T07:23:30Z</time>
      </trkpt>
      <trkpt lat="43.69986" lon="3.12571">
        <ele>602.5999756</ele>
        <time>2013-07-07T07:23:31Z</time>
      </trkpt>
      <trkpt lat="43.69983" lon="3.12574">
        <ele>603</ele>
        <time>2013-07-07T07:23:32Z</time>
      </trkpt>
      <trkpt lat="43.69981" lon="3.12578">
        <ele>603.4000244</ele>
        <time>2013-07-07T07:23:33Z</time>
      </trkpt>
      <trkpt lat="43.69979" lon="3.12582">
        <ele>603.7999878</ele>
        <time>2013-07-07T07:23:34Z</time>
      </trkpt>
      <trkpt lat="43.69974" lon="3.12592">
        <ele>603.7999878</ele>
        <time>2013-07-07T07:23:37Z</time>
      </trkpt>
      <trkpt lat="43.69967" lon="3.12619">
        <ele>603.7999878</ele>
        <time>2013-07-07T07:23:43Z</time>
      </trkpt>
      <trkpt lat="43.69969" lon="3.12631">
        <ele>604.4000244</ele>
        <time>2013-07-07T07:23:46Z</time>
      </trkpt>
      <trkpt lat="43.6997" lon="3.12636">
        <ele>604.7999878</ele>
        <time>2013-07-07T07:23:47Z</time>
      </trkpt>
      <trkpt lat="43.69971" lon="3.12641">
        <ele>605.2000122</ele>
        <time>2013-07-07T07:23:48Z</time>
      </trkpt>
      <trkpt lat="43.69974" lon="3.12644">
        <ele>605.5999756</ele>
        <time>2013-07-07T07:23:49Z</time>
      </trkpt>
      <trkpt lat="43.69976" lon="3.12647">
        <ele>606</ele>
        <time>2013-07-07T07:23:50Z</time>
      </trkpt>
      <trkpt lat="43.6999" lon="3.12665">
        <ele>606</ele>
        <time>2013-07-07T07:23:56Z</time>
      </trkpt>
      <trkpt lat="43.69997" lon="3.12675">
        <ele>606.5999756</ele>
        <time>2013-07-07T07:23:59Z</time>
      </trkpt>
      <trkpt lat="43.69999" lon="3.12678">
        <ele>607</ele>
        <time>2013-07-07T07:24:00Z</time>
      </trkpt>
      <trkpt lat="43.70002" lon="3.12681">
        <ele>607.4000244</ele>
        <time>2013-07-07T07:24:01Z</time>
      </trkpt>
      <trkpt lat="43.70004" lon="3.12684">
        <ele>607.7999878</ele>
        <time>2013-07-07T07:24:02Z</time>
      </trkpt>
      <trkpt lat="43.70007" lon="3.12686">
        <ele>608.4000244</ele>
        <time>2013-07-07T07:24:03Z</time>
      </trkpt>
      <trkpt lat="43.70018" lon="3.12696">
        <ele>608.4000244</ele>
        <time>2013-07-07T07:24:07Z</time>
      </trkpt>
      <trkpt lat="43.70024" lon="3.12709">
        <ele>608.7999878</ele>
        <time>2013-07-07T07:24:10Z</time>
      </trkpt>
      <trkpt lat="43.70025" lon="3.12713">
        <ele>609.2000122</ele>
        <time>2013-07-07T07:24:11Z</time>
      </trkpt>
      <trkpt lat="43.70026" lon="3.12718">
        <ele>609.5999756</ele>
        <time>2013-07-07T07:24:12Z</time>
      </trkpt>
      <trkpt lat="43.70027" lon="3.12722">
        <ele>610</ele>
        <time>2013-07-07T07:24:13Z</time>
      </trkpt>
      <trkpt lat="43.70027" lon="3.12726">
        <ele>610.4000244</ele>
        <time>2013-07-07T07:24:14Z</time>
      </trkpt>
      <trkpt lat="43.70027" lon="3.1274">
        <ele>610.4000244</ele>
        <time>2013-07-07T07:24:17Z</time>
      </trkpt>
      <trkpt lat="43.70021" lon="3.12768">
        <ele>610.4000244</ele>
        <time>2013-07-07T07:24:24Z</time>
      </trkpt>
      <trkpt lat="43.70018" lon="3.12782">
        <ele>610.7999878</ele>
        <time>2013-07-07T07:24:27Z</time>
      </trkpt>
      <trkpt lat="43.70017" lon="3.12786">
        <ele>611.2000122</ele>
        <time>2013-07-07T07:24:28Z</time>
      </trkpt>
      <trkpt lat="43.70016" lon="3.12791">
        <ele>611.5999756</ele>
        <time>2013-07-07T07:24:29Z</time>
      </trkpt>
      <trkpt lat="43.70015" lon="3.12796">
        <ele>612</ele>
        <time>2013-07-07T07:24:30Z</time>
      </trkpt>
      <trkpt lat="43.70015" lon="3.128">
        <ele>612.4000244</ele>
        <time>2013-07-07T07:24:31Z</time>
      </trkpt>
      <trkpt lat="43.70013" lon="3.12814">
        <ele>612.4000244</ele>
        <time>2013-07-07T07:24:34Z</time>
      </trkpt>
      <trkpt lat="43.70013" lon="3.12852">
        <ele>612.4000244</ele>
        <time>2013-07-07T07:24:42Z</time>
      </trkpt>
      <trkpt lat="43.70012" lon="3.12872">
        <ele>612.7999878</ele>
        <time>2013-07-07T07:24:46Z</time>
      </trkpt>
      <trkpt lat="43.70012" lon="3.12877">
        <ele>613.2000122</ele>
        <time>2013-07-07T07:24:47Z</time>
      </trkpt>
      <trkpt lat="43.70011" lon="3.12881">
        <ele>613.5999756</ele>
        <time>2013-07-07T07:24:48Z</time>
      </trkpt>
      <trkpt lat="43.7001" lon="3.12886">
        <ele>614</ele>
        <time>2013-07-07T07:24:49Z</time>
      </trkpt>
      <trkpt lat="43.7001" lon="3.12891">
        <ele>614.4000244</ele>
        <time>2013-07-07T07:24:50Z</time>
      </trkpt>
      <trkpt lat="43.7001" lon="3.12911">
        <ele>614.4000244</ele>
        <time>2013-07-07T07:24:54Z</time>
      </trkpt>
      <trkpt lat="43.70019" lon="3.12935">
        <ele>614.4000244</ele>
        <time>2013-07-07T07:25:00Z</time>
      </trkpt>
      <trkpt lat="43.70027" lon="3.12943">
        <ele>614.7999878</ele>
        <time>2013-07-07T07:25:03Z</time>
      </trkpt>
      <trkpt lat="43.70029" lon="3.12944">
        <ele>615.2000122</ele>
        <time>2013-07-07T07:25:04Z</time>
      </trkpt>
      <trkpt lat="43.70032" lon="3.12945">
        <ele>615.5999756</ele>
        <time>2013-07-07T07:25:05Z</time>
      </trkpt>
      <trkpt lat="43.70035" lon="3.12946">
        <ele>616.2000122</ele>
        <time>2013-07-07T07:25:06Z</time>
      </trkpt>
      <trkpt lat="43.70038" lon="3.12948">
        <ele>616.5999756</ele>
        <time>2013-07-07T07:25:07Z</time>
      </trkpt>
      <trkpt lat="43.7005" lon="3.12955">
        <ele>616.5999756</ele>
        <time>2013-07-07T07:25:11Z</time>
      </trkpt>
      <trkpt lat="43.70061" lon="3.12962">
        <ele>617</ele>
        <time>2013-07-07T07:25:15Z</time>
      </trkpt>
      <trkpt lat="43.70064" lon="3.12965">
        <ele>617.4000244</ele>
        <time>2013-07-07T07:25:16Z</time>
      </trkpt>
      <trkpt lat="43.70067" lon="3.12968">
        <ele>618.2000122</ele>
        <time>2013-07-07T07:25:17Z</time>
      </trkpt>
      <trkpt lat="43.7007" lon="3.1297">
        <ele>618.5999756</ele>
        <time>2013-07-07T07:25:18Z</time>
      </trkpt>
      <trkpt lat="43.70089" lon="3.12986">
        <ele>618.5999756</ele>
        <time>2013-07-07T07:25:24Z</time>
      </trkpt>
      <trkpt lat="43.70101" lon="3.12993">
        <ele>619</ele>
        <time>2013-07-07T07:25:28Z</time>
      </trkpt>
      <trkpt lat="43.70105" lon="3.12995">
        <ele>619.4000244</ele>
        <time>2013-07-07T07:25:29Z</time>
      </trkpt>
      <trkpt lat="43.70109" lon="3.12997">
        <ele>619.7999878</ele>
        <time>2013-07-07T07:25:30Z</time>
      </trkpt>
      <trkpt lat="43.70112" lon="3.12999">
        <ele>620.2000122</ele>
        <time>2013-07-07T07:25:31Z</time>
      </trkpt>
      <trkpt lat="43.70115" lon="3.13002">
        <ele>620.5999756</ele>
        <time>2013-07-07T07:25:32Z</time>
      </trkpt>
      <trkpt lat="43.70122" lon="3.13011">
        <ele>620.5999756</ele>
        <time>2013-07-07T07:25:35Z</time>
      </trkpt>
      <trkpt lat="43.70131" lon="3.13028">
        <ele>621.2000122</ele>
        <time>2013-07-07T07:25:40Z</time>
      </trkpt>
      <trkpt lat="43.70134" lon="3.13032">
        <ele>622</ele>
        <time>2013-07-07T07:25:41Z</time>
      </trkpt>
      <trkpt lat="43.70136" lon="3.13035">
        <ele>622.5999756</ele>
        <time>2013-07-07T07:25:42Z</time>
      </trkpt>
      <trkpt lat="43.70138" lon="3.13038">
        <ele>623</ele>
        <time>2013-07-07T07:25:43Z</time>
      </trkpt>
      <trkpt lat="43.70146" lon="3.13052">
        <ele>623</ele>
        <time>2013-07-07T07:25:47Z</time>
      </trkpt>
      <trkpt lat="43.70158" lon="3.13073">
        <ele>623.4000244</ele>
        <time>2013-07-07T07:25:53Z</time>
      </trkpt>
      <trkpt lat="43.70161" lon="3.13076">
        <ele>623.7999878</ele>
        <time>2013-07-07T07:25:54Z</time>
      </trkpt>
      <trkpt lat="43.70163" lon="3.13079">
        <ele>624.2000122</ele>
        <time>2013-07-07T07:25:55Z</time>
      </trkpt>
      <trkpt lat="43.70165" lon="3.13082">
        <ele>624.5999756</ele>
        <time>2013-07-07T07:25:56Z</time>
      </trkpt>
      <trkpt lat="43.70167" lon="3.13085">
        <ele>625.2000122</ele>
        <time>2013-07-07T07:25:57Z</time>
      </trkpt>
      <trkpt lat="43.70175" lon="3.13094">
        <ele>625.2000122</ele>
        <time>2013-07-07T07:26:00Z</time>
      </trkpt>
      <trkpt lat="43.70193" lon="3.13105">
        <ele>625.5999756</ele>
        <time>2013-07-07T07:26:06Z</time>
      </trkpt>
      <trkpt lat="43.70196" lon="3.13108">
        <ele>626.4000244</ele>
        <time>2013-07-07T07:26:07Z</time>
      </trkpt>
      <trkpt lat="43.70198" lon="3.13111">
        <ele>626.7999878</ele>
        <time>2013-07-07T07:26:08Z</time>
      </trkpt>
      <trkpt lat="43.702" lon="3.13116">
        <ele>627.2000122</ele>
        <time>2013-07-07T07:26:09Z</time>
      </trkpt>
      <trkpt lat="43.70201" lon="3.13121">
        <ele>627.2000122</ele>
        <time>2013-07-07T07:26:10Z</time>
      </trkpt>
      <trkpt lat="43.70202" lon="3.13148">
        <ele>627.2000122</ele>
        <time>2013-07-07T07:26:16Z</time>
      </trkpt>
      <trkpt lat="43.70199" lon="3.13166">
        <ele>627.5999756</ele>
        <time>2013-07-07T07:26:20Z</time>
      </trkpt>
      <trkpt lat="43.70199" lon="3.13171">
        <ele>628</ele>
        <time>2013-07-07T07:26:21Z</time>
      </trkpt>
      <trkpt lat="43.70199" lon="3.13177">
        <ele>628.4000244</ele>
        <time>2013-07-07T07:26:22Z</time>
      </trkpt>
      <trkpt lat="43.70199" lon="3.13181">
        <ele>628.7999878</ele>
        <time>2013-07-07T07:26:23Z</time>
      </trkpt>
      <trkpt lat="43.70199" lon="3.13186">
        <ele>629.4000244</ele>
        <time>2013-07-07T07:26:24Z</time>
      </trkpt>
      <trkpt lat="43.70193" lon="3.13201">
        <ele>629.4000244</ele>
        <time>2013-07-07T07:26:28Z</time>
      </trkpt>
      <trkpt lat="43.70191" lon="3.13204">
        <ele>629.7999878</ele>
        <time>2013-07-07T07:26:29Z</time>
      </trkpt>
      <trkpt lat="43.70189" lon="3.13207">
        <ele>630.2000122</ele>
        <time>2013-07-07T07:26:30Z</time>
      </trkpt>
      <trkpt lat="43.70186" lon="3.1321">
        <ele>631</ele>
        <time>2013-07-07T07:26:31Z</time>
      </trkpt>
      <trkpt lat="43.70183" lon="3.13213">
        <ele>631.4000244</ele>
        <time>2013-07-07T07:26:32Z</time>
      </trkpt>
      <trkpt lat="43.7018" lon="3.13215">
        <ele>631.4000244</ele>
        <time>2013-07-07T07:26:33Z</time>
      </trkpt>
      <trkpt lat="43.70159" lon="3.13225">
        <ele>631.4000244</ele>
        <time>2013-07-07T07:26:39Z</time>
      </trkpt>
      <trkpt lat="43.70143" lon="3.13236">
        <ele>631.4000244</ele>
        <time>2013-07-07T07:26:44Z</time>
      </trkpt>
      <trkpt lat="43.70133" lon="3.13239">
        <ele>631.7999878</ele>
        <time>2013-07-07T07:26:47Z</time>
      </trkpt>
      <trkpt lat="43.7013" lon="3.13239">
        <ele>632.4000244</ele>
        <time>2013-07-07T07:26:48Z</time>
      </trkpt>
      <trkpt lat="43.70126" lon="3.13239">
        <ele>632.7999878</ele>
        <time>2013-07-07T07:26:49Z</time>
      </trkpt>
      <trkpt lat="43.70123" lon="3.13239">
        <ele>633.2000122</ele>
        <time>2013-07-07T07:26:50Z</time>
      </trkpt>
      <trkpt lat="43.7012" lon="3.13238">
        <ele>633.5999756</ele>
        <time>2013-07-07T07:26:51Z</time>
      </trkpt>
      <trkpt lat="43.70113" lon="3.13233">
        <ele>633.5999756</ele>
        <time>2013-07-07T07:26:54Z</time>
      </trkpt>
      <trkpt lat="43.701" lon="3.13227">
        <ele>633.5999756</ele>
        <time>2013-07-07T07:26:59Z</time>
      </trkpt>
      <trkpt lat="43.70097" lon="3.13225">
        <ele>634</ele>
        <time>2013-07-07T07:27:00Z</time>
      </trkpt>
      <trkpt lat="43.70094" lon="3.13223">
        <ele>634.4000244</ele>
        <time>2013-07-07T07:27:01Z</time>
      </trkpt>
      <trkpt lat="43.70091" lon="3.13221">
        <ele>634.7999878</ele>
        <time>2013-07-07T07:27:02Z</time>
      </trkpt>
      <trkpt lat="43.70088" lon="3.1322">
        <ele>635.2000122</ele>
        <time>2013-07-07T07:27:03Z</time>
      </trkpt>
      <trkpt lat="43.70085" lon="3.13219">
        <ele>635.5999756</ele>
        <time>2013-07-07T07:27:04Z</time>
      </trkpt>
      <trkpt lat="43.7008" lon="3.13218">
        <ele>635.5999756</ele>
        <time>2013-07-07T07:27:06Z</time>
      </trkpt>
      <trkpt lat="43.7006" lon="3.13216">
        <ele>635.5999756</ele>
        <time>2013-07-07T07:27:13Z</time>
      </trkpt>
      <trkpt lat="43.70056" lon="3.13216">
        <ele>635.5999756</ele>
        <time>2013-07-07T07:27:15Z</time>
      </trkpt>
      <trkpt lat="43.70053" lon="3.13219">
        <ele>636</ele>
        <time>2013-07-07T07:27:17Z</time>
      </trkpt>
      <trkpt lat="43.70053" lon="3.1322">
        <ele>636.5999756</ele>
        <time>2013-07-07T07:27:18Z</time>
      </trkpt>
      <trkpt lat="43.70052" lon="3.13222">
        <ele>637</ele>
        <time>2013-07-07T07:27:19Z</time>
      </trkpt>
      <trkpt lat="43.70053" lon="3.13224">
        <ele>637.4000244</ele>
        <time>2013-07-07T07:27:20Z</time>
      </trkpt>
      <trkpt lat="43.70054" lon="3.13226">
        <ele>637.7999878</ele>
        <time>2013-07-07T07:27:21Z</time>
      </trkpt>
      <trkpt lat="43.70061" lon="3.13232">
        <ele>637.7999878</ele>
        <time>2013-07-07T07:27:25Z</time>
      </trkpt>
      <trkpt lat="43.70063" lon="3.13233">
        <ele>637.7999878</ele>
        <time>2013-07-07T07:27:26Z</time>
      </trkpt>
      <trkpt lat="43.70065" lon="3.13234">
        <ele>638.2000122</ele>
        <time>2013-07-07T07:27:27Z</time>
      </trkpt>
      <trkpt lat="43.70067" lon="3.13235">
        <ele>638.7999878</ele>
        <time>2013-07-07T07:27:28Z</time>
      </trkpt>
      <trkpt lat="43.70068" lon="3.13236">
        <ele>639.2000122</ele>
        <time>2013-07-07T07:27:29Z</time>
      </trkpt>
      <trkpt lat="43.7007" lon="3.13237">
        <ele>639.5999756</ele>
        <time>2013-07-07T07:27:30Z</time>
      </trkpt>
      <trkpt lat="43.70072" lon="3.13237">
        <ele>640</ele>
        <time>2013-07-07T07:27:31Z</time>
      </trkpt>
      <trkpt lat="43.70074" lon="3.13238">
        <ele>640</ele>
        <time>2013-07-07T07:27:32Z</time>
      </trkpt>
      <trkpt lat="43.70088" lon="3.13249">
        <ele>640</ele>
        <time>2013-07-07T07:27:39Z</time>
      </trkpt>
      <trkpt lat="43.70095" lon="3.13256">
        <ele>640.4000244</ele>
        <time>2013-07-07T07:27:43Z</time>
      </trkpt>
      <trkpt lat="43.70097" lon="3.13258">
        <ele>640.7999878</ele>
        <time>2013-07-07T07:27:44Z</time>
      </trkpt>
      <trkpt lat="43.70099" lon="3.1326">
        <ele>641.5999756</ele>
        <time>2013-07-07T07:27:45Z</time>
      </trkpt>
      <trkpt lat="43.70101" lon="3.13262">
        <ele>642.2000122</ele>
        <time>2013-07-07T07:27:46Z</time>
      </trkpt>
      <trkpt lat="43.70117" lon="3.13274">
        <ele>642.2000122</ele>
        <time>2013-07-07T07:27:53Z</time>
      </trkpt>
      <trkpt lat="43.70124" lon="3.13279">
        <ele>642.5999756</ele>
        <time>2013-07-07T07:27:56Z</time>
      </trkpt>
      <trkpt lat="43.70126" lon="3.13281">
        <ele>643</ele>
        <time>2013-07-07T07:27:57Z</time>
      </trkpt>
      <trkpt lat="43.70129" lon="3.13282">
        <ele>643.4000244</ele>
        <time>2013-07-07T07:27:58Z</time>
      </trkpt>
      <trkpt lat="43.70131" lon="3.13284">
        <ele>643.7999878</ele>
        <time>2013-07-07T07:27:59Z</time>
      </trkpt>
      <trkpt lat="43.70135" lon="3.13285">
        <ele>644.2000122</ele>
        <time>2013-07-07T07:28:00Z</time>
      </trkpt>
      <trkpt lat="43.70146" lon="3.13288">
        <ele>644.2000122</ele>
        <time>2013-07-07T07:28:04Z</time>
      </trkpt>
      <trkpt lat="43.70165" lon="3.1329">
        <ele>645</ele>
        <time>2013-07-07T07:28:10Z</time>
      </trkpt>
      <trkpt lat="43.70168" lon="3.13289">
        <ele>645.4000244</ele>
        <time>2013-07-07T07:28:11Z</time>
      </trkpt>
      <trkpt lat="43.7017" lon="3.13288">
        <ele>645.7999878</ele>
        <time>2013-07-07T07:28:12Z</time>
      </trkpt>
      <trkpt lat="43.70173" lon="3.13286">
        <ele>646.2000122</ele>
        <time>2013-07-07T07:28:13Z</time>
      </trkpt>
      <trkpt lat="43.70183" lon="3.13281">
        <ele>646.2000122</ele>
        <time>2013-07-07T07:28:16Z</time>
      </trkpt>
      <trkpt lat="43.70196" lon="3.13277">
        <ele>646.2000122</ele>
        <time>2013-07-07T07:28:21Z</time>
      </trkpt>
      <trkpt lat="43.70202" lon="3.13276">
        <ele>646.7999878</ele>
        <time>2013-07-07T07:28:23Z</time>
      </trkpt>
      <trkpt lat="43.70204" lon="3.13275">
        <ele>647.2000122</ele>
        <time>2013-07-07T07:28:24Z</time>
      </trkpt>
      <trkpt lat="43.70207" lon="3.13273">
        <ele>647.5999756</ele>
        <time>2013-07-07T07:28:25Z</time>
      </trkpt>
      <trkpt lat="43.70209" lon="3.13271">
        <ele>648</ele>
        <time>2013-07-07T07:28:26Z</time>
      </trkpt>
      <trkpt lat="43.70212" lon="3.13269">
        <ele>648.5999756</ele>
        <time>2013-07-07T07:28:27Z</time>
      </trkpt>
      <trkpt lat="43.70225" lon="3.13252">
        <ele>649</ele>
        <time>2013-07-07T07:28:33Z</time>
      </trkpt>
      <trkpt lat="43.70227" lon="3.13249">
        <ele>649.4000244</ele>
        <time>2013-07-07T07:28:34Z</time>
      </trkpt>
      <trkpt lat="43.70229" lon="3.13246">
        <ele>650.4000244</ele>
        <time>2013-07-07T07:28:35Z</time>
      </trkpt>
      <trkpt lat="43.70231" lon="3.13243">
        <ele>650.7999878</ele>
        <time>2013-07-07T07:28:36Z</time>
      </trkpt>
      <trkpt lat="43.70243" lon="3.13227">
        <ele>650.7999878</ele>
        <time>2013-07-07T07:28:42Z</time>
      </trkpt>
      <trkpt lat="43.70249" lon="3.13215">
        <ele>651.2000122</ele>
        <time>2013-07-07T07:28:46Z</time>
      </trkpt>
      <trkpt lat="43.7025" lon="3.13212">
        <ele>651.5999756</ele>
        <time>2013-07-07T07:28:47Z</time>
      </trkpt>
      <trkpt lat="43.70252" lon="3.13209">
        <ele>652</ele>
        <time>2013-07-07T07:28:48Z</time>
      </trkpt>
      <trkpt lat="43.70253" lon="3.13206">
        <ele>652.4000244</ele>
        <time>2013-07-07T07:28:49Z</time>
      </trkpt>
      <trkpt lat="43.70255" lon="3.13204">
        <ele>653</ele>
        <time>2013-07-07T07:28:50Z</time>
      </trkpt>
      <trkpt lat="43.7026" lon="3.13188">
        <ele>653</ele>
        <time>2013-07-07T07:28:55Z</time>
      </trkpt>
      <trkpt lat="43.70263" lon="3.13179">
        <ele>653.4000244</ele>
        <time>2013-07-07T07:28:58Z</time>
      </trkpt>
      <trkpt lat="43.70264" lon="3.13176">
        <ele>654.2000122</ele>
        <time>2013-07-07T07:28:59Z</time>
      </trkpt>
      <trkpt lat="43.70265" lon="3.13173">
        <ele>654.5999756</ele>
        <time>2013-07-07T07:29:00Z</time>
      </trkpt>
      <trkpt lat="43.70266" lon="3.13169">
        <ele>655</ele>
        <time>2013-07-07T07:29:01Z</time>
      </trkpt>
      <trkpt lat="43.70267" lon="3.13166">
        <ele>655</ele>
        <time>2013-07-07T07:29:02Z</time>
      </trkpt>
      <trkpt lat="43.70274" lon="3.13148">
        <ele>655.4000244</ele>
        <time>2013-07-07T07:29:08Z</time>
      </trkpt>
      <trkpt lat="43.70275" lon="3.13145">
        <ele>655.7999878</ele>
        <time>2013-07-07T07:29:09Z</time>
      </trkpt>
      <trkpt lat="43.70276" lon="3.13143">
        <ele>656.4000244</ele>
        <time>2013-07-07T07:29:10Z</time>
      </trkpt>
      <trkpt lat="43.70277" lon="3.1314">
        <ele>656.7999878</ele>
        <time>2013-07-07T07:29:11Z</time>
      </trkpt>
      <trkpt lat="43.70279" lon="3.13137">
        <ele>657.2000122</ele>
        <time>2013-07-07T07:29:12Z</time>
      </trkpt>
      <trkpt lat="43.70281" lon="3.13132">
        <ele>657.2000122</ele>
        <time>2013-07-07T07:29:14Z</time>
      </trkpt>
      <trkpt lat="43.70288" lon="3.13106">
        <ele>657.5999756</ele>
        <time>2013-07-07T07:29:21Z</time>
      </trkpt>
      <trkpt lat="43.7029" lon="3.13104">
        <ele>658</ele>
        <time>2013-07-07T07:29:22Z</time>
      </trkpt>
      <trkpt lat="43.70291" lon="3.13101">
        <ele>658.4000244</ele>
        <time>2013-07-07T07:29:23Z</time>
      </trkpt>
      <trkpt lat="43.70292" lon="3.13098">
        <ele>659.2000122</ele>
        <time>2013-07-07T07:29:24Z</time>
      </trkpt>
      <trkpt lat="43.70295" lon="3.13092">
        <ele>659.2000122</ele>
        <time>2013-07-07T07:29:26Z</time>
      </trkpt>
      <trkpt lat="43.70301" lon="3.13081">
        <ele>659.2000122</ele>
        <time>2013-07-07T07:29:32Z</time>
      </trkpt>
      <trkpt lat="43.70303" lon="3.13079">
        <ele>659.5999756</ele>
        <time>2013-07-07T07:29:33Z</time>
      </trkpt>
      <trkpt lat="43.70304" lon="3.13078">
        <ele>660</ele>
        <time>2013-07-07T07:29:34Z</time>
      </trkpt>
      <trkpt lat="43.70305" lon="3.13076">
        <ele>660.4000244</ele>
        <time>2013-07-07T07:29:35Z</time>
      </trkpt>
      <trkpt lat="43.70306" lon="3.13074">
        <ele>660.7999878</ele>
        <time>2013-07-07T07:29:36Z</time>
      </trkpt>
      <trkpt lat="43.70306" lon="3.13072">
        <ele>661.2000122</ele>
        <time>2013-07-07T07:29:37Z</time>
      </trkpt>
      <trkpt lat="43.70307" lon="3.13068">
        <ele>661.2000122</ele>
        <time>2013-07-07T07:29:39Z</time>
      </trkpt>
      <trkpt lat="43.70307" lon="3.13057">
        <ele>661.2000122</ele>
        <time>2013-07-07T07:29:44Z</time>
      </trkpt>
      <trkpt lat="43.70307" lon="3.13056">
        <ele>661.2000122</ele>
        <time>2013-07-07T07:29:45Z</time>
      </trkpt>
      <trkpt lat="43.70305" lon="3.13052">
        <ele>661.2000122</ele>
        <time>2013-07-07T07:29:48Z</time>
      </trkpt>
      <trkpt lat="43.70304" lon="3.13049">
        <ele>661.2000122</ele>
        <time>2013-07-07T07:29:50Z</time>
      </trkpt>
      <trkpt lat="43.70304" lon="3.13048">
        <ele>661.2000122</ele>
        <time>2013-07-07T07:29:51Z</time>
      </trkpt>
      <trkpt lat="43.70301" lon="3.13043">
        <ele>661.2000122</ele>
        <time>2013-07-07T07:29:56Z</time>
      </trkpt>
      <trkpt lat="43.703" lon="3.13041">
        <ele>661.5999756</ele>
        <time>2013-07-07T07:29:57Z</time>
      </trkpt>
      <trkpt lat="43.70299" lon="3.1304">
        <ele>662</ele>
        <time>2013-07-07T07:29:58Z</time>
      </trkpt>
      <trkpt lat="43.70298" lon="3.1304">
        <ele>662.4000244</ele>
        <time>2013-07-07T07:29:59Z</time>
      </trkpt>
      <trkpt lat="43.70297" lon="3.1304">
        <ele>662.7999878</ele>
        <time>2013-07-07T07:30:00Z</time>
      </trkpt>
      <trkpt lat="43.70296" lon="3.13039">
        <ele>663.2000122</ele>
        <time>2013-07-07T07:30:01Z</time>
      </trkpt>
      <trkpt lat="43.70294" lon="3.13036">
        <ele>663.7999878</ele>
        <time>2013-07-07T07:30:04Z</time>
      </trkpt>
      <trkpt lat="43.70293" lon="3.13034">
        <ele>664.2000122</ele>
        <time>2013-07-07T07:30:05Z</time>
      </trkpt>
      <trkpt lat="43.70292" lon="3.13033">
        <ele>664.5999756</ele>
        <time>2013-07-07T07:30:06Z</time>
      </trkpt>
      <trkpt lat="43.70291" lon="3.13032">
        <ele>665</ele>
        <time>2013-07-07T07:30:07Z</time>
      </trkpt>
      <trkpt lat="43.70289" lon="3.13031">
        <ele>665.4000244</ele>
        <time>2013-07-07T07:30:08Z</time>
      </trkpt>
      <trkpt lat="43.70286" lon="3.13028">
        <ele>665.7999878</ele>
        <time>2013-07-07T07:30:10Z</time>
      </trkpt>
      <trkpt lat="43.70285" lon="3.13027">
        <ele>666.2000122</ele>
        <time>2013-07-07T07:30:11Z</time>
      </trkpt>
      <trkpt lat="43.70284" lon="3.13026">
        <ele>666.5999756</ele>
        <time>2013-07-07T07:30:12Z</time>
      </trkpt>
      <trkpt lat="43.70282" lon="3.13025">
        <ele>667</ele>
        <time>2013-07-07T07:30:13Z</time>
      </trkpt>
      <trkpt lat="43.70281" lon="3.13023">
        <ele>667.4000244</ele>
        <time>2013-07-07T07:30:14Z</time>
      </trkpt>
      <trkpt lat="43.70278" lon="3.13022">
        <ele>667.7999878</ele>
        <time>2013-07-07T07:30:16Z</time>
      </trkpt>
      <trkpt lat="43.70276" lon="3.1302">
        <ele>668.4000244</ele>
        <time>2013-07-07T07:30:17Z</time>
      </trkpt>
      <trkpt lat="43.70275" lon="3.13019">
        <ele>668.7999878</ele>
        <time>2013-07-07T07:30:18Z</time>
      </trkpt>
      <trkpt lat="43.70274" lon="3.13018">
        <ele>669.2000122</ele>
        <time>2013-07-07T07:30:19Z</time>
      </trkpt>
      <trkpt lat="43.70272" lon="3.13017">
        <ele>669.5999756</ele>
        <time>2013-07-07T07:30:20Z</time>
      </trkpt>
      <trkpt lat="43.70271" lon="3.13014">
        <ele>669.5999756</ele>
        <time>2013-07-07T07:30:22Z</time>
      </trkpt>
      <trkpt lat="43.70269" lon="3.13008">
        <ele>669.5999756</ele>
        <time>2013-07-07T07:30:25Z</time>
      </trkpt>
      <trkpt lat="43.70264" lon="3.13">
        <ele>670</ele>
        <time>2013-07-07T07:30:30Z</time>
      </trkpt>
      <trkpt lat="43.70263" lon="3.12998">
        <ele>670.4000244</ele>
        <time>2013-07-07T07:30:31Z</time>
      </trkpt>
      <trkpt lat="43.70262" lon="3.12997">
        <ele>671</ele>
        <time>2013-07-07T07:30:32Z</time>
      </trkpt>
      <trkpt lat="43.70261" lon="3.12995">
        <ele>671.4000244</ele>
        <time>2013-07-07T07:30:33Z</time>
      </trkpt>
      <trkpt lat="43.7026" lon="3.12994">
        <ele>671.7999878</ele>
        <time>2013-07-07T07:30:34Z</time>
      </trkpt>
      <trkpt lat="43.70256" lon="3.12987">
        <ele>671.7999878</ele>
        <time>2013-07-07T07:30:38Z</time>
      </trkpt>
      <trkpt lat="43.70254" lon="3.12984">
        <ele>671.7999878</ele>
        <time>2013-07-07T07:30:40Z</time>
      </trkpt>
      <trkpt lat="43.7025" lon="3.12977">
        <ele>671.7999878</ele>
        <time>2013-07-07T07:30:44Z</time>
      </trkpt>
      <trkpt lat="43.70249" lon="3.12975">
        <ele>671.7999878</ele>
        <time>2013-07-07T07:30:45Z</time>
      </trkpt>
      <trkpt lat="43.70248" lon="3.12972">
        <ele>671.7999878</ele>
        <time>2013-07-07T07:30:48Z</time>
      </trkpt>
      <trkpt lat="43.70248" lon="3.12972">
        <ele>671.7999878</ele>
        <time>2013-07-07T07:30:49Z</time>
      </trkpt>
      <trkpt lat="43.70245" lon="3.12965">
        <ele>673.5999756</ele>
        <time>2013-07-07T07:33:54Z</time>
      </trkpt>
      <trkpt lat="43.70243" lon="3.12962">
        <ele>673.5999756</ele>
        <time>2013-07-07T07:33:55Z</time>
      </trkpt>
      <trkpt lat="43.70236" lon="3.12947">
        <ele>673.2000122</ele>
        <time>2013-07-07T07:33:58Z</time>
      </trkpt>
      <trkpt lat="43.70233" lon="3.12942">
        <ele>672.7999878</ele>
        <time>2013-07-07T07:33:59Z</time>
      </trkpt>
      <trkpt lat="43.70229" lon="3.12935">
        <ele>672.4000244</ele>
        <time>2013-07-07T07:34:00Z</time>
      </trkpt>
      <trkpt lat="43.70225" lon="3.12928">
        <ele>672</ele>
        <time>2013-07-07T07:34:01Z</time>
      </trkpt>
      <trkpt lat="43.70222" lon="3.12921">
        <ele>671.4000244</ele>
        <time>2013-07-07T07:34:02Z</time>
      </trkpt>
      <trkpt lat="43.7022" lon="3.12915">
        <ele>670</ele>
        <time>2013-07-07T07:34:03Z</time>
      </trkpt>
      <trkpt lat="43.70218" lon="3.12909">
        <ele>669.4000244</ele>
        <time>2013-07-07T07:34:04Z</time>
      </trkpt>
      <trkpt lat="43.70216" lon="3.12904">
        <ele>668.7999878</ele>
        <time>2013-07-07T07:34:05Z</time>
      </trkpt>
      <trkpt lat="43.70215" lon="3.12895">
        <ele>668.7999878</ele>
        <time>2013-07-07T07:34:07Z</time>
      </trkpt>
      <trkpt lat="43.70218" lon="3.12871">
        <ele>668.7999878</ele>
        <time>2013-07-07T07:34:12Z</time>
      </trkpt>
      <trkpt lat="43.70218" lon="3.12866">
        <ele>668.7999878</ele>
        <time>2013-07-07T07:34:14Z</time>
      </trkpt>
      <trkpt lat="43.70219" lon="3.1286">
        <ele>668.7999878</ele>
        <time>2013-07-07T07:34:16Z</time>
      </trkpt>
      <trkpt lat="43.7022" lon="3.12852">
        <ele>668.7999878</ele>
        <time>2013-07-07T07:34:19Z</time>
      </trkpt>
      <trkpt lat="43.70219" lon="3.1285">
        <ele>668.7999878</ele>
        <time>2013-07-07T07:34:21Z</time>
      </trkpt>
      <trkpt lat="43.70219" lon="3.12845">
        <ele>668.7999878</ele>
        <time>2013-07-07T07:34:25Z</time>
      </trkpt>
      <trkpt lat="43.70217" lon="3.12842">
        <ele>668.7999878</ele>
        <time>2013-07-07T07:34:27Z</time>
      </trkpt>
      <trkpt lat="43.70214" lon="3.12837">
        <ele>668.7999878</ele>
        <time>2013-07-07T07:34:30Z</time>
      </trkpt>
      <trkpt lat="43.70212" lon="3.12835">
        <ele>668.7999878</ele>
        <time>2013-07-07T07:34:32Z</time>
      </trkpt>
      <trkpt lat="43.70211" lon="3.12832">
        <ele>668.2000122</ele>
        <time>2013-07-07T07:34:34Z</time>
      </trkpt>
      <trkpt lat="43.70211" lon="3.12831">
        <ele>667.7999878</ele>
        <time>2013-07-07T07:34:35Z</time>
      </trkpt>
      <trkpt lat="43.70211" lon="3.12831">
        <ele>667.4000244</ele>
        <time>2013-07-07T07:34:36Z</time>
      </trkpt>
      <trkpt lat="43.70211" lon="3.12831">
        <ele>667</ele>
        <time>2013-07-07T07:34:37Z</time>
      </trkpt>
      <trkpt lat="43.70212" lon="3.12825">
        <ele>666.5999756</ele>
        <time>2013-07-07T07:34:38Z</time>
      </trkpt>
      <trkpt lat="43.70217" lon="3.12813">
        <ele>666</ele>
        <time>2013-07-07T07:34:40Z</time>
      </trkpt>
      <trkpt lat="43.7022" lon="3.12806">
        <ele>665.5999756</ele>
        <time>2013-07-07T07:34:41Z</time>
      </trkpt>
      <trkpt lat="43.70223" lon="3.128">
        <ele>665.2000122</ele>
        <time>2013-07-07T07:34:42Z</time>
      </trkpt>
      <trkpt lat="43.70226" lon="3.12795">
        <ele>664.7999878</ele>
        <time>2013-07-07T07:34:43Z</time>
      </trkpt>
      <trkpt lat="43.70229" lon="3.1279">
        <ele>664.4000244</ele>
        <time>2013-07-07T07:34:44Z</time>
      </trkpt>
      <trkpt lat="43.70231" lon="3.12785">
        <ele>664.4000244</ele>
        <time>2013-07-07T07:34:45Z</time>
      </trkpt>
      <trkpt lat="43.70236" lon="3.1277">
        <ele>664</ele>
        <time>2013-07-07T07:34:48Z</time>
      </trkpt>
      <trkpt lat="43.70236" lon="3.12763">
        <ele>663.5999756</ele>
        <time>2013-07-07T07:34:49Z</time>
      </trkpt>
      <trkpt lat="43.70238" lon="3.12757">
        <ele>663.2000122</ele>
        <time>2013-07-07T07:34:50Z</time>
      </trkpt>
      <trkpt lat="43.70238" lon="3.1275">
        <ele>662.5999756</ele>
        <time>2013-07-07T07:34:51Z</time>
      </trkpt>
      <trkpt lat="43.70238" lon="3.12747">
        <ele>661.4000244</ele>
        <time>2013-07-07T07:34:52Z</time>
      </trkpt>
      <trkpt lat="43.7024" lon="3.1274">
        <ele>660.5999756</ele>
        <time>2013-07-07T07:34:53Z</time>
      </trkpt>
      <trkpt lat="43.70242" lon="3.12735">
        <ele>659.7999878</ele>
        <time>2013-07-07T07:34:54Z</time>
      </trkpt>
      <trkpt lat="43.70243" lon="3.1273">
        <ele>659</ele>
        <time>2013-07-07T07:34:55Z</time>
      </trkpt>
      <trkpt lat="43.70245" lon="3.12725">
        <ele>658.2000122</ele>
        <time>2013-07-07T07:34:56Z</time>
      </trkpt>
      <trkpt lat="43.70246" lon="3.12722">
        <ele>657.5999756</ele>
        <time>2013-07-07T07:34:57Z</time>
      </trkpt>
      <trkpt lat="43.70247" lon="3.12718">
        <ele>657</ele>
        <time>2013-07-07T07:34:58Z</time>
      </trkpt>
      <trkpt lat="43.7025" lon="3.12714">
        <ele>656.4000244</ele>
        <time>2013-07-07T07:34:59Z</time>
      </trkpt>
      <trkpt lat="43.70252" lon="3.1271">
        <ele>655.7999878</ele>
        <time>2013-07-07T07:35:00Z</time>
      </trkpt>
      <trkpt lat="43.70253" lon="3.12705">
        <ele>655.2000122</ele>
        <time>2013-07-07T07:35:01Z</time>
      </trkpt>
      <trkpt lat="43.70256" lon="3.12701">
        <ele>655.2000122</ele>
        <time>2013-07-07T07:35:02Z</time>
      </trkpt>
      <trkpt lat="43.70259" lon="3.12699">
        <ele>655.2000122</ele>
        <time>2013-07-07T07:35:03Z</time>
      </trkpt>
      <trkpt lat="43.70264" lon="3.12695">
        <ele>655.2000122</ele>
        <time>2013-07-07T07:35:04Z</time>
      </trkpt>
      <trkpt lat="43.70266" lon="3.12692">
        <ele>654.7999878</ele>
        <time>2013-07-07T07:35:05Z</time>
      </trkpt>
      <trkpt lat="43.70269" lon="3.12689">
        <ele>654.4000244</ele>
        <time>2013-07-07T07:35:06Z</time>
      </trkpt>
      <trkpt lat="43.70271" lon="3.12681">
        <ele>654</ele>
        <time>2013-07-07T07:35:07Z</time>
      </trkpt>
      <trkpt lat="43.70274" lon="3.12674">
        <ele>653.5999756</ele>
        <time>2013-07-07T07:35:08Z</time>
      </trkpt>
      <trkpt lat="43.70276" lon="3.12667">
        <ele>653</ele>
        <time>2013-07-07T07:35:09Z</time>
      </trkpt>
      <trkpt lat="43.70278" lon="3.12661">
        <ele>652.4000244</ele>
        <time>2013-07-07T07:35:10Z</time>
      </trkpt>
      <trkpt lat="43.70274" lon="3.12657">
        <ele>651.7999878</ele>
        <time>2013-07-07T07:35:11Z</time>
      </trkpt>
      <trkpt lat="43.70273" lon="3.12654">
        <ele>651</ele>
        <time>2013-07-07T07:35:12Z</time>
      </trkpt>
      <trkpt lat="43.70273" lon="3.12652">
        <ele>650.2000122</ele>
        <time>2013-07-07T07:35:13Z</time>
      </trkpt>
      <trkpt lat="43.70271" lon="3.12651">
        <ele>649.4000244</ele>
        <time>2013-07-07T07:35:14Z</time>
      </trkpt>
      <trkpt lat="43.70269" lon="3.1265">
        <ele>648.5999756</ele>
        <time>2013-07-07T07:35:15Z</time>
      </trkpt>
      <trkpt lat="43.70267" lon="3.12651">
        <ele>647.7999878</ele>
        <time>2013-07-07T07:35:16Z</time>
      </trkpt>
      <trkpt lat="43.70266" lon="3.12651">
        <ele>646</ele>
        <time>2013-07-07T07:35:17Z</time>
      </trkpt>
      <trkpt lat="43.70264" lon="3.1265">
        <ele>645.2000122</ele>
        <time>2013-07-07T07:35:18Z</time>
      </trkpt>
      <trkpt lat="43.70263" lon="3.12649">
        <ele>644.4000244</ele>
        <time>2013-07-07T07:35:19Z</time>
      </trkpt>
      <trkpt lat="43.70261" lon="3.12648">
        <ele>643.4000244</ele>
        <time>2013-07-07T07:35:20Z</time>
      </trkpt>
      <trkpt lat="43.70262" lon="3.12642">
        <ele>642.5999756</ele>
        <time>2013-07-07T07:35:21Z</time>
      </trkpt>
      <trkpt lat="43.70263" lon="3.12638">
        <ele>641.7999878</ele>
        <time>2013-07-07T07:35:22Z</time>
      </trkpt>
      <trkpt lat="43.70264" lon="3.12634">
        <ele>640.7999878</ele>
        <time>2013-07-07T07:35:23Z</time>
      </trkpt>
      <trkpt lat="43.70265" lon="3.1263">
        <ele>640</ele>
        <time>2013-07-07T07:35:24Z</time>
      </trkpt>
      <trkpt lat="43.70266" lon="3.12625">
        <ele>639.2000122</ele>
        <time>2013-07-07T07:35:25Z</time>
      </trkpt>
      <trkpt lat="43.70267" lon="3.12621">
        <ele>638.4000244</ele>
        <time>2013-07-07T07:35:26Z</time>
      </trkpt>
      <trkpt lat="43.70269" lon="3.12613">
        <ele>637.5999756</ele>
        <time>2013-07-07T07:35:27Z</time>
      </trkpt>
      <trkpt lat="43.70269" lon="3.12607">
        <ele>637.5999756</ele>
        <time>2013-07-07T07:35:28Z</time>
      </trkpt>
      <trkpt lat="43.7027" lon="3.12603">
        <ele>637</ele>
        <time>2013-07-07T07:35:29Z</time>
      </trkpt>
      <trkpt lat="43.70268" lon="3.12589">
        <ele>635.4000244</ele>
        <time>2013-07-07T07:35:32Z</time>
      </trkpt>
      <trkpt lat="43.70267" lon="3.12586">
        <ele>634.7999878</ele>
        <time>2013-07-07T07:35:33Z</time>
      </trkpt>
      <trkpt lat="43.70266" lon="3.12582">
        <ele>634.2000122</ele>
        <time>2013-07-07T07:35:34Z</time>
      </trkpt>
      <trkpt lat="43.70264" lon="3.12581">
        <ele>633.4000244</ele>
        <time>2013-07-07T07:35:35Z</time>
      </trkpt>
      <trkpt lat="43.70263" lon="3.12579">
        <ele>632.5999756</ele>
        <time>2013-07-07T07:35:36Z</time>
      </trkpt>
      <trkpt lat="43.70262" lon="3.12577">
        <ele>631.7999878</ele>
        <time>2013-07-07T07:35:37Z</time>
      </trkpt>
      <trkpt lat="43.70262" lon="3.12576">
        <ele>630.7999878</ele>
        <time>2013-07-07T07:35:38Z</time>
      </trkpt>
      <trkpt lat="43.70261" lon="3.12575">
        <ele>630</ele>
        <time>2013-07-07T07:35:39Z</time>
      </trkpt>
      <trkpt lat="43.7026" lon="3.12574">
        <ele>629.2000122</ele>
        <time>2013-07-07T07:35:40Z</time>
      </trkpt>
      <trkpt lat="43.70259" lon="3.12573">
        <ele>628.2000122</ele>
        <time>2013-07-07T07:35:41Z</time>
      </trkpt>
      <trkpt lat="43.70258" lon="3.1257">
        <ele>626.5999756</ele>
        <time>2013-07-07T07:35:42Z</time>
      </trkpt>
      <trkpt lat="43.70259" lon="3.12566">
        <ele>626</ele>
        <time>2013-07-07T07:35:43Z</time>
      </trkpt>
      <trkpt lat="43.7026" lon="3.12561">
        <ele>625.2000122</ele>
        <time>2013-07-07T07:35:44Z</time>
      </trkpt>
      <trkpt lat="43.70262" lon="3.12557">
        <ele>624.5999756</ele>
        <time>2013-07-07T07:35:45Z</time>
      </trkpt>
      <trkpt lat="43.70265" lon="3.12553">
        <ele>624</ele>
        <time>2013-07-07T07:35:46Z</time>
      </trkpt>
      <trkpt lat="43.70263" lon="3.12547">
        <ele>623.2000122</ele>
        <time>2013-07-07T07:35:47Z</time>
      </trkpt>
      <trkpt lat="43.70269" lon="3.12531">
        <ele>622.7999878</ele>
        <time>2013-07-07T07:35:50Z</time>
      </trkpt>
      <trkpt lat="43.70272" lon="3.12525">
        <ele>622.4000244</ele>
        <time>2013-07-07T07:35:51Z</time>
      </trkpt>
      <trkpt lat="43.70276" lon="3.12519">
        <ele>621.7999878</ele>
        <time>2013-07-07T07:35:52Z</time>
      </trkpt>
      <trkpt lat="43.7028" lon="3.12512">
        <ele>621.2000122</ele>
        <time>2013-07-07T07:35:53Z</time>
      </trkpt>
      <trkpt lat="43.70281" lon="3.12503">
        <ele>620.5999756</ele>
        <time>2013-07-07T07:35:54Z</time>
      </trkpt>
      <trkpt lat="43.70283" lon="3.12495">
        <ele>619.7999878</ele>
        <time>2013-07-07T07:35:55Z</time>
      </trkpt>
      <trkpt lat="43.7028" lon="3.12488">
        <ele>619.2000122</ele>
        <time>2013-07-07T07:35:56Z</time>
      </trkpt>
      <trkpt lat="43.70275" lon="3.12483">
        <ele>618.5999756</ele>
        <time>2013-07-07T07:35:57Z</time>
      </trkpt>
      <trkpt lat="43.70271" lon="3.12479">
        <ele>618.2000122</ele>
        <time>2013-07-07T07:35:58Z</time>
      </trkpt>
      <trkpt lat="43.70266" lon="3.12474">
        <ele>617.7999878</ele>
        <time>2013-07-07T07:35:59Z</time>
      </trkpt>
      <trkpt lat="43.70259" lon="3.12472">
        <ele>617.4000244</ele>
        <time>2013-07-07T07:36:00Z</time>
      </trkpt>
      <trkpt lat="43.70253" lon="3.1247">
        <ele>617</ele>
        <time>2013-07-07T07:36:01Z</time>
      </trkpt>
      <trkpt lat="43.7025" lon="3.12469">
        <ele>616.5999756</ele>
        <time>2013-07-07T07:36:02Z</time>
      </trkpt>
      <trkpt lat="43.70249" lon="3.12467">
        <ele>616</ele>
        <time>2013-07-07T07:36:03Z</time>
      </trkpt>
      <trkpt lat="43.70244" lon="3.12463">
        <ele>615</ele>
        <time>2013-07-07T07:36:05Z</time>
      </trkpt>
      <trkpt lat="43.70243" lon="3.12461">
        <ele>614.4000244</ele>
        <time>2013-07-07T07:36:06Z</time>
      </trkpt>
      <trkpt lat="43.70241" lon="3.12458">
        <ele>613.2000122</ele>
        <time>2013-07-07T07:36:07Z</time>
      </trkpt>
      <trkpt lat="43.7024" lon="3.12455">
        <ele>612.4000244</ele>
        <time>2013-07-07T07:36:08Z</time>
      </trkpt>
      <trkpt lat="43.7024" lon="3.12454">
        <ele>611.7999878</ele>
        <time>2013-07-07T07:36:09Z</time>
      </trkpt>
      <trkpt lat="43.70239" lon="3.12451">
        <ele>611.7999878</ele>
        <time>2013-07-07T07:36:10Z</time>
      </trkpt>
      <trkpt lat="43.7024" lon="3.12448">
        <ele>611.4000244</ele>
        <time>2013-07-07T07:36:11Z</time>
      </trkpt>
      <trkpt lat="43.7024" lon="3.12443">
        <ele>610.7999878</ele>
        <time>2013-07-07T07:36:12Z</time>
      </trkpt>
      <trkpt lat="43.70241" lon="3.12437">
        <ele>610</ele>
        <time>2013-07-07T07:36:13Z</time>
      </trkpt>
      <trkpt lat="43.7024" lon="3.12432">
        <ele>609.4000244</ele>
        <time>2013-07-07T07:36:14Z</time>
      </trkpt>
      <trkpt lat="43.70239" lon="3.12431">
        <ele>608.5999756</ele>
        <time>2013-07-07T07:36:15Z</time>
      </trkpt>
      <trkpt lat="43.70236" lon="3.12427">
        <ele>607.7999878</ele>
        <time>2013-07-07T07:36:16Z</time>
      </trkpt>
      <trkpt lat="43.70234" lon="3.12425">
        <ele>607</ele>
        <time>2013-07-07T07:36:17Z</time>
      </trkpt>
      <trkpt lat="43.70231" lon="3.12423">
        <ele>606.2000122</ele>
        <time>2013-07-07T07:36:18Z</time>
      </trkpt>
      <trkpt lat="43.70229" lon="3.12421">
        <ele>605.4000244</ele>
        <time>2013-07-07T07:36:19Z</time>
      </trkpt>
      <trkpt lat="43.70228" lon="3.1242">
        <ele>604.5999756</ele>
        <time>2013-07-07T07:36:20Z</time>
      </trkpt>
      <trkpt lat="43.70226" lon="3.12416">
        <ele>603.4000244</ele>
        <time>2013-07-07T07:36:22Z</time>
      </trkpt>
      <trkpt lat="43.70225" lon="3.12414">
        <ele>602.5999756</ele>
        <time>2013-07-07T07:36:23Z</time>
      </trkpt>
      <trkpt lat="43.70226" lon="3.1241">
        <ele>602</ele>
        <time>2013-07-07T07:36:24Z</time>
      </trkpt>
      <trkpt lat="43.70228" lon="3.12406">
        <ele>601.4000244</ele>
        <time>2013-07-07T07:36:25Z</time>
      </trkpt>
      <trkpt lat="43.70229" lon="3.12403">
        <ele>600.7999878</ele>
        <time>2013-07-07T07:36:26Z</time>
      </trkpt>
      <trkpt lat="43.70231" lon="3.12397">
        <ele>600</ele>
        <time>2013-07-07T07:36:27Z</time>
      </trkpt>
      <trkpt lat="43.70234" lon="3.12391">
        <ele>599.4000244</ele>
        <time>2013-07-07T07:36:28Z</time>
      </trkpt>
      <trkpt lat="43.70233" lon="3.12387">
        <ele>598.7999878</ele>
        <time>2013-07-07T07:36:29Z</time>
      </trkpt>
      <trkpt lat="43.70233" lon="3.12385">
        <ele>598</ele>
        <time>2013-07-07T07:36:30Z</time>
      </trkpt>
      <trkpt lat="43.7023" lon="3.12378">
        <ele>597.4000244</ele>
        <time>2013-07-07T07:36:31Z</time>
      </trkpt>
      <trkpt lat="43.70229" lon="3.12373">
        <ele>596.2000122</ele>
        <time>2013-07-07T07:36:32Z</time>
      </trkpt>
      <trkpt lat="43.7023" lon="3.1237">
        <ele>595.5999756</ele>
        <time>2013-07-07T07:36:33Z</time>
      </trkpt>
      <trkpt lat="43.7023" lon="3.12366">
        <ele>595</ele>
        <time>2013-07-07T07:36:34Z</time>
      </trkpt>
      <trkpt lat="43.7023" lon="3.12361">
        <ele>594.4000244</ele>
        <time>2013-07-07T07:36:35Z</time>
      </trkpt>
      <trkpt lat="43.7023" lon="3.12355">
        <ele>594</ele>
        <time>2013-07-07T07:36:36Z</time>
      </trkpt>
      <trkpt lat="43.70233" lon="3.12344">
        <ele>593</ele>
        <time>2013-07-07T07:36:37Z</time>
      </trkpt>
      <trkpt lat="43.70237" lon="3.12332">
        <ele>592.2000122</ele>
        <time>2013-07-07T07:36:38Z</time>
      </trkpt>
      <trkpt lat="43.7024" lon="3.1232">
        <ele>591.4000244</ele>
        <time>2013-07-07T07:36:39Z</time>
      </trkpt>
      <trkpt lat="43.70243" lon="3.12312">
        <ele>590.5999756</ele>
        <time>2013-07-07T07:36:40Z</time>
      </trkpt>
      <trkpt lat="43.70245" lon="3.12305">
        <ele>589.7999878</ele>
        <time>2013-07-07T07:36:41Z</time>
      </trkpt>
      <trkpt lat="43.70245" lon="3.12301">
        <ele>589.7999878</ele>
        <time>2013-07-07T07:36:42Z</time>
      </trkpt>
      <trkpt lat="43.70254" lon="3.12279">
        <ele>589.7999878</ele>
        <time>2013-07-07T07:37:58Z</time>
      </trkpt>
      <trkpt lat="43.70257" lon="3.12276">
        <ele>589.7999878</ele>
        <time>2013-07-07T07:37:59Z</time>
      </trkpt>
      <trkpt lat="43.70262" lon="3.12271">
        <ele>589.7999878</ele>
        <time>2013-07-07T07:38:01Z</time>
      </trkpt>
      <trkpt lat="43.70277" lon="3.12254">
        <ele>589.7999878</ele>
        <time>2013-07-07T07:38:07Z</time>
      </trkpt>
      <trkpt lat="43.70286" lon="3.12241">
        <ele>589.7999878</ele>
        <time>2013-07-07T07:38:11Z</time>
      </trkpt>
      <trkpt lat="43.70288" lon="3.12238">
        <ele>590.2000122</ele>
        <time>2013-07-07T07:38:12Z</time>
      </trkpt>
      <trkpt lat="43.70291" lon="3.12235">
        <ele>590.5999756</ele>
        <time>2013-07-07T07:38:13Z</time>
      </trkpt>
      <trkpt lat="43.70293" lon="3.12231">
        <ele>591.2000122</ele>
        <time>2013-07-07T07:38:14Z</time>
      </trkpt>
      <trkpt lat="43.70295" lon="3.12227">
        <ele>591.5999756</ele>
        <time>2013-07-07T07:38:15Z</time>
      </trkpt>
      <trkpt lat="43.70297" lon="3.12223">
        <ele>592</ele>
        <time>2013-07-07T07:38:16Z</time>
      </trkpt>
      <trkpt lat="43.70306" lon="3.12209">
        <ele>592</ele>
        <time>2013-07-07T07:38:20Z</time>
      </trkpt>
      <trkpt lat="43.70309" lon="3.12205">
        <ele>592</ele>
        <time>2013-07-07T07:38:21Z</time>
      </trkpt>
      <trkpt lat="43.70319" lon="3.12188">
        <ele>592</ele>
        <time>2013-07-07T07:38:26Z</time>
      </trkpt>
      <trkpt lat="43.70321" lon="3.12184">
        <ele>592.4000244</ele>
        <time>2013-07-07T07:38:27Z</time>
      </trkpt>
      <trkpt lat="43.70323" lon="3.12181">
        <ele>592.7999878</ele>
        <time>2013-07-07T07:38:28Z</time>
      </trkpt>
      <trkpt lat="43.70325" lon="3.12177">
        <ele>593.2000122</ele>
        <time>2013-07-07T07:38:29Z</time>
      </trkpt>
      <trkpt lat="43.70326" lon="3.12174">
        <ele>593.5999756</ele>
        <time>2013-07-07T07:38:30Z</time>
      </trkpt>
      <trkpt lat="43.70327" lon="3.12172">
        <ele>594</ele>
        <time>2013-07-07T07:38:31Z</time>
      </trkpt>
      <trkpt lat="43.70329" lon="3.12169">
        <ele>594</ele>
        <time>2013-07-07T07:38:32Z</time>
      </trkpt>
      <trkpt lat="43.70336" lon="3.12156">
        <ele>594</ele>
        <time>2013-07-07T07:38:36Z</time>
      </trkpt>
      <trkpt lat="43.7034" lon="3.12151">
        <ele>594</ele>
        <time>2013-07-07T07:38:38Z</time>
      </trkpt>
      <trkpt lat="43.70348" lon="3.12144">
        <ele>594.4000244</ele>
        <time>2013-07-07T07:38:41Z</time>
      </trkpt>
      <trkpt lat="43.7035" lon="3.12143">
        <ele>594.7999878</ele>
        <time>2013-07-07T07:38:42Z</time>
      </trkpt>
      <trkpt lat="43.70353" lon="3.12141">
        <ele>595.2000122</ele>
        <time>2013-07-07T07:38:43Z</time>
      </trkpt>
      <trkpt lat="43.70356" lon="3.12139">
        <ele>595.5999756</ele>
        <time>2013-07-07T07:38:44Z</time>
      </trkpt>
      <trkpt lat="43.70359" lon="3.12137">
        <ele>596</ele>
        <time>2013-07-07T07:38:45Z</time>
      </trkpt>
      <trkpt lat="43.70379" lon="3.12118">
        <ele>596</ele>
        <time>2013-07-07T07:38:51Z</time>
      </trkpt>
      <trkpt lat="43.70392" lon="3.12086">
        <ele>596</ele>
        <time>2013-07-07T07:38:57Z</time>
      </trkpt>
      <trkpt lat="43.70397" lon="3.12072">
        <ele>596.4000244</ele>
        <time>2013-07-07T07:39:00Z</time>
      </trkpt>
      <trkpt lat="43.70398" lon="3.12068">
        <ele>596.7999878</ele>
        <time>2013-07-07T07:39:01Z</time>
      </trkpt>
      <trkpt lat="43.704" lon="3.12063">
        <ele>597.2000122</ele>
        <time>2013-07-07T07:39:02Z</time>
      </trkpt>
      <trkpt lat="43.70402" lon="3.12059">
        <ele>597.5999756</ele>
        <time>2013-07-07T07:39:03Z</time>
      </trkpt>
      <trkpt lat="43.70405" lon="3.12054">
        <ele>598</ele>
        <time>2013-07-07T07:39:04Z</time>
      </trkpt>
      <trkpt lat="43.70419" lon="3.12029">
        <ele>598</ele>
        <time>2013-07-07T07:39:11Z</time>
      </trkpt>
      <trkpt lat="43.70429" lon="3.12019">
        <ele>598.4000244</ele>
        <time>2013-07-07T07:39:15Z</time>
      </trkpt>
      <trkpt lat="43.70431" lon="3.12016">
        <ele>599</ele>
        <time>2013-07-07T07:39:16Z</time>
      </trkpt>
      <trkpt lat="43.70434" lon="3.12013">
        <ele>599.4000244</ele>
        <time>2013-07-07T07:39:17Z</time>
      </trkpt>
      <trkpt lat="43.70436" lon="3.12011">
        <ele>599.7999878</ele>
        <time>2013-07-07T07:39:18Z</time>
      </trkpt>
      <trkpt lat="43.70438" lon="3.12008">
        <ele>600.2000122</ele>
        <time>2013-07-07T07:39:19Z</time>
      </trkpt>
      <trkpt lat="43.70448" lon="3.11997">
        <ele>600.2000122</ele>
        <time>2013-07-07T07:39:23Z</time>
      </trkpt>
      <trkpt lat="43.70462" lon="3.11991">
        <ele>600.2000122</ele>
        <time>2013-07-07T07:39:28Z</time>
      </trkpt>
      <trkpt lat="43.70469" lon="3.1199">
        <ele>600.5999756</ele>
        <time>2013-07-07T07:39:30Z</time>
      </trkpt>
      <trkpt lat="43.70472" lon="3.1199">
        <ele>601</ele>
        <time>2013-07-07T07:39:31Z</time>
      </trkpt>
      <trkpt lat="43.70475" lon="3.11989">
        <ele>601.4000244</ele>
        <time>2013-07-07T07:39:32Z</time>
      </trkpt>
      <trkpt lat="43.70478" lon="3.11989">
        <ele>601.7999878</ele>
        <time>2013-07-07T07:39:33Z</time>
      </trkpt>
      <trkpt lat="43.70482" lon="3.11988">
        <ele>602.2000122</ele>
        <time>2013-07-07T07:39:34Z</time>
      </trkpt>
      <trkpt lat="43.70499" lon="3.11982">
        <ele>602.2000122</ele>
        <time>2013-07-07T07:39:40Z</time>
      </trkpt>
      <trkpt lat="43.7052" lon="3.11962">
        <ele>602.2000122</ele>
        <time>2013-07-07T07:39:46Z</time>
      </trkpt>
      <trkpt lat="43.70528" lon="3.11952">
        <ele>602.5999756</ele>
        <time>2013-07-07T07:39:49Z</time>
      </trkpt>
      <trkpt lat="43.7053" lon="3.11949">
        <ele>603</ele>
        <time>2013-07-07T07:39:50Z</time>
      </trkpt>
      <trkpt lat="43.70532" lon="3.11946">
        <ele>603.4000244</ele>
        <time>2013-07-07T07:39:51Z</time>
      </trkpt>
      <trkpt lat="43.70534" lon="3.11943">
        <ele>603.7999878</ele>
        <time>2013-07-07T07:39:52Z</time>
      </trkpt>
      <trkpt lat="43.70537" lon="3.1194">
        <ele>604.4000244</ele>
        <time>2013-07-07T07:39:53Z</time>
      </trkpt>
      <trkpt lat="43.70553" lon="3.11925">
        <ele>604.4000244</ele>
        <time>2013-07-07T07:39:59Z</time>
      </trkpt>
      <trkpt lat="43.70571" lon="3.11912">
        <ele>604.7999878</ele>
        <time>2013-07-07T07:40:05Z</time>
      </trkpt>
      <trkpt lat="43.70575" lon="3.11909">
        <ele>605.2000122</ele>
        <time>2013-07-07T07:40:06Z</time>
      </trkpt>
      <trkpt lat="43.70578" lon="3.11907">
        <ele>605.5999756</ele>
        <time>2013-07-07T07:40:07Z</time>
      </trkpt>
      <trkpt lat="43.70582" lon="3.11904">
        <ele>606</ele>
        <time>2013-07-07T07:40:08Z</time>
      </trkpt>
      <trkpt lat="43.70586" lon="3.11901">
        <ele>606.4000244</ele>
        <time>2013-07-07T07:40:09Z</time>
      </trkpt>
      <trkpt lat="43.70595" lon="3.1189">
        <ele>606.4000244</ele>
        <time>2013-07-07T07:40:12Z</time>
      </trkpt>
      <trkpt lat="43.70602" lon="3.11866">
        <ele>606.4000244</ele>
        <time>2013-07-07T07:40:17Z</time>
      </trkpt>
      <trkpt lat="43.70603" lon="3.11861">
        <ele>606.7999878</ele>
        <time>2013-07-07T07:40:18Z</time>
      </trkpt>
      <trkpt lat="43.70604" lon="3.11856">
        <ele>607.2000122</ele>
        <time>2013-07-07T07:40:19Z</time>
      </trkpt>
      <trkpt lat="43.70605" lon="3.11852">
        <ele>607.5999756</ele>
        <time>2013-07-07T07:40:20Z</time>
      </trkpt>
      <trkpt lat="43.70607" lon="3.11848">
        <ele>608</ele>
        <time>2013-07-07T07:40:21Z</time>
      </trkpt>
      <trkpt lat="43.70609" lon="3.11844">
        <ele>608.4000244</ele>
        <time>2013-07-07T07:40:22Z</time>
      </trkpt>
      <trkpt lat="43.7061" lon="3.11841">
        <ele>608.4000244</ele>
        <time>2013-07-07T07:40:23Z</time>
      </trkpt>
      <trkpt lat="43.70622" lon="3.11831">
        <ele>608.4000244</ele>
        <time>2013-07-07T07:40:28Z</time>
      </trkpt>
      <trkpt lat="43.70638" lon="3.1183">
        <ele>608.4000244</ele>
        <time>2013-07-07T07:40:33Z</time>
      </trkpt>
      <trkpt lat="43.7067" lon="3.11835">
        <ele>608.4000244</ele>
        <time>2013-07-07T07:40:40Z</time>
      </trkpt>
      <trkpt lat="43.7068" lon="3.11838">
        <ele>608.7999878</ele>
        <time>2013-07-07T07:40:42Z</time>
      </trkpt>
      <trkpt lat="43.70683" lon="3.11841">
        <ele>609.2000122</ele>
        <time>2013-07-07T07:40:43Z</time>
      </trkpt>
      <trkpt lat="43.70688" lon="3.11844">
        <ele>609.5999756</ele>
        <time>2013-07-07T07:40:44Z</time>
      </trkpt>
      <trkpt lat="43.70692" lon="3.11845">
        <ele>610</ele>
        <time>2013-07-07T07:40:45Z</time>
      </trkpt>
      <trkpt lat="43.70694" lon="3.11848">
        <ele>610.4000244</ele>
        <time>2013-07-07T07:40:46Z</time>
      </trkpt>
      <trkpt lat="43.70718" lon="3.11864">
        <ele>610.4000244</ele>
        <time>2013-07-07T07:40:52Z</time>
      </trkpt>
      <trkpt lat="43.70723" lon="3.11866">
        <ele>610.4000244</ele>
        <time>2013-07-07T07:40:53Z</time>
      </trkpt>
      <trkpt lat="43.70737" lon="3.11872">
        <ele>610.4000244</ele>
        <time>2013-07-07T07:40:57Z</time>
      </trkpt>
      <trkpt lat="43.70741" lon="3.11873">
        <ele>611</ele>
        <time>2013-07-07T07:40:58Z</time>
      </trkpt>
      <trkpt lat="43.70745" lon="3.11875">
        <ele>611.4000244</ele>
        <time>2013-07-07T07:40:59Z</time>
      </trkpt>
      <trkpt lat="43.70749" lon="3.11876">
        <ele>611.7999878</ele>
        <time>2013-07-07T07:41:00Z</time>
      </trkpt>
      <trkpt lat="43.70753" lon="3.11877">
        <ele>612.2000122</ele>
        <time>2013-07-07T07:41:01Z</time>
      </trkpt>
      <trkpt lat="43.70757" lon="3.11877">
        <ele>612.5999756</ele>
        <time>2013-07-07T07:41:02Z</time>
      </trkpt>
      <trkpt lat="43.70763" lon="3.11873">
        <ele>612.5999756</ele>
        <time>2013-07-07T07:41:03Z</time>
      </trkpt>
      <trkpt lat="43.70775" lon="3.11852">
        <ele>612.5999756</ele>
        <time>2013-07-07T07:41:07Z</time>
      </trkpt>
      <trkpt lat="43.70776" lon="3.11847">
        <ele>612.5999756</ele>
        <time>2013-07-07T07:41:08Z</time>
      </trkpt>
      <trkpt lat="43.70781" lon="3.1182">
        <ele>612.5999756</ele>
        <time>2013-07-07T07:41:13Z</time>
      </trkpt>
      <trkpt lat="43.70781" lon="3.11806">
        <ele>612.5999756</ele>
        <time>2013-07-07T07:41:15Z</time>
      </trkpt>
      <trkpt lat="43.7078" lon="3.11785">
        <ele>612.5999756</ele>
        <time>2013-07-07T07:41:18Z</time>
      </trkpt>
      <trkpt lat="43.70779" lon="3.11779">
        <ele>612.5999756</ele>
        <time>2013-07-07T07:41:19Z</time>
      </trkpt>
      <trkpt lat="43.70775" lon="3.11767">
        <ele>613</ele>
        <time>2013-07-07T07:41:21Z</time>
      </trkpt>
      <trkpt lat="43.70772" lon="3.11762">
        <ele>613.4000244</ele>
        <time>2013-07-07T07:41:22Z</time>
      </trkpt>
      <trkpt lat="43.70768" lon="3.11757">
        <ele>613.7999878</ele>
        <time>2013-07-07T07:41:23Z</time>
      </trkpt>
      <trkpt lat="43.70765" lon="3.11753">
        <ele>614.2000122</ele>
        <time>2013-07-07T07:41:24Z</time>
      </trkpt>
      <trkpt lat="43.70761" lon="3.11749">
        <ele>614.5999756</ele>
        <time>2013-07-07T07:41:25Z</time>
      </trkpt>
      <trkpt lat="43.7075" lon="3.11738">
        <ele>614.5999756</ele>
        <time>2013-07-07T07:41:28Z</time>
      </trkpt>
      <trkpt lat="43.70723" lon="3.11716">
        <ele>614.5999756</ele>
        <time>2013-07-07T07:41:35Z</time>
      </trkpt>
      <trkpt lat="43.70695" lon="3.117">
        <ele>614.5999756</ele>
        <time>2013-07-07T07:41:42Z</time>
      </trkpt>
      <trkpt lat="43.7069" lon="3.11696">
        <ele>614.5999756</ele>
        <time>2013-07-07T07:41:43Z</time>
      </trkpt>
      <trkpt lat="43.70684" lon="3.11688">
        <ele>614.5999756</ele>
        <time>2013-07-07T07:41:45Z</time>
      </trkpt>
      <trkpt lat="43.70682" lon="3.11682">
        <ele>614.5999756</ele>
        <time>2013-07-07T07:41:46Z</time>
      </trkpt>
      <trkpt lat="43.70673" lon="3.11659">
        <ele>614.5999756</ele>
        <time>2013-07-07T07:41:50Z</time>
      </trkpt>
      <trkpt lat="43.70667" lon="3.11648">
        <ele>614.5999756</ele>
        <time>2013-07-07T07:41:52Z</time>
      </trkpt>
      <trkpt lat="43.70658" lon="3.11635">
        <ele>614.5999756</ele>
        <time>2013-07-07T07:41:55Z</time>
      </trkpt>
      <trkpt lat="43.70654" lon="3.11623">
        <ele>614.5999756</ele>
        <time>2013-07-07T07:41:57Z</time>
      </trkpt>
      <trkpt lat="43.70652" lon="3.1161">
        <ele>615</ele>
        <time>2013-07-07T07:41:59Z</time>
      </trkpt>
      <trkpt lat="43.70653" lon="3.11603">
        <ele>615.4000244</ele>
        <time>2013-07-07T07:42:00Z</time>
      </trkpt>
      <trkpt lat="43.70654" lon="3.11597">
        <ele>615.7999878</ele>
        <time>2013-07-07T07:42:01Z</time>
      </trkpt>
      <trkpt lat="43.70656" lon="3.1159">
        <ele>616.2000122</ele>
        <time>2013-07-07T07:42:02Z</time>
      </trkpt>
      <trkpt lat="43.70657" lon="3.11584">
        <ele>616.5999756</ele>
        <time>2013-07-07T07:42:03Z</time>
      </trkpt>
      <trkpt lat="43.70659" lon="3.11578">
        <ele>616.5999756</ele>
        <time>2013-07-07T07:42:04Z</time>
      </trkpt>
      <trkpt lat="43.70664" lon="3.11559">
        <ele>616.5999756</ele>
        <time>2013-07-07T07:42:07Z</time>
      </trkpt>
      <trkpt lat="43.70667" lon="3.11545">
        <ele>616.5999756</ele>
        <time>2013-07-07T07:42:09Z</time>
      </trkpt>
      <trkpt lat="43.70672" lon="3.11526">
        <ele>616.5999756</ele>
        <time>2013-07-07T07:42:12Z</time>
      </trkpt>
      <trkpt lat="43.7067" lon="3.11513">
        <ele>616.5999756</ele>
        <time>2013-07-07T07:42:14Z</time>
      </trkpt>
      <trkpt lat="43.70661" lon="3.11506">
        <ele>616.5999756</ele>
        <time>2013-07-07T07:42:16Z</time>
      </trkpt>
      <trkpt lat="43.70653" lon="3.11499">
        <ele>616.5999756</ele>
        <time>2013-07-07T07:42:18Z</time>
      </trkpt>
      <trkpt lat="43.70649" lon="3.11497">
        <ele>616.5999756</ele>
        <time>2013-07-07T07:42:19Z</time>
      </trkpt>
      <trkpt lat="43.70636" lon="3.1149">
        <ele>616.5999756</ele>
        <time>2013-07-07T07:42:22Z</time>
      </trkpt>
      <trkpt lat="43.70606" lon="3.11472">
        <ele>616.5999756</ele>
        <time>2013-07-07T07:42:29Z</time>
      </trkpt>
      <trkpt lat="43.70598" lon="3.11467">
        <ele>617</ele>
        <time>2013-07-07T07:42:31Z</time>
      </trkpt>
      <trkpt lat="43.70595" lon="3.11463">
        <ele>617.4000244</ele>
        <time>2013-07-07T07:42:32Z</time>
      </trkpt>
      <trkpt lat="43.70592" lon="3.1146">
        <ele>617.7999878</ele>
        <time>2013-07-07T07:42:33Z</time>
      </trkpt>
      <trkpt lat="43.70588" lon="3.11456">
        <ele>618.2000122</ele>
        <time>2013-07-07T07:42:34Z</time>
      </trkpt>
      <trkpt lat="43.70585" lon="3.11451">
        <ele>618.7999878</ele>
        <time>2013-07-07T07:42:35Z</time>
      </trkpt>
      <trkpt lat="43.70582" lon="3.11447">
        <ele>618.7999878</ele>
        <time>2013-07-07T07:42:36Z</time>
      </trkpt>
      <trkpt lat="43.70561" lon="3.11427">
        <ele>619.2000122</ele>
        <time>2013-07-07T07:42:42Z</time>
      </trkpt>
      <trkpt lat="43.70557" lon="3.11424">
        <ele>619.5999756</ele>
        <time>2013-07-07T07:42:43Z</time>
      </trkpt>
      <trkpt lat="43.70553" lon="3.11421">
        <ele>620</ele>
        <time>2013-07-07T07:42:44Z</time>
      </trkpt>
      <trkpt lat="43.7055" lon="3.11418">
        <ele>620.4000244</ele>
        <time>2013-07-07T07:42:45Z</time>
      </trkpt>
      <trkpt lat="43.70546" lon="3.11415">
        <ele>620.7999878</ele>
        <time>2013-07-07T07:42:46Z</time>
      </trkpt>
      <trkpt lat="43.70531" lon="3.11405">
        <ele>620.7999878</ele>
        <time>2013-07-07T07:42:50Z</time>
      </trkpt>
      <trkpt lat="43.70523" lon="3.11402">
        <ele>620.7999878</ele>
        <time>2013-07-07T07:42:52Z</time>
      </trkpt>
      <trkpt lat="43.70515" lon="3.114">
        <ele>620.7999878</ele>
        <time>2013-07-07T07:42:54Z</time>
      </trkpt>
      <trkpt lat="43.70513" lon="3.11399">
        <ele>620.7999878</ele>
        <time>2013-07-07T07:42:55Z</time>
      </trkpt>
      <trkpt lat="43.70502" lon="3.11387">
        <ele>620.7999878</ele>
        <time>2013-07-07T07:43:00Z</time>
      </trkpt>
      <trkpt lat="43.705" lon="3.11377">
        <ele>621.2000122</ele>
        <time>2013-07-07T07:43:02Z</time>
      </trkpt>
      <trkpt lat="43.70501" lon="3.11372">
        <ele>621.5999756</ele>
        <time>2013-07-07T07:43:03Z</time>
      </trkpt>
      <trkpt lat="43.70501" lon="3.11368">
        <ele>622</ele>
        <time>2013-07-07T07:43:04Z</time>
      </trkpt>
      <trkpt lat="43.70502" lon="3.11363">
        <ele>622.4000244</ele>
        <time>2013-07-07T07:43:05Z</time>
      </trkpt>
      <trkpt lat="43.70504" lon="3.11359">
        <ele>622.7999878</ele>
        <time>2013-07-07T07:43:06Z</time>
      </trkpt>
      <trkpt lat="43.7051" lon="3.11348">
        <ele>622.7999878</ele>
        <time>2013-07-07T07:43:09Z</time>
      </trkpt>
      <trkpt lat="43.70524" lon="3.11327">
        <ele>622.7999878</ele>
        <time>2013-07-07T07:43:16Z</time>
      </trkpt>
      <trkpt lat="43.70525" lon="3.11324">
        <ele>623.2000122</ele>
        <time>2013-07-07T07:43:17Z</time>
      </trkpt>
      <trkpt lat="43.70526" lon="3.11321">
        <ele>623.5999756</ele>
        <time>2013-07-07T07:43:18Z</time>
      </trkpt>
      <trkpt lat="43.70528" lon="3.11319">
        <ele>624</ele>
        <time>2013-07-07T07:43:19Z</time>
      </trkpt>
      <trkpt lat="43.70529" lon="3.11316">
        <ele>624.4000244</ele>
        <time>2013-07-07T07:43:20Z</time>
      </trkpt>
      <trkpt lat="43.70531" lon="3.11313">
        <ele>624.7999878</ele>
        <time>2013-07-07T07:43:21Z</time>
      </trkpt>
      <trkpt lat="43.70535" lon="3.11308">
        <ele>624.7999878</ele>
        <time>2013-07-07T07:43:23Z</time>
      </trkpt>
      <trkpt lat="43.70557" lon="3.11281">
        <ele>624.7999878</ele>
        <time>2013-07-07T07:43:32Z</time>
      </trkpt>
      <trkpt lat="43.70565" lon="3.11271">
        <ele>625.4000244</ele>
        <time>2013-07-07T07:43:35Z</time>
      </trkpt>
      <trkpt lat="43.70567" lon="3.11268">
        <ele>625.7999878</ele>
        <time>2013-07-07T07:43:36Z</time>
      </trkpt>
      <trkpt lat="43.70569" lon="3.11265">
        <ele>626.2000122</ele>
        <time>2013-07-07T07:43:37Z</time>
      </trkpt>
      <trkpt lat="43.7057" lon="3.11262">
        <ele>626.5999756</ele>
        <time>2013-07-07T07:43:38Z</time>
      </trkpt>
      <trkpt lat="43.70572" lon="3.11258">
        <ele>627.2000122</ele>
        <time>2013-07-07T07:43:39Z</time>
      </trkpt>
      <trkpt lat="43.70576" lon="3.11251">
        <ele>627.2000122</ele>
        <time>2013-07-07T07:43:41Z</time>
      </trkpt>
      <trkpt lat="43.70584" lon="3.11226">
        <ele>627.2000122</ele>
        <time>2013-07-07T07:43:47Z</time>
      </trkpt>
      <trkpt lat="43.70586" lon="3.11215">
        <ele>627.2000122</ele>
        <time>2013-07-07T07:43:50Z</time>
      </trkpt>
      <trkpt lat="43.70586" lon="3.1121">
        <ele>627.5999756</ele>
        <time>2013-07-07T07:43:51Z</time>
      </trkpt>
      <trkpt lat="43.70586" lon="3.11207">
        <ele>628</ele>
        <time>2013-07-07T07:43:52Z</time>
      </trkpt>
      <trkpt lat="43.70587" lon="3.11203">
        <ele>628.4000244</ele>
        <time>2013-07-07T07:43:53Z</time>
      </trkpt>
      <trkpt lat="43.70587" lon="3.11199">
        <ele>629</ele>
        <time>2013-07-07T07:43:54Z</time>
      </trkpt>
      <trkpt lat="43.70588" lon="3.11196">
        <ele>629.4000244</ele>
        <time>2013-07-07T07:43:55Z</time>
      </trkpt>
      <trkpt lat="43.70591" lon="3.11185">
        <ele>629.4000244</ele>
        <time>2013-07-07T07:43:58Z</time>
      </trkpt>
      <trkpt lat="43.70596" lon="3.11161">
        <ele>629.7999878</ele>
        <time>2013-07-07T07:44:04Z</time>
      </trkpt>
      <trkpt lat="43.70595" lon="3.11157">
        <ele>630.2000122</ele>
        <time>2013-07-07T07:44:05Z</time>
      </trkpt>
      <trkpt lat="43.70596" lon="3.11153">
        <ele>630.5999756</ele>
        <time>2013-07-07T07:44:06Z</time>
      </trkpt>
      <trkpt lat="43.70596" lon="3.11148">
        <ele>631</ele>
        <time>2013-07-07T07:44:07Z</time>
      </trkpt>
      <trkpt lat="43.70597" lon="3.11144">
        <ele>631.4000244</ele>
        <time>2013-07-07T07:44:08Z</time>
      </trkpt>
      <trkpt lat="43.70597" lon="3.1114">
        <ele>631.4000244</ele>
        <time>2013-07-07T07:44:09Z</time>
      </trkpt>
      <trkpt lat="43.70603" lon="3.11111">
        <ele>631.4000244</ele>
        <time>2013-07-07T07:44:16Z</time>
      </trkpt>
      <trkpt lat="43.70608" lon="3.11101">
        <ele>631.7999878</ele>
        <time>2013-07-07T07:44:19Z</time>
      </trkpt>
      <trkpt lat="43.7061" lon="3.11097">
        <ele>632.2000122</ele>
        <time>2013-07-07T07:44:20Z</time>
      </trkpt>
      <trkpt lat="43.70612" lon="3.11093">
        <ele>632.5999756</ele>
        <time>2013-07-07T07:44:21Z</time>
      </trkpt>
      <trkpt lat="43.70613" lon="3.1109">
        <ele>633</ele>
        <time>2013-07-07T07:44:22Z</time>
      </trkpt>
      <trkpt lat="43.70617" lon="3.11087">
        <ele>633.4000244</ele>
        <time>2013-07-07T07:44:23Z</time>
      </trkpt>
      <trkpt lat="43.70621" lon="3.1108">
        <ele>633.4000244</ele>
        <time>2013-07-07T07:44:25Z</time>
      </trkpt>
      <trkpt lat="43.70631" lon="3.11053">
        <ele>633.7999878</ele>
        <time>2013-07-07T07:44:32Z</time>
      </trkpt>
      <trkpt lat="43.70632" lon="3.11049">
        <ele>634.2000122</ele>
        <time>2013-07-07T07:44:33Z</time>
      </trkpt>
      <trkpt lat="43.70632" lon="3.11044">
        <ele>634.7999878</ele>
        <time>2013-07-07T07:44:34Z</time>
      </trkpt>
      <trkpt lat="43.70632" lon="3.1104">
        <ele>635.2000122</ele>
        <time>2013-07-07T07:44:35Z</time>
      </trkpt>
      <trkpt lat="43.70632" lon="3.11036">
        <ele>635.5999756</ele>
        <time>2013-07-07T07:44:36Z</time>
      </trkpt>
      <trkpt lat="43.70635" lon="3.11028">
        <ele>635.5999756</ele>
        <time>2013-07-07T07:44:38Z</time>
      </trkpt>
      <trkpt lat="43.70643" lon="3.11008">
        <ele>635.5999756</ele>
        <time>2013-07-07T07:44:44Z</time>
      </trkpt>
      <trkpt lat="43.70645" lon="3.11002">
        <ele>636</ele>
        <time>2013-07-07T07:44:46Z</time>
      </trkpt>
      <trkpt lat="43.70646" lon="3.10998">
        <ele>636.4000244</ele>
        <time>2013-07-07T07:44:47Z</time>
      </trkpt>
      <trkpt lat="43.70648" lon="3.10995">
        <ele>636.7999878</ele>
        <time>2013-07-07T07:44:48Z</time>
      </trkpt>
      <trkpt lat="43.7065" lon="3.10993">
        <ele>637.4000244</ele>
        <time>2013-07-07T07:44:49Z</time>
      </trkpt>
      <trkpt lat="43.70652" lon="3.1099">
        <ele>637.7999878</ele>
        <time>2013-07-07T07:44:50Z</time>
      </trkpt>
      <trkpt lat="43.70672" lon="3.10967">
        <ele>637.7999878</ele>
        <time>2013-07-07T07:44:57Z</time>
      </trkpt>
      <trkpt lat="43.70686" lon="3.10949">
        <ele>638.2000122</ele>
        <time>2013-07-07T07:45:03Z</time>
      </trkpt>
      <trkpt lat="43.70688" lon="3.10947">
        <ele>638.5999756</ele>
        <time>2013-07-07T07:45:04Z</time>
      </trkpt>
      <trkpt lat="43.70691" lon="3.10945">
        <ele>639</ele>
        <time>2013-07-07T07:45:05Z</time>
      </trkpt>
      <trkpt lat="43.70693" lon="3.10944">
        <ele>639.4000244</ele>
        <time>2013-07-07T07:45:06Z</time>
      </trkpt>
      <trkpt lat="43.70696" lon="3.10944">
        <ele>639.7999878</ele>
        <time>2013-07-07T07:45:07Z</time>
      </trkpt>
      <trkpt lat="43.70699" lon="3.10944">
        <ele>639.7999878</ele>
        <time>2013-07-07T07:45:08Z</time>
      </trkpt>
      <trkpt lat="43.7072" lon="3.10946">
        <ele>639.7999878</ele>
        <time>2013-07-07T07:45:13Z</time>
      </trkpt>
      <trkpt lat="43.70744" lon="3.10948">
        <ele>640.2000122</ele>
        <time>2013-07-07T07:45:20Z</time>
      </trkpt>
      <trkpt lat="43.70747" lon="3.10947">
        <ele>640.5999756</ele>
        <time>2013-07-07T07:45:21Z</time>
      </trkpt>
      <trkpt lat="43.7075" lon="3.10946">
        <ele>641</ele>
        <time>2013-07-07T07:45:22Z</time>
      </trkpt>
      <trkpt lat="43.70753" lon="3.10944">
        <ele>641.4000244</ele>
        <time>2013-07-07T07:45:23Z</time>
      </trkpt>
      <trkpt lat="43.70755" lon="3.10942">
        <ele>641.7999878</ele>
        <time>2013-07-07T07:45:24Z</time>
      </trkpt>
      <trkpt lat="43.70762" lon="3.10938">
        <ele>641.7999878</ele>
        <time>2013-07-07T07:45:27Z</time>
      </trkpt>
      <trkpt lat="43.70769" lon="3.10934">
        <ele>642.2000122</ele>
        <time>2013-07-07T07:45:30Z</time>
      </trkpt>
      <trkpt lat="43.70771" lon="3.10933">
        <ele>642.5999756</ele>
        <time>2013-07-07T07:45:31Z</time>
      </trkpt>
      <trkpt lat="43.70773" lon="3.10933">
        <ele>643</ele>
        <time>2013-07-07T07:45:32Z</time>
      </trkpt>
      <trkpt lat="43.70775" lon="3.10934">
        <ele>643.7999878</ele>
        <time>2013-07-07T07:45:33Z</time>
      </trkpt>
      <trkpt lat="43.70791" lon="3.10923">
        <ele>643.7999878</ele>
        <time>2013-07-07T07:45:38Z</time>
      </trkpt>
      <trkpt lat="43.70805" lon="3.10911">
        <ele>644.4000244</ele>
        <time>2013-07-07T07:45:42Z</time>
      </trkpt>
      <trkpt lat="43.70808" lon="3.10909">
        <ele>644.7999878</ele>
        <time>2013-07-07T07:45:43Z</time>
      </trkpt>
      <trkpt lat="43.70811" lon="3.10906">
        <ele>645.2000122</ele>
        <time>2013-07-07T07:45:44Z</time>
      </trkpt>
      <trkpt lat="43.70813" lon="3.10903">
        <ele>645.5999756</ele>
        <time>2013-07-07T07:45:45Z</time>
      </trkpt>
      <trkpt lat="43.70814" lon="3.109">
        <ele>646</ele>
        <time>2013-07-07T07:45:46Z</time>
      </trkpt>
      <trkpt lat="43.70819" lon="3.10888">
        <ele>646</ele>
        <time>2013-07-07T07:45:49Z</time>
      </trkpt>
      <trkpt lat="43.70819" lon="3.10885">
        <ele>646</ele>
        <time>2013-07-07T07:45:50Z</time>
      </trkpt>
      <trkpt lat="43.70817" lon="3.10865">
        <ele>646.5999756</ele>
        <time>2013-07-07T07:45:55Z</time>
      </trkpt>
      <trkpt lat="43.70817" lon="3.10862">
        <ele>647</ele>
        <time>2013-07-07T07:45:56Z</time>
      </trkpt>
      <trkpt lat="43.70817" lon="3.10858">
        <ele>647.4000244</ele>
        <time>2013-07-07T07:45:57Z</time>
      </trkpt>
      <trkpt lat="43.70817" lon="3.10855">
        <ele>648.2000122</ele>
        <time>2013-07-07T07:45:58Z</time>
      </trkpt>
      <trkpt lat="43.70814" lon="3.10839">
        <ele>648.2000122</ele>
        <time>2013-07-07T07:46:02Z</time>
      </trkpt>
      <trkpt lat="43.70808" lon="3.1083">
        <ele>648.7999878</ele>
        <time>2013-07-07T07:46:04Z</time>
      </trkpt>
      <trkpt lat="43.70806" lon="3.10826">
        <ele>649.2000122</ele>
        <time>2013-07-07T07:46:05Z</time>
      </trkpt>
      <trkpt lat="43.70803" lon="3.10821">
        <ele>649.5999756</ele>
        <time>2013-07-07T07:46:06Z</time>
      </trkpt>
      <trkpt lat="43.70801" lon="3.10817">
        <ele>650</ele>
        <time>2013-07-07T07:46:07Z</time>
      </trkpt>
      <trkpt lat="43.70798" lon="3.10813">
        <ele>650.4000244</ele>
        <time>2013-07-07T07:46:08Z</time>
      </trkpt>
      <trkpt lat="43.70778" lon="3.10791">
        <ele>650.4000244</ele>
        <time>2013-07-07T07:46:15Z</time>
      </trkpt>
      <trkpt lat="43.7077" lon="3.10785">
        <ele>650.7999878</ele>
        <time>2013-07-07T07:46:18Z</time>
      </trkpt>
      <trkpt lat="43.70768" lon="3.10783">
        <ele>651.2000122</ele>
        <time>2013-07-07T07:46:19Z</time>
      </trkpt>
      <trkpt lat="43.70765" lon="3.10781">
        <ele>651.7999878</ele>
        <time>2013-07-07T07:46:20Z</time>
      </trkpt>
      <trkpt lat="43.70763" lon="3.10779">
        <ele>652.2000122</ele>
        <time>2013-07-07T07:46:21Z</time>
      </trkpt>
      <trkpt lat="43.7076" lon="3.10777">
        <ele>652.5999756</ele>
        <time>2013-07-07T07:46:22Z</time>
      </trkpt>
      <trkpt lat="43.70748" lon="3.10767">
        <ele>653</ele>
        <time>2013-07-07T07:46:27Z</time>
      </trkpt>
      <trkpt lat="43.70747" lon="3.10765">
        <ele>653.4000244</ele>
        <time>2013-07-07T07:46:28Z</time>
      </trkpt>
      <trkpt lat="43.70744" lon="3.10761">
        <ele>654</ele>
        <time>2013-07-07T07:46:29Z</time>
      </trkpt>
      <trkpt lat="43.70742" lon="3.10759">
        <ele>654.4000244</ele>
        <time>2013-07-07T07:46:30Z</time>
      </trkpt>
      <trkpt lat="43.70741" lon="3.10756">
        <ele>654.7999878</ele>
        <time>2013-07-07T07:46:31Z</time>
      </trkpt>
      <trkpt lat="43.70741" lon="3.10752">
        <ele>654.7999878</ele>
        <time>2013-07-07T07:46:32Z</time>
      </trkpt>
      <trkpt lat="43.70744" lon="3.10732">
        <ele>654.7999878</ele>
        <time>2013-07-07T07:46:37Z</time>
      </trkpt>
      <trkpt lat="43.70745" lon="3.10728">
        <ele>655.2000122</ele>
        <time>2013-07-07T07:46:38Z</time>
      </trkpt>
      <trkpt lat="43.70746" lon="3.10725">
        <ele>655.5999756</ele>
        <time>2013-07-07T07:46:39Z</time>
      </trkpt>
      <trkpt lat="43.70747" lon="3.10721">
        <ele>656</ele>
        <time>2013-07-07T07:46:40Z</time>
      </trkpt>
      <trkpt lat="43.70747" lon="3.10717">
        <ele>656.4000244</ele>
        <time>2013-07-07T07:46:41Z</time>
      </trkpt>
      <trkpt lat="43.70747" lon="3.10713">
        <ele>656.7999878</ele>
        <time>2013-07-07T07:46:42Z</time>
      </trkpt>
      <trkpt lat="43.70747" lon="3.1071">
        <ele>656.7999878</ele>
        <time>2013-07-07T07:46:43Z</time>
      </trkpt>
      <trkpt lat="43.70751" lon="3.10691">
        <ele>657.2000122</ele>
        <time>2013-07-07T07:46:49Z</time>
      </trkpt>
      <trkpt lat="43.70752" lon="3.10688">
        <ele>657.5999756</ele>
        <time>2013-07-07T07:46:50Z</time>
      </trkpt>
      <trkpt lat="43.70753" lon="3.10685">
        <ele>658.2000122</ele>
        <time>2013-07-07T07:46:51Z</time>
      </trkpt>
      <trkpt lat="43.70754" lon="3.10682">
        <ele>658.5999756</ele>
        <time>2013-07-07T07:46:52Z</time>
      </trkpt>
      <trkpt lat="43.70755" lon="3.10679">
        <ele>659</ele>
        <time>2013-07-07T07:46:53Z</time>
      </trkpt>
      <trkpt lat="43.70759" lon="3.10672">
        <ele>659</ele>
        <time>2013-07-07T07:46:55Z</time>
      </trkpt>
      <trkpt lat="43.70759" lon="3.10668">
        <ele>659.4000244</ele>
        <time>2013-07-07T07:46:56Z</time>
      </trkpt>
      <trkpt lat="43.70759" lon="3.10665">
        <ele>659.7999878</ele>
        <time>2013-07-07T07:46:57Z</time>
      </trkpt>
      <trkpt lat="43.70759" lon="3.1066">
        <ele>660.2000122</ele>
        <time>2013-07-07T07:46:58Z</time>
      </trkpt>
      <trkpt lat="43.70759" lon="3.10656">
        <ele>660.5999756</ele>
        <time>2013-07-07T07:46:59Z</time>
      </trkpt>
      <trkpt lat="43.70759" lon="3.10653">
        <ele>661</ele>
        <time>2013-07-07T07:47:00Z</time>
      </trkpt>
      <trkpt lat="43.70759" lon="3.10642">
        <ele>661.4000244</ele>
        <time>2013-07-07T07:47:03Z</time>
      </trkpt>
      <trkpt lat="43.70759" lon="3.10638">
        <ele>661.7999878</ele>
        <time>2013-07-07T07:47:04Z</time>
      </trkpt>
      <trkpt lat="43.70758" lon="3.10635">
        <ele>662.2000122</ele>
        <time>2013-07-07T07:47:05Z</time>
      </trkpt>
      <trkpt lat="43.70757" lon="3.10631">
        <ele>662.5999756</ele>
        <time>2013-07-07T07:47:06Z</time>
      </trkpt>
      <trkpt lat="43.70756" lon="3.10628">
        <ele>663.2000122</ele>
        <time>2013-07-07T07:47:07Z</time>
      </trkpt>
      <trkpt lat="43.7075" lon="3.10617">
        <ele>663.5999756</ele>
        <time>2013-07-07T07:47:12Z</time>
      </trkpt>
      <trkpt lat="43.70751" lon="3.10616">
        <ele>664</ele>
        <time>2013-07-07T07:47:13Z</time>
      </trkpt>
      <trkpt lat="43.70751" lon="3.10615">
        <ele>664.4000244</ele>
        <time>2013-07-07T07:47:14Z</time>
      </trkpt>
      <trkpt lat="43.70751" lon="3.10615">
        <ele>664.7999878</ele>
        <time>2013-07-07T07:47:15Z</time>
      </trkpt>
      <trkpt lat="43.70751" lon="3.10615">
        <ele>665.2000122</ele>
        <time>2013-07-07T07:47:16Z</time>
      </trkpt>
      <trkpt lat="43.70754" lon="3.10609">
        <ele>666</ele>
        <time>2013-07-07T07:51:04Z</time>
      </trkpt>
      <trkpt lat="43.70755" lon="3.10607">
        <ele>666</ele>
        <time>2013-07-07T07:51:05Z</time>
      </trkpt>
      <trkpt lat="43.70759" lon="3.10594">
        <ele>665.5999756</ele>
        <time>2013-07-07T07:51:09Z</time>
      </trkpt>
      <trkpt lat="43.7076" lon="3.10589">
        <ele>665.2000122</ele>
        <time>2013-07-07T07:51:10Z</time>
      </trkpt>
      <trkpt lat="43.70761" lon="3.10583">
        <ele>664.7999878</ele>
        <time>2013-07-07T07:51:11Z</time>
      </trkpt>
      <trkpt lat="43.70763" lon="3.10575">
        <ele>664.4000244</ele>
        <time>2013-07-07T07:51:12Z</time>
      </trkpt>
      <trkpt lat="43.70766" lon="3.10568">
        <ele>663.7999878</ele>
        <time>2013-07-07T07:51:13Z</time>
      </trkpt>
      <trkpt lat="43.70769" lon="3.1056">
        <ele>663.7999878</ele>
        <time>2013-07-07T07:51:14Z</time>
      </trkpt>
      <trkpt lat="43.70773" lon="3.10553">
        <ele>663.4000244</ele>
        <time>2013-07-07T07:51:15Z</time>
      </trkpt>
      <trkpt lat="43.70778" lon="3.10546">
        <ele>663</ele>
        <time>2013-07-07T07:51:16Z</time>
      </trkpt>
      <trkpt lat="43.70784" lon="3.10539">
        <ele>662.5999756</ele>
        <time>2013-07-07T07:51:17Z</time>
      </trkpt>
      <trkpt lat="43.70789" lon="3.10532">
        <ele>662</ele>
        <time>2013-07-07T07:51:18Z</time>
      </trkpt>
      <trkpt lat="43.70796" lon="3.10524">
        <ele>661.5999756</ele>
        <time>2013-07-07T07:51:19Z</time>
      </trkpt>
      <trkpt lat="43.70801" lon="3.10517">
        <ele>660.4000244</ele>
        <time>2013-07-07T07:51:20Z</time>
      </trkpt>
      <trkpt lat="43.70807" lon="3.10511">
        <ele>659.7999878</ele>
        <time>2013-07-07T07:51:21Z</time>
      </trkpt>
      <trkpt lat="43.70813" lon="3.10504">
        <ele>659.4000244</ele>
        <time>2013-07-07T07:51:22Z</time>
      </trkpt>
      <trkpt lat="43.7082" lon="3.10499">
        <ele>658.7999878</ele>
        <time>2013-07-07T07:51:23Z</time>
      </trkpt>
      <trkpt lat="43.70827" lon="3.10494">
        <ele>658.4000244</ele>
        <time>2013-07-07T07:51:24Z</time>
      </trkpt>
      <trkpt lat="43.70836" lon="3.1049">
        <ele>657.7999878</ele>
        <time>2013-07-07T07:51:25Z</time>
      </trkpt>
      <trkpt lat="43.70844" lon="3.10487">
        <ele>657.4000244</ele>
        <time>2013-07-07T07:51:26Z</time>
      </trkpt>
      <trkpt lat="43.70852" lon="3.10484">
        <ele>657</ele>
        <time>2013-07-07T07:51:27Z</time>
      </trkpt>
      <trkpt lat="43.70861" lon="3.1048">
        <ele>656.4000244</ele>
        <time>2013-07-07T07:51:28Z</time>
      </trkpt>
      <trkpt lat="43.70869" lon="3.10475">
        <ele>656</ele>
        <time>2013-07-07T07:51:29Z</time>
      </trkpt>
      <trkpt lat="43.70877" lon="3.1047">
        <ele>655.4000244</ele>
        <time>2013-07-07T07:51:30Z</time>
      </trkpt>
      <trkpt lat="43.70885" lon="3.10465">
        <ele>655</ele>
        <time>2013-07-07T07:51:31Z</time>
      </trkpt>
      <trkpt lat="43.70893" lon="3.10458">
        <ele>654.4000244</ele>
        <time>2013-07-07T07:51:32Z</time>
      </trkpt>
      <trkpt lat="43.70899" lon="3.10448">
        <ele>653.7999878</ele>
        <time>2013-07-07T07:51:33Z</time>
      </trkpt>
      <trkpt lat="43.70905" lon="3.10437">
        <ele>653.2000122</ele>
        <time>2013-07-07T07:51:34Z</time>
      </trkpt>
      <trkpt lat="43.70909" lon="3.10424">
        <ele>652.5999756</ele>
        <time>2013-07-07T07:51:35Z</time>
      </trkpt>
      <trkpt lat="43.7091" lon="3.10411">
        <ele>652</ele>
        <time>2013-07-07T07:51:36Z</time>
      </trkpt>
      <trkpt lat="43.7091" lon="3.10397">
        <ele>651.5999756</ele>
        <time>2013-07-07T07:51:37Z</time>
      </trkpt>
      <trkpt lat="43.70911" lon="3.10384">
        <ele>651.2000122</ele>
        <time>2013-07-07T07:51:38Z</time>
      </trkpt>
      <trkpt lat="43.70913" lon="3.10372">
        <ele>650.7999878</ele>
        <time>2013-07-07T07:51:39Z</time>
      </trkpt>
      <trkpt lat="43.70915" lon="3.10359">
        <ele>650.2000122</ele>
        <time>2013-07-07T07:51:40Z</time>
      </trkpt>
      <trkpt lat="43.70914" lon="3.10347">
        <ele>649.4000244</ele>
        <time>2013-07-07T07:51:41Z</time>
      </trkpt>
      <trkpt lat="43.70916" lon="3.10335">
        <ele>648.7999878</ele>
        <time>2013-07-07T07:51:42Z</time>
      </trkpt>
      <trkpt lat="43.70919" lon="3.10323">
        <ele>648</ele>
        <time>2013-07-07T07:51:43Z</time>
      </trkpt>
      <trkpt lat="43.70924" lon="3.10312">
        <ele>647.4000244</ele>
        <time>2013-07-07T07:51:44Z</time>
      </trkpt>
      <trkpt lat="43.70929" lon="3.103">
        <ele>645.7999878</ele>
        <time>2013-07-07T07:51:45Z</time>
      </trkpt>
      <trkpt lat="43.70934" lon="3.10288">
        <ele>645.2000122</ele>
        <time>2013-07-07T07:51:46Z</time>
      </trkpt>
      <trkpt lat="43.70939" lon="3.10275">
        <ele>644.5999756</ele>
        <time>2013-07-07T07:51:47Z</time>
      </trkpt>
      <trkpt lat="43.70942" lon="3.10261">
        <ele>644</ele>
        <time>2013-07-07T07:51:48Z</time>
      </trkpt>
      <trkpt lat="43.70944" lon="3.10248">
        <ele>643.4000244</ele>
        <time>2013-07-07T07:51:49Z</time>
      </trkpt>
      <trkpt lat="43.70946" lon="3.10234">
        <ele>642.7999878</ele>
        <time>2013-07-07T07:51:50Z</time>
      </trkpt>
      <trkpt lat="43.70947" lon="3.10221">
        <ele>642.2000122</ele>
        <time>2013-07-07T07:51:51Z</time>
      </trkpt>
      <trkpt lat="43.70948" lon="3.10209">
        <ele>641.7999878</ele>
        <time>2013-07-07T07:51:52Z</time>
      </trkpt>
      <trkpt lat="43.70948" lon="3.10197">
        <ele>641</ele>
        <time>2013-07-07T07:51:53Z</time>
      </trkpt>
      <trkpt lat="43.70948" lon="3.10184">
        <ele>640.4000244</ele>
        <time>2013-07-07T07:51:54Z</time>
      </trkpt>
      <trkpt lat="43.70947" lon="3.1017">
        <ele>639.7999878</ele>
        <time>2013-07-07T07:51:55Z</time>
      </trkpt>
      <trkpt lat="43.70945" lon="3.10157">
        <ele>639.2000122</ele>
        <time>2013-07-07T07:51:56Z</time>
      </trkpt>
      <trkpt lat="43.70942" lon="3.10144">
        <ele>638.5999756</ele>
        <time>2013-07-07T07:51:57Z</time>
      </trkpt>
      <trkpt lat="43.70939" lon="3.10131">
        <ele>637.7999878</ele>
        <time>2013-07-07T07:51:58Z</time>
      </trkpt>
      <trkpt lat="43.70935" lon="3.10117">
        <ele>637.2000122</ele>
        <time>2013-07-07T07:51:59Z</time>
      </trkpt>
      <trkpt lat="43.70862" lon="3.10119">
        <ele>636.5999756</ele>
        <time>2013-07-07T07:52:00Z</time>
      </trkpt>
      <trkpt lat="43.70857" lon="3.10105">
        <ele>635.7999878</ele>
        <time>2013-07-07T07:52:01Z</time>
      </trkpt>
      <trkpt lat="43.70852" lon="3.10094">
        <ele>635.2000122</ele>
        <time>2013-07-07T07:52:02Z</time>
      </trkpt>
      <trkpt lat="43.70848" lon="3.10085">
        <ele>634.4000244</ele>
        <time>2013-07-07T07:52:03Z</time>
      </trkpt>
      <trkpt lat="43.70845" lon="3.10076">
        <ele>633.7999878</ele>
        <time>2013-07-07T07:52:04Z</time>
      </trkpt>
      <trkpt lat="43.70843" lon="3.10068">
        <ele>633.7999878</ele>
        <time>2013-07-07T07:52:05Z</time>
      </trkpt>
      <trkpt lat="43.70838" lon="3.10048">
        <ele>633.7999878</ele>
        <time>2013-07-07T07:52:08Z</time>
      </trkpt>
      <trkpt lat="43.70837" lon="3.10044">
        <ele>633.7999878</ele>
        <time>2013-07-07T07:52:09Z</time>
      </trkpt>
      <trkpt lat="43.70832" lon="3.10025">
        <ele>633.7999878</ele>
        <time>2013-07-07T07:52:13Z</time>
      </trkpt>
      <trkpt lat="43.7083" lon="3.10017">
        <ele>634.2000122</ele>
        <time>2013-07-07T07:52:15Z</time>
      </trkpt>
      <trkpt lat="43.70829" lon="3.10013">
        <ele>634.5999756</ele>
        <time>2013-07-07T07:52:16Z</time>
      </trkpt>
      <trkpt lat="43.70828" lon="3.10008">
        <ele>635</ele>
        <time>2013-07-07T07:52:17Z</time>
      </trkpt>
      <trkpt lat="43.70827" lon="3.10004">
        <ele>635.4000244</ele>
        <time>2013-07-07T07:52:18Z</time>
      </trkpt>
      <trkpt lat="43.70825" lon="3.1">
        <ele>635.7999878</ele>
        <time>2013-07-07T07:52:19Z</time>
      </trkpt>
      <trkpt lat="43.70823" lon="3.09987">
        <ele>635.7999878</ele>
        <time>2013-07-07T07:52:22Z</time>
      </trkpt>
      <trkpt lat="43.70824" lon="3.09978">
        <ele>636.2000122</ele>
        <time>2013-07-07T07:52:24Z</time>
      </trkpt>
      <trkpt lat="43.70825" lon="3.09974">
        <ele>636.5999756</ele>
        <time>2013-07-07T07:52:25Z</time>
      </trkpt>
      <trkpt lat="43.70827" lon="3.09971">
        <ele>637</ele>
        <time>2013-07-07T07:52:26Z</time>
      </trkpt>
      <trkpt lat="43.70828" lon="3.09968">
        <ele>637.4000244</ele>
        <time>2013-07-07T07:52:27Z</time>
      </trkpt>
      <trkpt lat="43.7083" lon="3.09965">
        <ele>638</ele>
        <time>2013-07-07T07:52:28Z</time>
      </trkpt>
      <trkpt lat="43.7084" lon="3.09954">
        <ele>638</ele>
        <time>2013-07-07T07:52:32Z</time>
      </trkpt>
      <trkpt lat="43.70856" lon="3.09939">
        <ele>638</ele>
        <time>2013-07-07T07:52:38Z</time>
      </trkpt>
      <trkpt lat="43.70861" lon="3.09934">
        <ele>638.4000244</ele>
        <time>2013-07-07T07:52:40Z</time>
      </trkpt>
      <trkpt lat="43.70863" lon="3.09932">
        <ele>638.7999878</ele>
        <time>2013-07-07T07:52:41Z</time>
      </trkpt>
      <trkpt lat="43.70865" lon="3.09929">
        <ele>639.2000122</ele>
        <time>2013-07-07T07:52:42Z</time>
      </trkpt>
      <trkpt lat="43.70867" lon="3.09926">
        <ele>639.5999756</ele>
        <time>2013-07-07T07:52:43Z</time>
      </trkpt>
      <trkpt lat="43.70869" lon="3.09924">
        <ele>640.2000122</ele>
        <time>2013-07-07T07:52:44Z</time>
      </trkpt>
      <trkpt lat="43.70885" lon="3.09905">
        <ele>640.2000122</ele>
        <time>2013-07-07T07:52:52Z</time>
      </trkpt>
      <trkpt lat="43.7089" lon="3.09897">
        <ele>640.5999756</ele>
        <time>2013-07-07T07:52:55Z</time>
      </trkpt>
      <trkpt lat="43.70892" lon="3.09895">
        <ele>641</ele>
        <time>2013-07-07T07:52:56Z</time>
      </trkpt>
      <trkpt lat="43.70893" lon="3.09892">
        <ele>641.4000244</ele>
        <time>2013-07-07T07:52:57Z</time>
      </trkpt>
      <trkpt lat="43.70894" lon="3.0989">
        <ele>641.7999878</ele>
        <time>2013-07-07T07:52:58Z</time>
      </trkpt>
      <trkpt lat="43.70895" lon="3.09887">
        <ele>642.2000122</ele>
        <time>2013-07-07T07:52:59Z</time>
      </trkpt>
      <trkpt lat="43.70903" lon="3.09874">
        <ele>642.2000122</ele>
        <time>2013-07-07T07:53:04Z</time>
      </trkpt>
      <trkpt lat="43.70914" lon="3.09849">
        <ele>642.2000122</ele>
        <time>2013-07-07T07:53:11Z</time>
      </trkpt>
      <trkpt lat="43.70915" lon="3.09844">
        <ele>642.5999756</ele>
        <time>2013-07-07T07:53:12Z</time>
      </trkpt>
      <trkpt lat="43.70916" lon="3.0984">
        <ele>643</ele>
        <time>2013-07-07T07:53:13Z</time>
      </trkpt>
      <trkpt lat="43.70917" lon="3.09837">
        <ele>643.5999756</ele>
        <time>2013-07-07T07:53:14Z</time>
      </trkpt>
      <trkpt lat="43.70919" lon="3.09833">
        <ele>644</ele>
        <time>2013-07-07T07:53:15Z</time>
      </trkpt>
      <trkpt lat="43.7092" lon="3.09829">
        <ele>644.4000244</ele>
        <time>2013-07-07T07:53:16Z</time>
      </trkpt>
      <trkpt lat="43.70923" lon="3.09822">
        <ele>644.4000244</ele>
        <time>2013-07-07T07:53:18Z</time>
      </trkpt>
      <trkpt lat="43.70934" lon="3.09796">
        <ele>644.4000244</ele>
        <time>2013-07-07T07:53:25Z</time>
      </trkpt>
      <trkpt lat="43.70935" lon="3.09793">
        <ele>644.7999878</ele>
        <time>2013-07-07T07:53:26Z</time>
      </trkpt>
      <trkpt lat="43.70936" lon="3.09789">
        <ele>645.2000122</ele>
        <time>2013-07-07T07:53:27Z</time>
      </trkpt>
      <trkpt lat="43.70937" lon="3.09786">
        <ele>645.5999756</ele>
        <time>2013-07-07T07:53:28Z</time>
      </trkpt>
      <trkpt lat="43.70938" lon="3.09782">
        <ele>646.2000122</ele>
        <time>2013-07-07T07:53:29Z</time>
      </trkpt>
      <trkpt lat="43.7094" lon="3.09778">
        <ele>646.5999756</ele>
        <time>2013-07-07T07:53:30Z</time>
      </trkpt>
      <trkpt lat="43.70944" lon="3.09765">
        <ele>646.5999756</ele>
        <time>2013-07-07T07:53:33Z</time>
      </trkpt>
      <trkpt lat="43.70957" lon="3.09731">
        <ele>646.5999756</ele>
        <time>2013-07-07T07:53:41Z</time>
      </trkpt>
      <trkpt lat="43.70966" lon="3.09707">
        <ele>647</ele>
        <time>2013-07-07T07:53:47Z</time>
      </trkpt>
      <trkpt lat="43.70968" lon="3.09704">
        <ele>647.7999878</ele>
        <time>2013-07-07T07:53:48Z</time>
      </trkpt>
      <trkpt lat="43.70969" lon="3.097">
        <ele>648.2000122</ele>
        <time>2013-07-07T07:53:49Z</time>
      </trkpt>
      <trkpt lat="43.7097" lon="3.09696">
        <ele>648.5999756</ele>
        <time>2013-07-07T07:53:50Z</time>
      </trkpt>
      <trkpt lat="43.70977" lon="3.09676">
        <ele>648.5999756</ele>
        <time>2013-07-07T07:53:56Z</time>
      </trkpt>
      <trkpt lat="43.7098" lon="3.09667">
        <ele>649.2000122</ele>
        <time>2013-07-07T07:53:59Z</time>
      </trkpt>
      <trkpt lat="43.70982" lon="3.09664">
        <ele>649.5999756</ele>
        <time>2013-07-07T07:54:00Z</time>
      </trkpt>
      <trkpt lat="43.70984" lon="3.09661">
        <ele>650</ele>
        <time>2013-07-07T07:54:01Z</time>
      </trkpt>
      <trkpt lat="43.70986" lon="3.09658">
        <ele>650.4000244</ele>
        <time>2013-07-07T07:54:02Z</time>
      </trkpt>
      <trkpt lat="43.70988" lon="3.09656">
        <ele>650.7999878</ele>
        <time>2013-07-07T07:54:03Z</time>
      </trkpt>
      <trkpt lat="43.70998" lon="3.0964">
        <ele>651.2000122</ele>
        <time>2013-07-07T07:54:09Z</time>
      </trkpt>
      <trkpt lat="43.71" lon="3.09637">
        <ele>651.5999756</ele>
        <time>2013-07-07T07:54:10Z</time>
      </trkpt>
      <trkpt lat="43.71001" lon="3.09635">
        <ele>652</ele>
        <time>2013-07-07T07:54:11Z</time>
      </trkpt>
      <trkpt lat="43.71002" lon="3.09633">
        <ele>652.4000244</ele>
        <time>2013-07-07T07:54:12Z</time>
      </trkpt>
      <trkpt lat="43.71004" lon="3.09631">
        <ele>653</ele>
        <time>2013-07-07T07:54:13Z</time>
      </trkpt>
      <trkpt lat="43.71007" lon="3.09627">
        <ele>653</ele>
        <time>2013-07-07T07:54:15Z</time>
      </trkpt>
      <trkpt lat="43.7101" lon="3.0962">
        <ele>653</ele>
        <time>2013-07-07T07:54:18Z</time>
      </trkpt>
      <trkpt lat="43.71011" lon="3.09611">
        <ele>653</ele>
        <time>2013-07-07T07:54:21Z</time>
      </trkpt>
      <trkpt lat="43.71011" lon="3.09607">
        <ele>653.4000244</ele>
        <time>2013-07-07T07:54:22Z</time>
      </trkpt>
      <trkpt lat="43.7101" lon="3.09602">
        <ele>653.7999878</ele>
        <time>2013-07-07T07:54:23Z</time>
      </trkpt>
      <trkpt lat="43.71009" lon="3.09598">
        <ele>654.2000122</ele>
        <time>2013-07-07T07:54:24Z</time>
      </trkpt>
      <trkpt lat="43.71007" lon="3.09594">
        <ele>654.5999756</ele>
        <time>2013-07-07T07:54:25Z</time>
      </trkpt>
      <trkpt lat="43.71004" lon="3.0959">
        <ele>655</ele>
        <time>2013-07-07T07:54:26Z</time>
      </trkpt>
      <trkpt lat="43.70989" lon="3.09576">
        <ele>655</ele>
        <time>2013-07-07T07:54:31Z</time>
      </trkpt>
      <trkpt lat="43.70964" lon="3.09556">
        <ele>655</ele>
        <time>2013-07-07T07:54:39Z</time>
      </trkpt>
      <trkpt lat="43.70949" lon="3.09534">
        <ele>655</ele>
        <time>2013-07-07T07:54:45Z</time>
      </trkpt>
      <trkpt lat="43.70933" lon="3.09508">
        <ele>655</ele>
        <time>2013-07-07T07:54:52Z</time>
      </trkpt>
      <trkpt lat="43.70922" lon="3.09495">
        <ele>655.4000244</ele>
        <time>2013-07-07T07:54:56Z</time>
      </trkpt>
      <trkpt lat="43.70919" lon="3.09492">
        <ele>656</ele>
        <time>2013-07-07T07:54:57Z</time>
      </trkpt>
      <trkpt lat="43.70916" lon="3.09489">
        <ele>656.4000244</ele>
        <time>2013-07-07T07:54:58Z</time>
      </trkpt>
      <trkpt lat="43.70913" lon="3.09486">
        <ele>656.7999878</ele>
        <time>2013-07-07T07:54:59Z</time>
      </trkpt>
      <trkpt lat="43.7091" lon="3.09482">
        <ele>657.2000122</ele>
        <time>2013-07-07T07:55:00Z</time>
      </trkpt>
      <trkpt lat="43.70907" lon="3.0948">
        <ele>657.2000122</ele>
        <time>2013-07-07T07:55:01Z</time>
      </trkpt>
      <trkpt lat="43.70888" lon="3.09471">
        <ele>657.2000122</ele>
        <time>2013-07-07T07:55:07Z</time>
      </trkpt>
      <trkpt lat="43.70885" lon="3.09469">
        <ele>657.5999756</ele>
        <time>2013-07-07T07:55:08Z</time>
      </trkpt>
      <trkpt lat="43.70883" lon="3.09468">
        <ele>658</ele>
        <time>2013-07-07T07:55:09Z</time>
      </trkpt>
      <trkpt lat="43.7088" lon="3.09467">
        <ele>658.5999756</ele>
        <time>2013-07-07T07:55:10Z</time>
      </trkpt>
      <trkpt lat="43.70876" lon="3.09466">
        <ele>659</ele>
        <time>2013-07-07T07:55:11Z</time>
      </trkpt>
      <trkpt lat="43.70874" lon="3.09464">
        <ele>659.4000244</ele>
        <time>2013-07-07T07:55:12Z</time>
      </trkpt>
      <trkpt lat="43.70863" lon="3.09458">
        <ele>659.4000244</ele>
        <time>2013-07-07T07:55:16Z</time>
      </trkpt>
      <trkpt lat="43.70849" lon="3.09445">
        <ele>659.7999878</ele>
        <time>2013-07-07T07:55:22Z</time>
      </trkpt>
      <trkpt lat="43.70847" lon="3.09442">
        <ele>660.2000122</ele>
        <time>2013-07-07T07:55:23Z</time>
      </trkpt>
      <trkpt lat="43.70844" lon="3.0944">
        <ele>660.5999756</ele>
        <time>2013-07-07T07:55:24Z</time>
      </trkpt>
      <trkpt lat="43.70841" lon="3.09438">
        <ele>661</ele>
        <time>2013-07-07T07:55:25Z</time>
      </trkpt>
      <trkpt lat="43.70839" lon="3.09436">
        <ele>661.4000244</ele>
        <time>2013-07-07T07:55:26Z</time>
      </trkpt>
      <trkpt lat="43.70835" lon="3.09432">
        <ele>661.4000244</ele>
        <time>2013-07-07T07:55:28Z</time>
      </trkpt>
      <trkpt lat="43.70826" lon="3.09426">
        <ele>662</ele>
        <time>2013-07-07T07:55:32Z</time>
      </trkpt>
      <trkpt lat="43.70824" lon="3.09426">
        <ele>662.4000244</ele>
        <time>2013-07-07T07:55:33Z</time>
      </trkpt>
      <trkpt lat="43.70822" lon="3.09425">
        <ele>662.7999878</ele>
        <time>2013-07-07T07:55:34Z</time>
      </trkpt>
      <trkpt lat="43.70819" lon="3.09424">
        <ele>663.2000122</ele>
        <time>2013-07-07T07:55:35Z</time>
      </trkpt>
      <trkpt lat="43.70816" lon="3.09423">
        <ele>663.5999756</ele>
        <time>2013-07-07T07:55:36Z</time>
      </trkpt>
      <trkpt lat="43.70809" lon="3.09421">
        <ele>663.5999756</ele>
        <time>2013-07-07T07:55:39Z</time>
      </trkpt>
      <trkpt lat="43.70807" lon="3.09421">
        <ele>663.5999756</ele>
        <time>2013-07-07T07:55:40Z</time>
      </trkpt>
      <trkpt lat="43.70799" lon="3.09417">
        <ele>664</ele>
        <time>2013-07-07T07:55:44Z</time>
      </trkpt>
      <trkpt lat="43.70799" lon="3.09413">
        <ele>664.4000244</ele>
        <time>2013-07-07T07:55:45Z</time>
      </trkpt>
      <trkpt lat="43.70801" lon="3.09405">
        <ele>664.7999878</ele>
        <time>2013-07-07T07:55:46Z</time>
      </trkpt>
      <trkpt lat="43.70801" lon="3.094">
        <ele>665.2000122</ele>
        <time>2013-07-07T07:55:47Z</time>
      </trkpt>
      <trkpt lat="43.70802" lon="3.09396">
        <ele>665.7999878</ele>
        <time>2013-07-07T07:55:48Z</time>
      </trkpt>
      <trkpt lat="43.70805" lon="3.0939">
        <ele>665.7999878</ele>
        <time>2013-07-07T07:55:50Z</time>
      </trkpt>
      <trkpt lat="43.70811" lon="3.09385">
        <ele>665.7999878</ele>
        <time>2013-07-07T07:55:52Z</time>
      </trkpt>
      <trkpt lat="43.70823" lon="3.09375">
        <ele>666.2000122</ele>
        <time>2013-07-07T07:55:57Z</time>
      </trkpt>
      <trkpt lat="43.70825" lon="3.09374">
        <ele>666.5999756</ele>
        <time>2013-07-07T07:55:58Z</time>
      </trkpt>
      <trkpt lat="43.70827" lon="3.09372">
        <ele>667</ele>
        <time>2013-07-07T07:55:59Z</time>
      </trkpt>
      <trkpt lat="43.70829" lon="3.09371">
        <ele>667.4000244</ele>
        <time>2013-07-07T07:56:00Z</time>
      </trkpt>
      <trkpt lat="43.70831" lon="3.09369">
        <ele>667.7999878</ele>
        <time>2013-07-07T07:56:01Z</time>
      </trkpt>
      <trkpt lat="43.70834" lon="3.09365">
        <ele>667.7999878</ele>
        <time>2013-07-07T07:56:03Z</time>
      </trkpt>
      <trkpt lat="43.70843" lon="3.09352">
        <ele>668.2000122</ele>
        <time>2013-07-07T07:56:10Z</time>
      </trkpt>
      <trkpt lat="43.70844" lon="3.09351">
        <ele>668.5999756</ele>
        <time>2013-07-07T07:56:11Z</time>
      </trkpt>
      <trkpt lat="43.70846" lon="3.0935">
        <ele>669</ele>
        <time>2013-07-07T07:56:12Z</time>
      </trkpt>
      <trkpt lat="43.70847" lon="3.09348">
        <ele>669.4000244</ele>
        <time>2013-07-07T07:56:13Z</time>
      </trkpt>
      <trkpt lat="43.70849" lon="3.09346">
        <ele>669.7999878</ele>
        <time>2013-07-07T07:56:14Z</time>
      </trkpt>
      <trkpt lat="43.70855" lon="3.09341">
        <ele>669.7999878</ele>
        <time>2013-07-07T07:56:17Z</time>
      </trkpt>
      <trkpt lat="43.70865" lon="3.09334">
        <ele>670.2000122</ele>
        <time>2013-07-07T07:56:22Z</time>
      </trkpt>
      <trkpt lat="43.70867" lon="3.09333">
        <ele>670.5999756</ele>
        <time>2013-07-07T07:56:23Z</time>
      </trkpt>
      <trkpt lat="43.70869" lon="3.09332">
        <ele>671.2000122</ele>
        <time>2013-07-07T07:56:24Z</time>
      </trkpt>
      <trkpt lat="43.70872" lon="3.0933">
        <ele>671.5999756</ele>
        <time>2013-07-07T07:56:25Z</time>
      </trkpt>
      <trkpt lat="43.70874" lon="3.09329">
        <ele>672</ele>
        <time>2013-07-07T07:56:26Z</time>
      </trkpt>
      <trkpt lat="43.70886" lon="3.09324">
        <ele>672</ele>
        <time>2013-07-07T07:56:32Z</time>
      </trkpt>
      <trkpt lat="43.70894" lon="3.09327">
        <ele>672.4000244</ele>
        <time>2013-07-07T07:56:36Z</time>
      </trkpt>
      <trkpt lat="43.70897" lon="3.09327">
        <ele>672.7999878</ele>
        <time>2013-07-07T07:56:37Z</time>
      </trkpt>
      <trkpt lat="43.70899" lon="3.09327">
        <ele>673.4000244</ele>
        <time>2013-07-07T07:56:38Z</time>
      </trkpt>
      <trkpt lat="43.70901" lon="3.09328">
        <ele>673.7999878</ele>
        <time>2013-07-07T07:56:39Z</time>
      </trkpt>
      <trkpt lat="43.70904" lon="3.09328">
        <ele>674.2000122</ele>
        <time>2013-07-07T07:56:40Z</time>
      </trkpt>
      <trkpt lat="43.70913" lon="3.09329">
        <ele>674.5999756</ele>
        <time>2013-07-07T07:56:44Z</time>
      </trkpt>
      <trkpt lat="43.70915" lon="3.0933">
        <ele>675</ele>
        <time>2013-07-07T07:56:45Z</time>
      </trkpt>
      <trkpt lat="43.70917" lon="3.0933">
        <ele>675.5999756</ele>
        <time>2013-07-07T07:56:46Z</time>
      </trkpt>
      <trkpt lat="43.70919" lon="3.09331">
        <ele>676</ele>
        <time>2013-07-07T07:56:47Z</time>
      </trkpt>
      <trkpt lat="43.70921" lon="3.09331">
        <ele>676.4000244</ele>
        <time>2013-07-07T07:56:48Z</time>
      </trkpt>
      <trkpt lat="43.7093" lon="3.09331">
        <ele>676.4000244</ele>
        <time>2013-07-07T07:56:52Z</time>
      </trkpt>
      <trkpt lat="43.70941" lon="3.09327">
        <ele>676.7999878</ele>
        <time>2013-07-07T07:56:56Z</time>
      </trkpt>
      <trkpt lat="43.70943" lon="3.09325">
        <ele>677.2000122</ele>
        <time>2013-07-07T07:56:57Z</time>
      </trkpt>
      <trkpt lat="43.70946" lon="3.09324">
        <ele>677.5999756</ele>
        <time>2013-07-07T07:56:58Z</time>
      </trkpt>
      <trkpt lat="43.70949" lon="3.09322">
        <ele>678</ele>
        <time>2013-07-07T07:56:59Z</time>
      </trkpt>
      <trkpt lat="43.70951" lon="3.0932">
        <ele>678.4000244</ele>
        <time>2013-07-07T07:57:00Z</time>
      </trkpt>
      <trkpt lat="43.70965" lon="3.09308">
        <ele>678.4000244</ele>
        <time>2013-07-07T07:57:06Z</time>
      </trkpt>
      <trkpt lat="43.70972" lon="3.09303">
        <ele>678.7999878</ele>
        <time>2013-07-07T07:57:09Z</time>
      </trkpt>
      <trkpt lat="43.70974" lon="3.09302">
        <ele>679.2000122</ele>
        <time>2013-07-07T07:57:10Z</time>
      </trkpt>
      <trkpt lat="43.70977" lon="3.093">
        <ele>679.7999878</ele>
        <time>2013-07-07T07:57:11Z</time>
      </trkpt>
      <trkpt lat="43.70979" lon="3.09298">
        <ele>680.2000122</ele>
        <time>2013-07-07T07:57:12Z</time>
      </trkpt>
      <trkpt lat="43.70981" lon="3.09296">
        <ele>680.5999756</ele>
        <time>2013-07-07T07:57:13Z</time>
      </trkpt>
      <trkpt lat="43.70983" lon="3.09295">
        <ele>680.5999756</ele>
        <time>2013-07-07T07:57:14Z</time>
      </trkpt>
      <trkpt lat="43.70997" lon="3.09286">
        <ele>681</ele>
        <time>2013-07-07T07:57:20Z</time>
      </trkpt>
      <trkpt lat="43.70999" lon="3.09284">
        <ele>681.4000244</ele>
        <time>2013-07-07T07:57:21Z</time>
      </trkpt>
      <trkpt lat="43.71001" lon="3.09282">
        <ele>681.7999878</ele>
        <time>2013-07-07T07:57:22Z</time>
      </trkpt>
      <trkpt lat="43.71003" lon="3.0928">
        <ele>682.2000122</ele>
        <time>2013-07-07T07:57:23Z</time>
      </trkpt>
      <trkpt lat="43.71005" lon="3.09278">
        <ele>682.7999878</ele>
        <time>2013-07-07T07:57:24Z</time>
      </trkpt>
      <trkpt lat="43.7101" lon="3.09273">
        <ele>682.7999878</ele>
        <time>2013-07-07T07:57:26Z</time>
      </trkpt>
      <trkpt lat="43.71024" lon="3.09259">
        <ele>682.7999878</ele>
        <time>2013-07-07T07:57:32Z</time>
      </trkpt>
      <trkpt lat="43.71026" lon="3.09256">
        <ele>683.2000122</ele>
        <time>2013-07-07T07:57:33Z</time>
      </trkpt>
      <trkpt lat="43.71028" lon="3.09254">
        <ele>683.5999756</ele>
        <time>2013-07-07T07:57:34Z</time>
      </trkpt>
      <trkpt lat="43.7103" lon="3.09252">
        <ele>684</ele>
        <time>2013-07-07T07:57:35Z</time>
      </trkpt>
      <trkpt lat="43.71032" lon="3.0925">
        <ele>684.4000244</ele>
        <time>2013-07-07T07:57:36Z</time>
      </trkpt>
      <trkpt lat="43.71034" lon="3.09247">
        <ele>684.7999878</ele>
        <time>2013-07-07T07:57:37Z</time>
      </trkpt>
      <trkpt lat="43.71036" lon="3.09245">
        <ele>684.7999878</ele>
        <time>2013-07-07T07:57:38Z</time>
      </trkpt>
      <trkpt lat="43.71041" lon="3.09238">
        <ele>685.2000122</ele>
        <time>2013-07-07T07:57:41Z</time>
      </trkpt>
      <trkpt lat="43.71044" lon="3.09236">
        <ele>685.5999756</ele>
        <time>2013-07-07T07:57:42Z</time>
      </trkpt>
      <trkpt lat="43.71046" lon="3.09234">
        <ele>686</ele>
        <time>2013-07-07T07:57:43Z</time>
      </trkpt>
      <trkpt lat="43.71048" lon="3.09232">
        <ele>686.4000244</ele>
        <time>2013-07-07T07:57:44Z</time>
      </trkpt>
      <trkpt lat="43.7105" lon="3.09229">
        <ele>686.7999878</ele>
        <time>2013-07-07T07:57:45Z</time>
      </trkpt>
      <trkpt lat="43.71052" lon="3.09227">
        <ele>686.7999878</ele>
        <time>2013-07-07T07:57:46Z</time>
      </trkpt>
      <trkpt lat="43.71063" lon="3.09217">
        <ele>686.7999878</ele>
        <time>2013-07-07T07:57:52Z</time>
      </trkpt>
      <trkpt lat="43.71066" lon="3.09213">
        <ele>687.2000122</ele>
        <time>2013-07-07T07:57:54Z</time>
      </trkpt>
      <trkpt lat="43.71068" lon="3.09211">
        <ele>687.5999756</ele>
        <time>2013-07-07T07:57:55Z</time>
      </trkpt>
      <trkpt lat="43.7107" lon="3.09209">
        <ele>688.5999756</ele>
        <time>2013-07-07T07:57:56Z</time>
      </trkpt>
      <trkpt lat="43.71073" lon="3.09207">
        <ele>689</ele>
        <time>2013-07-07T07:57:57Z</time>
      </trkpt>
      <trkpt lat="43.71077" lon="3.09203">
        <ele>689</ele>
        <time>2013-07-07T07:57:59Z</time>
      </trkpt>
      <trkpt lat="43.71092" lon="3.09188">
        <ele>689.4000244</ele>
        <time>2013-07-07T07:58:07Z</time>
      </trkpt>
      <trkpt lat="43.71094" lon="3.09186">
        <ele>689.7999878</ele>
        <time>2013-07-07T07:58:08Z</time>
      </trkpt>
      <trkpt lat="43.71097" lon="3.09185">
        <ele>690.2000122</ele>
        <time>2013-07-07T07:58:09Z</time>
      </trkpt>
      <trkpt lat="43.711" lon="3.09185">
        <ele>690.5999756</ele>
        <time>2013-07-07T07:58:10Z</time>
      </trkpt>
      <trkpt lat="43.71102" lon="3.09183">
        <ele>691.2000122</ele>
        <time>2013-07-07T07:58:11Z</time>
      </trkpt>
      <trkpt lat="43.71114" lon="3.09175">
        <ele>691.2000122</ele>
        <time>2013-07-07T07:58:17Z</time>
      </trkpt>
      <trkpt lat="43.7112" lon="3.09169">
        <ele>691.5999756</ele>
        <time>2013-07-07T07:58:20Z</time>
      </trkpt>
      <trkpt lat="43.71122" lon="3.09167">
        <ele>692</ele>
        <time>2013-07-07T07:58:21Z</time>
      </trkpt>
      <trkpt lat="43.71124" lon="3.09165">
        <ele>692.4000244</ele>
        <time>2013-07-07T07:58:22Z</time>
      </trkpt>
      <trkpt lat="43.71126" lon="3.09164">
        <ele>692.7999878</ele>
        <time>2013-07-07T07:58:23Z</time>
      </trkpt>
      <trkpt lat="43.71128" lon="3.09162">
        <ele>693.2000122</ele>
        <time>2013-07-07T07:58:24Z</time>
      </trkpt>
      <trkpt lat="43.71143" lon="3.09147">
        <ele>693.2000122</ele>
        <time>2013-07-07T07:58:32Z</time>
      </trkpt>
      <trkpt lat="43.71147" lon="3.09141">
        <ele>693.5999756</ele>
        <time>2013-07-07T07:58:36Z</time>
      </trkpt>
      <trkpt lat="43.71147" lon="3.09141">
        <ele>694</ele>
        <time>2013-07-07T07:58:37Z</time>
      </trkpt>
      <trkpt lat="43.71147" lon="3.09141">
        <ele>694.4000244</ele>
        <time>2013-07-07T07:58:38Z</time>
      </trkpt>
      <trkpt lat="43.71147" lon="3.09141">
        <ele>694.7999878</ele>
        <time>2013-07-07T07:58:39Z</time>
      </trkpt>
      <trkpt lat="43.71147" lon="3.09141">
        <ele>695.2000122</ele>
        <time>2013-07-07T07:58:40Z</time>
      </trkpt>
      <trkpt lat="43.71147" lon="3.09137">
        <ele>695.2000122</ele>
        <time>2013-07-07T08:04:49Z</time>
      </trkpt>
      <trkpt lat="43.71146" lon="3.09135">
        <ele>695.2000122</ele>
        <time>2013-07-07T08:04:50Z</time>
      </trkpt>
      <trkpt lat="43.71146" lon="3.09133">
        <ele>695.2000122</ele>
        <time>2013-07-07T08:04:51Z</time>
      </trkpt>
      <trkpt lat="43.71144" lon="3.09127">
        <ele>695.2000122</ele>
        <time>2013-07-07T08:04:53Z</time>
      </trkpt>
      <trkpt lat="43.71141" lon="3.09119">
        <ele>695.2000122</ele>
        <time>2013-07-07T08:04:56Z</time>
      </trkpt>
      <trkpt lat="43.71138" lon="3.09112">
        <ele>695.2000122</ele>
        <time>2013-07-07T08:04:58Z</time>
      </trkpt>
    </trkseg>
  </trk>
</gpx>